<?xml version="1.0" encoding="UTF-8" standalone="no" ?>
<gpx xmlns="http://www.topografix.com/GPX/1/1" xmlns:xsi="http://www.w3.org/2001/XMLSchema-instance" xsi:schemaLocation="http://www.topografix.com/GPX/1/1 http://www.topografix.com/GPX/1/1/gpx.xsd" version="1.1" creator="VisuGPX - https://www.visugpx.com">
  <metadata>
    <name>Les Chemins du Soleil Sud</name>
    <desc><![CDATA[Les Chemins du Soleil Sud ou la traversée des préAlpes du Sud (Sisteron - Nice).

Cette trace s'autorise quelques variantes par rapport au tracé officiel (pas complètement défini à l'époque)
Vous trouverez le tracé officiel sur le site: http://www.grande-traversee-alpes.com/fr/je-voyage/a-vtt.html Rubrique Carnet de voyage.
Pour le détail des variantes : http://www.vttour.fr/topos/les-chemins-du-soleil-sud,1163.html
]]></desc>
  </metadata>
  <trk>
    <name><![CDATA[track]]></name>
    <trkseg>
      <trkpt lat="44.13808" lon="5.96793">
        <ele>480</ele>
        <time>1990-12-05T07:55:41Z</time>
      </trkpt>
      <trkpt lat="44.13768" lon="5.96788">
        <ele>476</ele>
        <time>1990-12-05T07:56:36Z</time>
      </trkpt>
      <trkpt lat="44.13783" lon="5.96787">
        <ele>475</ele>
        <time>1990-12-05T08:07:34Z</time>
      </trkpt>
      <trkpt lat="44.13783" lon="5.9678">
        <ele>476</ele>
        <time>1990-12-05T08:08:00Z</time>
      </trkpt>
      <trkpt lat="44.13822" lon="5.96713">
        <ele>476</ele>
        <time>1990-12-05T08:08:26Z</time>
      </trkpt>
      <trkpt lat="44.13867" lon="5.96627">
        <ele>475</ele>
        <time>1990-12-05T08:08:53Z</time>
      </trkpt>
      <trkpt lat="44.13912" lon="5.9656">
        <ele>475</ele>
        <time>1990-12-05T08:09:18Z</time>
      </trkpt>
      <trkpt lat="44.13867" lon="5.96463">
        <ele>478</ele>
        <time>1990-12-05T08:09:49Z</time>
      </trkpt>
      <trkpt lat="44.13825" lon="5.96332">
        <ele>481</ele>
        <time>1990-12-05T08:10:24Z</time>
      </trkpt>
      <trkpt lat="44.13807" lon="5.96183">
        <ele>483</ele>
        <time>1990-12-05T08:10:58Z</time>
      </trkpt>
      <trkpt lat="44.13802" lon="5.96128">
        <ele>484</ele>
        <time>1990-12-05T08:11:13Z</time>
      </trkpt>
      <trkpt lat="44.138" lon="5.96138">
        <ele>484</ele>
        <time>1990-12-05T08:11:36Z</time>
      </trkpt>
      <trkpt lat="44.138" lon="5.96133">
        <ele>484</ele>
        <time>1990-12-05T08:11:50Z</time>
      </trkpt>
      <trkpt lat="44.13797" lon="5.9613">
        <ele>483</ele>
        <time>1990-12-05T08:16:56Z</time>
      </trkpt>
      <trkpt lat="44.13722" lon="5.96167">
        <ele>482</ele>
        <time>1990-12-05T08:17:15Z</time>
      </trkpt>
      <trkpt lat="44.13613" lon="5.96228">
        <ele>482</ele>
        <time>1990-12-05T08:17:40Z</time>
      </trkpt>
      <trkpt lat="44.13487" lon="5.96303">
        <ele>481</ele>
        <time>1990-12-05T08:18:05Z</time>
      </trkpt>
      <trkpt lat="44.13388" lon="5.96367">
        <ele>479</ele>
        <time>1990-12-05T08:18:28Z</time>
      </trkpt>
      <trkpt lat="44.13303" lon="5.96435">
        <ele>476</ele>
        <time>1990-12-05T08:18:45Z</time>
      </trkpt>
      <trkpt lat="44.13242" lon="5.96495">
        <ele>480</ele>
        <time>1990-12-05T08:19:06Z</time>
      </trkpt>
      <trkpt lat="44.13133" lon="5.9653">
        <ele>484</ele>
        <time>1990-12-05T08:19:43Z</time>
      </trkpt>
      <trkpt lat="44.13092" lon="5.96568">
        <ele>488</ele>
        <time>1990-12-05T08:20:06Z</time>
      </trkpt>
      <trkpt lat="44.13073" lon="5.96677">
        <ele>488</ele>
        <time>1990-12-05T08:20:35Z</time>
      </trkpt>
      <trkpt lat="44.13042" lon="5.96813">
        <ele>487</ele>
        <time>1990-12-05T08:21:00Z</time>
      </trkpt>
      <trkpt lat="44.13028" lon="5.96872">
        <ele>487</ele>
        <time>1990-12-05T08:21:10Z</time>
      </trkpt>
      <trkpt lat="44.1299" lon="5.9694">
        <ele>488</ele>
        <time>1990-12-05T08:21:25Z</time>
      </trkpt>
      <trkpt lat="44.12943" lon="5.9692">
        <ele>489</ele>
        <time>1990-12-05T08:21:41Z</time>
      </trkpt>
      <trkpt lat="44.12887" lon="5.96878">
        <ele>495</ele>
        <time>1990-12-05T08:22:07Z</time>
      </trkpt>
      <trkpt lat="44.12848" lon="5.96813">
        <ele>500</ele>
        <time>1990-12-05T08:22:36Z</time>
      </trkpt>
      <trkpt lat="44.12822" lon="5.96795">
        <ele>503</ele>
        <time>1990-12-05T08:22:53Z</time>
      </trkpt>
      <trkpt lat="44.12785" lon="5.96785">
        <ele>508</ele>
        <time>1990-12-05T08:23:19Z</time>
      </trkpt>
      <trkpt lat="44.12763" lon="5.9683">
        <ele>513</ele>
        <time>1990-12-05T08:23:43Z</time>
      </trkpt>
      <trkpt lat="44.12747" lon="5.96877">
        <ele>516</ele>
        <time>1990-12-05T08:24:05Z</time>
      </trkpt>
      <trkpt lat="44.12742" lon="5.96903">
        <ele>518</ele>
        <time>1990-12-05T08:24:17Z</time>
      </trkpt>
      <trkpt lat="44.12752" lon="5.96937">
        <ele>520</ele>
        <time>1990-12-05T08:24:32Z</time>
      </trkpt>
      <trkpt lat="44.12745" lon="5.96958">
        <ele>522</ele>
        <time>1990-12-05T08:24:42Z</time>
      </trkpt>
      <trkpt lat="44.12705" lon="5.9698">
        <ele>526</ele>
        <time>1990-12-05T08:25:04Z</time>
      </trkpt>
      <trkpt lat="44.1265" lon="5.97002">
        <ele>529</ele>
        <time>1990-12-05T08:25:37Z</time>
      </trkpt>
      <trkpt lat="44.1259" lon="5.97022">
        <ele>530</ele>
        <time>1990-12-05T08:26:06Z</time>
      </trkpt>
      <trkpt lat="44.12517" lon="5.97018">
        <ele>532</ele>
        <time>1990-12-05T08:26:35Z</time>
      </trkpt>
      <trkpt lat="44.12452" lon="5.9702">
        <ele>535</ele>
        <time>1990-12-05T08:27:03Z</time>
      </trkpt>
      <trkpt lat="44.12438" lon="5.9704">
        <ele>536</ele>
        <time>1990-12-05T08:27:16Z</time>
      </trkpt>
      <trkpt lat="44.12425" lon="5.97112">
        <ele>538</ele>
        <time>1990-12-05T08:27:45Z</time>
      </trkpt>
      <trkpt lat="44.12405" lon="5.97203">
        <ele>539</ele>
        <time>1990-12-05T08:28:14Z</time>
      </trkpt>
      <trkpt lat="44.12375" lon="5.97277">
        <ele>538</ele>
        <time>1990-12-05T08:28:27Z</time>
      </trkpt>
      <trkpt lat="44.1236" lon="5.97348">
        <ele>538</ele>
        <time>1990-12-05T08:28:37Z</time>
      </trkpt>
      <trkpt lat="44.12323" lon="5.97462">
        <ele>537</ele>
        <time>1990-12-05T08:29:03Z</time>
      </trkpt>
      <trkpt lat="44.12317" lon="5.97493">
        <ele>536</ele>
        <time>1990-12-05T08:29:08Z</time>
      </trkpt>
      <trkpt lat="44.123" lon="5.97528">
        <ele>533</ele>
        <time>1990-12-05T08:29:15Z</time>
      </trkpt>
      <trkpt lat="44.12278" lon="5.97597">
        <ele>527</ele>
        <time>1990-12-05T08:29:25Z</time>
      </trkpt>
      <trkpt lat="44.12288" lon="5.97665">
        <ele>524</ele>
        <time>1990-12-05T08:29:35Z</time>
      </trkpt>
      <trkpt lat="44.12312" lon="5.97678">
        <ele>522</ele>
        <time>1990-12-05T08:29:40Z</time>
      </trkpt>
      <trkpt lat="44.1233" lon="5.97693">
        <ele>520</ele>
        <time>1990-12-05T08:29:44Z</time>
      </trkpt>
      <trkpt lat="44.12335" lon="5.97725">
        <ele>517</ele>
        <time>1990-12-05T08:29:49Z</time>
      </trkpt>
      <trkpt lat="44.12323" lon="5.97785">
        <ele>512</ele>
        <time>1990-12-05T08:29:57Z</time>
      </trkpt>
      <trkpt lat="44.12313" lon="5.97867">
        <ele>508</ele>
        <time>1990-12-05T08:30:06Z</time>
      </trkpt>
      <trkpt lat="44.12292" lon="5.97897">
        <ele>507</ele>
        <time>1990-12-05T08:30:12Z</time>
      </trkpt>
      <trkpt lat="44.12265" lon="5.97902">
        <ele>505</ele>
        <time>1990-12-05T08:30:18Z</time>
      </trkpt>
      <trkpt lat="44.12205" lon="5.97912">
        <ele>501</ele>
        <time>1990-12-05T08:30:30Z</time>
      </trkpt>
      <trkpt lat="44.1219" lon="5.97915">
        <ele>500</ele>
        <time>1990-12-05T08:30:33Z</time>
      </trkpt>
      <trkpt lat="44.12168" lon="5.97917">
        <ele>497</ele>
        <time>1990-12-05T08:30:38Z</time>
      </trkpt>
      <trkpt lat="44.12123" lon="5.97938">
        <ele>492</ele>
        <time>1990-12-05T08:30:48Z</time>
      </trkpt>
      <trkpt lat="44.12097" lon="5.9795">
        <ele>488</ele>
        <time>1990-12-05T08:30:55Z</time>
      </trkpt>
      <trkpt lat="44.12072" lon="5.97943">
        <ele>485</ele>
        <time>1990-12-05T08:31:01Z</time>
      </trkpt>
      <trkpt lat="44.12043" lon="5.97912">
        <ele>481</ele>
        <time>1990-12-05T08:31:11Z</time>
      </trkpt>
      <trkpt lat="44.12042" lon="5.97975">
        <ele>476</ele>
        <time>1990-12-05T08:31:28Z</time>
      </trkpt>
      <trkpt lat="44.12052" lon="5.98022">
        <ele>472</ele>
        <time>1990-12-05T08:31:46Z</time>
      </trkpt>
      <trkpt lat="44.12053" lon="5.98038">
        <ele>469</ele>
        <time>1990-12-05T08:31:59Z</time>
      </trkpt>
      <trkpt lat="44.12042" lon="5.98032">
        <ele>473</ele>
        <time>1990-12-05T08:32:24Z</time>
      </trkpt>
      <trkpt lat="44.1202" lon="5.98017">
        <ele>479</ele>
        <time>1990-12-05T08:32:55Z</time>
      </trkpt>
      <trkpt lat="44.11997" lon="5.9801">
        <ele>485</ele>
        <time>1990-12-05T08:33:28Z</time>
      </trkpt>
      <trkpt lat="44.11967" lon="5.98023">
        <ele>491</ele>
        <time>1990-12-05T08:34:13Z</time>
      </trkpt>
      <trkpt lat="44.11945" lon="5.98035">
        <ele>495</ele>
        <time>1990-12-05T08:34:44Z</time>
      </trkpt>
      <trkpt lat="44.11933" lon="5.9805">
        <ele>496</ele>
        <time>1990-12-05T08:34:57Z</time>
      </trkpt>
      <trkpt lat="44.11927" lon="5.98072">
        <ele>497</ele>
        <time>1990-12-05T08:35:08Z</time>
      </trkpt>
      <trkpt lat="44.11915" lon="5.98095">
        <ele>499</ele>
        <time>1990-12-05T08:35:26Z</time>
      </trkpt>
      <trkpt lat="44.11898" lon="5.98115">
        <ele>503</ele>
        <time>1990-12-05T08:35:43Z</time>
      </trkpt>
      <trkpt lat="44.11877" lon="5.98148">
        <ele>506</ele>
        <time>1990-12-05T08:36:00Z</time>
      </trkpt>
      <trkpt lat="44.11853" lon="5.98145">
        <ele>509</ele>
        <time>1990-12-05T08:36:15Z</time>
      </trkpt>
      <trkpt lat="44.11835" lon="5.98148">
        <ele>511</ele>
        <time>1990-12-05T08:36:28Z</time>
      </trkpt>
      <trkpt lat="44.11817" lon="5.98163">
        <ele>513</ele>
        <time>1990-12-05T08:36:43Z</time>
      </trkpt>
      <trkpt lat="44.11802" lon="5.9818">
        <ele>515</ele>
        <time>1990-12-05T08:36:54Z</time>
      </trkpt>
      <trkpt lat="44.11767" lon="5.9821">
        <ele>521</ele>
        <time>1990-12-05T08:37:18Z</time>
      </trkpt>
      <trkpt lat="44.11745" lon="5.98228">
        <ele>525</ele>
        <time>1990-12-05T08:37:29Z</time>
      </trkpt>
      <trkpt lat="44.11737" lon="5.98235">
        <ele>526</ele>
        <time>1990-12-05T08:37:36Z</time>
      </trkpt>
      <trkpt lat="44.11728" lon="5.98255">
        <ele>526</ele>
        <time>1990-12-05T08:40:33Z</time>
      </trkpt>
      <trkpt lat="44.11712" lon="5.98285">
        <ele>527</ele>
        <time>1990-12-05T08:40:49Z</time>
      </trkpt>
      <trkpt lat="44.11698" lon="5.98337">
        <ele>525</ele>
        <time>1990-12-05T08:41:05Z</time>
      </trkpt>
      <trkpt lat="44.11687" lon="5.98378">
        <ele>524</ele>
        <time>1990-12-05T08:41:13Z</time>
      </trkpt>
      <trkpt lat="44.11638" lon="5.98413">
        <ele>526</ele>
        <time>1990-12-05T08:41:38Z</time>
      </trkpt>
      <trkpt lat="44.11558" lon="5.98452">
        <ele>527</ele>
        <time>1990-12-05T08:42:05Z</time>
      </trkpt>
      <trkpt lat="44.11532" lon="5.9846">
        <ele>527</ele>
        <time>1990-12-05T08:42:16Z</time>
      </trkpt>
      <trkpt lat="44.11522" lon="5.98513">
        <ele>531</ele>
        <time>1990-12-05T08:42:30Z</time>
      </trkpt>
      <trkpt lat="44.11475" lon="5.98535">
        <ele>536</ele>
        <time>1990-12-05T08:42:44Z</time>
      </trkpt>
      <trkpt lat="44.11428" lon="5.98555">
        <ele>541</ele>
        <time>1990-12-05T08:42:54Z</time>
      </trkpt>
      <trkpt lat="44.11413" lon="5.9856">
        <ele>542</ele>
        <time>1990-12-05T08:44:31Z</time>
      </trkpt>
      <trkpt lat="44.11377" lon="5.98563">
        <ele>543</ele>
        <time>1990-12-05T08:44:47Z</time>
      </trkpt>
      <trkpt lat="44.11325" lon="5.98563">
        <ele>546</ele>
        <time>1990-12-05T08:45:04Z</time>
      </trkpt>
      <trkpt lat="44.11267" lon="5.98572">
        <ele>550</ele>
        <time>1990-12-05T08:45:30Z</time>
      </trkpt>
      <trkpt lat="44.11193" lon="5.98605">
        <ele>550</ele>
        <time>1990-12-05T08:45:53Z</time>
      </trkpt>
      <trkpt lat="44.11107" lon="5.98643">
        <ele>552</ele>
        <time>1990-12-05T08:46:18Z</time>
      </trkpt>
      <trkpt lat="44.11023" lon="5.98645">
        <ele>555</ele>
        <time>1990-12-05T08:46:43Z</time>
      </trkpt>
      <trkpt lat="44.10967" lon="5.98672">
        <ele>554</ele>
        <time>1990-12-05T08:47:02Z</time>
      </trkpt>
      <trkpt lat="44.10912" lon="5.98653">
        <ele>556</ele>
        <time>1990-12-05T08:47:21Z</time>
      </trkpt>
      <trkpt lat="44.10882" lon="5.9857">
        <ele>556</ele>
        <time>1990-12-05T08:47:41Z</time>
      </trkpt>
      <trkpt lat="44.10868" lon="5.98528">
        <ele>553</ele>
        <time>1990-12-05T08:48:18Z</time>
      </trkpt>
      <trkpt lat="44.10852" lon="5.98515">
        <ele>554</ele>
        <time>1990-12-05T08:49:04Z</time>
      </trkpt>
      <trkpt lat="44.10832" lon="5.98537">
        <ele>556</ele>
        <time>1990-12-05T08:49:24Z</time>
      </trkpt>
      <trkpt lat="44.10838" lon="5.98593">
        <ele>554</ele>
        <time>1990-12-05T08:49:38Z</time>
      </trkpt>
      <trkpt lat="44.1082" lon="5.98638">
        <ele>558</ele>
        <time>1990-12-05T08:49:52Z</time>
      </trkpt>
      <trkpt lat="44.10778" lon="5.98672">
        <ele>560</ele>
        <time>1990-12-05T08:50:19Z</time>
      </trkpt>
      <trkpt lat="44.10755" lon="5.98687">
        <ele>557</ele>
        <time>1990-12-05T08:50:33Z</time>
      </trkpt>
      <trkpt lat="44.10737" lon="5.98702">
        <ele>555</ele>
        <time>1990-12-05T08:50:38Z</time>
      </trkpt>
      <trkpt lat="44.10722" lon="5.98707">
        <ele>555</ele>
        <time>1990-12-05T08:50:41Z</time>
      </trkpt>
      <trkpt lat="44.10685" lon="5.9875">
        <ele>550</ele>
        <time>1990-12-05T08:50:53Z</time>
      </trkpt>
      <trkpt lat="44.10682" lon="5.98807">
        <ele>544</ele>
        <time>1990-12-05T08:51:04Z</time>
      </trkpt>
      <trkpt lat="44.10645" lon="5.98805">
        <ele>538</ele>
        <time>1990-12-05T08:51:17Z</time>
      </trkpt>
      <trkpt lat="44.1066" lon="5.98862">
        <ele>540</ele>
        <time>1990-12-05T08:51:33Z</time>
      </trkpt>
      <trkpt lat="44.10683" lon="5.98887">
        <ele>541</ele>
        <time>1990-12-05T08:52:01Z</time>
      </trkpt>
      <trkpt lat="44.10693" lon="5.98915">
        <ele>544</ele>
        <time>1990-12-05T08:52:15Z</time>
      </trkpt>
      <trkpt lat="44.10695" lon="5.9894">
        <ele>549</ele>
        <time>1990-12-05T08:52:30Z</time>
      </trkpt>
      <trkpt lat="44.10678" lon="5.98955">
        <ele>553</ele>
        <time>1990-12-05T08:52:41Z</time>
      </trkpt>
      <trkpt lat="44.1067" lon="5.98967">
        <ele>554</ele>
        <time>1990-12-05T08:53:05Z</time>
      </trkpt>
      <trkpt lat="44.10645" lon="5.98983">
        <ele>556</ele>
        <time>1990-12-05T08:55:23Z</time>
      </trkpt>
      <trkpt lat="44.10605" lon="5.99035">
        <ele>562</ele>
        <time>1990-12-05T08:55:59Z</time>
      </trkpt>
      <trkpt lat="44.10583" lon="5.9905">
        <ele>566</ele>
        <time>1990-12-05T08:56:20Z</time>
      </trkpt>
      <trkpt lat="44.1056" lon="5.99073">
        <ele>570</ele>
        <time>1990-12-05T08:56:38Z</time>
      </trkpt>
      <trkpt lat="44.10548" lon="5.99072">
        <ele>571</ele>
        <time>1990-12-05T08:56:47Z</time>
      </trkpt>
      <trkpt lat="44.10535" lon="5.99058">
        <ele>573</ele>
        <time>1990-12-05T08:56:57Z</time>
      </trkpt>
      <trkpt lat="44.10505" lon="5.99027">
        <ele>576</ele>
        <time>1990-12-05T08:57:19Z</time>
      </trkpt>
      <trkpt lat="44.10457" lon="5.98982">
        <ele>579</ele>
        <time>1990-12-05T08:57:50Z</time>
      </trkpt>
      <trkpt lat="44.10415" lon="5.98937">
        <ele>584</ele>
        <time>1990-12-05T08:58:20Z</time>
      </trkpt>
      <trkpt lat="44.10397" lon="5.98915">
        <ele>587</ele>
        <time>1990-12-05T08:58:37Z</time>
      </trkpt>
      <trkpt lat="44.10365" lon="5.98875">
        <ele>591</ele>
        <time>1990-12-05T08:59:04Z</time>
      </trkpt>
      <trkpt lat="44.10357" lon="5.98817">
        <ele>592</ele>
        <time>1990-12-05T08:59:30Z</time>
      </trkpt>
      <trkpt lat="44.10348" lon="5.98778">
        <ele>593</ele>
        <time>1990-12-05T08:59:51Z</time>
      </trkpt>
      <trkpt lat="44.10328" lon="5.98753">
        <ele>595</ele>
        <time>1990-12-05T09:00:10Z</time>
      </trkpt>
      <trkpt lat="44.1031" lon="5.98737">
        <ele>597</ele>
        <time>1990-12-05T09:00:26Z</time>
      </trkpt>
      <trkpt lat="44.10288" lon="5.98718">
        <ele>600</ele>
        <time>1990-12-05T09:00:43Z</time>
      </trkpt>
      <trkpt lat="44.1028" lon="5.98712">
        <ele>601</ele>
        <time>1990-12-05T09:00:49Z</time>
      </trkpt>
      <trkpt lat="44.10252" lon="5.98678">
        <ele>605</ele>
        <time>1990-12-05T09:01:12Z</time>
      </trkpt>
      <trkpt lat="44.10213" lon="5.98662">
        <ele>609</ele>
        <time>1990-12-05T09:01:40Z</time>
      </trkpt>
      <trkpt lat="44.1017" lon="5.98648">
        <ele>613</ele>
        <time>1990-12-05T09:02:10Z</time>
      </trkpt>
      <trkpt lat="44.10142" lon="5.9865">
        <ele>615</ele>
        <time>1990-12-05T09:02:28Z</time>
      </trkpt>
      <trkpt lat="44.101" lon="5.98657">
        <ele>619</ele>
        <time>1990-12-05T09:02:55Z</time>
      </trkpt>
      <trkpt lat="44.10052" lon="5.98643">
        <ele>623</ele>
        <time>1990-12-05T09:03:23Z</time>
      </trkpt>
      <trkpt lat="44.10042" lon="5.98633">
        <ele>625</ele>
        <time>1990-12-05T09:03:33Z</time>
      </trkpt>
      <trkpt lat="44.10078" lon="5.98597">
        <ele>626</ele>
        <time>1990-12-05T09:04:00Z</time>
      </trkpt>
      <trkpt lat="44.10138" lon="5.98558">
        <ele>628</ele>
        <time>1990-12-05T09:04:30Z</time>
      </trkpt>
      <trkpt lat="44.10167" lon="5.98522">
        <ele>628</ele>
        <time>1990-12-05T09:04:57Z</time>
      </trkpt>
      <trkpt lat="44.10197" lon="5.98477">
        <ele>627</ele>
        <time>1990-12-05T09:08:56Z</time>
      </trkpt>
      <trkpt lat="44.10235" lon="5.98398">
        <ele>624</ele>
        <time>1990-12-05T09:09:09Z</time>
      </trkpt>
      <trkpt lat="44.1025" lon="5.9834">
        <ele>623</ele>
        <time>1990-12-05T09:09:16Z</time>
      </trkpt>
      <trkpt lat="44.10243" lon="5.98252">
        <ele>623</ele>
        <time>1990-12-05T09:09:36Z</time>
      </trkpt>
      <trkpt lat="44.10222" lon="5.9818">
        <ele>620</ele>
        <time>1990-12-05T09:09:48Z</time>
      </trkpt>
      <trkpt lat="44.10175" lon="5.98182">
        <ele>621</ele>
        <time>1990-12-05T09:10:09Z</time>
      </trkpt>
      <trkpt lat="44.10148" lon="5.98205">
        <ele>617</ele>
        <time>1990-12-05T09:10:16Z</time>
      </trkpt>
      <trkpt lat="44.1013" lon="5.98247">
        <ele>613</ele>
        <time>1990-12-05T09:10:23Z</time>
      </trkpt>
      <trkpt lat="44.10097" lon="5.98282">
        <ele>607</ele>
        <time>1990-12-05T09:10:31Z</time>
      </trkpt>
      <trkpt lat="44.09997" lon="5.98313">
        <ele>600</ele>
        <time>1990-12-05T09:10:45Z</time>
      </trkpt>
      <trkpt lat="44.0989" lon="5.98352">
        <ele>594</ele>
        <time>1990-12-05T09:10:59Z</time>
      </trkpt>
      <trkpt lat="44.0984" lon="5.98378">
        <ele>590</ele>
        <time>1990-12-05T09:11:06Z</time>
      </trkpt>
      <trkpt lat="44.09777" lon="5.98425">
        <ele>585</ele>
        <time>1990-12-05T09:11:16Z</time>
      </trkpt>
      <trkpt lat="44.09738" lon="5.98458">
        <ele>582</ele>
        <time>1990-12-05T09:11:22Z</time>
      </trkpt>
      <trkpt lat="44.09682" lon="5.98507">
        <ele>576</ele>
        <time>1990-12-05T09:11:31Z</time>
      </trkpt>
      <trkpt lat="44.09642" lon="5.98537">
        <ele>570</ele>
        <time>1990-12-05T09:11:38Z</time>
      </trkpt>
      <trkpt lat="44.09605" lon="5.98582">
        <ele>566</ele>
        <time>1990-12-05T09:11:45Z</time>
      </trkpt>
      <trkpt lat="44.09577" lon="5.9863">
        <ele>566</ele>
        <time>1990-12-05T09:11:52Z</time>
      </trkpt>
      <trkpt lat="44.095" lon="5.98773">
        <ele>561</ele>
        <time>1990-12-05T09:12:15Z</time>
      </trkpt>
      <trkpt lat="44.09485" lon="5.98797">
        <ele>560</ele>
        <time>1990-12-05T09:12:18Z</time>
      </trkpt>
      <trkpt lat="44.09443" lon="5.9884">
        <ele>558</ele>
        <time>1990-12-05T09:12:26Z</time>
      </trkpt>
      <trkpt lat="44.09385" lon="5.98898">
        <ele>553</ele>
        <time>1990-12-05T09:12:36Z</time>
      </trkpt>
      <trkpt lat="44.09372" lon="5.98915">
        <ele>552</ele>
        <time>1990-12-05T09:12:39Z</time>
      </trkpt>
      <trkpt lat="44.0936" lon="5.9892">
        <ele>551</ele>
        <time>1990-12-05T09:12:41Z</time>
      </trkpt>
      <trkpt lat="44.09337" lon="5.98927">
        <ele>550</ele>
        <time>1990-12-05T09:12:44Z</time>
      </trkpt>
      <trkpt lat="44.0932" lon="5.98937">
        <ele>548</ele>
        <time>1990-12-05T09:12:47Z</time>
      </trkpt>
      <trkpt lat="44.09312" lon="5.98942">
        <ele>547</ele>
        <time>1990-12-05T09:12:49Z</time>
      </trkpt>
      <trkpt lat="44.09303" lon="5.98945">
        <ele>546</ele>
        <time>1990-12-05T09:12:51Z</time>
      </trkpt>
      <trkpt lat="44.09295" lon="5.98948">
        <ele>545</ele>
        <time>1990-12-05T09:12:53Z</time>
      </trkpt>
      <trkpt lat="44.09277" lon="5.98942">
        <ele>542</ele>
        <time>1990-12-05T09:13:00Z</time>
      </trkpt>
      <trkpt lat="44.09275" lon="5.98962">
        <ele>541</ele>
        <time>1990-12-05T09:13:11Z</time>
      </trkpt>
      <trkpt lat="44.09275" lon="5.98957">
        <ele>541</ele>
        <time>1990-12-05T09:13:25Z</time>
      </trkpt>
      <trkpt lat="44.09272" lon="5.98948">
        <ele>541</ele>
        <time>1990-12-05T09:13:32Z</time>
      </trkpt>
      <trkpt lat="44.09265" lon="5.99033">
        <ele>543</ele>
        <time>1990-12-05T09:14:01Z</time>
      </trkpt>
      <trkpt lat="44.09263" lon="5.99185">
        <ele>541</ele>
        <time>1990-12-05T09:14:32Z</time>
      </trkpt>
      <trkpt lat="44.093" lon="5.99343">
        <ele>539</ele>
        <time>1990-12-05T09:15:01Z</time>
      </trkpt>
      <trkpt lat="44.09377" lon="5.99462">
        <ele>538</ele>
        <time>1990-12-05T09:15:28Z</time>
      </trkpt>
      <trkpt lat="44.09428" lon="5.99578">
        <ele>536</ele>
        <time>1990-12-05T09:15:55Z</time>
      </trkpt>
      <trkpt lat="44.09457" lon="5.99623">
        <ele>533</ele>
        <time>1990-12-05T09:16:03Z</time>
      </trkpt>
      <trkpt lat="44.09478" lon="5.99725">
        <ele>526</ele>
        <time>1990-12-05T09:16:12Z</time>
      </trkpt>
      <trkpt lat="44.09487" lon="5.99843">
        <ele>519</ele>
        <time>1990-12-05T09:16:22Z</time>
      </trkpt>
      <trkpt lat="44.09498" lon="5.99898">
        <ele>514</ele>
        <time>1990-12-05T09:16:28Z</time>
      </trkpt>
      <trkpt lat="44.09522" lon="5.99978">
        <ele>510</ele>
        <time>1990-12-05T09:16:36Z</time>
      </trkpt>
      <trkpt lat="44.0952" lon="6.0005">
        <ele>506</ele>
        <time>1990-12-05T09:16:43Z</time>
      </trkpt>
      <trkpt lat="44.09525" lon="6.0021">
        <ele>500</ele>
        <time>1990-12-05T09:17:01Z</time>
      </trkpt>
      <trkpt lat="44.09545" lon="6.00277">
        <ele>496</ele>
        <time>1990-12-05T09:17:09Z</time>
      </trkpt>
      <trkpt lat="44.09592" lon="6.00322">
        <ele>492</ele>
        <time>1990-12-05T09:17:16Z</time>
      </trkpt>
      <trkpt lat="44.09617" lon="6.00352">
        <ele>490</ele>
        <time>1990-12-05T09:17:20Z</time>
      </trkpt>
      <trkpt lat="44.0963" lon="6.00378">
        <ele>488</ele>
        <time>1990-12-05T09:17:23Z</time>
      </trkpt>
      <trkpt lat="44.0968" lon="6.00485">
        <ele>486</ele>
        <time>1990-12-05T09:17:40Z</time>
      </trkpt>
      <trkpt lat="44.09757" lon="6.0042">
        <ele>488</ele>
        <time>1990-12-05T09:18:05Z</time>
      </trkpt>
      <trkpt lat="44.09787" lon="6.0051">
        <ele>489</ele>
        <time>1990-12-05T09:18:28Z</time>
      </trkpt>
      <trkpt lat="44.09833" lon="6.00617">
        <ele>490</ele>
        <time>1990-12-05T09:18:57Z</time>
      </trkpt>
      <trkpt lat="44.09885" lon="6.00695">
        <ele>488</ele>
        <time>1990-12-05T09:19:19Z</time>
      </trkpt>
      <trkpt lat="44.09918" lon="6.00685">
        <ele>483</ele>
        <time>1990-12-05T09:19:26Z</time>
      </trkpt>
      <trkpt lat="44.09945" lon="6.00673">
        <ele>479</ele>
        <time>1990-12-05T09:19:31Z</time>
      </trkpt>
      <trkpt lat="44.09993" lon="6.00683">
        <ele>471</ele>
        <time>1990-12-05T09:19:41Z</time>
      </trkpt>
      <trkpt lat="44.10012" lon="6.00697">
        <ele>467</ele>
        <time>1990-12-05T09:19:51Z</time>
      </trkpt>
      <trkpt lat="44.09912" lon="6.00787">
        <ele>462</ele>
        <time>1990-12-05T09:20:11Z</time>
      </trkpt>
      <trkpt lat="44.09878" lon="6.0083">
        <ele>458</ele>
        <time>1990-12-05T09:20:20Z</time>
      </trkpt>
      <trkpt lat="44.09867" lon="6.00862">
        <ele>455</ele>
        <time>1990-12-05T09:20:27Z</time>
      </trkpt>
      <trkpt lat="44.09883" lon="6.00935">
        <ele>450</ele>
        <time>1990-12-05T09:20:36Z</time>
      </trkpt>
      <trkpt lat="44.09867" lon="6.00975">
        <ele>448</ele>
        <time>1990-12-05T09:20:41Z</time>
      </trkpt>
      <trkpt lat="44.0987" lon="6.01025">
        <ele>447</ele>
        <time>1990-12-05T09:20:52Z</time>
      </trkpt>
      <trkpt lat="44.0993" lon="6.01012">
        <ele>447</ele>
        <time>1990-12-05T09:21:21Z</time>
      </trkpt>
      <trkpt lat="44.1003" lon="6.00965">
        <ele>448</ele>
        <time>1990-12-05T09:21:50Z</time>
      </trkpt>
      <trkpt lat="44.10138" lon="6.00888">
        <ele>448</ele>
        <time>1990-12-05T09:22:20Z</time>
      </trkpt>
      <trkpt lat="44.1016" lon="6.00902">
        <ele>448</ele>
        <time>1990-12-05T09:22:34Z</time>
      </trkpt>
      <trkpt lat="44.10155" lon="6.00908">
        <ele>448</ele>
        <time>1990-12-05T09:22:45Z</time>
      </trkpt>
      <trkpt lat="44.10152" lon="6.00917">
        <ele>448</ele>
        <time>1990-12-05T09:22:57Z</time>
      </trkpt>
      <trkpt lat="44.10162" lon="6.00972">
        <ele>447</ele>
        <time>1990-12-05T09:23:15Z</time>
      </trkpt>
      <trkpt lat="44.10097" lon="6.01033">
        <ele>447</ele>
        <time>1990-12-05T09:23:33Z</time>
      </trkpt>
      <trkpt lat="44.10055" lon="6.01093">
        <ele>447</ele>
        <time>1990-12-05T09:23:50Z</time>
      </trkpt>
      <trkpt lat="44.1009" lon="6.0114">
        <ele>447</ele>
        <time>1990-12-05T09:24:02Z</time>
      </trkpt>
      <trkpt lat="44.10175" lon="6.01082">
        <ele>447</ele>
        <time>1990-12-05T09:24:22Z</time>
      </trkpt>
      <trkpt lat="44.10238" lon="6.01035">
        <ele>447</ele>
        <time>1990-12-05T09:24:38Z</time>
      </trkpt>
      <trkpt lat="44.10292" lon="6.01">
        <ele>441</ele>
        <time>1990-12-05T09:24:53Z</time>
      </trkpt>
      <trkpt lat="44.10348" lon="6.00895">
        <ele>441</ele>
        <time>1990-12-05T09:25:12Z</time>
      </trkpt>
      <trkpt lat="44.1042" lon="6.00818">
        <ele>441</ele>
        <time>1990-12-05T09:25:32Z</time>
      </trkpt>
      <trkpt lat="44.10477" lon="6.00785">
        <ele>441</ele>
        <time>1990-12-05T09:25:46Z</time>
      </trkpt>
      <trkpt lat="44.10578" lon="6.00737">
        <ele>441</ele>
        <time>1990-12-05T09:26:09Z</time>
      </trkpt>
      <trkpt lat="44.10692" lon="6.0068">
        <ele>441</ele>
        <time>1990-12-05T09:26:34Z</time>
      </trkpt>
      <trkpt lat="44.10777" lon="6.00637">
        <ele>443</ele>
        <time>1990-12-05T09:26:57Z</time>
      </trkpt>
      <trkpt lat="44.10813" lon="6.00702">
        <ele>443</ele>
        <time>1990-12-05T09:27:15Z</time>
      </trkpt>
      <trkpt lat="44.1082" lon="6.00712">
        <ele>444</ele>
        <time>1990-12-05T09:27:37Z</time>
      </trkpt>
      <trkpt lat="44.1084" lon="6.00755">
        <ele>445</ele>
        <time>1990-12-05T09:28:50Z</time>
      </trkpt>
      <trkpt lat="44.109" lon="6.00853">
        <ele>444</ele>
        <time>1990-12-05T09:29:16Z</time>
      </trkpt>
      <trkpt lat="44.10967" lon="6.00972">
        <ele>441</ele>
        <time>1990-12-05T09:29:37Z</time>
      </trkpt>
      <trkpt lat="44.10972" lon="6.01">
        <ele>441</ele>
        <time>1990-12-05T09:29:55Z</time>
      </trkpt>
      <trkpt lat="44.10927" lon="6.01058">
        <ele>441</ele>
        <time>1990-12-05T09:31:20Z</time>
      </trkpt>
      <trkpt lat="44.1087" lon="6.00992">
        <ele>440</ele>
        <time>1990-12-05T09:31:43Z</time>
      </trkpt>
      <trkpt lat="44.108" lon="6.01045">
        <ele>440</ele>
        <time>1990-12-05T09:32:08Z</time>
      </trkpt>
      <trkpt lat="44.10735" lon="6.01153">
        <ele>440</ele>
        <time>1990-12-05T09:32:37Z</time>
      </trkpt>
      <trkpt lat="44.10698" lon="6.01175">
        <ele>440</ele>
        <time>1990-12-05T09:32:47Z</time>
      </trkpt>
      <trkpt lat="44.10653" lon="6.01207">
        <ele>440</ele>
        <time>1990-12-05T09:33:02Z</time>
      </trkpt>
      <trkpt lat="44.10637" lon="6.01213">
        <ele>440</ele>
        <time>1990-12-05T09:33:07Z</time>
      </trkpt>
      <trkpt lat="44.10615" lon="6.01247">
        <ele>440</ele>
        <time>1990-12-05T09:33:15Z</time>
      </trkpt>
      <trkpt lat="44.10605" lon="6.01278">
        <ele>441</ele>
        <time>1990-12-05T09:33:25Z</time>
      </trkpt>
      <trkpt lat="44.10548" lon="6.01297">
        <ele>441</ele>
        <time>1990-12-05T09:33:40Z</time>
      </trkpt>
      <trkpt lat="44.1053" lon="6.01297">
        <ele>441</ele>
        <time>1990-12-05T09:33:53Z</time>
      </trkpt>
      <trkpt lat="44.10473" lon="6.01352">
        <ele>440</ele>
        <time>1990-12-05T09:34:11Z</time>
      </trkpt>
      <trkpt lat="44.10388" lon="6.01445">
        <ele>440</ele>
        <time>1990-12-05T09:34:33Z</time>
      </trkpt>
      <trkpt lat="44.1034" lon="6.01523">
        <ele>440</ele>
        <time>1990-12-05T09:34:47Z</time>
      </trkpt>
      <trkpt lat="44.10303" lon="6.01618">
        <ele>440</ele>
        <time>1990-12-05T09:35:04Z</time>
      </trkpt>
      <trkpt lat="44.10278" lon="6.01712">
        <ele>441</ele>
        <time>1990-12-05T09:35:24Z</time>
      </trkpt>
      <trkpt lat="44.1029" lon="6.01767">
        <ele>441</ele>
        <time>1990-12-05T09:35:36Z</time>
      </trkpt>
      <trkpt lat="44.10287" lon="6.01805">
        <ele>440</ele>
        <time>1990-12-05T09:36:03Z</time>
      </trkpt>
      <trkpt lat="44.10297" lon="6.01892">
        <ele>440</ele>
        <time>1990-12-05T09:36:21Z</time>
      </trkpt>
      <trkpt lat="44.10297" lon="6.01952">
        <ele>440</ele>
        <time>1990-12-05T09:36:31Z</time>
      </trkpt>
      <trkpt lat="44.10272" lon="6.02017">
        <ele>440</ele>
        <time>1990-12-05T09:36:39Z</time>
      </trkpt>
      <trkpt lat="44.10255" lon="6.0208">
        <ele>440</ele>
        <time>1990-12-05T09:36:47Z</time>
      </trkpt>
      <trkpt lat="44.10242" lon="6.02182">
        <ele>440</ele>
        <time>1990-12-05T09:36:59Z</time>
      </trkpt>
      <trkpt lat="44.10217" lon="6.02255">
        <ele>440</ele>
        <time>1990-12-05T09:37:09Z</time>
      </trkpt>
      <trkpt lat="44.10175" lon="6.02307">
        <ele>439</ele>
        <time>1990-12-05T09:37:21Z</time>
      </trkpt>
      <trkpt lat="44.10118" lon="6.02283">
        <ele>440</ele>
        <time>1990-12-05T09:37:34Z</time>
      </trkpt>
      <trkpt lat="44.10115" lon="6.02298">
        <ele>439</ele>
        <time>1990-12-05T09:37:49Z</time>
      </trkpt>
      <trkpt lat="44.10132" lon="6.02345">
        <ele>439</ele>
        <time>1990-12-05T09:38:00Z</time>
      </trkpt>
      <trkpt lat="44.10155" lon="6.02365">
        <ele>439</ele>
        <time>1990-12-05T09:38:06Z</time>
      </trkpt>
      <trkpt lat="44.10183" lon="6.02398">
        <ele>440</ele>
        <time>1990-12-05T09:38:14Z</time>
      </trkpt>
      <trkpt lat="44.10217" lon="6.02438">
        <ele>443</ele>
        <time>1990-12-05T09:38:26Z</time>
      </trkpt>
      <trkpt lat="44.1021" lon="6.02443">
        <ele>445</ele>
        <time>1990-12-05T09:38:34Z</time>
      </trkpt>
      <trkpt lat="44.10183" lon="6.02428">
        <ele>446</ele>
        <time>1990-12-05T09:38:40Z</time>
      </trkpt>
      <trkpt lat="44.1011" lon="6.02378">
        <ele>445</ele>
        <time>1990-12-05T09:38:55Z</time>
      </trkpt>
      <trkpt lat="44.10033" lon="6.02337">
        <ele>446</ele>
        <time>1990-12-05T09:39:11Z</time>
      </trkpt>
      <trkpt lat="44.09987" lon="6.02383">
        <ele>443</ele>
        <time>1990-12-05T09:39:20Z</time>
      </trkpt>
      <trkpt lat="44.09927" lon="6.02412">
        <ele>441</ele>
        <time>1990-12-05T09:39:29Z</time>
      </trkpt>
      <trkpt lat="44.09872" lon="6.0241">
        <ele>441</ele>
        <time>1990-12-05T09:39:37Z</time>
      </trkpt>
      <trkpt lat="44.09815" lon="6.02417">
        <ele>440</ele>
        <time>1990-12-05T09:39:45Z</time>
      </trkpt>
      <trkpt lat="44.09775" lon="6.02417">
        <ele>441</ele>
        <time>1990-12-05T09:39:51Z</time>
      </trkpt>
      <trkpt lat="44.09717" lon="6.02403">
        <ele>441</ele>
        <time>1990-12-05T09:40:02Z</time>
      </trkpt>
      <trkpt lat="44.09675" lon="6.02408">
        <ele>440</ele>
        <time>1990-12-05T09:40:09Z</time>
      </trkpt>
      <trkpt lat="44.09512" lon="6.02318">
        <ele>442</ele>
        <time>1990-12-05T09:40:35Z</time>
      </trkpt>
      <trkpt lat="44.09437" lon="6.02303">
        <ele>442</ele>
        <time>1990-12-05T09:40:49Z</time>
      </trkpt>
      <trkpt lat="44.09335" lon="6.0223">
        <ele>441</ele>
        <time>1990-12-05T09:41:09Z</time>
      </trkpt>
      <trkpt lat="44.0931" lon="6.02195">
        <ele>439</ele>
        <time>1990-12-05T09:41:15Z</time>
      </trkpt>
      <trkpt lat="44.0925" lon="6.0215">
        <ele>439</ele>
        <time>1990-12-05T09:41:27Z</time>
      </trkpt>
      <trkpt lat="44.09225" lon="6.02165">
        <ele>440</ele>
        <time>1990-12-05T09:41:33Z</time>
      </trkpt>
      <trkpt lat="44.09148" lon="6.02188">
        <ele>440</ele>
        <time>1990-12-05T09:41:55Z</time>
      </trkpt>
      <trkpt lat="44.08997" lon="6.0215">
        <ele>439</ele>
        <time>1990-12-05T09:42:26Z</time>
      </trkpt>
      <trkpt lat="44.08872" lon="6.02112">
        <ele>439</ele>
        <time>1990-12-05T09:42:54Z</time>
      </trkpt>
      <trkpt lat="44.08818" lon="6.02122">
        <ele>440</ele>
        <time>1990-12-05T09:43:22Z</time>
      </trkpt>
      <trkpt lat="44.08805" lon="6.02123">
        <ele>442</ele>
        <time>1990-12-05T09:47:59Z</time>
      </trkpt>
      <trkpt lat="44.08697" lon="6.02128">
        <ele>447</ele>
        <time>1990-12-05T09:48:29Z</time>
      </trkpt>
      <trkpt lat="44.0856" lon="6.02137">
        <ele>446</ele>
        <time>1990-12-05T09:48:58Z</time>
      </trkpt>
      <trkpt lat="44.08523" lon="6.02133">
        <ele>446</ele>
        <time>1990-12-05T09:49:11Z</time>
      </trkpt>
      <trkpt lat="44.08493" lon="6.0213">
        <ele>447</ele>
        <time>1990-12-05T09:49:19Z</time>
      </trkpt>
      <trkpt lat="44.08443" lon="6.0214">
        <ele>446</ele>
        <time>1990-12-05T09:49:29Z</time>
      </trkpt>
      <trkpt lat="44.08323" lon="6.02155">
        <ele>446</ele>
        <time>1990-12-05T09:49:49Z</time>
      </trkpt>
      <trkpt lat="44.08277" lon="6.02147">
        <ele>448</ele>
        <time>1990-12-05T09:49:59Z</time>
      </trkpt>
      <trkpt lat="44.08148" lon="6.02142">
        <ele>451</ele>
        <time>1990-12-05T09:50:24Z</time>
      </trkpt>
      <trkpt lat="44.08055" lon="6.02175">
        <ele>456</ele>
        <time>1990-12-05T09:50:49Z</time>
      </trkpt>
      <trkpt lat="44.08002" lon="6.02272">
        <ele>461</ele>
        <time>1990-12-05T09:51:16Z</time>
      </trkpt>
      <trkpt lat="44.07962" lon="6.02345">
        <ele>466</ele>
        <time>1990-12-05T09:51:43Z</time>
      </trkpt>
      <trkpt lat="44.07928" lon="6.0242">
        <ele>470</ele>
        <time>1990-12-05T09:52:10Z</time>
      </trkpt>
      <trkpt lat="44.07883" lon="6.02512">
        <ele>473</ele>
        <time>1990-12-05T09:52:40Z</time>
      </trkpt>
      <trkpt lat="44.0784" lon="6.02615">
        <ele>476</ele>
        <time>1990-12-05T09:53:10Z</time>
      </trkpt>
      <trkpt lat="44.07858" lon="6.02673">
        <ele>479</ele>
        <time>1990-12-05T09:53:36Z</time>
      </trkpt>
      <trkpt lat="44.07883" lon="6.02767">
        <ele>483</ele>
        <time>1990-12-05T09:54:02Z</time>
      </trkpt>
      <trkpt lat="44.07887" lon="6.02835">
        <ele>488</ele>
        <time>1990-12-05T09:54:24Z</time>
      </trkpt>
      <trkpt lat="44.07898" lon="6.02883">
        <ele>489</ele>
        <time>1990-12-05T09:54:41Z</time>
      </trkpt>
      <trkpt lat="44.07887" lon="6.02925">
        <ele>492</ele>
        <time>1990-12-05T09:54:58Z</time>
      </trkpt>
      <trkpt lat="44.07867" lon="6.02967">
        <ele>495</ele>
        <time>1990-12-05T09:55:16Z</time>
      </trkpt>
      <trkpt lat="44.07858" lon="6.02998">
        <ele>498</ele>
        <time>1990-12-05T09:55:31Z</time>
      </trkpt>
      <trkpt lat="44.07857" lon="6.0301">
        <ele>499</ele>
        <time>1990-12-05T09:55:35Z</time>
      </trkpt>
      <trkpt lat="44.07847" lon="6.03082">
        <ele>502</ele>
        <time>1990-12-05T09:56:03Z</time>
      </trkpt>
      <trkpt lat="44.07842" lon="6.03117">
        <ele>504</ele>
        <time>1990-12-05T09:56:18Z</time>
      </trkpt>
      <trkpt lat="44.07838" lon="6.03158">
        <ele>507</ele>
        <time>1990-12-05T09:56:35Z</time>
      </trkpt>
      <trkpt lat="44.07812" lon="6.03213">
        <ele>510</ele>
        <time>1990-12-05T09:56:55Z</time>
      </trkpt>
      <trkpt lat="44.0777" lon="6.03255">
        <ele>514</ele>
        <time>1990-12-05T09:57:24Z</time>
      </trkpt>
      <trkpt lat="44.07727" lon="6.03288">
        <ele>519</ele>
        <time>1990-12-05T09:57:54Z</time>
      </trkpt>
      <trkpt lat="44.07677" lon="6.03318">
        <ele>524</ele>
        <time>1990-12-05T09:58:24Z</time>
      </trkpt>
      <trkpt lat="44.07628" lon="6.03323">
        <ele>528</ele>
        <time>1990-12-05T09:58:53Z</time>
      </trkpt>
      <trkpt lat="44.07585" lon="6.03327">
        <ele>534</ele>
        <time>1990-12-05T09:59:20Z</time>
      </trkpt>
      <trkpt lat="44.07567" lon="6.03328">
        <ele>536</ele>
        <time>1990-12-05T09:59:33Z</time>
      </trkpt>
      <trkpt lat="44.07538" lon="6.0336">
        <ele>540</ele>
        <time>1990-12-05T09:59:55Z</time>
      </trkpt>
      <trkpt lat="44.07515" lon="6.03398">
        <ele>544</ele>
        <time>1990-12-05T10:00:21Z</time>
      </trkpt>
      <trkpt lat="44.07495" lon="6.0342">
        <ele>547</ele>
        <time>1990-12-05T10:00:35Z</time>
      </trkpt>
      <trkpt lat="44.07473" lon="6.03497">
        <ele>553</ele>
        <time>1990-12-05T10:01:04Z</time>
      </trkpt>
      <trkpt lat="44.07463" lon="6.03532">
        <ele>556</ele>
        <time>1990-12-05T10:01:20Z</time>
      </trkpt>
      <trkpt lat="44.07455" lon="6.0355">
        <ele>559</ele>
        <time>1990-12-05T10:01:32Z</time>
      </trkpt>
      <trkpt lat="44.07447" lon="6.03593">
        <ele>563</ele>
        <time>1990-12-05T10:01:55Z</time>
      </trkpt>
      <trkpt lat="44.07442" lon="6.03612">
        <ele>565</ele>
        <time>1990-12-05T10:02:05Z</time>
      </trkpt>
      <trkpt lat="44.07448" lon="6.0363">
        <ele>568</ele>
        <time>1990-12-05T10:02:25Z</time>
      </trkpt>
      <trkpt lat="44.07488" lon="6.03587">
        <ele>573</ele>
        <time>1990-12-05T10:02:54Z</time>
      </trkpt>
      <trkpt lat="44.0753" lon="6.03533">
        <ele>578</ele>
        <time>1990-12-05T10:03:24Z</time>
      </trkpt>
      <trkpt lat="44.07577" lon="6.03495">
        <ele>582</ele>
        <time>1990-12-05T10:03:52Z</time>
      </trkpt>
      <trkpt lat="44.07615" lon="6.03495">
        <ele>586</ele>
        <time>1990-12-05T10:04:15Z</time>
      </trkpt>
      <trkpt lat="44.07623" lon="6.0351">
        <ele>587</ele>
        <time>1990-12-05T10:04:23Z</time>
      </trkpt>
      <trkpt lat="44.07593" lon="6.03572">
        <ele>591</ele>
        <time>1990-12-05T10:04:52Z</time>
      </trkpt>
      <trkpt lat="44.07548" lon="6.03612">
        <ele>595</ele>
        <time>1990-12-05T10:05:21Z</time>
      </trkpt>
      <trkpt lat="44.07507" lon="6.03657">
        <ele>597</ele>
        <time>1990-12-05T10:05:47Z</time>
      </trkpt>
      <trkpt lat="44.07482" lon="6.03695">
        <ele>600</ele>
        <time>1990-12-05T10:06:05Z</time>
      </trkpt>
      <trkpt lat="44.07462" lon="6.03723">
        <ele>602</ele>
        <time>1990-12-05T10:06:22Z</time>
      </trkpt>
      <trkpt lat="44.0745" lon="6.0376">
        <ele>606</ele>
        <time>1990-12-05T10:06:39Z</time>
      </trkpt>
      <trkpt lat="44.07453" lon="6.03797">
        <ele>609</ele>
        <time>1990-12-05T10:06:56Z</time>
      </trkpt>
      <trkpt lat="44.0744" lon="6.0379">
        <ele>611</ele>
        <time>1990-12-05T10:07:07Z</time>
      </trkpt>
      <trkpt lat="44.07415" lon="6.03777">
        <ele>613</ele>
        <time>1990-12-05T10:07:28Z</time>
      </trkpt>
      <trkpt lat="44.07408" lon="6.03783">
        <ele>614</ele>
        <time>1990-12-05T10:07:34Z</time>
      </trkpt>
      <trkpt lat="44.0738" lon="6.03815">
        <ele>619</ele>
        <time>1990-12-05T10:07:59Z</time>
      </trkpt>
      <trkpt lat="44.0736" lon="6.03848">
        <ele>623</ele>
        <time>1990-12-05T10:08:21Z</time>
      </trkpt>
      <trkpt lat="44.07338" lon="6.03873">
        <ele>625</ele>
        <time>1990-12-05T10:08:39Z</time>
      </trkpt>
      <trkpt lat="44.07293" lon="6.03897">
        <ele>629</ele>
        <time>1990-12-05T10:09:09Z</time>
      </trkpt>
      <trkpt lat="44.07263" lon="6.03935">
        <ele>632</ele>
        <time>1990-12-05T10:09:37Z</time>
      </trkpt>
      <trkpt lat="44.07245" lon="6.03983">
        <ele>635</ele>
        <time>1990-12-05T10:10:06Z</time>
      </trkpt>
      <trkpt lat="44.0722" lon="6.04012">
        <ele>636</ele>
        <time>1990-12-05T10:10:26Z</time>
      </trkpt>
      <trkpt lat="44.0721" lon="6.04035">
        <ele>637</ele>
        <time>1990-12-05T10:10:35Z</time>
      </trkpt>
      <trkpt lat="44.07223" lon="6.04068">
        <ele>638</ele>
        <time>1990-12-05T10:10:51Z</time>
      </trkpt>
      <trkpt lat="44.07197" lon="6.04135">
        <ele>640</ele>
        <time>1990-12-05T10:11:19Z</time>
      </trkpt>
      <trkpt lat="44.07172" lon="6.04243">
        <ele>640</ele>
        <time>1990-12-05T10:11:46Z</time>
      </trkpt>
      <trkpt lat="44.07203" lon="6.04258">
        <ele>639</ele>
        <time>1990-12-05T10:11:57Z</time>
      </trkpt>
      <trkpt lat="44.07247" lon="6.04223">
        <ele>641</ele>
        <time>1990-12-05T10:12:10Z</time>
      </trkpt>
      <trkpt lat="44.07332" lon="6.04165">
        <ele>640</ele>
        <time>1990-12-05T10:12:32Z</time>
      </trkpt>
      <trkpt lat="44.07378" lon="6.04168">
        <ele>641</ele>
        <time>1990-12-05T10:12:43Z</time>
      </trkpt>
      <trkpt lat="44.0741" lon="6.04262">
        <ele>646</ele>
        <time>1990-12-05T10:13:05Z</time>
      </trkpt>
      <trkpt lat="44.0741" lon="6.043">
        <ele>650</ele>
        <time>1990-12-05T10:13:23Z</time>
      </trkpt>
      <trkpt lat="44.07395" lon="6.04293">
        <ele>651</ele>
        <time>1990-12-05T10:13:31Z</time>
      </trkpt>
      <trkpt lat="44.0734" lon="6.04265">
        <ele>652</ele>
        <time>1990-12-05T10:14:01Z</time>
      </trkpt>
      <trkpt lat="44.073" lon="6.04217">
        <ele>651</ele>
        <time>1990-12-05T10:14:18Z</time>
      </trkpt>
      <trkpt lat="44.07265" lon="6.04228">
        <ele>650</ele>
        <time>1990-12-05T10:14:27Z</time>
      </trkpt>
      <trkpt lat="44.07225" lon="6.0427">
        <ele>650</ele>
        <time>1990-12-05T10:14:38Z</time>
      </trkpt>
      <trkpt lat="44.07163" lon="6.0431">
        <ele>652</ele>
        <time>1990-12-05T10:14:56Z</time>
      </trkpt>
      <trkpt lat="44.07115" lon="6.04328">
        <ele>656</ele>
        <time>1990-12-05T10:15:16Z</time>
      </trkpt>
      <trkpt lat="44.07102" lon="6.04305">
        <ele>658</ele>
        <time>1990-12-05T10:15:28Z</time>
      </trkpt>
      <trkpt lat="44.07123" lon="6.04273">
        <ele>662</ele>
        <time>1990-12-05T10:15:47Z</time>
      </trkpt>
      <trkpt lat="44.07132" lon="6.0424">
        <ele>663</ele>
        <time>1990-12-05T10:16:02Z</time>
      </trkpt>
      <trkpt lat="44.07137" lon="6.0422">
        <ele>665</ele>
        <time>1990-12-05T10:16:11Z</time>
      </trkpt>
      <trkpt lat="44.07142" lon="6.0416">
        <ele>669</ele>
        <time>1990-12-05T10:16:38Z</time>
      </trkpt>
      <trkpt lat="44.0714" lon="6.04092">
        <ele>673</ele>
        <time>1990-12-05T10:17:05Z</time>
      </trkpt>
      <trkpt lat="44.07147" lon="6.03975">
        <ele>675</ele>
        <time>1990-12-05T10:17:36Z</time>
      </trkpt>
      <trkpt lat="44.07113" lon="6.03927">
        <ele>680</ele>
        <time>1990-12-05T10:18:03Z</time>
      </trkpt>
      <trkpt lat="44.07077" lon="6.0388">
        <ele>683</ele>
        <time>1990-12-05T10:18:31Z</time>
      </trkpt>
      <trkpt lat="44.07078" lon="6.03923">
        <ele>685</ele>
        <time>1990-12-05T10:18:45Z</time>
      </trkpt>
      <trkpt lat="44.071" lon="6.03952">
        <ele>687</ele>
        <time>1990-12-05T10:19:17Z</time>
      </trkpt>
      <trkpt lat="44.07115" lon="6.03983">
        <ele>689</ele>
        <time>1990-12-05T10:21:40Z</time>
      </trkpt>
      <trkpt lat="44.07112" lon="6.03993">
        <ele>691</ele>
        <time>1990-12-05T10:21:46Z</time>
      </trkpt>
      <trkpt lat="44.07087" lon="6.04053">
        <ele>697</ele>
        <time>1990-12-05T10:22:16Z</time>
      </trkpt>
      <trkpt lat="44.07075" lon="6.04117">
        <ele>701</ele>
        <time>1990-12-05T10:22:46Z</time>
      </trkpt>
      <trkpt lat="44.07057" lon="6.04183">
        <ele>707</ele>
        <time>1990-12-05T10:23:19Z</time>
      </trkpt>
      <trkpt lat="44.07028" lon="6.04212">
        <ele>711</ele>
        <time>1990-12-05T10:23:45Z</time>
      </trkpt>
      <trkpt lat="44.06988" lon="6.04227">
        <ele>716</ele>
        <time>1990-12-05T10:24:13Z</time>
      </trkpt>
      <trkpt lat="44.0696" lon="6.04265">
        <ele>721</ele>
        <time>1990-12-05T10:24:38Z</time>
      </trkpt>
      <trkpt lat="44.06965" lon="6.04307">
        <ele>724</ele>
        <time>1990-12-05T10:24:57Z</time>
      </trkpt>
      <trkpt lat="44.06968" lon="6.04348">
        <ele>727</ele>
        <time>1990-12-05T10:25:17Z</time>
      </trkpt>
      <trkpt lat="44.06973" lon="6.0438">
        <ele>729</ele>
        <time>1990-12-05T10:25:31Z</time>
      </trkpt>
      <trkpt lat="44.06965" lon="6.04408">
        <ele>733</ele>
        <time>1990-12-05T10:25:45Z</time>
      </trkpt>
      <trkpt lat="44.06915" lon="6.04473">
        <ele>736</ele>
        <time>1990-12-05T10:26:15Z</time>
      </trkpt>
      <trkpt lat="44.06937" lon="6.04602">
        <ele>734</ele>
        <time>1990-12-05T10:26:41Z</time>
      </trkpt>
      <trkpt lat="44.06972" lon="6.04707">
        <ele>730</ele>
        <time>1990-12-05T10:26:55Z</time>
      </trkpt>
      <trkpt lat="44.06975" lon="6.04717">
        <ele>730</ele>
        <time>1990-12-05T10:27:13Z</time>
      </trkpt>
      <trkpt lat="44.06983" lon="6.04718">
        <ele>729</ele>
        <time>1990-12-05T10:38:19Z</time>
      </trkpt>
      <trkpt lat="44.06997" lon="6.04738">
        <ele>731</ele>
        <time>1990-12-05T10:38:31Z</time>
      </trkpt>
      <trkpt lat="44.07" lon="6.0477">
        <ele>731</ele>
        <time>1990-12-05T10:38:48Z</time>
      </trkpt>
      <trkpt lat="44.0701" lon="6.0482">
        <ele>729</ele>
        <time>1990-12-05T10:39:03Z</time>
      </trkpt>
      <trkpt lat="44.0702" lon="6.04882">
        <ele>726</ele>
        <time>1990-12-05T10:39:12Z</time>
      </trkpt>
      <trkpt lat="44.07038" lon="6.0494">
        <ele>722</ele>
        <time>1990-12-05T10:39:20Z</time>
      </trkpt>
      <trkpt lat="44.07075" lon="6.05017">
        <ele>718</ele>
        <time>1990-12-05T10:39:32Z</time>
      </trkpt>
      <trkpt lat="44.07092" lon="6.05078">
        <ele>714</ele>
        <time>1990-12-05T10:39:40Z</time>
      </trkpt>
      <trkpt lat="44.07145" lon="6.05143">
        <ele>709</ele>
        <time>1990-12-05T10:39:52Z</time>
      </trkpt>
      <trkpt lat="44.07145" lon="6.05193">
        <ele>705</ele>
        <time>1990-12-05T10:39:59Z</time>
      </trkpt>
      <trkpt lat="44.07127" lon="6.05255">
        <ele>701</ele>
        <time>1990-12-05T10:40:07Z</time>
      </trkpt>
      <trkpt lat="44.071" lon="6.05342">
        <ele>696</ele>
        <time>1990-12-05T10:40:17Z</time>
      </trkpt>
      <trkpt lat="44.07103" lon="6.0539">
        <ele>693</ele>
        <time>1990-12-05T10:40:23Z</time>
      </trkpt>
      <trkpt lat="44.07137" lon="6.0545">
        <ele>691</ele>
        <time>1990-12-05T10:40:31Z</time>
      </trkpt>
      <trkpt lat="44.07142" lon="6.05498">
        <ele>691</ele>
        <time>1990-12-05T10:40:41Z</time>
      </trkpt>
      <trkpt lat="44.07107" lon="6.05523">
        <ele>693</ele>
        <time>1990-12-05T10:41:00Z</time>
      </trkpt>
      <trkpt lat="44.07085" lon="6.05607">
        <ele>693</ele>
        <time>1990-12-05T10:41:28Z</time>
      </trkpt>
      <trkpt lat="44.07053" lon="6.05677">
        <ele>694</ele>
        <time>1990-12-05T10:41:54Z</time>
      </trkpt>
      <trkpt lat="44.07043" lon="6.05753">
        <ele>692</ele>
        <time>1990-12-05T10:42:16Z</time>
      </trkpt>
      <trkpt lat="44.07047" lon="6.0581">
        <ele>691</ele>
        <time>1990-12-05T10:42:34Z</time>
      </trkpt>
      <trkpt lat="44.07037" lon="6.05858">
        <ele>688</ele>
        <time>1990-12-05T10:42:47Z</time>
      </trkpt>
      <trkpt lat="44.07035" lon="6.05902">
        <ele>686</ele>
        <time>1990-12-05T10:42:55Z</time>
      </trkpt>
      <trkpt lat="44.07043" lon="6.05978">
        <ele>680</ele>
        <time>1990-12-05T10:43:05Z</time>
      </trkpt>
      <trkpt lat="44.0704" lon="6.06038">
        <ele>675</ele>
        <time>1990-12-05T10:43:11Z</time>
      </trkpt>
      <trkpt lat="44.07033" lon="6.06093">
        <ele>669</ele>
        <time>1990-12-05T10:43:18Z</time>
      </trkpt>
      <trkpt lat="44.06993" lon="6.06117">
        <ele>664</ele>
        <time>1990-12-05T10:43:25Z</time>
      </trkpt>
      <trkpt lat="44.0696" lon="6.06128">
        <ele>661</ele>
        <time>1990-12-05T10:43:31Z</time>
      </trkpt>
      <trkpt lat="44.06912" lon="6.06122">
        <ele>655</ele>
        <time>1990-12-05T10:43:38Z</time>
      </trkpt>
      <trkpt lat="44.06863" lon="6.06205">
        <ele>650</ele>
        <time>1990-12-05T10:43:50Z</time>
      </trkpt>
      <trkpt lat="44.06842" lon="6.06257">
        <ele>646</ele>
        <time>1990-12-05T10:43:56Z</time>
      </trkpt>
      <trkpt lat="44.0683" lon="6.0632">
        <ele>639</ele>
        <time>1990-12-05T10:44:05Z</time>
      </trkpt>
      <trkpt lat="44.06878" lon="6.06332">
        <ele>636</ele>
        <time>1990-12-05T10:44:13Z</time>
      </trkpt>
      <trkpt lat="44.06898" lon="6.06347">
        <ele>634</ele>
        <time>1990-12-05T10:44:22Z</time>
      </trkpt>
      <trkpt lat="44.06875" lon="6.06372">
        <ele>634</ele>
        <time>1990-12-05T10:44:28Z</time>
      </trkpt>
      <trkpt lat="44.06845" lon="6.06403">
        <ele>634</ele>
        <time>1990-12-05T10:44:34Z</time>
      </trkpt>
      <trkpt lat="44.06833" lon="6.06455">
        <ele>634</ele>
        <time>1990-12-05T10:44:42Z</time>
      </trkpt>
      <trkpt lat="44.06835" lon="6.06512">
        <ele>636</ele>
        <time>1990-12-05T10:44:50Z</time>
      </trkpt>
      <trkpt lat="44.06822" lon="6.06523">
        <ele>637</ele>
        <time>1990-12-05T10:44:53Z</time>
      </trkpt>
      <trkpt lat="44.06793" lon="6.06568">
        <ele>638</ele>
        <time>1990-12-05T10:45:03Z</time>
      </trkpt>
      <trkpt lat="44.0677" lon="6.06617">
        <ele>635</ele>
        <time>1990-12-05T10:45:11Z</time>
      </trkpt>
      <trkpt lat="44.06747" lon="6.06625">
        <ele>635</ele>
        <time>1990-12-05T10:45:15Z</time>
      </trkpt>
      <trkpt lat="44.06682" lon="6.0667">
        <ele>636</ele>
        <time>1990-12-05T10:45:32Z</time>
      </trkpt>
      <trkpt lat="44.0661" lon="6.06708">
        <ele>640</ele>
        <time>1990-12-05T10:45:58Z</time>
      </trkpt>
      <trkpt lat="44.0657" lon="6.06782">
        <ele>645</ele>
        <time>1990-12-05T10:46:25Z</time>
      </trkpt>
      <trkpt lat="44.0656" lon="6.06808">
        <ele>644</ele>
        <time>1990-12-05T10:46:56Z</time>
      </trkpt>
      <trkpt lat="44.06552" lon="6.06872">
        <ele>641</ele>
        <time>1990-12-05T10:47:06Z</time>
      </trkpt>
      <trkpt lat="44.06557" lon="6.06947">
        <ele>637</ele>
        <time>1990-12-05T10:47:15Z</time>
      </trkpt>
      <trkpt lat="44.0656" lon="6.06988">
        <ele>636</ele>
        <time>1990-12-05T10:47:23Z</time>
      </trkpt>
      <trkpt lat="44.06548" lon="6.0704">
        <ele>638</ele>
        <time>1990-12-05T10:47:31Z</time>
      </trkpt>
      <trkpt lat="44.06553" lon="6.07183">
        <ele>630</ele>
        <time>1990-12-05T10:47:45Z</time>
      </trkpt>
      <trkpt lat="44.06573" lon="6.0723">
        <ele>627</ele>
        <time>1990-12-05T10:47:51Z</time>
      </trkpt>
      <trkpt lat="44.06527" lon="6.07263">
        <ele>632</ele>
        <time>1990-12-05T10:48:10Z</time>
      </trkpt>
      <trkpt lat="44.06512" lon="6.07313">
        <ele>631</ele>
        <time>1990-12-05T10:48:23Z</time>
      </trkpt>
      <trkpt lat="44.06537" lon="6.07372">
        <ele>627</ele>
        <time>1990-12-05T10:48:35Z</time>
      </trkpt>
      <trkpt lat="44.0648" lon="6.07363">
        <ele>626</ele>
        <time>1990-12-05T10:48:56Z</time>
      </trkpt>
      <trkpt lat="44.06448" lon="6.07392">
        <ele>625</ele>
        <time>1990-12-05T10:49:13Z</time>
      </trkpt>
      <trkpt lat="44.06437" lon="6.07443">
        <ele>627</ele>
        <time>1990-12-05T10:49:41Z</time>
      </trkpt>
      <trkpt lat="44.06427" lon="6.07492">
        <ele>629</ele>
        <time>1990-12-05T10:49:59Z</time>
      </trkpt>
      <trkpt lat="44.0642" lon="6.07545">
        <ele>631</ele>
        <time>1990-12-05T10:50:19Z</time>
      </trkpt>
      <trkpt lat="44.06413" lon="6.07607">
        <ele>634</ele>
        <time>1990-12-05T10:50:39Z</time>
      </trkpt>
      <trkpt lat="44.06413" lon="6.07667">
        <ele>635</ele>
        <time>1990-12-05T10:51:12Z</time>
      </trkpt>
      <trkpt lat="44.06405" lon="6.07705">
        <ele>635</ele>
        <time>1990-12-05T10:52:05Z</time>
      </trkpt>
      <trkpt lat="44.06382" lon="6.0783">
        <ele>637</ele>
        <time>1990-12-05T10:52:32Z</time>
      </trkpt>
      <trkpt lat="44.0638" lon="6.07977">
        <ele>641</ele>
        <time>1990-12-05T10:53:05Z</time>
      </trkpt>
      <trkpt lat="44.06362" lon="6.0807">
        <ele>648</ele>
        <time>1990-12-05T10:53:32Z</time>
      </trkpt>
      <trkpt lat="44.0637" lon="6.08162">
        <ele>652</ele>
        <time>1990-12-05T10:54:01Z</time>
      </trkpt>
      <trkpt lat="44.06367" lon="6.0817">
        <ele>653</ele>
        <time>1990-12-05T10:54:20Z</time>
      </trkpt>
      <trkpt lat="44.06368" lon="6.08173">
        <ele>652</ele>
        <time>1990-12-05T10:54:54Z</time>
      </trkpt>
      <trkpt lat="44.06362" lon="6.08275">
        <ele>647</ele>
        <time>1990-12-05T10:55:05Z</time>
      </trkpt>
      <trkpt lat="44.06387" lon="6.08357">
        <ele>641</ele>
        <time>1990-12-05T10:55:15Z</time>
      </trkpt>
      <trkpt lat="44.06443" lon="6.08393">
        <ele>636</ele>
        <time>1990-12-05T10:55:23Z</time>
      </trkpt>
      <trkpt lat="44.06452" lon="6.08423">
        <ele>635</ele>
        <time>1990-12-05T10:55:26Z</time>
      </trkpt>
      <trkpt lat="44.06432" lon="6.08465">
        <ele>633</ele>
        <time>1990-12-05T10:55:33Z</time>
      </trkpt>
      <trkpt lat="44.06395" lon="6.08657">
        <ele>630</ele>
        <time>1990-12-05T10:55:53Z</time>
      </trkpt>
      <trkpt lat="44.06348" lon="6.08838">
        <ele>628</ele>
        <time>1990-12-05T10:56:18Z</time>
      </trkpt>
      <trkpt lat="44.06313" lon="6.08905">
        <ele>626</ele>
        <time>1990-12-05T10:56:29Z</time>
      </trkpt>
      <trkpt lat="44.06285" lon="6.0896">
        <ele>625</ele>
        <time>1990-12-05T10:56:39Z</time>
      </trkpt>
      <trkpt lat="44.06262" lon="6.08943">
        <ele>620</ele>
        <time>1990-12-05T10:56:46Z</time>
      </trkpt>
      <trkpt lat="44.06247" lon="6.08915">
        <ele>619</ele>
        <time>1990-12-05T10:56:53Z</time>
      </trkpt>
      <trkpt lat="44.0621" lon="6.0881">
        <ele>617</ele>
        <time>1990-12-05T10:57:09Z</time>
      </trkpt>
      <trkpt lat="44.06193" lon="6.08813">
        <ele>617</ele>
        <time>1990-12-05T10:57:19Z</time>
      </trkpt>
      <trkpt lat="44.06178" lon="6.08848">
        <ele>615</ele>
        <time>1990-12-05T10:57:25Z</time>
      </trkpt>
      <trkpt lat="44.0613" lon="6.09028">
        <ele>610</ele>
        <time>1990-12-05T10:57:46Z</time>
      </trkpt>
      <trkpt lat="44.06098" lon="6.0912">
        <ele>606</ele>
        <time>1990-12-05T10:57:57Z</time>
      </trkpt>
      <trkpt lat="44.06043" lon="6.09262">
        <ele>600</ele>
        <time>1990-12-05T10:58:12Z</time>
      </trkpt>
      <trkpt lat="44.06015" lon="6.09402">
        <ele>593</ele>
        <time>1990-12-05T10:59:32Z</time>
      </trkpt>
      <trkpt lat="44.0601" lon="6.09427">
        <ele>592</ele>
        <time>1990-12-05T10:59:50Z</time>
      </trkpt>
      <trkpt lat="44.06007" lon="6.09352">
        <ele>596</ele>
        <time>1990-12-05T11:00:04Z</time>
      </trkpt>
      <trkpt lat="44.0601" lon="6.09378">
        <ele>594</ele>
        <time>1990-12-05T11:00:16Z</time>
      </trkpt>
      <trkpt lat="44.06005" lon="6.0947">
        <ele>590</ele>
        <time>1990-12-05T11:00:30Z</time>
      </trkpt>
      <trkpt lat="44.05985" lon="6.09632">
        <ele>584</ele>
        <time>1990-12-05T11:00:51Z</time>
      </trkpt>
      <trkpt lat="44.05977" lon="6.09805">
        <ele>577</ele>
        <time>1990-12-05T11:01:10Z</time>
      </trkpt>
      <trkpt lat="44.05968" lon="6.09923">
        <ele>573</ele>
        <time>1990-12-05T11:01:27Z</time>
      </trkpt>
      <trkpt lat="44.05958" lon="6.09982">
        <ele>570</ele>
        <time>1990-12-05T11:02:00Z</time>
      </trkpt>
      <trkpt lat="44.05942" lon="6.10038">
        <ele>567</ele>
        <time>1990-12-05T11:02:26Z</time>
      </trkpt>
      <trkpt lat="44.05905" lon="6.10167">
        <ele>563</ele>
        <time>1990-12-05T11:02:41Z</time>
      </trkpt>
      <trkpt lat="44.05907" lon="6.10237">
        <ele>561</ele>
        <time>1990-12-05T11:02:50Z</time>
      </trkpt>
      <trkpt lat="44.05902" lon="6.10297">
        <ele>558</ele>
        <time>1990-12-05T11:03:11Z</time>
      </trkpt>
      <trkpt lat="44.05893" lon="6.10305">
        <ele>556</ele>
        <time>1990-12-05T11:04:48Z</time>
      </trkpt>
      <trkpt lat="44.05883" lon="6.10343">
        <ele>554</ele>
        <time>1990-12-05T11:04:54Z</time>
      </trkpt>
      <trkpt lat="44.05847" lon="6.1045">
        <ele>550</ele>
        <time>1990-12-05T11:05:09Z</time>
      </trkpt>
      <trkpt lat="44.05805" lon="6.1045">
        <ele>548</ele>
        <time>1990-12-05T11:05:18Z</time>
      </trkpt>
      <trkpt lat="44.05765" lon="6.10472">
        <ele>545</ele>
        <time>1990-12-05T11:05:27Z</time>
      </trkpt>
      <trkpt lat="44.05722" lon="6.10513">
        <ele>542</ele>
        <time>1990-12-05T11:05:36Z</time>
      </trkpt>
      <trkpt lat="44.05668" lon="6.106">
        <ele>538</ele>
        <time>1990-12-05T11:05:47Z</time>
      </trkpt>
      <trkpt lat="44.056" lon="6.10577">
        <ele>537</ele>
        <time>1990-12-05T11:06:02Z</time>
      </trkpt>
      <trkpt lat="44.0557" lon="6.10563">
        <ele>536</ele>
        <time>1990-12-05T11:06:09Z</time>
      </trkpt>
      <trkpt lat="44.05503" lon="6.10528">
        <ele>534</ele>
        <time>1990-12-05T11:06:35Z</time>
      </trkpt>
      <trkpt lat="44.05478" lon="6.10515">
        <ele>533</ele>
        <time>1990-12-05T11:07:18Z</time>
      </trkpt>
      <trkpt lat="44.05392" lon="6.10467">
        <ele>530</ele>
        <time>1990-12-05T11:07:37Z</time>
      </trkpt>
      <trkpt lat="44.05293" lon="6.10495">
        <ele>526</ele>
        <time>1990-12-05T11:08:00Z</time>
      </trkpt>
      <trkpt lat="44.05292" lon="6.10483">
        <ele>526</ele>
        <time>1990-12-05T11:08:21Z</time>
      </trkpt>
      <trkpt lat="44.05308" lon="6.1041">
        <ele>527</ele>
        <time>1990-12-05T11:08:55Z</time>
      </trkpt>
      <trkpt lat="44.05315" lon="6.10375">
        <ele>528</ele>
        <time>1990-12-05T11:09:13Z</time>
      </trkpt>
      <trkpt lat="44.05308" lon="6.10342">
        <ele>529</ele>
        <time>1990-12-05T11:09:36Z</time>
      </trkpt>
      <trkpt lat="44.0531" lon="6.10312">
        <ele>535</ele>
        <time>1990-12-05T11:10:12Z</time>
      </trkpt>
      <trkpt lat="44.0532" lon="6.10293">
        <ele>539</ele>
        <time>1990-12-05T11:10:37Z</time>
      </trkpt>
      <trkpt lat="44.05312" lon="6.10292">
        <ele>539</ele>
        <time>1990-12-05T11:11:10Z</time>
      </trkpt>
      <trkpt lat="44.05303" lon="6.10292">
        <ele>539</ele>
        <time>1990-12-05T11:11:49Z</time>
      </trkpt>
      <trkpt lat="44.05203" lon="6.10272">
        <ele>536</ele>
        <time>1990-12-05T11:13:40Z</time>
      </trkpt>
      <trkpt lat="44.05135" lon="6.10222">
        <ele>533</ele>
        <time>1990-12-05T11:13:53Z</time>
      </trkpt>
      <trkpt lat="44.05122" lon="6.10228">
        <ele>532</ele>
        <time>1990-12-05T11:13:58Z</time>
      </trkpt>
      <trkpt lat="44.05105" lon="6.10277">
        <ele>529</ele>
        <time>1990-12-05T11:14:16Z</time>
      </trkpt>
      <trkpt lat="44.05072" lon="6.10382">
        <ele>523</ele>
        <time>1990-12-05T11:14:32Z</time>
      </trkpt>
      <trkpt lat="44.05032" lon="6.10515">
        <ele>519</ele>
        <time>1990-12-05T11:14:48Z</time>
      </trkpt>
      <trkpt lat="44.05027" lon="6.10602">
        <ele>521</ele>
        <time>1990-12-05T11:15:03Z</time>
      </trkpt>
      <trkpt lat="44.05063" lon="6.10737">
        <ele>522</ele>
        <time>1990-12-05T11:15:31Z</time>
      </trkpt>
      <trkpt lat="44.05147" lon="6.10812">
        <ele>524</ele>
        <time>1990-12-05T11:16:01Z</time>
      </trkpt>
      <trkpt lat="44.05237" lon="6.10872">
        <ele>526</ele>
        <time>1990-12-05T11:16:31Z</time>
      </trkpt>
      <trkpt lat="44.05327" lon="6.11007">
        <ele>528</ele>
        <time>1990-12-05T11:17:05Z</time>
      </trkpt>
      <trkpt lat="44.05393" lon="6.11013">
        <ele>530</ele>
        <time>1990-12-05T11:17:29Z</time>
      </trkpt>
      <trkpt lat="44.05467" lon="6.1099">
        <ele>532</ele>
        <time>1990-12-05T11:17:52Z</time>
      </trkpt>
      <trkpt lat="44.05435" lon="6.11005">
        <ele>532</ele>
        <time>1990-12-05T11:18:02Z</time>
      </trkpt>
      <trkpt lat="44.05385" lon="6.11038">
        <ele>531</ele>
        <time>1990-12-05T11:18:14Z</time>
      </trkpt>
      <trkpt lat="44.05338" lon="6.11185">
        <ele>534</ele>
        <time>1990-12-05T11:18:36Z</time>
      </trkpt>
      <trkpt lat="44.05312" lon="6.11275">
        <ele>536</ele>
        <time>1990-12-05T11:18:54Z</time>
      </trkpt>
      <trkpt lat="44.05263" lon="6.11358">
        <ele>541</ele>
        <time>1990-12-05T11:19:23Z</time>
      </trkpt>
      <trkpt lat="44.05208" lon="6.11463">
        <ele>545</ele>
        <time>1990-12-05T11:19:58Z</time>
      </trkpt>
      <trkpt lat="44.05162" lon="6.11548">
        <ele>547</ele>
        <time>1990-12-05T11:20:25Z</time>
      </trkpt>
      <trkpt lat="44.05112" lon="6.11645">
        <ele>550</ele>
        <time>1990-12-05T11:20:54Z</time>
      </trkpt>
      <trkpt lat="44.05058" lon="6.11737">
        <ele>552</ele>
        <time>1990-12-05T11:21:27Z</time>
      </trkpt>
      <trkpt lat="44.05007" lon="6.11832">
        <ele>555</ele>
        <time>1990-12-05T11:21:57Z</time>
      </trkpt>
      <trkpt lat="44.04977" lon="6.11923">
        <ele>555</ele>
        <time>1990-12-05T11:22:24Z</time>
      </trkpt>
      <trkpt lat="44.04965" lon="6.12">
        <ele>554</ele>
        <time>1990-12-05T11:22:52Z</time>
      </trkpt>
      <trkpt lat="44.04987" lon="6.1206">
        <ele>553</ele>
        <time>1990-12-05T11:23:05Z</time>
      </trkpt>
      <trkpt lat="44.05025" lon="6.12088">
        <ele>554</ele>
        <time>1990-12-05T11:23:18Z</time>
      </trkpt>
      <trkpt lat="44.0509" lon="6.12125">
        <ele>557</ele>
        <time>1990-12-05T11:23:46Z</time>
      </trkpt>
      <trkpt lat="44.05083" lon="6.1217">
        <ele>560</ele>
        <time>1990-12-05T11:24:03Z</time>
      </trkpt>
      <trkpt lat="44.05035" lon="6.12205">
        <ele>565</ele>
        <time>1990-12-05T11:24:30Z</time>
      </trkpt>
      <trkpt lat="44.0501" lon="6.12267">
        <ele>568</ele>
        <time>1990-12-05T11:24:53Z</time>
      </trkpt>
      <trkpt lat="44.04995" lon="6.123">
        <ele>569</ele>
        <time>1990-12-05T11:25:18Z</time>
      </trkpt>
      <trkpt lat="44.04968" lon="6.12352">
        <ele>568</ele>
        <time>1990-12-05T11:25:32Z</time>
      </trkpt>
      <trkpt lat="44.04957" lon="6.12383">
        <ele>568</ele>
        <time>1990-12-05T11:25:58Z</time>
      </trkpt>
      <trkpt lat="44.04938" lon="6.12447">
        <ele>568</ele>
        <time>1990-12-05T11:26:11Z</time>
      </trkpt>
      <trkpt lat="44.04922" lon="6.12532">
        <ele>562</ele>
        <time>1990-12-05T11:26:20Z</time>
      </trkpt>
      <trkpt lat="44.04883" lon="6.12642">
        <ele>562</ele>
        <time>1990-12-05T11:26:38Z</time>
      </trkpt>
      <trkpt lat="44.04853" lon="6.12722">
        <ele>567</ele>
        <time>1990-12-05T11:27:04Z</time>
      </trkpt>
      <trkpt lat="44.0483" lon="6.1281">
        <ele>568</ele>
        <time>1990-12-05T11:27:33Z</time>
      </trkpt>
      <trkpt lat="44.04828" lon="6.12838">
        <ele>566</ele>
        <time>1990-12-05T11:27:38Z</time>
      </trkpt>
      <trkpt lat="44.0482" lon="6.12857">
        <ele>565</ele>
        <time>1990-12-05T11:27:41Z</time>
      </trkpt>
      <trkpt lat="44.0476" lon="6.12965">
        <ele>561</ele>
        <time>1990-12-05T11:28:01Z</time>
      </trkpt>
      <trkpt lat="44.04692" lon="6.13035">
        <ele>555</ele>
        <time>1990-12-05T11:28:16Z</time>
      </trkpt>
      <trkpt lat="44.04647" lon="6.13068">
        <ele>550</ele>
        <time>1990-12-05T11:28:25Z</time>
      </trkpt>
      <trkpt lat="44.0463" lon="6.13085">
        <ele>548</ele>
        <time>1990-12-05T11:29:14Z</time>
      </trkpt>
      <trkpt lat="44.04623" lon="6.13118">
        <ele>543</ele>
        <time>1990-12-05T11:29:20Z</time>
      </trkpt>
      <trkpt lat="44.04617" lon="6.13187">
        <ele>535</ele>
        <time>1990-12-05T11:29:27Z</time>
      </trkpt>
      <trkpt lat="44.04602" lon="6.13225">
        <ele>529</ele>
        <time>1990-12-05T11:29:32Z</time>
      </trkpt>
      <trkpt lat="44.04567" lon="6.1325">
        <ele>526</ele>
        <time>1990-12-05T11:29:43Z</time>
      </trkpt>
      <trkpt lat="44.0453" lon="6.1332">
        <ele>524</ele>
        <time>1990-12-05T11:29:54Z</time>
      </trkpt>
      <trkpt lat="44.04422" lon="6.13415">
        <ele>517</ele>
        <time>1990-12-05T11:30:13Z</time>
      </trkpt>
      <trkpt lat="44.0428" lon="6.13507">
        <ele>513</ele>
        <time>1990-12-05T11:30:39Z</time>
      </trkpt>
      <trkpt lat="44.04252" lon="6.13542">
        <ele>511</ele>
        <time>1990-12-05T11:30:50Z</time>
      </trkpt>
      <trkpt lat="44.04167" lon="6.13583">
        <ele>509</ele>
        <time>1990-12-05T11:31:07Z</time>
      </trkpt>
      <trkpt lat="44.04058" lon="6.13628">
        <ele>509</ele>
        <time>1990-12-05T11:31:32Z</time>
      </trkpt>
      <trkpt lat="44.0403" lon="6.13593">
        <ele>507</ele>
        <time>1990-12-05T11:31:47Z</time>
      </trkpt>
      <trkpt lat="44.03968" lon="6.13643">
        <ele>507</ele>
        <time>1990-12-05T11:32:13Z</time>
      </trkpt>
      <trkpt lat="44.03967" lon="6.137">
        <ele>507</ele>
        <time>1990-12-05T11:32:25Z</time>
      </trkpt>
      <trkpt lat="44.04018" lon="6.13813">
        <ele>508</ele>
        <time>1990-12-05T11:32:48Z</time>
      </trkpt>
      <trkpt lat="44.04037" lon="6.13855">
        <ele>508</ele>
        <time>1990-12-05T11:32:56Z</time>
      </trkpt>
      <trkpt lat="44.04082" lon="6.1396">
        <ele>509</ele>
        <time>1990-12-05T11:33:19Z</time>
      </trkpt>
      <trkpt lat="44.04082" lon="6.13995">
        <ele>509</ele>
        <time>1990-12-05T11:33:30Z</time>
      </trkpt>
      <trkpt lat="44.04007" lon="6.14062">
        <ele>510</ele>
        <time>1990-12-05T11:33:54Z</time>
      </trkpt>
      <trkpt lat="44.04038" lon="6.14142">
        <ele>510</ele>
        <time>1990-12-05T11:34:16Z</time>
      </trkpt>
      <trkpt lat="44.04047" lon="6.14157">
        <ele>510</ele>
        <time>1990-12-05T11:34:24Z</time>
      </trkpt>
      <trkpt lat="44.04057" lon="6.14183">
        <ele>512</ele>
        <time>1990-12-05T11:34:41Z</time>
      </trkpt>
      <trkpt lat="44.04013" lon="6.14227">
        <ele>513</ele>
        <time>1990-12-05T11:34:56Z</time>
      </trkpt>
      <trkpt lat="44.03955" lon="6.14282">
        <ele>512</ele>
        <time>1990-12-05T11:35:13Z</time>
      </trkpt>
      <trkpt lat="44.03943" lon="6.14318">
        <ele>511</ele>
        <time>1990-12-05T11:35:30Z</time>
      </trkpt>
      <trkpt lat="44.03933" lon="6.14362">
        <ele>512</ele>
        <time>1990-12-05T11:35:46Z</time>
      </trkpt>
      <trkpt lat="44.03927" lon="6.14402">
        <ele>511</ele>
        <time>1990-12-05T11:36:01Z</time>
      </trkpt>
      <trkpt lat="44.0399" lon="6.14477">
        <ele>511</ele>
        <time>1990-12-05T11:36:30Z</time>
      </trkpt>
      <trkpt lat="44.0406" lon="6.14528">
        <ele>511</ele>
        <time>1990-12-05T11:36:56Z</time>
      </trkpt>
      <trkpt lat="44.04113" lon="6.14623">
        <ele>513</ele>
        <time>1990-12-05T11:37:21Z</time>
      </trkpt>
      <trkpt lat="44.0416" lon="6.14727">
        <ele>513</ele>
        <time>1990-12-05T11:37:46Z</time>
      </trkpt>
      <trkpt lat="44.04183" lon="6.1485">
        <ele>513</ele>
        <time>1990-12-05T11:38:13Z</time>
      </trkpt>
      <trkpt lat="44.04175" lon="6.14915">
        <ele>515</ele>
        <time>1990-12-05T11:38:32Z</time>
      </trkpt>
      <trkpt lat="44.04125" lon="6.14968">
        <ele>518</ele>
        <time>1990-12-05T11:38:59Z</time>
      </trkpt>
      <trkpt lat="44.04057" lon="6.15038">
        <ele>521</ele>
        <time>1990-12-05T11:39:28Z</time>
      </trkpt>
      <trkpt lat="44.03973" lon="6.15118">
        <ele>526</ele>
        <time>1990-12-05T11:40:02Z</time>
      </trkpt>
      <trkpt lat="44.03968" lon="6.1515">
        <ele>527</ele>
        <time>1990-12-05T11:40:17Z</time>
      </trkpt>
      <trkpt lat="44.03972" lon="6.15183">
        <ele>527</ele>
        <time>1990-12-05T11:40:33Z</time>
      </trkpt>
      <trkpt lat="44.0398" lon="6.15198">
        <ele>527</ele>
        <time>1990-12-05T11:46:02Z</time>
      </trkpt>
      <trkpt lat="44.03988" lon="6.15315">
        <ele>526</ele>
        <time>1990-12-05T11:46:17Z</time>
      </trkpt>
      <trkpt lat="44.0404" lon="6.15558">
        <ele>527</ele>
        <time>1990-12-05T11:46:47Z</time>
      </trkpt>
      <trkpt lat="44.04097" lon="6.1565">
        <ele>528</ele>
        <time>1990-12-05T11:47:07Z</time>
      </trkpt>
      <trkpt lat="44.04145" lon="6.15738">
        <ele>530</ele>
        <time>1990-12-05T11:47:33Z</time>
      </trkpt>
      <trkpt lat="44.04213" lon="6.15848">
        <ele>530</ele>
        <time>1990-12-05T11:48:02Z</time>
      </trkpt>
      <trkpt lat="44.04257" lon="6.1593">
        <ele>530</ele>
        <time>1990-12-05T11:48:21Z</time>
      </trkpt>
      <trkpt lat="44.0431" lon="6.16017">
        <ele>531</ele>
        <time>1990-12-05T11:48:45Z</time>
      </trkpt>
      <trkpt lat="44.04375" lon="6.16113">
        <ele>533</ele>
        <time>1990-12-05T11:49:16Z</time>
      </trkpt>
      <trkpt lat="44.04412" lon="6.1621">
        <ele>535</ele>
        <time>1990-12-05T11:49:44Z</time>
      </trkpt>
      <trkpt lat="44.04425" lon="6.16287">
        <ele>537</ele>
        <time>1990-12-05T11:50:05Z</time>
      </trkpt>
      <trkpt lat="44.04465" lon="6.16353">
        <ele>538</ele>
        <time>1990-12-05T11:50:30Z</time>
      </trkpt>
      <trkpt lat="44.045" lon="6.16377">
        <ele>537</ele>
        <time>1990-12-05T11:50:40Z</time>
      </trkpt>
      <trkpt lat="44.0457" lon="6.1635">
        <ele>534</ele>
        <time>1990-12-05T11:50:56Z</time>
      </trkpt>
      <trkpt lat="44.04682" lon="6.16242">
        <ele>530</ele>
        <time>1990-12-05T11:51:22Z</time>
      </trkpt>
      <trkpt lat="44.04707" lon="6.1621">
        <ele>530</ele>
        <time>1990-12-05T11:51:33Z</time>
      </trkpt>
      <trkpt lat="44.04737" lon="6.16153">
        <ele>529</ele>
        <time>1990-12-05T11:51:48Z</time>
      </trkpt>
      <trkpt lat="44.04775" lon="6.16165">
        <ele>530</ele>
        <time>1990-12-05T11:52:01Z</time>
      </trkpt>
      <trkpt lat="44.04797" lon="6.16265">
        <ele>529</ele>
        <time>1990-12-05T11:52:16Z</time>
      </trkpt>
      <trkpt lat="44.04823" lon="6.16315">
        <ele>529</ele>
        <time>1990-12-05T11:52:25Z</time>
      </trkpt>
      <trkpt lat="44.04868" lon="6.16382">
        <ele>529</ele>
        <time>1990-12-05T11:52:42Z</time>
      </trkpt>
      <trkpt lat="44.04928" lon="6.16417">
        <ele>530</ele>
        <time>1990-12-05T11:52:57Z</time>
      </trkpt>
      <trkpt lat="44.04995" lon="6.16428">
        <ele>530</ele>
        <time>1990-12-05T11:53:15Z</time>
      </trkpt>
      <trkpt lat="44.05025" lon="6.1637">
        <ele>528</ele>
        <time>1990-12-05T11:53:25Z</time>
      </trkpt>
      <trkpt lat="44.05105" lon="6.16292">
        <ele>526</ele>
        <time>1990-12-05T11:53:41Z</time>
      </trkpt>
      <trkpt lat="44.05182" lon="6.16278">
        <ele>527</ele>
        <time>1990-12-05T11:53:57Z</time>
      </trkpt>
      <trkpt lat="44.05222" lon="6.16313">
        <ele>527</ele>
        <time>1990-12-05T11:54:07Z</time>
      </trkpt>
      <trkpt lat="44.05322" lon="6.16452">
        <ele>528</ele>
        <time>1990-12-05T11:54:38Z</time>
      </trkpt>
      <trkpt lat="44.05423" lon="6.16565">
        <ele>530</ele>
        <time>1990-12-05T11:55:09Z</time>
      </trkpt>
      <trkpt lat="44.05497" lon="6.16648">
        <ele>531</ele>
        <time>1990-12-05T11:55:32Z</time>
      </trkpt>
      <trkpt lat="44.05567" lon="6.16738">
        <ele>532</ele>
        <time>1990-12-05T11:55:53Z</time>
      </trkpt>
      <trkpt lat="44.05653" lon="6.16892">
        <ele>535</ele>
        <time>1990-12-05T11:56:25Z</time>
      </trkpt>
      <trkpt lat="44.05678" lon="6.1699">
        <ele>538</ele>
        <time>1990-12-05T11:56:48Z</time>
      </trkpt>
      <trkpt lat="44.05673" lon="6.17025">
        <ele>538</ele>
        <time>1990-12-05T11:56:58Z</time>
      </trkpt>
      <trkpt lat="44.0568" lon="6.17107">
        <ele>538</ele>
        <time>1990-12-05T11:57:15Z</time>
      </trkpt>
      <trkpt lat="44.05705" lon="6.17178">
        <ele>537</ele>
        <time>1990-12-05T11:57:29Z</time>
      </trkpt>
      <trkpt lat="44.0579" lon="6.1728">
        <ele>537</ele>
        <time>1990-12-05T11:57:55Z</time>
      </trkpt>
      <trkpt lat="44.0586" lon="6.17378">
        <ele>537</ele>
        <time>1990-12-05T11:58:18Z</time>
      </trkpt>
      <trkpt lat="44.05928" lon="6.17475">
        <ele>538</ele>
        <time>1990-12-05T11:58:41Z</time>
      </trkpt>
      <trkpt lat="44.05985" lon="6.17525">
        <ele>538</ele>
        <time>1990-12-05T11:58:59Z</time>
      </trkpt>
      <trkpt lat="44.06068" lon="6.17622">
        <ele>541</ele>
        <time>1990-12-05T11:59:28Z</time>
      </trkpt>
      <trkpt lat="44.06117" lon="6.17685">
        <ele>542</ele>
        <time>1990-12-05T11:59:47Z</time>
      </trkpt>
      <trkpt lat="44.06192" lon="6.17595">
        <ele>541</ele>
        <time>1990-12-05T12:00:13Z</time>
      </trkpt>
      <trkpt lat="44.06222" lon="6.17545">
        <ele>541</ele>
        <time>1990-12-05T12:00:38Z</time>
      </trkpt>
      <trkpt lat="44.06262" lon="6.17553">
        <ele>540</ele>
        <time>1990-12-05T12:01:10Z</time>
      </trkpt>
      <trkpt lat="44.06297" lon="6.17577">
        <ele>540</ele>
        <time>1990-12-05T12:01:30Z</time>
      </trkpt>
      <trkpt lat="44.06297" lon="6.17573">
        <ele>541</ele>
        <time>1990-12-05T12:02:37Z</time>
      </trkpt>
      <trkpt lat="44.06342" lon="6.17512">
        <ele>541</ele>
        <time>1990-12-05T12:03:02Z</time>
      </trkpt>
      <trkpt lat="44.06367" lon="6.1756">
        <ele>540</ele>
        <time>1990-12-05T12:03:19Z</time>
      </trkpt>
      <trkpt lat="44.06388" lon="6.17582">
        <ele>540</ele>
        <time>1990-12-05T12:03:28Z</time>
      </trkpt>
      <trkpt lat="44.06415" lon="6.176">
        <ele>542</ele>
        <time>1990-12-05T12:03:55Z</time>
      </trkpt>
      <trkpt lat="44.0646" lon="6.17615">
        <ele>543</ele>
        <time>1990-12-05T12:04:14Z</time>
      </trkpt>
      <trkpt lat="44.06493" lon="6.17602">
        <ele>544</ele>
        <time>1990-12-05T12:04:31Z</time>
      </trkpt>
      <trkpt lat="44.06568" lon="6.17667">
        <ele>545</ele>
        <time>1990-12-05T12:04:57Z</time>
      </trkpt>
      <trkpt lat="44.06643" lon="6.17793">
        <ele>547</ele>
        <time>1990-12-05T12:05:27Z</time>
      </trkpt>
      <trkpt lat="44.06577" lon="6.17887">
        <ele>546</ele>
        <time>1990-12-05T12:05:48Z</time>
      </trkpt>
      <trkpt lat="44.06515" lon="6.1797">
        <ele>545</ele>
        <time>1990-12-05T12:06:08Z</time>
      </trkpt>
      <trkpt lat="44.06443" lon="6.18072">
        <ele>546</ele>
        <time>1990-12-05T12:06:33Z</time>
      </trkpt>
      <trkpt lat="44.06415" lon="6.18183">
        <ele>546</ele>
        <time>1990-12-05T12:06:59Z</time>
      </trkpt>
      <trkpt lat="44.06443" lon="6.18232">
        <ele>547</ele>
        <time>1990-12-05T12:07:12Z</time>
      </trkpt>
      <trkpt lat="44.06508" lon="6.18347">
        <ele>547</ele>
        <time>1990-12-05T12:07:38Z</time>
      </trkpt>
      <trkpt lat="44.06537" lon="6.18485">
        <ele>549</ele>
        <time>1990-12-05T12:08:05Z</time>
      </trkpt>
      <trkpt lat="44.06533" lon="6.1862">
        <ele>549</ele>
        <time>1990-12-05T12:08:32Z</time>
      </trkpt>
      <trkpt lat="44.06523" lon="6.18752">
        <ele>552</ele>
        <time>1990-12-05T12:09:01Z</time>
      </trkpt>
      <trkpt lat="44.0653" lon="6.1885">
        <ele>555</ele>
        <time>1990-12-05T12:09:25Z</time>
      </trkpt>
      <trkpt lat="44.06553" lon="6.1893">
        <ele>557</ele>
        <time>1990-12-05T12:09:44Z</time>
      </trkpt>
      <trkpt lat="44.06605" lon="6.19037">
        <ele>557</ele>
        <time>1990-12-05T12:10:04Z</time>
      </trkpt>
      <trkpt lat="44.06652" lon="6.19133">
        <ele>560</ele>
        <time>1990-12-05T12:10:21Z</time>
      </trkpt>
      <trkpt lat="44.06655" lon="6.1921">
        <ele>562</ele>
        <time>1990-12-05T12:10:37Z</time>
      </trkpt>
      <trkpt lat="44.06673" lon="6.19247">
        <ele>562</ele>
        <time>1990-12-05T12:10:51Z</time>
      </trkpt>
      <trkpt lat="44.06693" lon="6.19292">
        <ele>563</ele>
        <time>1990-12-05T12:14:22Z</time>
      </trkpt>
      <trkpt lat="44.06737" lon="6.19405">
        <ele>566</ele>
        <time>1990-12-05T12:14:51Z</time>
      </trkpt>
      <trkpt lat="44.06797" lon="6.19565">
        <ele>570</ele>
        <time>1990-12-05T12:15:25Z</time>
      </trkpt>
      <trkpt lat="44.06818" lon="6.19618">
        <ele>570</ele>
        <time>1990-12-05T12:16:07Z</time>
      </trkpt>
      <trkpt lat="44.06857" lon="6.19702">
        <ele>571</ele>
        <time>1990-12-05T12:16:23Z</time>
      </trkpt>
      <trkpt lat="44.06913" lon="6.19803">
        <ele>573</ele>
        <time>1990-12-05T12:16:43Z</time>
      </trkpt>
      <trkpt lat="44.07003" lon="6.19938">
        <ele>573</ele>
        <time>1990-12-05T12:17:12Z</time>
      </trkpt>
      <trkpt lat="44.07103" lon="6.20137">
        <ele>572</ele>
        <time>1990-12-05T12:17:44Z</time>
      </trkpt>
      <trkpt lat="44.07127" lon="6.20185">
        <ele>572</ele>
        <time>1990-12-05T12:17:51Z</time>
      </trkpt>
      <trkpt lat="44.07167" lon="6.20217">
        <ele>573</ele>
        <time>1990-12-05T12:18:00Z</time>
      </trkpt>
      <trkpt lat="44.07248" lon="6.20265">
        <ele>575</ele>
        <time>1990-12-05T12:18:20Z</time>
      </trkpt>
      <trkpt lat="44.07362" lon="6.20408">
        <ele>578</ele>
        <time>1990-12-05T12:18:54Z</time>
      </trkpt>
      <trkpt lat="44.07447" lon="6.20515">
        <ele>578</ele>
        <time>1990-12-05T12:19:18Z</time>
      </trkpt>
      <trkpt lat="44.07453" lon="6.20525">
        <ele>578</ele>
        <time>1990-12-05T12:19:20Z</time>
      </trkpt>
      <trkpt lat="44.07527" lon="6.20592">
        <ele>578</ele>
        <time>1990-12-05T12:19:37Z</time>
      </trkpt>
      <trkpt lat="44.07553" lon="6.20622">
        <ele>578</ele>
        <time>1990-12-05T12:19:48Z</time>
      </trkpt>
      <trkpt lat="44.07558" lon="6.20615">
        <ele>577</ele>
        <time>1990-12-05T12:19:53Z</time>
      </trkpt>
      <trkpt lat="44.0759" lon="6.20593">
        <ele>575</ele>
        <time>1990-12-05T12:20:03Z</time>
      </trkpt>
      <trkpt lat="44.07632" lon="6.20543">
        <ele>572</ele>
        <time>1990-12-05T12:20:15Z</time>
      </trkpt>
      <trkpt lat="44.07748" lon="6.20597">
        <ele>569</ele>
        <time>1990-12-05T12:20:42Z</time>
      </trkpt>
      <trkpt lat="44.07772" lon="6.2059">
        <ele>570</ele>
        <time>1990-12-05T12:20:54Z</time>
      </trkpt>
      <trkpt lat="44.0778" lon="6.20687">
        <ele>571</ele>
        <time>1990-12-05T12:23:38Z</time>
      </trkpt>
      <trkpt lat="44.07783" lon="6.20785">
        <ele>572</ele>
        <time>1990-12-05T12:23:57Z</time>
      </trkpt>
      <trkpt lat="44.07825" lon="6.20902">
        <ele>573</ele>
        <time>1990-12-05T12:24:22Z</time>
      </trkpt>
      <trkpt lat="44.07858" lon="6.20995">
        <ele>574</ele>
        <time>1990-12-05T12:24:40Z</time>
      </trkpt>
      <trkpt lat="44.07873" lon="6.2106">
        <ele>574</ele>
        <time>1990-12-05T12:24:53Z</time>
      </trkpt>
      <trkpt lat="44.0791" lon="6.21143">
        <ele>575</ele>
        <time>1990-12-05T12:25:15Z</time>
      </trkpt>
      <trkpt lat="44.07923" lon="6.21167">
        <ele>574</ele>
        <time>1990-12-05T12:25:20Z</time>
      </trkpt>
      <trkpt lat="44.0793" lon="6.21173">
        <ele>575</ele>
        <time>1990-12-05T12:25:22Z</time>
      </trkpt>
      <trkpt lat="44.07937" lon="6.2118">
        <ele>575</ele>
        <time>1990-12-05T12:25:24Z</time>
      </trkpt>
      <trkpt lat="44.0794" lon="6.21188">
        <ele>575</ele>
        <time>1990-12-05T12:25:26Z</time>
      </trkpt>
      <trkpt lat="44.07965" lon="6.2125">
        <ele>575</ele>
        <time>1990-12-05T12:25:42Z</time>
      </trkpt>
      <trkpt lat="44.07983" lon="6.21295">
        <ele>575</ele>
        <time>1990-12-05T12:27:16Z</time>
      </trkpt>
      <trkpt lat="44.08003" lon="6.21433">
        <ele>577</ele>
        <time>1990-12-05T12:27:46Z</time>
      </trkpt>
      <trkpt lat="44.07967" lon="6.2144">
        <ele>577</ele>
        <time>1990-12-05T12:28:01Z</time>
      </trkpt>
      <trkpt lat="44.07967" lon="6.21437">
        <ele>577</ele>
        <time>1990-12-05T12:28:46Z</time>
      </trkpt>
      <trkpt lat="44.0841" lon="6.21633">
        <ele>598</ele>
        <time>1990-12-06T07:53:22Z</time>
      </trkpt>
      <trkpt lat="44.08405" lon="6.2165">
        <ele>599</ele>
        <time>1990-12-06T07:54:43Z</time>
      </trkpt>
      <trkpt lat="44.08387" lon="6.21675">
        <ele>600</ele>
        <time>1990-12-06T07:56:46Z</time>
      </trkpt>
      <trkpt lat="44.08368" lon="6.21722">
        <ele>602</ele>
        <time>1990-12-06T07:57:00Z</time>
      </trkpt>
      <trkpt lat="44.08343" lon="6.21737">
        <ele>601</ele>
        <time>1990-12-06T07:57:06Z</time>
      </trkpt>
      <trkpt lat="44.08318" lon="6.2174">
        <ele>601</ele>
        <time>1990-12-06T07:57:11Z</time>
      </trkpt>
      <trkpt lat="44.08282" lon="6.21735">
        <ele>601</ele>
        <time>1990-12-06T07:57:18Z</time>
      </trkpt>
      <trkpt lat="44.0827" lon="6.21748">
        <ele>601</ele>
        <time>1990-12-06T07:57:24Z</time>
      </trkpt>
      <trkpt lat="44.08242" lon="6.21743">
        <ele>601</ele>
        <time>1990-12-06T07:57:35Z</time>
      </trkpt>
      <trkpt lat="44.08232" lon="6.21737">
        <ele>601</ele>
        <time>1990-12-06T07:57:37Z</time>
      </trkpt>
      <trkpt lat="44.08218" lon="6.21738">
        <ele>601</ele>
        <time>1990-12-06T07:57:39Z</time>
      </trkpt>
      <trkpt lat="44.08138" lon="6.21758">
        <ele>601</ele>
        <time>1990-12-06T07:57:49Z</time>
      </trkpt>
      <trkpt lat="44.0815" lon="6.21798">
        <ele>599</ele>
        <time>1990-12-06T07:57:59Z</time>
      </trkpt>
      <trkpt lat="44.0815" lon="6.2181">
        <ele>599</ele>
        <time>1990-12-06T07:58:01Z</time>
      </trkpt>
      <trkpt lat="44.08153" lon="6.21818">
        <ele>599</ele>
        <time>1990-12-06T07:58:03Z</time>
      </trkpt>
      <trkpt lat="44.08158" lon="6.21827">
        <ele>600</ele>
        <time>1990-12-06T07:58:05Z</time>
      </trkpt>
      <trkpt lat="44.08192" lon="6.21918">
        <ele>600</ele>
        <time>1990-12-06T07:58:31Z</time>
      </trkpt>
      <trkpt lat="44.08242" lon="6.22048">
        <ele>600</ele>
        <time>1990-12-06T07:59:00Z</time>
      </trkpt>
      <trkpt lat="44.0832" lon="6.22205">
        <ele>602</ele>
        <time>1990-12-06T07:59:35Z</time>
      </trkpt>
      <trkpt lat="44.08393" lon="6.22348">
        <ele>603</ele>
        <time>1990-12-06T08:00:06Z</time>
      </trkpt>
      <trkpt lat="44.08442" lon="6.22445">
        <ele>603</ele>
        <time>1990-12-06T08:00:27Z</time>
      </trkpt>
      <trkpt lat="44.08502" lon="6.22553">
        <ele>604</ele>
        <time>1990-12-06T08:00:50Z</time>
      </trkpt>
      <trkpt lat="44.08607" lon="6.22653">
        <ele>604</ele>
        <time>1990-12-06T08:01:22Z</time>
      </trkpt>
      <trkpt lat="44.0868" lon="6.2272">
        <ele>605</ele>
        <time>1990-12-06T08:01:49Z</time>
      </trkpt>
      <trkpt lat="44.0871" lon="6.22772">
        <ele>605</ele>
        <time>1990-12-06T08:02:15Z</time>
      </trkpt>
      <trkpt lat="44.08702" lon="6.22787">
        <ele>605</ele>
        <time>1990-12-06T08:02:34Z</time>
      </trkpt>
      <trkpt lat="44.08702" lon="6.22768">
        <ele>605</ele>
        <time>1990-12-06T08:02:46Z</time>
      </trkpt>
      <trkpt lat="44.08702" lon="6.22752">
        <ele>604</ele>
        <time>1990-12-06T08:02:56Z</time>
      </trkpt>
      <trkpt lat="44.08693" lon="6.22765">
        <ele>604</ele>
        <time>1990-12-06T08:03:15Z</time>
      </trkpt>
      <trkpt lat="44.08702" lon="6.2274">
        <ele>604</ele>
        <time>1990-12-06T08:03:30Z</time>
      </trkpt>
      <trkpt lat="44.08725" lon="6.2276">
        <ele>603</ele>
        <time>1990-12-06T08:04:57Z</time>
      </trkpt>
      <trkpt lat="44.08755" lon="6.22787">
        <ele>604</ele>
        <time>1990-12-06T08:05:17Z</time>
      </trkpt>
      <trkpt lat="44.0883" lon="6.2285">
        <ele>604</ele>
        <time>1990-12-06T08:05:47Z</time>
      </trkpt>
      <trkpt lat="44.08907" lon="6.22918">
        <ele>605</ele>
        <time>1990-12-06T08:06:18Z</time>
      </trkpt>
      <trkpt lat="44.08992" lon="6.2299">
        <ele>606</ele>
        <time>1990-12-06T08:06:49Z</time>
      </trkpt>
      <trkpt lat="44.09035" lon="6.23042">
        <ele>607</ele>
        <time>1990-12-06T08:07:09Z</time>
      </trkpt>
      <trkpt lat="44.09057" lon="6.23047">
        <ele>607</ele>
        <time>1990-12-06T08:07:19Z</time>
      </trkpt>
      <trkpt lat="44.0906" lon="6.23082">
        <ele>608</ele>
        <time>1990-12-06T08:07:31Z</time>
      </trkpt>
      <trkpt lat="44.09068" lon="6.23098">
        <ele>609</ele>
        <time>1990-12-06T08:07:38Z</time>
      </trkpt>
      <trkpt lat="44.09095" lon="6.2318">
        <ele>608</ele>
        <time>1990-12-06T08:07:59Z</time>
      </trkpt>
      <trkpt lat="44.09062" lon="6.2334">
        <ele>608</ele>
        <time>1990-12-06T08:08:28Z</time>
      </trkpt>
      <trkpt lat="44.09047" lon="6.23503">
        <ele>610</ele>
        <time>1990-12-06T08:08:57Z</time>
      </trkpt>
      <trkpt lat="44.09017" lon="6.23665">
        <ele>611</ele>
        <time>1990-12-06T08:09:27Z</time>
      </trkpt>
      <trkpt lat="44.09007" lon="6.23702">
        <ele>612</ele>
        <time>1990-12-06T08:09:35Z</time>
      </trkpt>
      <trkpt lat="44.08978" lon="6.23858">
        <ele>613</ele>
        <time>1990-12-06T08:10:02Z</time>
      </trkpt>
      <trkpt lat="44.08968" lon="6.2391">
        <ele>613</ele>
        <time>1990-12-06T08:10:11Z</time>
      </trkpt>
      <trkpt lat="44.08995" lon="6.24078">
        <ele>615</ele>
        <time>1990-12-06T08:10:43Z</time>
      </trkpt>
      <trkpt lat="44.09063" lon="6.24212">
        <ele>616</ele>
        <time>1990-12-06T08:11:12Z</time>
      </trkpt>
      <trkpt lat="44.0911" lon="6.24303">
        <ele>618</ele>
        <time>1990-12-06T08:11:32Z</time>
      </trkpt>
      <trkpt lat="44.0911" lon="6.24403">
        <ele>622</ele>
        <time>1990-12-06T08:11:56Z</time>
      </trkpt>
      <trkpt lat="44.09072" lon="6.24478">
        <ele>621</ele>
        <time>1990-12-06T08:12:12Z</time>
      </trkpt>
      <trkpt lat="44.09068" lon="6.24532">
        <ele>620</ele>
        <time>1990-12-06T08:12:19Z</time>
      </trkpt>
      <trkpt lat="44.09052" lon="6.24605">
        <ele>621</ele>
        <time>1990-12-06T08:12:30Z</time>
      </trkpt>
      <trkpt lat="44.09007" lon="6.24702">
        <ele>622</ele>
        <time>1990-12-06T08:12:48Z</time>
      </trkpt>
      <trkpt lat="44.08985" lon="6.24782">
        <ele>623</ele>
        <time>1990-12-06T08:13:01Z</time>
      </trkpt>
      <trkpt lat="44.08985" lon="6.24832">
        <ele>624</ele>
        <time>1990-12-06T08:13:09Z</time>
      </trkpt>
      <trkpt lat="44.08962" lon="6.24883">
        <ele>625</ele>
        <time>1990-12-06T08:13:19Z</time>
      </trkpt>
      <trkpt lat="44.08872" lon="6.24933">
        <ele>626</ele>
        <time>1990-12-06T08:13:42Z</time>
      </trkpt>
      <trkpt lat="44.0876" lon="6.2499">
        <ele>631</ele>
        <time>1990-12-06T08:14:13Z</time>
      </trkpt>
      <trkpt lat="44.08733" lon="6.25038">
        <ele>632</ele>
        <time>1990-12-06T08:14:28Z</time>
      </trkpt>
      <trkpt lat="44.08692" lon="6.25008">
        <ele>631</ele>
        <time>1990-12-06T08:14:47Z</time>
      </trkpt>
      <trkpt lat="44.08602" lon="6.24992">
        <ele>634</ele>
        <time>1990-12-06T08:15:14Z</time>
      </trkpt>
      <trkpt lat="44.08513" lon="6.25022">
        <ele>635</ele>
        <time>1990-12-06T08:15:43Z</time>
      </trkpt>
      <trkpt lat="44.08467" lon="6.25097">
        <ele>637</ele>
        <time>1990-12-06T08:16:07Z</time>
      </trkpt>
      <trkpt lat="44.08442" lon="6.252">
        <ele>638</ele>
        <time>1990-12-06T08:16:29Z</time>
      </trkpt>
      <trkpt lat="44.08445" lon="6.25263">
        <ele>641</ele>
        <time>1990-12-06T08:16:45Z</time>
      </trkpt>
      <trkpt lat="44.08428" lon="6.25273">
        <ele>642</ele>
        <time>1990-12-06T08:17:06Z</time>
      </trkpt>
      <trkpt lat="44.08385" lon="6.25282">
        <ele>640</ele>
        <time>1990-12-06T08:17:26Z</time>
      </trkpt>
      <trkpt lat="44.0829" lon="6.25378">
        <ele>643</ele>
        <time>1990-12-06T08:17:58Z</time>
      </trkpt>
      <trkpt lat="44.08207" lon="6.25448">
        <ele>645</ele>
        <time>1990-12-06T08:18:26Z</time>
      </trkpt>
      <trkpt lat="44.08185" lon="6.25495">
        <ele>647</ele>
        <time>1990-12-06T08:18:41Z</time>
      </trkpt>
      <trkpt lat="44.08137" lon="6.2546">
        <ele>648</ele>
        <time>1990-12-06T08:19:01Z</time>
      </trkpt>
      <trkpt lat="44.08112" lon="6.25493">
        <ele>649</ele>
        <time>1990-12-06T08:19:14Z</time>
      </trkpt>
      <trkpt lat="44.08065" lon="6.2556">
        <ele>651</ele>
        <time>1990-12-06T08:19:38Z</time>
      </trkpt>
      <trkpt lat="44.08038" lon="6.25628">
        <ele>653</ele>
        <time>1990-12-06T08:20:02Z</time>
      </trkpt>
      <trkpt lat="44.08012" lon="6.25702">
        <ele>654</ele>
        <time>1990-12-06T08:20:24Z</time>
      </trkpt>
      <trkpt lat="44.07973" lon="6.25797">
        <ele>653</ele>
        <time>1990-12-06T08:20:49Z</time>
      </trkpt>
      <trkpt lat="44.0797" lon="6.25822">
        <ele>654</ele>
        <time>1990-12-06T08:20:57Z</time>
      </trkpt>
      <trkpt lat="44.07963" lon="6.25867">
        <ele>653</ele>
        <time>1990-12-06T08:21:10Z</time>
      </trkpt>
      <trkpt lat="44.08002" lon="6.25943">
        <ele>653</ele>
        <time>1990-12-06T08:21:36Z</time>
      </trkpt>
      <trkpt lat="44.07978" lon="6.25997">
        <ele>653</ele>
        <time>1990-12-06T08:22:45Z</time>
      </trkpt>
      <trkpt lat="44.07983" lon="6.2602">
        <ele>655</ele>
        <time>1990-12-06T08:23:05Z</time>
      </trkpt>
      <trkpt lat="44.07983" lon="6.26058">
        <ele>655</ele>
        <time>1990-12-06T08:23:21Z</time>
      </trkpt>
      <trkpt lat="44.07967" lon="6.26118">
        <ele>659</ele>
        <time>1990-12-06T08:23:41Z</time>
      </trkpt>
      <trkpt lat="44.07962" lon="6.2614">
        <ele>660</ele>
        <time>1990-12-06T08:23:48Z</time>
      </trkpt>
      <trkpt lat="44.07948" lon="6.26237">
        <ele>662</ele>
        <time>1990-12-06T08:24:15Z</time>
      </trkpt>
      <trkpt lat="44.07935" lon="6.26388">
        <ele>664</ele>
        <time>1990-12-06T08:24:45Z</time>
      </trkpt>
      <trkpt lat="44.07933" lon="6.26518">
        <ele>667</ele>
        <time>1990-12-06T08:25:12Z</time>
      </trkpt>
      <trkpt lat="44.07922" lon="6.26657">
        <ele>669</ele>
        <time>1990-12-06T08:25:42Z</time>
      </trkpt>
      <trkpt lat="44.07935" lon="6.26735">
        <ele>670</ele>
        <time>1990-12-06T08:26:01Z</time>
      </trkpt>
      <trkpt lat="44.07925" lon="6.26757">
        <ele>675</ele>
        <time>1990-12-06T08:26:23Z</time>
      </trkpt>
      <trkpt lat="44.07917" lon="6.26777">
        <ele>677</ele>
        <time>1990-12-06T08:26:44Z</time>
      </trkpt>
      <trkpt lat="44.07862" lon="6.26833">
        <ele>675</ele>
        <time>1990-12-06T08:27:03Z</time>
      </trkpt>
      <trkpt lat="44.0787" lon="6.26907">
        <ele>675</ele>
        <time>1990-12-06T08:27:17Z</time>
      </trkpt>
      <trkpt lat="44.07805" lon="6.26967">
        <ele>676</ele>
        <time>1990-12-06T08:27:35Z</time>
      </trkpt>
      <trkpt lat="44.07773" lon="6.26975">
        <ele>679</ele>
        <time>1990-12-06T08:27:51Z</time>
      </trkpt>
      <trkpt lat="44.07758" lon="6.27005">
        <ele>684</ele>
        <time>1990-12-06T08:28:13Z</time>
      </trkpt>
      <trkpt lat="44.07745" lon="6.27037">
        <ele>691</ele>
        <time>1990-12-06T08:28:29Z</time>
      </trkpt>
      <trkpt lat="44.07755" lon="6.27043">
        <ele>693</ele>
        <time>1990-12-06T08:28:40Z</time>
      </trkpt>
      <trkpt lat="44.0775" lon="6.27055">
        <ele>694</ele>
        <time>1990-12-06T08:28:51Z</time>
      </trkpt>
      <trkpt lat="44.0773" lon="6.27042">
        <ele>696</ele>
        <time>1990-12-06T08:29:08Z</time>
      </trkpt>
      <trkpt lat="44.07727" lon="6.27027">
        <ele>696</ele>
        <time>1990-12-06T08:29:15Z</time>
      </trkpt>
      <trkpt lat="44.07722" lon="6.2697">
        <ele>698</ele>
        <time>1990-12-06T08:29:36Z</time>
      </trkpt>
      <trkpt lat="44.07692" lon="6.26935">
        <ele>700</ele>
        <time>1990-12-06T08:29:55Z</time>
      </trkpt>
      <trkpt lat="44.0764" lon="6.26883">
        <ele>703</ele>
        <time>1990-12-06T08:30:25Z</time>
      </trkpt>
      <trkpt lat="44.07607" lon="6.26913">
        <ele>702</ele>
        <time>1990-12-06T08:30:42Z</time>
      </trkpt>
      <trkpt lat="44.07577" lon="6.26942">
        <ele>700</ele>
        <time>1990-12-06T08:30:50Z</time>
      </trkpt>
      <trkpt lat="44.07548" lon="6.26993">
        <ele>696</ele>
        <time>1990-12-06T08:30:58Z</time>
      </trkpt>
      <trkpt lat="44.07513" lon="6.27097">
        <ele>691</ele>
        <time>1990-12-06T08:31:08Z</time>
      </trkpt>
      <trkpt lat="44.07457" lon="6.27088">
        <ele>689</ele>
        <time>1990-12-06T08:31:14Z</time>
      </trkpt>
      <trkpt lat="44.07402" lon="6.27098">
        <ele>689</ele>
        <time>1990-12-06T08:31:22Z</time>
      </trkpt>
      <trkpt lat="44.0736" lon="6.27123">
        <ele>690</ele>
        <time>1990-12-06T08:31:40Z</time>
      </trkpt>
      <trkpt lat="44.07283" lon="6.27132">
        <ele>692</ele>
        <time>1990-12-06T08:32:13Z</time>
      </trkpt>
      <trkpt lat="44.0721" lon="6.27195">
        <ele>693</ele>
        <time>1990-12-06T08:32:43Z</time>
      </trkpt>
      <trkpt lat="44.07128" lon="6.27248">
        <ele>696</ele>
        <time>1990-12-06T08:33:09Z</time>
      </trkpt>
      <trkpt lat="44.07087" lon="6.2724">
        <ele>696</ele>
        <time>1990-12-06T08:33:24Z</time>
      </trkpt>
      <trkpt lat="44.07068" lon="6.27163">
        <ele>695</ele>
        <time>1990-12-06T08:33:44Z</time>
      </trkpt>
      <trkpt lat="44.07095" lon="6.27128">
        <ele>697</ele>
        <time>1990-12-06T08:34:04Z</time>
      </trkpt>
      <trkpt lat="44.07117" lon="6.27098">
        <ele>700</ele>
        <time>1990-12-06T08:34:22Z</time>
      </trkpt>
      <trkpt lat="44.07128" lon="6.27073">
        <ele>702</ele>
        <time>1990-12-06T08:34:35Z</time>
      </trkpt>
      <trkpt lat="44.07163" lon="6.27023">
        <ele>706</ele>
        <time>1990-12-06T08:35:04Z</time>
      </trkpt>
      <trkpt lat="44.07197" lon="6.26993">
        <ele>710</ele>
        <time>1990-12-06T08:35:26Z</time>
      </trkpt>
      <trkpt lat="44.07237" lon="6.26977">
        <ele>714</ele>
        <time>1990-12-06T08:35:51Z</time>
      </trkpt>
      <trkpt lat="44.07262" lon="6.26965">
        <ele>717</ele>
        <time>1990-12-06T08:36:08Z</time>
      </trkpt>
      <trkpt lat="44.0728" lon="6.26955">
        <ele>719</ele>
        <time>1990-12-06T08:36:24Z</time>
      </trkpt>
      <trkpt lat="44.07277" lon="6.26923">
        <ele>723</ele>
        <time>1990-12-06T08:36:40Z</time>
      </trkpt>
      <trkpt lat="44.073" lon="6.26912">
        <ele>726</ele>
        <time>1990-12-06T08:36:57Z</time>
      </trkpt>
      <trkpt lat="44.07317" lon="6.26922">
        <ele>728</ele>
        <time>1990-12-06T08:37:09Z</time>
      </trkpt>
      <trkpt lat="44.07347" lon="6.26912">
        <ele>731</ele>
        <time>1990-12-06T08:37:29Z</time>
      </trkpt>
      <trkpt lat="44.07377" lon="6.26892">
        <ele>735</ele>
        <time>1990-12-06T08:37:54Z</time>
      </trkpt>
      <trkpt lat="44.07412" lon="6.2687">
        <ele>738</ele>
        <time>1990-12-06T08:38:19Z</time>
      </trkpt>
      <trkpt lat="44.07448" lon="6.26838">
        <ele>743</ele>
        <time>1990-12-06T08:38:47Z</time>
      </trkpt>
      <trkpt lat="44.07462" lon="6.26792">
        <ele>748</ele>
        <time>1990-12-06T08:39:16Z</time>
      </trkpt>
      <trkpt lat="44.0746" lon="6.26767">
        <ele>749</ele>
        <time>1990-12-06T08:39:29Z</time>
      </trkpt>
      <trkpt lat="44.07447" lon="6.2672">
        <ele>753</ele>
        <time>1990-12-06T08:39:53Z</time>
      </trkpt>
      <trkpt lat="44.07443" lon="6.26697">
        <ele>755</ele>
        <time>1990-12-06T08:40:09Z</time>
      </trkpt>
      <trkpt lat="44.07473" lon="6.26705">
        <ele>759</ele>
        <time>1990-12-06T08:40:35Z</time>
      </trkpt>
      <trkpt lat="44.0749" lon="6.2671">
        <ele>761</ele>
        <time>1990-12-06T08:40:48Z</time>
      </trkpt>
      <trkpt lat="44.07512" lon="6.26692">
        <ele>764</ele>
        <time>1990-12-06T08:41:10Z</time>
      </trkpt>
      <trkpt lat="44.07528" lon="6.26678">
        <ele>767</ele>
        <time>1990-12-06T08:41:25Z</time>
      </trkpt>
      <trkpt lat="44.07548" lon="6.2667">
        <ele>770</ele>
        <time>1990-12-06T08:41:42Z</time>
      </trkpt>
      <trkpt lat="44.07545" lon="6.26648">
        <ele>775</ele>
        <time>1990-12-06T08:42:06Z</time>
      </trkpt>
      <trkpt lat="44.0752" lon="6.26657">
        <ele>778</ele>
        <time>1990-12-06T08:42:25Z</time>
      </trkpt>
      <trkpt lat="44.07502" lon="6.26665">
        <ele>780</ele>
        <time>1990-12-06T08:42:37Z</time>
      </trkpt>
      <trkpt lat="44.07485" lon="6.26645">
        <ele>784</ele>
        <time>1990-12-06T08:42:59Z</time>
      </trkpt>
      <trkpt lat="44.07515" lon="6.26637">
        <ele>787</ele>
        <time>1990-12-06T08:43:16Z</time>
      </trkpt>
      <trkpt lat="44.07532" lon="6.26578">
        <ele>788</ele>
        <time>1990-12-06T08:43:42Z</time>
      </trkpt>
      <trkpt lat="44.0753" lon="6.26563">
        <ele>788</ele>
        <time>1990-12-06T08:44:43Z</time>
      </trkpt>
      <trkpt lat="44.0747" lon="6.26482">
        <ele>784</ele>
        <time>1990-12-06T08:44:58Z</time>
      </trkpt>
      <trkpt lat="44.07433" lon="6.26427">
        <ele>787</ele>
        <time>1990-12-06T08:45:22Z</time>
      </trkpt>
      <trkpt lat="44.07405" lon="6.26385">
        <ele>791</ele>
        <time>1990-12-06T08:45:46Z</time>
      </trkpt>
      <trkpt lat="44.0738" lon="6.26347">
        <ele>794</ele>
        <time>1990-12-06T08:46:08Z</time>
      </trkpt>
      <trkpt lat="44.07363" lon="6.26308">
        <ele>797</ele>
        <time>1990-12-06T08:46:28Z</time>
      </trkpt>
      <trkpt lat="44.07358" lon="6.26295">
        <ele>798</ele>
        <time>1990-12-06T08:46:38Z</time>
      </trkpt>
      <trkpt lat="44.07342" lon="6.2627">
        <ele>801</ele>
        <time>1990-12-06T08:46:55Z</time>
      </trkpt>
      <trkpt lat="44.07323" lon="6.2623">
        <ele>805</ele>
        <time>1990-12-06T08:47:19Z</time>
      </trkpt>
      <trkpt lat="44.0729" lon="6.26182">
        <ele>809</ele>
        <time>1990-12-06T08:47:45Z</time>
      </trkpt>
      <trkpt lat="44.07262" lon="6.2612">
        <ele>814</ele>
        <time>1990-12-06T08:48:10Z</time>
      </trkpt>
      <trkpt lat="44.07248" lon="6.26088">
        <ele>817</ele>
        <time>1990-12-06T08:48:24Z</time>
      </trkpt>
      <trkpt lat="44.07222" lon="6.2602">
        <ele>823</ele>
        <time>1990-12-06T08:48:45Z</time>
      </trkpt>
      <trkpt lat="44.07208" lon="6.25943">
        <ele>829</ele>
        <time>1990-12-06T08:49:09Z</time>
      </trkpt>
      <trkpt lat="44.0718" lon="6.25867">
        <ele>835</ele>
        <time>1990-12-06T08:49:35Z</time>
      </trkpt>
      <trkpt lat="44.07158" lon="6.25833">
        <ele>836</ele>
        <time>1990-12-06T08:49:51Z</time>
      </trkpt>
      <trkpt lat="44.07122" lon="6.25763">
        <ele>839</ele>
        <time>1990-12-06T08:50:14Z</time>
      </trkpt>
      <trkpt lat="44.07093" lon="6.25678">
        <ele>844</ele>
        <time>1990-12-06T08:50:40Z</time>
      </trkpt>
      <trkpt lat="44.07097" lon="6.25658">
        <ele>848</ele>
        <time>1990-12-06T08:57:22Z</time>
      </trkpt>
      <trkpt lat="44.07095" lon="6.25645">
        <ele>848</ele>
        <time>1990-12-06T08:57:53Z</time>
      </trkpt>
      <trkpt lat="44.0711" lon="6.25672">
        <ele>841</ele>
        <time>1990-12-06T08:58:03Z</time>
      </trkpt>
      <trkpt lat="44.07123" lon="6.25687">
        <ele>838</ele>
        <time>1990-12-06T08:59:16Z</time>
      </trkpt>
      <trkpt lat="44.07118" lon="6.257">
        <ele>837</ele>
        <time>1990-12-06T09:00:47Z</time>
      </trkpt>
      <trkpt lat="44.0715" lon="6.25743">
        <ele>836</ele>
        <time>1990-12-06T09:01:03Z</time>
      </trkpt>
      <trkpt lat="44.07175" lon="6.2575">
        <ele>840</ele>
        <time>1990-12-06T09:01:20Z</time>
      </trkpt>
      <trkpt lat="44.07203" lon="6.25765">
        <ele>844</ele>
        <time>1990-12-06T09:01:40Z</time>
      </trkpt>
      <trkpt lat="44.07215" lon="6.25777">
        <ele>845</ele>
        <time>1990-12-06T09:01:50Z</time>
      </trkpt>
      <trkpt lat="44.07248" lon="6.25797">
        <ele>849</ele>
        <time>1990-12-06T09:02:16Z</time>
      </trkpt>
      <trkpt lat="44.07265" lon="6.25807">
        <ele>852</ele>
        <time>1990-12-06T09:02:30Z</time>
      </trkpt>
      <trkpt lat="44.07288" lon="6.25837">
        <ele>854</ele>
        <time>1990-12-06T09:02:54Z</time>
      </trkpt>
      <trkpt lat="44.07288" lon="6.25822">
        <ele>858</ele>
        <time>1990-12-06T09:03:36Z</time>
      </trkpt>
      <trkpt lat="44.0727" lon="6.25793">
        <ele>861</ele>
        <time>1990-12-06T09:03:53Z</time>
      </trkpt>
      <trkpt lat="44.07265" lon="6.25775">
        <ele>861</ele>
        <time>1990-12-06T09:04:08Z</time>
      </trkpt>
      <trkpt lat="44.07252" lon="6.25762">
        <ele>863</ele>
        <time>1990-12-06T09:04:24Z</time>
      </trkpt>
      <trkpt lat="44.07248" lon="6.25753">
        <ele>864</ele>
        <time>1990-12-06T09:05:23Z</time>
      </trkpt>
      <trkpt lat="44.07228" lon="6.2571">
        <ele>868</ele>
        <time>1990-12-06T09:05:42Z</time>
      </trkpt>
      <trkpt lat="44.07217" lon="6.25687">
        <ele>870</ele>
        <time>1990-12-06T09:05:54Z</time>
      </trkpt>
      <trkpt lat="44.07192" lon="6.25647">
        <ele>874</ele>
        <time>1990-12-06T09:06:10Z</time>
      </trkpt>
      <trkpt lat="44.07178" lon="6.25615">
        <ele>876</ele>
        <time>1990-12-06T09:06:27Z</time>
      </trkpt>
      <trkpt lat="44.07177" lon="6.25608">
        <ele>876</ele>
        <time>1990-12-06T09:07:18Z</time>
      </trkpt>
      <trkpt lat="44.07157" lon="6.25573">
        <ele>880</ele>
        <time>1990-12-06T09:07:53Z</time>
      </trkpt>
      <trkpt lat="44.07158" lon="6.25535">
        <ele>884</ele>
        <time>1990-12-06T09:08:15Z</time>
      </trkpt>
      <trkpt lat="44.07147" lon="6.25508">
        <ele>886</ele>
        <time>1990-12-06T09:08:30Z</time>
      </trkpt>
      <trkpt lat="44.07137" lon="6.25473">
        <ele>890</ele>
        <time>1990-12-06T09:08:48Z</time>
      </trkpt>
      <trkpt lat="44.07132" lon="6.25455">
        <ele>891</ele>
        <time>1990-12-06T09:08:56Z</time>
      </trkpt>
      <trkpt lat="44.07127" lon="6.25447">
        <ele>891</ele>
        <time>1990-12-06T09:09:01Z</time>
      </trkpt>
      <trkpt lat="44.07128" lon="6.25433">
        <ele>893</ele>
        <time>1990-12-06T09:09:10Z</time>
      </trkpt>
      <trkpt lat="44.0712" lon="6.25388">
        <ele>896</ele>
        <time>1990-12-06T09:09:27Z</time>
      </trkpt>
      <trkpt lat="44.07117" lon="6.25378">
        <ele>897</ele>
        <time>1990-12-06T09:09:33Z</time>
      </trkpt>
      <trkpt lat="44.07105" lon="6.2535">
        <ele>899</ele>
        <time>1990-12-06T09:09:47Z</time>
      </trkpt>
      <trkpt lat="44.07088" lon="6.2532">
        <ele>901</ele>
        <time>1990-12-06T09:10:04Z</time>
      </trkpt>
      <trkpt lat="44.07077" lon="6.2529">
        <ele>904</ele>
        <time>1990-12-06T09:10:24Z</time>
      </trkpt>
      <trkpt lat="44.07082" lon="6.25242">
        <ele>909</ele>
        <time>1990-12-06T09:10:56Z</time>
      </trkpt>
      <trkpt lat="44.07075" lon="6.25215">
        <ele>911</ele>
        <time>1990-12-06T09:11:13Z</time>
      </trkpt>
      <trkpt lat="44.07052" lon="6.25217">
        <ele>914</ele>
        <time>1990-12-06T09:11:34Z</time>
      </trkpt>
      <trkpt lat="44.07045" lon="6.25213">
        <ele>914</ele>
        <time>1990-12-06T09:12:27Z</time>
      </trkpt>
      <trkpt lat="44.0704" lon="6.25185">
        <ele>916</ele>
        <time>1990-12-06T09:12:43Z</time>
      </trkpt>
      <trkpt lat="44.07027" lon="6.25143">
        <ele>920</ele>
        <time>1990-12-06T09:13:08Z</time>
      </trkpt>
      <trkpt lat="44.07025" lon="6.25132">
        <ele>921</ele>
        <time>1990-12-06T09:13:15Z</time>
      </trkpt>
      <trkpt lat="44.07007" lon="6.25113">
        <ele>923</ele>
        <time>1990-12-06T09:13:32Z</time>
      </trkpt>
      <trkpt lat="44.06987" lon="6.25088">
        <ele>925</ele>
        <time>1990-12-06T09:14:03Z</time>
      </trkpt>
      <trkpt lat="44.06962" lon="6.25068">
        <ele>928</ele>
        <time>1990-12-06T09:14:52Z</time>
      </trkpt>
      <trkpt lat="44.06943" lon="6.25063">
        <ele>931</ele>
        <time>1990-12-06T09:15:03Z</time>
      </trkpt>
      <trkpt lat="44.06912" lon="6.25048">
        <ele>935</ele>
        <time>1990-12-06T09:15:32Z</time>
      </trkpt>
      <trkpt lat="44.06892" lon="6.25047">
        <ele>936</ele>
        <time>1990-12-06T09:15:50Z</time>
      </trkpt>
      <trkpt lat="44.06908" lon="6.25047">
        <ele>941</ele>
        <time>1990-12-06T09:18:32Z</time>
      </trkpt>
      <trkpt lat="44.06948" lon="6.2504">
        <ele>946</ele>
        <time>1990-12-06T09:19:09Z</time>
      </trkpt>
      <trkpt lat="44.06927" lon="6.25023">
        <ele>948</ele>
        <time>1990-12-06T09:19:36Z</time>
      </trkpt>
      <trkpt lat="44.06892" lon="6.2502">
        <ele>952</ele>
        <time>1990-12-06T09:19:56Z</time>
      </trkpt>
      <trkpt lat="44.0687" lon="6.25012">
        <ele>956</ele>
        <time>1990-12-06T09:20:12Z</time>
      </trkpt>
      <trkpt lat="44.06845" lon="6.25017">
        <ele>958</ele>
        <time>1990-12-06T09:20:38Z</time>
      </trkpt>
      <trkpt lat="44.06813" lon="6.25032">
        <ele>960</ele>
        <time>1990-12-06T09:21:41Z</time>
      </trkpt>
      <trkpt lat="44.06805" lon="6.25003">
        <ele>963</ele>
        <time>1990-12-06T09:21:58Z</time>
      </trkpt>
      <trkpt lat="44.06802" lon="6.24977">
        <ele>965</ele>
        <time>1990-12-06T09:22:09Z</time>
      </trkpt>
      <trkpt lat="44.06803" lon="6.24958">
        <ele>966</ele>
        <time>1990-12-06T09:22:17Z</time>
      </trkpt>
      <trkpt lat="44.0679" lon="6.24918">
        <ele>969</ele>
        <time>1990-12-06T09:22:36Z</time>
      </trkpt>
      <trkpt lat="44.06768" lon="6.2491">
        <ele>970</ele>
        <time>1990-12-06T09:22:50Z</time>
      </trkpt>
      <trkpt lat="44.06757" lon="6.2488">
        <ele>972</ele>
        <time>1990-12-06T09:23:08Z</time>
      </trkpt>
      <trkpt lat="44.06752" lon="6.24852">
        <ele>975</ele>
        <time>1990-12-06T09:23:31Z</time>
      </trkpt>
      <trkpt lat="44.06757" lon="6.24823">
        <ele>976</ele>
        <time>1990-12-06T09:24:21Z</time>
      </trkpt>
      <trkpt lat="44.06755" lon="6.24807">
        <ele>977</ele>
        <time>1990-12-06T09:25:05Z</time>
      </trkpt>
      <trkpt lat="44.06757" lon="6.24798">
        <ele>978</ele>
        <time>1990-12-06T09:25:12Z</time>
      </trkpt>
      <trkpt lat="44.0671" lon="6.24817">
        <ele>983</ele>
        <time>1990-12-06T09:25:34Z</time>
      </trkpt>
      <trkpt lat="44.06698" lon="6.24825">
        <ele>983</ele>
        <time>1990-12-06T09:25:40Z</time>
      </trkpt>
      <trkpt lat="44.0668" lon="6.24785">
        <ele>987</ele>
        <time>1990-12-06T09:25:59Z</time>
      </trkpt>
      <trkpt lat="44.06667" lon="6.24768">
        <ele>988</ele>
        <time>1990-12-06T09:26:08Z</time>
      </trkpt>
      <trkpt lat="44.06655" lon="6.2476">
        <ele>990</ele>
        <time>1990-12-06T09:26:29Z</time>
      </trkpt>
      <trkpt lat="44.06668" lon="6.24747">
        <ele>993</ele>
        <time>1990-12-06T09:26:56Z</time>
      </trkpt>
      <trkpt lat="44.06695" lon="6.24763">
        <ele>996</ele>
        <time>1990-12-06T09:27:17Z</time>
      </trkpt>
      <trkpt lat="44.067" lon="6.2477">
        <ele>997</ele>
        <time>1990-12-06T09:27:21Z</time>
      </trkpt>
      <trkpt lat="44.06712" lon="6.24773">
        <ele>998</ele>
        <time>1990-12-06T09:27:31Z</time>
      </trkpt>
      <trkpt lat="44.06723" lon="6.24765">
        <ele>1001</ele>
        <time>1990-12-06T09:28:31Z</time>
      </trkpt>
      <trkpt lat="44.06703" lon="6.24748">
        <ele>1005</ele>
        <time>1990-12-06T09:28:45Z</time>
      </trkpt>
      <trkpt lat="44.06678" lon="6.24717">
        <ele>1010</ele>
        <time>1990-12-06T09:29:12Z</time>
      </trkpt>
      <trkpt lat="44.0667" lon="6.24707">
        <ele>1012</ele>
        <time>1990-12-06T09:29:17Z</time>
      </trkpt>
      <trkpt lat="44.0668" lon="6.24698">
        <ele>1018</ele>
        <time>1990-12-06T09:29:46Z</time>
      </trkpt>
      <trkpt lat="44.06693" lon="6.24697">
        <ele>1021</ele>
        <time>1990-12-06T09:29:52Z</time>
      </trkpt>
      <trkpt lat="44.0668" lon="6.2468">
        <ele>1023</ele>
        <time>1990-12-06T09:32:20Z</time>
      </trkpt>
      <trkpt lat="44.06663" lon="6.2467">
        <ele>1025</ele>
        <time>1990-12-06T09:32:34Z</time>
      </trkpt>
      <trkpt lat="44.06658" lon="6.2464">
        <ele>1027</ele>
        <time>1990-12-06T09:32:48Z</time>
      </trkpt>
      <trkpt lat="44.06627" lon="6.24625">
        <ele>1031</ele>
        <time>1990-12-06T09:33:11Z</time>
      </trkpt>
      <trkpt lat="44.06612" lon="6.24613">
        <ele>1032</ele>
        <time>1990-12-06T09:33:22Z</time>
      </trkpt>
      <trkpt lat="44.06607" lon="6.24603">
        <ele>1033</ele>
        <time>1990-12-06T09:33:29Z</time>
      </trkpt>
      <trkpt lat="44.06583" lon="6.24595">
        <ele>1035</ele>
        <time>1990-12-06T09:33:47Z</time>
      </trkpt>
      <trkpt lat="44.0657" lon="6.2459">
        <ele>1038</ele>
        <time>1990-12-06T09:34:14Z</time>
      </trkpt>
      <trkpt lat="44.06587" lon="6.24585">
        <ele>1040</ele>
        <time>1990-12-06T09:34:38Z</time>
      </trkpt>
      <trkpt lat="44.06603" lon="6.24585">
        <ele>1041</ele>
        <time>1990-12-06T09:34:51Z</time>
      </trkpt>
      <trkpt lat="44.06647" lon="6.246">
        <ele>1046</ele>
        <time>1990-12-06T09:35:23Z</time>
      </trkpt>
      <trkpt lat="44.06678" lon="6.24607">
        <ele>1049</ele>
        <time>1990-12-06T09:35:46Z</time>
      </trkpt>
      <trkpt lat="44.06693" lon="6.24615">
        <ele>1050</ele>
        <time>1990-12-06T09:35:58Z</time>
      </trkpt>
      <trkpt lat="44.0673" lon="6.24635">
        <ele>1054</ele>
        <time>1990-12-06T09:36:27Z</time>
      </trkpt>
      <trkpt lat="44.06745" lon="6.24643">
        <ele>1057</ele>
        <time>1990-12-06T09:37:06Z</time>
      </trkpt>
      <trkpt lat="44.06755" lon="6.24643">
        <ele>1062</ele>
        <time>1990-12-06T09:37:41Z</time>
      </trkpt>
      <trkpt lat="44.06758" lon="6.24622">
        <ele>1066</ele>
        <time>1990-12-06T09:38:21Z</time>
      </trkpt>
      <trkpt lat="44.06755" lon="6.24608">
        <ele>1070</ele>
        <time>1990-12-06T09:38:50Z</time>
      </trkpt>
      <trkpt lat="44.06775" lon="6.2459">
        <ele>1074</ele>
        <time>1990-12-06T09:39:07Z</time>
      </trkpt>
      <trkpt lat="44.06772" lon="6.24577">
        <ele>1077</ele>
        <time>1990-12-06T09:39:15Z</time>
      </trkpt>
      <trkpt lat="44.06773" lon="6.24567">
        <ele>1077</ele>
        <time>1990-12-06T09:39:22Z</time>
      </trkpt>
      <trkpt lat="44.06768" lon="6.24572">
        <ele>1076</ele>
        <time>1990-12-06T09:40:07Z</time>
      </trkpt>
      <trkpt lat="44.0677" lon="6.24568">
        <ele>1080</ele>
        <time>1990-12-06T09:48:49Z</time>
      </trkpt>
      <trkpt lat="44.06702" lon="6.24525">
        <ele>1080</ele>
        <time>1990-12-06T09:49:15Z</time>
      </trkpt>
      <trkpt lat="44.06608" lon="6.2446">
        <ele>1081</ele>
        <time>1990-12-06T09:49:43Z</time>
      </trkpt>
      <trkpt lat="44.06543" lon="6.2446">
        <ele>1080</ele>
        <time>1990-12-06T09:50:10Z</time>
      </trkpt>
      <trkpt lat="44.06502" lon="6.24468">
        <ele>1081</ele>
        <time>1990-12-06T09:50:50Z</time>
      </trkpt>
      <trkpt lat="44.0645" lon="6.2446">
        <ele>1082</ele>
        <time>1990-12-06T09:51:11Z</time>
      </trkpt>
      <trkpt lat="44.06413" lon="6.24448">
        <ele>1082</ele>
        <time>1990-12-06T09:51:39Z</time>
      </trkpt>
      <trkpt lat="44.06353" lon="6.24463">
        <ele>1081</ele>
        <time>1990-12-06T09:51:54Z</time>
      </trkpt>
      <trkpt lat="44.06322" lon="6.24477">
        <ele>1080</ele>
        <time>1990-12-06T09:52:01Z</time>
      </trkpt>
      <trkpt lat="44.0628" lon="6.24502">
        <ele>1079</ele>
        <time>1990-12-06T09:52:09Z</time>
      </trkpt>
      <trkpt lat="44.06225" lon="6.24508">
        <ele>1077</ele>
        <time>1990-12-06T09:52:22Z</time>
      </trkpt>
      <trkpt lat="44.06185" lon="6.24507">
        <ele>1075</ele>
        <time>1990-12-06T09:52:35Z</time>
      </trkpt>
      <trkpt lat="44.06133" lon="6.24503">
        <ele>1072</ele>
        <time>1990-12-06T09:52:49Z</time>
      </trkpt>
      <trkpt lat="44.06088" lon="6.24507">
        <ele>1071</ele>
        <time>1990-12-06T09:53:01Z</time>
      </trkpt>
      <trkpt lat="44.06065" lon="6.24508">
        <ele>1070</ele>
        <time>1990-12-06T09:53:09Z</time>
      </trkpt>
      <trkpt lat="44.06045" lon="6.24532">
        <ele>1069</ele>
        <time>1990-12-06T09:53:16Z</time>
      </trkpt>
      <trkpt lat="44.05998" lon="6.24573">
        <ele>1068</ele>
        <time>1990-12-06T09:53:35Z</time>
      </trkpt>
      <trkpt lat="44.05997" lon="6.24593">
        <ele>1066</ele>
        <time>1990-12-06T09:56:44Z</time>
      </trkpt>
      <trkpt lat="44.05982" lon="6.24627">
        <ele>1065</ele>
        <time>1990-12-06T09:57:01Z</time>
      </trkpt>
      <trkpt lat="44.05962" lon="6.24655">
        <ele>1063</ele>
        <time>1990-12-06T09:59:02Z</time>
      </trkpt>
      <trkpt lat="44.05928" lon="6.24705">
        <ele>1060</ele>
        <time>1990-12-06T09:59:19Z</time>
      </trkpt>
      <trkpt lat="44.05903" lon="6.24738">
        <ele>1060</ele>
        <time>1990-12-06T09:59:35Z</time>
      </trkpt>
      <trkpt lat="44.05892" lon="6.24802">
        <ele>1057</ele>
        <time>1990-12-06T09:59:53Z</time>
      </trkpt>
      <trkpt lat="44.05867" lon="6.2483">
        <ele>1056</ele>
        <time>1990-12-06T09:59:59Z</time>
      </trkpt>
      <trkpt lat="44.05838" lon="6.24847">
        <ele>1054</ele>
        <time>1990-12-06T10:00:05Z</time>
      </trkpt>
      <trkpt lat="44.05808" lon="6.24867">
        <ele>1052</ele>
        <time>1990-12-06T10:00:11Z</time>
      </trkpt>
      <trkpt lat="44.05782" lon="6.24897">
        <ele>1051</ele>
        <time>1990-12-06T10:00:17Z</time>
      </trkpt>
      <trkpt lat="44.05763" lon="6.24943">
        <ele>1048</ele>
        <time>1990-12-06T10:00:26Z</time>
      </trkpt>
      <trkpt lat="44.05753" lon="6.24977">
        <ele>1049</ele>
        <time>1990-12-06T10:00:38Z</time>
      </trkpt>
      <trkpt lat="44.05733" lon="6.24993">
        <ele>1051</ele>
        <time>1990-12-06T10:00:51Z</time>
      </trkpt>
      <trkpt lat="44.05712" lon="6.25007">
        <ele>1055</ele>
        <time>1990-12-06T10:01:08Z</time>
      </trkpt>
      <trkpt lat="44.05702" lon="6.25013">
        <ele>1057</ele>
        <time>1990-12-06T10:01:32Z</time>
      </trkpt>
      <trkpt lat="44.05675" lon="6.25037">
        <ele>1062</ele>
        <time>1990-12-06T10:03:57Z</time>
      </trkpt>
      <trkpt lat="44.05632" lon="6.2506">
        <ele>1068</ele>
        <time>1990-12-06T10:04:17Z</time>
      </trkpt>
      <trkpt lat="44.05603" lon="6.25065">
        <ele>1072</ele>
        <time>1990-12-06T10:04:29Z</time>
      </trkpt>
      <trkpt lat="44.0559" lon="6.25063">
        <ele>1073</ele>
        <time>1990-12-06T10:04:38Z</time>
      </trkpt>
      <trkpt lat="44.05542" lon="6.25042">
        <ele>1079</ele>
        <time>1990-12-06T10:05:04Z</time>
      </trkpt>
      <trkpt lat="44.05498" lon="6.25037">
        <ele>1085</ele>
        <time>1990-12-06T10:05:28Z</time>
      </trkpt>
      <trkpt lat="44.05448" lon="6.25042">
        <ele>1091</ele>
        <time>1990-12-06T10:05:52Z</time>
      </trkpt>
      <trkpt lat="44.05397" lon="6.25038">
        <ele>1097</ele>
        <time>1990-12-06T10:06:19Z</time>
      </trkpt>
      <trkpt lat="44.05348" lon="6.25047">
        <ele>1104</ele>
        <time>1990-12-06T10:06:41Z</time>
      </trkpt>
      <trkpt lat="44.05307" lon="6.25053">
        <ele>1110</ele>
        <time>1990-12-06T10:07:01Z</time>
      </trkpt>
      <trkpt lat="44.05262" lon="6.25045">
        <ele>1116</ele>
        <time>1990-12-06T10:07:24Z</time>
      </trkpt>
      <trkpt lat="44.05223" lon="6.25047">
        <ele>1122</ele>
        <time>1990-12-06T10:07:50Z</time>
      </trkpt>
      <trkpt lat="44.05185" lon="6.25037">
        <ele>1126</ele>
        <time>1990-12-06T10:08:14Z</time>
      </trkpt>
      <trkpt lat="44.05172" lon="6.25033">
        <ele>1128</ele>
        <time>1990-12-06T10:08:22Z</time>
      </trkpt>
      <trkpt lat="44.05135" lon="6.25022">
        <ele>1133</ele>
        <time>1990-12-06T10:08:46Z</time>
      </trkpt>
      <trkpt lat="44.0511" lon="6.25002">
        <ele>1137</ele>
        <time>1990-12-06T10:09:00Z</time>
      </trkpt>
      <trkpt lat="44.05083" lon="6.24992">
        <ele>1142</ele>
        <time>1990-12-06T10:09:15Z</time>
      </trkpt>
      <trkpt lat="44.0505" lon="6.24952">
        <ele>1148</ele>
        <time>1990-12-06T10:09:37Z</time>
      </trkpt>
      <trkpt lat="44.05042" lon="6.24932">
        <ele>1149</ele>
        <time>1990-12-06T10:09:53Z</time>
      </trkpt>
      <trkpt lat="44.0504" lon="6.24928">
        <ele>1150</ele>
        <time>1990-12-06T10:10:13Z</time>
      </trkpt>
      <trkpt lat="44.05035" lon="6.24952">
        <ele>1152</ele>
        <time>1990-12-06T10:10:20Z</time>
      </trkpt>
      <trkpt lat="44.0504" lon="6.24993">
        <ele>1155</ele>
        <time>1990-12-06T10:10:37Z</time>
      </trkpt>
      <trkpt lat="44.05047" lon="6.2501">
        <ele>1156</ele>
        <time>1990-12-06T10:10:43Z</time>
      </trkpt>
      <trkpt lat="44.05062" lon="6.25038">
        <ele>1159</ele>
        <time>1990-12-06T10:11:03Z</time>
      </trkpt>
      <trkpt lat="44.05078" lon="6.25082">
        <ele>1165</ele>
        <time>1990-12-06T10:11:27Z</time>
      </trkpt>
      <trkpt lat="44.05092" lon="6.2511">
        <ele>1168</ele>
        <time>1990-12-06T10:11:40Z</time>
      </trkpt>
      <trkpt lat="44.05118" lon="6.25147">
        <ele>1174</ele>
        <time>1990-12-06T10:12:03Z</time>
      </trkpt>
      <trkpt lat="44.05135" lon="6.25155">
        <ele>1177</ele>
        <time>1990-12-06T10:12:24Z</time>
      </trkpt>
      <trkpt lat="44.05153" lon="6.2517">
        <ele>1180</ele>
        <time>1990-12-06T10:12:41Z</time>
      </trkpt>
      <trkpt lat="44.05177" lon="6.25175">
        <ele>1182</ele>
        <time>1990-12-06T10:12:52Z</time>
      </trkpt>
      <trkpt lat="44.05222" lon="6.25165">
        <ele>1184</ele>
        <time>1990-12-06T10:13:18Z</time>
      </trkpt>
      <trkpt lat="44.05247" lon="6.25172">
        <ele>1186</ele>
        <time>1990-12-06T10:13:55Z</time>
      </trkpt>
      <trkpt lat="44.05268" lon="6.25193">
        <ele>1190</ele>
        <time>1990-12-06T10:14:16Z</time>
      </trkpt>
      <trkpt lat="44.05282" lon="6.25205">
        <ele>1195</ele>
        <time>1990-12-06T10:14:25Z</time>
      </trkpt>
      <trkpt lat="44.05308" lon="6.25225">
        <ele>1201</ele>
        <time>1990-12-06T10:14:45Z</time>
      </trkpt>
      <trkpt lat="44.05337" lon="6.25248">
        <ele>1206</ele>
        <time>1990-12-06T10:15:06Z</time>
      </trkpt>
      <trkpt lat="44.0535" lon="6.25257">
        <ele>1207</ele>
        <time>1990-12-06T10:15:14Z</time>
      </trkpt>
      <trkpt lat="44.0536" lon="6.25273">
        <ele>1209</ele>
        <time>1990-12-06T10:15:36Z</time>
      </trkpt>
      <trkpt lat="44.05355" lon="6.25275">
        <ele>1212</ele>
        <time>1990-12-06T10:25:26Z</time>
      </trkpt>
      <trkpt lat="44.05363" lon="6.25297">
        <ele>1209</ele>
        <time>1990-12-06T10:32:50Z</time>
      </trkpt>
      <trkpt lat="44.054" lon="6.25313">
        <ele>1206</ele>
        <time>1990-12-06T10:33:05Z</time>
      </trkpt>
      <trkpt lat="44.05438" lon="6.25333">
        <ele>1199</ele>
        <time>1990-12-06T10:33:25Z</time>
      </trkpt>
      <trkpt lat="44.0545" lon="6.2534">
        <ele>1197</ele>
        <time>1990-12-06T10:33:41Z</time>
      </trkpt>
      <trkpt lat="44.05473" lon="6.25355">
        <ele>1192</ele>
        <time>1990-12-06T10:33:54Z</time>
      </trkpt>
      <trkpt lat="44.055" lon="6.25373">
        <ele>1188</ele>
        <time>1990-12-06T10:34:08Z</time>
      </trkpt>
      <trkpt lat="44.05503" lon="6.25373">
        <ele>1186</ele>
        <time>1990-12-06T10:34:46Z</time>
      </trkpt>
      <trkpt lat="44.05483" lon="6.25377">
        <ele>1182</ele>
        <time>1990-12-06T10:38:04Z</time>
      </trkpt>
      <trkpt lat="44.05468" lon="6.25377">
        <ele>1179</ele>
        <time>1990-12-06T10:38:10Z</time>
      </trkpt>
      <trkpt lat="44.0544" lon="6.25383">
        <ele>1174</ele>
        <time>1990-12-06T10:38:23Z</time>
      </trkpt>
      <trkpt lat="44.0542" lon="6.2539">
        <ele>1171</ele>
        <time>1990-12-06T10:38:33Z</time>
      </trkpt>
      <trkpt lat="44.05405" lon="6.25393">
        <ele>1166</ele>
        <time>1990-12-06T10:38:50Z</time>
      </trkpt>
      <trkpt lat="44.05373" lon="6.25405">
        <ele>1159</ele>
        <time>1990-12-06T10:39:06Z</time>
      </trkpt>
      <trkpt lat="44.05353" lon="6.25418">
        <ele>1154</ele>
        <time>1990-12-06T10:39:16Z</time>
      </trkpt>
      <trkpt lat="44.05333" lon="6.2543">
        <ele>1150</ele>
        <time>1990-12-06T10:39:26Z</time>
      </trkpt>
      <trkpt lat="44.05315" lon="6.25433">
        <ele>1145</ele>
        <time>1990-12-06T10:39:35Z</time>
      </trkpt>
      <trkpt lat="44.053" lon="6.25433">
        <ele>1142</ele>
        <time>1990-12-06T10:39:49Z</time>
      </trkpt>
      <trkpt lat="44.05277" lon="6.25445">
        <ele>1136</ele>
        <time>1990-12-06T10:40:15Z</time>
      </trkpt>
      <trkpt lat="44.05257" lon="6.25453">
        <ele>1132</ele>
        <time>1990-12-06T10:40:23Z</time>
      </trkpt>
      <trkpt lat="44.05248" lon="6.25457">
        <ele>1130</ele>
        <time>1990-12-06T10:40:27Z</time>
      </trkpt>
      <trkpt lat="44.05233" lon="6.25465">
        <ele>1126</ele>
        <time>1990-12-06T10:40:34Z</time>
      </trkpt>
      <trkpt lat="44.05218" lon="6.25477">
        <ele>1123</ele>
        <time>1990-12-06T10:40:42Z</time>
      </trkpt>
      <trkpt lat="44.05193" lon="6.255">
        <ele>1116</ele>
        <time>1990-12-06T10:40:55Z</time>
      </trkpt>
      <trkpt lat="44.05168" lon="6.25522">
        <ele>1109</ele>
        <time>1990-12-06T10:41:05Z</time>
      </trkpt>
      <trkpt lat="44.05158" lon="6.25523">
        <ele>1108</ele>
        <time>1990-12-06T10:41:09Z</time>
      </trkpt>
      <trkpt lat="44.0514" lon="6.25532">
        <ele>1103</ele>
        <time>1990-12-06T10:41:17Z</time>
      </trkpt>
      <trkpt lat="44.05113" lon="6.25547">
        <ele>1097</ele>
        <time>1990-12-06T10:41:29Z</time>
      </trkpt>
      <trkpt lat="44.05082" lon="6.25563">
        <ele>1090</ele>
        <time>1990-12-06T10:41:39Z</time>
      </trkpt>
      <trkpt lat="44.05062" lon="6.25572">
        <ele>1087</ele>
        <time>1990-12-06T10:41:45Z</time>
      </trkpt>
      <trkpt lat="44.05025" lon="6.25598">
        <ele>1080</ele>
        <time>1990-12-06T10:41:57Z</time>
      </trkpt>
      <trkpt lat="44.05008" lon="6.25608">
        <ele>1076</ele>
        <time>1990-12-06T10:42:03Z</time>
      </trkpt>
      <trkpt lat="44.04993" lon="6.25615">
        <ele>1074</ele>
        <time>1990-12-06T10:42:08Z</time>
      </trkpt>
      <trkpt lat="44.04973" lon="6.2563">
        <ele>1071</ele>
        <time>1990-12-06T10:43:39Z</time>
      </trkpt>
      <trkpt lat="44.04957" lon="6.25655">
        <ele>1067</ele>
        <time>1990-12-06T10:43:46Z</time>
      </trkpt>
      <trkpt lat="44.04942" lon="6.25677">
        <ele>1062</ele>
        <time>1990-12-06T10:43:54Z</time>
      </trkpt>
      <trkpt lat="44.04923" lon="6.25712">
        <ele>1060</ele>
        <time>1990-12-06T10:44:00Z</time>
      </trkpt>
      <trkpt lat="44.0485" lon="6.25785">
        <ele>1057</ele>
        <time>1990-12-06T10:44:17Z</time>
      </trkpt>
      <trkpt lat="44.04847" lon="6.25792">
        <ele>1056</ele>
        <time>1990-12-06T10:45:10Z</time>
      </trkpt>
      <trkpt lat="44.04832" lon="6.25807">
        <ele>1054</ele>
        <time>1990-12-06T10:45:19Z</time>
      </trkpt>
      <trkpt lat="44.04828" lon="6.25868">
        <ele>1049</ele>
        <time>1990-12-06T10:45:30Z</time>
      </trkpt>
      <trkpt lat="44.04812" lon="6.25913">
        <ele>1043</ele>
        <time>1990-12-06T10:45:37Z</time>
      </trkpt>
      <trkpt lat="44.04787" lon="6.2595">
        <ele>1036</ele>
        <time>1990-12-06T10:45:43Z</time>
      </trkpt>
      <trkpt lat="44.04755" lon="6.2597">
        <ele>1035</ele>
        <time>1990-12-06T10:45:48Z</time>
      </trkpt>
      <trkpt lat="44.04702" lon="6.25995">
        <ele>1032</ele>
        <time>1990-12-06T10:45:59Z</time>
      </trkpt>
      <trkpt lat="44.04683" lon="6.26038">
        <ele>1025</ele>
        <time>1990-12-06T10:46:05Z</time>
      </trkpt>
      <trkpt lat="44.04653" lon="6.2605">
        <ele>1022</ele>
        <time>1990-12-06T10:46:10Z</time>
      </trkpt>
      <trkpt lat="44.04612" lon="6.26048">
        <ele>1015</ele>
        <time>1990-12-06T10:46:17Z</time>
      </trkpt>
      <trkpt lat="44.04592" lon="6.26067">
        <ele>1008</ele>
        <time>1990-12-06T10:46:28Z</time>
      </trkpt>
      <trkpt lat="44.04612" lon="6.26097">
        <ele>1003</ele>
        <time>1990-12-06T10:46:33Z</time>
      </trkpt>
      <trkpt lat="44.04628" lon="6.2616">
        <ele>998</ele>
        <time>1990-12-06T10:46:41Z</time>
      </trkpt>
      <trkpt lat="44.0462" lon="6.26193">
        <ele>994</ele>
        <time>1990-12-06T10:46:47Z</time>
      </trkpt>
      <trkpt lat="44.0461" lon="6.26233">
        <ele>986</ele>
        <time>1990-12-06T10:46:54Z</time>
      </trkpt>
      <trkpt lat="44.046" lon="6.2629">
        <ele>978</ele>
        <time>1990-12-06T10:47:03Z</time>
      </trkpt>
      <trkpt lat="44.04597" lon="6.26305">
        <ele>976</ele>
        <time>1990-12-06T10:47:06Z</time>
      </trkpt>
      <trkpt lat="44.04582" lon="6.26335">
        <ele>972</ele>
        <time>1990-12-06T10:47:13Z</time>
      </trkpt>
      <trkpt lat="44.04577" lon="6.26425">
        <ele>971</ele>
        <time>1990-12-06T10:47:24Z</time>
      </trkpt>
      <trkpt lat="44.0456" lon="6.26482">
        <ele>972</ele>
        <time>1990-12-06T10:47:34Z</time>
      </trkpt>
      <trkpt lat="44.04563" lon="6.26543">
        <ele>973</ele>
        <time>1990-12-06T10:47:51Z</time>
      </trkpt>
      <trkpt lat="44.04543" lon="6.26505">
        <ele>975</ele>
        <time>1990-12-06T10:48:04Z</time>
      </trkpt>
      <trkpt lat="44.04545" lon="6.26502">
        <ele>975</ele>
        <time>1990-12-06T10:48:32Z</time>
      </trkpt>
      <trkpt lat="44.04558" lon="6.26542">
        <ele>973</ele>
        <time>1990-12-06T10:48:41Z</time>
      </trkpt>
      <trkpt lat="44.0458" lon="6.26607">
        <ele>973</ele>
        <time>1990-12-06T10:48:56Z</time>
      </trkpt>
      <trkpt lat="44.04568" lon="6.26583">
        <ele>973</ele>
        <time>1990-12-06T10:51:24Z</time>
      </trkpt>
      <trkpt lat="44.04555" lon="6.26578">
        <ele>972</ele>
        <time>1990-12-06T10:52:39Z</time>
      </trkpt>
      <trkpt lat="44.04478" lon="6.26607">
        <ele>969</ele>
        <time>1990-12-06T10:52:54Z</time>
      </trkpt>
      <trkpt lat="44.04438" lon="6.26663">
        <ele>970</ele>
        <time>1990-12-06T10:53:06Z</time>
      </trkpt>
      <trkpt lat="44.04407" lon="6.26737">
        <ele>972</ele>
        <time>1990-12-06T10:53:21Z</time>
      </trkpt>
      <trkpt lat="44.04362" lon="6.26798">
        <ele>976</ele>
        <time>1990-12-06T10:53:41Z</time>
      </trkpt>
      <trkpt lat="44.04335" lon="6.26837">
        <ele>979</ele>
        <time>1990-12-06T10:53:58Z</time>
      </trkpt>
      <trkpt lat="44.04322" lon="6.2689">
        <ele>974</ele>
        <time>1990-12-06T10:54:17Z</time>
      </trkpt>
      <trkpt lat="44.0432" lon="6.26898">
        <ele>973</ele>
        <time>1990-12-06T10:54:20Z</time>
      </trkpt>
      <trkpt lat="44.04322" lon="6.26942">
        <ele>969</ele>
        <time>1990-12-06T10:54:28Z</time>
      </trkpt>
      <trkpt lat="44.04295" lon="6.27038">
        <ele>968</ele>
        <time>1990-12-06T10:54:49Z</time>
      </trkpt>
      <trkpt lat="44.04273" lon="6.27077">
        <ele>970</ele>
        <time>1990-12-06T10:55:01Z</time>
      </trkpt>
      <trkpt lat="44.04263" lon="6.27135">
        <ele>967</ele>
        <time>1990-12-06T10:55:16Z</time>
      </trkpt>
      <trkpt lat="44.04275" lon="6.27173">
        <ele>966</ele>
        <time>1990-12-06T10:55:31Z</time>
      </trkpt>
      <trkpt lat="44.04265" lon="6.27192">
        <ele>972</ele>
        <time>1990-12-06T10:56:03Z</time>
      </trkpt>
      <trkpt lat="44.04247" lon="6.27205">
        <ele>977</ele>
        <time>1990-12-06T10:56:30Z</time>
      </trkpt>
      <trkpt lat="44.04227" lon="6.2722">
        <ele>982</ele>
        <time>1990-12-06T10:56:51Z</time>
      </trkpt>
      <trkpt lat="44.04225" lon="6.27225">
        <ele>983</ele>
        <time>1990-12-06T10:57:13Z</time>
      </trkpt>
      <trkpt lat="44.04233" lon="6.27238">
        <ele>987</ele>
        <time>1990-12-06T11:00:07Z</time>
      </trkpt>
      <trkpt lat="44.04242" lon="6.27257">
        <ele>992</ele>
        <time>1990-12-06T11:00:36Z</time>
      </trkpt>
      <trkpt lat="44.04238" lon="6.27285">
        <ele>995</ele>
        <time>1990-12-06T11:01:11Z</time>
      </trkpt>
      <trkpt lat="44.04223" lon="6.27347">
        <ele>998</ele>
        <time>1990-12-06T11:01:53Z</time>
      </trkpt>
      <trkpt lat="44.0422" lon="6.27383">
        <ele>1000</ele>
        <time>1990-12-06T11:02:09Z</time>
      </trkpt>
      <trkpt lat="44.04212" lon="6.27467">
        <ele>1001</ele>
        <time>1990-12-06T11:02:37Z</time>
      </trkpt>
      <trkpt lat="44.04202" lon="6.27542">
        <ele>999</ele>
        <time>1990-12-06T11:03:02Z</time>
      </trkpt>
      <trkpt lat="44.04175" lon="6.27607">
        <ele>998</ele>
        <time>1990-12-06T11:03:22Z</time>
      </trkpt>
      <trkpt lat="44.04148" lon="6.2769">
        <ele>992</ele>
        <time>1990-12-06T11:03:36Z</time>
      </trkpt>
      <trkpt lat="44.04128" lon="6.27713">
        <ele>992</ele>
        <time>1990-12-06T11:03:48Z</time>
      </trkpt>
      <trkpt lat="44.04108" lon="6.27735">
        <ele>993</ele>
        <time>1990-12-06T11:04:01Z</time>
      </trkpt>
      <trkpt lat="44.04052" lon="6.2778">
        <ele>996</ele>
        <time>1990-12-06T11:04:32Z</time>
      </trkpt>
      <trkpt lat="44.04013" lon="6.27815">
        <ele>998</ele>
        <time>1990-12-06T11:05:01Z</time>
      </trkpt>
      <trkpt lat="44.03987" lon="6.27847">
        <ele>1004</ele>
        <time>1990-12-06T11:05:31Z</time>
      </trkpt>
      <trkpt lat="44.03963" lon="6.27868">
        <ele>1008</ele>
        <time>1990-12-06T11:06:02Z</time>
      </trkpt>
      <trkpt lat="44.03952" lon="6.27873">
        <ele>1007</ele>
        <time>1990-12-06T11:12:34Z</time>
      </trkpt>
      <trkpt lat="44.03903" lon="6.27883">
        <ele>1000</ele>
        <time>1990-12-06T11:12:53Z</time>
      </trkpt>
      <trkpt lat="44.03867" lon="6.27902">
        <ele>996</ele>
        <time>1990-12-06T11:13:04Z</time>
      </trkpt>
      <trkpt lat="44.03842" lon="6.27908">
        <ele>995</ele>
        <time>1990-12-06T11:13:10Z</time>
      </trkpt>
      <trkpt lat="44.03802" lon="6.27925">
        <ele>993</ele>
        <time>1990-12-06T11:13:19Z</time>
      </trkpt>
      <trkpt lat="44.03737" lon="6.27972">
        <ele>996</ele>
        <time>1990-12-06T11:13:43Z</time>
      </trkpt>
      <trkpt lat="44.03655" lon="6.28055">
        <ele>992</ele>
        <time>1990-12-06T11:14:11Z</time>
      </trkpt>
      <trkpt lat="44.0361" lon="6.2809">
        <ele>988</ele>
        <time>1990-12-06T11:14:31Z</time>
      </trkpt>
      <trkpt lat="44.03555" lon="6.28132">
        <ele>990</ele>
        <time>1990-12-06T11:14:53Z</time>
      </trkpt>
      <trkpt lat="44.03537" lon="6.28145">
        <ele>992</ele>
        <time>1990-12-06T11:15:07Z</time>
      </trkpt>
      <trkpt lat="44.03502" lon="6.28165">
        <ele>996</ele>
        <time>1990-12-06T11:15:34Z</time>
      </trkpt>
      <trkpt lat="44.03472" lon="6.28183">
        <ele>998</ele>
        <time>1990-12-06T11:16:00Z</time>
      </trkpt>
      <trkpt lat="44.03427" lon="6.28233">
        <ele>1003</ele>
        <time>1990-12-06T11:16:37Z</time>
      </trkpt>
      <trkpt lat="44.03383" lon="6.28257">
        <ele>1007</ele>
        <time>1990-12-06T11:17:10Z</time>
      </trkpt>
      <trkpt lat="44.03337" lon="6.28275">
        <ele>1012</ele>
        <time>1990-12-06T11:17:55Z</time>
      </trkpt>
      <trkpt lat="44.03302" lon="6.28287">
        <ele>1015</ele>
        <time>1990-12-06T11:18:23Z</time>
      </trkpt>
      <trkpt lat="44.03278" lon="6.2831">
        <ele>1018</ele>
        <time>1990-12-06T11:18:42Z</time>
      </trkpt>
      <trkpt lat="44.03258" lon="6.28323">
        <ele>1019</ele>
        <time>1990-12-06T11:18:56Z</time>
      </trkpt>
      <trkpt lat="44.0322" lon="6.2836">
        <ele>1020</ele>
        <time>1990-12-06T11:19:15Z</time>
      </trkpt>
      <trkpt lat="44.03193" lon="6.28377">
        <ele>1019</ele>
        <time>1990-12-06T11:19:35Z</time>
      </trkpt>
      <trkpt lat="44.03133" lon="6.28438">
        <ele>1017</ele>
        <time>1990-12-06T11:19:48Z</time>
      </trkpt>
      <trkpt lat="44.03095" lon="6.28498">
        <ele>1019</ele>
        <time>1990-12-06T11:20:01Z</time>
      </trkpt>
      <trkpt lat="44.03077" lon="6.28547">
        <ele>1018</ele>
        <time>1990-12-06T11:20:16Z</time>
      </trkpt>
      <trkpt lat="44.0305" lon="6.28553">
        <ele>1019</ele>
        <time>1990-12-06T11:20:30Z</time>
      </trkpt>
      <trkpt lat="44.03015" lon="6.28605">
        <ele>1018</ele>
        <time>1990-12-06T11:20:50Z</time>
      </trkpt>
      <trkpt lat="44.02965" lon="6.28637">
        <ele>1020</ele>
        <time>1990-12-06T11:21:18Z</time>
      </trkpt>
      <trkpt lat="44.02925" lon="6.28657">
        <ele>1021</ele>
        <time>1990-12-06T11:21:39Z</time>
      </trkpt>
      <trkpt lat="44.02888" lon="6.28685">
        <ele>1027</ele>
        <time>1990-12-06T11:22:09Z</time>
      </trkpt>
      <trkpt lat="44.0286" lon="6.28713">
        <ele>1033</ele>
        <time>1990-12-06T11:22:42Z</time>
      </trkpt>
      <trkpt lat="44.02842" lon="6.2874">
        <ele>1035</ele>
        <time>1990-12-06T11:23:04Z</time>
      </trkpt>
      <trkpt lat="44.02825" lon="6.28743">
        <ele>1036</ele>
        <time>1990-12-06T11:23:17Z</time>
      </trkpt>
      <trkpt lat="44.02807" lon="6.28773">
        <ele>1038</ele>
        <time>1990-12-06T11:23:42Z</time>
      </trkpt>
      <trkpt lat="44.02785" lon="6.28797">
        <ele>1043</ele>
        <time>1990-12-06T11:23:59Z</time>
      </trkpt>
      <trkpt lat="44.02752" lon="6.28832">
        <ele>1045</ele>
        <time>1990-12-06T11:24:29Z</time>
      </trkpt>
      <trkpt lat="44.02733" lon="6.28845">
        <ele>1047</ele>
        <time>1990-12-06T11:25:13Z</time>
      </trkpt>
      <trkpt lat="44.0269" lon="6.28893">
        <ele>1051</ele>
        <time>1990-12-06T11:25:51Z</time>
      </trkpt>
      <trkpt lat="44.02675" lon="6.28928">
        <ele>1054</ele>
        <time>1990-12-06T11:26:11Z</time>
      </trkpt>
      <trkpt lat="44.02663" lon="6.28983">
        <ele>1058</ele>
        <time>1990-12-06T11:26:42Z</time>
      </trkpt>
      <trkpt lat="44.0266" lon="6.28998">
        <ele>1059</ele>
        <time>1990-12-06T11:26:50Z</time>
      </trkpt>
      <trkpt lat="44.02662" lon="6.29045">
        <ele>1062</ele>
        <time>1990-12-06T11:27:17Z</time>
      </trkpt>
      <trkpt lat="44.0266" lon="6.29078">
        <ele>1064</ele>
        <time>1990-12-06T11:27:36Z</time>
      </trkpt>
      <trkpt lat="44.02655" lon="6.29103">
        <ele>1066</ele>
        <time>1990-12-06T11:27:55Z</time>
      </trkpt>
      <trkpt lat="44.02645" lon="6.29137">
        <ele>1068</ele>
        <time>1990-12-06T11:28:16Z</time>
      </trkpt>
      <trkpt lat="44.02637" lon="6.29158">
        <ele>1070</ele>
        <time>1990-12-06T11:28:29Z</time>
      </trkpt>
      <trkpt lat="44.02618" lon="6.29198">
        <ele>1073</ele>
        <time>1990-12-06T11:28:55Z</time>
      </trkpt>
      <trkpt lat="44.02608" lon="6.29232">
        <ele>1076</ele>
        <time>1990-12-06T11:29:15Z</time>
      </trkpt>
      <trkpt lat="44.02597" lon="6.29277">
        <ele>1079</ele>
        <time>1990-12-06T11:29:42Z</time>
      </trkpt>
      <trkpt lat="44.02603" lon="6.2933">
        <ele>1084</ele>
        <time>1990-12-06T11:30:16Z</time>
      </trkpt>
      <trkpt lat="44.02618" lon="6.29365">
        <ele>1087</ele>
        <time>1990-12-06T11:30:39Z</time>
      </trkpt>
      <trkpt lat="44.02635" lon="6.29392">
        <ele>1089</ele>
        <time>1990-12-06T11:30:57Z</time>
      </trkpt>
      <trkpt lat="44.02647" lon="6.29432">
        <ele>1092</ele>
        <time>1990-12-06T11:31:26Z</time>
      </trkpt>
      <trkpt lat="44.02633" lon="6.2945">
        <ele>1094</ele>
        <time>1990-12-06T11:31:37Z</time>
      </trkpt>
      <trkpt lat="44.02622" lon="6.29492">
        <ele>1097</ele>
        <time>1990-12-06T11:32:03Z</time>
      </trkpt>
      <trkpt lat="44.0261" lon="6.29535">
        <ele>1100</ele>
        <time>1990-12-06T11:32:32Z</time>
      </trkpt>
      <trkpt lat="44.02598" lon="6.29577">
        <ele>1104</ele>
        <time>1990-12-06T11:33:01Z</time>
      </trkpt>
      <trkpt lat="44.02593" lon="6.29585">
        <ele>1105</ele>
        <time>1990-12-06T11:33:07Z</time>
      </trkpt>
      <trkpt lat="44.02558" lon="6.29623">
        <ele>1105</ele>
        <time>1990-12-06T11:33:33Z</time>
      </trkpt>
      <trkpt lat="44.02557" lon="6.2963">
        <ele>1105</ele>
        <time>1990-12-06T11:40:07Z</time>
      </trkpt>
      <trkpt lat="44.026" lon="6.29662">
        <ele>1101</ele>
        <time>1990-12-06T11:40:21Z</time>
      </trkpt>
      <trkpt lat="44.02662" lon="6.29663">
        <ele>1097</ele>
        <time>1990-12-06T11:40:29Z</time>
      </trkpt>
      <trkpt lat="44.02725" lon="6.29665">
        <ele>1091</ele>
        <time>1990-12-06T11:40:37Z</time>
      </trkpt>
      <trkpt lat="44.02785" lon="6.29668">
        <ele>1086</ele>
        <time>1990-12-06T11:40:44Z</time>
      </trkpt>
      <trkpt lat="44.02853" lon="6.29673">
        <ele>1079</ele>
        <time>1990-12-06T11:40:53Z</time>
      </trkpt>
      <trkpt lat="44.02918" lon="6.2967">
        <ele>1073</ele>
        <time>1990-12-06T11:41:04Z</time>
      </trkpt>
      <trkpt lat="44.02928" lon="6.2968">
        <ele>1072</ele>
        <time>1990-12-06T11:41:09Z</time>
      </trkpt>
      <trkpt lat="44.02933" lon="6.29718">
        <ele>1070</ele>
        <time>1990-12-06T11:41:15Z</time>
      </trkpt>
      <trkpt lat="44.02953" lon="6.29728">
        <ele>1068</ele>
        <time>1990-12-06T11:41:24Z</time>
      </trkpt>
      <trkpt lat="44.03008" lon="6.29713">
        <ele>1062</ele>
        <time>1990-12-06T11:41:37Z</time>
      </trkpt>
      <trkpt lat="44.03018" lon="6.2972">
        <ele>1059</ele>
        <time>1990-12-06T11:41:44Z</time>
      </trkpt>
      <trkpt lat="44.03035" lon="6.2972">
        <ele>1056</ele>
        <time>1990-12-06T11:41:51Z</time>
      </trkpt>
      <trkpt lat="44.03058" lon="6.2972">
        <ele>1049</ele>
        <time>1990-12-06T11:42:04Z</time>
      </trkpt>
      <trkpt lat="44.03092" lon="6.29713">
        <ele>1046</ele>
        <time>1990-12-06T11:42:30Z</time>
      </trkpt>
      <trkpt lat="44.03097" lon="6.29715">
        <ele>1045</ele>
        <time>1990-12-06T11:42:33Z</time>
      </trkpt>
      <trkpt lat="44.03115" lon="6.2971">
        <ele>1040</ele>
        <time>1990-12-06T11:42:45Z</time>
      </trkpt>
      <trkpt lat="44.03128" lon="6.29713">
        <ele>1036</ele>
        <time>1990-12-06T11:42:54Z</time>
      </trkpt>
      <trkpt lat="44.03138" lon="6.29698">
        <ele>1033</ele>
        <time>1990-12-06T11:43:07Z</time>
      </trkpt>
      <trkpt lat="44.03175" lon="6.2971">
        <ele>1029</ele>
        <time>1990-12-06T11:43:22Z</time>
      </trkpt>
      <trkpt lat="44.03193" lon="6.29715">
        <ele>1026</ele>
        <time>1990-12-06T11:43:33Z</time>
      </trkpt>
      <trkpt lat="44.03238" lon="6.29722">
        <ele>1022</ele>
        <time>1990-12-06T11:43:53Z</time>
      </trkpt>
      <trkpt lat="44.03285" lon="6.2971">
        <ele>1020</ele>
        <time>1990-12-06T11:44:13Z</time>
      </trkpt>
      <trkpt lat="44.03337" lon="6.29708">
        <ele>1016</ele>
        <time>1990-12-06T11:44:28Z</time>
      </trkpt>
      <trkpt lat="44.0338" lon="6.29692">
        <ele>1012</ele>
        <time>1990-12-06T11:44:44Z</time>
      </trkpt>
      <trkpt lat="44.0339" lon="6.29693">
        <ele>1009</ele>
        <time>1990-12-06T11:44:50Z</time>
      </trkpt>
      <trkpt lat="44.03407" lon="6.29708">
        <ele>1003</ele>
        <time>1990-12-06T11:45:01Z</time>
      </trkpt>
      <trkpt lat="44.03417" lon="6.2973">
        <ele>1007</ele>
        <time>1990-12-06T11:45:25Z</time>
      </trkpt>
      <trkpt lat="44.03447" lon="6.29722">
        <ele>1006</ele>
        <time>1990-12-06T11:47:56Z</time>
      </trkpt>
      <trkpt lat="44.03447" lon="6.29733">
        <ele>1006</ele>
        <time>1990-12-06T11:48:39Z</time>
      </trkpt>
      <trkpt lat="44.03478" lon="6.2976">
        <ele>1007</ele>
        <time>1990-12-06T11:49:03Z</time>
      </trkpt>
      <trkpt lat="44.03507" lon="6.29775">
        <ele>1006</ele>
        <time>1990-12-06T11:49:17Z</time>
      </trkpt>
      <trkpt lat="44.03542" lon="6.29788">
        <ele>1005</ele>
        <time>1990-12-06T11:49:38Z</time>
      </trkpt>
      <trkpt lat="44.03585" lon="6.29812">
        <ele>1003</ele>
        <time>1990-12-06T11:50:11Z</time>
      </trkpt>
      <trkpt lat="44.03598" lon="6.29823">
        <ele>1002</ele>
        <time>1990-12-06T11:50:19Z</time>
      </trkpt>
      <trkpt lat="44.0366" lon="6.29845">
        <ele>998</ele>
        <time>1990-12-06T11:50:34Z</time>
      </trkpt>
      <trkpt lat="44.03678" lon="6.29842">
        <ele>997</ele>
        <time>1990-12-06T11:50:38Z</time>
      </trkpt>
      <trkpt lat="44.03742" lon="6.29865">
        <ele>996</ele>
        <time>1990-12-06T11:50:51Z</time>
      </trkpt>
      <trkpt lat="44.0381" lon="6.29908">
        <ele>1000</ele>
        <time>1990-12-06T11:51:18Z</time>
      </trkpt>
      <trkpt lat="44.038" lon="6.29978">
        <ele>1003</ele>
        <time>1990-12-06T11:51:45Z</time>
      </trkpt>
      <trkpt lat="44.03822" lon="6.30043">
        <ele>1006</ele>
        <time>1990-12-06T11:52:13Z</time>
      </trkpt>
      <trkpt lat="44.0384" lon="6.3014">
        <ele>1008</ele>
        <time>1990-12-06T11:52:45Z</time>
      </trkpt>
      <trkpt lat="44.03892" lon="6.30207">
        <ele>1009</ele>
        <time>1990-12-06T11:53:10Z</time>
      </trkpt>
      <trkpt lat="44.03923" lon="6.30245">
        <ele>1007</ele>
        <time>1990-12-06T11:53:20Z</time>
      </trkpt>
      <trkpt lat="44.03967" lon="6.30228">
        <ele>1006</ele>
        <time>1990-12-06T11:53:30Z</time>
      </trkpt>
      <trkpt lat="44.04018" lon="6.30173">
        <ele>1005</ele>
        <time>1990-12-06T11:53:42Z</time>
      </trkpt>
      <trkpt lat="44.04073" lon="6.302">
        <ele>1002</ele>
        <time>1990-12-06T11:53:55Z</time>
      </trkpt>
      <trkpt lat="44.04127" lon="6.30228">
        <ele>1000</ele>
        <time>1990-12-06T11:54:07Z</time>
      </trkpt>
      <trkpt lat="44.0422" lon="6.30205">
        <ele>1001</ele>
        <time>1990-12-06T11:54:28Z</time>
      </trkpt>
      <trkpt lat="44.0431" lon="6.3022">
        <ele>998</ele>
        <time>1990-12-06T11:54:51Z</time>
      </trkpt>
      <trkpt lat="44.04317" lon="6.30248">
        <ele>996</ele>
        <time>1990-12-06T11:54:57Z</time>
      </trkpt>
      <trkpt lat="44.04315" lon="6.30317">
        <ele>991</ele>
        <time>1990-12-06T11:55:05Z</time>
      </trkpt>
      <trkpt lat="44.04325" lon="6.304">
        <ele>986</ele>
        <time>1990-12-06T11:55:14Z</time>
      </trkpt>
      <trkpt lat="44.0433" lon="6.30425">
        <ele>985</ele>
        <time>1990-12-06T11:55:17Z</time>
      </trkpt>
      <trkpt lat="44.04323" lon="6.30505">
        <ele>984</ele>
        <time>1990-12-06T11:55:25Z</time>
      </trkpt>
      <trkpt lat="44.04312" lon="6.306">
        <ele>980</ele>
        <time>1990-12-06T11:55:34Z</time>
      </trkpt>
      <trkpt lat="44.04307" lon="6.30628">
        <ele>979</ele>
        <time>1990-12-06T11:55:37Z</time>
      </trkpt>
      <trkpt lat="44.04302" lon="6.30723">
        <ele>976</ele>
        <time>1990-12-06T11:55:46Z</time>
      </trkpt>
      <trkpt lat="44.04323" lon="6.3077">
        <ele>976</ele>
        <time>1990-12-06T11:55:52Z</time>
      </trkpt>
      <trkpt lat="44.04347" lon="6.30798">
        <ele>977</ele>
        <time>1990-12-06T11:55:57Z</time>
      </trkpt>
      <trkpt lat="44.04363" lon="6.30845">
        <ele>977</ele>
        <time>1990-12-06T11:56:04Z</time>
      </trkpt>
      <trkpt lat="44.04377" lon="6.30892">
        <ele>978</ele>
        <time>1990-12-06T11:56:11Z</time>
      </trkpt>
      <trkpt lat="44.04427" lon="6.3093">
        <ele>980</ele>
        <time>1990-12-06T11:56:27Z</time>
      </trkpt>
      <trkpt lat="44.04443" lon="6.30925">
        <ele>980</ele>
        <time>1990-12-06T11:56:54Z</time>
      </trkpt>
      <trkpt lat="44.04458" lon="6.30915">
        <ele>981</ele>
        <time>1990-12-06T11:57:16Z</time>
      </trkpt>
      <trkpt lat="44.04488" lon="6.30845">
        <ele>985</ele>
        <time>1990-12-06T11:57:39Z</time>
      </trkpt>
      <trkpt lat="44.04488" lon="6.3077">
        <ele>991</ele>
        <time>1990-12-06T11:58:02Z</time>
      </trkpt>
      <trkpt lat="44.04497" lon="6.30737">
        <ele>993</ele>
        <time>1990-12-06T11:58:19Z</time>
      </trkpt>
      <trkpt lat="44.04517" lon="6.30702">
        <ele>997</ele>
        <time>1990-12-06T11:58:46Z</time>
      </trkpt>
      <trkpt lat="44.04525" lon="6.30705">
        <ele>997</ele>
        <time>1990-12-06T11:59:11Z</time>
      </trkpt>
      <trkpt lat="44.0454" lon="6.30708">
        <ele>998</ele>
        <time>1990-12-06T12:01:28Z</time>
      </trkpt>
      <trkpt lat="44.0461" lon="6.30712">
        <ele>1004</ele>
        <time>1990-12-06T12:01:52Z</time>
      </trkpt>
      <trkpt lat="44.04647" lon="6.30697">
        <ele>1007</ele>
        <time>1990-12-06T12:02:04Z</time>
      </trkpt>
      <trkpt lat="44.04688" lon="6.30668">
        <ele>1011</ele>
        <time>1990-12-06T12:02:24Z</time>
      </trkpt>
      <trkpt lat="44.04718" lon="6.30635">
        <ele>1016</ele>
        <time>1990-12-06T12:02:50Z</time>
      </trkpt>
      <trkpt lat="44.04738" lon="6.30627">
        <ele>1018</ele>
        <time>1990-12-06T12:03:06Z</time>
      </trkpt>
      <trkpt lat="44.04782" lon="6.30598">
        <ele>1023</ele>
        <time>1990-12-06T12:03:39Z</time>
      </trkpt>
      <trkpt lat="44.04797" lon="6.3058">
        <ele>1025</ele>
        <time>1990-12-06T12:03:55Z</time>
      </trkpt>
      <trkpt lat="44.04817" lon="6.3057">
        <ele>1028</ele>
        <time>1990-12-06T12:04:14Z</time>
      </trkpt>
      <trkpt lat="44.04838" lon="6.30588">
        <ele>1031</ele>
        <time>1990-12-06T12:04:33Z</time>
      </trkpt>
      <trkpt lat="44.04832" lon="6.30613">
        <ele>1032</ele>
        <time>1990-12-06T12:04:47Z</time>
      </trkpt>
      <trkpt lat="44.04818" lon="6.3063">
        <ele>1034</ele>
        <time>1990-12-06T12:05:01Z</time>
      </trkpt>
      <trkpt lat="44.04832" lon="6.30675">
        <ele>1036</ele>
        <time>1990-12-06T12:05:23Z</time>
      </trkpt>
      <trkpt lat="44.0484" lon="6.30712">
        <ele>1037</ele>
        <time>1990-12-06T12:05:39Z</time>
      </trkpt>
      <trkpt lat="44.04857" lon="6.30738">
        <ele>1039</ele>
        <time>1990-12-06T12:05:53Z</time>
      </trkpt>
      <trkpt lat="44.04887" lon="6.30767">
        <ele>1042</ele>
        <time>1990-12-06T12:06:21Z</time>
      </trkpt>
      <trkpt lat="44.04892" lon="6.30797">
        <ele>1043</ele>
        <time>1990-12-06T12:06:36Z</time>
      </trkpt>
      <trkpt lat="44.049" lon="6.30832">
        <ele>1044</ele>
        <time>1990-12-06T12:06:50Z</time>
      </trkpt>
      <trkpt lat="44.0489" lon="6.3086">
        <ele>1046</ele>
        <time>1990-12-06T12:07:05Z</time>
      </trkpt>
      <trkpt lat="44.04875" lon="6.30915">
        <ele>1047</ele>
        <time>1990-12-06T12:07:21Z</time>
      </trkpt>
      <trkpt lat="44.04868" lon="6.30948">
        <ele>1048</ele>
        <time>1990-12-06T12:07:35Z</time>
      </trkpt>
      <trkpt lat="44.04882" lon="6.30998">
        <ele>1051</ele>
        <time>1990-12-06T12:07:55Z</time>
      </trkpt>
      <trkpt lat="44.0492" lon="6.31022">
        <ele>1047</ele>
        <time>1990-12-06T12:08:09Z</time>
      </trkpt>
      <trkpt lat="44.04972" lon="6.31013">
        <ele>1042</ele>
        <time>1990-12-06T12:08:22Z</time>
      </trkpt>
      <trkpt lat="44.04988" lon="6.31025">
        <ele>1042</ele>
        <time>1990-12-06T12:08:44Z</time>
      </trkpt>
      <trkpt lat="44.0502" lon="6.31018">
        <ele>1045</ele>
        <time>1990-12-06T12:09:22Z</time>
      </trkpt>
      <trkpt lat="44.05033" lon="6.31007">
        <ele>1045</ele>
        <time>1990-12-06T12:09:55Z</time>
      </trkpt>
      <trkpt lat="44.05057" lon="6.30995">
        <ele>1046</ele>
        <time>1990-12-06T12:10:13Z</time>
      </trkpt>
      <trkpt lat="44.05112" lon="6.31018">
        <ele>1049</ele>
        <time>1990-12-06T12:10:44Z</time>
      </trkpt>
      <trkpt lat="44.05132" lon="6.31027">
        <ele>1050</ele>
        <time>1990-12-06T12:10:57Z</time>
      </trkpt>
      <trkpt lat="44.05145" lon="6.3102">
        <ele>1051</ele>
        <time>1990-12-06T12:11:06Z</time>
      </trkpt>
      <trkpt lat="44.05152" lon="6.31007">
        <ele>1052</ele>
        <time>1990-12-06T12:11:14Z</time>
      </trkpt>
      <trkpt lat="44.05177" lon="6.3099">
        <ele>1056</ele>
        <time>1990-12-06T12:11:36Z</time>
      </trkpt>
      <trkpt lat="44.0519" lon="6.30967">
        <ele>1059</ele>
        <time>1990-12-06T12:11:55Z</time>
      </trkpt>
      <trkpt lat="44.052" lon="6.3095">
        <ele>1060</ele>
        <time>1990-12-06T12:12:08Z</time>
      </trkpt>
      <trkpt lat="44.0521" lon="6.30935">
        <ele>1062</ele>
        <time>1990-12-06T12:12:21Z</time>
      </trkpt>
      <trkpt lat="44.05232" lon="6.30913">
        <ele>1064</ele>
        <time>1990-12-06T12:12:42Z</time>
      </trkpt>
      <trkpt lat="44.05252" lon="6.30882">
        <ele>1064</ele>
        <time>1990-12-06T12:14:07Z</time>
      </trkpt>
      <trkpt lat="44.05268" lon="6.30893">
        <ele>1065</ele>
        <time>1990-12-06T12:14:24Z</time>
      </trkpt>
      <trkpt lat="44.05298" lon="6.30948">
        <ele>1064</ele>
        <time>1990-12-06T12:14:58Z</time>
      </trkpt>
      <trkpt lat="44.05335" lon="6.31013">
        <ele>1060</ele>
        <time>1990-12-06T12:15:14Z</time>
      </trkpt>
      <trkpt lat="44.05343" lon="6.3107">
        <ele>1059</ele>
        <time>1990-12-06T12:15:24Z</time>
      </trkpt>
      <trkpt lat="44.0537" lon="6.31117">
        <ele>1056</ele>
        <time>1990-12-06T12:15:32Z</time>
      </trkpt>
      <trkpt lat="44.05383" lon="6.31127">
        <ele>1055</ele>
        <time>1990-12-06T12:15:35Z</time>
      </trkpt>
      <trkpt lat="44.05412" lon="6.31137">
        <ele>1054</ele>
        <time>1990-12-06T12:15:42Z</time>
      </trkpt>
      <trkpt lat="44.05447" lon="6.31182">
        <ele>1052</ele>
        <time>1990-12-06T12:15:55Z</time>
      </trkpt>
      <trkpt lat="44.05465" lon="6.3115">
        <ele>1052</ele>
        <time>1990-12-06T12:16:02Z</time>
      </trkpt>
      <trkpt lat="44.05472" lon="6.3111">
        <ele>1051</ele>
        <time>1990-12-06T12:16:08Z</time>
      </trkpt>
      <trkpt lat="44.0551" lon="6.31025">
        <ele>1049</ele>
        <time>1990-12-06T12:16:23Z</time>
      </trkpt>
      <trkpt lat="44.05542" lon="6.31067">
        <ele>1046</ele>
        <time>1990-12-06T12:16:35Z</time>
      </trkpt>
      <trkpt lat="44.05567" lon="6.31097">
        <ele>1041</ele>
        <time>1990-12-06T12:16:49Z</time>
      </trkpt>
      <trkpt lat="44.05602" lon="6.31088">
        <ele>1039</ele>
        <time>1990-12-06T12:16:59Z</time>
      </trkpt>
      <trkpt lat="44.0568" lon="6.31047">
        <ele>1037</ele>
        <time>1990-12-06T12:17:22Z</time>
      </trkpt>
      <trkpt lat="44.05713" lon="6.31032">
        <ele>1040</ele>
        <time>1990-12-06T12:17:33Z</time>
      </trkpt>
      <trkpt lat="44.05748" lon="6.31023">
        <ele>1043</ele>
        <time>1990-12-06T12:17:50Z</time>
      </trkpt>
      <trkpt lat="44.058" lon="6.31032">
        <ele>1041</ele>
        <time>1990-12-06T12:18:11Z</time>
      </trkpt>
      <trkpt lat="44.05848" lon="6.31105">
        <ele>1044</ele>
        <time>1990-12-06T12:18:35Z</time>
      </trkpt>
      <trkpt lat="44.05868" lon="6.3115">
        <ele>1048</ele>
        <time>1990-12-06T12:19:00Z</time>
      </trkpt>
      <trkpt lat="44.05903" lon="6.31188">
        <ele>1047</ele>
        <time>1990-12-06T12:19:14Z</time>
      </trkpt>
      <trkpt lat="44.05918" lon="6.31248">
        <ele>1046</ele>
        <time>1990-12-06T12:19:25Z</time>
      </trkpt>
      <trkpt lat="44.05952" lon="6.3131">
        <ele>1046</ele>
        <time>1990-12-06T12:19:39Z</time>
      </trkpt>
      <trkpt lat="44.05993" lon="6.31352">
        <ele>1044</ele>
        <time>1990-12-06T12:19:52Z</time>
      </trkpt>
      <trkpt lat="44.06033" lon="6.31393">
        <ele>1043</ele>
        <time>1990-12-06T12:20:01Z</time>
      </trkpt>
      <trkpt lat="44.06055" lon="6.31422">
        <ele>1041</ele>
        <time>1990-12-06T12:20:06Z</time>
      </trkpt>
      <trkpt lat="44.06082" lon="6.31462">
        <ele>1037</ele>
        <time>1990-12-06T12:20:12Z</time>
      </trkpt>
      <trkpt lat="44.06132" lon="6.31492">
        <ele>1037</ele>
        <time>1990-12-06T12:20:27Z</time>
      </trkpt>
      <trkpt lat="44.06187" lon="6.3142">
        <ele>1043</ele>
        <time>1990-12-06T12:20:55Z</time>
      </trkpt>
      <trkpt lat="44.06228" lon="6.31377">
        <ele>1048</ele>
        <time>1990-12-06T12:21:22Z</time>
      </trkpt>
      <trkpt lat="44.06257" lon="6.31363">
        <ele>1048</ele>
        <time>1990-12-06T12:21:36Z</time>
      </trkpt>
      <trkpt lat="44.06307" lon="6.31352">
        <ele>1048</ele>
        <time>1990-12-06T12:21:48Z</time>
      </trkpt>
      <trkpt lat="44.06368" lon="6.31338">
        <ele>1046</ele>
        <time>1990-12-06T12:22:01Z</time>
      </trkpt>
      <trkpt lat="44.06435" lon="6.31287">
        <ele>1043</ele>
        <time>1990-12-06T12:22:12Z</time>
      </trkpt>
      <trkpt lat="44.06527" lon="6.31223">
        <ele>1045</ele>
        <time>1990-12-06T12:22:34Z</time>
      </trkpt>
      <trkpt lat="44.0658" lon="6.31178">
        <ele>1041</ele>
        <time>1990-12-06T12:22:47Z</time>
      </trkpt>
      <trkpt lat="44.06595" lon="6.31097">
        <ele>1035</ele>
        <time>1990-12-06T12:22:55Z</time>
      </trkpt>
      <trkpt lat="44.06602" lon="6.31012">
        <ele>1030</ele>
        <time>1990-12-06T12:23:02Z</time>
      </trkpt>
      <trkpt lat="44.06562" lon="6.30953">
        <ele>1032</ele>
        <time>1990-12-06T12:23:14Z</time>
      </trkpt>
      <trkpt lat="44.0651" lon="6.3095">
        <ele>1030</ele>
        <time>1990-12-06T12:24:23Z</time>
      </trkpt>
      <trkpt lat="44.0648" lon="6.30953">
        <ele>1027</ele>
        <time>1990-12-06T12:24:28Z</time>
      </trkpt>
      <trkpt lat="44.06415" lon="6.30893">
        <ele>1019</ele>
        <time>1990-12-06T12:24:38Z</time>
      </trkpt>
      <trkpt lat="44.06433" lon="6.30817">
        <ele>1013</ele>
        <time>1990-12-06T12:24:46Z</time>
      </trkpt>
      <trkpt lat="44.06482" lon="6.30782">
        <ele>1006</ele>
        <time>1990-12-06T12:24:53Z</time>
      </trkpt>
      <trkpt lat="44.06505" lon="6.30728">
        <ele>1000</ele>
        <time>1990-12-06T12:24:59Z</time>
      </trkpt>
      <trkpt lat="44.06537" lon="6.30688">
        <ele>995</ele>
        <time>1990-12-06T12:25:45Z</time>
      </trkpt>
      <trkpt lat="44.06572" lon="6.30692">
        <ele>992</ele>
        <time>1990-12-06T12:25:51Z</time>
      </trkpt>
      <trkpt lat="44.06577" lon="6.30668">
        <ele>987</ele>
        <time>1990-12-06T12:25:59Z</time>
      </trkpt>
      <trkpt lat="44.0653" lon="6.30628">
        <ele>982</ele>
        <time>1990-12-06T12:26:10Z</time>
      </trkpt>
      <trkpt lat="44.06563" lon="6.30608">
        <ele>978</ele>
        <time>1990-12-06T12:26:15Z</time>
      </trkpt>
      <trkpt lat="44.06592" lon="6.30557">
        <ele>974</ele>
        <time>1990-12-06T12:26:20Z</time>
      </trkpt>
      <trkpt lat="44.06598" lon="6.3048">
        <ele>968</ele>
        <time>1990-12-06T12:26:27Z</time>
      </trkpt>
      <trkpt lat="44.06608" lon="6.30457">
        <ele>967</ele>
        <time>1990-12-06T12:26:33Z</time>
      </trkpt>
      <trkpt lat="44.06653" lon="6.30502">
        <ele>966</ele>
        <time>1990-12-06T12:26:44Z</time>
      </trkpt>
      <trkpt lat="44.06705" lon="6.30523">
        <ele>962</ele>
        <time>1990-12-06T12:26:54Z</time>
      </trkpt>
      <trkpt lat="44.06688" lon="6.30558">
        <ele>961</ele>
        <time>1990-12-06T12:26:58Z</time>
      </trkpt>
      <trkpt lat="44.0668" lon="6.3066">
        <ele>960</ele>
        <time>1990-12-06T12:27:08Z</time>
      </trkpt>
      <trkpt lat="44.06715" lon="6.30647">
        <ele>960</ele>
        <time>1990-12-06T12:27:16Z</time>
      </trkpt>
      <trkpt lat="44.06762" lon="6.30607">
        <ele>964</ele>
        <time>1990-12-06T12:27:24Z</time>
      </trkpt>
      <trkpt lat="44.06793" lon="6.3057">
        <ele>967</ele>
        <time>1990-12-06T12:27:30Z</time>
      </trkpt>
      <trkpt lat="44.06835" lon="6.30563">
        <ele>971</ele>
        <time>1990-12-06T12:27:37Z</time>
      </trkpt>
      <trkpt lat="44.0688" lon="6.3058">
        <ele>973</ele>
        <time>1990-12-06T12:27:50Z</time>
      </trkpt>
      <trkpt lat="44.06925" lon="6.30608">
        <ele>973</ele>
        <time>1990-12-06T12:28:08Z</time>
      </trkpt>
      <trkpt lat="44.06945" lon="6.30657">
        <ele>971</ele>
        <time>1990-12-06T12:28:16Z</time>
      </trkpt>
      <trkpt lat="44.07017" lon="6.30745">
        <ele>966</ele>
        <time>1990-12-06T12:28:29Z</time>
      </trkpt>
      <trkpt lat="44.07103" lon="6.3076">
        <ele>962</ele>
        <time>1990-12-06T12:28:40Z</time>
      </trkpt>
      <trkpt lat="44.07155" lon="6.30785">
        <ele>959</ele>
        <time>1990-12-06T12:28:47Z</time>
      </trkpt>
      <trkpt lat="44.07208" lon="6.30813">
        <ele>958</ele>
        <time>1990-12-06T12:28:54Z</time>
      </trkpt>
      <trkpt lat="44.0726" lon="6.3086">
        <ele>964</ele>
        <time>1990-12-06T12:29:14Z</time>
      </trkpt>
      <trkpt lat="44.07283" lon="6.30873">
        <ele>967</ele>
        <time>1990-12-06T12:29:31Z</time>
      </trkpt>
      <trkpt lat="44.0733" lon="6.30868">
        <ele>971</ele>
        <time>1990-12-06T12:29:58Z</time>
      </trkpt>
      <trkpt lat="44.07357" lon="6.30897">
        <ele>972</ele>
        <time>1990-12-06T12:30:14Z</time>
      </trkpt>
      <trkpt lat="44.07402" lon="6.30947">
        <ele>974</ele>
        <time>1990-12-06T12:30:40Z</time>
      </trkpt>
      <trkpt lat="44.07467" lon="6.3096">
        <ele>977</ele>
        <time>1990-12-06T12:31:08Z</time>
      </trkpt>
      <trkpt lat="44.07502" lon="6.31015">
        <ele>976</ele>
        <time>1990-12-06T12:31:25Z</time>
      </trkpt>
      <trkpt lat="44.07538" lon="6.31082">
        <ele>974</ele>
        <time>1990-12-06T12:31:41Z</time>
      </trkpt>
      <trkpt lat="44.07562" lon="6.31018">
        <ele>977</ele>
        <time>1990-12-06T12:31:55Z</time>
      </trkpt>
      <trkpt lat="44.07577" lon="6.30963">
        <ele>981</ele>
        <time>1990-12-06T12:32:17Z</time>
      </trkpt>
      <trkpt lat="44.07608" lon="6.30925">
        <ele>986</ele>
        <time>1990-12-06T12:32:47Z</time>
      </trkpt>
      <trkpt lat="44.0763" lon="6.30937">
        <ele>990</ele>
        <time>1990-12-06T12:33:07Z</time>
      </trkpt>
      <trkpt lat="44.07625" lon="6.30955">
        <ele>991</ele>
        <time>1990-12-06T12:33:18Z</time>
      </trkpt>
      <trkpt lat="44.0761" lon="6.30985">
        <ele>995</ele>
        <time>1990-12-06T12:33:38Z</time>
      </trkpt>
      <trkpt lat="44.07623" lon="6.30998">
        <ele>997</ele>
        <time>1990-12-06T12:33:49Z</time>
      </trkpt>
      <trkpt lat="44.07668" lon="6.31008">
        <ele>998</ele>
        <time>1990-12-06T12:34:20Z</time>
      </trkpt>
      <trkpt lat="44.077" lon="6.30982">
        <ele>1001</ele>
        <time>1990-12-06T12:34:45Z</time>
      </trkpt>
      <trkpt lat="44.07728" lon="6.3095">
        <ele>1005</ele>
        <time>1990-12-06T12:35:12Z</time>
      </trkpt>
      <trkpt lat="44.07743" lon="6.30933">
        <ele>1008</ele>
        <time>1990-12-06T12:35:26Z</time>
      </trkpt>
      <trkpt lat="44.07763" lon="6.30893">
        <ele>1011</ele>
        <time>1990-12-06T12:35:53Z</time>
      </trkpt>
      <trkpt lat="44.07782" lon="6.30862">
        <ele>1011</ele>
        <time>1990-12-06T12:36:10Z</time>
      </trkpt>
      <trkpt lat="44.07827" lon="6.30775">
        <ele>1012</ele>
        <time>1990-12-06T12:36:38Z</time>
      </trkpt>
      <trkpt lat="44.07847" lon="6.30732">
        <ele>1011</ele>
        <time>1990-12-06T12:36:47Z</time>
      </trkpt>
      <trkpt lat="44.07867" lon="6.30678">
        <ele>1005</ele>
        <time>1990-12-06T12:37:00Z</time>
      </trkpt>
      <trkpt lat="44.07927" lon="6.30685">
        <ele>1000</ele>
        <time>1990-12-06T12:37:13Z</time>
      </trkpt>
      <trkpt lat="44.07963" lon="6.30647">
        <ele>993</ele>
        <time>1990-12-06T12:37:23Z</time>
      </trkpt>
      <trkpt lat="44.07978" lon="6.30688">
        <ele>988</ele>
        <time>1990-12-06T12:37:27Z</time>
      </trkpt>
      <trkpt lat="44.0798" lon="6.30752">
        <ele>981</ele>
        <time>1990-12-06T12:37:32Z</time>
      </trkpt>
      <trkpt lat="44.07992" lon="6.30845">
        <ele>978</ele>
        <time>1990-12-06T12:37:39Z</time>
      </trkpt>
      <trkpt lat="44.08002" lon="6.30917">
        <ele>977</ele>
        <time>1990-12-06T12:37:46Z</time>
      </trkpt>
      <trkpt lat="44.08018" lon="6.30972">
        <ele>978</ele>
        <time>1990-12-06T12:37:54Z</time>
      </trkpt>
      <trkpt lat="44.08055" lon="6.30973">
        <ele>975</ele>
        <time>1990-12-06T12:38:04Z</time>
      </trkpt>
      <trkpt lat="44.08103" lon="6.30935">
        <ele>972</ele>
        <time>1990-12-06T12:38:13Z</time>
      </trkpt>
      <trkpt lat="44.08138" lon="6.30902">
        <ele>970</ele>
        <time>1990-12-06T12:38:19Z</time>
      </trkpt>
      <trkpt lat="44.08187" lon="6.30867">
        <ele>969</ele>
        <time>1990-12-06T12:38:28Z</time>
      </trkpt>
      <trkpt lat="44.08222" lon="6.30853">
        <ele>963</ele>
        <time>1990-12-06T12:38:34Z</time>
      </trkpt>
      <trkpt lat="44.08262" lon="6.3082">
        <ele>958</ele>
        <time>1990-12-06T12:38:41Z</time>
      </trkpt>
      <trkpt lat="44.08282" lon="6.30812">
        <ele>957</ele>
        <time>1990-12-06T12:38:45Z</time>
      </trkpt>
      <trkpt lat="44.0832" lon="6.30822">
        <ele>957</ele>
        <time>1990-12-06T12:39:08Z</time>
      </trkpt>
      <trkpt lat="44.08332" lon="6.30832">
        <ele>958</ele>
        <time>1990-12-06T12:39:55Z</time>
      </trkpt>
      <trkpt lat="44.08375" lon="6.30867">
        <ele>960</ele>
        <time>1990-12-06T12:40:21Z</time>
      </trkpt>
      <trkpt lat="44.08422" lon="6.3093">
        <ele>961</ele>
        <time>1990-12-06T12:40:47Z</time>
      </trkpt>
      <trkpt lat="44.08497" lon="6.31">
        <ele>961</ele>
        <time>1990-12-06T12:41:11Z</time>
      </trkpt>
      <trkpt lat="44.08503" lon="6.31053">
        <ele>965</ele>
        <time>1990-12-06T12:41:32Z</time>
      </trkpt>
      <trkpt lat="44.08503" lon="6.31052">
        <ele>974</ele>
        <time>1990-12-06T12:42:35Z</time>
      </trkpt>
      <trkpt lat="44.085" lon="6.31053">
        <ele>973</ele>
        <time>1990-12-06T12:42:49Z</time>
      </trkpt>
      <trkpt lat="44.0852" lon="6.31095">
        <ele>973</ele>
        <time>1990-12-06T12:42:58Z</time>
      </trkpt>
      <trkpt lat="44.0855" lon="6.31125">
        <ele>975</ele>
        <time>1990-12-06T12:43:05Z</time>
      </trkpt>
      <trkpt lat="44.08577" lon="6.31133">
        <ele>975</ele>
        <time>1990-12-06T12:43:11Z</time>
      </trkpt>
      <trkpt lat="44.08648" lon="6.3112">
        <ele>976</ele>
        <time>1990-12-06T12:43:25Z</time>
      </trkpt>
      <trkpt lat="44.08717" lon="6.31182">
        <ele>980</ele>
        <time>1990-12-06T12:43:46Z</time>
      </trkpt>
      <trkpt lat="44.08738" lon="6.31177">
        <ele>981</ele>
        <time>1990-12-06T12:44:05Z</time>
      </trkpt>
      <trkpt lat="44.0872" lon="6.31202">
        <ele>983</ele>
        <time>1990-12-06T12:44:24Z</time>
      </trkpt>
      <trkpt lat="44.0872" lon="6.312">
        <ele>982</ele>
        <time>1990-12-06T12:45:47Z</time>
      </trkpt>
      <trkpt lat="44.08717" lon="6.3121">
        <ele>980</ele>
        <time>1990-12-06T13:19:56Z</time>
      </trkpt>
      <trkpt lat="44.08717" lon="6.31207">
        <ele>980</ele>
        <time>1990-12-06T13:38:01Z</time>
      </trkpt>
      <trkpt lat="44.08687" lon="6.31232">
        <ele>979</ele>
        <time>1990-12-06T13:38:07Z</time>
      </trkpt>
      <trkpt lat="44.08713" lon="6.31203">
        <ele>979</ele>
        <time>1990-12-06T13:38:53Z</time>
      </trkpt>
      <trkpt lat="44.0871" lon="6.31198">
        <ele>979</ele>
        <time>1990-12-06T13:38:57Z</time>
      </trkpt>
      <trkpt lat="44.08703" lon="6.31212">
        <ele>980</ele>
        <time>1990-12-06T13:39:07Z</time>
      </trkpt>
      <trkpt lat="44.08747" lon="6.31195">
        <ele>983</ele>
        <time>1990-12-06T13:39:27Z</time>
      </trkpt>
      <trkpt lat="44.08797" lon="6.31162">
        <ele>988</ele>
        <time>1990-12-06T13:39:53Z</time>
      </trkpt>
      <trkpt lat="44.08832" lon="6.31177">
        <ele>989</ele>
        <time>1990-12-06T13:40:11Z</time>
      </trkpt>
      <trkpt lat="44.08865" lon="6.31202">
        <ele>992</ele>
        <time>1990-12-06T13:40:31Z</time>
      </trkpt>
      <trkpt lat="44.0891" lon="6.31215">
        <ele>996</ele>
        <time>1990-12-06T13:40:54Z</time>
      </trkpt>
      <trkpt lat="44.08942" lon="6.31267">
        <ele>998</ele>
        <time>1990-12-06T13:41:22Z</time>
      </trkpt>
      <trkpt lat="44.08932" lon="6.31322">
        <ele>1002</ele>
        <time>1990-12-06T13:41:46Z</time>
      </trkpt>
      <trkpt lat="44.08893" lon="6.31345">
        <ele>1006</ele>
        <time>1990-12-06T13:42:09Z</time>
      </trkpt>
      <trkpt lat="44.08852" lon="6.31337">
        <ele>1008</ele>
        <time>1990-12-06T13:42:31Z</time>
      </trkpt>
      <trkpt lat="44.08865" lon="6.31372">
        <ele>1011</ele>
        <time>1990-12-06T13:42:47Z</time>
      </trkpt>
      <trkpt lat="44.08895" lon="6.31402">
        <ele>1013</ele>
        <time>1990-12-06T13:43:06Z</time>
      </trkpt>
      <trkpt lat="44.08925" lon="6.31427">
        <ele>1015</ele>
        <time>1990-12-06T13:43:25Z</time>
      </trkpt>
      <trkpt lat="44.0898" lon="6.31423">
        <ele>1018</ele>
        <time>1990-12-06T13:43:53Z</time>
      </trkpt>
      <trkpt lat="44.0905" lon="6.31433">
        <ele>1020</ele>
        <time>1990-12-06T13:44:24Z</time>
      </trkpt>
      <trkpt lat="44.09097" lon="6.314">
        <ele>1023</ele>
        <time>1990-12-06T13:44:50Z</time>
      </trkpt>
      <trkpt lat="44.09135" lon="6.3143">
        <ele>1024</ele>
        <time>1990-12-06T13:45:16Z</time>
      </trkpt>
      <trkpt lat="44.09177" lon="6.31478">
        <ele>1025</ele>
        <time>1990-12-06T13:45:42Z</time>
      </trkpt>
      <trkpt lat="44.09227" lon="6.31495">
        <ele>1028</ele>
        <time>1990-12-06T13:46:07Z</time>
      </trkpt>
      <trkpt lat="44.09267" lon="6.31553">
        <ele>1028</ele>
        <time>1990-12-06T13:46:32Z</time>
      </trkpt>
      <trkpt lat="44.0932" lon="6.31607">
        <ele>1026</ele>
        <time>1990-12-06T13:46:59Z</time>
      </trkpt>
      <trkpt lat="44.0935" lon="6.31577">
        <ele>1023</ele>
        <time>1990-12-06T13:47:07Z</time>
      </trkpt>
      <trkpt lat="44.09362" lon="6.31642">
        <ele>1019</ele>
        <time>1990-12-06T13:47:22Z</time>
      </trkpt>
      <trkpt lat="44.0937" lon="6.31693">
        <ele>1016</ele>
        <time>1990-12-06T13:47:29Z</time>
      </trkpt>
      <trkpt lat="44.09403" lon="6.31722">
        <ele>1014</ele>
        <time>1990-12-06T13:47:37Z</time>
      </trkpt>
      <trkpt lat="44.09437" lon="6.31748">
        <ele>1013</ele>
        <time>1990-12-06T13:47:44Z</time>
      </trkpt>
      <trkpt lat="44.09427" lon="6.31807">
        <ele>1010</ele>
        <time>1990-12-06T13:47:55Z</time>
      </trkpt>
      <trkpt lat="44.0942" lon="6.31863">
        <ele>1007</ele>
        <time>1990-12-06T13:48:04Z</time>
      </trkpt>
      <trkpt lat="44.09425" lon="6.31905">
        <ele>1004</ele>
        <time>1990-12-06T13:48:11Z</time>
      </trkpt>
      <trkpt lat="44.09418" lon="6.31967">
        <ele>1000</ele>
        <time>1990-12-06T13:48:23Z</time>
      </trkpt>
      <trkpt lat="44.0944" lon="6.31972">
        <ele>999</ele>
        <time>1990-12-06T13:48:26Z</time>
      </trkpt>
      <trkpt lat="44.09472" lon="6.32022">
        <ele>995</ele>
        <time>1990-12-06T13:48:37Z</time>
      </trkpt>
      <trkpt lat="44.09545" lon="6.32048">
        <ele>992</ele>
        <time>1990-12-06T13:48:57Z</time>
      </trkpt>
      <trkpt lat="44.09603" lon="6.32062">
        <ele>994</ele>
        <time>1990-12-06T13:49:17Z</time>
      </trkpt>
      <trkpt lat="44.09643" lon="6.3199">
        <ele>997</ele>
        <time>1990-12-06T13:49:39Z</time>
      </trkpt>
      <trkpt lat="44.0965" lon="6.31967">
        <ele>999</ele>
        <time>1990-12-06T13:49:59Z</time>
      </trkpt>
      <trkpt lat="44.09663" lon="6.31978">
        <ele>1000</ele>
        <time>1990-12-06T13:50:07Z</time>
      </trkpt>
      <trkpt lat="44.09683" lon="6.32002">
        <ele>1001</ele>
        <time>1990-12-06T13:50:18Z</time>
      </trkpt>
      <trkpt lat="44.09745" lon="6.32015">
        <ele>1004</ele>
        <time>1990-12-06T13:50:54Z</time>
      </trkpt>
      <trkpt lat="44.09788" lon="6.3202">
        <ele>1006</ele>
        <time>1990-12-06T13:51:12Z</time>
      </trkpt>
      <trkpt lat="44.09807" lon="6.32077">
        <ele>1008</ele>
        <time>1990-12-06T13:51:35Z</time>
      </trkpt>
      <trkpt lat="44.09808" lon="6.32107">
        <ele>1010</ele>
        <time>1990-12-06T13:51:53Z</time>
      </trkpt>
      <trkpt lat="44.09847" lon="6.3213">
        <ele>1010</ele>
        <time>1990-12-06T13:52:15Z</time>
      </trkpt>
      <trkpt lat="44.09875" lon="6.32115">
        <ele>1010</ele>
        <time>1990-12-06T13:52:25Z</time>
      </trkpt>
      <trkpt lat="44.09898" lon="6.32062">
        <ele>1014</ele>
        <time>1990-12-06T13:52:51Z</time>
      </trkpt>
      <trkpt lat="44.09908" lon="6.32045">
        <ele>1015</ele>
        <time>1990-12-06T13:53:02Z</time>
      </trkpt>
      <trkpt lat="44.0991" lon="6.31985">
        <ele>1017</ele>
        <time>1990-12-06T13:53:29Z</time>
      </trkpt>
      <trkpt lat="44.09937" lon="6.31942">
        <ele>1020</ele>
        <time>1990-12-06T13:53:55Z</time>
      </trkpt>
      <trkpt lat="44.09943" lon="6.31917">
        <ele>1024</ele>
        <time>1990-12-06T13:54:17Z</time>
      </trkpt>
      <trkpt lat="44.09978" lon="6.31892">
        <ele>1023</ele>
        <time>1990-12-06T13:55:06Z</time>
      </trkpt>
      <trkpt lat="44.10023" lon="6.31813">
        <ele>1024</ele>
        <time>1990-12-06T13:55:30Z</time>
      </trkpt>
      <trkpt lat="44.1003" lon="6.31758">
        <ele>1023</ele>
        <time>1990-12-06T13:55:39Z</time>
      </trkpt>
      <trkpt lat="44.10077" lon="6.31703">
        <ele>1023</ele>
        <time>1990-12-06T13:55:55Z</time>
      </trkpt>
      <trkpt lat="44.10093" lon="6.31745">
        <ele>1026</ele>
        <time>1990-12-06T13:56:09Z</time>
      </trkpt>
      <trkpt lat="44.10102" lon="6.31765">
        <ele>1027</ele>
        <time>1990-12-06T13:56:16Z</time>
      </trkpt>
      <trkpt lat="44.10153" lon="6.31827">
        <ele>1025</ele>
        <time>1990-12-06T13:56:32Z</time>
      </trkpt>
      <trkpt lat="44.1022" lon="6.31843">
        <ele>1021</ele>
        <time>1990-12-06T13:56:47Z</time>
      </trkpt>
      <trkpt lat="44.10222" lon="6.31817">
        <ele>1023</ele>
        <time>1990-12-06T13:56:54Z</time>
      </trkpt>
      <trkpt lat="44.1022" lon="6.31763">
        <ele>1026</ele>
        <time>1990-12-06T13:57:18Z</time>
      </trkpt>
      <trkpt lat="44.10228" lon="6.3174">
        <ele>1029</ele>
        <time>1990-12-06T13:57:39Z</time>
      </trkpt>
      <trkpt lat="44.10275" lon="6.31713">
        <ele>1035</ele>
        <time>1990-12-06T13:58:17Z</time>
      </trkpt>
      <trkpt lat="44.10315" lon="6.3176">
        <ele>1035</ele>
        <time>1990-12-06T13:58:44Z</time>
      </trkpt>
      <trkpt lat="44.1034" lon="6.31815">
        <ele>1039</ele>
        <time>1990-12-06T13:59:14Z</time>
      </trkpt>
      <trkpt lat="44.10368" lon="6.31827">
        <ele>1042</ele>
        <time>1990-12-06T13:59:35Z</time>
      </trkpt>
      <trkpt lat="44.10392" lon="6.31797">
        <ele>1047</ele>
        <time>1990-12-06T14:00:02Z</time>
      </trkpt>
      <trkpt lat="44.10427" lon="6.31788">
        <ele>1049</ele>
        <time>1990-12-06T14:00:30Z</time>
      </trkpt>
      <trkpt lat="44.10462" lon="6.31788">
        <ele>1053</ele>
        <time>1990-12-06T14:01:01Z</time>
      </trkpt>
      <trkpt lat="44.1049" lon="6.31818">
        <ele>1056</ele>
        <time>1990-12-06T14:01:26Z</time>
      </trkpt>
      <trkpt lat="44.10513" lon="6.31827">
        <ele>1058</ele>
        <time>1990-12-06T14:01:42Z</time>
      </trkpt>
      <trkpt lat="44.10553" lon="6.31833">
        <ele>1061</ele>
        <time>1990-12-06T14:02:07Z</time>
      </trkpt>
      <trkpt lat="44.10592" lon="6.3183">
        <ele>1064</ele>
        <time>1990-12-06T14:02:34Z</time>
      </trkpt>
      <trkpt lat="44.10642" lon="6.31793">
        <ele>1066</ele>
        <time>1990-12-06T14:03:04Z</time>
      </trkpt>
      <trkpt lat="44.10688" lon="6.3173">
        <ele>1070</ele>
        <time>1990-12-06T14:03:36Z</time>
      </trkpt>
      <trkpt lat="44.10732" lon="6.31657">
        <ele>1069</ele>
        <time>1990-12-06T14:04:04Z</time>
      </trkpt>
      <trkpt lat="44.10755" lon="6.31617">
        <ele>1065</ele>
        <time>1990-12-06T14:06:39Z</time>
      </trkpt>
      <trkpt lat="44.10785" lon="6.31563">
        <ele>1061</ele>
        <time>1990-12-06T14:06:49Z</time>
      </trkpt>
      <trkpt lat="44.10845" lon="6.31473">
        <ele>1056</ele>
        <time>1990-12-06T14:07:04Z</time>
      </trkpt>
      <trkpt lat="44.1087" lon="6.31517">
        <ele>1055</ele>
        <time>1990-12-06T14:07:11Z</time>
      </trkpt>
      <trkpt lat="44.10867" lon="6.31525">
        <ele>1056</ele>
        <time>1990-12-06T14:07:34Z</time>
      </trkpt>
      <trkpt lat="44.10877" lon="6.31588">
        <ele>1060</ele>
        <time>1990-12-06T14:08:03Z</time>
      </trkpt>
      <trkpt lat="44.10883" lon="6.31632">
        <ele>1063</ele>
        <time>1990-12-06T14:08:25Z</time>
      </trkpt>
      <trkpt lat="44.10895" lon="6.3167">
        <ele>1067</ele>
        <time>1990-12-06T14:09:02Z</time>
      </trkpt>
      <trkpt lat="44.10912" lon="6.31733">
        <ele>1072</ele>
        <time>1990-12-06T14:09:34Z</time>
      </trkpt>
      <trkpt lat="44.1091" lon="6.31788">
        <ele>1076</ele>
        <time>1990-12-06T14:10:04Z</time>
      </trkpt>
      <trkpt lat="44.10902" lon="6.31813">
        <ele>1079</ele>
        <time>1990-12-06T14:10:20Z</time>
      </trkpt>
      <trkpt lat="44.109" lon="6.31838">
        <ele>1082</ele>
        <time>1990-12-06T14:10:34Z</time>
      </trkpt>
      <trkpt lat="44.10885" lon="6.31892">
        <ele>1086</ele>
        <time>1990-12-06T14:11:04Z</time>
      </trkpt>
      <trkpt lat="44.10877" lon="6.31925">
        <ele>1090</ele>
        <time>1990-12-06T14:11:26Z</time>
      </trkpt>
      <trkpt lat="44.10868" lon="6.31957">
        <ele>1093</ele>
        <time>1990-12-06T14:11:46Z</time>
      </trkpt>
      <trkpt lat="44.10853" lon="6.32003">
        <ele>1097</ele>
        <time>1990-12-06T14:12:16Z</time>
      </trkpt>
      <trkpt lat="44.10843" lon="6.32048">
        <ele>1100</ele>
        <time>1990-12-06T14:12:43Z</time>
      </trkpt>
      <trkpt lat="44.10842" lon="6.32078">
        <ele>1103</ele>
        <time>1990-12-06T14:13:01Z</time>
      </trkpt>
      <trkpt lat="44.10867" lon="6.32107">
        <ele>1106</ele>
        <time>1990-12-06T14:13:26Z</time>
      </trkpt>
      <trkpt lat="44.10878" lon="6.32107">
        <ele>1107</ele>
        <time>1990-12-06T14:13:55Z</time>
      </trkpt>
      <trkpt lat="44.10903" lon="6.3208">
        <ele>1107</ele>
        <time>1990-12-06T14:16:10Z</time>
      </trkpt>
      <trkpt lat="44.10933" lon="6.32063">
        <ele>1106</ele>
        <time>1990-12-06T14:16:21Z</time>
      </trkpt>
      <trkpt lat="44.10963" lon="6.32098">
        <ele>1103</ele>
        <time>1990-12-06T14:16:29Z</time>
      </trkpt>
      <trkpt lat="44.11043" lon="6.32117">
        <ele>1102</ele>
        <time>1990-12-06T14:16:44Z</time>
      </trkpt>
      <trkpt lat="44.11068" lon="6.32125">
        <ele>1098</ele>
        <time>1990-12-06T14:16:53Z</time>
      </trkpt>
      <trkpt lat="44.11063" lon="6.3216">
        <ele>1096</ele>
        <time>1990-12-06T14:16:59Z</time>
      </trkpt>
      <trkpt lat="44.11057" lon="6.32197">
        <ele>1093</ele>
        <time>1990-12-06T14:17:34Z</time>
      </trkpt>
      <trkpt lat="44.11053" lon="6.32247">
        <ele>1090</ele>
        <time>1990-12-06T14:31:48Z</time>
      </trkpt>
      <trkpt lat="44.11065" lon="6.32272">
        <ele>1089</ele>
        <time>1990-12-06T14:31:56Z</time>
      </trkpt>
      <trkpt lat="44.1109" lon="6.32293">
        <ele>1087</ele>
        <time>1990-12-06T14:32:04Z</time>
      </trkpt>
      <trkpt lat="44.11125" lon="6.32303">
        <ele>1091</ele>
        <time>1990-12-06T14:32:25Z</time>
      </trkpt>
      <trkpt lat="44.1113" lon="6.32307">
        <ele>1090</ele>
        <time>1990-12-06T14:34:08Z</time>
      </trkpt>
      <trkpt lat="44.1113" lon="6.32295">
        <ele>1089</ele>
        <time>1990-12-06T14:34:16Z</time>
      </trkpt>
      <trkpt lat="44.11142" lon="6.32297">
        <ele>1086</ele>
        <time>1990-12-06T14:34:24Z</time>
      </trkpt>
      <trkpt lat="44.11155" lon="6.32345">
        <ele>1083</ele>
        <time>1990-12-06T14:34:41Z</time>
      </trkpt>
      <trkpt lat="44.11173" lon="6.3237">
        <ele>1079</ele>
        <time>1990-12-06T14:34:51Z</time>
      </trkpt>
      <trkpt lat="44.1117" lon="6.3239">
        <ele>1074</ele>
        <time>1990-12-06T15:36:43Z</time>
      </trkpt>
      <trkpt lat="44.1117" lon="6.32407">
        <ele>1074</ele>
        <time>1990-12-06T15:37:02Z</time>
      </trkpt>
      <trkpt lat="44.1117" lon="6.32435">
        <ele>1070</ele>
        <time>1990-12-06T15:37:25Z</time>
      </trkpt>
      <trkpt lat="44.1116" lon="6.32452">
        <ele>1066</ele>
        <time>1990-12-06T15:37:34Z</time>
      </trkpt>
      <trkpt lat="44.1115" lon="6.32463">
        <ele>1062</ele>
        <time>1990-12-06T15:38:05Z</time>
      </trkpt>
      <trkpt lat="44.11157" lon="6.32482">
        <ele>1061</ele>
        <time>1990-12-06T15:39:45Z</time>
      </trkpt>
      <trkpt lat="44.11145" lon="6.32503">
        <ele>1058</ele>
        <time>1990-12-06T15:40:03Z</time>
      </trkpt>
      <trkpt lat="44.11138" lon="6.32513">
        <ele>1056</ele>
        <time>1990-12-06T15:40:12Z</time>
      </trkpt>
      <trkpt lat="44.1114" lon="6.32543">
        <ele>1053</ele>
        <time>1990-12-06T15:40:34Z</time>
      </trkpt>
      <trkpt lat="44.1115" lon="6.3257">
        <ele>1048</ele>
        <time>1990-12-06T15:40:57Z</time>
      </trkpt>
      <trkpt lat="44.11152" lon="6.32587">
        <ele>1042</ele>
        <time>1990-12-06T15:41:30Z</time>
      </trkpt>
      <trkpt lat="44.11157" lon="6.326">
        <ele>1038</ele>
        <time>1990-12-06T15:42:05Z</time>
      </trkpt>
      <trkpt lat="44.11162" lon="6.3262">
        <ele>1034</ele>
        <time>1990-12-06T15:42:33Z</time>
      </trkpt>
      <trkpt lat="44.11155" lon="6.32633">
        <ele>1030</ele>
        <time>1990-12-06T15:42:41Z</time>
      </trkpt>
      <trkpt lat="44.11152" lon="6.32657">
        <ele>1026</ele>
        <time>1990-12-06T15:43:00Z</time>
      </trkpt>
      <trkpt lat="44.11158" lon="6.32685">
        <ele>1021</ele>
        <time>1990-12-06T15:43:12Z</time>
      </trkpt>
      <trkpt lat="44.11158" lon="6.32712">
        <ele>1017</ele>
        <time>1990-12-06T15:43:36Z</time>
      </trkpt>
      <trkpt lat="44.11148" lon="6.32732">
        <ele>1013</ele>
        <time>1990-12-06T15:43:53Z</time>
      </trkpt>
      <trkpt lat="44.11138" lon="6.3273">
        <ele>1010</ele>
        <time>1990-12-06T15:44:14Z</time>
      </trkpt>
      <trkpt lat="44.1113" lon="6.3272">
        <ele>1009</ele>
        <time>1990-12-06T15:44:39Z</time>
      </trkpt>
      <trkpt lat="44.11122" lon="6.3273">
        <ele>1009</ele>
        <time>1990-12-06T15:45:36Z</time>
      </trkpt>
      <trkpt lat="44.11117" lon="6.32748">
        <ele>1010</ele>
        <time>1990-12-06T15:46:17Z</time>
      </trkpt>
      <trkpt lat="44.11138" lon="6.32773">
        <ele>1012</ele>
        <time>1990-12-06T15:46:52Z</time>
      </trkpt>
      <trkpt lat="44.11153" lon="6.32792">
        <ele>1012</ele>
        <time>1990-12-06T15:47:28Z</time>
      </trkpt>
      <trkpt lat="44.11172" lon="6.32805">
        <ele>1013</ele>
        <time>1990-12-06T15:47:52Z</time>
      </trkpt>
      <trkpt lat="44.11185" lon="6.32832">
        <ele>1015</ele>
        <time>1990-12-06T15:48:29Z</time>
      </trkpt>
      <trkpt lat="44.11188" lon="6.3286">
        <ele>1014</ele>
        <time>1990-12-06T15:48:48Z</time>
      </trkpt>
      <trkpt lat="44.11193" lon="6.32905">
        <ele>1013</ele>
        <time>1990-12-06T15:49:11Z</time>
      </trkpt>
      <trkpt lat="44.11197" lon="6.3294">
        <ele>1012</ele>
        <time>1990-12-06T15:49:31Z</time>
      </trkpt>
      <trkpt lat="44.11192" lon="6.32977">
        <ele>1010</ele>
        <time>1990-12-06T15:49:59Z</time>
      </trkpt>
      <trkpt lat="44.11208" lon="6.33003">
        <ele>1009</ele>
        <time>1990-12-06T15:50:32Z</time>
      </trkpt>
      <trkpt lat="44.11215" lon="6.3301">
        <ele>1010</ele>
        <time>1990-12-06T15:51:58Z</time>
      </trkpt>
      <trkpt lat="44.11285" lon="6.3302">
        <ele>1010</ele>
        <time>1990-12-06T15:52:25Z</time>
      </trkpt>
      <trkpt lat="44.11352" lon="6.33038">
        <ele>1009</ele>
        <time>1990-12-06T15:52:49Z</time>
      </trkpt>
      <trkpt lat="44.11382" lon="6.33053">
        <ele>1005</ele>
        <time>1990-12-06T15:52:57Z</time>
      </trkpt>
      <trkpt lat="44.11432" lon="6.33115">
        <ele>1003</ele>
        <time>1990-12-06T15:53:20Z</time>
      </trkpt>
      <trkpt lat="44.11473" lon="6.33185">
        <ele>1000</ele>
        <time>1990-12-06T15:53:44Z</time>
      </trkpt>
      <trkpt lat="44.11485" lon="6.33217">
        <ele>998</ele>
        <time>1990-12-06T15:53:59Z</time>
      </trkpt>
      <trkpt lat="44.11523" lon="6.33265">
        <ele>995</ele>
        <time>1990-12-06T15:54:27Z</time>
      </trkpt>
      <trkpt lat="44.1154" lon="6.3329">
        <ele>991</ele>
        <time>1990-12-06T15:54:38Z</time>
      </trkpt>
      <trkpt lat="44.11558" lon="6.33303">
        <ele>988</ele>
        <time>1990-12-06T15:55:02Z</time>
      </trkpt>
      <trkpt lat="44.1158" lon="6.333">
        <ele>985</ele>
        <time>1990-12-06T15:55:35Z</time>
      </trkpt>
      <trkpt lat="44.11615" lon="6.33292">
        <ele>981</ele>
        <time>1990-12-06T15:56:07Z</time>
      </trkpt>
      <trkpt lat="44.11635" lon="6.33285">
        <ele>976</ele>
        <time>1990-12-06T15:56:43Z</time>
      </trkpt>
      <trkpt lat="44.11635" lon="6.33292">
        <ele>976</ele>
        <time>1990-12-06T15:56:58Z</time>
      </trkpt>
      <trkpt lat="44.1166" lon="6.33308">
        <ele>975</ele>
        <time>1990-12-06T15:57:20Z</time>
      </trkpt>
      <trkpt lat="44.11707" lon="6.33338">
        <ele>969</ele>
        <time>1990-12-06T15:57:52Z</time>
      </trkpt>
      <trkpt lat="44.11758" lon="6.33347">
        <ele>963</ele>
        <time>1990-12-06T15:58:05Z</time>
      </trkpt>
      <trkpt lat="44.11805" lon="6.33338">
        <ele>960</ele>
        <time>1990-12-06T15:58:19Z</time>
      </trkpt>
      <trkpt lat="44.11835" lon="6.33333">
        <ele>957</ele>
        <time>1990-12-06T15:58:25Z</time>
      </trkpt>
      <trkpt lat="44.11863" lon="6.33335">
        <ele>954</ele>
        <time>1990-12-06T15:58:33Z</time>
      </trkpt>
      <trkpt lat="44.1189" lon="6.33352">
        <ele>951</ele>
        <time>1990-12-06T15:58:39Z</time>
      </trkpt>
      <trkpt lat="44.11942" lon="6.33388">
        <ele>944</ele>
        <time>1990-12-06T15:58:56Z</time>
      </trkpt>
      <trkpt lat="44.11965" lon="6.3342">
        <ele>942</ele>
        <time>1990-12-06T15:59:02Z</time>
      </trkpt>
      <trkpt lat="44.1204" lon="6.33437">
        <ele>947</ele>
        <time>1990-12-06T15:59:24Z</time>
      </trkpt>
      <trkpt lat="44.12092" lon="6.33438">
        <ele>952</ele>
        <time>1990-12-06T15:59:48Z</time>
      </trkpt>
      <trkpt lat="44.12108" lon="6.33453">
        <ele>956</ele>
        <time>1990-12-06T16:00:00Z</time>
      </trkpt>
      <trkpt lat="44.12135" lon="6.33418">
        <ele>958</ele>
        <time>1990-12-06T16:00:21Z</time>
      </trkpt>
      <trkpt lat="44.12158" lon="6.33408">
        <ele>961</ele>
        <time>1990-12-06T16:13:03Z</time>
      </trkpt>
      <trkpt lat="44.12177" lon="6.33412">
        <ele>964</ele>
        <time>1990-12-06T16:13:14Z</time>
      </trkpt>
      <trkpt lat="44.12225" lon="6.3342">
        <ele>968</ele>
        <time>1990-12-06T16:13:42Z</time>
      </trkpt>
      <trkpt lat="44.1226" lon="6.33433">
        <ele>970</ele>
        <time>1990-12-06T16:14:03Z</time>
      </trkpt>
      <trkpt lat="44.12267" lon="6.33432">
        <ele>970</ele>
        <time>1990-12-06T16:14:19Z</time>
      </trkpt>
      <trkpt lat="44.12323" lon="6.33423">
        <ele>971</ele>
        <time>1990-12-06T16:14:50Z</time>
      </trkpt>
      <trkpt lat="44.12365" lon="6.33402">
        <ele>970</ele>
        <time>1990-12-06T16:15:14Z</time>
      </trkpt>
      <trkpt lat="44.12367" lon="6.33402">
        <ele>970</ele>
        <time>1990-12-06T16:15:56Z</time>
      </trkpt>
      <trkpt lat="44.12392" lon="6.3342">
        <ele>969</ele>
        <time>1990-12-06T16:16:03Z</time>
      </trkpt>
      <trkpt lat="44.1245" lon="6.33443">
        <ele>971</ele>
        <time>1990-12-06T16:16:18Z</time>
      </trkpt>
      <trkpt lat="44.12462" lon="6.33485">
        <ele>968</ele>
        <time>1990-12-06T16:16:31Z</time>
      </trkpt>
      <trkpt lat="44.1248" lon="6.33528">
        <ele>965</ele>
        <time>1990-12-06T16:16:39Z</time>
      </trkpt>
      <trkpt lat="44.12515" lon="6.33573">
        <ele>962</ele>
        <time>1990-12-06T16:16:56Z</time>
      </trkpt>
      <trkpt lat="44.12535" lon="6.3358">
        <ele>962</ele>
        <time>1990-12-06T16:17:11Z</time>
      </trkpt>
      <trkpt lat="44.12585" lon="6.3359">
        <ele>963</ele>
        <time>1990-12-06T16:17:38Z</time>
      </trkpt>
      <trkpt lat="44.12628" lon="6.33618">
        <ele>965</ele>
        <time>1990-12-06T16:17:56Z</time>
      </trkpt>
      <trkpt lat="44.12665" lon="6.33658">
        <ele>960</ele>
        <time>1990-12-06T16:18:28Z</time>
      </trkpt>
      <trkpt lat="44.12678" lon="6.33672">
        <ele>957</ele>
        <time>1990-12-06T16:18:48Z</time>
      </trkpt>
      <trkpt lat="44.12695" lon="6.33723">
        <ele>954</ele>
        <time>1990-12-06T16:19:04Z</time>
      </trkpt>
      <trkpt lat="44.12697" lon="6.33737">
        <ele>952</ele>
        <time>1990-12-06T16:19:11Z</time>
      </trkpt>
      <trkpt lat="44.1273" lon="6.33732">
        <ele>955</ele>
        <time>1990-12-06T16:19:26Z</time>
      </trkpt>
      <trkpt lat="44.1277" lon="6.33718">
        <ele>960</ele>
        <time>1990-12-06T16:19:54Z</time>
      </trkpt>
      <trkpt lat="44.12803" lon="6.33697">
        <ele>965</ele>
        <time>1990-12-06T16:20:23Z</time>
      </trkpt>
      <trkpt lat="44.12842" lon="6.3367">
        <ele>971</ele>
        <time>1990-12-06T16:20:53Z</time>
      </trkpt>
      <trkpt lat="44.12867" lon="6.33645">
        <ele>975</ele>
        <time>1990-12-06T16:21:23Z</time>
      </trkpt>
      <trkpt lat="44.12887" lon="6.33632">
        <ele>978</ele>
        <time>1990-12-06T16:21:50Z</time>
      </trkpt>
      <trkpt lat="44.12905" lon="6.33638">
        <ele>979</ele>
        <time>1990-12-06T16:22:33Z</time>
      </trkpt>
      <trkpt lat="44.12915" lon="6.33652">
        <ele>978</ele>
        <time>1990-12-06T16:35:56Z</time>
      </trkpt>
      <trkpt lat="44.12933" lon="6.33655">
        <ele>979</ele>
        <time>1990-12-06T16:36:04Z</time>
      </trkpt>
      <trkpt lat="44.12988" lon="6.3361">
        <ele>978</ele>
        <time>1990-12-06T16:36:27Z</time>
      </trkpt>
      <trkpt lat="44.13012" lon="6.33612">
        <ele>979</ele>
        <time>1990-12-06T16:37:02Z</time>
      </trkpt>
      <trkpt lat="44.13035" lon="6.33615">
        <ele>977</ele>
        <time>1990-12-06T16:37:58Z</time>
      </trkpt>
      <trkpt lat="44.13068" lon="6.33648">
        <ele>973</ele>
        <time>1990-12-06T16:38:05Z</time>
      </trkpt>
      <trkpt lat="44.13138" lon="6.33657">
        <ele>972</ele>
        <time>1990-12-06T16:38:21Z</time>
      </trkpt>
      <trkpt lat="44.13168" lon="6.33687">
        <ele>969</ele>
        <time>1990-12-06T16:38:28Z</time>
      </trkpt>
      <trkpt lat="44.13215" lon="6.33703">
        <ele>966</ele>
        <time>1990-12-06T16:38:36Z</time>
      </trkpt>
      <trkpt lat="44.1324" lon="6.33697">
        <ele>964</ele>
        <time>1990-12-06T16:38:41Z</time>
      </trkpt>
      <trkpt lat="44.1332" lon="6.33685">
        <ele>958</ele>
        <time>1990-12-06T16:38:55Z</time>
      </trkpt>
      <trkpt lat="44.134" lon="6.3369">
        <ele>951</ele>
        <time>1990-12-06T16:39:17Z</time>
      </trkpt>
      <trkpt lat="44.1342" lon="6.3369">
        <ele>949</ele>
        <time>1990-12-06T16:40:52Z</time>
      </trkpt>
      <trkpt lat="44.13425" lon="6.33775">
        <ele>946</ele>
        <time>1990-12-06T16:41:14Z</time>
      </trkpt>
      <trkpt lat="44.13423" lon="6.33782">
        <ele>945</ele>
        <time>1990-12-06T16:41:17Z</time>
      </trkpt>
      <trkpt lat="44.13407" lon="6.33813">
        <ele>939</ele>
        <time>1990-12-06T16:41:32Z</time>
      </trkpt>
      <trkpt lat="44.13397" lon="6.3383">
        <ele>936</ele>
        <time>1990-12-06T16:41:39Z</time>
      </trkpt>
      <trkpt lat="44.13383" lon="6.33838">
        <ele>933</ele>
        <time>1990-12-06T16:41:47Z</time>
      </trkpt>
      <trkpt lat="44.1337" lon="6.3386">
        <ele>926</ele>
        <time>1990-12-06T16:41:58Z</time>
      </trkpt>
      <trkpt lat="44.13358" lon="6.33878">
        <ele>923</ele>
        <time>1990-12-06T16:42:08Z</time>
      </trkpt>
      <trkpt lat="44.13358" lon="6.33903">
        <ele>920</ele>
        <time>1990-12-06T16:42:26Z</time>
      </trkpt>
      <trkpt lat="44.13332" lon="6.33927">
        <ele>918</ele>
        <time>1990-12-06T16:42:55Z</time>
      </trkpt>
      <trkpt lat="44.13315" lon="6.33945">
        <ele>914</ele>
        <time>1990-12-06T16:43:04Z</time>
      </trkpt>
      <trkpt lat="44.133" lon="6.33973">
        <ele>909</ele>
        <time>1990-12-06T16:43:15Z</time>
      </trkpt>
      <trkpt lat="44.13285" lon="6.33992">
        <ele>904</ele>
        <time>1990-12-06T16:43:27Z</time>
      </trkpt>
      <trkpt lat="44.13268" lon="6.34028">
        <ele>900</ele>
        <time>1990-12-06T16:43:38Z</time>
      </trkpt>
      <trkpt lat="44.13267" lon="6.3406">
        <ele>897</ele>
        <time>1990-12-06T16:43:45Z</time>
      </trkpt>
      <trkpt lat="44.13263" lon="6.34085">
        <ele>893</ele>
        <time>1990-12-06T16:43:53Z</time>
      </trkpt>
      <trkpt lat="44.1325" lon="6.3414">
        <ele>886</ele>
        <time>1990-12-06T16:44:10Z</time>
      </trkpt>
      <trkpt lat="44.13247" lon="6.34158">
        <ele>884</ele>
        <time>1990-12-06T16:44:16Z</time>
      </trkpt>
      <trkpt lat="44.13257" lon="6.34167">
        <ele>880</ele>
        <time>1990-12-06T16:44:23Z</time>
      </trkpt>
      <trkpt lat="44.13283" lon="6.34157">
        <ele>876</ele>
        <time>1990-12-06T16:44:32Z</time>
      </trkpt>
      <trkpt lat="44.13295" lon="6.3415">
        <ele>874</ele>
        <time>1990-12-06T16:45:11Z</time>
      </trkpt>
      <trkpt lat="44.1333" lon="6.34163">
        <ele>870</ele>
        <time>1990-12-06T16:45:20Z</time>
      </trkpt>
      <trkpt lat="44.13343" lon="6.34165">
        <ele>868</ele>
        <time>1990-12-06T16:45:23Z</time>
      </trkpt>
      <trkpt lat="44.1336" lon="6.34208">
        <ele>870</ele>
        <time>1990-12-06T16:45:34Z</time>
      </trkpt>
      <trkpt lat="44.1342" lon="6.3424">
        <ele>874</ele>
        <time>1990-12-06T16:46:04Z</time>
      </trkpt>
      <trkpt lat="44.13458" lon="6.34277">
        <ele>878</ele>
        <time>1990-12-06T16:46:29Z</time>
      </trkpt>
      <trkpt lat="44.1345" lon="6.34287">
        <ele>879</ele>
        <time>1990-12-06T16:46:43Z</time>
      </trkpt>
      <trkpt lat="44.13452" lon="6.34288">
        <ele>879</ele>
        <time>1990-12-06T16:47:46Z</time>
      </trkpt>
      <trkpt lat="44.13408" lon="6.34395">
        <ele>881</ele>
        <time>1990-12-06T16:48:12Z</time>
      </trkpt>
      <trkpt lat="44.1333" lon="6.34502">
        <ele>880</ele>
        <time>1990-12-06T16:48:40Z</time>
      </trkpt>
      <trkpt lat="44.13287" lon="6.3454">
        <ele>878</ele>
        <time>1990-12-06T16:48:54Z</time>
      </trkpt>
      <trkpt lat="44.13253" lon="6.34537">
        <ele>880</ele>
        <time>1990-12-06T16:49:05Z</time>
      </trkpt>
      <trkpt lat="44.13268" lon="6.34582">
        <ele>884</ele>
        <time>1990-12-06T16:49:28Z</time>
      </trkpt>
      <trkpt lat="44.13278" lon="6.34605">
        <ele>885</ele>
        <time>1990-12-06T16:49:48Z</time>
      </trkpt>
      <trkpt lat="44.13265" lon="6.34597">
        <ele>887</ele>
        <time>1990-12-06T16:49:58Z</time>
      </trkpt>
      <trkpt lat="44.13253" lon="6.34607">
        <ele>890</ele>
        <time>1990-12-06T16:52:01Z</time>
      </trkpt>
      <trkpt lat="44.13282" lon="6.34605">
        <ele>885</ele>
        <time>1990-12-06T16:52:11Z</time>
      </trkpt>
      <trkpt lat="44.13315" lon="6.34613">
        <ele>885</ele>
        <time>1990-12-06T16:52:20Z</time>
      </trkpt>
      <trkpt lat="44.13355" lon="6.3459">
        <ele>890</ele>
        <time>1990-12-06T16:52:49Z</time>
      </trkpt>
      <trkpt lat="44.13397" lon="6.34615">
        <ele>894</ele>
        <time>1990-12-06T16:53:24Z</time>
      </trkpt>
      <trkpt lat="44.1343" lon="6.34665">
        <ele>899</ele>
        <time>1990-12-06T16:53:52Z</time>
      </trkpt>
      <trkpt lat="44.1343" lon="6.34678">
        <ele>899</ele>
        <time>1990-12-06T16:54:05Z</time>
      </trkpt>
      <trkpt lat="44.13443" lon="6.34732">
        <ele>904</ele>
        <time>1990-12-06T16:54:35Z</time>
      </trkpt>
      <trkpt lat="44.13455" lon="6.34783">
        <ele>908</ele>
        <time>1990-12-06T16:55:05Z</time>
      </trkpt>
      <trkpt lat="44.13468" lon="6.34837">
        <ele>912</ele>
        <time>1990-12-06T16:55:38Z</time>
      </trkpt>
      <trkpt lat="44.1349" lon="6.3488">
        <ele>916</ele>
        <time>1990-12-06T16:56:07Z</time>
      </trkpt>
      <trkpt lat="44.13497" lon="6.34908">
        <ele>919</ele>
        <time>1990-12-06T16:56:26Z</time>
      </trkpt>
      <trkpt lat="44.13465" lon="6.34898">
        <ele>922</ele>
        <time>1990-12-06T16:56:51Z</time>
      </trkpt>
      <trkpt lat="44.13452" lon="6.34887">
        <ele>923</ele>
        <time>1990-12-06T16:57:03Z</time>
      </trkpt>
      <trkpt lat="44.13413" lon="6.34862">
        <ele>927</ele>
        <time>1990-12-06T16:57:35Z</time>
      </trkpt>
      <trkpt lat="44.13367" lon="6.34865">
        <ele>930</ele>
        <time>1990-12-06T16:58:06Z</time>
      </trkpt>
      <trkpt lat="44.13365" lon="6.349">
        <ele>933</ele>
        <time>1990-12-06T16:58:26Z</time>
      </trkpt>
      <trkpt lat="44.13397" lon="6.34948">
        <ele>937</ele>
        <time>1990-12-06T16:59:00Z</time>
      </trkpt>
      <trkpt lat="44.134" lon="6.3499">
        <ele>940</ele>
        <time>1990-12-06T16:59:23Z</time>
      </trkpt>
      <trkpt lat="44.13388" lon="6.35025">
        <ele>943</ele>
        <time>1990-12-06T16:59:44Z</time>
      </trkpt>
      <trkpt lat="44.13378" lon="6.35067">
        <ele>945</ele>
        <time>1990-12-06T17:00:06Z</time>
      </trkpt>
      <trkpt lat="44.13383" lon="6.35128">
        <ele>947</ele>
        <time>1990-12-06T17:00:27Z</time>
      </trkpt>
      <trkpt lat="44.13422" lon="6.35188">
        <ele>951</ele>
        <time>1990-12-06T17:00:55Z</time>
      </trkpt>
      <trkpt lat="44.13438" lon="6.35253">
        <ele>955</ele>
        <time>1990-12-06T17:01:28Z</time>
      </trkpt>
      <trkpt lat="44.13425" lon="6.35292">
        <ele>958</ele>
        <time>1990-12-06T17:01:47Z</time>
      </trkpt>
      <trkpt lat="44.1339" lon="6.35332">
        <ele>962</ele>
        <time>1990-12-06T17:02:20Z</time>
      </trkpt>
      <trkpt lat="44.13385" lon="6.35385">
        <ele>966</ele>
        <time>1990-12-06T17:02:46Z</time>
      </trkpt>
      <trkpt lat="44.1339" lon="6.35408">
        <ele>968</ele>
        <time>1990-12-06T17:02:58Z</time>
      </trkpt>
      <trkpt lat="44.13383" lon="6.35438">
        <ele>972</ele>
        <time>1990-12-06T17:03:20Z</time>
      </trkpt>
      <trkpt lat="44.13373" lon="6.35435">
        <ele>973</ele>
        <time>1990-12-06T17:03:28Z</time>
      </trkpt>
      <trkpt lat="44.13353" lon="6.35432">
        <ele>974</ele>
        <time>1990-12-06T17:03:43Z</time>
      </trkpt>
      <trkpt lat="44.13335" lon="6.35432">
        <ele>976</ele>
        <time>1990-12-06T17:03:57Z</time>
      </trkpt>
      <trkpt lat="44.13315" lon="6.35438">
        <ele>979</ele>
        <time>1990-12-06T17:05:52Z</time>
      </trkpt>
      <trkpt lat="44.13293" lon="6.35448">
        <ele>982</ele>
        <time>1990-12-06T17:07:25Z</time>
      </trkpt>
      <trkpt lat="44.1324" lon="6.35428">
        <ele>986</ele>
        <time>1990-12-06T17:07:54Z</time>
      </trkpt>
      <trkpt lat="44.13188" lon="6.35377">
        <ele>992</ele>
        <time>1990-12-06T17:08:26Z</time>
      </trkpt>
      <trkpt lat="44.1313" lon="6.35367">
        <ele>997</ele>
        <time>1990-12-06T17:08:53Z</time>
      </trkpt>
      <trkpt lat="44.13068" lon="6.35397">
        <ele>998</ele>
        <time>1990-12-06T17:09:17Z</time>
      </trkpt>
      <trkpt lat="44.1299" lon="6.35507">
        <ele>1001</ele>
        <time>1990-12-06T17:09:48Z</time>
      </trkpt>
      <trkpt lat="44.12922" lon="6.35505">
        <ele>1007</ele>
        <time>1990-12-06T17:10:14Z</time>
      </trkpt>
      <trkpt lat="44.12872" lon="6.35487">
        <ele>1010</ele>
        <time>1990-12-06T17:10:39Z</time>
      </trkpt>
      <trkpt lat="44.1286" lon="6.35437">
        <ele>1013</ele>
        <time>1990-12-06T17:11:02Z</time>
      </trkpt>
      <trkpt lat="44.12855" lon="6.35382">
        <ele>1016</ele>
        <time>1990-12-06T17:11:30Z</time>
      </trkpt>
      <trkpt lat="44.1284" lon="6.3536">
        <ele>1019</ele>
        <time>1990-12-06T17:11:48Z</time>
      </trkpt>
      <trkpt lat="44.1282" lon="6.35337">
        <ele>1022</ele>
        <time>1990-12-06T17:12:08Z</time>
      </trkpt>
      <trkpt lat="44.12812" lon="6.35338">
        <ele>1023</ele>
        <time>1990-12-06T17:12:15Z</time>
      </trkpt>
      <trkpt lat="44.12783" lon="6.3536">
        <ele>1026</ele>
        <time>1990-12-06T17:12:42Z</time>
      </trkpt>
      <trkpt lat="44.12738" lon="6.35345">
        <ele>1029</ele>
        <time>1990-12-06T17:13:10Z</time>
      </trkpt>
      <trkpt lat="44.12715" lon="6.3535">
        <ele>1032</ele>
        <time>1990-12-06T17:13:29Z</time>
      </trkpt>
      <trkpt lat="44.1272" lon="6.35363">
        <ele>1033</ele>
        <time>1990-12-06T17:13:38Z</time>
      </trkpt>
      <trkpt lat="44.12715" lon="6.35407">
        <ele>1036</ele>
        <time>1990-12-06T17:14:05Z</time>
      </trkpt>
      <trkpt lat="44.12708" lon="6.35442">
        <ele>1039</ele>
        <time>1990-12-06T17:14:27Z</time>
      </trkpt>
      <trkpt lat="44.12707" lon="6.3546">
        <ele>1041</ele>
        <time>1990-12-06T17:14:40Z</time>
      </trkpt>
      <trkpt lat="44.12712" lon="6.35492">
        <ele>1044</ele>
        <time>1990-12-06T17:14:59Z</time>
      </trkpt>
      <trkpt lat="44.12677" lon="6.355">
        <ele>1047</ele>
        <time>1990-12-06T17:15:28Z</time>
      </trkpt>
      <trkpt lat="44.12663" lon="6.35482">
        <ele>1049</ele>
        <time>1990-12-06T17:15:47Z</time>
      </trkpt>
      <trkpt lat="44.1265" lon="6.35478">
        <ele>1051</ele>
        <time>1990-12-06T17:16:04Z</time>
      </trkpt>
      <trkpt lat="44.12642" lon="6.3551">
        <ele>1053</ele>
        <time>1990-12-06T17:16:26Z</time>
      </trkpt>
      <trkpt lat="44.1264" lon="6.35532">
        <ele>1055</ele>
        <time>1990-12-06T17:16:42Z</time>
      </trkpt>
      <trkpt lat="44.12635" lon="6.35545">
        <ele>1056</ele>
        <time>1990-12-06T17:16:51Z</time>
      </trkpt>
      <trkpt lat="44.1262" lon="6.35578">
        <ele>1059</ele>
        <time>1990-12-06T17:17:17Z</time>
      </trkpt>
      <trkpt lat="44.12607" lon="6.35602">
        <ele>1062</ele>
        <time>1990-12-06T17:17:38Z</time>
      </trkpt>
      <trkpt lat="44.1259" lon="6.35628">
        <ele>1065</ele>
        <time>1990-12-06T17:18:06Z</time>
      </trkpt>
      <trkpt lat="44.12558" lon="6.35645">
        <ele>1068</ele>
        <time>1990-12-06T17:18:37Z</time>
      </trkpt>
      <trkpt lat="44.1254" lon="6.3566">
        <ele>1069</ele>
        <time>1990-12-06T17:18:57Z</time>
      </trkpt>
      <trkpt lat="44.12535" lon="6.35687">
        <ele>1072</ele>
        <time>1990-12-06T17:19:16Z</time>
      </trkpt>
      <trkpt lat="44.12552" lon="6.35715">
        <ele>1073</ele>
        <time>1990-12-06T17:19:37Z</time>
      </trkpt>
      <trkpt lat="44.12578" lon="6.35733">
        <ele>1076</ele>
        <time>1990-12-06T17:19:58Z</time>
      </trkpt>
      <trkpt lat="44.12588" lon="6.35738">
        <ele>1076</ele>
        <time>1990-12-06T17:20:18Z</time>
      </trkpt>
      <trkpt lat="44.12587" lon="6.35767">
        <ele>1078</ele>
        <time>1990-12-06T17:21:20Z</time>
      </trkpt>
      <trkpt lat="44.12557" lon="6.35868">
        <ele>1082</ele>
        <time>1990-12-06T17:21:50Z</time>
      </trkpt>
      <trkpt lat="44.12532" lon="6.3594">
        <ele>1085</ele>
        <time>1990-12-06T17:22:17Z</time>
      </trkpt>
      <trkpt lat="44.12512" lon="6.35972">
        <ele>1087</ele>
        <time>1990-12-06T17:23:45Z</time>
      </trkpt>
      <trkpt lat="44.12513" lon="6.36072">
        <ele>1091</ele>
        <time>1990-12-06T17:24:16Z</time>
      </trkpt>
      <trkpt lat="44.12537" lon="6.36133">
        <ele>1094</ele>
        <time>1990-12-06T17:24:43Z</time>
      </trkpt>
      <trkpt lat="44.12545" lon="6.3616">
        <ele>1096</ele>
        <time>1990-12-06T17:24:57Z</time>
      </trkpt>
      <trkpt lat="44.12563" lon="6.36203">
        <ele>1099</ele>
        <time>1990-12-06T17:25:19Z</time>
      </trkpt>
      <trkpt lat="44.12572" lon="6.36222">
        <ele>1100</ele>
        <time>1990-12-06T17:25:30Z</time>
      </trkpt>
      <trkpt lat="44.12575" lon="6.36248">
        <ele>1104</ele>
        <time>1990-12-06T17:25:56Z</time>
      </trkpt>
      <trkpt lat="44.12568" lon="6.36293">
        <ele>1107</ele>
        <time>1990-12-06T17:28:09Z</time>
      </trkpt>
      <trkpt lat="44.12572" lon="6.36307">
        <ele>1108</ele>
        <time>1990-12-06T17:28:16Z</time>
      </trkpt>
      <trkpt lat="44.12572" lon="6.36337">
        <ele>1110</ele>
        <time>1990-12-06T17:28:31Z</time>
      </trkpt>
      <trkpt lat="44.1258" lon="6.36388">
        <ele>1113</ele>
        <time>1990-12-06T17:28:59Z</time>
      </trkpt>
      <trkpt lat="44.12543" lon="6.36448">
        <ele>1114</ele>
        <time>1990-12-06T17:29:27Z</time>
      </trkpt>
      <trkpt lat="44.12525" lon="6.36485">
        <ele>1115</ele>
        <time>1990-12-06T17:29:41Z</time>
      </trkpt>
      <trkpt lat="44.12535" lon="6.3651">
        <ele>1117</ele>
        <time>1990-12-06T17:29:50Z</time>
      </trkpt>
      <trkpt lat="44.12537" lon="6.36522">
        <ele>1117</ele>
        <time>1990-12-06T17:29:56Z</time>
      </trkpt>
      <trkpt lat="44.12552" lon="6.36553">
        <ele>1120</ele>
        <time>1990-12-06T17:30:10Z</time>
      </trkpt>
      <trkpt lat="44.1257" lon="6.36588">
        <ele>1123</ele>
        <time>1990-12-06T17:30:29Z</time>
      </trkpt>
      <trkpt lat="44.12588" lon="6.3663">
        <ele>1127</ele>
        <time>1990-12-06T17:30:55Z</time>
      </trkpt>
      <trkpt lat="44.12592" lon="6.36648">
        <ele>1130</ele>
        <time>1990-12-06T17:31:07Z</time>
      </trkpt>
      <trkpt lat="44.12568" lon="6.36683">
        <ele>1134</ele>
        <time>1990-12-06T17:31:33Z</time>
      </trkpt>
      <trkpt lat="44.12545" lon="6.36723">
        <ele>1139</ele>
        <time>1990-12-06T17:32:01Z</time>
      </trkpt>
      <trkpt lat="44.12507" lon="6.3677">
        <ele>1146</ele>
        <time>1990-12-06T17:32:20Z</time>
      </trkpt>
      <trkpt lat="44.12498" lon="6.36783">
        <ele>1147</ele>
        <time>1990-12-06T17:32:24Z</time>
      </trkpt>
      <trkpt lat="44.1247" lon="6.36785">
        <ele>1151</ele>
        <time>1990-12-06T17:32:45Z</time>
      </trkpt>
      <trkpt lat="44.12452" lon="6.36798">
        <ele>1154</ele>
        <time>1990-12-06T17:33:03Z</time>
      </trkpt>
      <trkpt lat="44.12435" lon="6.36822">
        <ele>1157</ele>
        <time>1990-12-06T17:33:28Z</time>
      </trkpt>
      <trkpt lat="44.1241" lon="6.36842">
        <ele>1160</ele>
        <time>1990-12-06T17:33:54Z</time>
      </trkpt>
      <trkpt lat="44.12408" lon="6.3688">
        <ele>1163</ele>
        <time>1990-12-06T17:34:18Z</time>
      </trkpt>
      <trkpt lat="44.12408" lon="6.36903">
        <ele>1166</ele>
        <time>1990-12-06T17:34:36Z</time>
      </trkpt>
      <trkpt lat="44.1241" lon="6.36923">
        <ele>1170</ele>
        <time>1990-12-06T17:38:44Z</time>
      </trkpt>
      <trkpt lat="44.12398" lon="6.36973">
        <ele>1174</ele>
        <time>1990-12-06T17:39:08Z</time>
      </trkpt>
      <trkpt lat="44.12393" lon="6.37023">
        <ele>1179</ele>
        <time>1990-12-06T17:39:38Z</time>
      </trkpt>
      <trkpt lat="44.1239" lon="6.37053">
        <ele>1181</ele>
        <time>1990-12-06T17:39:55Z</time>
      </trkpt>
      <trkpt lat="44.12387" lon="6.37077">
        <ele>1184</ele>
        <time>1990-12-06T17:40:08Z</time>
      </trkpt>
      <trkpt lat="44.12387" lon="6.37088">
        <ele>1185</ele>
        <time>1990-12-06T17:40:15Z</time>
      </trkpt>
      <trkpt lat="44.12385" lon="6.3711">
        <ele>1187</ele>
        <time>1990-12-06T17:40:28Z</time>
      </trkpt>
      <trkpt lat="44.12378" lon="6.37135">
        <ele>1190</ele>
        <time>1990-12-06T17:40:41Z</time>
      </trkpt>
      <trkpt lat="44.12377" lon="6.37167">
        <ele>1193</ele>
        <time>1990-12-06T17:40:58Z</time>
      </trkpt>
      <trkpt lat="44.12373" lon="6.37182">
        <ele>1194</ele>
        <time>1990-12-06T17:41:07Z</time>
      </trkpt>
      <trkpt lat="44.12357" lon="6.372">
        <ele>1196</ele>
        <time>1990-12-06T17:41:24Z</time>
      </trkpt>
      <trkpt lat="44.12342" lon="6.37212">
        <ele>1198</ele>
        <time>1990-12-06T17:41:38Z</time>
      </trkpt>
      <trkpt lat="44.12325" lon="6.37247">
        <ele>1202</ele>
        <time>1990-12-06T17:42:06Z</time>
      </trkpt>
      <trkpt lat="44.12307" lon="6.3727">
        <ele>1205</ele>
        <time>1990-12-06T17:42:24Z</time>
      </trkpt>
      <trkpt lat="44.12287" lon="6.37283">
        <ele>1207</ele>
        <time>1990-12-06T17:42:51Z</time>
      </trkpt>
      <trkpt lat="44.12272" lon="6.37293">
        <ele>1209</ele>
        <time>1990-12-06T17:46:53Z</time>
      </trkpt>
      <trkpt lat="44.12225" lon="6.3733">
        <ele>1209</ele>
        <time>1990-12-06T17:47:23Z</time>
      </trkpt>
      <trkpt lat="44.12188" lon="6.37367">
        <ele>1206</ele>
        <time>1990-12-06T17:47:35Z</time>
      </trkpt>
      <trkpt lat="44.12142" lon="6.3741">
        <ele>1200</ele>
        <time>1990-12-06T17:47:51Z</time>
      </trkpt>
      <trkpt lat="44.12092" lon="6.37415">
        <ele>1196</ele>
        <time>1990-12-06T17:48:03Z</time>
      </trkpt>
      <trkpt lat="44.12058" lon="6.37435">
        <ele>1193</ele>
        <time>1990-12-06T17:48:11Z</time>
      </trkpt>
      <trkpt lat="44.12012" lon="6.37478">
        <ele>1190</ele>
        <time>1990-12-06T17:48:23Z</time>
      </trkpt>
      <trkpt lat="44.1198" lon="6.37522">
        <ele>1189</ele>
        <time>1990-12-06T17:48:34Z</time>
      </trkpt>
      <trkpt lat="44.12005" lon="6.37567">
        <ele>1189</ele>
        <time>1990-12-06T17:48:46Z</time>
      </trkpt>
      <trkpt lat="44.12045" lon="6.37628">
        <ele>1192</ele>
        <time>1990-12-06T17:49:08Z</time>
      </trkpt>
      <trkpt lat="44.12045" lon="6.37642">
        <ele>1193</ele>
        <time>1990-12-06T17:49:38Z</time>
      </trkpt>
      <trkpt lat="44.12067" lon="6.3768">
        <ele>1196</ele>
        <time>1990-12-06T17:49:58Z</time>
      </trkpt>
      <trkpt lat="44.12078" lon="6.37722">
        <ele>1199</ele>
        <time>1990-12-06T17:50:18Z</time>
      </trkpt>
      <trkpt lat="44.12093" lon="6.37763">
        <ele>1202</ele>
        <time>1990-12-06T17:50:44Z</time>
      </trkpt>
      <trkpt lat="44.121" lon="6.37792">
        <ele>1205</ele>
        <time>1990-12-06T17:51:02Z</time>
      </trkpt>
      <trkpt lat="44.12103" lon="6.37833">
        <ele>1208</ele>
        <time>1990-12-06T17:51:29Z</time>
      </trkpt>
      <trkpt lat="44.1211" lon="6.37865">
        <ele>1211</ele>
        <time>1990-12-06T17:51:49Z</time>
      </trkpt>
      <trkpt lat="44.12112" lon="6.37903">
        <ele>1214</ele>
        <time>1990-12-06T17:52:14Z</time>
      </trkpt>
      <trkpt lat="44.12097" lon="6.37927">
        <ele>1218</ele>
        <time>1990-12-06T17:52:34Z</time>
      </trkpt>
      <trkpt lat="44.12077" lon="6.37952">
        <ele>1221</ele>
        <time>1990-12-06T17:53:03Z</time>
      </trkpt>
      <trkpt lat="44.12062" lon="6.37997">
        <ele>1224</ele>
        <time>1990-12-06T17:53:30Z</time>
      </trkpt>
      <trkpt lat="44.12045" lon="6.38033">
        <ele>1227</ele>
        <time>1990-12-06T17:53:55Z</time>
      </trkpt>
      <trkpt lat="44.12058" lon="6.38075">
        <ele>1230</ele>
        <time>1990-12-06T17:54:21Z</time>
      </trkpt>
      <trkpt lat="44.12065" lon="6.38103">
        <ele>1233</ele>
        <time>1990-12-06T17:54:40Z</time>
      </trkpt>
      <trkpt lat="44.12047" lon="6.38128">
        <ele>1236</ele>
        <time>1990-12-06T17:55:02Z</time>
      </trkpt>
      <trkpt lat="44.12033" lon="6.38142">
        <ele>1238</ele>
        <time>1990-12-06T17:55:19Z</time>
      </trkpt>
      <trkpt lat="44.12025" lon="6.38183">
        <ele>1241</ele>
        <time>1990-12-06T17:55:44Z</time>
      </trkpt>
      <trkpt lat="44.12005" lon="6.3822">
        <ele>1244</ele>
        <time>1990-12-06T17:56:09Z</time>
      </trkpt>
      <trkpt lat="44.11995" lon="6.38245">
        <ele>1246</ele>
        <time>1990-12-06T17:56:23Z</time>
      </trkpt>
      <trkpt lat="44.11978" lon="6.38292">
        <ele>1249</ele>
        <time>1990-12-06T17:56:51Z</time>
      </trkpt>
      <trkpt lat="44.1196" lon="6.38327">
        <ele>1252</ele>
        <time>1990-12-06T17:57:15Z</time>
      </trkpt>
      <trkpt lat="44.11948" lon="6.38355">
        <ele>1255</ele>
        <time>1990-12-06T17:57:37Z</time>
      </trkpt>
      <trkpt lat="44.11928" lon="6.38382">
        <ele>1258</ele>
        <time>1990-12-06T17:58:02Z</time>
      </trkpt>
      <trkpt lat="44.11922" lon="6.38402">
        <ele>1259</ele>
        <time>1990-12-06T17:58:16Z</time>
      </trkpt>
      <trkpt lat="44.1192" lon="6.38412">
        <ele>1260</ele>
        <time>1990-12-06T17:58:22Z</time>
      </trkpt>
      <trkpt lat="44.11903" lon="6.38453">
        <ele>1264</ele>
        <time>1990-12-06T17:58:50Z</time>
      </trkpt>
      <trkpt lat="44.11888" lon="6.38472">
        <ele>1266</ele>
        <time>1990-12-06T17:59:09Z</time>
      </trkpt>
      <trkpt lat="44.11878" lon="6.38502">
        <ele>1269</ele>
        <time>1990-12-06T17:59:31Z</time>
      </trkpt>
      <trkpt lat="44.11872" lon="6.3851">
        <ele>1271</ele>
        <time>1990-12-06T17:59:56Z</time>
      </trkpt>
      <trkpt lat="44.1187" lon="6.38528">
        <ele>1274</ele>
        <time>1990-12-06T18:04:43Z</time>
      </trkpt>
      <trkpt lat="44.11867" lon="6.38565">
        <ele>1278</ele>
        <time>1990-12-06T18:05:03Z</time>
      </trkpt>
      <trkpt lat="44.11868" lon="6.38577">
        <ele>1279</ele>
        <time>1990-12-06T18:05:09Z</time>
      </trkpt>
      <trkpt lat="44.11875" lon="6.38652">
        <ele>1284</ele>
        <time>1990-12-06T18:05:38Z</time>
      </trkpt>
      <trkpt lat="44.11868" lon="6.3872">
        <ele>1288</ele>
        <time>1990-12-06T18:06:09Z</time>
      </trkpt>
      <trkpt lat="44.11845" lon="6.38738">
        <ele>1290</ele>
        <time>1990-12-06T18:06:27Z</time>
      </trkpt>
      <trkpt lat="44.11832" lon="6.38748">
        <ele>1292</ele>
        <time>1990-12-06T18:06:39Z</time>
      </trkpt>
      <trkpt lat="44.11822" lon="6.38755">
        <ele>1293</ele>
        <time>1990-12-06T18:06:47Z</time>
      </trkpt>
      <trkpt lat="44.11803" lon="6.38765">
        <ele>1295</ele>
        <time>1990-12-06T18:07:03Z</time>
      </trkpt>
      <trkpt lat="44.11787" lon="6.38763">
        <ele>1296</ele>
        <time>1990-12-06T18:07:15Z</time>
      </trkpt>
      <trkpt lat="44.11767" lon="6.38757">
        <ele>1298</ele>
        <time>1990-12-06T18:07:33Z</time>
      </trkpt>
      <trkpt lat="44.11743" lon="6.3878">
        <ele>1303</ele>
        <time>1990-12-06T18:08:03Z</time>
      </trkpt>
      <trkpt lat="44.11735" lon="6.38788">
        <ele>1304</ele>
        <time>1990-12-06T18:08:10Z</time>
      </trkpt>
      <trkpt lat="44.11712" lon="6.38805">
        <ele>1307</ele>
        <time>1990-12-06T18:08:32Z</time>
      </trkpt>
      <trkpt lat="44.11688" lon="6.38842">
        <ele>1311</ele>
        <time>1990-12-06T18:09:00Z</time>
      </trkpt>
      <trkpt lat="44.11675" lon="6.3886">
        <ele>1313</ele>
        <time>1990-12-06T18:09:16Z</time>
      </trkpt>
      <trkpt lat="44.11655" lon="6.38873">
        <ele>1316</ele>
        <time>1990-12-06T18:09:40Z</time>
      </trkpt>
      <trkpt lat="44.11643" lon="6.38883">
        <ele>1318</ele>
        <time>1990-12-06T18:09:55Z</time>
      </trkpt>
      <trkpt lat="44.11633" lon="6.38888">
        <ele>1319</ele>
        <time>1990-12-06T18:10:10Z</time>
      </trkpt>
      <trkpt lat="44.11608" lon="6.38903">
        <ele>1323</ele>
        <time>1990-12-06T18:10:39Z</time>
      </trkpt>
      <trkpt lat="44.11585" lon="6.38902">
        <ele>1325</ele>
        <time>1990-12-06T18:11:02Z</time>
      </trkpt>
      <trkpt lat="44.11565" lon="6.3889">
        <ele>1327</ele>
        <time>1990-12-06T18:11:25Z</time>
      </trkpt>
      <trkpt lat="44.11542" lon="6.38918">
        <ele>1331</ele>
        <time>1990-12-06T18:11:55Z</time>
      </trkpt>
      <trkpt lat="44.11528" lon="6.38932">
        <ele>1332</ele>
        <time>1990-12-06T18:12:09Z</time>
      </trkpt>
      <trkpt lat="44.11508" lon="6.38963">
        <ele>1335</ele>
        <time>1990-12-06T18:12:40Z</time>
      </trkpt>
      <trkpt lat="44.11497" lon="6.38988">
        <ele>1338</ele>
        <time>1990-12-06T18:13:35Z</time>
      </trkpt>
      <trkpt lat="44.11465" lon="6.39012">
        <ele>1342</ele>
        <time>1990-12-06T18:14:08Z</time>
      </trkpt>
      <trkpt lat="44.11453" lon="6.3901">
        <ele>1344</ele>
        <time>1990-12-06T18:14:20Z</time>
      </trkpt>
      <trkpt lat="44.11432" lon="6.39005">
        <ele>1346</ele>
        <time>1990-12-06T18:14:39Z</time>
      </trkpt>
      <trkpt lat="44.11412" lon="6.39">
        <ele>1349</ele>
        <time>1990-12-06T18:14:57Z</time>
      </trkpt>
      <trkpt lat="44.114" lon="6.39">
        <ele>1350</ele>
        <time>1990-12-06T18:15:06Z</time>
      </trkpt>
      <trkpt lat="44.11377" lon="6.38993">
        <ele>1353</ele>
        <time>1990-12-06T18:15:27Z</time>
      </trkpt>
      <trkpt lat="44.11367" lon="6.38992">
        <ele>1355</ele>
        <time>1990-12-06T18:15:38Z</time>
      </trkpt>
      <trkpt lat="44.11333" lon="6.38987">
        <ele>1358</ele>
        <time>1990-12-06T18:16:07Z</time>
      </trkpt>
      <trkpt lat="44.11323" lon="6.38977">
        <ele>1359</ele>
        <time>1990-12-06T18:16:18Z</time>
      </trkpt>
      <trkpt lat="44.11315" lon="6.38963">
        <ele>1360</ele>
        <time>1990-12-06T18:16:29Z</time>
      </trkpt>
      <trkpt lat="44.11285" lon="6.38972">
        <ele>1363</ele>
        <time>1990-12-06T18:17:00Z</time>
      </trkpt>
      <trkpt lat="44.11262" lon="6.38973">
        <ele>1363</ele>
        <time>1990-12-06T18:17:17Z</time>
      </trkpt>
      <trkpt lat="44.11222" lon="6.38982">
        <ele>1362</ele>
        <time>1990-12-06T18:17:40Z</time>
      </trkpt>
      <trkpt lat="44.11257" lon="6.39022">
        <ele>1366</ele>
        <time>1990-12-06T18:18:03Z</time>
      </trkpt>
      <trkpt lat="44.1132" lon="6.39055">
        <ele>1366</ele>
        <time>1990-12-06T18:18:28Z</time>
      </trkpt>
      <trkpt lat="44.11357" lon="6.39073">
        <ele>1368</ele>
        <time>1990-12-06T18:18:45Z</time>
      </trkpt>
      <trkpt lat="44.11412" lon="6.39093">
        <ele>1370</ele>
        <time>1990-12-06T18:19:05Z</time>
      </trkpt>
      <trkpt lat="44.11398" lon="6.39115">
        <ele>1371</ele>
        <time>1990-12-06T18:19:14Z</time>
      </trkpt>
      <trkpt lat="44.11332" lon="6.39173">
        <ele>1372</ele>
        <time>1990-12-06T18:19:31Z</time>
      </trkpt>
      <trkpt lat="44.11313" lon="6.39223">
        <ele>1373</ele>
        <time>1990-12-06T18:19:53Z</time>
      </trkpt>
      <trkpt lat="44.1132" lon="6.39283">
        <ele>1376</ele>
        <time>1990-12-06T18:20:24Z</time>
      </trkpt>
      <trkpt lat="44.11327" lon="6.39343">
        <ele>1379</ele>
        <time>1990-12-06T18:20:54Z</time>
      </trkpt>
      <trkpt lat="44.11325" lon="6.39393">
        <ele>1383</ele>
        <time>1990-12-06T18:21:22Z</time>
      </trkpt>
      <trkpt lat="44.11318" lon="6.3943">
        <ele>1385</ele>
        <time>1990-12-06T18:21:44Z</time>
      </trkpt>
      <trkpt lat="44.11303" lon="6.39452">
        <ele>1386</ele>
        <time>1990-12-06T18:22:01Z</time>
      </trkpt>
      <trkpt lat="44.11292" lon="6.39473">
        <ele>1388</ele>
        <time>1990-12-06T18:22:18Z</time>
      </trkpt>
      <trkpt lat="44.1129" lon="6.3948">
        <ele>1389</ele>
        <time>1990-12-06T18:22:22Z</time>
      </trkpt>
      <trkpt lat="44.11283" lon="6.39507">
        <ele>1391</ele>
        <time>1990-12-06T18:22:41Z</time>
      </trkpt>
      <trkpt lat="44.11285" lon="6.39533">
        <ele>1393</ele>
        <time>1990-12-06T18:22:58Z</time>
      </trkpt>
      <trkpt lat="44.1129" lon="6.39575">
        <ele>1396</ele>
        <time>1990-12-06T18:23:29Z</time>
      </trkpt>
      <trkpt lat="44.11313" lon="6.39583">
        <ele>1399</ele>
        <time>1990-12-06T18:23:49Z</time>
      </trkpt>
      <trkpt lat="44.11325" lon="6.39597">
        <ele>1401</ele>
        <time>1990-12-06T18:24:05Z</time>
      </trkpt>
      <trkpt lat="44.11348" lon="6.39625">
        <ele>1404</ele>
        <time>1990-12-06T18:24:33Z</time>
      </trkpt>
      <trkpt lat="44.11365" lon="6.39627">
        <ele>1405</ele>
        <time>1990-12-06T18:24:47Z</time>
      </trkpt>
      <trkpt lat="44.11378" lon="6.39613">
        <ele>1406</ele>
        <time>1990-12-06T18:25:01Z</time>
      </trkpt>
      <trkpt lat="44.11385" lon="6.39628">
        <ele>1408</ele>
        <time>1990-12-06T18:25:12Z</time>
      </trkpt>
      <trkpt lat="44.11372" lon="6.39637">
        <ele>1408</ele>
        <time>1990-12-06T18:25:26Z</time>
      </trkpt>
      <trkpt lat="44.11363" lon="6.39642">
        <ele>1409</ele>
        <time>1990-12-06T18:25:32Z</time>
      </trkpt>
      <trkpt lat="44.11332" lon="6.39647">
        <ele>1412</ele>
        <time>1990-12-06T18:26:01Z</time>
      </trkpt>
      <trkpt lat="44.11308" lon="6.39637">
        <ele>1414</ele>
        <time>1990-12-06T18:26:23Z</time>
      </trkpt>
      <trkpt lat="44.11302" lon="6.3964">
        <ele>1415</ele>
        <time>1990-12-06T18:26:31Z</time>
      </trkpt>
      <trkpt lat="44.11302" lon="6.39655">
        <ele>1417</ele>
        <time>1990-12-06T18:26:41Z</time>
      </trkpt>
      <trkpt lat="44.11333" lon="6.3968">
        <ele>1420</ele>
        <time>1990-12-06T18:27:13Z</time>
      </trkpt>
      <trkpt lat="44.11363" lon="6.39705">
        <ele>1424</ele>
        <time>1990-12-06T18:27:44Z</time>
      </trkpt>
      <trkpt lat="44.11392" lon="6.39713">
        <ele>1427</ele>
        <time>1990-12-06T18:28:10Z</time>
      </trkpt>
      <trkpt lat="44.1142" lon="6.3971">
        <ele>1430</ele>
        <time>1990-12-06T18:28:38Z</time>
      </trkpt>
      <trkpt lat="44.11435" lon="6.39692">
        <ele>1432</ele>
        <time>1990-12-06T18:28:56Z</time>
      </trkpt>
      <trkpt lat="44.11443" lon="6.39668">
        <ele>1434</ele>
        <time>1990-12-06T18:29:13Z</time>
      </trkpt>
      <trkpt lat="44.11453" lon="6.3965">
        <ele>1435</ele>
        <time>1990-12-06T18:29:26Z</time>
      </trkpt>
      <trkpt lat="44.11457" lon="6.39635">
        <ele>1435</ele>
        <time>1990-12-06T18:29:36Z</time>
      </trkpt>
      <trkpt lat="44.11467" lon="6.39647">
        <ele>1437</ele>
        <time>1990-12-06T18:29:48Z</time>
      </trkpt>
      <trkpt lat="44.11462" lon="6.3967">
        <ele>1439</ele>
        <time>1990-12-06T18:30:02Z</time>
      </trkpt>
      <trkpt lat="44.11463" lon="6.39722">
        <ele>1442</ele>
        <time>1990-12-06T18:30:33Z</time>
      </trkpt>
      <trkpt lat="44.11462" lon="6.3975">
        <ele>1444</ele>
        <time>1990-12-06T18:30:52Z</time>
      </trkpt>
      <trkpt lat="44.1146" lon="6.39748">
        <ele>1445</ele>
        <time>1990-12-06T18:33:29Z</time>
      </trkpt>
      <trkpt lat="44.11437" lon="6.39768">
        <ele>1448</ele>
        <time>1990-12-06T18:33:46Z</time>
      </trkpt>
      <trkpt lat="44.11397" lon="6.3978">
        <ele>1453</ele>
        <time>1990-12-06T18:34:15Z</time>
      </trkpt>
      <trkpt lat="44.11368" lon="6.39783">
        <ele>1457</ele>
        <time>1990-12-06T18:34:42Z</time>
      </trkpt>
      <trkpt lat="44.11335" lon="6.39783">
        <ele>1460</ele>
        <time>1990-12-06T18:35:12Z</time>
      </trkpt>
      <trkpt lat="44.11307" lon="6.39792">
        <ele>1463</ele>
        <time>1990-12-06T18:35:40Z</time>
      </trkpt>
      <trkpt lat="44.11292" lon="6.39798">
        <ele>1465</ele>
        <time>1990-12-06T18:35:55Z</time>
      </trkpt>
      <trkpt lat="44.11262" lon="6.39803">
        <ele>1470</ele>
        <time>1990-12-06T18:36:23Z</time>
      </trkpt>
      <trkpt lat="44.11232" lon="6.3981">
        <ele>1474</ele>
        <time>1990-12-06T18:36:56Z</time>
      </trkpt>
      <trkpt lat="44.11212" lon="6.39812">
        <ele>1476</ele>
        <time>1990-12-06T18:37:15Z</time>
      </trkpt>
      <trkpt lat="44.11195" lon="6.3981">
        <ele>1479</ele>
        <time>1990-12-06T18:37:33Z</time>
      </trkpt>
      <trkpt lat="44.11177" lon="6.39812">
        <ele>1481</ele>
        <time>1990-12-06T18:37:49Z</time>
      </trkpt>
      <trkpt lat="44.1117" lon="6.39812">
        <ele>1482</ele>
        <time>1990-12-06T18:37:55Z</time>
      </trkpt>
      <trkpt lat="44.11148" lon="6.39805">
        <ele>1485</ele>
        <time>1990-12-06T18:38:16Z</time>
      </trkpt>
      <trkpt lat="44.11123" lon="6.39787">
        <ele>1488</ele>
        <time>1990-12-06T18:38:40Z</time>
      </trkpt>
      <trkpt lat="44.11098" lon="6.39793">
        <ele>1491</ele>
        <time>1990-12-06T18:39:04Z</time>
      </trkpt>
      <trkpt lat="44.11083" lon="6.39807">
        <ele>1494</ele>
        <time>1990-12-06T18:39:21Z</time>
      </trkpt>
      <trkpt lat="44.11067" lon="6.39823">
        <ele>1496</ele>
        <time>1990-12-06T18:39:41Z</time>
      </trkpt>
      <trkpt lat="44.11047" lon="6.3984">
        <ele>1499</ele>
        <time>1990-12-06T18:40:09Z</time>
      </trkpt>
      <trkpt lat="44.11012" lon="6.39855">
        <ele>1502</ele>
        <time>1990-12-06T18:40:37Z</time>
      </trkpt>
      <trkpt lat="44.11007" lon="6.39868">
        <ele>1502</ele>
        <time>1990-12-06T18:41:05Z</time>
      </trkpt>
      <trkpt lat="44.11005" lon="6.39872">
        <ele>1505</ele>
        <time>1990-12-06T18:52:32Z</time>
      </trkpt>
      <trkpt lat="44.10978" lon="6.39903">
        <ele>1503</ele>
        <time>1990-12-06T18:53:02Z</time>
      </trkpt>
      <trkpt lat="44.10978" lon="6.39903">
        <ele>1502</ele>
        <time>1990-12-06T18:56:03Z</time>
      </trkpt>
      <trkpt lat="44.10975" lon="6.39903">
        <ele>1502</ele>
        <time>1990-12-06T18:56:07Z</time>
      </trkpt>
      <trkpt lat="44.10968" lon="6.39897">
        <ele>1499</ele>
        <time>1990-12-06T18:56:12Z</time>
      </trkpt>
      <trkpt lat="44.10953" lon="6.3988">
        <ele>1495</ele>
        <time>1990-12-06T18:56:22Z</time>
      </trkpt>
      <trkpt lat="44.10938" lon="6.3987">
        <ele>1493</ele>
        <time>1990-12-06T18:56:36Z</time>
      </trkpt>
      <trkpt lat="44.10895" lon="6.39863">
        <ele>1486</ele>
        <time>1990-12-06T18:57:09Z</time>
      </trkpt>
      <trkpt lat="44.10855" lon="6.39855">
        <ele>1480</ele>
        <time>1990-12-06T18:57:21Z</time>
      </trkpt>
      <trkpt lat="44.1085" lon="6.39853">
        <ele>1478</ele>
        <time>1990-12-06T18:57:48Z</time>
      </trkpt>
      <trkpt lat="44.10822" lon="6.39845">
        <ele>1474</ele>
        <time>1990-12-06T18:58:04Z</time>
      </trkpt>
      <trkpt lat="44.1079" lon="6.39852">
        <ele>1469</ele>
        <time>1990-12-06T18:58:14Z</time>
      </trkpt>
      <trkpt lat="44.10772" lon="6.39848">
        <ele>1466</ele>
        <time>1990-12-06T18:58:20Z</time>
      </trkpt>
      <trkpt lat="44.10738" lon="6.39852">
        <ele>1462</ele>
        <time>1990-12-06T18:58:31Z</time>
      </trkpt>
      <trkpt lat="44.10713" lon="6.39865">
        <ele>1457</ele>
        <time>1990-12-06T18:58:51Z</time>
      </trkpt>
      <trkpt lat="44.10707" lon="6.39862">
        <ele>1455</ele>
        <time>1990-12-06T18:59:25Z</time>
      </trkpt>
      <trkpt lat="44.10687" lon="6.39858">
        <ele>1451</ele>
        <time>1990-12-06T19:01:13Z</time>
      </trkpt>
      <trkpt lat="44.10675" lon="6.3985">
        <ele>1448</ele>
        <time>1990-12-06T19:01:39Z</time>
      </trkpt>
      <trkpt lat="44.10662" lon="6.3984">
        <ele>1445</ele>
        <time>1990-12-06T19:02:55Z</time>
      </trkpt>
      <trkpt lat="44.10638" lon="6.39838">
        <ele>1442</ele>
        <time>1990-12-06T19:05:14Z</time>
      </trkpt>
      <trkpt lat="44.10615" lon="6.39832">
        <ele>1436</ele>
        <time>1990-12-06T19:05:45Z</time>
      </trkpt>
      <trkpt lat="44.1061" lon="6.39832">
        <ele>1435</ele>
        <time>1990-12-06T19:05:58Z</time>
      </trkpt>
      <trkpt lat="44.10592" lon="6.39832">
        <ele>1430</ele>
        <time>1990-12-06T19:06:27Z</time>
      </trkpt>
      <trkpt lat="44.10573" lon="6.39823">
        <ele>1424</ele>
        <time>1990-12-06T19:06:57Z</time>
      </trkpt>
      <trkpt lat="44.10553" lon="6.39812">
        <ele>1419</ele>
        <time>1990-12-06T19:07:32Z</time>
      </trkpt>
      <trkpt lat="44.10535" lon="6.39815">
        <ele>1414</ele>
        <time>1990-12-06T19:08:00Z</time>
      </trkpt>
      <trkpt lat="44.10523" lon="6.39813">
        <ele>1412</ele>
        <time>1990-12-06T19:08:43Z</time>
      </trkpt>
      <trkpt lat="44.10513" lon="6.39805">
        <ele>1413</ele>
        <time>1990-12-06T19:09:31Z</time>
      </trkpt>
      <trkpt lat="44.105" lon="6.39798">
        <ele>1409</ele>
        <time>1990-12-06T19:10:09Z</time>
      </trkpt>
      <trkpt lat="44.10492" lon="6.398">
        <ele>1405</ele>
        <time>1990-12-06T19:10:46Z</time>
      </trkpt>
      <trkpt lat="44.10487" lon="6.39802">
        <ele>1401</ele>
        <time>1990-12-06T19:14:02Z</time>
      </trkpt>
      <trkpt lat="44.10467" lon="6.39798">
        <ele>1395</ele>
        <time>1990-12-06T19:14:25Z</time>
      </trkpt>
      <trkpt lat="44.10452" lon="6.398">
        <ele>1388</ele>
        <time>1990-12-06T19:14:49Z</time>
      </trkpt>
      <trkpt lat="44.10442" lon="6.39805">
        <ele>1383</ele>
        <time>1990-12-06T19:15:09Z</time>
      </trkpt>
      <trkpt lat="44.10443" lon="6.3979">
        <ele>1381</ele>
        <time>1990-12-06T19:16:12Z</time>
      </trkpt>
      <trkpt lat="44.10437" lon="6.39783">
        <ele>1379</ele>
        <time>1990-12-06T19:17:46Z</time>
      </trkpt>
      <trkpt lat="44.10427" lon="6.3979">
        <ele>1373</ele>
        <time>1990-12-06T19:18:27Z</time>
      </trkpt>
      <trkpt lat="44.10415" lon="6.39787">
        <ele>1367</ele>
        <time>1990-12-06T19:18:53Z</time>
      </trkpt>
      <trkpt lat="44.10402" lon="6.3977">
        <ele>1360</ele>
        <time>1990-12-06T19:19:27Z</time>
      </trkpt>
      <trkpt lat="44.1039" lon="6.3977">
        <ele>1358</ele>
        <time>1990-12-06T19:20:09Z</time>
      </trkpt>
      <trkpt lat="44.1038" lon="6.39767">
        <ele>1355</ele>
        <time>1990-12-06T19:20:18Z</time>
      </trkpt>
      <trkpt lat="44.10347" lon="6.39752">
        <ele>1348</ele>
        <time>1990-12-06T19:20:37Z</time>
      </trkpt>
      <trkpt lat="44.10323" lon="6.39723">
        <ele>1342</ele>
        <time>1990-12-06T19:20:51Z</time>
      </trkpt>
      <trkpt lat="44.10313" lon="6.39723">
        <ele>1340</ele>
        <time>1990-12-06T19:20:56Z</time>
      </trkpt>
      <trkpt lat="44.10295" lon="6.39717">
        <ele>1334</ele>
        <time>1990-12-06T19:21:05Z</time>
      </trkpt>
      <trkpt lat="44.10277" lon="6.39705">
        <ele>1331</ele>
        <time>1990-12-06T19:21:09Z</time>
      </trkpt>
      <trkpt lat="44.10255" lon="6.39697">
        <ele>1328</ele>
        <time>1990-12-06T19:21:13Z</time>
      </trkpt>
      <trkpt lat="44.10228" lon="6.3969">
        <ele>1327</ele>
        <time>1990-12-06T19:21:25Z</time>
      </trkpt>
      <trkpt lat="44.10215" lon="6.39685">
        <ele>1323</ele>
        <time>1990-12-06T19:21:49Z</time>
      </trkpt>
      <trkpt lat="44.102" lon="6.39678">
        <ele>1318</ele>
        <time>1990-12-06T19:21:56Z</time>
      </trkpt>
      <trkpt lat="44.10187" lon="6.3968">
        <ele>1314</ele>
        <time>1990-12-06T19:22:09Z</time>
      </trkpt>
      <trkpt lat="44.10153" lon="6.39647">
        <ele>1308</ele>
        <time>1990-12-06T19:22:23Z</time>
      </trkpt>
      <trkpt lat="44.1013" lon="6.3964">
        <ele>1306</ele>
        <time>1990-12-06T19:22:27Z</time>
      </trkpt>
      <trkpt lat="44.10097" lon="6.39645">
        <ele>1303</ele>
        <time>1990-12-06T19:22:49Z</time>
      </trkpt>
      <trkpt lat="44.10072" lon="6.39635">
        <ele>1298</ele>
        <time>1990-12-06T19:24:10Z</time>
      </trkpt>
      <trkpt lat="44.10027" lon="6.3962">
        <ele>1291</ele>
        <time>1990-12-06T19:24:23Z</time>
      </trkpt>
      <trkpt lat="44.10007" lon="6.3961">
        <ele>1288</ele>
        <time>1990-12-06T19:24:29Z</time>
      </trkpt>
      <trkpt lat="44.09997" lon="6.39597">
        <ele>1285</ele>
        <time>1990-12-06T19:24:35Z</time>
      </trkpt>
      <trkpt lat="44.09983" lon="6.39572">
        <ele>1281</ele>
        <time>1990-12-06T19:24:42Z</time>
      </trkpt>
      <trkpt lat="44.09947" lon="6.39547">
        <ele>1277</ele>
        <time>1990-12-06T19:24:56Z</time>
      </trkpt>
      <trkpt lat="44.09912" lon="6.3952">
        <ele>1272</ele>
        <time>1990-12-06T19:25:08Z</time>
      </trkpt>
      <trkpt lat="44.09887" lon="6.3952">
        <ele>1267</ele>
        <time>1990-12-06T19:25:16Z</time>
      </trkpt>
      <trkpt lat="44.09868" lon="6.39522">
        <ele>1264</ele>
        <time>1990-12-06T19:25:23Z</time>
      </trkpt>
      <trkpt lat="44.0984" lon="6.39507">
        <ele>1259</ele>
        <time>1990-12-06T19:25:35Z</time>
      </trkpt>
      <trkpt lat="44.0982" lon="6.39505">
        <ele>1255</ele>
        <time>1990-12-06T19:25:43Z</time>
      </trkpt>
      <trkpt lat="44.09782" lon="6.39497">
        <ele>1250</ele>
        <time>1990-12-06T19:25:55Z</time>
      </trkpt>
      <trkpt lat="44.09773" lon="6.39478">
        <ele>1246</ele>
        <time>1990-12-06T19:26:03Z</time>
      </trkpt>
      <trkpt lat="44.09755" lon="6.39455">
        <ele>1242</ele>
        <time>1990-12-06T19:26:19Z</time>
      </trkpt>
      <trkpt lat="44.0974" lon="6.3945">
        <ele>1238</ele>
        <time>1990-12-06T19:26:43Z</time>
      </trkpt>
      <trkpt lat="44.09713" lon="6.39447">
        <ele>1232</ele>
        <time>1990-12-06T19:27:10Z</time>
      </trkpt>
      <trkpt lat="44.09682" lon="6.39425">
        <ele>1229</ele>
        <time>1990-12-06T19:27:34Z</time>
      </trkpt>
      <trkpt lat="44.09638" lon="6.39387">
        <ele>1227</ele>
        <time>1990-12-06T19:27:45Z</time>
      </trkpt>
      <trkpt lat="44.09635" lon="6.39383">
        <ele>1227</ele>
        <time>1990-12-06T19:27:50Z</time>
      </trkpt>
      <trkpt lat="44.09645" lon="6.39375">
        <ele>1226</ele>
        <time>1990-12-06T19:27:58Z</time>
      </trkpt>
      <trkpt lat="44.09615" lon="6.39373">
        <ele>1226</ele>
        <time>1990-12-06T19:28:53Z</time>
      </trkpt>
      <trkpt lat="44.09585" lon="6.39365">
        <ele>1225</ele>
        <time>1990-12-06T19:29:10Z</time>
      </trkpt>
      <trkpt lat="44.09577" lon="6.39333">
        <ele>1224</ele>
        <time>1990-12-06T19:29:42Z</time>
      </trkpt>
      <trkpt lat="44.09563" lon="6.39288">
        <ele>1220</ele>
        <time>1990-12-06T19:29:56Z</time>
      </trkpt>
      <trkpt lat="44.09538" lon="6.39277">
        <ele>1215</ele>
        <time>1990-12-06T19:30:05Z</time>
      </trkpt>
      <trkpt lat="44.0949" lon="6.3926">
        <ele>1209</ele>
        <time>1990-12-06T19:30:23Z</time>
      </trkpt>
      <trkpt lat="44.09465" lon="6.39263">
        <ele>1203</ele>
        <time>1990-12-06T19:30:33Z</time>
      </trkpt>
      <trkpt lat="44.09443" lon="6.39273">
        <ele>1199</ele>
        <time>1990-12-06T19:30:42Z</time>
      </trkpt>
      <trkpt lat="44.09422" lon="6.39272">
        <ele>1195</ele>
        <time>1990-12-06T19:30:50Z</time>
      </trkpt>
      <trkpt lat="44.09397" lon="6.3926">
        <ele>1191</ele>
        <time>1990-12-06T19:31:11Z</time>
      </trkpt>
      <trkpt lat="44.09372" lon="6.39253">
        <ele>1188</ele>
        <time>1990-12-06T19:31:37Z</time>
      </trkpt>
      <trkpt lat="44.09348" lon="6.39237">
        <ele>1184</ele>
        <time>1990-12-06T19:31:49Z</time>
      </trkpt>
      <trkpt lat="44.09297" lon="6.39218">
        <ele>1176</ele>
        <time>1990-12-06T19:32:08Z</time>
      </trkpt>
      <trkpt lat="44.0923" lon="6.39205">
        <ele>1173</ele>
        <time>1990-12-06T19:32:25Z</time>
      </trkpt>
      <trkpt lat="44.09197" lon="6.39183">
        <ele>1170</ele>
        <time>1990-12-06T19:32:36Z</time>
      </trkpt>
      <trkpt lat="44.09145" lon="6.39188">
        <ele>1165</ele>
        <time>1990-12-06T19:32:50Z</time>
      </trkpt>
      <trkpt lat="44.09097" lon="6.39182">
        <ele>1161</ele>
        <time>1990-12-06T19:33:01Z</time>
      </trkpt>
      <trkpt lat="44.0904" lon="6.39142">
        <ele>1159</ele>
        <time>1990-12-06T19:33:23Z</time>
      </trkpt>
      <trkpt lat="44.09008" lon="6.3906">
        <ele>1157</ele>
        <time>1990-12-06T19:33:43Z</time>
      </trkpt>
      <trkpt lat="44.0898" lon="6.39028">
        <ele>1152</ele>
        <time>1990-12-06T19:33:57Z</time>
      </trkpt>
      <trkpt lat="44.0896" lon="6.39002">
        <ele>1148</ele>
        <time>1990-12-06T19:34:05Z</time>
      </trkpt>
      <trkpt lat="44.08955" lon="6.38927">
        <ele>1146</ele>
        <time>1990-12-06T19:34:27Z</time>
      </trkpt>
      <trkpt lat="44.08953" lon="6.38832">
        <ele>1142</ele>
        <time>1990-12-06T19:34:47Z</time>
      </trkpt>
      <trkpt lat="44.08937" lon="6.38775">
        <ele>1135</ele>
        <time>1990-12-06T19:35:00Z</time>
      </trkpt>
      <trkpt lat="44.0893" lon="6.3874">
        <ele>1132</ele>
        <time>1990-12-06T19:35:10Z</time>
      </trkpt>
      <trkpt lat="44.08923" lon="6.38732">
        <ele>1129</ele>
        <time>1990-12-06T19:35:15Z</time>
      </trkpt>
      <trkpt lat="44.089" lon="6.38728">
        <ele>1125</ele>
        <time>1990-12-06T19:35:22Z</time>
      </trkpt>
      <trkpt lat="44.08858" lon="6.387">
        <ele>1120</ele>
        <time>1990-12-06T19:35:38Z</time>
      </trkpt>
      <trkpt lat="44.08858" lon="6.387">
        <ele>1120</ele>
        <time>1990-12-06T19:36:12Z</time>
      </trkpt>
      <trkpt lat="44.08842" lon="6.38758">
        <ele>1116</ele>
        <time>1990-12-06T19:36:22Z</time>
      </trkpt>
      <trkpt lat="44.08832" lon="6.38805">
        <ele>1110</ele>
        <time>1990-12-06T19:36:28Z</time>
      </trkpt>
      <trkpt lat="44.08835" lon="6.38875">
        <ele>1106</ele>
        <time>1990-12-06T19:36:36Z</time>
      </trkpt>
      <trkpt lat="44.08807" lon="6.38903">
        <ele>1103</ele>
        <time>1990-12-06T19:36:46Z</time>
      </trkpt>
      <trkpt lat="44.08782" lon="6.38865">
        <ele>1103</ele>
        <time>1990-12-06T19:36:53Z</time>
      </trkpt>
      <trkpt lat="44.0873" lon="6.3881">
        <ele>1103</ele>
        <time>1990-12-06T19:37:07Z</time>
      </trkpt>
      <trkpt lat="44.08705" lon="6.3878">
        <ele>1101</ele>
        <time>1990-12-06T19:37:15Z</time>
      </trkpt>
      <trkpt lat="44.0866" lon="6.38737">
        <ele>1097</ele>
        <time>1990-12-06T19:37:28Z</time>
      </trkpt>
      <trkpt lat="44.0862" lon="6.38707">
        <ele>1094</ele>
        <time>1990-12-06T19:37:35Z</time>
      </trkpt>
      <trkpt lat="44.08555" lon="6.3863">
        <ele>1087</ele>
        <time>1990-12-06T19:37:54Z</time>
      </trkpt>
      <trkpt lat="44.08507" lon="6.38588">
        <ele>1084</ele>
        <time>1990-12-06T19:38:03Z</time>
      </trkpt>
      <trkpt lat="44.08485" lon="6.38562">
        <ele>1084</ele>
        <time>1990-12-06T19:38:09Z</time>
      </trkpt>
      <trkpt lat="44.08402" lon="6.38538">
        <ele>1083</ele>
        <time>1990-12-06T19:38:26Z</time>
      </trkpt>
      <trkpt lat="44.08372" lon="6.38543">
        <ele>1082</ele>
        <time>1990-12-06T19:38:35Z</time>
      </trkpt>
      <trkpt lat="44.08318" lon="6.3859">
        <ele>1082</ele>
        <time>1990-12-06T19:38:50Z</time>
      </trkpt>
      <trkpt lat="44.0829" lon="6.38632">
        <ele>1082</ele>
        <time>1990-12-06T19:39:03Z</time>
      </trkpt>
      <trkpt lat="44.08223" lon="6.38595">
        <ele>1079</ele>
        <time>1990-12-06T19:39:22Z</time>
      </trkpt>
      <trkpt lat="44.08207" lon="6.38572">
        <ele>1077</ele>
        <time>1990-12-06T19:39:28Z</time>
      </trkpt>
      <trkpt lat="44.08188" lon="6.38537">
        <ele>1073</ele>
        <time>1990-12-06T19:39:35Z</time>
      </trkpt>
      <trkpt lat="44.08178" lon="6.38505">
        <ele>1072</ele>
        <time>1990-12-06T19:39:40Z</time>
      </trkpt>
      <trkpt lat="44.08157" lon="6.38477">
        <ele>1068</ele>
        <time>1990-12-06T19:39:47Z</time>
      </trkpt>
      <trkpt lat="44.08133" lon="6.3851">
        <ele>1062</ele>
        <time>1990-12-06T19:39:57Z</time>
      </trkpt>
      <trkpt lat="44.08115" lon="6.38507">
        <ele>1060</ele>
        <time>1990-12-06T19:40:02Z</time>
      </trkpt>
      <trkpt lat="44.08092" lon="6.38485">
        <ele>1057</ele>
        <time>1990-12-06T19:40:09Z</time>
      </trkpt>
      <trkpt lat="44.0806" lon="6.38468">
        <ele>1053</ele>
        <time>1990-12-06T19:40:17Z</time>
      </trkpt>
      <trkpt lat="44.08045" lon="6.38408">
        <ele>1047</ele>
        <time>1990-12-06T19:40:31Z</time>
      </trkpt>
      <trkpt lat="44.08063" lon="6.38385">
        <ele>1045</ele>
        <time>1990-12-06T19:40:37Z</time>
      </trkpt>
      <trkpt lat="44.08082" lon="6.38377">
        <ele>1043</ele>
        <time>1990-12-06T19:40:41Z</time>
      </trkpt>
      <trkpt lat="44.08133" lon="6.38362">
        <ele>1038</ele>
        <time>1990-12-06T19:40:55Z</time>
      </trkpt>
      <trkpt lat="44.08138" lon="6.38342">
        <ele>1036</ele>
        <time>1990-12-06T19:41:05Z</time>
      </trkpt>
      <trkpt lat="44.08055" lon="6.38312">
        <ele>1031</ele>
        <time>1990-12-06T19:41:31Z</time>
      </trkpt>
      <trkpt lat="44.07998" lon="6.38305">
        <ele>1026</ele>
        <time>1990-12-06T19:41:43Z</time>
      </trkpt>
      <trkpt lat="44.07965" lon="6.3832">
        <ele>1023</ele>
        <time>1990-12-06T19:41:51Z</time>
      </trkpt>
      <trkpt lat="44.07928" lon="6.3836">
        <ele>1020</ele>
        <time>1990-12-06T19:42:00Z</time>
      </trkpt>
      <trkpt lat="44.07917" lon="6.38392">
        <ele>1017</ele>
        <time>1990-12-06T19:42:06Z</time>
      </trkpt>
      <trkpt lat="44.07878" lon="6.38388">
        <ele>1012</ele>
        <time>1990-12-06T19:42:17Z</time>
      </trkpt>
      <trkpt lat="44.07855" lon="6.38345">
        <ele>1011</ele>
        <time>1990-12-06T19:42:30Z</time>
      </trkpt>
      <trkpt lat="44.07825" lon="6.38315">
        <ele>1011</ele>
        <time>1990-12-06T19:42:57Z</time>
      </trkpt>
      <trkpt lat="44.07757" lon="6.38295">
        <ele>1008</ele>
        <time>1990-12-06T19:43:48Z</time>
      </trkpt>
      <trkpt lat="44.07658" lon="6.38287">
        <ele>1002</ele>
        <time>1990-12-06T19:44:03Z</time>
      </trkpt>
      <trkpt lat="44.07608" lon="6.38283">
        <ele>999</ele>
        <time>1990-12-06T19:44:10Z</time>
      </trkpt>
      <trkpt lat="44.07532" lon="6.38323">
        <ele>995</ele>
        <time>1990-12-06T19:44:23Z</time>
      </trkpt>
      <trkpt lat="44.0748" lon="6.38377">
        <ele>994</ele>
        <time>1990-12-06T19:44:33Z</time>
      </trkpt>
      <trkpt lat="44.07353" lon="6.38442">
        <ele>992</ele>
        <time>1990-12-06T19:44:54Z</time>
      </trkpt>
      <trkpt lat="44.07287" lon="6.38463">
        <ele>992</ele>
        <time>1990-12-06T19:45:06Z</time>
      </trkpt>
      <trkpt lat="44.07228" lon="6.38473">
        <ele>991</ele>
        <time>1990-12-06T19:45:17Z</time>
      </trkpt>
      <trkpt lat="44.07105" lon="6.38575">
        <ele>986</ele>
        <time>1990-12-06T19:45:41Z</time>
      </trkpt>
      <trkpt lat="44.07062" lon="6.3865">
        <ele>980</ele>
        <time>1990-12-06T19:45:51Z</time>
      </trkpt>
      <trkpt lat="44.07038" lon="6.38693">
        <ele>976</ele>
        <time>1990-12-06T19:45:58Z</time>
      </trkpt>
      <trkpt lat="44.06995" lon="6.38725">
        <ele>972</ele>
        <time>1990-12-06T19:46:12Z</time>
      </trkpt>
      <trkpt lat="44.06985" lon="6.38725">
        <ele>971</ele>
        <time>1990-12-06T19:46:36Z</time>
      </trkpt>
      <trkpt lat="44.06992" lon="6.38717">
        <ele>971</ele>
        <time>1990-12-06T19:46:45Z</time>
      </trkpt>
      <trkpt lat="44.06988" lon="6.3872">
        <ele>971</ele>
        <time>1990-12-06T19:47:15Z</time>
      </trkpt>
      <trkpt lat="44.06948" lon="6.3875">
        <ele>969</ele>
        <time>1990-12-06T19:47:39Z</time>
      </trkpt>
      <trkpt lat="44.06915" lon="6.38762">
        <ele>968</ele>
        <time>1990-12-06T19:47:47Z</time>
      </trkpt>
      <trkpt lat="44.06817" lon="6.38733">
        <ele>966</ele>
        <time>1990-12-06T19:48:06Z</time>
      </trkpt>
      <trkpt lat="44.06783" lon="6.38708">
        <ele>965</ele>
        <time>1990-12-06T19:48:15Z</time>
      </trkpt>
      <trkpt lat="44.06753" lon="6.38772">
        <ele>966</ele>
        <time>1990-12-06T19:48:31Z</time>
      </trkpt>
      <trkpt lat="44.06727" lon="6.3882">
        <ele>963</ele>
        <time>1990-12-06T19:48:40Z</time>
      </trkpt>
      <trkpt lat="44.06685" lon="6.38872">
        <ele>960</ele>
        <time>1990-12-06T19:48:51Z</time>
      </trkpt>
      <trkpt lat="44.06683" lon="6.38913">
        <ele>962</ele>
        <time>1990-12-06T19:49:08Z</time>
      </trkpt>
      <trkpt lat="44.06683" lon="6.38908">
        <ele>956</ele>
        <time>1990-12-07T07:49:01Z</time>
      </trkpt>
      <trkpt lat="44.06677" lon="6.38902">
        <ele>956</ele>
        <time>1990-12-07T07:50:21Z</time>
      </trkpt>
      <trkpt lat="44.0668" lon="6.38903">
        <ele>956</ele>
        <time>1990-12-07T07:53:11Z</time>
      </trkpt>
      <trkpt lat="44.06705" lon="6.38937">
        <ele>956</ele>
        <time>1990-12-07T07:53:26Z</time>
      </trkpt>
      <trkpt lat="44.0668" lon="6.38948">
        <ele>952</ele>
        <time>1990-12-07T07:53:35Z</time>
      </trkpt>
      <trkpt lat="44.06717" lon="6.38965">
        <ele>950</ele>
        <time>1990-12-07T07:53:49Z</time>
      </trkpt>
      <trkpt lat="44.06643" lon="6.39058">
        <ele>947</ele>
        <time>1990-12-07T07:54:07Z</time>
      </trkpt>
      <trkpt lat="44.06613" lon="6.39093">
        <ele>946</ele>
        <time>1990-12-07T07:54:13Z</time>
      </trkpt>
      <trkpt lat="44.06592" lon="6.39168">
        <ele>941</ele>
        <time>1990-12-07T07:54:21Z</time>
      </trkpt>
      <trkpt lat="44.06538" lon="6.39297">
        <ele>941</ele>
        <time>1990-12-07T07:54:36Z</time>
      </trkpt>
      <trkpt lat="44.06515" lon="6.39353">
        <ele>941</ele>
        <time>1990-12-07T07:54:45Z</time>
      </trkpt>
      <trkpt lat="44.06502" lon="6.39433">
        <ele>942</ele>
        <time>1990-12-07T07:55:02Z</time>
      </trkpt>
      <trkpt lat="44.06483" lon="6.39512">
        <ele>945</ele>
        <time>1990-12-07T07:55:26Z</time>
      </trkpt>
      <trkpt lat="44.06438" lon="6.39523">
        <ele>943</ele>
        <time>1990-12-07T07:55:39Z</time>
      </trkpt>
      <trkpt lat="44.06377" lon="6.39528">
        <ele>944</ele>
        <time>1990-12-07T07:55:52Z</time>
      </trkpt>
      <trkpt lat="44.06333" lon="6.3964">
        <ele>948</ele>
        <time>1990-12-07T07:56:17Z</time>
      </trkpt>
      <trkpt lat="44.06318" lon="6.39748">
        <ele>950</ele>
        <time>1990-12-07T07:56:43Z</time>
      </trkpt>
      <trkpt lat="44.06317" lon="6.39872">
        <ele>953</ele>
        <time>1990-12-07T07:57:12Z</time>
      </trkpt>
      <trkpt lat="44.0629" lon="6.39973">
        <ele>956</ele>
        <time>1990-12-07T07:57:38Z</time>
      </trkpt>
      <trkpt lat="44.06267" lon="6.40095">
        <ele>960</ele>
        <time>1990-12-07T07:58:05Z</time>
      </trkpt>
      <trkpt lat="44.06255" lon="6.40168">
        <ele>962</ele>
        <time>1990-12-07T07:58:31Z</time>
      </trkpt>
      <trkpt lat="44.06252" lon="6.40212">
        <ele>964</ele>
        <time>1990-12-07T07:58:43Z</time>
      </trkpt>
      <trkpt lat="44.06275" lon="6.4035">
        <ele>969</ele>
        <time>1990-12-07T07:59:13Z</time>
      </trkpt>
      <trkpt lat="44.06315" lon="6.4045">
        <ele>973</ele>
        <time>1990-12-07T07:59:40Z</time>
      </trkpt>
      <trkpt lat="44.0633" lon="6.40572">
        <ele>978</ele>
        <time>1990-12-07T08:00:08Z</time>
      </trkpt>
      <trkpt lat="44.06337" lon="6.40662">
        <ele>980</ele>
        <time>1990-12-07T08:00:29Z</time>
      </trkpt>
      <trkpt lat="44.06317" lon="6.40697">
        <ele>981</ele>
        <time>1990-12-07T08:00:43Z</time>
      </trkpt>
      <trkpt lat="44.06285" lon="6.4077">
        <ele>985</ele>
        <time>1990-12-07T08:01:10Z</time>
      </trkpt>
      <trkpt lat="44.06292" lon="6.40855">
        <ele>991</ele>
        <time>1990-12-07T08:01:37Z</time>
      </trkpt>
      <trkpt lat="44.06315" lon="6.40877">
        <ele>992</ele>
        <time>1990-12-07T08:01:52Z</time>
      </trkpt>
      <trkpt lat="44.06363" lon="6.40888">
        <ele>992</ele>
        <time>1990-12-07T08:02:12Z</time>
      </trkpt>
      <trkpt lat="44.06387" lon="6.40892">
        <ele>992</ele>
        <time>1990-12-07T08:02:23Z</time>
      </trkpt>
      <trkpt lat="44.06423" lon="6.40875">
        <ele>989</ele>
        <time>1990-12-07T08:02:41Z</time>
      </trkpt>
      <trkpt lat="44.06452" lon="6.40905">
        <ele>992</ele>
        <time>1990-12-07T08:03:03Z</time>
      </trkpt>
      <trkpt lat="44.06498" lon="6.40967">
        <ele>997</ele>
        <time>1990-12-07T08:03:30Z</time>
      </trkpt>
      <trkpt lat="44.06555" lon="6.41013">
        <ele>1001</ele>
        <time>1990-12-07T08:03:56Z</time>
      </trkpt>
      <trkpt lat="44.06607" lon="6.41033">
        <ele>1005</ele>
        <time>1990-12-07T08:04:16Z</time>
      </trkpt>
      <trkpt lat="44.06668" lon="6.41063">
        <ele>1009</ele>
        <time>1990-12-07T08:04:41Z</time>
      </trkpt>
      <trkpt lat="44.06712" lon="6.4113">
        <ele>1014</ele>
        <time>1990-12-07T08:05:09Z</time>
      </trkpt>
      <trkpt lat="44.06758" lon="6.41168">
        <ele>1019</ele>
        <time>1990-12-07T08:05:31Z</time>
      </trkpt>
      <trkpt lat="44.06785" lon="6.4119">
        <ele>1021</ele>
        <time>1990-12-07T08:05:42Z</time>
      </trkpt>
      <trkpt lat="44.06807" lon="6.41202">
        <ele>1023</ele>
        <time>1990-12-07T08:05:52Z</time>
      </trkpt>
      <trkpt lat="44.0685" lon="6.41228">
        <ele>1028</ele>
        <time>1990-12-07T08:06:15Z</time>
      </trkpt>
      <trkpt lat="44.06903" lon="6.4124">
        <ele>1034</ele>
        <time>1990-12-07T08:06:42Z</time>
      </trkpt>
      <trkpt lat="44.06932" lon="6.4124">
        <ele>1035</ele>
        <time>1990-12-07T08:06:55Z</time>
      </trkpt>
      <trkpt lat="44.06985" lon="6.41255">
        <ele>1041</ele>
        <time>1990-12-07T08:07:20Z</time>
      </trkpt>
      <trkpt lat="44.07037" lon="6.41267">
        <ele>1047</ele>
        <time>1990-12-07T08:07:46Z</time>
      </trkpt>
      <trkpt lat="44.07033" lon="6.41198">
        <ele>1051</ele>
        <time>1990-12-07T08:08:09Z</time>
      </trkpt>
      <trkpt lat="44.0701" lon="6.41162">
        <ele>1055</ele>
        <time>1990-12-07T08:08:24Z</time>
      </trkpt>
      <trkpt lat="44.0702" lon="6.41168">
        <ele>1056</ele>
        <time>1990-12-07T08:08:42Z</time>
      </trkpt>
      <trkpt lat="44.07082" lon="6.4118">
        <ele>1057</ele>
        <time>1990-12-07T08:09:09Z</time>
      </trkpt>
      <trkpt lat="44.07095" lon="6.41257">
        <ele>1059</ele>
        <time>1990-12-07T08:09:32Z</time>
      </trkpt>
      <trkpt lat="44.07078" lon="6.41342">
        <ele>1059</ele>
        <time>1990-12-07T08:09:58Z</time>
      </trkpt>
      <trkpt lat="44.07037" lon="6.41368">
        <ele>1058</ele>
        <time>1990-12-07T08:10:11Z</time>
      </trkpt>
      <trkpt lat="44.06992" lon="6.41465">
        <ele>1056</ele>
        <time>1990-12-07T08:10:32Z</time>
      </trkpt>
      <trkpt lat="44.06985" lon="6.41488">
        <ele>1056</ele>
        <time>1990-12-07T08:10:36Z</time>
      </trkpt>
      <trkpt lat="44.06957" lon="6.41533">
        <ele>1056</ele>
        <time>1990-12-07T08:10:47Z</time>
      </trkpt>
      <trkpt lat="44.0689" lon="6.41505">
        <ele>1059</ele>
        <time>1990-12-07T08:11:11Z</time>
      </trkpt>
      <trkpt lat="44.0685" lon="6.41538">
        <ele>1062</ele>
        <time>1990-12-07T08:11:29Z</time>
      </trkpt>
      <trkpt lat="44.06812" lon="6.41502">
        <ele>1067</ele>
        <time>1990-12-07T08:11:55Z</time>
      </trkpt>
      <trkpt lat="44.06773" lon="6.41498">
        <ele>1071</ele>
        <time>1990-12-07T08:12:13Z</time>
      </trkpt>
      <trkpt lat="44.06703" lon="6.415">
        <ele>1075</ele>
        <time>1990-12-07T08:12:41Z</time>
      </trkpt>
      <trkpt lat="44.06688" lon="6.41568">
        <ele>1080</ele>
        <time>1990-12-07T08:13:06Z</time>
      </trkpt>
      <trkpt lat="44.0662" lon="6.41592">
        <ele>1086</ele>
        <time>1990-12-07T08:13:34Z</time>
      </trkpt>
      <trkpt lat="44.06558" lon="6.4162">
        <ele>1091</ele>
        <time>1990-12-07T08:14:02Z</time>
      </trkpt>
      <trkpt lat="44.06515" lon="6.41717">
        <ele>1097</ele>
        <time>1990-12-07T08:14:31Z</time>
      </trkpt>
      <trkpt lat="44.06475" lon="6.41813">
        <ele>1104</ele>
        <time>1990-12-07T08:15:00Z</time>
      </trkpt>
      <trkpt lat="44.06433" lon="6.41898">
        <ele>1109</ele>
        <time>1990-12-07T08:15:26Z</time>
      </trkpt>
      <trkpt lat="44.06398" lon="6.41993">
        <ele>1115</ele>
        <time>1990-12-07T08:15:52Z</time>
      </trkpt>
      <trkpt lat="44.06397" lon="6.4204">
        <ele>1118</ele>
        <time>1990-12-07T08:16:06Z</time>
      </trkpt>
      <trkpt lat="44.06442" lon="6.41963">
        <ele>1120</ele>
        <time>1990-12-07T08:16:28Z</time>
      </trkpt>
      <trkpt lat="44.06532" lon="6.41912">
        <ele>1123</ele>
        <time>1990-12-07T08:16:54Z</time>
      </trkpt>
      <trkpt lat="44.06608" lon="6.41857">
        <ele>1130</ele>
        <time>1990-12-07T08:17:22Z</time>
      </trkpt>
      <trkpt lat="44.06697" lon="6.41855">
        <ele>1136</ele>
        <time>1990-12-07T08:17:51Z</time>
      </trkpt>
      <trkpt lat="44.0677" lon="6.41845">
        <ele>1142</ele>
        <time>1990-12-07T08:18:18Z</time>
      </trkpt>
      <trkpt lat="44.0675" lon="6.41922">
        <ele>1147</ele>
        <time>1990-12-07T08:18:45Z</time>
      </trkpt>
      <trkpt lat="44.06697" lon="6.42003">
        <ele>1153</ele>
        <time>1990-12-07T08:19:12Z</time>
      </trkpt>
      <trkpt lat="44.0663" lon="6.42088">
        <ele>1159</ele>
        <time>1990-12-07T08:19:44Z</time>
      </trkpt>
      <trkpt lat="44.06548" lon="6.42143">
        <ele>1166</ele>
        <time>1990-12-07T08:20:14Z</time>
      </trkpt>
      <trkpt lat="44.06522" lon="6.4224">
        <ele>1172</ele>
        <time>1990-12-07T08:20:42Z</time>
      </trkpt>
      <trkpt lat="44.06468" lon="6.4232">
        <ele>1178</ele>
        <time>1990-12-07T08:21:09Z</time>
      </trkpt>
      <trkpt lat="44.06398" lon="6.42353">
        <ele>1184</ele>
        <time>1990-12-07T08:21:34Z</time>
      </trkpt>
      <trkpt lat="44.0636" lon="6.42445">
        <ele>1190</ele>
        <time>1990-12-07T08:22:00Z</time>
      </trkpt>
      <trkpt lat="44.063" lon="6.42505">
        <ele>1196</ele>
        <time>1990-12-07T08:22:26Z</time>
      </trkpt>
      <trkpt lat="44.06228" lon="6.42533">
        <ele>1202</ele>
        <time>1990-12-07T08:22:52Z</time>
      </trkpt>
      <trkpt lat="44.0615" lon="6.4255">
        <ele>1208</ele>
        <time>1990-12-07T08:23:19Z</time>
      </trkpt>
      <trkpt lat="44.06077" lon="6.42592">
        <ele>1214</ele>
        <time>1990-12-07T08:23:45Z</time>
      </trkpt>
      <trkpt lat="44.06015" lon="6.42655">
        <ele>1220</ele>
        <time>1990-12-07T08:24:11Z</time>
      </trkpt>
      <trkpt lat="44.05938" lon="6.42652">
        <ele>1226</ele>
        <time>1990-12-07T08:24:36Z</time>
      </trkpt>
      <trkpt lat="44.05857" lon="6.42675">
        <ele>1231</ele>
        <time>1990-12-07T08:25:02Z</time>
      </trkpt>
      <trkpt lat="44.05808" lon="6.42682">
        <ele>1234</ele>
        <time>1990-12-07T08:25:18Z</time>
      </trkpt>
      <trkpt lat="44.05732" lon="6.42698">
        <ele>1240</ele>
        <time>1990-12-07T08:25:43Z</time>
      </trkpt>
      <trkpt lat="44.05685" lon="6.42693">
        <ele>1245</ele>
        <time>1990-12-07T08:25:58Z</time>
      </trkpt>
      <trkpt lat="44.0561" lon="6.42678">
        <ele>1250</ele>
        <time>1990-12-07T08:26:23Z</time>
      </trkpt>
      <trkpt lat="44.0556" lon="6.42608">
        <ele>1256</ele>
        <time>1990-12-07T08:26:45Z</time>
      </trkpt>
      <trkpt lat="44.0549" lon="6.42625">
        <ele>1262</ele>
        <time>1990-12-07T08:27:09Z</time>
      </trkpt>
      <trkpt lat="44.05433" lon="6.42693">
        <ele>1266</ele>
        <time>1990-12-07T08:27:37Z</time>
      </trkpt>
      <trkpt lat="44.0544" lon="6.42698">
        <ele>1266</ele>
        <time>1990-12-07T08:27:55Z</time>
      </trkpt>
      <trkpt lat="44.05468" lon="6.42703">
        <ele>1269</ele>
        <time>1990-12-07T08:32:46Z</time>
      </trkpt>
      <trkpt lat="44.05525" lon="6.42703">
        <ele>1273</ele>
        <time>1990-12-07T08:33:13Z</time>
      </trkpt>
      <trkpt lat="44.05575" lon="6.42727">
        <ele>1277</ele>
        <time>1990-12-07T08:33:38Z</time>
      </trkpt>
      <trkpt lat="44.05618" lon="6.42757">
        <ele>1280</ele>
        <time>1990-12-07T08:34:02Z</time>
      </trkpt>
      <trkpt lat="44.05642" lon="6.42757">
        <ele>1281</ele>
        <time>1990-12-07T08:34:13Z</time>
      </trkpt>
      <trkpt lat="44.05687" lon="6.4277">
        <ele>1283</ele>
        <time>1990-12-07T08:34:36Z</time>
      </trkpt>
      <trkpt lat="44.05737" lon="6.42787">
        <ele>1285</ele>
        <time>1990-12-07T08:35:00Z</time>
      </trkpt>
      <trkpt lat="44.05802" lon="6.42795">
        <ele>1284</ele>
        <time>1990-12-07T08:35:26Z</time>
      </trkpt>
      <trkpt lat="44.05858" lon="6.42803">
        <ele>1280</ele>
        <time>1990-12-07T08:35:41Z</time>
      </trkpt>
      <trkpt lat="44.05938" lon="6.42825">
        <ele>1279</ele>
        <time>1990-12-07T08:36:02Z</time>
      </trkpt>
      <trkpt lat="44.06003" lon="6.42835">
        <ele>1280</ele>
        <time>1990-12-07T08:36:24Z</time>
      </trkpt>
      <trkpt lat="44.06053" lon="6.42828">
        <ele>1284</ele>
        <time>1990-12-07T08:36:47Z</time>
      </trkpt>
      <trkpt lat="44.06083" lon="6.42823">
        <ele>1287</ele>
        <time>1990-12-07T08:37:06Z</time>
      </trkpt>
      <trkpt lat="44.06095" lon="6.42828">
        <ele>1287</ele>
        <time>1990-12-07T08:37:12Z</time>
      </trkpt>
      <trkpt lat="44.0613" lon="6.42827">
        <ele>1290</ele>
        <time>1990-12-07T08:37:28Z</time>
      </trkpt>
      <trkpt lat="44.06192" lon="6.4282">
        <ele>1292</ele>
        <time>1990-12-07T08:37:57Z</time>
      </trkpt>
      <trkpt lat="44.06238" lon="6.42827">
        <ele>1296</ele>
        <time>1990-12-07T08:38:22Z</time>
      </trkpt>
      <trkpt lat="44.06297" lon="6.42835">
        <ele>1301</ele>
        <time>1990-12-07T08:38:51Z</time>
      </trkpt>
      <trkpt lat="44.06353" lon="6.42843">
        <ele>1305</ele>
        <time>1990-12-07T08:39:19Z</time>
      </trkpt>
      <trkpt lat="44.06378" lon="6.42845">
        <ele>1308</ele>
        <time>1990-12-07T08:39:34Z</time>
      </trkpt>
      <trkpt lat="44.06375" lon="6.4285">
        <ele>1308</ele>
        <time>1990-12-07T08:39:46Z</time>
      </trkpt>
      <trkpt lat="44.06377" lon="6.42867">
        <ele>1312</ele>
        <time>1990-12-07T08:40:02Z</time>
      </trkpt>
      <trkpt lat="44.06392" lon="6.42895">
        <ele>1318</ele>
        <time>1990-12-07T08:40:34Z</time>
      </trkpt>
      <trkpt lat="44.06408" lon="6.42917">
        <ele>1322</ele>
        <time>1990-12-07T08:40:58Z</time>
      </trkpt>
      <trkpt lat="44.06418" lon="6.42935">
        <ele>1326</ele>
        <time>1990-12-07T08:41:17Z</time>
      </trkpt>
      <trkpt lat="44.06438" lon="6.4294">
        <ele>1331</ele>
        <time>1990-12-07T08:41:42Z</time>
      </trkpt>
      <trkpt lat="44.06457" lon="6.42938">
        <ele>1337</ele>
        <time>1990-12-07T08:42:14Z</time>
      </trkpt>
      <trkpt lat="44.06467" lon="6.42963">
        <ele>1343</ele>
        <time>1990-12-07T08:42:48Z</time>
      </trkpt>
      <trkpt lat="44.0649" lon="6.42968">
        <ele>1349</ele>
        <time>1990-12-07T08:43:20Z</time>
      </trkpt>
      <trkpt lat="44.0652" lon="6.42972">
        <ele>1354</ele>
        <time>1990-12-07T08:43:52Z</time>
      </trkpt>
      <trkpt lat="44.06517" lon="6.4297">
        <ele>1355</ele>
        <time>1990-12-07T08:46:11Z</time>
      </trkpt>
      <trkpt lat="44.06535" lon="6.42978">
        <ele>1352</ele>
        <time>1990-12-07T08:46:21Z</time>
      </trkpt>
      <trkpt lat="44.06582" lon="6.4298">
        <ele>1345</ele>
        <time>1990-12-07T08:46:36Z</time>
      </trkpt>
      <trkpt lat="44.06667" lon="6.43025">
        <ele>1343</ele>
        <time>1990-12-07T08:46:58Z</time>
      </trkpt>
      <trkpt lat="44.067" lon="6.43035">
        <ele>1343</ele>
        <time>1990-12-07T08:47:21Z</time>
      </trkpt>
      <trkpt lat="44.06723" lon="6.43032">
        <ele>1343</ele>
        <time>1990-12-07T08:47:34Z</time>
      </trkpt>
      <trkpt lat="44.06735" lon="6.43035">
        <ele>1343</ele>
        <time>1990-12-07T08:47:47Z</time>
      </trkpt>
      <trkpt lat="44.06737" lon="6.43055">
        <ele>1345</ele>
        <time>1990-12-07T08:48:04Z</time>
      </trkpt>
      <trkpt lat="44.06738" lon="6.43115">
        <ele>1349</ele>
        <time>1990-12-07T08:48:32Z</time>
      </trkpt>
      <trkpt lat="44.06752" lon="6.43142">
        <ele>1353</ele>
        <time>1990-12-07T08:48:50Z</time>
      </trkpt>
      <trkpt lat="44.068" lon="6.43145">
        <ele>1349</ele>
        <time>1990-12-07T08:49:10Z</time>
      </trkpt>
      <trkpt lat="44.06823" lon="6.43142">
        <ele>1345</ele>
        <time>1990-12-07T08:49:20Z</time>
      </trkpt>
      <trkpt lat="44.06853" lon="6.43153">
        <ele>1342</ele>
        <time>1990-12-07T08:49:50Z</time>
      </trkpt>
      <trkpt lat="44.0688" lon="6.43187">
        <ele>1339</ele>
        <time>1990-12-07T08:50:13Z</time>
      </trkpt>
      <trkpt lat="44.06908" lon="6.4323">
        <ele>1336</ele>
        <time>1990-12-07T08:50:33Z</time>
      </trkpt>
      <trkpt lat="44.06953" lon="6.43238">
        <ele>1333</ele>
        <time>1990-12-07T08:50:48Z</time>
      </trkpt>
      <trkpt lat="44.06985" lon="6.43215">
        <ele>1329</ele>
        <time>1990-12-07T08:50:59Z</time>
      </trkpt>
      <trkpt lat="44.07015" lon="6.43223">
        <ele>1323</ele>
        <time>1990-12-07T08:51:08Z</time>
      </trkpt>
      <trkpt lat="44.07023" lon="6.43222">
        <ele>1321</ele>
        <time>1990-12-07T08:51:12Z</time>
      </trkpt>
      <trkpt lat="44.07035" lon="6.4321">
        <ele>1318</ele>
        <time>1990-12-07T08:51:18Z</time>
      </trkpt>
      <trkpt lat="44.07052" lon="6.43212">
        <ele>1314</ele>
        <time>1990-12-07T08:51:25Z</time>
      </trkpt>
      <trkpt lat="44.07073" lon="6.43212">
        <ele>1309</ele>
        <time>1990-12-07T08:51:36Z</time>
      </trkpt>
      <trkpt lat="44.07105" lon="6.4321">
        <ele>1305</ele>
        <time>1990-12-07T08:51:49Z</time>
      </trkpt>
      <trkpt lat="44.07123" lon="6.43207">
        <ele>1302</ele>
        <time>1990-12-07T08:51:57Z</time>
      </trkpt>
      <trkpt lat="44.07162" lon="6.43223">
        <ele>1295</ele>
        <time>1990-12-07T08:52:11Z</time>
      </trkpt>
      <trkpt lat="44.07183" lon="6.4323">
        <ele>1287</ele>
        <time>1990-12-07T08:52:22Z</time>
      </trkpt>
      <trkpt lat="44.07207" lon="6.43248">
        <ele>1282</ele>
        <time>1990-12-07T08:52:39Z</time>
      </trkpt>
      <trkpt lat="44.07227" lon="6.43268">
        <ele>1278</ele>
        <time>1990-12-07T08:52:47Z</time>
      </trkpt>
      <trkpt lat="44.07238" lon="6.43275">
        <ele>1275</ele>
        <time>1990-12-07T08:52:54Z</time>
      </trkpt>
      <trkpt lat="44.07257" lon="6.43278">
        <ele>1271</ele>
        <time>1990-12-07T08:53:22Z</time>
      </trkpt>
      <trkpt lat="44.07292" lon="6.4327">
        <ele>1266</ele>
        <time>1990-12-07T08:53:36Z</time>
      </trkpt>
      <trkpt lat="44.07323" lon="6.43258">
        <ele>1264</ele>
        <time>1990-12-07T08:53:48Z</time>
      </trkpt>
      <trkpt lat="44.07367" lon="6.43217">
        <ele>1264</ele>
        <time>1990-12-07T08:54:04Z</time>
      </trkpt>
      <trkpt lat="44.07415" lon="6.43202">
        <ele>1262</ele>
        <time>1990-12-07T08:54:22Z</time>
      </trkpt>
      <trkpt lat="44.07403" lon="6.43252">
        <ele>1262</ele>
        <time>1990-12-07T08:54:30Z</time>
      </trkpt>
      <trkpt lat="44.07397" lon="6.43278">
        <ele>1263</ele>
        <time>1990-12-07T08:54:46Z</time>
      </trkpt>
      <trkpt lat="44.07405" lon="6.43273">
        <ele>1263</ele>
        <time>1990-12-07T08:55:29Z</time>
      </trkpt>
      <trkpt lat="44.07378" lon="6.43333">
        <ele>1259</ele>
        <time>1990-12-07T08:55:44Z</time>
      </trkpt>
      <trkpt lat="44.07358" lon="6.434">
        <ele>1251</ele>
        <time>1990-12-07T08:55:55Z</time>
      </trkpt>
      <trkpt lat="44.07342" lon="6.43432">
        <ele>1247</ele>
        <time>1990-12-07T08:56:00Z</time>
      </trkpt>
      <trkpt lat="44.07328" lon="6.43457">
        <ele>1245</ele>
        <time>1990-12-07T08:56:04Z</time>
      </trkpt>
      <trkpt lat="44.07312" lon="6.43493">
        <ele>1241</ele>
        <time>1990-12-07T08:56:09Z</time>
      </trkpt>
      <trkpt lat="44.07272" lon="6.43542">
        <ele>1232</ele>
        <time>1990-12-07T08:56:18Z</time>
      </trkpt>
      <trkpt lat="44.07262" lon="6.4363">
        <ele>1226</ele>
        <time>1990-12-07T08:56:27Z</time>
      </trkpt>
      <trkpt lat="44.07252" lon="6.43672">
        <ele>1223</ele>
        <time>1990-12-07T08:56:32Z</time>
      </trkpt>
      <trkpt lat="44.07205" lon="6.43703">
        <ele>1220</ele>
        <time>1990-12-07T08:56:40Z</time>
      </trkpt>
      <trkpt lat="44.07198" lon="6.4372">
        <ele>1219</ele>
        <time>1990-12-07T08:56:48Z</time>
      </trkpt>
      <trkpt lat="44.07243" lon="6.43745">
        <ele>1225</ele>
        <time>1990-12-07T08:57:15Z</time>
      </trkpt>
      <trkpt lat="44.07288" lon="6.4377">
        <ele>1231</ele>
        <time>1990-12-07T08:57:43Z</time>
      </trkpt>
      <trkpt lat="44.07327" lon="6.43777">
        <ele>1237</ele>
        <time>1990-12-07T08:58:06Z</time>
      </trkpt>
      <trkpt lat="44.07358" lon="6.43792">
        <ele>1244</ele>
        <time>1990-12-07T08:58:28Z</time>
      </trkpt>
      <trkpt lat="44.07398" lon="6.43792">
        <ele>1250</ele>
        <time>1990-12-07T08:58:53Z</time>
      </trkpt>
      <trkpt lat="44.07433" lon="6.43818">
        <ele>1256</ele>
        <time>1990-12-07T08:59:19Z</time>
      </trkpt>
      <trkpt lat="44.0746" lon="6.4382">
        <ele>1261</ele>
        <time>1990-12-07T08:59:37Z</time>
      </trkpt>
      <trkpt lat="44.0747" lon="6.43825">
        <ele>1265</ele>
        <time>1990-12-07T08:59:46Z</time>
      </trkpt>
      <trkpt lat="44.07487" lon="6.43835">
        <ele>1271</ele>
        <time>1990-12-07T09:00:23Z</time>
      </trkpt>
      <trkpt lat="44.07495" lon="6.43852">
        <ele>1275</ele>
        <time>1990-12-07T09:00:41Z</time>
      </trkpt>
      <trkpt lat="44.07513" lon="6.43878">
        <ele>1281</ele>
        <time>1990-12-07T09:01:12Z</time>
      </trkpt>
      <trkpt lat="44.07532" lon="6.43898">
        <ele>1285</ele>
        <time>1990-12-07T09:01:43Z</time>
      </trkpt>
      <trkpt lat="44.07543" lon="6.43913">
        <ele>1290</ele>
        <time>1990-12-07T09:02:04Z</time>
      </trkpt>
      <trkpt lat="44.07557" lon="6.43923">
        <ele>1292</ele>
        <time>1990-12-07T09:02:27Z</time>
      </trkpt>
      <trkpt lat="44.07578" lon="6.43952">
        <ele>1295</ele>
        <time>1990-12-07T09:02:49Z</time>
      </trkpt>
      <trkpt lat="44.076" lon="6.43977">
        <ele>1299</ele>
        <time>1990-12-07T09:03:07Z</time>
      </trkpt>
      <trkpt lat="44.07625" lon="6.43997">
        <ele>1304</ele>
        <time>1990-12-07T09:03:29Z</time>
      </trkpt>
      <trkpt lat="44.07647" lon="6.44013">
        <ele>1309</ele>
        <time>1990-12-07T09:03:48Z</time>
      </trkpt>
      <trkpt lat="44.07668" lon="6.44032">
        <ele>1313</ele>
        <time>1990-12-07T09:04:08Z</time>
      </trkpt>
      <trkpt lat="44.07695" lon="6.44045">
        <ele>1320</ele>
        <time>1990-12-07T09:04:31Z</time>
      </trkpt>
      <trkpt lat="44.07713" lon="6.4406">
        <ele>1325</ele>
        <time>1990-12-07T09:04:51Z</time>
      </trkpt>
      <trkpt lat="44.07725" lon="6.44077">
        <ele>1330</ele>
        <time>1990-12-07T09:05:07Z</time>
      </trkpt>
      <trkpt lat="44.07738" lon="6.44097">
        <ele>1334</ele>
        <time>1990-12-07T09:05:24Z</time>
      </trkpt>
      <trkpt lat="44.07743" lon="6.44108">
        <ele>1337</ele>
        <time>1990-12-07T09:05:33Z</time>
      </trkpt>
      <trkpt lat="44.07757" lon="6.44122">
        <ele>1341</ele>
        <time>1990-12-07T09:05:45Z</time>
      </trkpt>
      <trkpt lat="44.0778" lon="6.4413">
        <ele>1346</ele>
        <time>1990-12-07T09:06:06Z</time>
      </trkpt>
      <trkpt lat="44.07788" lon="6.44132">
        <ele>1348</ele>
        <time>1990-12-07T09:06:26Z</time>
      </trkpt>
      <trkpt lat="44.07808" lon="6.44133">
        <ele>1355</ele>
        <time>1990-12-07T09:07:01Z</time>
      </trkpt>
      <trkpt lat="44.07803" lon="6.44155">
        <ele>1359</ele>
        <time>1990-12-07T09:07:36Z</time>
      </trkpt>
      <trkpt lat="44.07797" lon="6.44188">
        <ele>1364</ele>
        <time>1990-12-07T09:08:07Z</time>
      </trkpt>
      <trkpt lat="44.07792" lon="6.44228">
        <ele>1369</ele>
        <time>1990-12-07T09:08:39Z</time>
      </trkpt>
      <trkpt lat="44.07792" lon="6.44242">
        <ele>1370</ele>
        <time>1990-12-07T09:08:46Z</time>
      </trkpt>
      <trkpt lat="44.0779" lon="6.44288">
        <ele>1375</ele>
        <time>1990-12-07T09:09:14Z</time>
      </trkpt>
      <trkpt lat="44.07793" lon="6.44325">
        <ele>1381</ele>
        <time>1990-12-07T09:09:34Z</time>
      </trkpt>
      <trkpt lat="44.07798" lon="6.44345">
        <ele>1384</ele>
        <time>1990-12-07T09:09:46Z</time>
      </trkpt>
      <trkpt lat="44.078" lon="6.4437">
        <ele>1384</ele>
        <time>1990-12-07T09:10:06Z</time>
      </trkpt>
      <trkpt lat="44.07802" lon="6.4437">
        <ele>1387</ele>
        <time>1990-12-07T09:20:46Z</time>
      </trkpt>
      <trkpt lat="44.07803" lon="6.44382">
        <ele>1384</ele>
        <time>1990-12-07T09:22:33Z</time>
      </trkpt>
      <trkpt lat="44.07807" lon="6.44395">
        <ele>1382</ele>
        <time>1990-12-07T09:22:40Z</time>
      </trkpt>
      <trkpt lat="44.07813" lon="6.44405">
        <ele>1379</ele>
        <time>1990-12-07T09:23:07Z</time>
      </trkpt>
      <trkpt lat="44.0783" lon="6.44418">
        <ele>1372</ele>
        <time>1990-12-07T09:23:18Z</time>
      </trkpt>
      <trkpt lat="44.0785" lon="6.44438">
        <ele>1365</ele>
        <time>1990-12-07T09:23:31Z</time>
      </trkpt>
      <trkpt lat="44.07865" lon="6.44467">
        <ele>1360</ele>
        <time>1990-12-07T09:23:38Z</time>
      </trkpt>
      <trkpt lat="44.07867" lon="6.445">
        <ele>1354</ele>
        <time>1990-12-07T09:23:46Z</time>
      </trkpt>
      <trkpt lat="44.0787" lon="6.44548">
        <ele>1347</ele>
        <time>1990-12-07T09:23:54Z</time>
      </trkpt>
      <trkpt lat="44.07892" lon="6.44572">
        <ele>1341</ele>
        <time>1990-12-07T09:24:02Z</time>
      </trkpt>
      <trkpt lat="44.07898" lon="6.44575">
        <ele>1339</ele>
        <time>1990-12-07T09:24:05Z</time>
      </trkpt>
      <trkpt lat="44.07912" lon="6.44598">
        <ele>1333</ele>
        <time>1990-12-07T09:24:12Z</time>
      </trkpt>
      <trkpt lat="44.07928" lon="6.44617">
        <ele>1328</ele>
        <time>1990-12-07T09:24:20Z</time>
      </trkpt>
      <trkpt lat="44.07947" lon="6.44612">
        <ele>1321</ele>
        <time>1990-12-07T09:24:29Z</time>
      </trkpt>
      <trkpt lat="44.07965" lon="6.4462">
        <ele>1317</ele>
        <time>1990-12-07T09:24:35Z</time>
      </trkpt>
      <trkpt lat="44.07973" lon="6.44652">
        <ele>1310</ele>
        <time>1990-12-07T09:24:46Z</time>
      </trkpt>
      <trkpt lat="44.07982" lon="6.44687">
        <ele>1306</ele>
        <time>1990-12-07T09:24:55Z</time>
      </trkpt>
      <trkpt lat="44.07993" lon="6.4474">
        <ele>1299</ele>
        <time>1990-12-07T09:25:04Z</time>
      </trkpt>
      <trkpt lat="44.07997" lon="6.44777">
        <ele>1294</ele>
        <time>1990-12-07T09:25:12Z</time>
      </trkpt>
      <trkpt lat="44.08005" lon="6.44805">
        <ele>1289</ele>
        <time>1990-12-07T09:25:20Z</time>
      </trkpt>
      <trkpt lat="44.08017" lon="6.44835">
        <ele>1284</ele>
        <time>1990-12-07T09:25:27Z</time>
      </trkpt>
      <trkpt lat="44.08027" lon="6.44842">
        <ele>1283</ele>
        <time>1990-12-07T09:25:43Z</time>
      </trkpt>
      <trkpt lat="44.08013" lon="6.44867">
        <ele>1285</ele>
        <time>1990-12-07T09:26:12Z</time>
      </trkpt>
      <trkpt lat="44.07993" lon="6.44942">
        <ele>1289</ele>
        <time>1990-12-07T09:26:38Z</time>
      </trkpt>
      <trkpt lat="44.07973" lon="6.44997">
        <ele>1290</ele>
        <time>1990-12-07T09:26:54Z</time>
      </trkpt>
      <trkpt lat="44.07947" lon="6.45113">
        <ele>1291</ele>
        <time>1990-12-07T09:27:21Z</time>
      </trkpt>
      <trkpt lat="44.0793" lon="6.45233">
        <ele>1292</ele>
        <time>1990-12-07T09:27:48Z</time>
      </trkpt>
      <trkpt lat="44.07903" lon="6.45343">
        <ele>1294</ele>
        <time>1990-12-07T09:28:12Z</time>
      </trkpt>
      <trkpt lat="44.07872" lon="6.45462">
        <ele>1293</ele>
        <time>1990-12-07T09:28:38Z</time>
      </trkpt>
      <trkpt lat="44.07862" lon="6.45483">
        <ele>1291</ele>
        <time>1990-12-07T09:28:42Z</time>
      </trkpt>
      <trkpt lat="44.0782" lon="6.45562">
        <ele>1292</ele>
        <time>1990-12-07T09:28:57Z</time>
      </trkpt>
      <trkpt lat="44.07753" lon="6.4565">
        <ele>1292</ele>
        <time>1990-12-07T09:29:23Z</time>
      </trkpt>
      <trkpt lat="44.07677" lon="6.45712">
        <ele>1294</ele>
        <time>1990-12-07T09:29:50Z</time>
      </trkpt>
      <trkpt lat="44.07615" lon="6.4574">
        <ele>1295</ele>
        <time>1990-12-07T09:30:11Z</time>
      </trkpt>
      <trkpt lat="44.0758" lon="6.45735">
        <ele>1294</ele>
        <time>1990-12-07T09:30:20Z</time>
      </trkpt>
      <trkpt lat="44.0756" lon="6.45817">
        <ele>1295</ele>
        <time>1990-12-07T09:30:40Z</time>
      </trkpt>
      <trkpt lat="44.07557" lon="6.45923">
        <ele>1298</ele>
        <time>1990-12-07T09:31:06Z</time>
      </trkpt>
      <trkpt lat="44.07502" lon="6.46013">
        <ele>1302</ele>
        <time>1990-12-07T09:31:33Z</time>
      </trkpt>
      <trkpt lat="44.07457" lon="6.46107">
        <ele>1304</ele>
        <time>1990-12-07T09:31:57Z</time>
      </trkpt>
      <trkpt lat="44.07417" lon="6.46183">
        <ele>1306</ele>
        <time>1990-12-07T09:32:19Z</time>
      </trkpt>
      <trkpt lat="44.07352" lon="6.46193">
        <ele>1310</ele>
        <time>1990-12-07T09:32:40Z</time>
      </trkpt>
      <trkpt lat="44.07303" lon="6.46238">
        <ele>1317</ele>
        <time>1990-12-07T09:33:04Z</time>
      </trkpt>
      <trkpt lat="44.07257" lon="6.46292">
        <ele>1318</ele>
        <time>1990-12-07T09:33:31Z</time>
      </trkpt>
      <trkpt lat="44.07223" lon="6.4634">
        <ele>1314</ele>
        <time>1990-12-07T09:33:42Z</time>
      </trkpt>
      <trkpt lat="44.07207" lon="6.46372">
        <ele>1312</ele>
        <time>1990-12-07T09:33:47Z</time>
      </trkpt>
      <trkpt lat="44.07167" lon="6.46415">
        <ele>1310</ele>
        <time>1990-12-07T09:33:56Z</time>
      </trkpt>
      <trkpt lat="44.07117" lon="6.46493">
        <ele>1303</ele>
        <time>1990-12-07T09:34:07Z</time>
      </trkpt>
      <trkpt lat="44.07073" lon="6.46525">
        <ele>1300</ele>
        <time>1990-12-07T09:34:14Z</time>
      </trkpt>
      <trkpt lat="44.07007" lon="6.46488">
        <ele>1303</ele>
        <time>1990-12-07T09:34:27Z</time>
      </trkpt>
      <trkpt lat="44.06995" lon="6.46465">
        <ele>1305</ele>
        <time>1990-12-07T09:34:36Z</time>
      </trkpt>
      <trkpt lat="44.06983" lon="6.46425">
        <ele>1308</ele>
        <time>1990-12-07T09:34:49Z</time>
      </trkpt>
      <trkpt lat="44.06982" lon="6.46353">
        <ele>1308</ele>
        <time>1990-12-07T09:35:06Z</time>
      </trkpt>
      <trkpt lat="44.06928" lon="6.46405">
        <ele>1311</ele>
        <time>1990-12-07T09:35:28Z</time>
      </trkpt>
      <trkpt lat="44.06905" lon="6.46412">
        <ele>1310</ele>
        <time>1990-12-07T09:35:36Z</time>
      </trkpt>
      <trkpt lat="44.0686" lon="6.46413">
        <ele>1308</ele>
        <time>1990-12-07T09:35:46Z</time>
      </trkpt>
      <trkpt lat="44.06815" lon="6.46412">
        <ele>1304</ele>
        <time>1990-12-07T09:36:15Z</time>
      </trkpt>
      <trkpt lat="44.068" lon="6.46417">
        <ele>1300</ele>
        <time>1990-12-07T09:36:26Z</time>
      </trkpt>
      <trkpt lat="44.06813" lon="6.4643">
        <ele>1296</ele>
        <time>1990-12-07T09:36:34Z</time>
      </trkpt>
      <trkpt lat="44.06805" lon="6.46432">
        <ele>1293</ele>
        <time>1990-12-07T09:37:00Z</time>
      </trkpt>
      <trkpt lat="44.06767" lon="6.46417">
        <ele>1290</ele>
        <time>1990-12-07T09:37:30Z</time>
      </trkpt>
      <trkpt lat="44.06763" lon="6.46427">
        <ele>1288</ele>
        <time>1990-12-07T09:37:54Z</time>
      </trkpt>
      <trkpt lat="44.06787" lon="6.46455">
        <ele>1284</ele>
        <time>1990-12-07T09:38:40Z</time>
      </trkpt>
      <trkpt lat="44.06793" lon="6.46467">
        <ele>1286</ele>
        <time>1990-12-07T09:40:12Z</time>
      </trkpt>
      <trkpt lat="44.06797" lon="6.46467">
        <ele>1283</ele>
        <time>1990-12-07T09:40:57Z</time>
      </trkpt>
      <trkpt lat="44.06807" lon="6.46493">
        <ele>1280</ele>
        <time>1990-12-07T09:41:19Z</time>
      </trkpt>
      <trkpt lat="44.06835" lon="6.4651">
        <ele>1277</ele>
        <time>1990-12-07T09:41:39Z</time>
      </trkpt>
      <trkpt lat="44.06847" lon="6.46533">
        <ele>1274</ele>
        <time>1990-12-07T09:41:45Z</time>
      </trkpt>
      <trkpt lat="44.0686" lon="6.46537">
        <ele>1272</ele>
        <time>1990-12-07T09:41:50Z</time>
      </trkpt>
      <trkpt lat="44.06875" lon="6.46525">
        <ele>1270</ele>
        <time>1990-12-07T09:42:00Z</time>
      </trkpt>
      <trkpt lat="44.069" lon="6.465">
        <ele>1269</ele>
        <time>1990-12-07T09:42:30Z</time>
      </trkpt>
      <trkpt lat="44.06912" lon="6.46495">
        <ele>1266</ele>
        <time>1990-12-07T09:43:11Z</time>
      </trkpt>
      <trkpt lat="44.0693" lon="6.46543">
        <ele>1261</ele>
        <time>1990-12-07T09:43:29Z</time>
      </trkpt>
      <trkpt lat="44.06953" lon="6.46595">
        <ele>1255</ele>
        <time>1990-12-07T09:43:43Z</time>
      </trkpt>
      <trkpt lat="44.06955" lon="6.46635">
        <ele>1251</ele>
        <time>1990-12-07T09:43:51Z</time>
      </trkpt>
      <trkpt lat="44.06953" lon="6.46653">
        <ele>1249</ele>
        <time>1990-12-07T09:43:56Z</time>
      </trkpt>
      <trkpt lat="44.06968" lon="6.46683">
        <ele>1245</ele>
        <time>1990-12-07T09:44:02Z</time>
      </trkpt>
      <trkpt lat="44.06963" lon="6.46723">
        <ele>1241</ele>
        <time>1990-12-07T09:44:09Z</time>
      </trkpt>
      <trkpt lat="44.06968" lon="6.46765">
        <ele>1235</ele>
        <time>1990-12-07T09:44:17Z</time>
      </trkpt>
      <trkpt lat="44.06982" lon="6.46785">
        <ele>1232</ele>
        <time>1990-12-07T09:44:24Z</time>
      </trkpt>
      <trkpt lat="44.06992" lon="6.46828">
        <ele>1224</ele>
        <time>1990-12-07T09:44:33Z</time>
      </trkpt>
      <trkpt lat="44.06988" lon="6.46853">
        <ele>1223</ele>
        <time>1990-12-07T09:44:41Z</time>
      </trkpt>
      <trkpt lat="44.06992" lon="6.46877">
        <ele>1219</ele>
        <time>1990-12-07T09:44:46Z</time>
      </trkpt>
      <trkpt lat="44.07002" lon="6.46927">
        <ele>1211</ele>
        <time>1990-12-07T09:44:54Z</time>
      </trkpt>
      <trkpt lat="44.0704" lon="6.46983">
        <ele>1205</ele>
        <time>1990-12-07T09:45:08Z</time>
      </trkpt>
      <trkpt lat="44.07063" lon="6.46992">
        <ele>1200</ele>
        <time>1990-12-07T09:45:14Z</time>
      </trkpt>
      <trkpt lat="44.0709" lon="6.47003">
        <ele>1194</ele>
        <time>1990-12-07T09:45:21Z</time>
      </trkpt>
      <trkpt lat="44.071" lon="6.47015">
        <ele>1188</ele>
        <time>1990-12-07T09:45:29Z</time>
      </trkpt>
      <trkpt lat="44.07107" lon="6.47027">
        <ele>1185</ele>
        <time>1990-12-07T09:45:34Z</time>
      </trkpt>
      <trkpt lat="44.07105" lon="6.47048">
        <ele>1180</ele>
        <time>1990-12-07T09:45:41Z</time>
      </trkpt>
      <trkpt lat="44.0711" lon="6.47075">
        <ele>1173</ele>
        <time>1990-12-07T09:45:49Z</time>
      </trkpt>
      <trkpt lat="44.0711" lon="6.47107">
        <ele>1170</ele>
        <time>1990-12-07T09:45:57Z</time>
      </trkpt>
      <trkpt lat="44.07107" lon="6.47137">
        <ele>1166</ele>
        <time>1990-12-07T09:47:42Z</time>
      </trkpt>
      <trkpt lat="44.07098" lon="6.47173">
        <ele>1158</ele>
        <time>1990-12-07T09:47:50Z</time>
      </trkpt>
      <trkpt lat="44.07102" lon="6.4719">
        <ele>1154</ele>
        <time>1990-12-07T09:47:55Z</time>
      </trkpt>
      <trkpt lat="44.07098" lon="6.47233">
        <ele>1147</ele>
        <time>1990-12-07T09:48:04Z</time>
      </trkpt>
      <trkpt lat="44.07117" lon="6.47272">
        <ele>1139</ele>
        <time>1990-12-07T09:48:13Z</time>
      </trkpt>
      <trkpt lat="44.07133" lon="6.47293">
        <ele>1133</ele>
        <time>1990-12-07T09:48:25Z</time>
      </trkpt>
      <trkpt lat="44.07137" lon="6.47312">
        <ele>1129</ele>
        <time>1990-12-07T09:48:40Z</time>
      </trkpt>
      <trkpt lat="44.07142" lon="6.47333">
        <ele>1125</ele>
        <time>1990-12-07T09:49:24Z</time>
      </trkpt>
      <trkpt lat="44.07147" lon="6.47353">
        <ele>1120</ele>
        <time>1990-12-07T09:49:50Z</time>
      </trkpt>
      <trkpt lat="44.07167" lon="6.4736">
        <ele>1116</ele>
        <time>1990-12-07T09:50:02Z</time>
      </trkpt>
      <trkpt lat="44.07165" lon="6.47412">
        <ele>1113</ele>
        <time>1990-12-07T09:50:14Z</time>
      </trkpt>
      <trkpt lat="44.0715" lon="6.4743">
        <ele>1114</ele>
        <time>1990-12-07T09:51:21Z</time>
      </trkpt>
      <trkpt lat="44.07155" lon="6.47463">
        <ele>1110</ele>
        <time>1990-12-07T09:51:30Z</time>
      </trkpt>
      <trkpt lat="44.0715" lon="6.47518">
        <ele>1102</ele>
        <time>1990-12-07T09:51:39Z</time>
      </trkpt>
      <trkpt lat="44.07148" lon="6.47538">
        <ele>1099</ele>
        <time>1990-12-07T09:51:44Z</time>
      </trkpt>
      <trkpt lat="44.07147" lon="6.47558">
        <ele>1099</ele>
        <time>1990-12-07T09:51:54Z</time>
      </trkpt>
      <trkpt lat="44.07167" lon="6.47568">
        <ele>1097</ele>
        <time>1990-12-07T09:52:05Z</time>
      </trkpt>
      <trkpt lat="44.07168" lon="6.4756">
        <ele>1093</ele>
        <time>1990-12-07T09:52:21Z</time>
      </trkpt>
      <trkpt lat="44.0718" lon="6.47585">
        <ele>1088</ele>
        <time>1990-12-07T09:52:31Z</time>
      </trkpt>
      <trkpt lat="44.07182" lon="6.47608">
        <ele>1085</ele>
        <time>1990-12-07T09:52:38Z</time>
      </trkpt>
      <trkpt lat="44.07187" lon="6.47612">
        <ele>1084</ele>
        <time>1990-12-07T09:53:59Z</time>
      </trkpt>
      <trkpt lat="44.07232" lon="6.47615">
        <ele>1082</ele>
        <time>1990-12-07T09:54:12Z</time>
      </trkpt>
      <trkpt lat="44.07257" lon="6.47652">
        <ele>1081</ele>
        <time>1990-12-07T09:54:19Z</time>
      </trkpt>
      <trkpt lat="44.07312" lon="6.47753">
        <ele>1079</ele>
        <time>1990-12-07T09:54:37Z</time>
      </trkpt>
      <trkpt lat="44.0733" lon="6.47793">
        <ele>1078</ele>
        <time>1990-12-07T09:54:44Z</time>
      </trkpt>
      <trkpt lat="44.07358" lon="6.47803">
        <ele>1078</ele>
        <time>1990-12-07T09:54:54Z</time>
      </trkpt>
      <trkpt lat="44.07378" lon="6.4782">
        <ele>1080</ele>
        <time>1990-12-07T09:55:04Z</time>
      </trkpt>
      <trkpt lat="44.07447" lon="6.479">
        <ele>1083</ele>
        <time>1990-12-07T09:55:29Z</time>
      </trkpt>
      <trkpt lat="44.07518" lon="6.47952">
        <ele>1086</ele>
        <time>1990-12-07T09:55:51Z</time>
      </trkpt>
      <trkpt lat="44.07492" lon="6.48015">
        <ele>1080</ele>
        <time>1990-12-07T09:56:01Z</time>
      </trkpt>
      <trkpt lat="44.07492" lon="6.48073">
        <ele>1078</ele>
        <time>1990-12-07T09:56:11Z</time>
      </trkpt>
      <trkpt lat="44.07523" lon="6.481">
        <ele>1080</ele>
        <time>1990-12-07T09:56:21Z</time>
      </trkpt>
      <trkpt lat="44.07522" lon="6.4817">
        <ele>1081</ele>
        <time>1990-12-07T09:56:34Z</time>
      </trkpt>
      <trkpt lat="44.07522" lon="6.48257">
        <ele>1081</ele>
        <time>1990-12-07T09:56:48Z</time>
      </trkpt>
      <trkpt lat="44.0759" lon="6.48343">
        <ele>1083</ele>
        <time>1990-12-07T09:57:11Z</time>
      </trkpt>
      <trkpt lat="44.07625" lon="6.48362">
        <ele>1084</ele>
        <time>1990-12-07T09:57:20Z</time>
      </trkpt>
      <trkpt lat="44.0765" lon="6.48438">
        <ele>1084</ele>
        <time>1990-12-07T09:57:34Z</time>
      </trkpt>
      <trkpt lat="44.07733" lon="6.48492">
        <ele>1085</ele>
        <time>1990-12-07T09:57:57Z</time>
      </trkpt>
      <trkpt lat="44.07797" lon="6.48442">
        <ele>1087</ele>
        <time>1990-12-07T09:58:15Z</time>
      </trkpt>
      <trkpt lat="44.07895" lon="6.4834">
        <ele>1090</ele>
        <time>1990-12-07T09:58:44Z</time>
      </trkpt>
      <trkpt lat="44.07983" lon="6.48292">
        <ele>1091</ele>
        <time>1990-12-07T09:59:08Z</time>
      </trkpt>
      <trkpt lat="44.0805" lon="6.48262">
        <ele>1093</ele>
        <time>1990-12-07T09:59:25Z</time>
      </trkpt>
      <trkpt lat="44.08077" lon="6.48245">
        <ele>1093</ele>
        <time>1990-12-07T09:59:32Z</time>
      </trkpt>
      <trkpt lat="44.08127" lon="6.48223">
        <ele>1094</ele>
        <time>1990-12-07T09:59:44Z</time>
      </trkpt>
      <trkpt lat="44.08148" lon="6.48207">
        <ele>1094</ele>
        <time>1990-12-07T09:59:50Z</time>
      </trkpt>
      <trkpt lat="44.08207" lon="6.48125">
        <ele>1097</ele>
        <time>1990-12-07T10:00:11Z</time>
      </trkpt>
      <trkpt lat="44.08293" lon="6.48055">
        <ele>1101</ele>
        <time>1990-12-07T10:00:39Z</time>
      </trkpt>
      <trkpt lat="44.08347" lon="6.48015">
        <ele>1103</ele>
        <time>1990-12-07T10:00:56Z</time>
      </trkpt>
      <trkpt lat="44.08383" lon="6.4794">
        <ele>1106</ele>
        <time>1990-12-07T10:01:14Z</time>
      </trkpt>
      <trkpt lat="44.08447" lon="6.47957">
        <ele>1106</ele>
        <time>1990-12-07T10:01:33Z</time>
      </trkpt>
      <trkpt lat="44.08502" lon="6.47948">
        <ele>1105</ele>
        <time>1990-12-07T10:01:45Z</time>
      </trkpt>
      <trkpt lat="44.08548" lon="6.47938">
        <ele>1105</ele>
        <time>1990-12-07T10:01:56Z</time>
      </trkpt>
      <trkpt lat="44.08622" lon="6.4795">
        <ele>1105</ele>
        <time>1990-12-07T10:02:16Z</time>
      </trkpt>
      <trkpt lat="44.08648" lon="6.48005">
        <ele>1104</ele>
        <time>1990-12-07T10:02:33Z</time>
      </trkpt>
      <trkpt lat="44.08678" lon="6.48022">
        <ele>1104</ele>
        <time>1990-12-07T10:12:05Z</time>
      </trkpt>
      <trkpt lat="44.08745" lon="6.4805">
        <ele>1107</ele>
        <time>1990-12-07T10:12:32Z</time>
      </trkpt>
      <trkpt lat="44.08805" lon="6.4807">
        <ele>1109</ele>
        <time>1990-12-07T10:12:55Z</time>
      </trkpt>
      <trkpt lat="44.0887" lon="6.48077">
        <ele>1113</ele>
        <time>1990-12-07T10:13:22Z</time>
      </trkpt>
      <trkpt lat="44.08907" lon="6.48102">
        <ele>1112</ele>
        <time>1990-12-07T10:13:35Z</time>
      </trkpt>
      <trkpt lat="44.08943" lon="6.48148">
        <ele>1114</ele>
        <time>1990-12-07T10:13:51Z</time>
      </trkpt>
      <trkpt lat="44.08992" lon="6.4819">
        <ele>1117</ele>
        <time>1990-12-07T10:14:16Z</time>
      </trkpt>
      <trkpt lat="44.0903" lon="6.48198">
        <ele>1118</ele>
        <time>1990-12-07T10:14:30Z</time>
      </trkpt>
      <trkpt lat="44.0906" lon="6.4821">
        <ele>1118</ele>
        <time>1990-12-07T10:14:44Z</time>
      </trkpt>
      <trkpt lat="44.09113" lon="6.48242">
        <ele>1118</ele>
        <time>1990-12-07T10:15:10Z</time>
      </trkpt>
      <trkpt lat="44.09155" lon="6.48263">
        <ele>1119</ele>
        <time>1990-12-07T10:15:28Z</time>
      </trkpt>
      <trkpt lat="44.09192" lon="6.48283">
        <ele>1120</ele>
        <time>1990-12-07T10:15:43Z</time>
      </trkpt>
      <trkpt lat="44.0923" lon="6.48307">
        <ele>1119</ele>
        <time>1990-12-07T10:15:55Z</time>
      </trkpt>
      <trkpt lat="44.0923" lon="6.48313">
        <ele>1119</ele>
        <time>1990-12-07T10:16:40Z</time>
      </trkpt>
      <trkpt lat="44.09245" lon="6.48357">
        <ele>1118</ele>
        <time>1990-12-07T10:16:54Z</time>
      </trkpt>
      <trkpt lat="44.09283" lon="6.48395">
        <ele>1118</ele>
        <time>1990-12-07T10:17:14Z</time>
      </trkpt>
      <trkpt lat="44.09302" lon="6.48415">
        <ele>1120</ele>
        <time>1990-12-07T10:17:31Z</time>
      </trkpt>
      <trkpt lat="44.09343" lon="6.48437">
        <ele>1122</ele>
        <time>1990-12-07T10:17:50Z</time>
      </trkpt>
      <trkpt lat="44.09367" lon="6.48475">
        <ele>1123</ele>
        <time>1990-12-07T10:18:05Z</time>
      </trkpt>
      <trkpt lat="44.09393" lon="6.48548">
        <ele>1126</ele>
        <time>1990-12-07T10:18:30Z</time>
      </trkpt>
      <trkpt lat="44.09398" lon="6.48558">
        <ele>1125</ele>
        <time>1990-12-07T10:18:37Z</time>
      </trkpt>
      <trkpt lat="44.094" lon="6.48632">
        <ele>1124</ele>
        <time>1990-12-07T10:18:58Z</time>
      </trkpt>
      <trkpt lat="44.0941" lon="6.4865">
        <ele>1127</ele>
        <time>1990-12-07T10:19:32Z</time>
      </trkpt>
      <trkpt lat="44.09423" lon="6.48685">
        <ele>1127</ele>
        <time>1990-12-07T10:19:58Z</time>
      </trkpt>
      <trkpt lat="44.09438" lon="6.48733">
        <ele>1125</ele>
        <time>1990-12-07T10:20:35Z</time>
      </trkpt>
      <trkpt lat="44.09455" lon="6.48763">
        <ele>1126</ele>
        <time>1990-12-07T10:20:50Z</time>
      </trkpt>
      <trkpt lat="44.09457" lon="6.48782">
        <ele>1127</ele>
        <time>1990-12-07T10:20:57Z</time>
      </trkpt>
      <trkpt lat="44.09467" lon="6.48822">
        <ele>1125</ele>
        <time>1990-12-07T10:21:12Z</time>
      </trkpt>
      <trkpt lat="44.0947" lon="6.48865">
        <ele>1126</ele>
        <time>1990-12-07T10:21:47Z</time>
      </trkpt>
      <trkpt lat="44.0946" lon="6.4892">
        <ele>1127</ele>
        <time>1990-12-07T10:22:17Z</time>
      </trkpt>
      <trkpt lat="44.09463" lon="6.48967">
        <ele>1126</ele>
        <time>1990-12-07T10:22:43Z</time>
      </trkpt>
      <trkpt lat="44.09467" lon="6.48997">
        <ele>1127</ele>
        <time>1990-12-07T10:22:59Z</time>
      </trkpt>
      <trkpt lat="44.09467" lon="6.49033">
        <ele>1128</ele>
        <time>1990-12-07T10:23:24Z</time>
      </trkpt>
      <trkpt lat="44.09475" lon="6.49072">
        <ele>1130</ele>
        <time>1990-12-07T10:23:39Z</time>
      </trkpt>
      <trkpt lat="44.09472" lon="6.49103">
        <ele>1131</ele>
        <time>1990-12-07T10:23:49Z</time>
      </trkpt>
      <trkpt lat="44.09475" lon="6.49123">
        <ele>1130</ele>
        <time>1990-12-07T10:23:56Z</time>
      </trkpt>
      <trkpt lat="44.09468" lon="6.49183">
        <ele>1133</ele>
        <time>1990-12-07T10:24:23Z</time>
      </trkpt>
      <trkpt lat="44.09458" lon="6.49235">
        <ele>1137</ele>
        <time>1990-12-07T10:24:37Z</time>
      </trkpt>
      <trkpt lat="44.09468" lon="6.49277">
        <ele>1142</ele>
        <time>1990-12-07T10:24:57Z</time>
      </trkpt>
      <trkpt lat="44.09483" lon="6.49287">
        <ele>1147</ele>
        <time>1990-12-07T10:25:08Z</time>
      </trkpt>
      <trkpt lat="44.09497" lon="6.49302">
        <ele>1151</ele>
        <time>1990-12-07T10:25:21Z</time>
      </trkpt>
      <trkpt lat="44.09523" lon="6.49325">
        <ele>1155</ele>
        <time>1990-12-07T10:25:50Z</time>
      </trkpt>
      <trkpt lat="44.09513" lon="6.49377">
        <ele>1159</ele>
        <time>1990-12-07T10:26:09Z</time>
      </trkpt>
      <trkpt lat="44.0952" lon="6.49395">
        <ele>1161</ele>
        <time>1990-12-07T10:26:21Z</time>
      </trkpt>
      <trkpt lat="44.09517" lon="6.49437">
        <ele>1163</ele>
        <time>1990-12-07T10:26:38Z</time>
      </trkpt>
      <trkpt lat="44.09517" lon="6.49457">
        <ele>1164</ele>
        <time>1990-12-07T10:26:48Z</time>
      </trkpt>
      <trkpt lat="44.09517" lon="6.49503">
        <ele>1166</ele>
        <time>1990-12-07T10:27:07Z</time>
      </trkpt>
      <trkpt lat="44.09517" lon="6.49537">
        <ele>1166</ele>
        <time>1990-12-07T10:27:28Z</time>
      </trkpt>
      <trkpt lat="44.09517" lon="6.49577">
        <ele>1167</ele>
        <time>1990-12-07T10:29:56Z</time>
      </trkpt>
      <trkpt lat="44.0951" lon="6.49693">
        <ele>1167</ele>
        <time>1990-12-07T10:30:22Z</time>
      </trkpt>
      <trkpt lat="44.0951" lon="6.49757">
        <ele>1168</ele>
        <time>1990-12-07T10:30:49Z</time>
      </trkpt>
      <trkpt lat="44.09518" lon="6.49807">
        <ele>1162</ele>
        <time>1990-12-07T10:32:13Z</time>
      </trkpt>
      <trkpt lat="44.09528" lon="6.49852">
        <ele>1159</ele>
        <time>1990-12-07T10:32:19Z</time>
      </trkpt>
      <trkpt lat="44.0953" lon="6.49898">
        <ele>1159</ele>
        <time>1990-12-07T10:32:25Z</time>
      </trkpt>
      <trkpt lat="44.0954" lon="6.49948">
        <ele>1158</ele>
        <time>1990-12-07T10:32:34Z</time>
      </trkpt>
      <trkpt lat="44.09552" lon="6.49992">
        <ele>1152</ele>
        <time>1990-12-07T10:32:53Z</time>
      </trkpt>
      <trkpt lat="44.09533" lon="6.50003">
        <ele>1147</ele>
        <time>1990-12-07T10:33:03Z</time>
      </trkpt>
      <trkpt lat="44.09492" lon="6.50015">
        <ele>1147</ele>
        <time>1990-12-07T10:33:20Z</time>
      </trkpt>
      <trkpt lat="44.09445" lon="6.50042">
        <ele>1147</ele>
        <time>1990-12-07T10:33:42Z</time>
      </trkpt>
      <trkpt lat="44.0941" lon="6.50028">
        <ele>1145</ele>
        <time>1990-12-07T10:33:49Z</time>
      </trkpt>
      <trkpt lat="44.09358" lon="6.50013">
        <ele>1144</ele>
        <time>1990-12-07T10:34:00Z</time>
      </trkpt>
      <trkpt lat="44.09258" lon="6.5">
        <ele>1143</ele>
        <time>1990-12-07T10:34:19Z</time>
      </trkpt>
      <trkpt lat="44.0921" lon="6.49952">
        <ele>1142</ele>
        <time>1990-12-07T10:34:31Z</time>
      </trkpt>
      <trkpt lat="44.09158" lon="6.49937">
        <ele>1141</ele>
        <time>1990-12-07T10:34:48Z</time>
      </trkpt>
      <trkpt lat="44.09112" lon="6.49953">
        <ele>1136</ele>
        <time>1990-12-07T10:34:57Z</time>
      </trkpt>
      <trkpt lat="44.09098" lon="6.49953">
        <ele>1134</ele>
        <time>1990-12-07T10:35:00Z</time>
      </trkpt>
      <trkpt lat="44.0907" lon="6.49973">
        <ele>1130</ele>
        <time>1990-12-07T10:35:13Z</time>
      </trkpt>
      <trkpt lat="44.09078" lon="6.50005">
        <ele>1130</ele>
        <time>1990-12-07T10:35:18Z</time>
      </trkpt>
      <trkpt lat="44.09093" lon="6.50075">
        <ele>1130</ele>
        <time>1990-12-07T10:35:29Z</time>
      </trkpt>
      <trkpt lat="44.0909" lon="6.50153">
        <ele>1131</ele>
        <time>1990-12-07T10:35:41Z</time>
      </trkpt>
      <trkpt lat="44.09083" lon="6.5021">
        <ele>1130</ele>
        <time>1990-12-07T10:35:49Z</time>
      </trkpt>
      <trkpt lat="44.09057" lon="6.50257">
        <ele>1129</ele>
        <time>1990-12-07T10:35:57Z</time>
      </trkpt>
      <trkpt lat="44.09003" lon="6.50288">
        <ele>1127</ele>
        <time>1990-12-07T10:36:07Z</time>
      </trkpt>
      <trkpt lat="44.08915" lon="6.5029">
        <ele>1123</ele>
        <time>1990-12-07T10:36:25Z</time>
      </trkpt>
      <trkpt lat="44.08857" lon="6.50303">
        <ele>1116</ele>
        <time>1990-12-07T10:36:33Z</time>
      </trkpt>
      <trkpt lat="44.08813" lon="6.50307">
        <ele>1113</ele>
        <time>1990-12-07T10:36:38Z</time>
      </trkpt>
      <trkpt lat="44.08703" lon="6.50338">
        <ele>1112</ele>
        <time>1990-12-07T10:36:53Z</time>
      </trkpt>
      <trkpt lat="44.08617" lon="6.50308">
        <ele>1112</ele>
        <time>1990-12-07T10:37:09Z</time>
      </trkpt>
      <trkpt lat="44.08558" lon="6.50373">
        <ele>1114</ele>
        <time>1990-12-07T10:37:30Z</time>
      </trkpt>
      <trkpt lat="44.08507" lon="6.50438">
        <ele>1118</ele>
        <time>1990-12-07T10:37:55Z</time>
      </trkpt>
      <trkpt lat="44.08477" lon="6.50482">
        <ele>1121</ele>
        <time>1990-12-07T10:38:15Z</time>
      </trkpt>
      <trkpt lat="44.0848" lon="6.50525">
        <ele>1123</ele>
        <time>1990-12-07T10:38:28Z</time>
      </trkpt>
      <trkpt lat="44.08492" lon="6.50557">
        <ele>1128</ele>
        <time>1990-12-07T10:38:44Z</time>
      </trkpt>
      <trkpt lat="44.08493" lon="6.50575">
        <ele>1127</ele>
        <time>1990-12-07T10:38:52Z</time>
      </trkpt>
      <trkpt lat="44.08483" lon="6.50648">
        <ele>1125</ele>
        <time>1990-12-07T10:39:11Z</time>
      </trkpt>
      <trkpt lat="44.08498" lon="6.50632">
        <ele>1121</ele>
        <time>1990-12-07T10:39:20Z</time>
      </trkpt>
      <trkpt lat="44.08562" lon="6.50615">
        <ele>1116</ele>
        <time>1990-12-07T10:39:37Z</time>
      </trkpt>
      <trkpt lat="44.08573" lon="6.50625">
        <ele>1116</ele>
        <time>1990-12-07T10:39:45Z</time>
      </trkpt>
      <trkpt lat="44.08578" lon="6.50642">
        <ele>1116</ele>
        <time>1990-12-07T10:40:14Z</time>
      </trkpt>
      <trkpt lat="44.08585" lon="6.50657">
        <ele>1115</ele>
        <time>1990-12-07T10:41:07Z</time>
      </trkpt>
      <trkpt lat="44.0863" lon="6.50732">
        <ele>1117</ele>
        <time>1990-12-07T10:41:37Z</time>
      </trkpt>
      <trkpt lat="44.08702" lon="6.50812">
        <ele>1119</ele>
        <time>1990-12-07T10:42:08Z</time>
      </trkpt>
      <trkpt lat="44.0876" lon="6.50897">
        <ele>1122</ele>
        <time>1990-12-07T10:42:39Z</time>
      </trkpt>
      <trkpt lat="44.08792" lon="6.51015">
        <ele>1125</ele>
        <time>1990-12-07T10:43:11Z</time>
      </trkpt>
      <trkpt lat="44.08787" lon="6.51032">
        <ele>1126</ele>
        <time>1990-12-07T10:43:18Z</time>
      </trkpt>
      <trkpt lat="44.08737" lon="6.51047">
        <ele>1133</ele>
        <time>1990-12-07T10:43:43Z</time>
      </trkpt>
      <trkpt lat="44.08683" lon="6.51097">
        <ele>1138</ele>
        <time>1990-12-07T10:44:12Z</time>
      </trkpt>
      <trkpt lat="44.08653" lon="6.51167">
        <ele>1142</ele>
        <time>1990-12-07T10:44:34Z</time>
      </trkpt>
      <trkpt lat="44.08602" lon="6.51208">
        <ele>1147</ele>
        <time>1990-12-07T10:44:58Z</time>
      </trkpt>
      <trkpt lat="44.08552" lon="6.51213">
        <ele>1153</ele>
        <time>1990-12-07T10:45:21Z</time>
      </trkpt>
      <trkpt lat="44.08527" lon="6.51225">
        <ele>1156</ele>
        <time>1990-12-07T10:45:32Z</time>
      </trkpt>
      <trkpt lat="44.08488" lon="6.51222">
        <ele>1160</ele>
        <time>1990-12-07T10:45:49Z</time>
      </trkpt>
      <trkpt lat="44.0844" lon="6.51248">
        <ele>1167</ele>
        <time>1990-12-07T10:46:12Z</time>
      </trkpt>
      <trkpt lat="44.08425" lon="6.5124">
        <ele>1169</ele>
        <time>1990-12-07T10:46:20Z</time>
      </trkpt>
      <trkpt lat="44.08412" lon="6.51242">
        <ele>1171</ele>
        <time>1990-12-07T10:46:26Z</time>
      </trkpt>
      <trkpt lat="44.08382" lon="6.51287">
        <ele>1174</ele>
        <time>1990-12-07T10:46:43Z</time>
      </trkpt>
      <trkpt lat="44.08325" lon="6.51302">
        <ele>1181</ele>
        <time>1990-12-07T10:47:09Z</time>
      </trkpt>
      <trkpt lat="44.08273" lon="6.51312">
        <ele>1187</ele>
        <time>1990-12-07T10:47:29Z</time>
      </trkpt>
      <trkpt lat="44.0825" lon="6.51303">
        <ele>1192</ele>
        <time>1990-12-07T10:47:42Z</time>
      </trkpt>
      <trkpt lat="44.08197" lon="6.5128">
        <ele>1198</ele>
        <time>1990-12-07T10:48:05Z</time>
      </trkpt>
      <trkpt lat="44.08147" lon="6.51263">
        <ele>1205</ele>
        <time>1990-12-07T10:48:32Z</time>
      </trkpt>
      <trkpt lat="44.0811" lon="6.51275">
        <ele>1211</ele>
        <time>1990-12-07T10:48:55Z</time>
      </trkpt>
      <trkpt lat="44.081" lon="6.51255">
        <ele>1213</ele>
        <time>1990-12-07T10:49:04Z</time>
      </trkpt>
      <trkpt lat="44.0806" lon="6.51222">
        <ele>1219</ele>
        <time>1990-12-07T10:49:32Z</time>
      </trkpt>
      <trkpt lat="44.08077" lon="6.51155">
        <ele>1223</ele>
        <time>1990-12-07T10:49:57Z</time>
      </trkpt>
      <trkpt lat="44.0807" lon="6.5108">
        <ele>1227</ele>
        <time>1990-12-07T10:50:17Z</time>
      </trkpt>
      <trkpt lat="44.081" lon="6.51025">
        <ele>1231</ele>
        <time>1990-12-07T10:50:37Z</time>
      </trkpt>
      <trkpt lat="44.08078" lon="6.50942">
        <ele>1236</ele>
        <time>1990-12-07T10:51:01Z</time>
      </trkpt>
      <trkpt lat="44.08077" lon="6.50883">
        <ele>1240</ele>
        <time>1990-12-07T10:51:24Z</time>
      </trkpt>
      <trkpt lat="44.08038" lon="6.50895">
        <ele>1243</ele>
        <time>1990-12-07T10:51:39Z</time>
      </trkpt>
      <trkpt lat="44.08008" lon="6.50883">
        <ele>1247</ele>
        <time>1990-12-07T10:51:50Z</time>
      </trkpt>
      <trkpt lat="44.07947" lon="6.5085">
        <ele>1252</ele>
        <time>1990-12-07T10:52:15Z</time>
      </trkpt>
      <trkpt lat="44.07923" lon="6.50843">
        <ele>1256</ele>
        <time>1990-12-07T10:52:25Z</time>
      </trkpt>
      <trkpt lat="44.0787" lon="6.50848">
        <ele>1262</ele>
        <time>1990-12-07T10:52:50Z</time>
      </trkpt>
      <trkpt lat="44.07855" lon="6.50915">
        <ele>1268</ele>
        <time>1990-12-07T10:53:13Z</time>
      </trkpt>
      <trkpt lat="44.07842" lon="6.5096">
        <ele>1273</ele>
        <time>1990-12-07T10:53:31Z</time>
      </trkpt>
      <trkpt lat="44.07812" lon="6.51027">
        <ele>1279</ele>
        <time>1990-12-07T10:53:57Z</time>
      </trkpt>
      <trkpt lat="44.0776" lon="6.51043">
        <ele>1284</ele>
        <time>1990-12-07T10:54:20Z</time>
      </trkpt>
      <trkpt lat="44.07732" lon="6.50968">
        <ele>1290</ele>
        <time>1990-12-07T10:54:46Z</time>
      </trkpt>
      <trkpt lat="44.07698" lon="6.50958">
        <ele>1295</ele>
        <time>1990-12-07T10:55:06Z</time>
      </trkpt>
      <trkpt lat="44.07682" lon="6.51027">
        <ele>1301</ele>
        <time>1990-12-07T10:55:31Z</time>
      </trkpt>
      <trkpt lat="44.0769" lon="6.5106">
        <ele>1302</ele>
        <time>1990-12-07T10:55:41Z</time>
      </trkpt>
      <trkpt lat="44.07705" lon="6.51145">
        <ele>1306</ele>
        <time>1990-12-07T10:56:06Z</time>
      </trkpt>
      <trkpt lat="44.07685" lon="6.51212">
        <ele>1312</ele>
        <time>1990-12-07T10:56:31Z</time>
      </trkpt>
      <trkpt lat="44.0763" lon="6.51235">
        <ele>1317</ele>
        <time>1990-12-07T10:56:54Z</time>
      </trkpt>
      <trkpt lat="44.07592" lon="6.51228">
        <ele>1321</ele>
        <time>1990-12-07T10:57:09Z</time>
      </trkpt>
      <trkpt lat="44.07577" lon="6.51175">
        <ele>1325</ele>
        <time>1990-12-07T10:57:27Z</time>
      </trkpt>
      <trkpt lat="44.0755" lon="6.51105">
        <ele>1330</ele>
        <time>1990-12-07T10:57:54Z</time>
      </trkpt>
      <trkpt lat="44.07533" lon="6.51037">
        <ele>1336</ele>
        <time>1990-12-07T10:58:19Z</time>
      </trkpt>
      <trkpt lat="44.07478" lon="6.51018">
        <ele>1342</ele>
        <time>1990-12-07T10:58:45Z</time>
      </trkpt>
      <trkpt lat="44.07423" lon="6.50993">
        <ele>1347</ele>
        <time>1990-12-07T10:59:12Z</time>
      </trkpt>
      <trkpt lat="44.07377" lon="6.50962">
        <ele>1353</ele>
        <time>1990-12-07T10:59:38Z</time>
      </trkpt>
      <trkpt lat="44.07353" lon="6.50918">
        <ele>1358</ele>
        <time>1990-12-07T10:59:57Z</time>
      </trkpt>
      <trkpt lat="44.07327" lon="6.50863">
        <ele>1363</ele>
        <time>1990-12-07T11:00:20Z</time>
      </trkpt>
      <trkpt lat="44.07295" lon="6.50787">
        <ele>1370</ele>
        <time>1990-12-07T11:00:49Z</time>
      </trkpt>
      <trkpt lat="44.07267" lon="6.50702">
        <ele>1376</ele>
        <time>1990-12-07T11:01:16Z</time>
      </trkpt>
      <trkpt lat="44.07248" lon="6.50605">
        <ele>1380</ele>
        <time>1990-12-07T11:01:42Z</time>
      </trkpt>
      <trkpt lat="44.07242" lon="6.50553">
        <ele>1384</ele>
        <time>1990-12-07T11:01:59Z</time>
      </trkpt>
      <trkpt lat="44.07215" lon="6.50483">
        <ele>1390</ele>
        <time>1990-12-07T11:02:26Z</time>
      </trkpt>
      <trkpt lat="44.07193" lon="6.5042">
        <ele>1396</ele>
        <time>1990-12-07T11:02:51Z</time>
      </trkpt>
      <trkpt lat="44.07165" lon="6.50348">
        <ele>1402</ele>
        <time>1990-12-07T11:03:19Z</time>
      </trkpt>
      <trkpt lat="44.07153" lon="6.50312">
        <ele>1406</ele>
        <time>1990-12-07T11:03:35Z</time>
      </trkpt>
      <trkpt lat="44.07153" lon="6.50278">
        <ele>1408</ele>
        <time>1990-12-07T11:03:47Z</time>
      </trkpt>
      <trkpt lat="44.0714" lon="6.50218">
        <ele>1413</ele>
        <time>1990-12-07T11:04:09Z</time>
      </trkpt>
      <trkpt lat="44.07138" lon="6.5021">
        <ele>1413</ele>
        <time>1990-12-07T11:04:30Z</time>
      </trkpt>
      <trkpt lat="44.07138" lon="6.5021">
        <ele>1413</ele>
        <time>1990-12-07T11:05:50Z</time>
      </trkpt>
      <trkpt lat="44.07138" lon="6.50207">
        <ele>1414</ele>
        <time>1990-12-07T11:06:02Z</time>
      </trkpt>
      <trkpt lat="44.07127" lon="6.50148">
        <ele>1419</ele>
        <time>1990-12-07T11:06:20Z</time>
      </trkpt>
      <trkpt lat="44.07117" lon="6.50068">
        <ele>1424</ele>
        <time>1990-12-07T11:06:45Z</time>
      </trkpt>
      <trkpt lat="44.07103" lon="6.4999">
        <ele>1431</ele>
        <time>1990-12-07T11:07:10Z</time>
      </trkpt>
      <trkpt lat="44.07102" lon="6.49927">
        <ele>1437</ele>
        <time>1990-12-07T11:07:34Z</time>
      </trkpt>
      <trkpt lat="44.07085" lon="6.49852">
        <ele>1443</ele>
        <time>1990-12-07T11:08:01Z</time>
      </trkpt>
      <trkpt lat="44.07057" lon="6.49798">
        <ele>1448</ele>
        <time>1990-12-07T11:08:27Z</time>
      </trkpt>
      <trkpt lat="44.07038" lon="6.49755">
        <ele>1452</ele>
        <time>1990-12-07T11:08:46Z</time>
      </trkpt>
      <trkpt lat="44.06987" lon="6.49705">
        <ele>1458</ele>
        <time>1990-12-07T11:09:15Z</time>
      </trkpt>
      <trkpt lat="44.06945" lon="6.49657">
        <ele>1464</ele>
        <time>1990-12-07T11:09:42Z</time>
      </trkpt>
      <trkpt lat="44.06888" lon="6.49637">
        <ele>1470</ele>
        <time>1990-12-07T11:10:09Z</time>
      </trkpt>
      <trkpt lat="44.0684" lon="6.49575">
        <ele>1475</ele>
        <time>1990-12-07T11:10:36Z</time>
      </trkpt>
      <trkpt lat="44.06775" lon="6.49518">
        <ele>1480</ele>
        <time>1990-12-07T11:11:07Z</time>
      </trkpt>
      <trkpt lat="44.06727" lon="6.49478">
        <ele>1485</ele>
        <time>1990-12-07T11:11:34Z</time>
      </trkpt>
      <trkpt lat="44.06653" lon="6.49482">
        <ele>1489</ele>
        <time>1990-12-07T11:12:04Z</time>
      </trkpt>
      <trkpt lat="44.06597" lon="6.49452">
        <ele>1494</ele>
        <time>1990-12-07T11:12:30Z</time>
      </trkpt>
      <trkpt lat="44.06558" lon="6.49418">
        <ele>1495</ele>
        <time>1990-12-07T11:12:50Z</time>
      </trkpt>
      <trkpt lat="44.06508" lon="6.49407">
        <ele>1495</ele>
        <time>1990-12-07T11:13:12Z</time>
      </trkpt>
      <trkpt lat="44.0651" lon="6.49438">
        <ele>1495</ele>
        <time>1990-12-07T11:13:24Z</time>
      </trkpt>
      <trkpt lat="44.06508" lon="6.49518">
        <ele>1495</ele>
        <time>1990-12-07T11:13:44Z</time>
      </trkpt>
      <trkpt lat="44.06503" lon="6.49552">
        <ele>1498</ele>
        <time>1990-12-07T11:22:26Z</time>
      </trkpt>
      <trkpt lat="44.06498" lon="6.4956">
        <ele>1497</ele>
        <time>1990-12-07T11:30:47Z</time>
      </trkpt>
      <trkpt lat="44.06425" lon="6.49605">
        <ele>1493</ele>
        <time>1990-12-07T11:31:09Z</time>
      </trkpt>
      <trkpt lat="44.0639" lon="6.49638">
        <ele>1490</ele>
        <time>1990-12-07T11:31:18Z</time>
      </trkpt>
      <trkpt lat="44.06353" lon="6.49702">
        <ele>1488</ele>
        <time>1990-12-07T11:31:29Z</time>
      </trkpt>
      <trkpt lat="44.063" lon="6.4983">
        <ele>1491</ele>
        <time>1990-12-07T11:31:59Z</time>
      </trkpt>
      <trkpt lat="44.06297" lon="6.49853">
        <ele>1491</ele>
        <time>1990-12-07T11:32:03Z</time>
      </trkpt>
      <trkpt lat="44.06298" lon="6.49932">
        <ele>1492</ele>
        <time>1990-12-07T11:32:16Z</time>
      </trkpt>
      <trkpt lat="44.06278" lon="6.49982">
        <ele>1495</ele>
        <time>1990-12-07T11:32:32Z</time>
      </trkpt>
      <trkpt lat="44.06252" lon="6.49997">
        <ele>1493</ele>
        <time>1990-12-07T11:33:08Z</time>
      </trkpt>
      <trkpt lat="44.06232" lon="6.49997">
        <ele>1490</ele>
        <time>1990-12-07T11:33:12Z</time>
      </trkpt>
      <trkpt lat="44.06197" lon="6.5002">
        <ele>1485</ele>
        <time>1990-12-07T11:33:19Z</time>
      </trkpt>
      <trkpt lat="44.0609" lon="6.50203">
        <ele>1481</ele>
        <time>1990-12-07T11:33:43Z</time>
      </trkpt>
      <trkpt lat="44.06047" lon="6.50323">
        <ele>1480</ele>
        <time>1990-12-07T11:34:00Z</time>
      </trkpt>
      <trkpt lat="44.06012" lon="6.50385">
        <ele>1480</ele>
        <time>1990-12-07T11:34:26Z</time>
      </trkpt>
      <trkpt lat="44.05985" lon="6.50413">
        <ele>1477</ele>
        <time>1990-12-07T11:35:52Z</time>
      </trkpt>
      <trkpt lat="44.05935" lon="6.5053">
        <ele>1479</ele>
        <time>1990-12-07T11:36:18Z</time>
      </trkpt>
      <trkpt lat="44.05887" lon="6.50597">
        <ele>1480</ele>
        <time>1990-12-07T11:36:35Z</time>
      </trkpt>
      <trkpt lat="44.05857" lon="6.507">
        <ele>1476</ele>
        <time>1990-12-07T11:36:52Z</time>
      </trkpt>
      <trkpt lat="44.05838" lon="6.50782">
        <ele>1470</ele>
        <time>1990-12-07T11:37:03Z</time>
      </trkpt>
      <trkpt lat="44.05833" lon="6.5081">
        <ele>1467</ele>
        <time>1990-12-07T11:37:08Z</time>
      </trkpt>
      <trkpt lat="44.0581" lon="6.50867">
        <ele>1461</ele>
        <time>1990-12-07T11:37:20Z</time>
      </trkpt>
      <trkpt lat="44.0581" lon="6.50922">
        <ele>1457</ele>
        <time>1990-12-07T11:37:31Z</time>
      </trkpt>
      <trkpt lat="44.05853" lon="6.50965">
        <ele>1453</ele>
        <time>1990-12-07T11:37:42Z</time>
      </trkpt>
      <trkpt lat="44.05892" lon="6.50987">
        <ele>1448</ele>
        <time>1990-12-07T11:37:51Z</time>
      </trkpt>
      <trkpt lat="44.05922" lon="6.51008">
        <ele>1444</ele>
        <time>1990-12-07T11:37:58Z</time>
      </trkpt>
      <trkpt lat="44.05963" lon="6.51052">
        <ele>1439</ele>
        <time>1990-12-07T11:38:07Z</time>
      </trkpt>
      <trkpt lat="44.06005" lon="6.51093">
        <ele>1435</ele>
        <time>1990-12-07T11:38:16Z</time>
      </trkpt>
      <trkpt lat="44.06058" lon="6.5118">
        <ele>1437</ele>
        <time>1990-12-07T11:38:34Z</time>
      </trkpt>
      <trkpt lat="44.06048" lon="6.51187">
        <ele>1438</ele>
        <time>1990-12-07T11:38:43Z</time>
      </trkpt>
      <trkpt lat="44.05982" lon="6.51168">
        <ele>1443</ele>
        <time>1990-12-07T11:39:10Z</time>
      </trkpt>
      <trkpt lat="44.05937" lon="6.5116">
        <ele>1447</ele>
        <time>1990-12-07T11:39:29Z</time>
      </trkpt>
      <trkpt lat="44.05897" lon="6.51173">
        <ele>1452</ele>
        <time>1990-12-07T11:39:49Z</time>
      </trkpt>
      <trkpt lat="44.05867" lon="6.51215">
        <ele>1459</ele>
        <time>1990-12-07T11:40:11Z</time>
      </trkpt>
      <trkpt lat="44.05855" lon="6.51292">
        <ele>1465</ele>
        <time>1990-12-07T11:40:40Z</time>
      </trkpt>
      <trkpt lat="44.05828" lon="6.51397">
        <ele>1468</ele>
        <time>1990-12-07T11:41:10Z</time>
      </trkpt>
      <trkpt lat="44.0579" lon="6.51455">
        <ele>1474</ele>
        <time>1990-12-07T11:41:38Z</time>
      </trkpt>
      <trkpt lat="44.0575" lon="6.51425">
        <ele>1476</ele>
        <time>1990-12-07T11:42:06Z</time>
      </trkpt>
      <trkpt lat="44.05702" lon="6.51392">
        <ele>1481</ele>
        <time>1990-12-07T11:42:35Z</time>
      </trkpt>
      <trkpt lat="44.05632" lon="6.51283">
        <ele>1483</ele>
        <time>1990-12-07T11:43:05Z</time>
      </trkpt>
      <trkpt lat="44.05565" lon="6.51227">
        <ele>1488</ele>
        <time>1990-12-07T11:43:27Z</time>
      </trkpt>
      <trkpt lat="44.05488" lon="6.51202">
        <ele>1492</ele>
        <time>1990-12-07T11:43:51Z</time>
      </trkpt>
      <trkpt lat="44.05402" lon="6.51165">
        <ele>1495</ele>
        <time>1990-12-07T11:44:17Z</time>
      </trkpt>
      <trkpt lat="44.05307" lon="6.51145">
        <ele>1495</ele>
        <time>1990-12-07T11:44:47Z</time>
      </trkpt>
      <trkpt lat="44.05275" lon="6.51148">
        <ele>1496</ele>
        <time>1990-12-07T11:45:06Z</time>
      </trkpt>
      <trkpt lat="44.05253" lon="6.51157">
        <ele>1497</ele>
        <time>1990-12-07T11:45:24Z</time>
      </trkpt>
      <trkpt lat="44.05208" lon="6.51165">
        <ele>1496</ele>
        <time>1990-12-07T11:45:42Z</time>
      </trkpt>
      <trkpt lat="44.05132" lon="6.51183">
        <ele>1497</ele>
        <time>1990-12-07T11:46:03Z</time>
      </trkpt>
      <trkpt lat="44.05042" lon="6.5119">
        <ele>1494</ele>
        <time>1990-12-07T11:46:22Z</time>
      </trkpt>
      <trkpt lat="44.04938" lon="6.51158">
        <ele>1491</ele>
        <time>1990-12-07T11:46:41Z</time>
      </trkpt>
      <trkpt lat="44.04818" lon="6.51168">
        <ele>1487</ele>
        <time>1990-12-07T11:46:57Z</time>
      </trkpt>
      <trkpt lat="44.0475" lon="6.51165">
        <ele>1491</ele>
        <time>1990-12-07T11:47:07Z</time>
      </trkpt>
      <trkpt lat="44.04725" lon="6.51167">
        <ele>1495</ele>
        <time>1990-12-07T11:47:13Z</time>
      </trkpt>
      <trkpt lat="44.04693" lon="6.51168">
        <ele>1500</ele>
        <time>1990-12-07T11:47:26Z</time>
      </trkpt>
      <trkpt lat="44.04622" lon="6.5118">
        <ele>1505</ele>
        <time>1990-12-07T11:47:55Z</time>
      </trkpt>
      <trkpt lat="44.04582" lon="6.51167">
        <ele>1505</ele>
        <time>1990-12-07T11:48:06Z</time>
      </trkpt>
      <trkpt lat="44.04545" lon="6.51187">
        <ele>1506</ele>
        <time>1990-12-07T11:48:16Z</time>
      </trkpt>
      <trkpt lat="44.04483" lon="6.51237">
        <ele>1509</ele>
        <time>1990-12-07T11:48:35Z</time>
      </trkpt>
      <trkpt lat="44.04423" lon="6.5128">
        <ele>1508</ele>
        <time>1990-12-07T11:48:53Z</time>
      </trkpt>
      <trkpt lat="44.044" lon="6.51333">
        <ele>1504</ele>
        <time>1990-12-07T11:49:04Z</time>
      </trkpt>
      <trkpt lat="44.0436" lon="6.51388">
        <ele>1499</ele>
        <time>1990-12-07T11:49:14Z</time>
      </trkpt>
      <trkpt lat="44.04297" lon="6.51415">
        <ele>1504</ele>
        <time>1990-12-07T11:49:33Z</time>
      </trkpt>
      <trkpt lat="44.04258" lon="6.51428">
        <ele>1507</ele>
        <time>1990-12-07T11:49:47Z</time>
      </trkpt>
      <trkpt lat="44.04172" lon="6.51438">
        <ele>1509</ele>
        <time>1990-12-07T11:50:16Z</time>
      </trkpt>
      <trkpt lat="44.04105" lon="6.514">
        <ele>1513</ele>
        <time>1990-12-07T11:50:44Z</time>
      </trkpt>
      <trkpt lat="44.0406" lon="6.51367">
        <ele>1520</ele>
        <time>1990-12-07T11:51:11Z</time>
      </trkpt>
      <trkpt lat="44.04038" lon="6.51373">
        <ele>1525</ele>
        <time>1990-12-07T11:51:24Z</time>
      </trkpt>
      <trkpt lat="44.04032" lon="6.51377">
        <ele>1526</ele>
        <time>1990-12-07T11:51:29Z</time>
      </trkpt>
      <trkpt lat="44.0399" lon="6.51378">
        <ele>1528</ele>
        <time>1990-12-07T11:51:54Z</time>
      </trkpt>
      <trkpt lat="44.0396" lon="6.51362">
        <ele>1529</ele>
        <time>1990-12-07T11:52:09Z</time>
      </trkpt>
      <trkpt lat="44.03947" lon="6.51358">
        <ele>1532</ele>
        <time>1990-12-07T11:52:19Z</time>
      </trkpt>
      <trkpt lat="44.03928" lon="6.51352">
        <ele>1536</ele>
        <time>1990-12-07T11:52:34Z</time>
      </trkpt>
      <trkpt lat="44.0391" lon="6.5135">
        <ele>1540</ele>
        <time>1990-12-07T11:52:48Z</time>
      </trkpt>
      <trkpt lat="44.03888" lon="6.51348">
        <ele>1544</ele>
        <time>1990-12-07T11:53:04Z</time>
      </trkpt>
      <trkpt lat="44.03873" lon="6.51345">
        <ele>1550</ele>
        <time>1990-12-07T11:53:36Z</time>
      </trkpt>
      <trkpt lat="44.03852" lon="6.51348">
        <ele>1554</ele>
        <time>1990-12-07T11:54:03Z</time>
      </trkpt>
      <trkpt lat="44.0384" lon="6.51353">
        <ele>1557</ele>
        <time>1990-12-07T11:54:19Z</time>
      </trkpt>
      <trkpt lat="44.03818" lon="6.51372">
        <ele>1561</ele>
        <time>1990-12-07T11:54:48Z</time>
      </trkpt>
      <trkpt lat="44.03795" lon="6.51392">
        <ele>1566</ele>
        <time>1990-12-07T11:55:13Z</time>
      </trkpt>
      <trkpt lat="44.03763" lon="6.51462">
        <ele>1564</ele>
        <time>1990-12-07T11:55:39Z</time>
      </trkpt>
      <trkpt lat="44.03717" lon="6.5153">
        <ele>1565</ele>
        <time>1990-12-07T11:56:04Z</time>
      </trkpt>
      <trkpt lat="44.03683" lon="6.51542">
        <ele>1565</ele>
        <time>1990-12-07T11:57:07Z</time>
      </trkpt>
      <trkpt lat="44.03643" lon="6.51517">
        <ele>1564</ele>
        <time>1990-12-07T11:57:35Z</time>
      </trkpt>
      <trkpt lat="44.0363" lon="6.51502">
        <ele>1566</ele>
        <time>1990-12-07T11:58:11Z</time>
      </trkpt>
      <trkpt lat="44.03627" lon="6.51497">
        <ele>1565</ele>
        <time>1990-12-07T12:00:30Z</time>
      </trkpt>
      <trkpt lat="44.03578" lon="6.51455">
        <ele>1566</ele>
        <time>1990-12-07T12:13:01Z</time>
      </trkpt>
      <trkpt lat="44.03553" lon="6.5142">
        <ele>1566</ele>
        <time>1990-12-07T12:13:25Z</time>
      </trkpt>
      <trkpt lat="44.0352" lon="6.51367">
        <ele>1568</ele>
        <time>1990-12-07T12:13:53Z</time>
      </trkpt>
      <trkpt lat="44.03445" lon="6.51355">
        <ele>1567</ele>
        <time>1990-12-07T12:14:19Z</time>
      </trkpt>
      <trkpt lat="44.03442" lon="6.51287">
        <ele>1566</ele>
        <time>1990-12-07T12:14:40Z</time>
      </trkpt>
      <trkpt lat="44.03442" lon="6.51192">
        <ele>1565</ele>
        <time>1990-12-07T12:15:06Z</time>
      </trkpt>
      <trkpt lat="44.03398" lon="6.51117">
        <ele>1564</ele>
        <time>1990-12-07T12:15:33Z</time>
      </trkpt>
      <trkpt lat="44.03335" lon="6.511">
        <ele>1564</ele>
        <time>1990-12-07T12:15:58Z</time>
      </trkpt>
      <trkpt lat="44.0328" lon="6.51153">
        <ele>1563</ele>
        <time>1990-12-07T12:16:21Z</time>
      </trkpt>
      <trkpt lat="44.03255" lon="6.51217">
        <ele>1561</ele>
        <time>1990-12-07T12:16:41Z</time>
      </trkpt>
      <trkpt lat="44.03188" lon="6.51277">
        <ele>1561</ele>
        <time>1990-12-07T12:17:05Z</time>
      </trkpt>
      <trkpt lat="44.03153" lon="6.51332">
        <ele>1558</ele>
        <time>1990-12-07T12:17:22Z</time>
      </trkpt>
      <trkpt lat="44.03143" lon="6.51462">
        <ele>1554</ele>
        <time>1990-12-07T12:17:46Z</time>
      </trkpt>
      <trkpt lat="44.0312" lon="6.51462">
        <ele>1552</ele>
        <time>1990-12-07T12:17:56Z</time>
      </trkpt>
      <trkpt lat="44.03077" lon="6.51392">
        <ele>1547</ele>
        <time>1990-12-07T12:18:10Z</time>
      </trkpt>
      <trkpt lat="44.0302" lon="6.5132">
        <ele>1541</ele>
        <time>1990-12-07T12:18:27Z</time>
      </trkpt>
      <trkpt lat="44.03003" lon="6.51282">
        <ele>1538</ele>
        <time>1990-12-07T12:18:34Z</time>
      </trkpt>
      <trkpt lat="44.0298" lon="6.51228">
        <ele>1533</ele>
        <time>1990-12-07T12:18:44Z</time>
      </trkpt>
      <trkpt lat="44.0292" lon="6.5121">
        <ele>1528</ele>
        <time>1990-12-07T12:18:58Z</time>
      </trkpt>
      <trkpt lat="44.02902" lon="6.51243">
        <ele>1523</ele>
        <time>1990-12-07T12:19:07Z</time>
      </trkpt>
      <trkpt lat="44.02883" lon="6.51293">
        <ele>1519</ele>
        <time>1990-12-07T12:19:16Z</time>
      </trkpt>
      <trkpt lat="44.02863" lon="6.51318">
        <ele>1517</ele>
        <time>1990-12-07T12:19:22Z</time>
      </trkpt>
      <trkpt lat="44.02827" lon="6.5138">
        <ele>1514</ele>
        <time>1990-12-07T12:19:38Z</time>
      </trkpt>
      <trkpt lat="44.02787" lon="6.51372">
        <ele>1518</ele>
        <time>1990-12-07T12:19:59Z</time>
      </trkpt>
      <trkpt lat="44.02742" lon="6.51365">
        <ele>1520</ele>
        <time>1990-12-07T12:20:25Z</time>
      </trkpt>
      <trkpt lat="44.02705" lon="6.51368">
        <ele>1522</ele>
        <time>1990-12-07T12:20:45Z</time>
      </trkpt>
      <trkpt lat="44.0267" lon="6.51373">
        <ele>1523</ele>
        <time>1990-12-07T12:21:02Z</time>
      </trkpt>
      <trkpt lat="44.02638" lon="6.51377">
        <ele>1525</ele>
        <time>1990-12-07T12:21:17Z</time>
      </trkpt>
      <trkpt lat="44.02603" lon="6.51383">
        <ele>1526</ele>
        <time>1990-12-07T12:21:35Z</time>
      </trkpt>
      <trkpt lat="44.02575" lon="6.51388">
        <ele>1527</ele>
        <time>1990-12-07T12:22:27Z</time>
      </trkpt>
      <trkpt lat="44.02567" lon="6.51388">
        <ele>1528</ele>
        <time>1990-12-07T12:22:35Z</time>
      </trkpt>
      <trkpt lat="44.02542" lon="6.51403">
        <ele>1528</ele>
        <time>1990-12-07T12:23:02Z</time>
      </trkpt>
      <trkpt lat="44.02523" lon="6.51408">
        <ele>1528</ele>
        <time>1990-12-07T12:24:00Z</time>
      </trkpt>
      <trkpt lat="44.02493" lon="6.5142">
        <ele>1530</ele>
        <time>1990-12-07T12:24:16Z</time>
      </trkpt>
      <trkpt lat="44.02453" lon="6.51442">
        <ele>1531</ele>
        <time>1990-12-07T12:24:32Z</time>
      </trkpt>
      <trkpt lat="44.0243" lon="6.51462">
        <ele>1532</ele>
        <time>1990-12-07T12:24:45Z</time>
      </trkpt>
      <trkpt lat="44.02415" lon="6.51478">
        <ele>1534</ele>
        <time>1990-12-07T12:25:01Z</time>
      </trkpt>
      <trkpt lat="44.02392" lon="6.51492">
        <ele>1536</ele>
        <time>1990-12-07T12:25:31Z</time>
      </trkpt>
      <trkpt lat="44.02357" lon="6.5152">
        <ele>1539</ele>
        <time>1990-12-07T12:25:52Z</time>
      </trkpt>
      <trkpt lat="44.02312" lon="6.5157">
        <ele>1542</ele>
        <time>1990-12-07T12:26:19Z</time>
      </trkpt>
      <trkpt lat="44.02285" lon="6.51597">
        <ele>1543</ele>
        <time>1990-12-07T12:26:34Z</time>
      </trkpt>
      <trkpt lat="44.02227" lon="6.51627">
        <ele>1546</ele>
        <time>1990-12-07T12:26:58Z</time>
      </trkpt>
      <trkpt lat="44.02167" lon="6.51618">
        <ele>1549</ele>
        <time>1990-12-07T12:27:25Z</time>
      </trkpt>
      <trkpt lat="44.02108" lon="6.51607">
        <ele>1551</ele>
        <time>1990-12-07T12:27:50Z</time>
      </trkpt>
      <trkpt lat="44.02045" lon="6.51638">
        <ele>1550</ele>
        <time>1990-12-07T12:28:11Z</time>
      </trkpt>
      <trkpt lat="44.0202" lon="6.5165">
        <ele>1551</ele>
        <time>1990-12-07T12:28:20Z</time>
      </trkpt>
      <trkpt lat="44.01947" lon="6.5165">
        <ele>1545</ele>
        <time>1990-12-07T12:28:42Z</time>
      </trkpt>
      <trkpt lat="44.01903" lon="6.51638">
        <ele>1543</ele>
        <time>1990-12-07T12:28:55Z</time>
      </trkpt>
      <trkpt lat="44.01843" lon="6.51605">
        <ele>1546</ele>
        <time>1990-12-07T12:29:15Z</time>
      </trkpt>
      <trkpt lat="44.0178" lon="6.51583">
        <ele>1552</ele>
        <time>1990-12-07T12:29:38Z</time>
      </trkpt>
      <trkpt lat="44.01723" lon="6.51623">
        <ele>1557</ele>
        <time>1990-12-07T12:30:01Z</time>
      </trkpt>
      <trkpt lat="44.01678" lon="6.51672">
        <ele>1563</ele>
        <time>1990-12-07T12:30:27Z</time>
      </trkpt>
      <trkpt lat="44.01627" lon="6.51693">
        <ele>1569</ele>
        <time>1990-12-07T12:30:52Z</time>
      </trkpt>
      <trkpt lat="44.01622" lon="6.51763">
        <ele>1575</ele>
        <time>1990-12-07T12:31:17Z</time>
      </trkpt>
      <trkpt lat="44.01615" lon="6.51838">
        <ele>1580</ele>
        <time>1990-12-07T12:31:42Z</time>
      </trkpt>
      <trkpt lat="44.01607" lon="6.51888">
        <ele>1584</ele>
        <time>1990-12-07T12:31:59Z</time>
      </trkpt>
      <trkpt lat="44.01598" lon="6.51973">
        <ele>1590</ele>
        <time>1990-12-07T12:32:26Z</time>
      </trkpt>
      <trkpt lat="44.0161" lon="6.52073">
        <ele>1594</ele>
        <time>1990-12-07T12:32:52Z</time>
      </trkpt>
      <trkpt lat="44.01588" lon="6.52163">
        <ele>1600</ele>
        <time>1990-12-07T12:33:17Z</time>
      </trkpt>
      <trkpt lat="44.0159" lon="6.52232">
        <ele>1605</ele>
        <time>1990-12-07T12:33:37Z</time>
      </trkpt>
      <trkpt lat="44.01557" lon="6.52237">
        <ele>1608</ele>
        <time>1990-12-07T12:33:52Z</time>
      </trkpt>
      <trkpt lat="44.015" lon="6.52262">
        <ele>1614</ele>
        <time>1990-12-07T12:34:17Z</time>
      </trkpt>
      <trkpt lat="44.01458" lon="6.52327">
        <ele>1620</ele>
        <time>1990-12-07T12:34:44Z</time>
      </trkpt>
      <trkpt lat="44.01455" lon="6.52342">
        <ele>1621</ele>
        <time>1990-12-07T12:34:50Z</time>
      </trkpt>
      <trkpt lat="44.01447" lon="6.52367">
        <ele>1624</ele>
        <time>1990-12-07T12:35:00Z</time>
      </trkpt>
      <trkpt lat="44.01433" lon="6.5236">
        <ele>1627</ele>
        <time>1990-12-07T12:35:09Z</time>
      </trkpt>
      <trkpt lat="44.0138" lon="6.5233">
        <ele>1632</ele>
        <time>1990-12-07T12:35:40Z</time>
      </trkpt>
      <trkpt lat="44.0132" lon="6.52327">
        <ele>1637</ele>
        <time>1990-12-07T12:36:10Z</time>
      </trkpt>
      <trkpt lat="44.01272" lon="6.52347">
        <ele>1643</ele>
        <time>1990-12-07T12:36:36Z</time>
      </trkpt>
      <trkpt lat="44.01217" lon="6.52387">
        <ele>1647</ele>
        <time>1990-12-07T12:37:05Z</time>
      </trkpt>
      <trkpt lat="44.01198" lon="6.52403">
        <ele>1649</ele>
        <time>1990-12-07T12:37:15Z</time>
      </trkpt>
      <trkpt lat="44.01165" lon="6.52405">
        <ele>1654</ele>
        <time>1990-12-07T12:37:36Z</time>
      </trkpt>
      <trkpt lat="44.01097" lon="6.52372">
        <ele>1655</ele>
        <time>1990-12-07T12:38:03Z</time>
      </trkpt>
      <trkpt lat="44.01018" lon="6.52343">
        <ele>1660</ele>
        <time>1990-12-07T12:38:32Z</time>
      </trkpt>
      <trkpt lat="44.00952" lon="6.52303">
        <ele>1665</ele>
        <time>1990-12-07T12:38:59Z</time>
      </trkpt>
      <trkpt lat="44.00872" lon="6.5226">
        <ele>1669</ele>
        <time>1990-12-07T12:39:28Z</time>
      </trkpt>
      <trkpt lat="44.0079" lon="6.52222">
        <ele>1669</ele>
        <time>1990-12-07T12:39:49Z</time>
      </trkpt>
      <trkpt lat="44.00782" lon="6.52223">
        <ele>1670</ele>
        <time>1990-12-07T12:40:00Z</time>
      </trkpt>
      <trkpt lat="44.00853" lon="6.5227">
        <ele>1675</ele>
        <time>1990-12-07T12:40:30Z</time>
      </trkpt>
      <trkpt lat="44.00875" lon="6.52332">
        <ele>1681</ele>
        <time>1990-12-07T12:40:53Z</time>
      </trkpt>
      <trkpt lat="44.00923" lon="6.52373">
        <ele>1685</ele>
        <time>1990-12-07T12:41:18Z</time>
      </trkpt>
      <trkpt lat="44.0095" lon="6.52402">
        <ele>1688</ele>
        <time>1990-12-07T12:41:34Z</time>
      </trkpt>
      <trkpt lat="44.00973" lon="6.52423">
        <ele>1693</ele>
        <time>1990-12-07T12:41:48Z</time>
      </trkpt>
      <trkpt lat="44.0102" lon="6.52463">
        <ele>1697</ele>
        <time>1990-12-07T12:42:16Z</time>
      </trkpt>
      <trkpt lat="44.01063" lon="6.525">
        <ele>1704</ele>
        <time>1990-12-07T12:42:40Z</time>
      </trkpt>
      <trkpt lat="44.01085" lon="6.52515">
        <ele>1706</ele>
        <time>1990-12-07T12:42:52Z</time>
      </trkpt>
      <trkpt lat="44.01123" lon="6.52562">
        <ele>1712</ele>
        <time>1990-12-07T12:43:17Z</time>
      </trkpt>
      <trkpt lat="44.01163" lon="6.52618">
        <ele>1718</ele>
        <time>1990-12-07T12:43:45Z</time>
      </trkpt>
      <trkpt lat="44.01212" lon="6.52642">
        <ele>1725</ele>
        <time>1990-12-07T12:44:12Z</time>
      </trkpt>
      <trkpt lat="44.01257" lon="6.52675">
        <ele>1729</ele>
        <time>1990-12-07T12:44:39Z</time>
      </trkpt>
      <trkpt lat="44.01265" lon="6.52703">
        <ele>1732</ele>
        <time>1990-12-07T12:45:03Z</time>
      </trkpt>
      <trkpt lat="44.01205" lon="6.5274">
        <ele>1737</ele>
        <time>1990-12-07T12:45:29Z</time>
      </trkpt>
      <trkpt lat="44.01148" lon="6.52775">
        <ele>1743</ele>
        <time>1990-12-07T12:45:57Z</time>
      </trkpt>
      <trkpt lat="44.01097" lon="6.52792">
        <ele>1748</ele>
        <time>1990-12-07T12:46:23Z</time>
      </trkpt>
      <trkpt lat="44.01045" lon="6.528">
        <ele>1753</ele>
        <time>1990-12-07T12:46:47Z</time>
      </trkpt>
      <trkpt lat="44.01023" lon="6.52832">
        <ele>1753</ele>
        <time>1990-12-07T12:47:09Z</time>
      </trkpt>
      <trkpt lat="44.01052" lon="6.52847">
        <ele>1755</ele>
        <time>1990-12-07T12:47:27Z</time>
      </trkpt>
      <trkpt lat="44.01083" lon="6.52867">
        <ele>1756</ele>
        <time>1990-12-07T12:47:44Z</time>
      </trkpt>
      <trkpt lat="44.01122" lon="6.5289">
        <ele>1762</ele>
        <time>1990-12-07T12:48:05Z</time>
      </trkpt>
      <trkpt lat="44.01143" lon="6.52903">
        <ele>1764</ele>
        <time>1990-12-07T12:48:21Z</time>
      </trkpt>
      <trkpt lat="44.01172" lon="6.5292">
        <ele>1768</ele>
        <time>1990-12-07T12:48:42Z</time>
      </trkpt>
      <trkpt lat="44.01175" lon="6.52918">
        <ele>1768</ele>
        <time>1990-12-07T12:58:38Z</time>
      </trkpt>
      <trkpt lat="44.0116" lon="6.52907">
        <ele>1772</ele>
        <time>1990-12-07T12:58:45Z</time>
      </trkpt>
      <trkpt lat="44.01123" lon="6.52885">
        <ele>1767</ele>
        <time>1990-12-07T12:58:54Z</time>
      </trkpt>
      <trkpt lat="44.011" lon="6.52872">
        <ele>1765</ele>
        <time>1990-12-07T12:58:58Z</time>
      </trkpt>
      <trkpt lat="44.01077" lon="6.5286">
        <ele>1761</ele>
        <time>1990-12-07T12:59:02Z</time>
      </trkpt>
      <trkpt lat="44.01022" lon="6.52813">
        <ele>1756</ele>
        <time>1990-12-07T12:59:19Z</time>
      </trkpt>
      <trkpt lat="44.00997" lon="6.52785">
        <ele>1756</ele>
        <time>1990-12-07T12:59:33Z</time>
      </trkpt>
      <trkpt lat="44.00983" lon="6.52755">
        <ele>1755</ele>
        <time>1990-12-07T12:59:47Z</time>
      </trkpt>
      <trkpt lat="44.00978" lon="6.52745">
        <ele>1757</ele>
        <time>1990-12-07T12:59:52Z</time>
      </trkpt>
      <trkpt lat="44.0096" lon="6.52712">
        <ele>1758</ele>
        <time>1990-12-07T13:00:10Z</time>
      </trkpt>
      <trkpt lat="44.00947" lon="6.5271">
        <ele>1756</ele>
        <time>1990-12-07T13:00:17Z</time>
      </trkpt>
      <trkpt lat="44.00945" lon="6.527">
        <ele>1756</ele>
        <time>1990-12-07T13:23:38Z</time>
      </trkpt>
      <trkpt lat="44.00947" lon="6.52695">
        <ele>1757</ele>
        <time>1990-12-07T13:24:11Z</time>
      </trkpt>
      <trkpt lat="44.00943" lon="6.52685">
        <ele>1756</ele>
        <time>1990-12-07T13:24:46Z</time>
      </trkpt>
      <trkpt lat="44.00933" lon="6.52668">
        <ele>1757</ele>
        <time>1990-12-07T13:24:54Z</time>
      </trkpt>
      <trkpt lat="44.00907" lon="6.52622">
        <ele>1754</ele>
        <time>1990-12-07T13:25:21Z</time>
      </trkpt>
      <trkpt lat="44.00888" lon="6.52607">
        <ele>1749</ele>
        <time>1990-12-07T13:26:04Z</time>
      </trkpt>
      <trkpt lat="44.00872" lon="6.5257">
        <ele>1746</ele>
        <time>1990-12-07T13:26:38Z</time>
      </trkpt>
      <trkpt lat="44.00848" lon="6.52545">
        <ele>1739</ele>
        <time>1990-12-07T13:26:47Z</time>
      </trkpt>
      <trkpt lat="44.00828" lon="6.52532">
        <ele>1732</ele>
        <time>1990-12-07T13:26:55Z</time>
      </trkpt>
      <trkpt lat="44.00798" lon="6.52532">
        <ele>1726</ele>
        <time>1990-12-07T13:27:07Z</time>
      </trkpt>
      <trkpt lat="44.00793" lon="6.5253">
        <ele>1723</ele>
        <time>1990-12-07T13:27:11Z</time>
      </trkpt>
      <trkpt lat="44.0078" lon="6.5251">
        <ele>1718</ele>
        <time>1990-12-07T13:27:32Z</time>
      </trkpt>
      <trkpt lat="44.0076" lon="6.52485">
        <ele>1711</ele>
        <time>1990-12-07T13:27:44Z</time>
      </trkpt>
      <trkpt lat="44.00745" lon="6.52475">
        <ele>1707</ele>
        <time>1990-12-07T13:27:49Z</time>
      </trkpt>
      <trkpt lat="44.00717" lon="6.52467">
        <ele>1703</ele>
        <time>1990-12-07T13:27:59Z</time>
      </trkpt>
      <trkpt lat="44.00697" lon="6.5245">
        <ele>1699</ele>
        <time>1990-12-07T13:28:07Z</time>
      </trkpt>
      <trkpt lat="44.00682" lon="6.52427">
        <ele>1696</ele>
        <time>1990-12-07T13:29:03Z</time>
      </trkpt>
      <trkpt lat="44.0066" lon="6.5241">
        <ele>1692</ele>
        <time>1990-12-07T13:29:25Z</time>
      </trkpt>
      <trkpt lat="44.00643" lon="6.524">
        <ele>1689</ele>
        <time>1990-12-07T13:29:32Z</time>
      </trkpt>
      <trkpt lat="44.00618" lon="6.52383">
        <ele>1683</ele>
        <time>1990-12-07T13:29:40Z</time>
      </trkpt>
      <trkpt lat="44.00593" lon="6.5237">
        <ele>1679</ele>
        <time>1990-12-07T13:29:46Z</time>
      </trkpt>
      <trkpt lat="44.00562" lon="6.52358">
        <ele>1674</ele>
        <time>1990-12-07T13:29:54Z</time>
      </trkpt>
      <trkpt lat="44.00547" lon="6.52348">
        <ele>1671</ele>
        <time>1990-12-07T13:30:01Z</time>
      </trkpt>
      <trkpt lat="44.00532" lon="6.52337">
        <ele>1669</ele>
        <time>1990-12-07T13:30:10Z</time>
      </trkpt>
      <trkpt lat="44.00492" lon="6.5233">
        <ele>1664</ele>
        <time>1990-12-07T13:30:25Z</time>
      </trkpt>
      <trkpt lat="44.00428" lon="6.52318">
        <ele>1661</ele>
        <time>1990-12-07T13:30:43Z</time>
      </trkpt>
      <trkpt lat="44.00415" lon="6.52278">
        <ele>1658</ele>
        <time>1990-12-07T13:30:53Z</time>
      </trkpt>
      <trkpt lat="44.00413" lon="6.52265">
        <ele>1657</ele>
        <time>1990-12-07T13:30:56Z</time>
      </trkpt>
      <trkpt lat="44.00385" lon="6.52245">
        <ele>1652</ele>
        <time>1990-12-07T13:31:05Z</time>
      </trkpt>
      <trkpt lat="44.00363" lon="6.5224">
        <ele>1649</ele>
        <time>1990-12-07T13:32:20Z</time>
      </trkpt>
      <trkpt lat="44.00342" lon="6.52233">
        <ele>1642</ele>
        <time>1990-12-07T13:32:29Z</time>
      </trkpt>
      <trkpt lat="44.00318" lon="6.5222">
        <ele>1634</ele>
        <time>1990-12-07T13:32:37Z</time>
      </trkpt>
      <trkpt lat="44.0029" lon="6.5221">
        <ele>1628</ele>
        <time>1990-12-07T13:32:45Z</time>
      </trkpt>
      <trkpt lat="44.00265" lon="6.52197">
        <ele>1622</ele>
        <time>1990-12-07T13:32:52Z</time>
      </trkpt>
      <trkpt lat="44.0024" lon="6.52192">
        <ele>1618</ele>
        <time>1990-12-07T13:32:58Z</time>
      </trkpt>
      <trkpt lat="44.00208" lon="6.52187">
        <ele>1611</ele>
        <time>1990-12-07T13:33:07Z</time>
      </trkpt>
      <trkpt lat="44.0019" lon="6.52173">
        <ele>1604</ele>
        <time>1990-12-07T13:33:15Z</time>
      </trkpt>
      <trkpt lat="44.00182" lon="6.52168">
        <ele>1601</ele>
        <time>1990-12-07T13:33:20Z</time>
      </trkpt>
      <trkpt lat="44.00133" lon="6.52153">
        <ele>1594</ele>
        <time>1990-12-07T13:33:34Z</time>
      </trkpt>
      <trkpt lat="44.00112" lon="6.52147">
        <ele>1591</ele>
        <time>1990-12-07T13:33:48Z</time>
      </trkpt>
      <trkpt lat="44.00095" lon="6.52147">
        <ele>1586</ele>
        <time>1990-12-07T13:37:06Z</time>
      </trkpt>
      <trkpt lat="44.00063" lon="6.52148">
        <ele>1577</ele>
        <time>1990-12-07T13:37:15Z</time>
      </trkpt>
      <trkpt lat="44.00035" lon="6.52132">
        <ele>1571</ele>
        <time>1990-12-07T13:37:25Z</time>
      </trkpt>
      <trkpt lat="44.00003" lon="6.52118">
        <ele>1563</ele>
        <time>1990-12-07T13:37:34Z</time>
      </trkpt>
      <trkpt lat="43.99972" lon="6.52103">
        <ele>1556</ele>
        <time>1990-12-07T13:37:43Z</time>
      </trkpt>
      <trkpt lat="43.99967" lon="6.52095">
        <ele>1554</ele>
        <time>1990-12-07T13:37:47Z</time>
      </trkpt>
      <trkpt lat="43.99987" lon="6.52068">
        <ele>1548</ele>
        <time>1990-12-07T13:37:58Z</time>
      </trkpt>
      <trkpt lat="44" lon="6.52053">
        <ele>1545</ele>
        <time>1990-12-07T13:38:05Z</time>
      </trkpt>
      <trkpt lat="44.00025" lon="6.52033">
        <ele>1540</ele>
        <time>1990-12-07T13:38:15Z</time>
      </trkpt>
      <trkpt lat="44.00068" lon="6.52003">
        <ele>1534</ele>
        <time>1990-12-07T13:38:31Z</time>
      </trkpt>
      <trkpt lat="44.00037" lon="6.5199">
        <ele>1530</ele>
        <time>1990-12-07T13:38:44Z</time>
      </trkpt>
      <trkpt lat="43.99997" lon="6.5198">
        <ele>1525</ele>
        <time>1990-12-07T13:38:51Z</time>
      </trkpt>
      <trkpt lat="43.99947" lon="6.51977">
        <ele>1521</ele>
        <time>1990-12-07T13:38:58Z</time>
      </trkpt>
      <trkpt lat="43.99912" lon="6.51965">
        <ele>1519</ele>
        <time>1990-12-07T13:39:09Z</time>
      </trkpt>
      <trkpt lat="43.99943" lon="6.51957">
        <ele>1517</ele>
        <time>1990-12-07T13:39:23Z</time>
      </trkpt>
      <trkpt lat="43.99993" lon="6.51937">
        <ele>1512</ele>
        <time>1990-12-07T13:39:40Z</time>
      </trkpt>
      <trkpt lat="44.00002" lon="6.51933">
        <ele>1511</ele>
        <time>1990-12-07T13:39:42Z</time>
      </trkpt>
      <trkpt lat="43.99983" lon="6.51925">
        <ele>1507</ele>
        <time>1990-12-07T13:39:52Z</time>
      </trkpt>
      <trkpt lat="43.99958" lon="6.51912">
        <ele>1503</ele>
        <time>1990-12-07T13:39:58Z</time>
      </trkpt>
      <trkpt lat="43.9992" lon="6.51912">
        <ele>1497</ele>
        <time>1990-12-07T13:40:07Z</time>
      </trkpt>
      <trkpt lat="43.99893" lon="6.5191">
        <ele>1494</ele>
        <time>1990-12-07T13:40:16Z</time>
      </trkpt>
      <trkpt lat="43.9985" lon="6.51927">
        <ele>1488</ele>
        <time>1990-12-07T13:40:34Z</time>
      </trkpt>
      <trkpt lat="43.99822" lon="6.51945">
        <ele>1481</ele>
        <time>1990-12-07T13:40:44Z</time>
      </trkpt>
      <trkpt lat="43.99805" lon="6.52">
        <ele>1477</ele>
        <time>1990-12-07T13:40:57Z</time>
      </trkpt>
      <trkpt lat="43.99802" lon="6.52013">
        <ele>1476</ele>
        <time>1990-12-07T13:41:19Z</time>
      </trkpt>
      <trkpt lat="43.99783" lon="6.52048">
        <ele>1470</ele>
        <time>1990-12-07T13:42:12Z</time>
      </trkpt>
      <trkpt lat="43.99782" lon="6.52037">
        <ele>1468</ele>
        <time>1990-12-07T13:42:50Z</time>
      </trkpt>
      <trkpt lat="43.9975" lon="6.52013">
        <ele>1461</ele>
        <time>1990-12-07T13:43:02Z</time>
      </trkpt>
      <trkpt lat="43.99727" lon="6.52017">
        <ele>1457</ele>
        <time>1990-12-07T13:43:11Z</time>
      </trkpt>
      <trkpt lat="43.99703" lon="6.52025">
        <ele>1451</ele>
        <time>1990-12-07T13:43:18Z</time>
      </trkpt>
      <trkpt lat="43.99675" lon="6.52027">
        <ele>1445</ele>
        <time>1990-12-07T13:43:27Z</time>
      </trkpt>
      <trkpt lat="43.9965" lon="6.52013">
        <ele>1439</ele>
        <time>1990-12-07T13:43:36Z</time>
      </trkpt>
      <trkpt lat="43.99622" lon="6.51993">
        <ele>1434</ele>
        <time>1990-12-07T13:43:52Z</time>
      </trkpt>
      <trkpt lat="43.99593" lon="6.5199">
        <ele>1427</ele>
        <time>1990-12-07T13:44:51Z</time>
      </trkpt>
      <trkpt lat="43.99565" lon="6.51987">
        <ele>1422</ele>
        <time>1990-12-07T13:44:59Z</time>
      </trkpt>
      <trkpt lat="43.99533" lon="6.51982">
        <ele>1416</ele>
        <time>1990-12-07T13:45:07Z</time>
      </trkpt>
      <trkpt lat="43.99502" lon="6.51973">
        <ele>1410</ele>
        <time>1990-12-07T13:45:15Z</time>
      </trkpt>
      <trkpt lat="43.99467" lon="6.51933">
        <ele>1402</ele>
        <time>1990-12-07T13:45:27Z</time>
      </trkpt>
      <trkpt lat="43.99415" lon="6.51857">
        <ele>1395</ele>
        <time>1990-12-07T13:45:41Z</time>
      </trkpt>
      <trkpt lat="43.9938" lon="6.5184">
        <ele>1389</ele>
        <time>1990-12-07T13:45:51Z</time>
      </trkpt>
      <trkpt lat="43.99343" lon="6.51823">
        <ele>1383</ele>
        <time>1990-12-07T13:46:02Z</time>
      </trkpt>
      <trkpt lat="43.99345" lon="6.51842">
        <ele>1377</ele>
        <time>1990-12-07T13:46:17Z</time>
      </trkpt>
      <trkpt lat="43.99342" lon="6.51842">
        <ele>1375</ele>
        <time>1990-12-07T13:46:23Z</time>
      </trkpt>
      <trkpt lat="43.99323" lon="6.51838">
        <ele>1371</ele>
        <time>1990-12-07T13:46:30Z</time>
      </trkpt>
      <trkpt lat="43.99317" lon="6.51853">
        <ele>1363</ele>
        <time>1990-12-07T13:46:45Z</time>
      </trkpt>
      <trkpt lat="43.99322" lon="6.51875">
        <ele>1359</ele>
        <time>1990-12-07T13:46:54Z</time>
      </trkpt>
      <trkpt lat="43.99308" lon="6.51868">
        <ele>1355</ele>
        <time>1990-12-07T13:47:04Z</time>
      </trkpt>
      <trkpt lat="43.99307" lon="6.51883">
        <ele>1352</ele>
        <time>1990-12-07T13:47:10Z</time>
      </trkpt>
      <trkpt lat="43.993" lon="6.5189">
        <ele>1347</ele>
        <time>1990-12-07T13:47:21Z</time>
      </trkpt>
      <trkpt lat="43.99275" lon="6.5188">
        <ele>1341</ele>
        <time>1990-12-07T13:47:29Z</time>
      </trkpt>
      <trkpt lat="43.99267" lon="6.51877">
        <ele>1339</ele>
        <time>1990-12-07T13:48:17Z</time>
      </trkpt>
      <trkpt lat="43.9925" lon="6.51868">
        <ele>1337</ele>
        <time>1990-12-07T13:48:48Z</time>
      </trkpt>
      <trkpt lat="43.9922" lon="6.51845">
        <ele>1330</ele>
        <time>1990-12-07T13:48:57Z</time>
      </trkpt>
      <trkpt lat="43.992" lon="6.51828">
        <ele>1326</ele>
        <time>1990-12-07T13:49:02Z</time>
      </trkpt>
      <trkpt lat="43.99147" lon="6.5178">
        <ele>1319</ele>
        <time>1990-12-07T13:49:15Z</time>
      </trkpt>
      <trkpt lat="43.99122" lon="6.5174">
        <ele>1313</ele>
        <time>1990-12-07T13:49:22Z</time>
      </trkpt>
      <trkpt lat="43.99107" lon="6.5172">
        <ele>1310</ele>
        <time>1990-12-07T13:49:27Z</time>
      </trkpt>
      <trkpt lat="43.9909" lon="6.51715">
        <ele>1305</ele>
        <time>1990-12-07T13:49:33Z</time>
      </trkpt>
      <trkpt lat="43.99093" lon="6.51737">
        <ele>1302</ele>
        <time>1990-12-07T13:49:40Z</time>
      </trkpt>
      <trkpt lat="43.99077" lon="6.51733">
        <ele>1297</ele>
        <time>1990-12-07T13:49:47Z</time>
      </trkpt>
      <trkpt lat="43.99077" lon="6.5175">
        <ele>1294</ele>
        <time>1990-12-07T13:49:53Z</time>
      </trkpt>
      <trkpt lat="43.99085" lon="6.5178">
        <ele>1289</ele>
        <time>1990-12-07T13:50:02Z</time>
      </trkpt>
      <trkpt lat="43.99077" lon="6.51775">
        <ele>1287</ele>
        <time>1990-12-07T13:50:07Z</time>
      </trkpt>
      <trkpt lat="43.99047" lon="6.51753">
        <ele>1281</ele>
        <time>1990-12-07T13:50:18Z</time>
      </trkpt>
      <trkpt lat="43.99005" lon="6.5173">
        <ele>1275</ele>
        <time>1990-12-07T13:50:28Z</time>
      </trkpt>
      <trkpt lat="43.98968" lon="6.51713">
        <ele>1268</ele>
        <time>1990-12-07T13:50:38Z</time>
      </trkpt>
      <trkpt lat="43.98943" lon="6.51698">
        <ele>1263</ele>
        <time>1990-12-07T13:50:44Z</time>
      </trkpt>
      <trkpt lat="43.9891" lon="6.51685">
        <ele>1258</ele>
        <time>1990-12-07T13:50:51Z</time>
      </trkpt>
      <trkpt lat="43.98878" lon="6.51672">
        <ele>1252</ele>
        <time>1990-12-07T13:50:58Z</time>
      </trkpt>
      <trkpt lat="43.98835" lon="6.51668">
        <ele>1245</ele>
        <time>1990-12-07T13:51:07Z</time>
      </trkpt>
      <trkpt lat="43.98805" lon="6.51668">
        <ele>1241</ele>
        <time>1990-12-07T13:51:13Z</time>
      </trkpt>
      <trkpt lat="43.98775" lon="6.5166">
        <ele>1236</ele>
        <time>1990-12-07T13:51:19Z</time>
      </trkpt>
      <trkpt lat="43.98745" lon="6.51645">
        <ele>1229</ele>
        <time>1990-12-07T13:51:26Z</time>
      </trkpt>
      <trkpt lat="43.98727" lon="6.51635">
        <ele>1225</ele>
        <time>1990-12-07T13:51:30Z</time>
      </trkpt>
      <trkpt lat="43.98702" lon="6.51622">
        <ele>1221</ele>
        <time>1990-12-07T13:51:36Z</time>
      </trkpt>
      <trkpt lat="43.98683" lon="6.51612">
        <ele>1217</ele>
        <time>1990-12-07T13:51:43Z</time>
      </trkpt>
      <trkpt lat="43.98663" lon="6.51598">
        <ele>1212</ele>
        <time>1990-12-07T13:53:08Z</time>
      </trkpt>
      <trkpt lat="43.98637" lon="6.51575">
        <ele>1207</ele>
        <time>1990-12-07T13:53:18Z</time>
      </trkpt>
      <trkpt lat="43.98607" lon="6.51555">
        <ele>1202</ele>
        <time>1990-12-07T13:53:27Z</time>
      </trkpt>
      <trkpt lat="43.9859" lon="6.51545">
        <ele>1198</ele>
        <time>1990-12-07T13:53:32Z</time>
      </trkpt>
      <trkpt lat="43.98577" lon="6.51538">
        <ele>1193</ele>
        <time>1990-12-07T13:53:36Z</time>
      </trkpt>
      <trkpt lat="43.98558" lon="6.51532">
        <ele>1189</ele>
        <time>1990-12-07T13:53:40Z</time>
      </trkpt>
      <trkpt lat="43.98523" lon="6.51513">
        <ele>1182</ele>
        <time>1990-12-07T13:53:48Z</time>
      </trkpt>
      <trkpt lat="43.98497" lon="6.51503">
        <ele>1175</ele>
        <time>1990-12-07T13:53:56Z</time>
      </trkpt>
      <trkpt lat="43.98487" lon="6.51493">
        <ele>1173</ele>
        <time>1990-12-07T13:54:01Z</time>
      </trkpt>
      <trkpt lat="43.98485" lon="6.51482">
        <ele>1171</ele>
        <time>1990-12-07T13:54:07Z</time>
      </trkpt>
      <trkpt lat="43.98468" lon="6.51482">
        <ele>1170</ele>
        <time>1990-12-07T13:54:30Z</time>
      </trkpt>
      <trkpt lat="43.98448" lon="6.51468">
        <ele>1167</ele>
        <time>1990-12-07T13:54:51Z</time>
      </trkpt>
      <trkpt lat="43.98448" lon="6.5144">
        <ele>1161</ele>
        <time>1990-12-07T13:54:58Z</time>
      </trkpt>
      <trkpt lat="43.98483" lon="6.51432">
        <ele>1155</ele>
        <time>1990-12-07T13:55:06Z</time>
      </trkpt>
      <trkpt lat="43.98505" lon="6.5143">
        <ele>1153</ele>
        <time>1990-12-07T13:55:10Z</time>
      </trkpt>
      <trkpt lat="43.98542" lon="6.5142">
        <ele>1149</ele>
        <time>1990-12-07T13:55:16Z</time>
      </trkpt>
      <trkpt lat="43.98575" lon="6.51308">
        <ele>1151</ele>
        <time>1990-12-07T13:55:35Z</time>
      </trkpt>
      <trkpt lat="43.98572" lon="6.51248">
        <ele>1150</ele>
        <time>1990-12-07T13:55:54Z</time>
      </trkpt>
      <trkpt lat="43.98588" lon="6.51225">
        <ele>1145</ele>
        <time>1990-12-07T13:56:01Z</time>
      </trkpt>
      <trkpt lat="43.98627" lon="6.51187">
        <ele>1138</ele>
        <time>1990-12-07T13:56:13Z</time>
      </trkpt>
      <trkpt lat="43.9866" lon="6.51153">
        <ele>1132</ele>
        <time>1990-12-07T13:56:21Z</time>
      </trkpt>
      <trkpt lat="43.98717" lon="6.51083">
        <ele>1126</ele>
        <time>1990-12-07T13:56:38Z</time>
      </trkpt>
      <trkpt lat="43.9874" lon="6.51052">
        <ele>1120</ele>
        <time>1990-12-07T13:56:45Z</time>
      </trkpt>
      <trkpt lat="43.98748" lon="6.51042">
        <ele>1119</ele>
        <time>1990-12-07T13:56:48Z</time>
      </trkpt>
      <trkpt lat="43.98797" lon="6.51038">
        <ele>1123</ele>
        <time>1990-12-07T13:57:11Z</time>
      </trkpt>
      <trkpt lat="43.98863" lon="6.51002">
        <ele>1122</ele>
        <time>1990-12-07T13:57:35Z</time>
      </trkpt>
      <trkpt lat="43.98933" lon="6.50987">
        <ele>1121</ele>
        <time>1990-12-07T13:57:58Z</time>
      </trkpt>
      <trkpt lat="43.98987" lon="6.50967">
        <ele>1123</ele>
        <time>1990-12-07T13:58:20Z</time>
      </trkpt>
      <trkpt lat="43.9902" lon="6.50962">
        <ele>1124</ele>
        <time>1990-12-07T13:58:35Z</time>
      </trkpt>
      <trkpt lat="43.99078" lon="6.50947">
        <ele>1127</ele>
        <time>1990-12-07T13:59:01Z</time>
      </trkpt>
      <trkpt lat="43.99132" lon="6.50928">
        <ele>1124</ele>
        <time>1990-12-07T13:59:20Z</time>
      </trkpt>
      <trkpt lat="43.99162" lon="6.50908">
        <ele>1120</ele>
        <time>1990-12-07T13:59:27Z</time>
      </trkpt>
      <trkpt lat="43.99178" lon="6.50912">
        <ele>1118</ele>
        <time>1990-12-07T13:59:31Z</time>
      </trkpt>
      <trkpt lat="43.9919" lon="6.50922">
        <ele>1115</ele>
        <time>1990-12-07T14:05:19Z</time>
      </trkpt>
      <trkpt lat="43.99192" lon="6.50932">
        <ele>1116</ele>
        <time>1990-12-07T14:05:35Z</time>
      </trkpt>
      <trkpt lat="43.99218" lon="6.5094">
        <ele>1120</ele>
        <time>1990-12-07T14:06:03Z</time>
      </trkpt>
      <trkpt lat="43.99237" lon="6.50937">
        <ele>1122</ele>
        <time>1990-12-07T14:06:18Z</time>
      </trkpt>
      <trkpt lat="43.9925" lon="6.50938">
        <ele>1123</ele>
        <time>1990-12-07T14:06:34Z</time>
      </trkpt>
      <trkpt lat="43.99265" lon="6.50928">
        <ele>1125</ele>
        <time>1990-12-07T14:06:50Z</time>
      </trkpt>
      <trkpt lat="43.99285" lon="6.50932">
        <ele>1127</ele>
        <time>1990-12-07T14:07:07Z</time>
      </trkpt>
      <trkpt lat="43.993" lon="6.50918">
        <ele>1128</ele>
        <time>1990-12-07T14:07:25Z</time>
      </trkpt>
      <trkpt lat="43.99308" lon="6.50912">
        <ele>1126</ele>
        <time>1990-12-07T14:07:33Z</time>
      </trkpt>
      <trkpt lat="43.99322" lon="6.50898">
        <ele>1126</ele>
        <time>1990-12-07T14:07:42Z</time>
      </trkpt>
      <trkpt lat="43.99353" lon="6.50865">
        <ele>1122</ele>
        <time>1990-12-07T14:08:00Z</time>
      </trkpt>
      <trkpt lat="43.99392" lon="6.50845">
        <ele>1121</ele>
        <time>1990-12-07T14:08:18Z</time>
      </trkpt>
      <trkpt lat="43.99422" lon="6.50802">
        <ele>1118</ele>
        <time>1990-12-07T14:08:40Z</time>
      </trkpt>
      <trkpt lat="43.99465" lon="6.50778">
        <ele>1114</ele>
        <time>1990-12-07T14:08:59Z</time>
      </trkpt>
      <trkpt lat="43.99487" lon="6.50768">
        <ele>1112</ele>
        <time>1990-12-07T14:09:21Z</time>
      </trkpt>
      <trkpt lat="43.99488" lon="6.5077">
        <ele>1108</ele>
        <time>1990-12-07T14:11:20Z</time>
      </trkpt>
      <trkpt lat="43.99502" lon="6.50762">
        <ele>1105</ele>
        <time>1990-12-07T14:18:31Z</time>
      </trkpt>
      <trkpt lat="43.99527" lon="6.50743">
        <ele>1101</ele>
        <time>1990-12-07T14:18:41Z</time>
      </trkpt>
      <trkpt lat="43.99548" lon="6.50727">
        <ele>1099</ele>
        <time>1990-12-07T14:18:52Z</time>
      </trkpt>
      <trkpt lat="43.99583" lon="6.50697">
        <ele>1093</ele>
        <time>1990-12-07T14:19:11Z</time>
      </trkpt>
      <trkpt lat="43.99628" lon="6.50663">
        <ele>1087</ele>
        <time>1990-12-07T14:19:26Z</time>
      </trkpt>
      <trkpt lat="43.99672" lon="6.50627">
        <ele>1084</ele>
        <time>1990-12-07T14:19:56Z</time>
      </trkpt>
      <trkpt lat="43.99705" lon="6.5058">
        <ele>1077</ele>
        <time>1990-12-07T14:20:12Z</time>
      </trkpt>
      <trkpt lat="43.99732" lon="6.50533">
        <ele>1070</ele>
        <time>1990-12-07T14:20:25Z</time>
      </trkpt>
      <trkpt lat="43.99743" lon="6.50488">
        <ele>1063</ele>
        <time>1990-12-07T14:20:34Z</time>
      </trkpt>
      <trkpt lat="43.99755" lon="6.50457">
        <ele>1058</ele>
        <time>1990-12-07T14:20:40Z</time>
      </trkpt>
      <trkpt lat="43.99773" lon="6.5041">
        <ele>1049</ele>
        <time>1990-12-07T14:20:49Z</time>
      </trkpt>
      <trkpt lat="43.99788" lon="6.50383">
        <ele>1041</ele>
        <time>1990-12-07T14:20:56Z</time>
      </trkpt>
      <trkpt lat="43.99807" lon="6.50362">
        <ele>1036</ele>
        <time>1990-12-07T14:21:03Z</time>
      </trkpt>
      <trkpt lat="43.99782" lon="6.50352">
        <ele>1034</ele>
        <time>1990-12-07T14:21:18Z</time>
      </trkpt>
      <trkpt lat="43.99767" lon="6.50363">
        <ele>1031</ele>
        <time>1990-12-07T14:21:25Z</time>
      </trkpt>
      <trkpt lat="43.99725" lon="6.50398">
        <ele>1026</ele>
        <time>1990-12-07T14:21:41Z</time>
      </trkpt>
      <trkpt lat="43.99672" lon="6.5041">
        <ele>1020</ele>
        <time>1990-12-07T14:21:54Z</time>
      </trkpt>
      <trkpt lat="43.9962" lon="6.50438">
        <ele>1014</ele>
        <time>1990-12-07T14:22:16Z</time>
      </trkpt>
      <trkpt lat="43.99632" lon="6.5042">
        <ele>1009</ele>
        <time>1990-12-07T14:22:30Z</time>
      </trkpt>
      <trkpt lat="43.99665" lon="6.50383">
        <ele>1003</ele>
        <time>1990-12-07T14:22:47Z</time>
      </trkpt>
      <trkpt lat="43.99618" lon="6.50407">
        <ele>997</ele>
        <time>1990-12-07T14:23:03Z</time>
      </trkpt>
      <trkpt lat="43.99602" lon="6.50425">
        <ele>994</ele>
        <time>1990-12-07T14:23:11Z</time>
      </trkpt>
      <trkpt lat="43.99568" lon="6.50443">
        <ele>991</ele>
        <time>1990-12-07T14:23:22Z</time>
      </trkpt>
      <trkpt lat="43.99542" lon="6.50458">
        <ele>987</ele>
        <time>1990-12-07T14:23:32Z</time>
      </trkpt>
      <trkpt lat="43.99495" lon="6.50512">
        <ele>980</ele>
        <time>1990-12-07T14:23:48Z</time>
      </trkpt>
      <trkpt lat="43.99432" lon="6.50525">
        <ele>974</ele>
        <time>1990-12-07T14:24:06Z</time>
      </trkpt>
      <trkpt lat="43.99445" lon="6.50507">
        <ele>971</ele>
        <time>1990-12-07T14:24:16Z</time>
      </trkpt>
      <trkpt lat="43.99475" lon="6.50478">
        <ele>966</ele>
        <time>1990-12-07T14:24:27Z</time>
      </trkpt>
      <trkpt lat="43.99495" lon="6.50443">
        <ele>962</ele>
        <time>1990-12-07T14:24:33Z</time>
      </trkpt>
      <trkpt lat="43.99535" lon="6.50393">
        <ele>956</ele>
        <time>1990-12-07T14:24:45Z</time>
      </trkpt>
      <trkpt lat="43.99557" lon="6.5034">
        <ele>952</ele>
        <time>1990-12-07T14:24:54Z</time>
      </trkpt>
      <trkpt lat="43.9957" lon="6.50317">
        <ele>952</ele>
        <time>1990-12-07T14:25:07Z</time>
      </trkpt>
      <trkpt lat="43.99552" lon="6.50272">
        <ele>951</ele>
        <time>1990-12-07T14:27:17Z</time>
      </trkpt>
      <trkpt lat="43.99508" lon="6.5028">
        <ele>952</ele>
        <time>1990-12-07T14:27:38Z</time>
      </trkpt>
      <trkpt lat="43.9945" lon="6.50262">
        <ele>952</ele>
        <time>1990-12-07T14:27:55Z</time>
      </trkpt>
      <trkpt lat="43.99398" lon="6.50295">
        <ele>952</ele>
        <time>1990-12-07T14:28:06Z</time>
      </trkpt>
      <trkpt lat="43.99358" lon="6.50312">
        <ele>951</ele>
        <time>1990-12-07T14:28:14Z</time>
      </trkpt>
      <trkpt lat="43.99265" lon="6.50297">
        <ele>952</ele>
        <time>1990-12-07T14:28:33Z</time>
      </trkpt>
      <trkpt lat="43.99185" lon="6.50332">
        <ele>952</ele>
        <time>1990-12-07T14:28:51Z</time>
      </trkpt>
      <trkpt lat="43.99123" lon="6.50348">
        <ele>951</ele>
        <time>1990-12-07T14:29:04Z</time>
      </trkpt>
      <trkpt lat="43.99017" lon="6.50408">
        <ele>949</ele>
        <time>1990-12-07T14:29:24Z</time>
      </trkpt>
      <trkpt lat="43.98933" lon="6.5052">
        <ele>947</ele>
        <time>1990-12-07T14:29:42Z</time>
      </trkpt>
      <trkpt lat="43.98818" lon="6.50477">
        <ele>944</ele>
        <time>1990-12-07T14:29:57Z</time>
      </trkpt>
      <trkpt lat="43.98715" lon="6.50468">
        <ele>941</ele>
        <time>1990-12-07T14:30:10Z</time>
      </trkpt>
      <trkpt lat="43.98518" lon="6.50598">
        <ele>937</ele>
        <time>1990-12-07T14:30:36Z</time>
      </trkpt>
      <trkpt lat="43.98425" lon="6.50645">
        <ele>938</ele>
        <time>1990-12-07T14:30:48Z</time>
      </trkpt>
      <trkpt lat="43.98298" lon="6.5067">
        <ele>935</ele>
        <time>1990-12-07T14:31:04Z</time>
      </trkpt>
      <trkpt lat="43.98218" lon="6.5071">
        <ele>933</ele>
        <time>1990-12-07T14:31:14Z</time>
      </trkpt>
      <trkpt lat="43.98175" lon="6.50748">
        <ele>932</ele>
        <time>1990-12-07T14:31:20Z</time>
      </trkpt>
      <trkpt lat="43.98118" lon="6.50733">
        <ele>931</ele>
        <time>1990-12-07T14:31:27Z</time>
      </trkpt>
      <trkpt lat="43.97992" lon="6.50772">
        <ele>928</ele>
        <time>1990-12-07T14:31:43Z</time>
      </trkpt>
      <trkpt lat="43.97955" lon="6.50785">
        <ele>927</ele>
        <time>1990-12-07T14:31:48Z</time>
      </trkpt>
      <trkpt lat="43.97887" lon="6.50797">
        <ele>928</ele>
        <time>1990-12-07T14:31:57Z</time>
      </trkpt>
      <trkpt lat="43.97788" lon="6.50842">
        <ele>927</ele>
        <time>1990-12-07T14:32:12Z</time>
      </trkpt>
      <trkpt lat="43.97688" lon="6.50878">
        <ele>925</ele>
        <time>1990-12-07T14:32:26Z</time>
      </trkpt>
      <trkpt lat="43.97558" lon="6.50917">
        <ele>926</ele>
        <time>1990-12-07T14:32:45Z</time>
      </trkpt>
      <trkpt lat="43.97437" lon="6.50865">
        <ele>925</ele>
        <time>1990-12-07T14:33:03Z</time>
      </trkpt>
      <trkpt lat="43.97367" lon="6.5086">
        <ele>925</ele>
        <time>1990-12-07T14:33:14Z</time>
      </trkpt>
      <trkpt lat="43.97313" lon="6.5095">
        <ele>923</ele>
        <time>1990-12-07T14:33:26Z</time>
      </trkpt>
      <trkpt lat="43.9729" lon="6.50928">
        <ele>921</ele>
        <time>1990-12-07T14:33:30Z</time>
      </trkpt>
      <trkpt lat="43.97178" lon="6.50995">
        <ele>918</ele>
        <time>1990-12-07T14:33:47Z</time>
      </trkpt>
      <trkpt lat="43.97138" lon="6.51058">
        <ele>915</ele>
        <time>1990-12-07T14:33:55Z</time>
      </trkpt>
      <trkpt lat="43.9707" lon="6.5108">
        <ele>912</ele>
        <time>1990-12-07T14:34:04Z</time>
      </trkpt>
      <trkpt lat="43.97017" lon="6.5109">
        <ele>911</ele>
        <time>1990-12-07T14:34:18Z</time>
      </trkpt>
      <trkpt lat="43.96913" lon="6.51055">
        <ele>911</ele>
        <time>1990-12-07T14:34:36Z</time>
      </trkpt>
      <trkpt lat="43.96862" lon="6.50992">
        <ele>909</ele>
        <time>1990-12-07T14:34:49Z</time>
      </trkpt>
      <trkpt lat="43.96833" lon="6.50965">
        <ele>909</ele>
        <time>1990-12-07T14:34:57Z</time>
      </trkpt>
      <trkpt lat="43.96788" lon="6.50932">
        <ele>908</ele>
        <time>1990-12-07T14:35:14Z</time>
      </trkpt>
      <trkpt lat="43.9678" lon="6.5093">
        <ele>907</ele>
        <time>1990-12-07T14:36:19Z</time>
      </trkpt>
      <trkpt lat="43.96757" lon="6.50905">
        <ele>905</ele>
        <time>1990-12-07T14:38:54Z</time>
      </trkpt>
      <trkpt lat="43.9671" lon="6.50872">
        <ele>905</ele>
        <time>1990-12-07T14:39:07Z</time>
      </trkpt>
      <trkpt lat="43.966" lon="6.50802">
        <ele>905</ele>
        <time>1990-12-07T14:39:32Z</time>
      </trkpt>
      <trkpt lat="43.9647" lon="6.50695">
        <ele>905</ele>
        <time>1990-12-07T14:40:00Z</time>
      </trkpt>
      <trkpt lat="43.9645" lon="6.50653">
        <ele>906</ele>
        <time>1990-12-07T14:40:07Z</time>
      </trkpt>
      <trkpt lat="43.96452" lon="6.50552">
        <ele>911</ele>
        <time>1990-12-07T14:40:31Z</time>
      </trkpt>
      <trkpt lat="43.9639" lon="6.50513">
        <ele>912</ele>
        <time>1990-12-07T14:40:56Z</time>
      </trkpt>
      <trkpt lat="43.96275" lon="6.50428">
        <ele>910</ele>
        <time>1990-12-07T14:41:21Z</time>
      </trkpt>
      <trkpt lat="43.96222" lon="6.50313">
        <ele>915</ele>
        <time>1990-12-07T14:41:47Z</time>
      </trkpt>
      <trkpt lat="43.96203" lon="6.50232">
        <ele>919</ele>
        <time>1990-12-07T14:42:09Z</time>
      </trkpt>
      <trkpt lat="43.96137" lon="6.50185">
        <ele>920</ele>
        <time>1990-12-07T14:42:31Z</time>
      </trkpt>
      <trkpt lat="43.96087" lon="6.50182">
        <ele>917</ele>
        <time>1990-12-07T14:42:45Z</time>
      </trkpt>
      <trkpt lat="43.96013" lon="6.50175">
        <ele>917</ele>
        <time>1990-12-07T14:43:00Z</time>
      </trkpt>
      <trkpt lat="43.95988" lon="6.50135">
        <ele>920</ele>
        <time>1990-12-07T14:43:14Z</time>
      </trkpt>
      <trkpt lat="43.95985" lon="6.50113">
        <ele>923</ele>
        <time>1990-12-07T14:43:21Z</time>
      </trkpt>
      <trkpt lat="43.95972" lon="6.50137">
        <ele>925</ele>
        <time>1990-12-07T14:43:34Z</time>
      </trkpt>
      <trkpt lat="43.9591" lon="6.50133">
        <ele>931</ele>
        <time>1990-12-07T14:44:01Z</time>
      </trkpt>
      <trkpt lat="43.95885" lon="6.50138">
        <ele>933</ele>
        <time>1990-12-07T14:44:17Z</time>
      </trkpt>
      <trkpt lat="43.95838" lon="6.50208">
        <ele>936</ele>
        <time>1990-12-07T14:44:41Z</time>
      </trkpt>
      <trkpt lat="43.95795" lon="6.50168">
        <ele>939</ele>
        <time>1990-12-07T14:45:02Z</time>
      </trkpt>
      <trkpt lat="43.95767" lon="6.50112">
        <ele>946</ele>
        <time>1990-12-07T14:45:24Z</time>
      </trkpt>
      <trkpt lat="43.95782" lon="6.5007">
        <ele>949</ele>
        <time>1990-12-07T14:45:39Z</time>
      </trkpt>
      <trkpt lat="43.95783" lon="6.50032">
        <ele>951</ele>
        <time>1990-12-07T14:45:51Z</time>
      </trkpt>
      <trkpt lat="43.95818" lon="6.49985">
        <ele>955</ele>
        <time>1990-12-07T14:46:13Z</time>
      </trkpt>
      <trkpt lat="43.9586" lon="6.49948">
        <ele>958</ele>
        <time>1990-12-07T14:46:31Z</time>
      </trkpt>
      <trkpt lat="43.95857" lon="6.49925">
        <ele>961</ele>
        <time>1990-12-07T14:46:41Z</time>
      </trkpt>
      <trkpt lat="43.9586" lon="6.4988">
        <ele>964</ele>
        <time>1990-12-07T14:46:54Z</time>
      </trkpt>
      <trkpt lat="43.95888" lon="6.49827">
        <ele>970</ele>
        <time>1990-12-07T14:47:19Z</time>
      </trkpt>
      <trkpt lat="43.95913" lon="6.49807">
        <ele>973</ele>
        <time>1990-12-07T14:47:31Z</time>
      </trkpt>
      <trkpt lat="43.95925" lon="6.49762">
        <ele>977</ele>
        <time>1990-12-07T14:47:50Z</time>
      </trkpt>
      <trkpt lat="43.95908" lon="6.49763">
        <ele>978</ele>
        <time>1990-12-07T14:48:15Z</time>
      </trkpt>
      <trkpt lat="43.95857" lon="6.49815">
        <ele>975</ele>
        <time>1990-12-07T14:48:34Z</time>
      </trkpt>
      <trkpt lat="43.95787" lon="6.49875">
        <ele>973</ele>
        <time>1990-12-07T14:48:55Z</time>
      </trkpt>
      <trkpt lat="43.95745" lon="6.49892">
        <ele>973</ele>
        <time>1990-12-07T14:49:09Z</time>
      </trkpt>
      <trkpt lat="43.95693" lon="6.49963">
        <ele>974</ele>
        <time>1990-12-07T14:49:28Z</time>
      </trkpt>
      <trkpt lat="43.95623" lon="6.50045">
        <ele>975</ele>
        <time>1990-12-07T14:49:51Z</time>
      </trkpt>
      <trkpt lat="43.95588" lon="6.50092">
        <ele>975</ele>
        <time>1990-12-07T14:50:04Z</time>
      </trkpt>
      <trkpt lat="43.95575" lon="6.50173">
        <ele>973</ele>
        <time>1990-12-07T14:50:19Z</time>
      </trkpt>
      <trkpt lat="43.95535" lon="6.502">
        <ele>973</ele>
        <time>1990-12-07T14:50:48Z</time>
      </trkpt>
      <trkpt lat="43.95528" lon="6.50205">
        <ele>976</ele>
        <time>1990-12-07T14:50:55Z</time>
      </trkpt>
      <trkpt lat="43.95525" lon="6.50212">
        <ele>973</ele>
        <time>1990-12-07T14:51:19Z</time>
      </trkpt>
      <trkpt lat="43.95547" lon="6.50295">
        <ele>969</ele>
        <time>1990-12-07T14:51:36Z</time>
      </trkpt>
      <trkpt lat="43.95592" lon="6.50368">
        <ele>964</ele>
        <time>1990-12-07T14:51:50Z</time>
      </trkpt>
      <trkpt lat="43.95583" lon="6.50412">
        <ele>959</ele>
        <time>1990-12-07T14:52:03Z</time>
      </trkpt>
      <trkpt lat="43.95572" lon="6.50453">
        <ele>956</ele>
        <time>1990-12-07T14:52:29Z</time>
      </trkpt>
      <trkpt lat="43.9556" lon="6.50497">
        <ele>955</ele>
        <time>1990-12-07T14:52:41Z</time>
      </trkpt>
      <trkpt lat="43.95552" lon="6.50552">
        <ele>951</ele>
        <time>1990-12-07T14:52:51Z</time>
      </trkpt>
      <trkpt lat="43.95565" lon="6.50578">
        <ele>949</ele>
        <time>1990-12-07T14:52:56Z</time>
      </trkpt>
      <trkpt lat="43.9557" lon="6.50625">
        <ele>947</ele>
        <time>1990-12-07T14:53:02Z</time>
      </trkpt>
      <trkpt lat="43.95562" lon="6.5064">
        <ele>945</ele>
        <time>1990-12-07T14:53:06Z</time>
      </trkpt>
      <trkpt lat="43.95527" lon="6.50682">
        <ele>948</ele>
        <time>1990-12-07T14:53:21Z</time>
      </trkpt>
      <trkpt lat="43.9549" lon="6.50715">
        <ele>949</ele>
        <time>1990-12-07T14:53:53Z</time>
      </trkpt>
      <trkpt lat="43.95463" lon="6.50735">
        <ele>948</ele>
        <time>1990-12-07T14:54:15Z</time>
      </trkpt>
      <trkpt lat="43.95433" lon="6.50778">
        <ele>948</ele>
        <time>1990-12-07T14:54:39Z</time>
      </trkpt>
      <trkpt lat="43.95423" lon="6.50768">
        <ele>945</ele>
        <time>1990-12-07T14:55:15Z</time>
      </trkpt>
      <trkpt lat="43.954" lon="6.50757">
        <ele>939</ele>
        <time>1990-12-07T14:55:40Z</time>
      </trkpt>
      <trkpt lat="43.95375" lon="6.50765">
        <ele>938</ele>
        <time>1990-12-07T14:55:49Z</time>
      </trkpt>
      <trkpt lat="43.95378" lon="6.50798">
        <ele>938</ele>
        <time>1990-12-07T14:55:58Z</time>
      </trkpt>
      <trkpt lat="43.95362" lon="6.508">
        <ele>941</ele>
        <time>1990-12-07T14:56:21Z</time>
      </trkpt>
      <trkpt lat="43.95357" lon="6.50793">
        <ele>939</ele>
        <time>1990-12-07T15:00:41Z</time>
      </trkpt>
      <trkpt lat="43.95332" lon="6.5082">
        <ele>942</ele>
        <time>1990-12-07T15:01:09Z</time>
      </trkpt>
      <trkpt lat="43.95302" lon="6.50862">
        <ele>946</ele>
        <time>1990-12-07T15:01:36Z</time>
      </trkpt>
      <trkpt lat="43.95302" lon="6.50832">
        <ele>948</ele>
        <time>1990-12-07T15:01:51Z</time>
      </trkpt>
      <trkpt lat="43.9531" lon="6.50795">
        <ele>951</ele>
        <time>1990-12-07T15:02:14Z</time>
      </trkpt>
      <trkpt lat="43.95278" lon="6.50782">
        <ele>954</ele>
        <time>1990-12-07T15:02:38Z</time>
      </trkpt>
      <trkpt lat="43.95257" lon="6.50798">
        <ele>956</ele>
        <time>1990-12-07T15:02:55Z</time>
      </trkpt>
      <trkpt lat="43.95252" lon="6.50833">
        <ele>958</ele>
        <time>1990-12-07T15:03:12Z</time>
      </trkpt>
      <trkpt lat="43.95237" lon="6.5083">
        <ele>960</ele>
        <time>1990-12-07T15:03:31Z</time>
      </trkpt>
      <trkpt lat="43.95242" lon="6.50773">
        <ele>963</ele>
        <time>1990-12-07T15:03:54Z</time>
      </trkpt>
      <trkpt lat="43.95263" lon="6.50702">
        <ele>966</ele>
        <time>1990-12-07T15:04:24Z</time>
      </trkpt>
      <trkpt lat="43.95248" lon="6.50688">
        <ele>967</ele>
        <time>1990-12-07T15:04:36Z</time>
      </trkpt>
      <trkpt lat="43.95215" lon="6.50748">
        <ele>971</ele>
        <time>1990-12-07T15:05:05Z</time>
      </trkpt>
      <trkpt lat="43.95175" lon="6.50795">
        <ele>975</ele>
        <time>1990-12-07T15:05:36Z</time>
      </trkpt>
      <trkpt lat="43.95147" lon="6.5083">
        <ele>979</ele>
        <time>1990-12-07T15:06:00Z</time>
      </trkpt>
      <trkpt lat="43.95095" lon="6.50815">
        <ele>983</ele>
        <time>1990-12-07T15:06:28Z</time>
      </trkpt>
      <trkpt lat="43.95072" lon="6.50803">
        <ele>984</ele>
        <time>1990-12-07T15:06:43Z</time>
      </trkpt>
      <trkpt lat="43.95042" lon="6.50795">
        <ele>987</ele>
        <time>1990-12-07T15:07:02Z</time>
      </trkpt>
      <trkpt lat="43.94998" lon="6.5078">
        <ele>989</ele>
        <time>1990-12-07T15:07:26Z</time>
      </trkpt>
      <trkpt lat="43.94995" lon="6.50757">
        <ele>992</ele>
        <time>1990-12-07T15:07:43Z</time>
      </trkpt>
      <trkpt lat="43.95053" lon="6.50747">
        <ele>996</ele>
        <time>1990-12-07T15:08:13Z</time>
      </trkpt>
      <trkpt lat="43.95108" lon="6.50702">
        <ele>999</ele>
        <time>1990-12-07T15:08:46Z</time>
      </trkpt>
      <trkpt lat="43.95155" lon="6.50663">
        <ele>1003</ele>
        <time>1990-12-07T15:09:15Z</time>
      </trkpt>
      <trkpt lat="43.95173" lon="6.5064">
        <ele>1005</ele>
        <time>1990-12-07T15:09:34Z</time>
      </trkpt>
      <trkpt lat="43.95128" lon="6.50667">
        <ele>1009</ele>
        <time>1990-12-07T15:10:01Z</time>
      </trkpt>
      <trkpt lat="43.95075" lon="6.50678">
        <ele>1012</ele>
        <time>1990-12-07T15:10:30Z</time>
      </trkpt>
      <trkpt lat="43.95027" lon="6.50692">
        <ele>1015</ele>
        <time>1990-12-07T15:10:59Z</time>
      </trkpt>
      <trkpt lat="43.9498" lon="6.50688">
        <ele>1018</ele>
        <time>1990-12-07T15:11:25Z</time>
      </trkpt>
      <trkpt lat="43.94932" lon="6.50717">
        <ele>1022</ele>
        <time>1990-12-07T15:11:55Z</time>
      </trkpt>
      <trkpt lat="43.94892" lon="6.50745">
        <ele>1026</ele>
        <time>1990-12-07T15:12:22Z</time>
      </trkpt>
      <trkpt lat="43.94885" lon="6.50727">
        <ele>1027</ele>
        <time>1990-12-07T15:12:30Z</time>
      </trkpt>
      <trkpt lat="43.9493" lon="6.50688">
        <ele>1031</ele>
        <time>1990-12-07T15:13:00Z</time>
      </trkpt>
      <trkpt lat="43.94965" lon="6.50655">
        <ele>1035</ele>
        <time>1990-12-07T15:13:27Z</time>
      </trkpt>
      <trkpt lat="43.94957" lon="6.50638">
        <ele>1036</ele>
        <time>1990-12-07T15:13:38Z</time>
      </trkpt>
      <trkpt lat="43.94945" lon="6.50648">
        <ele>1037</ele>
        <time>1990-12-07T15:13:46Z</time>
      </trkpt>
      <trkpt lat="43.94892" lon="6.5066">
        <ele>1039</ele>
        <time>1990-12-07T15:14:13Z</time>
      </trkpt>
      <trkpt lat="43.94848" lon="6.50687">
        <ele>1044</ele>
        <time>1990-12-07T15:14:40Z</time>
      </trkpt>
      <trkpt lat="43.9481" lon="6.50713">
        <ele>1048</ele>
        <time>1990-12-07T15:15:04Z</time>
      </trkpt>
      <trkpt lat="43.94788" lon="6.50737">
        <ele>1051</ele>
        <time>1990-12-07T15:15:20Z</time>
      </trkpt>
      <trkpt lat="43.94745" lon="6.5076">
        <ele>1055</ele>
        <time>1990-12-07T15:15:49Z</time>
      </trkpt>
      <trkpt lat="43.94693" lon="6.50732">
        <ele>1056</ele>
        <time>1990-12-07T15:16:19Z</time>
      </trkpt>
      <trkpt lat="43.94608" lon="6.50703">
        <ele>1057</ele>
        <time>1990-12-07T15:16:48Z</time>
      </trkpt>
      <trkpt lat="43.94527" lon="6.50662">
        <ele>1059</ele>
        <time>1990-12-07T15:17:17Z</time>
      </trkpt>
      <trkpt lat="43.94472" lon="6.50615">
        <ele>1063</ele>
        <time>1990-12-07T15:17:45Z</time>
      </trkpt>
      <trkpt lat="43.94417" lon="6.50567">
        <ele>1067</ele>
        <time>1990-12-07T15:18:14Z</time>
      </trkpt>
      <trkpt lat="43.94367" lon="6.50513">
        <ele>1071</ele>
        <time>1990-12-07T15:18:45Z</time>
      </trkpt>
      <trkpt lat="43.94312" lon="6.50482">
        <ele>1075</ele>
        <time>1990-12-07T15:19:16Z</time>
      </trkpt>
      <trkpt lat="43.94267" lon="6.50465">
        <ele>1079</ele>
        <time>1990-12-07T15:19:41Z</time>
      </trkpt>
      <trkpt lat="43.94195" lon="6.50458">
        <ele>1082</ele>
        <time>1990-12-07T15:20:15Z</time>
      </trkpt>
      <trkpt lat="43.94125" lon="6.5043">
        <ele>1085</ele>
        <time>1990-12-07T15:20:49Z</time>
      </trkpt>
      <trkpt lat="43.94072" lon="6.50388">
        <ele>1089</ele>
        <time>1990-12-07T15:21:20Z</time>
      </trkpt>
      <trkpt lat="43.94013" lon="6.50357">
        <ele>1094</ele>
        <time>1990-12-07T15:21:50Z</time>
      </trkpt>
      <trkpt lat="43.93967" lon="6.50343">
        <ele>1097</ele>
        <time>1990-12-07T15:22:15Z</time>
      </trkpt>
      <trkpt lat="43.9394" lon="6.5032">
        <ele>1099</ele>
        <time>1990-12-07T15:22:33Z</time>
      </trkpt>
      <trkpt lat="43.93962" lon="6.50313">
        <ele>1102</ele>
        <time>1990-12-07T15:22:56Z</time>
      </trkpt>
      <trkpt lat="43.94013" lon="6.50295">
        <ele>1107</ele>
        <time>1990-12-07T15:23:25Z</time>
      </trkpt>
      <trkpt lat="43.94043" lon="6.50235">
        <ele>1110</ele>
        <time>1990-12-07T15:23:52Z</time>
      </trkpt>
      <trkpt lat="43.94028" lon="6.50212">
        <ele>1111</ele>
        <time>1990-12-07T15:24:06Z</time>
      </trkpt>
      <trkpt lat="43.93978" lon="6.50243">
        <ele>1114</ele>
        <time>1990-12-07T15:24:36Z</time>
      </trkpt>
      <trkpt lat="43.93993" lon="6.502">
        <ele>1117</ele>
        <time>1990-12-07T15:24:59Z</time>
      </trkpt>
      <trkpt lat="43.94028" lon="6.50143">
        <ele>1122</ele>
        <time>1990-12-07T15:25:29Z</time>
      </trkpt>
      <trkpt lat="43.94025" lon="6.50127">
        <ele>1123</ele>
        <time>1990-12-07T15:25:38Z</time>
      </trkpt>
      <trkpt lat="43.94008" lon="6.5015">
        <ele>1124</ele>
        <time>1990-12-07T15:25:51Z</time>
      </trkpt>
      <trkpt lat="43.93977" lon="6.50165">
        <ele>1127</ele>
        <time>1990-12-07T15:26:10Z</time>
      </trkpt>
      <trkpt lat="43.93942" lon="6.50167">
        <ele>1130</ele>
        <time>1990-12-07T15:26:32Z</time>
      </trkpt>
      <trkpt lat="43.93948" lon="6.50143">
        <ele>1132</ele>
        <time>1990-12-07T15:26:47Z</time>
      </trkpt>
      <trkpt lat="43.93973" lon="6.50133">
        <ele>1134</ele>
        <time>1990-12-07T15:27:04Z</time>
      </trkpt>
      <trkpt lat="43.94008" lon="6.50077">
        <ele>1138</ele>
        <time>1990-12-07T15:27:30Z</time>
      </trkpt>
      <trkpt lat="43.9401" lon="6.50067">
        <ele>1139</ele>
        <time>1990-12-07T15:27:35Z</time>
      </trkpt>
      <trkpt lat="43.94022" lon="6.5001">
        <ele>1143</ele>
        <time>1990-12-07T15:28:04Z</time>
      </trkpt>
      <trkpt lat="43.94025" lon="6.49978">
        <ele>1145</ele>
        <time>1990-12-07T15:28:21Z</time>
      </trkpt>
      <trkpt lat="43.94035" lon="6.49955">
        <ele>1147</ele>
        <time>1990-12-07T15:28:36Z</time>
      </trkpt>
      <trkpt lat="43.94045" lon="6.49913">
        <ele>1150</ele>
        <time>1990-12-07T15:29:02Z</time>
      </trkpt>
      <trkpt lat="43.94023" lon="6.4992">
        <ele>1152</ele>
        <time>1990-12-07T15:29:19Z</time>
      </trkpt>
      <trkpt lat="43.93995" lon="6.49968">
        <ele>1154</ele>
        <time>1990-12-07T15:29:47Z</time>
      </trkpt>
      <trkpt lat="43.9395" lon="6.49968">
        <ele>1158</ele>
        <time>1990-12-07T15:30:17Z</time>
      </trkpt>
      <trkpt lat="43.93922" lon="6.49943">
        <ele>1161</ele>
        <time>1990-12-07T15:30:42Z</time>
      </trkpt>
      <trkpt lat="43.93895" lon="6.49922">
        <ele>1163</ele>
        <time>1990-12-07T15:31:04Z</time>
      </trkpt>
      <trkpt lat="43.93878" lon="6.49902">
        <ele>1164</ele>
        <time>1990-12-07T15:31:20Z</time>
      </trkpt>
      <trkpt lat="43.93873" lon="6.49852">
        <ele>1169</ele>
        <time>1990-12-07T15:31:46Z</time>
      </trkpt>
      <trkpt lat="43.93887" lon="6.49782">
        <ele>1172</ele>
        <time>1990-12-07T15:32:19Z</time>
      </trkpt>
      <trkpt lat="43.93838" lon="6.49772">
        <ele>1175</ele>
        <time>1990-12-07T15:32:50Z</time>
      </trkpt>
      <trkpt lat="43.93788" lon="6.49782">
        <ele>1179</ele>
        <time>1990-12-07T15:33:20Z</time>
      </trkpt>
      <trkpt lat="43.93757" lon="6.49777">
        <ele>1181</ele>
        <time>1990-12-07T15:33:39Z</time>
      </trkpt>
      <trkpt lat="43.93755" lon="6.49795">
        <ele>1182</ele>
        <time>1990-12-07T15:33:47Z</time>
      </trkpt>
      <trkpt lat="43.93798" lon="6.49822">
        <ele>1184</ele>
        <time>1990-12-07T15:34:10Z</time>
      </trkpt>
      <trkpt lat="43.93772" lon="6.49865">
        <ele>1186</ele>
        <time>1990-12-07T15:34:31Z</time>
      </trkpt>
      <trkpt lat="43.93733" lon="6.49887">
        <ele>1190</ele>
        <time>1990-12-07T15:34:57Z</time>
      </trkpt>
      <trkpt lat="43.93722" lon="6.49895">
        <ele>1193</ele>
        <time>1990-12-07T15:45:18Z</time>
      </trkpt>
      <trkpt lat="43.9368" lon="6.49928">
        <ele>1196</ele>
        <time>1990-12-07T15:45:46Z</time>
      </trkpt>
      <trkpt lat="43.93632" lon="6.49952">
        <ele>1199</ele>
        <time>1990-12-07T15:46:17Z</time>
      </trkpt>
      <trkpt lat="43.93595" lon="6.4999">
        <ele>1202</ele>
        <time>1990-12-07T15:46:43Z</time>
      </trkpt>
      <trkpt lat="43.93597" lon="6.4996">
        <ele>1203</ele>
        <time>1990-12-07T15:46:55Z</time>
      </trkpt>
      <trkpt lat="43.93632" lon="6.49912">
        <ele>1207</ele>
        <time>1990-12-07T15:47:20Z</time>
      </trkpt>
      <trkpt lat="43.9366" lon="6.49857">
        <ele>1211</ele>
        <time>1990-12-07T15:47:50Z</time>
      </trkpt>
      <trkpt lat="43.93643" lon="6.49855">
        <ele>1214</ele>
        <time>1990-12-07T15:48:07Z</time>
      </trkpt>
      <trkpt lat="43.93588" lon="6.499">
        <ele>1218</ele>
        <time>1990-12-07T15:48:39Z</time>
      </trkpt>
      <trkpt lat="43.93543" lon="6.49938">
        <ele>1221</ele>
        <time>1990-12-07T15:49:07Z</time>
      </trkpt>
      <trkpt lat="43.93493" lon="6.49982">
        <ele>1226</ele>
        <time>1990-12-07T15:49:37Z</time>
      </trkpt>
      <trkpt lat="43.93442" lon="6.50028">
        <ele>1230</ele>
        <time>1990-12-07T15:50:09Z</time>
      </trkpt>
      <trkpt lat="43.93423" lon="6.50052">
        <ele>1232</ele>
        <time>1990-12-07T15:50:23Z</time>
      </trkpt>
      <trkpt lat="43.93417" lon="6.50037">
        <ele>1233</ele>
        <time>1990-12-07T15:50:30Z</time>
      </trkpt>
      <trkpt lat="43.93445" lon="6.49962">
        <ele>1237</ele>
        <time>1990-12-07T15:51:01Z</time>
      </trkpt>
      <trkpt lat="43.9346" lon="6.4993">
        <ele>1240</ele>
        <time>1990-12-07T15:51:17Z</time>
      </trkpt>
      <trkpt lat="43.9343" lon="6.49895">
        <ele>1243</ele>
        <time>1990-12-07T15:51:42Z</time>
      </trkpt>
      <trkpt lat="43.93393" lon="6.4994">
        <ele>1248</ele>
        <time>1990-12-07T15:52:11Z</time>
      </trkpt>
      <trkpt lat="43.93383" lon="6.49973">
        <ele>1250</ele>
        <time>1990-12-07T15:52:28Z</time>
      </trkpt>
      <trkpt lat="43.93365" lon="6.50032">
        <ele>1254</ele>
        <time>1990-12-07T15:52:54Z</time>
      </trkpt>
      <trkpt lat="43.93358" lon="6.50057">
        <ele>1255</ele>
        <time>1990-12-07T15:53:06Z</time>
      </trkpt>
      <trkpt lat="43.93343" lon="6.50113">
        <ele>1259</ele>
        <time>1990-12-07T15:53:31Z</time>
      </trkpt>
      <trkpt lat="43.93362" lon="6.50155">
        <ele>1261</ele>
        <time>1990-12-07T15:53:48Z</time>
      </trkpt>
      <trkpt lat="43.93353" lon="6.50182">
        <ele>1264</ele>
        <time>1990-12-07T15:54:08Z</time>
      </trkpt>
      <trkpt lat="43.93315" lon="6.50167">
        <ele>1267</ele>
        <time>1990-12-07T15:54:26Z</time>
      </trkpt>
      <trkpt lat="43.9327" lon="6.50123">
        <ele>1272</ele>
        <time>1990-12-07T15:54:53Z</time>
      </trkpt>
      <trkpt lat="43.93278" lon="6.50028">
        <ele>1277</ele>
        <time>1990-12-07T15:55:22Z</time>
      </trkpt>
      <trkpt lat="43.93233" lon="6.49965">
        <ele>1282</ele>
        <time>1990-12-07T15:55:50Z</time>
      </trkpt>
      <trkpt lat="43.93208" lon="6.49937">
        <ele>1284</ele>
        <time>1990-12-07T15:56:09Z</time>
      </trkpt>
      <trkpt lat="43.93223" lon="6.49992">
        <ele>1287</ele>
        <time>1990-12-07T15:56:30Z</time>
      </trkpt>
      <trkpt lat="43.93207" lon="6.50055">
        <ele>1291</ele>
        <time>1990-12-07T15:56:57Z</time>
      </trkpt>
      <trkpt lat="43.93195" lon="6.50125">
        <ele>1295</ele>
        <time>1990-12-07T15:57:23Z</time>
      </trkpt>
      <trkpt lat="43.93185" lon="6.50162">
        <ele>1297</ele>
        <time>1990-12-07T15:57:43Z</time>
      </trkpt>
      <trkpt lat="43.9317" lon="6.5011">
        <ele>1301</ele>
        <time>1990-12-07T15:58:02Z</time>
      </trkpt>
      <trkpt lat="43.9316" lon="6.50118">
        <ele>1302</ele>
        <time>1990-12-07T15:58:08Z</time>
      </trkpt>
      <trkpt lat="43.93128" lon="6.5017">
        <ele>1304</ele>
        <time>1990-12-07T15:58:42Z</time>
      </trkpt>
      <trkpt lat="43.93125" lon="6.50175">
        <ele>1305</ele>
        <time>1990-12-07T15:59:08Z</time>
      </trkpt>
      <trkpt lat="43.93115" lon="6.5019">
        <ele>1304</ele>
        <time>1990-12-07T16:00:12Z</time>
      </trkpt>
      <trkpt lat="43.93075" lon="6.50288">
        <ele>1302</ele>
        <time>1990-12-07T16:00:29Z</time>
      </trkpt>
      <trkpt lat="43.93068" lon="6.5035">
        <ele>1303</ele>
        <time>1990-12-07T16:00:39Z</time>
      </trkpt>
      <trkpt lat="43.92995" lon="6.50452">
        <ele>1298</ele>
        <time>1990-12-07T16:01:01Z</time>
      </trkpt>
      <trkpt lat="43.92937" lon="6.50505">
        <ele>1296</ele>
        <time>1990-12-07T16:01:12Z</time>
      </trkpt>
      <trkpt lat="43.92832" lon="6.50563">
        <ele>1294</ele>
        <time>1990-12-07T16:01:35Z</time>
      </trkpt>
      <trkpt lat="43.9279" lon="6.50598">
        <ele>1290</ele>
        <time>1990-12-07T16:01:43Z</time>
      </trkpt>
      <trkpt lat="43.92758" lon="6.50643">
        <ele>1288</ele>
        <time>1990-12-07T16:01:52Z</time>
      </trkpt>
      <trkpt lat="43.92715" lon="6.50667">
        <ele>1285</ele>
        <time>1990-12-07T16:02:02Z</time>
      </trkpt>
      <trkpt lat="43.92662" lon="6.50722">
        <ele>1282</ele>
        <time>1990-12-07T16:02:16Z</time>
      </trkpt>
      <trkpt lat="43.92648" lon="6.50805">
        <ele>1280</ele>
        <time>1990-12-07T16:02:28Z</time>
      </trkpt>
      <trkpt lat="43.92625" lon="6.50837">
        <ele>1278</ele>
        <time>1990-12-07T16:02:35Z</time>
      </trkpt>
      <trkpt lat="43.92563" lon="6.50857">
        <ele>1280</ele>
        <time>1990-12-07T16:02:52Z</time>
      </trkpt>
      <trkpt lat="43.92547" lon="6.50862">
        <ele>1278</ele>
        <time>1990-12-07T16:04:15Z</time>
      </trkpt>
      <trkpt lat="43.92478" lon="6.50893">
        <ele>1275</ele>
        <time>1990-12-07T16:04:28Z</time>
      </trkpt>
      <trkpt lat="43.92387" lon="6.5094">
        <ele>1272</ele>
        <time>1990-12-07T16:04:42Z</time>
      </trkpt>
      <trkpt lat="43.92252" lon="6.50983">
        <ele>1275</ele>
        <time>1990-12-07T16:05:06Z</time>
      </trkpt>
      <trkpt lat="43.92198" lon="6.51002">
        <ele>1275</ele>
        <time>1990-12-07T16:05:20Z</time>
      </trkpt>
      <trkpt lat="43.92163" lon="6.51003">
        <ele>1273</ele>
        <time>1990-12-07T16:05:27Z</time>
      </trkpt>
      <trkpt lat="43.92143" lon="6.51005">
        <ele>1272</ele>
        <time>1990-12-07T16:05:31Z</time>
      </trkpt>
      <trkpt lat="43.92097" lon="6.50972">
        <ele>1270</ele>
        <time>1990-12-07T16:05:49Z</time>
      </trkpt>
      <trkpt lat="43.92048" lon="6.50943">
        <ele>1267</ele>
        <time>1990-12-07T16:06:03Z</time>
      </trkpt>
      <trkpt lat="43.91978" lon="6.5093">
        <ele>1266</ele>
        <time>1990-12-07T16:06:20Z</time>
      </trkpt>
      <trkpt lat="43.91942" lon="6.50893">
        <ele>1267</ele>
        <time>1990-12-07T16:06:34Z</time>
      </trkpt>
      <trkpt lat="43.91878" lon="6.50878">
        <ele>1266</ele>
        <time>1990-12-07T16:06:51Z</time>
      </trkpt>
      <trkpt lat="43.9176" lon="6.50878">
        <ele>1263</ele>
        <time>1990-12-07T16:07:21Z</time>
      </trkpt>
      <trkpt lat="43.9166" lon="6.5089">
        <ele>1259</ele>
        <time>1990-12-07T16:07:48Z</time>
      </trkpt>
      <trkpt lat="43.91602" lon="6.50927">
        <ele>1259</ele>
        <time>1990-12-07T16:08:10Z</time>
      </trkpt>
      <trkpt lat="43.91515" lon="6.5092">
        <ele>1259</ele>
        <time>1990-12-07T16:08:36Z</time>
      </trkpt>
      <trkpt lat="43.91473" lon="6.50923">
        <ele>1261</ele>
        <time>1990-12-07T16:08:51Z</time>
      </trkpt>
      <trkpt lat="43.91422" lon="6.50935">
        <ele>1258</ele>
        <time>1990-12-07T16:09:08Z</time>
      </trkpt>
      <trkpt lat="43.91393" lon="6.50948">
        <ele>1254</ele>
        <time>1990-12-07T16:09:15Z</time>
      </trkpt>
      <trkpt lat="43.91362" lon="6.5096">
        <ele>1249</ele>
        <time>1990-12-07T16:09:23Z</time>
      </trkpt>
      <trkpt lat="43.91338" lon="6.50965">
        <ele>1244</ele>
        <time>1990-12-07T16:09:41Z</time>
      </trkpt>
      <trkpt lat="43.91305" lon="6.50983">
        <ele>1241</ele>
        <time>1990-12-07T16:09:57Z</time>
      </trkpt>
      <trkpt lat="43.91282" lon="6.50992">
        <ele>1237</ele>
        <time>1990-12-07T16:10:23Z</time>
      </trkpt>
      <trkpt lat="43.91268" lon="6.50985">
        <ele>1234</ele>
        <time>1990-12-07T16:10:44Z</time>
      </trkpt>
      <trkpt lat="43.91257" lon="6.50963">
        <ele>1233</ele>
        <time>1990-12-07T16:11:02Z</time>
      </trkpt>
      <trkpt lat="43.91245" lon="6.50948">
        <ele>1230</ele>
        <time>1990-12-07T16:11:42Z</time>
      </trkpt>
      <trkpt lat="43.9123" lon="6.50937">
        <ele>1226</ele>
        <time>1990-12-07T16:11:54Z</time>
      </trkpt>
      <trkpt lat="43.91218" lon="6.50932">
        <ele>1223</ele>
        <time>1990-12-07T16:11:59Z</time>
      </trkpt>
      <trkpt lat="43.91193" lon="6.5091">
        <ele>1217</ele>
        <time>1990-12-07T16:12:11Z</time>
      </trkpt>
      <trkpt lat="43.91177" lon="6.509">
        <ele>1211</ele>
        <time>1990-12-07T16:12:29Z</time>
      </trkpt>
      <trkpt lat="43.91162" lon="6.50885">
        <ele>1207</ele>
        <time>1990-12-07T16:13:00Z</time>
      </trkpt>
      <trkpt lat="43.9115" lon="6.5088">
        <ele>1204</ele>
        <time>1990-12-07T16:13:35Z</time>
      </trkpt>
      <trkpt lat="43.91155" lon="6.50897">
        <ele>1207</ele>
        <time>1990-12-07T16:14:34Z</time>
      </trkpt>
      <trkpt lat="43.91145" lon="6.5092">
        <ele>1206</ele>
        <time>1990-12-07T16:17:13Z</time>
      </trkpt>
      <trkpt lat="43.91135" lon="6.50933">
        <ele>1208</ele>
        <time>1990-12-07T16:17:37Z</time>
      </trkpt>
      <trkpt lat="43.91125" lon="6.50953">
        <ele>1209</ele>
        <time>1990-12-07T16:17:50Z</time>
      </trkpt>
      <trkpt lat="43.91112" lon="6.50985">
        <ele>1210</ele>
        <time>1990-12-07T16:18:05Z</time>
      </trkpt>
      <trkpt lat="43.91087" lon="6.51065">
        <ele>1207</ele>
        <time>1990-12-07T16:18:27Z</time>
      </trkpt>
      <trkpt lat="43.91065" lon="6.51115">
        <ele>1204</ele>
        <time>1990-12-07T16:18:35Z</time>
      </trkpt>
      <trkpt lat="43.91048" lon="6.5116">
        <ele>1203</ele>
        <time>1990-12-07T16:18:44Z</time>
      </trkpt>
      <trkpt lat="43.91047" lon="6.51195">
        <ele>1202</ele>
        <time>1990-12-07T16:18:51Z</time>
      </trkpt>
      <trkpt lat="43.91023" lon="6.51267">
        <ele>1201</ele>
        <time>1990-12-07T16:19:12Z</time>
      </trkpt>
      <trkpt lat="43.90987" lon="6.51312">
        <ele>1202</ele>
        <time>1990-12-07T16:19:35Z</time>
      </trkpt>
      <trkpt lat="43.90955" lon="6.51332">
        <ele>1203</ele>
        <time>1990-12-07T16:20:10Z</time>
      </trkpt>
      <trkpt lat="43.90937" lon="6.51378">
        <ele>1206</ele>
        <time>1990-12-07T16:20:26Z</time>
      </trkpt>
      <trkpt lat="43.9091" lon="6.5143">
        <ele>1206</ele>
        <time>1990-12-07T16:20:41Z</time>
      </trkpt>
      <trkpt lat="43.90853" lon="6.51493">
        <ele>1207</ele>
        <time>1990-12-07T16:21:06Z</time>
      </trkpt>
      <trkpt lat="43.908" lon="6.51545">
        <ele>1206</ele>
        <time>1990-12-07T16:21:27Z</time>
      </trkpt>
      <trkpt lat="43.90745" lon="6.51578">
        <ele>1205</ele>
        <time>1990-12-07T16:21:49Z</time>
      </trkpt>
      <trkpt lat="43.9068" lon="6.51597">
        <ele>1201</ele>
        <time>1990-12-07T16:22:10Z</time>
      </trkpt>
      <trkpt lat="43.90642" lon="6.51605">
        <ele>1199</ele>
        <time>1990-12-07T16:22:24Z</time>
      </trkpt>
      <trkpt lat="43.90643" lon="6.51632">
        <ele>1198</ele>
        <time>1990-12-07T16:22:35Z</time>
      </trkpt>
      <trkpt lat="43.9064" lon="6.51678">
        <ele>1197</ele>
        <time>1990-12-07T16:24:56Z</time>
      </trkpt>
      <trkpt lat="43.90628" lon="6.51728">
        <ele>1196</ele>
        <time>1990-12-07T16:25:19Z</time>
      </trkpt>
      <trkpt lat="43.90598" lon="6.5179">
        <ele>1190</ele>
        <time>1990-12-07T16:25:39Z</time>
      </trkpt>
      <trkpt lat="43.90572" lon="6.51845">
        <ele>1186</ele>
        <time>1990-12-07T16:25:51Z</time>
      </trkpt>
      <trkpt lat="43.90557" lon="6.51873">
        <ele>1185</ele>
        <time>1990-12-07T16:25:59Z</time>
      </trkpt>
      <trkpt lat="43.90528" lon="6.51953">
        <ele>1182</ele>
        <time>1990-12-07T16:26:17Z</time>
      </trkpt>
      <trkpt lat="43.90513" lon="6.52035">
        <ele>1181</ele>
        <time>1990-12-07T16:26:40Z</time>
      </trkpt>
      <trkpt lat="43.90497" lon="6.52095">
        <ele>1176</ele>
        <time>1990-12-07T16:26:58Z</time>
      </trkpt>
      <trkpt lat="43.90488" lon="6.52123">
        <ele>1173</ele>
        <time>1990-12-07T16:27:05Z</time>
      </trkpt>
      <trkpt lat="43.90485" lon="6.52148">
        <ele>1170</ele>
        <time>1990-12-07T16:27:14Z</time>
      </trkpt>
      <trkpt lat="43.9048" lon="6.5216">
        <ele>1167</ele>
        <time>1990-12-07T16:27:36Z</time>
      </trkpt>
      <trkpt lat="43.90443" lon="6.52167">
        <ele>1161</ele>
        <time>1990-12-07T16:27:53Z</time>
      </trkpt>
      <trkpt lat="43.90427" lon="6.52185">
        <ele>1159</ele>
        <time>1990-12-07T16:28:16Z</time>
      </trkpt>
      <trkpt lat="43.90407" lon="6.52195">
        <ele>1158</ele>
        <time>1990-12-07T16:28:33Z</time>
      </trkpt>
      <trkpt lat="43.90383" lon="6.5219">
        <ele>1159</ele>
        <time>1990-12-07T16:29:06Z</time>
      </trkpt>
      <trkpt lat="43.90367" lon="6.52175">
        <ele>1155</ele>
        <time>1990-12-07T16:31:39Z</time>
      </trkpt>
      <trkpt lat="43.90362" lon="6.52162">
        <ele>1151</ele>
        <time>1990-12-07T16:31:54Z</time>
      </trkpt>
      <trkpt lat="43.90342" lon="6.52123">
        <ele>1145</ele>
        <time>1990-12-07T16:32:52Z</time>
      </trkpt>
      <trkpt lat="43.90333" lon="6.52113">
        <ele>1142</ele>
        <time>1990-12-07T16:32:57Z</time>
      </trkpt>
      <trkpt lat="43.90315" lon="6.52067">
        <ele>1139</ele>
        <time>1990-12-07T16:33:05Z</time>
      </trkpt>
      <trkpt lat="43.90288" lon="6.52012">
        <ele>1134</ele>
        <time>1990-12-07T16:33:19Z</time>
      </trkpt>
      <trkpt lat="43.90263" lon="6.5198">
        <ele>1130</ele>
        <time>1990-12-07T16:33:33Z</time>
      </trkpt>
      <trkpt lat="43.90252" lon="6.51968">
        <ele>1127</ele>
        <time>1990-12-07T16:33:39Z</time>
      </trkpt>
      <trkpt lat="43.90232" lon="6.51975">
        <ele>1123</ele>
        <time>1990-12-07T16:33:48Z</time>
      </trkpt>
      <trkpt lat="43.90207" lon="6.51973">
        <ele>1119</ele>
        <time>1990-12-07T16:33:57Z</time>
      </trkpt>
      <trkpt lat="43.9021" lon="6.5198">
        <ele>1117</ele>
        <time>1990-12-07T16:36:34Z</time>
      </trkpt>
      <trkpt lat="43.90232" lon="6.52008">
        <ele>1113</ele>
        <time>1990-12-07T16:36:45Z</time>
      </trkpt>
      <trkpt lat="43.90227" lon="6.5204">
        <ele>1109</ele>
        <time>1990-12-07T16:36:53Z</time>
      </trkpt>
      <trkpt lat="43.90222" lon="6.52057">
        <ele>1105</ele>
        <time>1990-12-07T16:37:00Z</time>
      </trkpt>
      <trkpt lat="43.90237" lon="6.52117">
        <ele>1100</ele>
        <time>1990-12-07T16:37:10Z</time>
      </trkpt>
      <trkpt lat="43.9023" lon="6.52187">
        <ele>1095</ele>
        <time>1990-12-07T16:37:25Z</time>
      </trkpt>
      <trkpt lat="43.902" lon="6.52202">
        <ele>1086</ele>
        <time>1990-12-07T16:37:33Z</time>
      </trkpt>
      <trkpt lat="43.90182" lon="6.52223">
        <ele>1082</ele>
        <time>1990-12-07T16:37:39Z</time>
      </trkpt>
      <trkpt lat="43.90178" lon="6.5227">
        <ele>1079</ele>
        <time>1990-12-07T16:37:46Z</time>
      </trkpt>
      <trkpt lat="43.90147" lon="6.52328">
        <ele>1071</ele>
        <time>1990-12-07T16:37:55Z</time>
      </trkpt>
      <trkpt lat="43.90117" lon="6.52355">
        <ele>1066</ele>
        <time>1990-12-07T16:38:01Z</time>
      </trkpt>
      <trkpt lat="43.9011" lon="6.52348">
        <ele>1064</ele>
        <time>1990-12-07T16:38:24Z</time>
      </trkpt>
      <trkpt lat="43.90098" lon="6.52297">
        <ele>1059</ele>
        <time>1990-12-07T16:39:01Z</time>
      </trkpt>
      <trkpt lat="43.90067" lon="6.52267">
        <ele>1054</ele>
        <time>1990-12-07T16:39:10Z</time>
      </trkpt>
      <trkpt lat="43.90017" lon="6.52265">
        <ele>1050</ele>
        <time>1990-12-07T16:39:23Z</time>
      </trkpt>
      <trkpt lat="43.9001" lon="6.52257">
        <ele>1049</ele>
        <time>1990-12-07T16:39:32Z</time>
      </trkpt>
      <trkpt lat="43.9" lon="6.52212">
        <ele>1052</ele>
        <time>1990-12-07T16:39:59Z</time>
      </trkpt>
      <trkpt lat="43.89992" lon="6.52173">
        <ele>1054</ele>
        <time>1990-12-07T16:40:35Z</time>
      </trkpt>
      <trkpt lat="43.89955" lon="6.52103">
        <ele>1055</ele>
        <time>1990-12-07T16:40:58Z</time>
      </trkpt>
      <trkpt lat="43.89908" lon="6.52065">
        <ele>1060</ele>
        <time>1990-12-07T16:41:19Z</time>
      </trkpt>
      <trkpt lat="43.89907" lon="6.51968">
        <ele>1063</ele>
        <time>1990-12-07T16:41:47Z</time>
      </trkpt>
      <trkpt lat="43.89908" lon="6.51837">
        <ele>1064</ele>
        <time>1990-12-07T16:42:14Z</time>
      </trkpt>
      <trkpt lat="43.89907" lon="6.51798">
        <ele>1065</ele>
        <time>1990-12-07T16:42:21Z</time>
      </trkpt>
      <trkpt lat="43.89873" lon="6.51722">
        <ele>1066</ele>
        <time>1990-12-07T16:42:42Z</time>
      </trkpt>
      <trkpt lat="43.89827" lon="6.51757">
        <ele>1068</ele>
        <time>1990-12-07T16:42:58Z</time>
      </trkpt>
      <trkpt lat="43.89757" lon="6.51803">
        <ele>1073</ele>
        <time>1990-12-07T16:43:27Z</time>
      </trkpt>
      <trkpt lat="43.89688" lon="6.51803">
        <ele>1077</ele>
        <time>1990-12-07T16:43:52Z</time>
      </trkpt>
      <trkpt lat="43.89635" lon="6.51728">
        <ele>1082</ele>
        <time>1990-12-07T16:44:23Z</time>
      </trkpt>
      <trkpt lat="43.89595" lon="6.51685">
        <ele>1087</ele>
        <time>1990-12-07T16:44:49Z</time>
      </trkpt>
      <trkpt lat="43.89562" lon="6.51632">
        <ele>1092</ele>
        <time>1990-12-07T16:45:18Z</time>
      </trkpt>
      <trkpt lat="43.89522" lon="6.5157">
        <ele>1094</ele>
        <time>1990-12-07T16:45:45Z</time>
      </trkpt>
      <trkpt lat="43.89482" lon="6.51477">
        <ele>1098</ele>
        <time>1990-12-07T16:46:14Z</time>
      </trkpt>
      <trkpt lat="43.89438" lon="6.51378">
        <ele>1102</ele>
        <time>1990-12-07T16:46:47Z</time>
      </trkpt>
      <trkpt lat="43.89415" lon="6.5127">
        <ele>1106</ele>
        <time>1990-12-07T16:47:18Z</time>
      </trkpt>
      <trkpt lat="43.89375" lon="6.51225">
        <ele>1110</ele>
        <time>1990-12-07T16:47:44Z</time>
      </trkpt>
      <trkpt lat="43.89362" lon="6.51208">
        <ele>1112</ele>
        <time>1990-12-07T16:47:54Z</time>
      </trkpt>
      <trkpt lat="43.89342" lon="6.51153">
        <ele>1116</ele>
        <time>1990-12-07T16:48:21Z</time>
      </trkpt>
      <trkpt lat="43.89333" lon="6.51127">
        <ele>1119</ele>
        <time>1990-12-07T16:48:34Z</time>
      </trkpt>
      <trkpt lat="43.89288" lon="6.51092">
        <ele>1123</ele>
        <time>1990-12-07T16:49:02Z</time>
      </trkpt>
      <trkpt lat="43.89258" lon="6.51048">
        <ele>1126</ele>
        <time>1990-12-07T16:49:23Z</time>
      </trkpt>
      <trkpt lat="43.89247" lon="6.50963">
        <ele>1128</ele>
        <time>1990-12-07T16:49:49Z</time>
      </trkpt>
      <trkpt lat="43.89223" lon="6.50892">
        <ele>1129</ele>
        <time>1990-12-07T16:50:14Z</time>
      </trkpt>
      <trkpt lat="43.89223" lon="6.5088">
        <ele>1130</ele>
        <time>1990-12-07T16:50:56Z</time>
      </trkpt>
      <trkpt lat="43.89203" lon="6.50802">
        <ele>1132</ele>
        <time>1990-12-07T16:51:11Z</time>
      </trkpt>
      <trkpt lat="43.89212" lon="6.50742">
        <ele>1134</ele>
        <time>1990-12-07T16:51:21Z</time>
      </trkpt>
      <trkpt lat="43.89237" lon="6.50643">
        <ele>1137</ele>
        <time>1990-12-07T16:51:38Z</time>
      </trkpt>
      <trkpt lat="43.89233" lon="6.50557">
        <ele>1137</ele>
        <time>1990-12-07T16:51:51Z</time>
      </trkpt>
      <trkpt lat="43.89235" lon="6.50465">
        <ele>1135</ele>
        <time>1990-12-07T16:52:03Z</time>
      </trkpt>
      <trkpt lat="43.89242" lon="6.50395">
        <ele>1134</ele>
        <time>1990-12-07T16:52:11Z</time>
      </trkpt>
      <trkpt lat="43.89253" lon="6.50277">
        <ele>1131</ele>
        <time>1990-12-07T16:52:24Z</time>
      </trkpt>
      <trkpt lat="43.89268" lon="6.50228">
        <ele>1134</ele>
        <time>1990-12-07T16:52:33Z</time>
      </trkpt>
      <trkpt lat="43.89212" lon="6.50188">
        <ele>1138</ele>
        <time>1990-12-07T16:52:46Z</time>
      </trkpt>
      <trkpt lat="43.8918" lon="6.50142">
        <ele>1142</ele>
        <time>1990-12-07T16:53:10Z</time>
      </trkpt>
      <trkpt lat="43.89142" lon="6.50105">
        <ele>1146</ele>
        <time>1990-12-07T16:53:34Z</time>
      </trkpt>
      <trkpt lat="43.89142" lon="6.50097">
        <ele>1144</ele>
        <time>1990-12-07T16:55:03Z</time>
      </trkpt>
      <trkpt lat="43.89153" lon="6.50093">
        <ele>1146</ele>
        <time>1990-12-07T16:55:07Z</time>
      </trkpt>
      <trkpt lat="43.89157" lon="6.5012">
        <ele>1154</ele>
        <time>1990-12-08T07:49:06Z</time>
      </trkpt>
      <trkpt lat="43.89175" lon="6.5014">
        <ele>1152</ele>
        <time>1990-12-08T07:49:25Z</time>
      </trkpt>
      <trkpt lat="43.89205" lon="6.50185">
        <ele>1148</ele>
        <time>1990-12-08T07:49:37Z</time>
      </trkpt>
      <trkpt lat="43.89183" lon="6.50175">
        <ele>1143</ele>
        <time>1990-12-08T07:49:48Z</time>
      </trkpt>
      <trkpt lat="43.89162" lon="6.50193">
        <ele>1136</ele>
        <time>1990-12-08T07:49:58Z</time>
      </trkpt>
      <trkpt lat="43.89143" lon="6.5019">
        <ele>1134</ele>
        <time>1990-12-08T07:50:05Z</time>
      </trkpt>
      <trkpt lat="43.89113" lon="6.50172">
        <ele>1134</ele>
        <time>1990-12-08T07:50:18Z</time>
      </trkpt>
      <trkpt lat="43.8905" lon="6.50145">
        <ele>1128</ele>
        <time>1990-12-08T07:50:39Z</time>
      </trkpt>
      <trkpt lat="43.89033" lon="6.5014">
        <ele>1124</ele>
        <time>1990-12-08T07:50:47Z</time>
      </trkpt>
      <trkpt lat="43.89025" lon="6.50135">
        <ele>1122</ele>
        <time>1990-12-08T07:51:07Z</time>
      </trkpt>
      <trkpt lat="43.89012" lon="6.50142">
        <ele>1118</ele>
        <time>1990-12-08T07:51:51Z</time>
      </trkpt>
      <trkpt lat="43.89" lon="6.5015">
        <ele>1114</ele>
        <time>1990-12-08T07:52:07Z</time>
      </trkpt>
      <trkpt lat="43.88987" lon="6.50163">
        <ele>1110</ele>
        <time>1990-12-08T07:52:36Z</time>
      </trkpt>
      <trkpt lat="43.88968" lon="6.50177">
        <ele>1105</ele>
        <time>1990-12-08T07:52:48Z</time>
      </trkpt>
      <trkpt lat="43.88953" lon="6.50195">
        <ele>1102</ele>
        <time>1990-12-08T07:52:57Z</time>
      </trkpt>
      <trkpt lat="43.8891" lon="6.5022">
        <ele>1099</ele>
        <time>1990-12-08T07:53:26Z</time>
      </trkpt>
      <trkpt lat="43.88878" lon="6.50213">
        <ele>1095</ele>
        <time>1990-12-08T07:54:03Z</time>
      </trkpt>
      <trkpt lat="43.88863" lon="6.50195">
        <ele>1092</ele>
        <time>1990-12-08T07:54:15Z</time>
      </trkpt>
      <trkpt lat="43.88853" lon="6.50173">
        <ele>1091</ele>
        <time>1990-12-08T07:54:38Z</time>
      </trkpt>
      <trkpt lat="43.88833" lon="6.50178">
        <ele>1089</ele>
        <time>1990-12-08T07:54:58Z</time>
      </trkpt>
      <trkpt lat="43.88778" lon="6.50218">
        <ele>1089</ele>
        <time>1990-12-08T07:55:48Z</time>
      </trkpt>
      <trkpt lat="43.88752" lon="6.50235">
        <ele>1090</ele>
        <time>1990-12-08T07:56:00Z</time>
      </trkpt>
      <trkpt lat="43.88712" lon="6.5021">
        <ele>1084</ele>
        <time>1990-12-08T07:56:22Z</time>
      </trkpt>
      <trkpt lat="43.88678" lon="6.50205">
        <ele>1081</ele>
        <time>1990-12-08T07:56:35Z</time>
      </trkpt>
      <trkpt lat="43.88617" lon="6.50233">
        <ele>1080</ele>
        <time>1990-12-08T07:56:51Z</time>
      </trkpt>
      <trkpt lat="43.88575" lon="6.50265">
        <ele>1079</ele>
        <time>1990-12-08T07:57:02Z</time>
      </trkpt>
      <trkpt lat="43.88525" lon="6.50303">
        <ele>1079</ele>
        <time>1990-12-08T07:57:15Z</time>
      </trkpt>
      <trkpt lat="43.88503" lon="6.5032">
        <ele>1078</ele>
        <time>1990-12-08T07:57:21Z</time>
      </trkpt>
      <trkpt lat="43.88478" lon="6.50347">
        <ele>1077</ele>
        <time>1990-12-08T07:57:27Z</time>
      </trkpt>
      <trkpt lat="43.88447" lon="6.50405">
        <ele>1075</ele>
        <time>1990-12-08T07:58:13Z</time>
      </trkpt>
      <trkpt lat="43.8841" lon="6.50473">
        <ele>1076</ele>
        <time>1990-12-08T08:07:45Z</time>
      </trkpt>
      <trkpt lat="43.88365" lon="6.50563">
        <ele>1077</ele>
        <time>1990-12-08T08:08:10Z</time>
      </trkpt>
      <trkpt lat="43.88315" lon="6.50643">
        <ele>1081</ele>
        <time>1990-12-08T08:08:36Z</time>
      </trkpt>
      <trkpt lat="43.88293" lon="6.50673">
        <ele>1082</ele>
        <time>1990-12-08T08:09:07Z</time>
      </trkpt>
      <trkpt lat="43.88282" lon="6.50692">
        <ele>1083</ele>
        <time>1990-12-08T08:09:31Z</time>
      </trkpt>
      <trkpt lat="43.88275" lon="6.50683">
        <ele>1082</ele>
        <time>1990-12-08T08:09:59Z</time>
      </trkpt>
      <trkpt lat="43.88265" lon="6.50685">
        <ele>1081</ele>
        <time>1990-12-08T08:10:21Z</time>
      </trkpt>
      <trkpt lat="43.88277" lon="6.50682">
        <ele>1081</ele>
        <time>1990-12-08T08:10:44Z</time>
      </trkpt>
      <trkpt lat="43.8828" lon="6.50682">
        <ele>1082</ele>
        <time>1990-12-08T08:11:38Z</time>
      </trkpt>
      <trkpt lat="43.88263" lon="6.50667">
        <ele>1077</ele>
        <time>1990-12-08T08:11:50Z</time>
      </trkpt>
      <trkpt lat="43.88247" lon="6.50673">
        <ele>1071</ele>
        <time>1990-12-08T08:12:03Z</time>
      </trkpt>
      <trkpt lat="43.88245" lon="6.50647">
        <ele>1068</ele>
        <time>1990-12-08T08:12:19Z</time>
      </trkpt>
      <trkpt lat="43.88242" lon="6.50657">
        <ele>1065</ele>
        <time>1990-12-08T08:12:49Z</time>
      </trkpt>
      <trkpt lat="43.88233" lon="6.5067">
        <ele>1062</ele>
        <time>1990-12-08T08:13:09Z</time>
      </trkpt>
      <trkpt lat="43.88213" lon="6.50682">
        <ele>1057</ele>
        <time>1990-12-08T08:13:21Z</time>
      </trkpt>
      <trkpt lat="43.882" lon="6.5069">
        <ele>1053</ele>
        <time>1990-12-08T08:13:31Z</time>
      </trkpt>
      <trkpt lat="43.88188" lon="6.5069">
        <ele>1048</ele>
        <time>1990-12-08T08:13:56Z</time>
      </trkpt>
      <trkpt lat="43.88183" lon="6.50695">
        <ele>1047</ele>
        <time>1990-12-08T08:14:16Z</time>
      </trkpt>
      <trkpt lat="43.88183" lon="6.50687">
        <ele>1044</ele>
        <time>1990-12-08T08:15:18Z</time>
      </trkpt>
      <trkpt lat="43.88187" lon="6.50662">
        <ele>1040</ele>
        <time>1990-12-08T08:15:34Z</time>
      </trkpt>
      <trkpt lat="43.88162" lon="6.50668">
        <ele>1034</ele>
        <time>1990-12-08T08:15:45Z</time>
      </trkpt>
      <trkpt lat="43.88157" lon="6.50678">
        <ele>1032</ele>
        <time>1990-12-08T08:15:50Z</time>
      </trkpt>
      <trkpt lat="43.88153" lon="6.50678">
        <ele>1031</ele>
        <time>1990-12-08T08:15:58Z</time>
      </trkpt>
      <trkpt lat="43.88147" lon="6.50675">
        <ele>1027</ele>
        <time>1990-12-08T08:16:15Z</time>
      </trkpt>
      <trkpt lat="43.88135" lon="6.50675">
        <ele>1024</ele>
        <time>1990-12-08T08:16:30Z</time>
      </trkpt>
      <trkpt lat="43.88112" lon="6.50683">
        <ele>1017</ele>
        <time>1990-12-08T08:16:53Z</time>
      </trkpt>
      <trkpt lat="43.88095" lon="6.50687">
        <ele>1011</ele>
        <time>1990-12-08T08:17:21Z</time>
      </trkpt>
      <trkpt lat="43.8809" lon="6.50687">
        <ele>1010</ele>
        <time>1990-12-08T08:17:23Z</time>
      </trkpt>
      <trkpt lat="43.88058" lon="6.50703">
        <ele>1004</ele>
        <time>1990-12-08T08:17:38Z</time>
      </trkpt>
      <trkpt lat="43.88043" lon="6.50713">
        <ele>1000</ele>
        <time>1990-12-08T08:17:48Z</time>
      </trkpt>
      <trkpt lat="43.8803" lon="6.50722">
        <ele>998</ele>
        <time>1990-12-08T08:17:57Z</time>
      </trkpt>
      <trkpt lat="43.88022" lon="6.50732">
        <ele>994</ele>
        <time>1990-12-08T08:18:14Z</time>
      </trkpt>
      <trkpt lat="43.88017" lon="6.50738">
        <ele>992</ele>
        <time>1990-12-08T08:18:18Z</time>
      </trkpt>
      <trkpt lat="43.88008" lon="6.50748">
        <ele>988</ele>
        <time>1990-12-08T08:18:44Z</time>
      </trkpt>
      <trkpt lat="43.88003" lon="6.50752">
        <ele>988</ele>
        <time>1990-12-08T08:18:49Z</time>
      </trkpt>
      <trkpt lat="43.88008" lon="6.50753">
        <ele>987</ele>
        <time>1990-12-08T08:20:52Z</time>
      </trkpt>
      <trkpt lat="43.88033" lon="6.50667">
        <ele>982</ele>
        <time>1990-12-08T08:21:07Z</time>
      </trkpt>
      <trkpt lat="43.88085" lon="6.50605">
        <ele>978</ele>
        <time>1990-12-08T08:21:17Z</time>
      </trkpt>
      <trkpt lat="43.88042" lon="6.5053">
        <ele>974</ele>
        <time>1990-12-08T08:21:27Z</time>
      </trkpt>
      <trkpt lat="43.88017" lon="6.50455">
        <ele>970</ele>
        <time>1990-12-08T08:21:34Z</time>
      </trkpt>
      <trkpt lat="43.88018" lon="6.5033">
        <ele>963</ele>
        <time>1990-12-08T08:21:44Z</time>
      </trkpt>
      <trkpt lat="43.87992" lon="6.50253">
        <ele>958</ele>
        <time>1990-12-08T08:21:51Z</time>
      </trkpt>
      <trkpt lat="43.87912" lon="6.50232">
        <ele>951</ele>
        <time>1990-12-08T08:22:00Z</time>
      </trkpt>
      <trkpt lat="43.8787" lon="6.50298">
        <ele>948</ele>
        <time>1990-12-08T08:22:06Z</time>
      </trkpt>
      <trkpt lat="43.87807" lon="6.50378">
        <ele>944</ele>
        <time>1990-12-08T08:22:14Z</time>
      </trkpt>
      <trkpt lat="43.87745" lon="6.50487">
        <ele>937</ele>
        <time>1990-12-08T08:22:24Z</time>
      </trkpt>
      <trkpt lat="43.87692" lon="6.50585">
        <ele>933</ele>
        <time>1990-12-08T08:22:34Z</time>
      </trkpt>
      <trkpt lat="43.87663" lon="6.50648">
        <ele>930</ele>
        <time>1990-12-08T08:22:40Z</time>
      </trkpt>
      <trkpt lat="43.8763" lon="6.50768">
        <ele>925</ele>
        <time>1990-12-08T08:22:49Z</time>
      </trkpt>
      <trkpt lat="43.87557" lon="6.50843">
        <ele>924</ele>
        <time>1990-12-08T08:23:00Z</time>
      </trkpt>
      <trkpt lat="43.87502" lon="6.50838">
        <ele>920</ele>
        <time>1990-12-08T08:23:08Z</time>
      </trkpt>
      <trkpt lat="43.87447" lon="6.50943">
        <ele>916</ele>
        <time>1990-12-08T08:23:19Z</time>
      </trkpt>
      <trkpt lat="43.874" lon="6.51012">
        <ele>912</ele>
        <time>1990-12-08T08:23:26Z</time>
      </trkpt>
      <trkpt lat="43.87338" lon="6.51057">
        <ele>910</ele>
        <time>1990-12-08T08:23:33Z</time>
      </trkpt>
      <trkpt lat="43.8727" lon="6.51083">
        <ele>906</ele>
        <time>1990-12-08T08:23:40Z</time>
      </trkpt>
      <trkpt lat="43.87128" lon="6.51138">
        <ele>901</ele>
        <time>1990-12-08T08:23:56Z</time>
      </trkpt>
      <trkpt lat="43.87095" lon="6.51133">
        <ele>901</ele>
        <time>1990-12-08T08:24:00Z</time>
      </trkpt>
      <trkpt lat="43.87067" lon="6.51132">
        <ele>901</ele>
        <time>1990-12-08T08:24:05Z</time>
      </trkpt>
      <trkpt lat="43.86995" lon="6.51117">
        <ele>896</ele>
        <time>1990-12-08T08:24:24Z</time>
      </trkpt>
      <trkpt lat="43.86965" lon="6.51083">
        <ele>894</ele>
        <time>1990-12-08T08:24:32Z</time>
      </trkpt>
      <trkpt lat="43.86928" lon="6.51092">
        <ele>892</ele>
        <time>1990-12-08T08:24:42Z</time>
      </trkpt>
      <trkpt lat="43.86908" lon="6.5113">
        <ele>890</ele>
        <time>1990-12-08T08:24:48Z</time>
      </trkpt>
      <trkpt lat="43.86887" lon="6.51147">
        <ele>889</ele>
        <time>1990-12-08T08:24:53Z</time>
      </trkpt>
      <trkpt lat="43.8685" lon="6.51132">
        <ele>884</ele>
        <time>1990-12-08T08:25:02Z</time>
      </trkpt>
      <trkpt lat="43.8683" lon="6.51107">
        <ele>881</ele>
        <time>1990-12-08T08:25:08Z</time>
      </trkpt>
      <trkpt lat="43.86792" lon="6.51087">
        <ele>877</ele>
        <time>1990-12-08T08:25:18Z</time>
      </trkpt>
      <trkpt lat="43.86752" lon="6.51095">
        <ele>880</ele>
        <time>1990-12-08T08:25:28Z</time>
      </trkpt>
      <trkpt lat="43.86668" lon="6.5111">
        <ele>880</ele>
        <time>1990-12-08T08:25:50Z</time>
      </trkpt>
      <trkpt lat="43.86627" lon="6.51108">
        <ele>876</ele>
        <time>1990-12-08T08:25:57Z</time>
      </trkpt>
      <trkpt lat="43.86537" lon="6.5112">
        <ele>872</ele>
        <time>1990-12-08T08:26:10Z</time>
      </trkpt>
      <trkpt lat="43.86467" lon="6.51155">
        <ele>873</ele>
        <time>1990-12-08T08:26:21Z</time>
      </trkpt>
      <trkpt lat="43.86415" lon="6.51198">
        <ele>873</ele>
        <time>1990-12-08T08:26:32Z</time>
      </trkpt>
      <trkpt lat="43.86373" lon="6.51255">
        <ele>873</ele>
        <time>1990-12-08T08:26:43Z</time>
      </trkpt>
      <trkpt lat="43.86283" lon="6.51352">
        <ele>869</ele>
        <time>1990-12-08T08:27:06Z</time>
      </trkpt>
      <trkpt lat="43.8626" lon="6.51368">
        <ele>869</ele>
        <time>1990-12-08T08:27:11Z</time>
      </trkpt>
      <trkpt lat="43.86235" lon="6.51378">
        <ele>869</ele>
        <time>1990-12-08T08:27:16Z</time>
      </trkpt>
      <trkpt lat="43.86148" lon="6.51437">
        <ele>868</ele>
        <time>1990-12-08T08:27:35Z</time>
      </trkpt>
      <trkpt lat="43.86095" lon="6.51507">
        <ele>863</ele>
        <time>1990-12-08T08:27:47Z</time>
      </trkpt>
      <trkpt lat="43.86077" lon="6.5154">
        <ele>860</ele>
        <time>1990-12-08T08:27:53Z</time>
      </trkpt>
      <trkpt lat="43.86048" lon="6.51565">
        <ele>859</ele>
        <time>1990-12-08T08:27:59Z</time>
      </trkpt>
      <trkpt lat="43.86012" lon="6.51532">
        <ele>856</ele>
        <time>1990-12-08T08:28:10Z</time>
      </trkpt>
      <trkpt lat="43.85975" lon="6.51495">
        <ele>854</ele>
        <time>1990-12-08T08:28:18Z</time>
      </trkpt>
      <trkpt lat="43.85942" lon="6.51458">
        <ele>851</ele>
        <time>1990-12-08T08:28:25Z</time>
      </trkpt>
      <trkpt lat="43.85893" lon="6.51442">
        <ele>846</ele>
        <time>1990-12-08T08:28:33Z</time>
      </trkpt>
      <trkpt lat="43.85865" lon="6.51427">
        <ele>843</ele>
        <time>1990-12-08T08:28:38Z</time>
      </trkpt>
      <trkpt lat="43.85845" lon="6.51402">
        <ele>838</ele>
        <time>1990-12-08T08:28:44Z</time>
      </trkpt>
      <trkpt lat="43.8582" lon="6.51377">
        <ele>836</ele>
        <time>1990-12-08T08:28:52Z</time>
      </trkpt>
      <trkpt lat="43.85807" lon="6.51327">
        <ele>833</ele>
        <time>1990-12-08T08:29:02Z</time>
      </trkpt>
      <trkpt lat="43.85788" lon="6.5129">
        <ele>831</ele>
        <time>1990-12-08T08:29:09Z</time>
      </trkpt>
      <trkpt lat="43.85775" lon="6.51277">
        <ele>835</ele>
        <time>1990-12-08T08:29:17Z</time>
      </trkpt>
      <trkpt lat="43.85718" lon="6.5126">
        <ele>831</ele>
        <time>1990-12-08T08:29:39Z</time>
      </trkpt>
      <trkpt lat="43.85685" lon="6.51252">
        <ele>829</ele>
        <time>1990-12-08T08:29:48Z</time>
      </trkpt>
      <trkpt lat="43.8565" lon="6.51202">
        <ele>824</ele>
        <time>1990-12-08T08:30:05Z</time>
      </trkpt>
      <trkpt lat="43.85608" lon="6.51197">
        <ele>823</ele>
        <time>1990-12-08T08:30:21Z</time>
      </trkpt>
      <trkpt lat="43.85583" lon="6.51208">
        <ele>822</ele>
        <time>1990-12-08T08:30:32Z</time>
      </trkpt>
      <trkpt lat="43.85565" lon="6.51235">
        <ele>818</ele>
        <time>1990-12-08T08:30:41Z</time>
      </trkpt>
      <trkpt lat="43.85553" lon="6.51257">
        <ele>814</ele>
        <time>1990-12-08T08:30:47Z</time>
      </trkpt>
      <trkpt lat="43.85548" lon="6.51328">
        <ele>811</ele>
        <time>1990-12-08T08:31:03Z</time>
      </trkpt>
      <trkpt lat="43.85568" lon="6.51353">
        <ele>812</ele>
        <time>1990-12-08T08:31:16Z</time>
      </trkpt>
      <trkpt lat="43.8559" lon="6.51383">
        <ele>814</ele>
        <time>1990-12-08T08:31:33Z</time>
      </trkpt>
      <trkpt lat="43.85572" lon="6.51455">
        <ele>817</ele>
        <time>1990-12-08T08:31:54Z</time>
      </trkpt>
      <trkpt lat="43.85578" lon="6.51487">
        <ele>818</ele>
        <time>1990-12-08T08:32:35Z</time>
      </trkpt>
      <trkpt lat="43.85577" lon="6.51503">
        <ele>818</ele>
        <time>1990-12-08T08:32:56Z</time>
      </trkpt>
      <trkpt lat="43.85575" lon="6.51527">
        <ele>818</ele>
        <time>1990-12-08T08:33:43Z</time>
      </trkpt>
      <trkpt lat="43.85543" lon="6.5147">
        <ele>817</ele>
        <time>1990-12-08T08:34:09Z</time>
      </trkpt>
      <trkpt lat="43.85518" lon="6.51417">
        <ele>814</ele>
        <time>1990-12-08T08:34:20Z</time>
      </trkpt>
      <trkpt lat="43.85475" lon="6.5137">
        <ele>812</ele>
        <time>1990-12-08T08:34:32Z</time>
      </trkpt>
      <trkpt lat="43.85462" lon="6.5136">
        <ele>813</ele>
        <time>1990-12-08T08:34:43Z</time>
      </trkpt>
      <trkpt lat="43.8542" lon="6.51297">
        <ele>810</ele>
        <time>1990-12-08T08:35:01Z</time>
      </trkpt>
      <trkpt lat="43.85382" lon="6.51285">
        <ele>810</ele>
        <time>1990-12-08T08:35:17Z</time>
      </trkpt>
      <trkpt lat="43.85377" lon="6.51287">
        <ele>809</ele>
        <time>1990-12-08T08:37:19Z</time>
      </trkpt>
      <trkpt lat="43.85342" lon="6.51262">
        <ele>804</ele>
        <time>1990-12-08T08:37:32Z</time>
      </trkpt>
      <trkpt lat="43.85302" lon="6.51227">
        <ele>799</ele>
        <time>1990-12-08T08:37:46Z</time>
      </trkpt>
      <trkpt lat="43.85262" lon="6.51205">
        <ele>794</ele>
        <time>1990-12-08T08:38:00Z</time>
      </trkpt>
      <trkpt lat="43.85207" lon="6.51175">
        <ele>788</ele>
        <time>1990-12-08T08:38:19Z</time>
      </trkpt>
      <trkpt lat="43.8518" lon="6.51137">
        <ele>784</ele>
        <time>1990-12-08T08:38:31Z</time>
      </trkpt>
      <trkpt lat="43.85175" lon="6.51048">
        <ele>779</ele>
        <time>1990-12-08T08:38:49Z</time>
      </trkpt>
      <trkpt lat="43.85163" lon="6.50997">
        <ele>775</ele>
        <time>1990-12-08T08:38:59Z</time>
      </trkpt>
      <trkpt lat="43.85155" lon="6.50955">
        <ele>769</ele>
        <time>1990-12-08T08:39:10Z</time>
      </trkpt>
      <trkpt lat="43.85148" lon="6.50925">
        <ele>765</ele>
        <time>1990-12-08T08:39:17Z</time>
      </trkpt>
      <trkpt lat="43.85127" lon="6.50865">
        <ele>758</ele>
        <time>1990-12-08T08:39:39Z</time>
      </trkpt>
      <trkpt lat="43.85082" lon="6.50848">
        <ele>753</ele>
        <time>1990-12-08T08:39:57Z</time>
      </trkpt>
      <trkpt lat="43.85077" lon="6.50842">
        <ele>749</ele>
        <time>1990-12-08T08:40:27Z</time>
      </trkpt>
      <trkpt lat="43.85007" lon="6.50857">
        <ele>746</ele>
        <time>1990-12-08T08:45:51Z</time>
      </trkpt>
      <trkpt lat="43.84898" lon="6.50917">
        <ele>740</ele>
        <time>1990-12-08T08:46:08Z</time>
      </trkpt>
      <trkpt lat="43.84887" lon="6.50932">
        <ele>740</ele>
        <time>1990-12-08T08:46:10Z</time>
      </trkpt>
      <trkpt lat="43.84877" lon="6.50947">
        <ele>739</ele>
        <time>1990-12-08T08:46:12Z</time>
      </trkpt>
      <trkpt lat="43.84822" lon="6.51057">
        <ele>736</ele>
        <time>1990-12-08T08:46:24Z</time>
      </trkpt>
      <trkpt lat="43.8478" lon="6.51165">
        <ele>732</ele>
        <time>1990-12-08T08:46:36Z</time>
      </trkpt>
      <trkpt lat="43.84773" lon="6.51178">
        <ele>732</ele>
        <time>1990-12-08T08:46:38Z</time>
      </trkpt>
      <trkpt lat="43.8477" lon="6.5119">
        <ele>731</ele>
        <time>1990-12-08T08:46:40Z</time>
      </trkpt>
      <trkpt lat="43.84762" lon="6.51198">
        <ele>731</ele>
        <time>1990-12-08T08:46:42Z</time>
      </trkpt>
      <trkpt lat="43.84752" lon="6.512">
        <ele>730</ele>
        <time>1990-12-08T08:46:44Z</time>
      </trkpt>
      <trkpt lat="43.84732" lon="6.51203">
        <ele>729</ele>
        <time>1990-12-08T08:46:48Z</time>
      </trkpt>
      <trkpt lat="43.84683" lon="6.51237">
        <ele>728</ele>
        <time>1990-12-08T08:47:02Z</time>
      </trkpt>
      <trkpt lat="43.84612" lon="6.51242">
        <ele>730</ele>
        <time>1990-12-08T08:47:25Z</time>
      </trkpt>
      <trkpt lat="43.84593" lon="6.5132">
        <ele>730</ele>
        <time>1990-12-08T08:47:42Z</time>
      </trkpt>
      <trkpt lat="43.84582" lon="6.51373">
        <ele>730</ele>
        <time>1990-12-08T08:47:56Z</time>
      </trkpt>
      <trkpt lat="43.84573" lon="6.51375">
        <ele>730</ele>
        <time>1990-12-08T08:48:30Z</time>
      </trkpt>
      <trkpt lat="43.84567" lon="6.51413">
        <ele>729</ele>
        <time>1990-12-08T08:53:09Z</time>
      </trkpt>
      <trkpt lat="43.84562" lon="6.51415">
        <ele>730</ele>
        <time>1990-12-08T08:53:42Z</time>
      </trkpt>
      <trkpt lat="43.84538" lon="6.51442">
        <ele>731</ele>
        <time>1990-12-08T08:53:50Z</time>
      </trkpt>
      <trkpt lat="43.84518" lon="6.51472">
        <ele>732</ele>
        <time>1990-12-08T08:53:57Z</time>
      </trkpt>
      <trkpt lat="43.84508" lon="6.5159">
        <ele>736</ele>
        <time>1990-12-08T08:54:20Z</time>
      </trkpt>
      <trkpt lat="43.84512" lon="6.51667">
        <ele>737</ele>
        <time>1990-12-08T08:54:41Z</time>
      </trkpt>
      <trkpt lat="43.8451" lon="6.51682">
        <ele>737</ele>
        <time>1990-12-08T08:54:45Z</time>
      </trkpt>
      <trkpt lat="43.84483" lon="6.51813">
        <ele>737</ele>
        <time>1990-12-08T08:55:01Z</time>
      </trkpt>
      <trkpt lat="43.8444" lon="6.51968">
        <ele>736</ele>
        <time>1990-12-08T08:55:21Z</time>
      </trkpt>
      <trkpt lat="43.84415" lon="6.52063">
        <ele>736</ele>
        <time>1990-12-08T08:55:35Z</time>
      </trkpt>
      <trkpt lat="43.8441" lon="6.52073">
        <ele>736</ele>
        <time>1990-12-08T08:55:37Z</time>
      </trkpt>
      <trkpt lat="43.84403" lon="6.52083">
        <ele>736</ele>
        <time>1990-12-08T08:55:39Z</time>
      </trkpt>
      <trkpt lat="43.8439" lon="6.52103">
        <ele>736</ele>
        <time>1990-12-08T08:55:43Z</time>
      </trkpt>
      <trkpt lat="43.84378" lon="6.52117">
        <ele>736</ele>
        <time>1990-12-08T08:55:46Z</time>
      </trkpt>
      <trkpt lat="43.84355" lon="6.52152">
        <ele>736</ele>
        <time>1990-12-08T08:55:52Z</time>
      </trkpt>
      <trkpt lat="43.84343" lon="6.52178">
        <ele>736</ele>
        <time>1990-12-08T08:55:56Z</time>
      </trkpt>
      <trkpt lat="43.84338" lon="6.522">
        <ele>737</ele>
        <time>1990-12-08T08:55:59Z</time>
      </trkpt>
      <trkpt lat="43.84292" lon="6.52352">
        <ele>737</ele>
        <time>1990-12-08T08:56:21Z</time>
      </trkpt>
      <trkpt lat="43.84283" lon="6.52383">
        <ele>737</ele>
        <time>1990-12-08T08:56:26Z</time>
      </trkpt>
      <trkpt lat="43.84267" lon="6.52455">
        <ele>737</ele>
        <time>1990-12-08T08:56:36Z</time>
      </trkpt>
      <trkpt lat="43.84225" lon="6.52567">
        <ele>735</ele>
        <time>1990-12-08T08:56:52Z</time>
      </trkpt>
      <trkpt lat="43.84218" lon="6.5258">
        <ele>735</ele>
        <time>1990-12-08T08:56:54Z</time>
      </trkpt>
      <trkpt lat="43.84213" lon="6.52602">
        <ele>735</ele>
        <time>1990-12-08T08:56:57Z</time>
      </trkpt>
      <trkpt lat="43.842" lon="6.52633">
        <ele>735</ele>
        <time>1990-12-08T08:57:07Z</time>
      </trkpt>
      <trkpt lat="43.84197" lon="6.52632">
        <ele>735</ele>
        <time>1990-12-08T08:57:09Z</time>
      </trkpt>
      <trkpt lat="43.84193" lon="6.52632">
        <ele>735</ele>
        <time>1990-12-08T08:57:11Z</time>
      </trkpt>
      <trkpt lat="43.84177" lon="6.52638">
        <ele>735</ele>
        <time>1990-12-08T08:57:19Z</time>
      </trkpt>
      <trkpt lat="43.84175" lon="6.52642">
        <ele>735</ele>
        <time>1990-12-08T08:57:21Z</time>
      </trkpt>
      <trkpt lat="43.84168" lon="6.52682">
        <ele>735</ele>
        <time>1990-12-08T08:57:32Z</time>
      </trkpt>
      <trkpt lat="43.84158" lon="6.5278">
        <ele>737</ele>
        <time>1990-12-08T08:57:56Z</time>
      </trkpt>
      <trkpt lat="43.84133" lon="6.52855">
        <ele>736</ele>
        <time>1990-12-08T08:58:09Z</time>
      </trkpt>
      <trkpt lat="43.8413" lon="6.52873">
        <ele>735</ele>
        <time>1990-12-08T08:58:12Z</time>
      </trkpt>
      <trkpt lat="43.84143" lon="6.52988">
        <ele>739</ele>
        <time>1990-12-08T08:58:33Z</time>
      </trkpt>
      <trkpt lat="43.84128" lon="6.53037">
        <ele>739</ele>
        <time>1990-12-08T08:58:42Z</time>
      </trkpt>
      <trkpt lat="43.84127" lon="6.53067">
        <ele>739</ele>
        <time>1990-12-08T08:58:47Z</time>
      </trkpt>
      <trkpt lat="43.84132" lon="6.53105">
        <ele>740</ele>
        <time>1990-12-08T08:58:54Z</time>
      </trkpt>
      <trkpt lat="43.84168" lon="6.53183">
        <ele>743</ele>
        <time>1990-12-08T08:59:12Z</time>
      </trkpt>
      <trkpt lat="43.84203" lon="6.53278">
        <ele>748</ele>
        <time>1990-12-08T08:59:37Z</time>
      </trkpt>
      <trkpt lat="43.84165" lon="6.53375">
        <ele>749</ele>
        <time>1990-12-08T09:00:00Z</time>
      </trkpt>
      <trkpt lat="43.84113" lon="6.53485">
        <ele>752</ele>
        <time>1990-12-08T09:00:26Z</time>
      </trkpt>
      <trkpt lat="43.84043" lon="6.53617">
        <ele>756</ele>
        <time>1990-12-08T09:00:54Z</time>
      </trkpt>
      <trkpt lat="43.8399" lon="6.5374">
        <ele>760</ele>
        <time>1990-12-08T09:01:21Z</time>
      </trkpt>
      <trkpt lat="43.83945" lon="6.53883">
        <ele>764</ele>
        <time>1990-12-08T09:01:50Z</time>
      </trkpt>
      <trkpt lat="43.83895" lon="6.54018">
        <ele>760</ele>
        <time>1990-12-08T09:02:08Z</time>
      </trkpt>
      <trkpt lat="43.83837" lon="6.54108">
        <ele>760</ele>
        <time>1990-12-08T09:02:22Z</time>
      </trkpt>
      <trkpt lat="43.83828" lon="6.54167">
        <ele>760</ele>
        <time>1990-12-08T09:02:43Z</time>
      </trkpt>
      <trkpt lat="43.83818" lon="6.54188">
        <ele>760</ele>
        <time>1990-12-08T09:02:59Z</time>
      </trkpt>
      <trkpt lat="43.83813" lon="6.5422">
        <ele>762</ele>
        <time>1990-12-08T09:05:31Z</time>
      </trkpt>
      <trkpt lat="43.8381" lon="6.5424">
        <ele>764</ele>
        <time>1990-12-08T09:05:41Z</time>
      </trkpt>
      <trkpt lat="43.83802" lon="6.54277">
        <ele>768</ele>
        <time>1990-12-08T09:06:07Z</time>
      </trkpt>
      <trkpt lat="43.83798" lon="6.54315">
        <ele>773</ele>
        <time>1990-12-08T09:06:44Z</time>
      </trkpt>
      <trkpt lat="43.83825" lon="6.54332">
        <ele>779</ele>
        <time>1990-12-08T09:07:22Z</time>
      </trkpt>
      <trkpt lat="43.8381" lon="6.54368">
        <ele>786</ele>
        <time>1990-12-08T09:08:01Z</time>
      </trkpt>
      <trkpt lat="43.83797" lon="6.54397">
        <ele>791</ele>
        <time>1990-12-08T09:08:35Z</time>
      </trkpt>
      <trkpt lat="43.83772" lon="6.54428">
        <ele>798</ele>
        <time>1990-12-08T09:09:14Z</time>
      </trkpt>
      <trkpt lat="43.83747" lon="6.54458">
        <ele>804</ele>
        <time>1990-12-08T09:09:55Z</time>
      </trkpt>
      <trkpt lat="43.8372" lon="6.5447">
        <ele>808</ele>
        <time>1990-12-08T09:10:13Z</time>
      </trkpt>
      <trkpt lat="43.8371" lon="6.54485">
        <ele>811</ele>
        <time>1990-12-08T09:10:24Z</time>
      </trkpt>
      <trkpt lat="43.83692" lon="6.54502">
        <ele>813</ele>
        <time>1990-12-08T09:10:38Z</time>
      </trkpt>
      <trkpt lat="43.8367" lon="6.5451">
        <ele>816</ele>
        <time>1990-12-08T09:10:51Z</time>
      </trkpt>
      <trkpt lat="43.83655" lon="6.54518">
        <ele>818</ele>
        <time>1990-12-08T09:11:04Z</time>
      </trkpt>
      <trkpt lat="43.83615" lon="6.54535">
        <ele>821</ele>
        <time>1990-12-08T09:11:32Z</time>
      </trkpt>
      <trkpt lat="43.83568" lon="6.54563">
        <ele>818</ele>
        <time>1990-12-08T09:11:50Z</time>
      </trkpt>
      <trkpt lat="43.83552" lon="6.54563">
        <ele>821</ele>
        <time>1990-12-08T09:12:08Z</time>
      </trkpt>
      <trkpt lat="43.83555" lon="6.54577">
        <ele>827</ele>
        <time>1990-12-08T09:12:38Z</time>
      </trkpt>
      <trkpt lat="43.83558" lon="6.54587">
        <ele>831</ele>
        <time>1990-12-08T09:12:57Z</time>
      </trkpt>
      <trkpt lat="43.83553" lon="6.5462">
        <ele>836</ele>
        <time>1990-12-08T09:13:35Z</time>
      </trkpt>
      <trkpt lat="43.83555" lon="6.54633">
        <ele>840</ele>
        <time>1990-12-08T09:17:04Z</time>
      </trkpt>
      <trkpt lat="43.83537" lon="6.54647">
        <ele>843</ele>
        <time>1990-12-08T09:17:38Z</time>
      </trkpt>
      <trkpt lat="43.8351" lon="6.54658">
        <ele>846</ele>
        <time>1990-12-08T09:17:57Z</time>
      </trkpt>
      <trkpt lat="43.835" lon="6.54673">
        <ele>848</ele>
        <time>1990-12-08T09:18:07Z</time>
      </trkpt>
      <trkpt lat="43.83492" lon="6.5468">
        <ele>849</ele>
        <time>1990-12-08T09:18:14Z</time>
      </trkpt>
      <trkpt lat="43.83478" lon="6.54697">
        <ele>852</ele>
        <time>1990-12-08T09:18:24Z</time>
      </trkpt>
      <trkpt lat="43.83463" lon="6.5472">
        <ele>855</ele>
        <time>1990-12-08T09:18:39Z</time>
      </trkpt>
      <trkpt lat="43.83442" lon="6.54765">
        <ele>862</ele>
        <time>1990-12-08T09:19:08Z</time>
      </trkpt>
      <trkpt lat="43.83425" lon="6.54825">
        <ele>867</ele>
        <time>1990-12-08T09:19:43Z</time>
      </trkpt>
      <trkpt lat="43.83415" lon="6.5484">
        <ele>871</ele>
        <time>1990-12-08T09:19:58Z</time>
      </trkpt>
      <trkpt lat="43.834" lon="6.5486">
        <ele>872</ele>
        <time>1990-12-08T09:20:37Z</time>
      </trkpt>
      <trkpt lat="43.83372" lon="6.54878">
        <ele>877</ele>
        <time>1990-12-08T09:21:21Z</time>
      </trkpt>
      <trkpt lat="43.83353" lon="6.54898">
        <ele>881</ele>
        <time>1990-12-08T09:21:41Z</time>
      </trkpt>
      <trkpt lat="43.83333" lon="6.54918">
        <ele>883</ele>
        <time>1990-12-08T09:21:59Z</time>
      </trkpt>
      <trkpt lat="43.83312" lon="6.54938">
        <ele>886</ele>
        <time>1990-12-08T09:22:16Z</time>
      </trkpt>
      <trkpt lat="43.83288" lon="6.54975">
        <ele>891</ele>
        <time>1990-12-08T09:22:42Z</time>
      </trkpt>
      <trkpt lat="43.83278" lon="6.5499">
        <ele>892</ele>
        <time>1990-12-08T09:22:51Z</time>
      </trkpt>
      <trkpt lat="43.83265" lon="6.55007">
        <ele>895</ele>
        <time>1990-12-08T09:23:02Z</time>
      </trkpt>
      <trkpt lat="43.83247" lon="6.55017">
        <ele>896</ele>
        <time>1990-12-08T09:23:35Z</time>
      </trkpt>
      <trkpt lat="43.8324" lon="6.5502">
        <ele>897</ele>
        <time>1990-12-08T09:23:40Z</time>
      </trkpt>
      <trkpt lat="43.83207" lon="6.5504">
        <ele>899</ele>
        <time>1990-12-08T09:24:00Z</time>
      </trkpt>
      <trkpt lat="43.83188" lon="6.55072">
        <ele>906</ele>
        <time>1990-12-08T09:24:15Z</time>
      </trkpt>
      <trkpt lat="43.83173" lon="6.55087">
        <ele>908</ele>
        <time>1990-12-08T09:24:41Z</time>
      </trkpt>
      <trkpt lat="43.83172" lon="6.55088">
        <ele>914</ele>
        <time>1990-12-08T09:35:41Z</time>
      </trkpt>
      <trkpt lat="43.8315" lon="6.5512">
        <ele>918</ele>
        <time>1990-12-08T09:40:30Z</time>
      </trkpt>
      <trkpt lat="43.83115" lon="6.55205">
        <ele>922</ele>
        <time>1990-12-08T09:40:55Z</time>
      </trkpt>
      <trkpt lat="43.8313" lon="6.55333">
        <ele>923</ele>
        <time>1990-12-08T09:41:19Z</time>
      </trkpt>
      <trkpt lat="43.8313" lon="6.55345">
        <ele>923</ele>
        <time>1990-12-08T09:41:21Z</time>
      </trkpt>
      <trkpt lat="43.83128" lon="6.5536">
        <ele>923</ele>
        <time>1990-12-08T09:41:23Z</time>
      </trkpt>
      <trkpt lat="43.83103" lon="6.55507">
        <ele>926</ele>
        <time>1990-12-08T09:41:51Z</time>
      </trkpt>
      <trkpt lat="43.8306" lon="6.55655">
        <ele>931</ele>
        <time>1990-12-08T09:42:23Z</time>
      </trkpt>
      <trkpt lat="43.83045" lon="6.55792">
        <ele>933</ele>
        <time>1990-12-08T09:42:53Z</time>
      </trkpt>
      <trkpt lat="43.83042" lon="6.55807">
        <ele>932</ele>
        <time>1990-12-08T09:43:00Z</time>
      </trkpt>
      <trkpt lat="43.83063" lon="6.55825">
        <ele>938</ele>
        <time>1990-12-08T09:44:05Z</time>
      </trkpt>
      <trkpt lat="43.83077" lon="6.55855">
        <ele>945</ele>
        <time>1990-12-08T09:45:17Z</time>
      </trkpt>
      <trkpt lat="43.83087" lon="6.5586">
        <ele>948</ele>
        <time>1990-12-08T09:45:25Z</time>
      </trkpt>
      <trkpt lat="43.83118" lon="6.55848">
        <ele>954</ele>
        <time>1990-12-08T09:45:44Z</time>
      </trkpt>
      <trkpt lat="43.83133" lon="6.55827">
        <ele>957</ele>
        <time>1990-12-08T09:46:05Z</time>
      </trkpt>
      <trkpt lat="43.83135" lon="6.55823">
        <ele>957</ele>
        <time>1990-12-08T09:46:07Z</time>
      </trkpt>
      <trkpt lat="43.83157" lon="6.55798">
        <ele>961</ele>
        <time>1990-12-08T09:46:37Z</time>
      </trkpt>
      <trkpt lat="43.8317" lon="6.55782">
        <ele>965</ele>
        <time>1990-12-08T09:46:58Z</time>
      </trkpt>
      <trkpt lat="43.8318" lon="6.55775">
        <ele>968</ele>
        <time>1990-12-08T09:47:13Z</time>
      </trkpt>
      <trkpt lat="43.83198" lon="6.55773">
        <ele>972</ele>
        <time>1990-12-08T09:47:41Z</time>
      </trkpt>
      <trkpt lat="43.83222" lon="6.55767">
        <ele>978</ele>
        <time>1990-12-08T09:48:15Z</time>
      </trkpt>
      <trkpt lat="43.83247" lon="6.55752">
        <ele>984</ele>
        <time>1990-12-08T09:48:50Z</time>
      </trkpt>
      <trkpt lat="43.8327" lon="6.55752">
        <ele>989</ele>
        <time>1990-12-08T09:49:22Z</time>
      </trkpt>
      <trkpt lat="43.83282" lon="6.55752">
        <ele>991</ele>
        <time>1990-12-08T09:50:11Z</time>
      </trkpt>
      <trkpt lat="43.833" lon="6.55745">
        <ele>992</ele>
        <time>1990-12-08T09:50:39Z</time>
      </trkpt>
      <trkpt lat="43.83318" lon="6.55733">
        <ele>996</ele>
        <time>1990-12-08T09:51:10Z</time>
      </trkpt>
      <trkpt lat="43.8333" lon="6.55718">
        <ele>1001</ele>
        <time>1990-12-08T09:51:38Z</time>
      </trkpt>
      <trkpt lat="43.83342" lon="6.55693">
        <ele>1007</ele>
        <time>1990-12-08T09:52:12Z</time>
      </trkpt>
      <trkpt lat="43.83352" lon="6.55672">
        <ele>1013</ele>
        <time>1990-12-08T09:52:45Z</time>
      </trkpt>
      <trkpt lat="43.8336" lon="6.55647">
        <ele>1019</ele>
        <time>1990-12-08T09:53:21Z</time>
      </trkpt>
      <trkpt lat="43.83373" lon="6.55623">
        <ele>1024</ele>
        <time>1990-12-08T09:53:58Z</time>
      </trkpt>
      <trkpt lat="43.83393" lon="6.55627">
        <ele>1027</ele>
        <time>1990-12-08T09:54:25Z</time>
      </trkpt>
      <trkpt lat="43.83433" lon="6.55643">
        <ele>1033</ele>
        <time>1990-12-08T09:54:59Z</time>
      </trkpt>
      <trkpt lat="43.83447" lon="6.55668">
        <ele>1037</ele>
        <time>1990-12-08T09:55:17Z</time>
      </trkpt>
      <trkpt lat="43.83455" lon="6.55703">
        <ele>1044</ele>
        <time>1990-12-08T09:55:39Z</time>
      </trkpt>
      <trkpt lat="43.83462" lon="6.55748">
        <ele>1050</ele>
        <time>1990-12-08T09:56:09Z</time>
      </trkpt>
      <trkpt lat="43.83463" lon="6.55768">
        <ele>1052</ele>
        <time>1990-12-08T09:56:20Z</time>
      </trkpt>
      <trkpt lat="43.8347" lon="6.55785">
        <ele>1055</ele>
        <time>1990-12-08T09:56:34Z</time>
      </trkpt>
      <trkpt lat="43.8347" lon="6.55802">
        <ele>1057</ele>
        <time>1990-12-08T09:56:42Z</time>
      </trkpt>
      <trkpt lat="43.83472" lon="6.55808">
        <ele>1058</ele>
        <time>1990-12-08T09:56:47Z</time>
      </trkpt>
      <trkpt lat="43.83472" lon="6.55827">
        <ele>1060</ele>
        <time>1990-12-08T09:57:48Z</time>
      </trkpt>
      <trkpt lat="43.8348" lon="6.55855">
        <ele>1066</ele>
        <time>1990-12-08T09:58:19Z</time>
      </trkpt>
      <trkpt lat="43.8349" lon="6.55892">
        <ele>1072</ele>
        <time>1990-12-08T09:58:54Z</time>
      </trkpt>
      <trkpt lat="43.83498" lon="6.55918">
        <ele>1078</ele>
        <time>1990-12-08T09:59:26Z</time>
      </trkpt>
      <trkpt lat="43.83513" lon="6.55898">
        <ele>1084</ele>
        <time>1990-12-08T10:00:01Z</time>
      </trkpt>
      <trkpt lat="43.83528" lon="6.55923">
        <ele>1090</ele>
        <time>1990-12-08T10:00:34Z</time>
      </trkpt>
      <trkpt lat="43.8354" lon="6.55955">
        <ele>1093</ele>
        <time>1990-12-08T10:01:11Z</time>
      </trkpt>
      <trkpt lat="43.83553" lon="6.55973">
        <ele>1095</ele>
        <time>1990-12-08T10:01:25Z</time>
      </trkpt>
      <trkpt lat="43.83572" lon="6.56002">
        <ele>1100</ele>
        <time>1990-12-08T10:01:46Z</time>
      </trkpt>
      <trkpt lat="43.83575" lon="6.56025">
        <ele>1102</ele>
        <time>1990-12-08T10:02:00Z</time>
      </trkpt>
      <trkpt lat="43.83587" lon="6.56043">
        <ele>1108</ele>
        <time>1990-12-08T10:02:32Z</time>
      </trkpt>
      <trkpt lat="43.83607" lon="6.56083">
        <ele>1114</ele>
        <time>1990-12-08T10:03:13Z</time>
      </trkpt>
      <trkpt lat="43.83628" lon="6.56105">
        <ele>1116</ele>
        <time>1990-12-08T10:03:41Z</time>
      </trkpt>
      <trkpt lat="43.83643" lon="6.56118">
        <ele>1120</ele>
        <time>1990-12-08T10:03:55Z</time>
      </trkpt>
      <trkpt lat="43.83652" lon="6.56147">
        <ele>1121</ele>
        <time>1990-12-08T10:04:07Z</time>
      </trkpt>
      <trkpt lat="43.83662" lon="6.56165">
        <ele>1122</ele>
        <time>1990-12-08T10:04:17Z</time>
      </trkpt>
      <trkpt lat="43.83672" lon="6.562">
        <ele>1124</ele>
        <time>1990-12-08T10:04:35Z</time>
      </trkpt>
      <trkpt lat="43.83675" lon="6.56222">
        <ele>1126</ele>
        <time>1990-12-08T10:04:44Z</time>
      </trkpt>
      <trkpt lat="43.83695" lon="6.5625">
        <ele>1131</ele>
        <time>1990-12-08T10:05:04Z</time>
      </trkpt>
      <trkpt lat="43.8372" lon="6.56252">
        <ele>1133</ele>
        <time>1990-12-08T10:05:21Z</time>
      </trkpt>
      <trkpt lat="43.83748" lon="6.56273">
        <ele>1134</ele>
        <time>1990-12-08T10:05:46Z</time>
      </trkpt>
      <trkpt lat="43.83763" lon="6.5629">
        <ele>1136</ele>
        <time>1990-12-08T10:05:58Z</time>
      </trkpt>
      <trkpt lat="43.8378" lon="6.56323">
        <ele>1136</ele>
        <time>1990-12-08T10:06:13Z</time>
      </trkpt>
      <trkpt lat="43.83793" lon="6.56347">
        <ele>1138</ele>
        <time>1990-12-08T10:06:24Z</time>
      </trkpt>
      <trkpt lat="43.83818" lon="6.56368">
        <ele>1143</ele>
        <time>1990-12-08T10:06:54Z</time>
      </trkpt>
      <trkpt lat="43.83835" lon="6.5638">
        <ele>1148</ele>
        <time>1990-12-08T10:07:29Z</time>
      </trkpt>
      <trkpt lat="43.83835" lon="6.56415">
        <ele>1148</ele>
        <time>1990-12-08T10:08:18Z</time>
      </trkpt>
      <trkpt lat="43.83848" lon="6.56418">
        <ele>1144</ele>
        <time>1990-12-08T10:14:47Z</time>
      </trkpt>
      <trkpt lat="43.83857" lon="6.56427">
        <ele>1142</ele>
        <time>1990-12-08T10:14:55Z</time>
      </trkpt>
      <trkpt lat="43.83897" lon="6.56417">
        <ele>1139</ele>
        <time>1990-12-08T10:15:15Z</time>
      </trkpt>
      <trkpt lat="43.8391" lon="6.56427">
        <ele>1140</ele>
        <time>1990-12-08T10:15:33Z</time>
      </trkpt>
      <trkpt lat="43.83927" lon="6.56418">
        <ele>1136</ele>
        <time>1990-12-08T10:15:59Z</time>
      </trkpt>
      <trkpt lat="43.83935" lon="6.56423">
        <ele>1134</ele>
        <time>1990-12-08T10:16:11Z</time>
      </trkpt>
      <trkpt lat="43.8398" lon="6.56455">
        <ele>1134</ele>
        <time>1990-12-08T10:16:32Z</time>
      </trkpt>
      <trkpt lat="43.83987" lon="6.5646">
        <ele>1135</ele>
        <time>1990-12-08T10:16:39Z</time>
      </trkpt>
      <trkpt lat="43.8401" lon="6.56435">
        <ele>1138</ele>
        <time>1990-12-08T10:17:03Z</time>
      </trkpt>
      <trkpt lat="43.84025" lon="6.56428">
        <ele>1139</ele>
        <time>1990-12-08T10:17:13Z</time>
      </trkpt>
      <trkpt lat="43.8405" lon="6.56403">
        <ele>1142</ele>
        <time>1990-12-08T10:17:30Z</time>
      </trkpt>
      <trkpt lat="43.84063" lon="6.5639">
        <ele>1146</ele>
        <time>1990-12-08T10:17:40Z</time>
      </trkpt>
      <trkpt lat="43.84077" lon="6.56392">
        <ele>1148</ele>
        <time>1990-12-08T10:18:03Z</time>
      </trkpt>
      <trkpt lat="43.84102" lon="6.56402">
        <ele>1153</ele>
        <time>1990-12-08T10:18:38Z</time>
      </trkpt>
      <trkpt lat="43.8413" lon="6.5641">
        <ele>1157</ele>
        <time>1990-12-08T10:19:03Z</time>
      </trkpt>
      <trkpt lat="43.84175" lon="6.56435">
        <ele>1160</ele>
        <time>1990-12-08T10:19:31Z</time>
      </trkpt>
      <trkpt lat="43.84208" lon="6.56483">
        <ele>1163</ele>
        <time>1990-12-08T10:19:54Z</time>
      </trkpt>
      <trkpt lat="43.84235" lon="6.56545">
        <ele>1168</ele>
        <time>1990-12-08T10:20:17Z</time>
      </trkpt>
      <trkpt lat="43.84245" lon="6.5657">
        <ele>1171</ele>
        <time>1990-12-08T10:20:28Z</time>
      </trkpt>
      <trkpt lat="43.84258" lon="6.56602">
        <ele>1172</ele>
        <time>1990-12-08T10:20:42Z</time>
      </trkpt>
      <trkpt lat="43.84293" lon="6.56642">
        <ele>1174</ele>
        <time>1990-12-08T10:21:02Z</time>
      </trkpt>
      <trkpt lat="43.84307" lon="6.56692">
        <ele>1175</ele>
        <time>1990-12-08T10:21:15Z</time>
      </trkpt>
      <trkpt lat="43.84338" lon="6.56767">
        <ele>1177</ele>
        <time>1990-12-08T10:21:38Z</time>
      </trkpt>
      <trkpt lat="43.84363" lon="6.56822">
        <ele>1180</ele>
        <time>1990-12-08T10:22:02Z</time>
      </trkpt>
      <trkpt lat="43.84393" lon="6.56885">
        <ele>1181</ele>
        <time>1990-12-08T10:22:24Z</time>
      </trkpt>
      <trkpt lat="43.84407" lon="6.56933">
        <ele>1182</ele>
        <time>1990-12-08T10:22:41Z</time>
      </trkpt>
      <trkpt lat="43.84425" lon="6.56977">
        <ele>1183</ele>
        <time>1990-12-08T10:22:58Z</time>
      </trkpt>
      <trkpt lat="43.84443" lon="6.57047">
        <ele>1186</ele>
        <time>1990-12-08T10:23:21Z</time>
      </trkpt>
      <trkpt lat="43.84453" lon="6.57082">
        <ele>1188</ele>
        <time>1990-12-08T10:23:34Z</time>
      </trkpt>
      <trkpt lat="43.8447" lon="6.5713">
        <ele>1190</ele>
        <time>1990-12-08T10:23:53Z</time>
      </trkpt>
      <trkpt lat="43.8448" lon="6.57167">
        <ele>1193</ele>
        <time>1990-12-08T10:24:09Z</time>
      </trkpt>
      <trkpt lat="43.84487" lon="6.57208">
        <ele>1195</ele>
        <time>1990-12-08T10:24:26Z</time>
      </trkpt>
      <trkpt lat="43.84498" lon="6.5726">
        <ele>1198</ele>
        <time>1990-12-08T10:24:48Z</time>
      </trkpt>
      <trkpt lat="43.84512" lon="6.57302">
        <ele>1203</ele>
        <time>1990-12-08T10:25:04Z</time>
      </trkpt>
      <trkpt lat="43.84512" lon="6.57332">
        <ele>1205</ele>
        <time>1990-12-08T10:25:19Z</time>
      </trkpt>
      <trkpt lat="43.84558" lon="6.57395">
        <ele>1209</ele>
        <time>1990-12-08T10:25:44Z</time>
      </trkpt>
      <trkpt lat="43.84575" lon="6.5743">
        <ele>1211</ele>
        <time>1990-12-08T10:26:01Z</time>
      </trkpt>
      <trkpt lat="43.8459" lon="6.5747">
        <ele>1215</ele>
        <time>1990-12-08T10:26:22Z</time>
      </trkpt>
      <trkpt lat="43.84595" lon="6.57495">
        <ele>1219</ele>
        <time>1990-12-08T10:26:38Z</time>
      </trkpt>
      <trkpt lat="43.84607" lon="6.57557">
        <ele>1223</ele>
        <time>1990-12-08T10:27:09Z</time>
      </trkpt>
      <trkpt lat="43.84627" lon="6.57588">
        <ele>1225</ele>
        <time>1990-12-08T10:27:29Z</time>
      </trkpt>
      <trkpt lat="43.8464" lon="6.57612">
        <ele>1226</ele>
        <time>1990-12-08T10:27:38Z</time>
      </trkpt>
      <trkpt lat="43.84643" lon="6.57627">
        <ele>1227</ele>
        <time>1990-12-08T10:27:44Z</time>
      </trkpt>
      <trkpt lat="43.8466" lon="6.57652">
        <ele>1230</ele>
        <time>1990-12-08T10:27:58Z</time>
      </trkpt>
      <trkpt lat="43.84683" lon="6.57702">
        <ele>1235</ele>
        <time>1990-12-08T10:28:23Z</time>
      </trkpt>
      <trkpt lat="43.84727" lon="6.5775">
        <ele>1241</ele>
        <time>1990-12-08T10:28:51Z</time>
      </trkpt>
      <trkpt lat="43.84747" lon="6.57775">
        <ele>1244</ele>
        <time>1990-12-08T10:29:07Z</time>
      </trkpt>
      <trkpt lat="43.84762" lon="6.57795">
        <ele>1246</ele>
        <time>1990-12-08T10:29:19Z</time>
      </trkpt>
      <trkpt lat="43.84772" lon="6.57807">
        <ele>1248</ele>
        <time>1990-12-08T10:29:26Z</time>
      </trkpt>
      <trkpt lat="43.84807" lon="6.57847">
        <ele>1252</ele>
        <time>1990-12-08T10:29:51Z</time>
      </trkpt>
      <trkpt lat="43.84853" lon="6.57903">
        <ele>1257</ele>
        <time>1990-12-08T10:30:21Z</time>
      </trkpt>
      <trkpt lat="43.84888" lon="6.57948">
        <ele>1262</ele>
        <time>1990-12-08T10:30:49Z</time>
      </trkpt>
      <trkpt lat="43.84895" lon="6.57965">
        <ele>1264</ele>
        <time>1990-12-08T10:30:59Z</time>
      </trkpt>
      <trkpt lat="43.8494" lon="6.57997">
        <ele>1266</ele>
        <time>1990-12-08T10:31:26Z</time>
      </trkpt>
      <trkpt lat="43.84962" lon="6.58003">
        <ele>1266</ele>
        <time>1990-12-08T10:33:14Z</time>
      </trkpt>
      <trkpt lat="43.84958" lon="6.58007">
        <ele>1272</ele>
        <time>1990-12-08T10:39:54Z</time>
      </trkpt>
      <trkpt lat="43.84958" lon="6.58007">
        <ele>1272</ele>
        <time>1990-12-08T10:40:37Z</time>
      </trkpt>
      <trkpt lat="43.84998" lon="6.58107">
        <ele>1270</ele>
        <time>1990-12-08T10:41:03Z</time>
      </trkpt>
      <trkpt lat="43.85035" lon="6.58178">
        <ele>1267</ele>
        <time>1990-12-08T10:41:17Z</time>
      </trkpt>
      <trkpt lat="43.85072" lon="6.58265">
        <ele>1265</ele>
        <time>1990-12-08T10:41:31Z</time>
      </trkpt>
      <trkpt lat="43.85093" lon="6.58318">
        <ele>1264</ele>
        <time>1990-12-08T10:41:40Z</time>
      </trkpt>
      <trkpt lat="43.85137" lon="6.5839">
        <ele>1264</ele>
        <time>1990-12-08T10:41:52Z</time>
      </trkpt>
      <trkpt lat="43.85155" lon="6.58447">
        <ele>1261</ele>
        <time>1990-12-08T10:42:01Z</time>
      </trkpt>
      <trkpt lat="43.85177" lon="6.58542">
        <ele>1256</ele>
        <time>1990-12-08T10:42:13Z</time>
      </trkpt>
      <trkpt lat="43.85207" lon="6.58602">
        <ele>1253</ele>
        <time>1990-12-08T10:42:22Z</time>
      </trkpt>
      <trkpt lat="43.85238" lon="6.58675">
        <ele>1251</ele>
        <time>1990-12-08T10:42:33Z</time>
      </trkpt>
      <trkpt lat="43.85282" lon="6.58762">
        <ele>1253</ele>
        <time>1990-12-08T10:42:52Z</time>
      </trkpt>
      <trkpt lat="43.8533" lon="6.58833">
        <ele>1252</ele>
        <time>1990-12-08T10:43:14Z</time>
      </trkpt>
      <trkpt lat="43.8538" lon="6.58908">
        <ele>1249</ele>
        <time>1990-12-08T10:43:27Z</time>
      </trkpt>
      <trkpt lat="43.85417" lon="6.58988">
        <ele>1247</ele>
        <time>1990-12-08T10:43:42Z</time>
      </trkpt>
      <trkpt lat="43.85428" lon="6.58998">
        <ele>1245</ele>
        <time>1990-12-08T10:44:02Z</time>
      </trkpt>
      <trkpt lat="43.85437" lon="6.58965">
        <ele>1241</ele>
        <time>1990-12-08T10:44:11Z</time>
      </trkpt>
      <trkpt lat="43.85438" lon="6.58923">
        <ele>1236</ele>
        <time>1990-12-08T10:44:20Z</time>
      </trkpt>
      <trkpt lat="43.85425" lon="6.58888">
        <ele>1234</ele>
        <time>1990-12-08T10:44:28Z</time>
      </trkpt>
      <trkpt lat="43.85482" lon="6.58917">
        <ele>1230</ele>
        <time>1990-12-08T10:44:46Z</time>
      </trkpt>
      <trkpt lat="43.85478" lon="6.58962">
        <ele>1231</ele>
        <time>1990-12-08T10:45:00Z</time>
      </trkpt>
      <trkpt lat="43.85473" lon="6.5899">
        <ele>1231</ele>
        <time>1990-12-08T10:45:08Z</time>
      </trkpt>
      <trkpt lat="43.85482" lon="6.59003">
        <ele>1231</ele>
        <time>1990-12-08T10:45:52Z</time>
      </trkpt>
      <trkpt lat="43.85468" lon="6.5903">
        <ele>1235</ele>
        <time>1990-12-08T10:46:10Z</time>
      </trkpt>
      <trkpt lat="43.85463" lon="6.59043">
        <ele>1237</ele>
        <time>1990-12-08T10:46:22Z</time>
      </trkpt>
      <trkpt lat="43.85468" lon="6.59065">
        <ele>1240</ele>
        <time>1990-12-08T10:46:47Z</time>
      </trkpt>
      <trkpt lat="43.85502" lon="6.59075">
        <ele>1246</ele>
        <time>1990-12-08T10:47:11Z</time>
      </trkpt>
      <trkpt lat="43.85527" lon="6.59082">
        <ele>1249</ele>
        <time>1990-12-08T10:47:27Z</time>
      </trkpt>
      <trkpt lat="43.85538" lon="6.59075">
        <ele>1251</ele>
        <time>1990-12-08T10:47:35Z</time>
      </trkpt>
      <trkpt lat="43.85565" lon="6.59057">
        <ele>1256</ele>
        <time>1990-12-08T10:47:56Z</time>
      </trkpt>
      <trkpt lat="43.856" lon="6.59043">
        <ele>1260</ele>
        <time>1990-12-08T10:48:22Z</time>
      </trkpt>
      <trkpt lat="43.85623" lon="6.5903">
        <ele>1263</ele>
        <time>1990-12-08T10:48:40Z</time>
      </trkpt>
      <trkpt lat="43.85668" lon="6.59023">
        <ele>1269</ele>
        <time>1990-12-08T10:49:09Z</time>
      </trkpt>
      <trkpt lat="43.85672" lon="6.5902">
        <ele>1269</ele>
        <time>1990-12-08T10:49:26Z</time>
      </trkpt>
      <trkpt lat="43.85697" lon="6.59003">
        <ele>1272</ele>
        <time>1990-12-08T10:50:07Z</time>
      </trkpt>
      <trkpt lat="43.85723" lon="6.58998">
        <ele>1272</ele>
        <time>1990-12-08T10:50:36Z</time>
      </trkpt>
      <trkpt lat="43.85758" lon="6.58988">
        <ele>1270</ele>
        <time>1990-12-08T10:51:07Z</time>
      </trkpt>
      <trkpt lat="43.85802" lon="6.58998">
        <ele>1275</ele>
        <time>1990-12-08T10:51:30Z</time>
      </trkpt>
      <trkpt lat="43.8583" lon="6.5901">
        <ele>1276</ele>
        <time>1990-12-08T10:51:45Z</time>
      </trkpt>
      <trkpt lat="43.85853" lon="6.59022">
        <ele>1279</ele>
        <time>1990-12-08T10:52:03Z</time>
      </trkpt>
      <trkpt lat="43.85903" lon="6.59037">
        <ele>1281</ele>
        <time>1990-12-08T10:52:25Z</time>
      </trkpt>
      <trkpt lat="43.8596" lon="6.59063">
        <ele>1281</ele>
        <time>1990-12-08T10:52:48Z</time>
      </trkpt>
      <trkpt lat="43.85992" lon="6.59093">
        <ele>1285</ele>
        <time>1990-12-08T10:53:03Z</time>
      </trkpt>
      <trkpt lat="43.86055" lon="6.59137">
        <ele>1288</ele>
        <time>1990-12-08T10:53:31Z</time>
      </trkpt>
      <trkpt lat="43.86077" lon="6.5914">
        <ele>1291</ele>
        <time>1990-12-08T10:53:45Z</time>
      </trkpt>
      <trkpt lat="43.86077" lon="6.59138">
        <ele>1291</ele>
        <time>1990-12-08T10:54:10Z</time>
      </trkpt>
      <trkpt lat="43.861" lon="6.5918">
        <ele>1291</ele>
        <time>1990-12-08T10:55:25Z</time>
      </trkpt>
      <trkpt lat="43.86145" lon="6.59243">
        <ele>1290</ele>
        <time>1990-12-08T10:55:48Z</time>
      </trkpt>
      <trkpt lat="43.86205" lon="6.59317">
        <ele>1292</ele>
        <time>1990-12-08T10:56:13Z</time>
      </trkpt>
      <trkpt lat="43.86215" lon="6.59345">
        <ele>1290</ele>
        <time>1990-12-08T10:56:18Z</time>
      </trkpt>
      <trkpt lat="43.86265" lon="6.59335">
        <ele>1293</ele>
        <time>1990-12-08T10:56:36Z</time>
      </trkpt>
      <trkpt lat="43.86293" lon="6.59332">
        <ele>1295</ele>
        <time>1990-12-08T10:56:53Z</time>
      </trkpt>
      <trkpt lat="43.863" lon="6.59335">
        <ele>1295</ele>
        <time>1990-12-08T10:58:14Z</time>
      </trkpt>
      <trkpt lat="43.86332" lon="6.59372">
        <ele>1296</ele>
        <time>1990-12-08T10:58:28Z</time>
      </trkpt>
      <trkpt lat="43.86338" lon="6.59448">
        <ele>1290</ele>
        <time>1990-12-08T10:58:39Z</time>
      </trkpt>
      <trkpt lat="43.86382" lon="6.59532">
        <ele>1290</ele>
        <time>1990-12-08T10:58:52Z</time>
      </trkpt>
      <trkpt lat="43.86408" lon="6.59587">
        <ele>1290</ele>
        <time>1990-12-08T10:59:02Z</time>
      </trkpt>
      <trkpt lat="43.8642" lon="6.59642">
        <ele>1288</ele>
        <time>1990-12-08T10:59:09Z</time>
      </trkpt>
      <trkpt lat="43.86438" lon="6.59743">
        <ele>1285</ele>
        <time>1990-12-08T10:59:19Z</time>
      </trkpt>
      <trkpt lat="43.86447" lon="6.59913">
        <ele>1281</ele>
        <time>1990-12-08T10:59:37Z</time>
      </trkpt>
      <trkpt lat="43.86457" lon="6.60063">
        <ele>1284</ele>
        <time>1990-12-08T10:59:55Z</time>
      </trkpt>
      <trkpt lat="43.86463" lon="6.60102">
        <ele>1284</ele>
        <time>1990-12-08T11:00:01Z</time>
      </trkpt>
      <trkpt lat="43.86473" lon="6.60215">
        <ele>1283</ele>
        <time>1990-12-08T11:00:17Z</time>
      </trkpt>
      <trkpt lat="43.86477" lon="6.60297">
        <ele>1283</ele>
        <time>1990-12-08T11:00:28Z</time>
      </trkpt>
      <trkpt lat="43.86485" lon="6.60405">
        <ele>1284</ele>
        <time>1990-12-08T11:00:43Z</time>
      </trkpt>
      <trkpt lat="43.86497" lon="6.60538">
        <ele>1285</ele>
        <time>1990-12-08T11:01:06Z</time>
      </trkpt>
      <trkpt lat="43.86503" lon="6.6065">
        <ele>1289</ele>
        <time>1990-12-08T11:01:31Z</time>
      </trkpt>
      <trkpt lat="43.86517" lon="6.60783">
        <ele>1291</ele>
        <time>1990-12-08T11:01:57Z</time>
      </trkpt>
      <trkpt lat="43.86525" lon="6.60965">
        <ele>1293</ele>
        <time>1990-12-08T11:02:26Z</time>
      </trkpt>
      <trkpt lat="43.86528" lon="6.61083">
        <ele>1293</ele>
        <time>1990-12-08T11:02:44Z</time>
      </trkpt>
      <trkpt lat="43.86528" lon="6.61117">
        <ele>1292</ele>
        <time>1990-12-08T11:02:48Z</time>
      </trkpt>
      <trkpt lat="43.86527" lon="6.61218">
        <ele>1292</ele>
        <time>1990-12-08T11:03:02Z</time>
      </trkpt>
      <trkpt lat="43.86532" lon="6.6133">
        <ele>1293</ele>
        <time>1990-12-08T11:03:19Z</time>
      </trkpt>
      <trkpt lat="43.86543" lon="6.61375">
        <ele>1294</ele>
        <time>1990-12-08T11:03:27Z</time>
      </trkpt>
      <trkpt lat="43.86562" lon="6.61468">
        <ele>1295</ele>
        <time>1990-12-08T11:03:45Z</time>
      </trkpt>
      <trkpt lat="43.86583" lon="6.6158">
        <ele>1301</ele>
        <time>1990-12-08T11:04:11Z</time>
      </trkpt>
      <trkpt lat="43.86598" lon="6.61665">
        <ele>1307</ele>
        <time>1990-12-08T11:04:36Z</time>
      </trkpt>
      <trkpt lat="43.8661" lon="6.6172">
        <ele>1310</ele>
        <time>1990-12-08T11:04:52Z</time>
      </trkpt>
      <trkpt lat="43.86613" lon="6.61757">
        <ele>1312</ele>
        <time>1990-12-08T11:05:04Z</time>
      </trkpt>
      <trkpt lat="43.86627" lon="6.61798">
        <ele>1315</ele>
        <time>1990-12-08T11:05:18Z</time>
      </trkpt>
      <trkpt lat="43.86638" lon="6.61855">
        <ele>1318</ele>
        <time>1990-12-08T11:05:36Z</time>
      </trkpt>
      <trkpt lat="43.86643" lon="6.61913">
        <ele>1321</ele>
        <time>1990-12-08T11:05:55Z</time>
      </trkpt>
      <trkpt lat="43.86652" lon="6.6196">
        <ele>1323</ele>
        <time>1990-12-08T11:06:10Z</time>
      </trkpt>
      <trkpt lat="43.86658" lon="6.62047">
        <ele>1327</ele>
        <time>1990-12-08T11:06:33Z</time>
      </trkpt>
      <trkpt lat="43.86658" lon="6.62075">
        <ele>1328</ele>
        <time>1990-12-08T11:06:45Z</time>
      </trkpt>
      <trkpt lat="43.86672" lon="6.62133">
        <ele>1328</ele>
        <time>1990-12-08T11:07:17Z</time>
      </trkpt>
      <trkpt lat="43.86685" lon="6.62222">
        <ele>1329</ele>
        <time>1990-12-08T11:07:42Z</time>
      </trkpt>
      <trkpt lat="43.86685" lon="6.62302">
        <ele>1331</ele>
        <time>1990-12-08T11:08:05Z</time>
      </trkpt>
      <trkpt lat="43.86682" lon="6.62323">
        <ele>1332</ele>
        <time>1990-12-08T11:12:59Z</time>
      </trkpt>
      <trkpt lat="43.86672" lon="6.6236">
        <ele>1333</ele>
        <time>1990-12-08T11:13:20Z</time>
      </trkpt>
      <trkpt lat="43.86648" lon="6.62448">
        <ele>1335</ele>
        <time>1990-12-08T11:13:50Z</time>
      </trkpt>
      <trkpt lat="43.8662" lon="6.62558">
        <ele>1338</ele>
        <time>1990-12-08T11:14:23Z</time>
      </trkpt>
      <trkpt lat="43.86605" lon="6.62602">
        <ele>1341</ele>
        <time>1990-12-08T11:14:46Z</time>
      </trkpt>
      <trkpt lat="43.86583" lon="6.6271">
        <ele>1344</ele>
        <time>1990-12-08T11:15:16Z</time>
      </trkpt>
      <trkpt lat="43.86567" lon="6.62845">
        <ele>1350</ele>
        <time>1990-12-08T11:15:49Z</time>
      </trkpt>
      <trkpt lat="43.8654" lon="6.62978">
        <ele>1355</ele>
        <time>1990-12-08T11:16:23Z</time>
      </trkpt>
      <trkpt lat="43.86517" lon="6.63113">
        <ele>1360</ele>
        <time>1990-12-08T11:16:56Z</time>
      </trkpt>
      <trkpt lat="43.86515" lon="6.6317">
        <ele>1364</ele>
        <time>1990-12-08T11:17:15Z</time>
      </trkpt>
      <trkpt lat="43.86515" lon="6.63175">
        <ele>1365</ele>
        <time>1990-12-08T11:17:36Z</time>
      </trkpt>
      <trkpt lat="43.86527" lon="6.63193">
        <ele>1365</ele>
        <time>1990-12-08T11:18:00Z</time>
      </trkpt>
      <trkpt lat="43.86533" lon="6.63183">
        <ele>1366</ele>
        <time>1990-12-08T11:23:04Z</time>
      </trkpt>
      <trkpt lat="43.8657" lon="6.63285">
        <ele>1369</ele>
        <time>1990-12-08T11:23:33Z</time>
      </trkpt>
      <trkpt lat="43.86613" lon="6.63395">
        <ele>1374</ele>
        <time>1990-12-08T11:24:04Z</time>
      </trkpt>
      <trkpt lat="43.86633" lon="6.63507">
        <ele>1379</ele>
        <time>1990-12-08T11:24:35Z</time>
      </trkpt>
      <trkpt lat="43.8665" lon="6.63617">
        <ele>1384</ele>
        <time>1990-12-08T11:25:03Z</time>
      </trkpt>
      <trkpt lat="43.86655" lon="6.63723">
        <ele>1391</ele>
        <time>1990-12-08T11:25:30Z</time>
      </trkpt>
      <trkpt lat="43.8668" lon="6.63728">
        <ele>1395</ele>
        <time>1990-12-08T11:25:55Z</time>
      </trkpt>
      <trkpt lat="43.86673" lon="6.63568">
        <ele>1398</ele>
        <time>1990-12-08T11:26:28Z</time>
      </trkpt>
      <trkpt lat="43.86685" lon="6.63405">
        <ele>1403</ele>
        <time>1990-12-08T11:27:03Z</time>
      </trkpt>
      <trkpt lat="43.86698" lon="6.63257">
        <ele>1409</ele>
        <time>1990-12-08T11:27:35Z</time>
      </trkpt>
      <trkpt lat="43.86717" lon="6.63122">
        <ele>1416</ele>
        <time>1990-12-08T11:28:06Z</time>
      </trkpt>
      <trkpt lat="43.86743" lon="6.63015">
        <ele>1423</ele>
        <time>1990-12-08T11:28:33Z</time>
      </trkpt>
      <trkpt lat="43.86788" lon="6.62908">
        <ele>1429</ele>
        <time>1990-12-08T11:29:00Z</time>
      </trkpt>
      <trkpt lat="43.86848" lon="6.62818">
        <ele>1435</ele>
        <time>1990-12-08T11:29:28Z</time>
      </trkpt>
      <trkpt lat="43.86912" lon="6.62747">
        <ele>1441</ele>
        <time>1990-12-08T11:29:56Z</time>
      </trkpt>
      <trkpt lat="43.8699" lon="6.62725">
        <ele>1446</ele>
        <time>1990-12-08T11:30:25Z</time>
      </trkpt>
      <trkpt lat="43.8702" lon="6.62703">
        <ele>1450</ele>
        <time>1990-12-08T11:30:37Z</time>
      </trkpt>
      <trkpt lat="43.87078" lon="6.62645">
        <ele>1456</ele>
        <time>1990-12-08T11:31:03Z</time>
      </trkpt>
      <trkpt lat="43.87142" lon="6.6259">
        <ele>1462</ele>
        <time>1990-12-08T11:31:28Z</time>
      </trkpt>
      <trkpt lat="43.87198" lon="6.62498">
        <ele>1468</ele>
        <time>1990-12-08T11:31:54Z</time>
      </trkpt>
      <trkpt lat="43.87267" lon="6.62503">
        <ele>1474</ele>
        <time>1990-12-08T11:32:15Z</time>
      </trkpt>
      <trkpt lat="43.87347" lon="6.62488">
        <ele>1480</ele>
        <time>1990-12-08T11:32:39Z</time>
      </trkpt>
      <trkpt lat="43.87402" lon="6.62468">
        <ele>1485</ele>
        <time>1990-12-08T11:32:57Z</time>
      </trkpt>
      <trkpt lat="43.8741" lon="6.62482">
        <ele>1487</ele>
        <time>1990-12-08T11:33:02Z</time>
      </trkpt>
      <trkpt lat="43.87343" lon="6.62517">
        <ele>1492</ele>
        <time>1990-12-08T11:33:22Z</time>
      </trkpt>
      <trkpt lat="43.8727" lon="6.62568">
        <ele>1498</ele>
        <time>1990-12-08T11:33:48Z</time>
      </trkpt>
      <trkpt lat="43.8722" lon="6.62578">
        <ele>1501</ele>
        <time>1990-12-08T11:34:02Z</time>
      </trkpt>
      <trkpt lat="43.87245" lon="6.62607">
        <ele>1504</ele>
        <time>1990-12-08T11:34:14Z</time>
      </trkpt>
      <trkpt lat="43.8733" lon="6.62587">
        <ele>1511</ele>
        <time>1990-12-08T11:34:40Z</time>
      </trkpt>
      <trkpt lat="43.87407" lon="6.62558">
        <ele>1517</ele>
        <time>1990-12-08T11:35:06Z</time>
      </trkpt>
      <trkpt lat="43.87468" lon="6.62517">
        <ele>1523</ele>
        <time>1990-12-08T11:35:29Z</time>
      </trkpt>
      <trkpt lat="43.87487" lon="6.62485">
        <ele>1527</ele>
        <time>1990-12-08T11:35:40Z</time>
      </trkpt>
      <trkpt lat="43.8755" lon="6.62517">
        <ele>1532</ele>
        <time>1990-12-08T11:36:08Z</time>
      </trkpt>
      <trkpt lat="43.87612" lon="6.62612">
        <ele>1539</ele>
        <time>1990-12-08T11:36:37Z</time>
      </trkpt>
      <trkpt lat="43.87658" lon="6.62692">
        <ele>1545</ele>
        <time>1990-12-08T11:37:01Z</time>
      </trkpt>
      <trkpt lat="43.87693" lon="6.62787">
        <ele>1550</ele>
        <time>1990-12-08T11:37:25Z</time>
      </trkpt>
      <trkpt lat="43.87767" lon="6.62875">
        <ele>1556</ele>
        <time>1990-12-08T11:37:54Z</time>
      </trkpt>
      <trkpt lat="43.87837" lon="6.62832">
        <ele>1558</ele>
        <time>1990-12-08T11:38:16Z</time>
      </trkpt>
      <trkpt lat="43.87927" lon="6.62783">
        <ele>1564</ele>
        <time>1990-12-08T11:38:40Z</time>
      </trkpt>
      <trkpt lat="43.87975" lon="6.62792">
        <ele>1567</ele>
        <time>1990-12-08T11:38:53Z</time>
      </trkpt>
      <trkpt lat="43.88038" lon="6.6284">
        <ele>1572</ele>
        <time>1990-12-08T11:39:13Z</time>
      </trkpt>
      <trkpt lat="43.88118" lon="6.62917">
        <ele>1575</ele>
        <time>1990-12-08T11:39:38Z</time>
      </trkpt>
      <trkpt lat="43.88217" lon="6.6303">
        <ele>1581</ele>
        <time>1990-12-08T11:40:05Z</time>
      </trkpt>
      <trkpt lat="43.8826" lon="6.63067">
        <ele>1582</ele>
        <time>1990-12-08T11:40:16Z</time>
      </trkpt>
      <trkpt lat="43.88293" lon="6.63068">
        <ele>1584</ele>
        <time>1990-12-08T11:40:23Z</time>
      </trkpt>
      <trkpt lat="43.88343" lon="6.63055">
        <ele>1586</ele>
        <time>1990-12-08T11:40:34Z</time>
      </trkpt>
      <trkpt lat="43.88375" lon="6.63077">
        <ele>1589</ele>
        <time>1990-12-08T11:40:44Z</time>
      </trkpt>
      <trkpt lat="43.88407" lon="6.6313">
        <ele>1591</ele>
        <time>1990-12-08T11:41:02Z</time>
      </trkpt>
      <trkpt lat="43.88435" lon="6.63232">
        <ele>1594</ele>
        <time>1990-12-08T11:41:32Z</time>
      </trkpt>
      <trkpt lat="43.8846" lon="6.63325">
        <ele>1596</ele>
        <time>1990-12-08T11:42:00Z</time>
      </trkpt>
      <trkpt lat="43.88488" lon="6.63388">
        <ele>1597</ele>
        <time>1990-12-08T11:42:24Z</time>
      </trkpt>
      <trkpt lat="43.88487" lon="6.63398">
        <ele>1597</ele>
        <time>1990-12-08T11:42:48Z</time>
      </trkpt>
      <trkpt lat="43.88493" lon="6.63398">
        <ele>1600</ele>
        <time>1990-12-08T11:54:58Z</time>
      </trkpt>
      <trkpt lat="43.88505" lon="6.63493">
        <ele>1601</ele>
        <time>1990-12-08T11:55:27Z</time>
      </trkpt>
      <trkpt lat="43.8851" lon="6.63547">
        <ele>1601</ele>
        <time>1990-12-08T11:55:55Z</time>
      </trkpt>
      <trkpt lat="43.88515" lon="6.636">
        <ele>1601</ele>
        <time>1990-12-08T11:56:21Z</time>
      </trkpt>
      <trkpt lat="43.88507" lon="6.6369">
        <ele>1603</ele>
        <time>1990-12-08T11:56:50Z</time>
      </trkpt>
      <trkpt lat="43.88478" lon="6.63703">
        <ele>1600</ele>
        <time>1990-12-08T11:57:08Z</time>
      </trkpt>
      <trkpt lat="43.88452" lon="6.63722">
        <ele>1597</ele>
        <time>1990-12-08T11:57:16Z</time>
      </trkpt>
      <trkpt lat="43.88423" lon="6.63735">
        <ele>1594</ele>
        <time>1990-12-08T11:57:22Z</time>
      </trkpt>
      <trkpt lat="43.88378" lon="6.63785">
        <ele>1596</ele>
        <time>1990-12-08T11:57:45Z</time>
      </trkpt>
      <trkpt lat="43.8837" lon="6.63877">
        <ele>1596</ele>
        <time>1990-12-08T11:58:12Z</time>
      </trkpt>
      <trkpt lat="43.8835" lon="6.6396">
        <ele>1599</ele>
        <time>1990-12-08T11:58:38Z</time>
      </trkpt>
      <trkpt lat="43.88345" lon="6.64022">
        <ele>1600</ele>
        <time>1990-12-08T11:59:03Z</time>
      </trkpt>
      <trkpt lat="43.88337" lon="6.6404">
        <ele>1600</ele>
        <time>1990-12-08T11:59:19Z</time>
      </trkpt>
      <trkpt lat="43.88343" lon="6.64062">
        <ele>1598</ele>
        <time>1990-12-08T11:59:41Z</time>
      </trkpt>
      <trkpt lat="43.88358" lon="6.64098">
        <ele>1599</ele>
        <time>1990-12-08T12:00:04Z</time>
      </trkpt>
      <trkpt lat="43.88363" lon="6.64145">
        <ele>1598</ele>
        <time>1990-12-08T12:00:17Z</time>
      </trkpt>
      <trkpt lat="43.8839" lon="6.64182">
        <ele>1595</ele>
        <time>1990-12-08T12:00:33Z</time>
      </trkpt>
      <trkpt lat="43.88403" lon="6.64227">
        <ele>1591</ele>
        <time>1990-12-08T12:00:43Z</time>
      </trkpt>
      <trkpt lat="43.88417" lon="6.64252">
        <ele>1587</ele>
        <time>1990-12-08T12:00:49Z</time>
      </trkpt>
      <trkpt lat="43.88435" lon="6.64287">
        <ele>1582</ele>
        <time>1990-12-08T12:00:59Z</time>
      </trkpt>
      <trkpt lat="43.88443" lon="6.64307">
        <ele>1579</ele>
        <time>1990-12-08T12:01:04Z</time>
      </trkpt>
      <trkpt lat="43.88453" lon="6.64335">
        <ele>1575</ele>
        <time>1990-12-08T12:01:11Z</time>
      </trkpt>
      <trkpt lat="43.88468" lon="6.64358">
        <ele>1572</ele>
        <time>1990-12-08T12:01:30Z</time>
      </trkpt>
      <trkpt lat="43.88523" lon="6.64422">
        <ele>1569</ele>
        <time>1990-12-08T12:01:52Z</time>
      </trkpt>
      <trkpt lat="43.88523" lon="6.64422">
        <ele>1569</ele>
        <time>1990-12-08T12:05:45Z</time>
      </trkpt>
      <trkpt lat="43.88557" lon="6.64463">
        <ele>1567</ele>
        <time>1990-12-08T12:06:08Z</time>
      </trkpt>
      <trkpt lat="43.88607" lon="6.64513">
        <ele>1562</ele>
        <time>1990-12-08T12:06:29Z</time>
      </trkpt>
      <trkpt lat="43.88668" lon="6.64578">
        <ele>1557</ele>
        <time>1990-12-08T12:06:52Z</time>
      </trkpt>
      <trkpt lat="43.88727" lon="6.64647">
        <ele>1559</ele>
        <time>1990-12-08T12:07:14Z</time>
      </trkpt>
      <trkpt lat="43.88748" lon="6.6468">
        <ele>1559</ele>
        <time>1990-12-08T12:07:27Z</time>
      </trkpt>
      <trkpt lat="43.88772" lon="6.64713">
        <ele>1555</ele>
        <time>1990-12-08T12:07:50Z</time>
      </trkpt>
      <trkpt lat="43.88802" lon="6.64758">
        <ele>1550</ele>
        <time>1990-12-08T12:08:14Z</time>
      </trkpt>
      <trkpt lat="43.88828" lon="6.64815">
        <ele>1546</ele>
        <time>1990-12-08T12:08:35Z</time>
      </trkpt>
      <trkpt lat="43.88847" lon="6.64843">
        <ele>1544</ele>
        <time>1990-12-08T12:08:49Z</time>
      </trkpt>
      <trkpt lat="43.88863" lon="6.64865">
        <ele>1542</ele>
        <time>1990-12-08T12:09:55Z</time>
      </trkpt>
      <trkpt lat="43.88872" lon="6.64878">
        <ele>1540</ele>
        <time>1990-12-08T12:10:00Z</time>
      </trkpt>
      <trkpt lat="43.88887" lon="6.64913">
        <ele>1537</ele>
        <time>1990-12-08T12:10:14Z</time>
      </trkpt>
      <trkpt lat="43.88907" lon="6.64963">
        <ele>1532</ele>
        <time>1990-12-08T12:10:32Z</time>
      </trkpt>
      <trkpt lat="43.88923" lon="6.65008">
        <ele>1529</ele>
        <time>1990-12-08T12:10:43Z</time>
      </trkpt>
      <trkpt lat="43.88927" lon="6.65047">
        <ele>1524</ele>
        <time>1990-12-08T12:10:50Z</time>
      </trkpt>
      <trkpt lat="43.88953" lon="6.65105">
        <ele>1518</ele>
        <time>1990-12-08T12:11:09Z</time>
      </trkpt>
      <trkpt lat="43.88972" lon="6.65148">
        <ele>1512</ele>
        <time>1990-12-08T12:11:25Z</time>
      </trkpt>
      <trkpt lat="43.8898" lon="6.65177">
        <ele>1509</ele>
        <time>1990-12-08T12:11:33Z</time>
      </trkpt>
      <trkpt lat="43.88988" lon="6.65205">
        <ele>1504</ele>
        <time>1990-12-08T12:11:41Z</time>
      </trkpt>
      <trkpt lat="43.88993" lon="6.65228">
        <ele>1500</ele>
        <time>1990-12-08T12:11:49Z</time>
      </trkpt>
      <trkpt lat="43.89005" lon="6.65282">
        <ele>1495</ele>
        <time>1990-12-08T12:12:06Z</time>
      </trkpt>
      <trkpt lat="43.89008" lon="6.65302">
        <ele>1492</ele>
        <time>1990-12-08T12:14:02Z</time>
      </trkpt>
      <trkpt lat="43.89018" lon="6.65352">
        <ele>1486</ele>
        <time>1990-12-08T12:14:13Z</time>
      </trkpt>
      <trkpt lat="43.89027" lon="6.65395">
        <ele>1481</ele>
        <time>1990-12-08T12:14:24Z</time>
      </trkpt>
      <trkpt lat="43.8903" lon="6.65425">
        <ele>1476</ele>
        <time>1990-12-08T12:14:33Z</time>
      </trkpt>
      <trkpt lat="43.89038" lon="6.65425">
        <ele>1473</ele>
        <time>1990-12-08T12:18:32Z</time>
      </trkpt>
      <trkpt lat="43.89047" lon="6.65443">
        <ele>1470</ele>
        <time>1990-12-08T12:18:38Z</time>
      </trkpt>
      <trkpt lat="43.89058" lon="6.65435">
        <ele>1468</ele>
        <time>1990-12-08T12:18:45Z</time>
      </trkpt>
      <trkpt lat="43.8908" lon="6.65415">
        <ele>1461</ele>
        <time>1990-12-08T12:18:55Z</time>
      </trkpt>
      <trkpt lat="43.89088" lon="6.6542">
        <ele>1458</ele>
        <time>1990-12-08T12:19:00Z</time>
      </trkpt>
      <trkpt lat="43.89093" lon="6.65458">
        <ele>1451</ele>
        <time>1990-12-08T12:19:14Z</time>
      </trkpt>
      <trkpt lat="43.89093" lon="6.65483">
        <ele>1444</ele>
        <time>1990-12-08T12:19:25Z</time>
      </trkpt>
      <trkpt lat="43.89097" lon="6.65502">
        <ele>1441</ele>
        <time>1990-12-08T12:19:34Z</time>
      </trkpt>
      <trkpt lat="43.89098" lon="6.65517">
        <ele>1437</ele>
        <time>1990-12-08T12:21:22Z</time>
      </trkpt>
      <trkpt lat="43.89105" lon="6.65547">
        <ele>1433</ele>
        <time>1990-12-08T12:21:39Z</time>
      </trkpt>
      <trkpt lat="43.89113" lon="6.65568">
        <ele>1430</ele>
        <time>1990-12-08T12:21:46Z</time>
      </trkpt>
      <trkpt lat="43.89118" lon="6.6558">
        <ele>1426</ele>
        <time>1990-12-08T12:21:55Z</time>
      </trkpt>
      <trkpt lat="43.89137" lon="6.65543">
        <ele>1420</ele>
        <time>1990-12-08T12:22:09Z</time>
      </trkpt>
      <trkpt lat="43.89143" lon="6.65527">
        <ele>1417</ele>
        <time>1990-12-08T12:22:18Z</time>
      </trkpt>
      <trkpt lat="43.89153" lon="6.65505">
        <ele>1413</ele>
        <time>1990-12-08T12:22:35Z</time>
      </trkpt>
      <trkpt lat="43.89165" lon="6.65477">
        <ele>1410</ele>
        <time>1990-12-08T12:22:49Z</time>
      </trkpt>
      <trkpt lat="43.89168" lon="6.65487">
        <ele>1407</ele>
        <time>1990-12-08T12:22:57Z</time>
      </trkpt>
      <trkpt lat="43.89175" lon="6.65507">
        <ele>1401</ele>
        <time>1990-12-08T12:23:05Z</time>
      </trkpt>
      <trkpt lat="43.89175" lon="6.65508">
        <ele>1401</ele>
        <time>1990-12-08T12:23:24Z</time>
      </trkpt>
      <trkpt lat="43.89182" lon="6.6551">
        <ele>1396</ele>
        <time>1990-12-08T12:24:20Z</time>
      </trkpt>
      <trkpt lat="43.89187" lon="6.65507">
        <ele>1394</ele>
        <time>1990-12-08T12:24:25Z</time>
      </trkpt>
      <trkpt lat="43.89197" lon="6.65482">
        <ele>1393</ele>
        <time>1990-12-08T12:24:54Z</time>
      </trkpt>
      <trkpt lat="43.89195" lon="6.6547">
        <ele>1392</ele>
        <time>1990-12-08T12:25:21Z</time>
      </trkpt>
      <trkpt lat="43.892" lon="6.6547">
        <ele>1388</ele>
        <time>1990-12-08T12:26:48Z</time>
      </trkpt>
      <trkpt lat="43.89202" lon="6.65475">
        <ele>1383</ele>
        <time>1990-12-08T12:27:24Z</time>
      </trkpt>
      <trkpt lat="43.89215" lon="6.65485">
        <ele>1379</ele>
        <time>1990-12-08T12:27:52Z</time>
      </trkpt>
      <trkpt lat="43.89218" lon="6.65515">
        <ele>1377</ele>
        <time>1990-12-08T12:28:27Z</time>
      </trkpt>
      <trkpt lat="43.89225" lon="6.65532">
        <ele>1378</ele>
        <time>1990-12-08T12:28:53Z</time>
      </trkpt>
      <trkpt lat="43.89238" lon="6.65555">
        <ele>1379</ele>
        <time>1990-12-08T12:29:33Z</time>
      </trkpt>
      <trkpt lat="43.89245" lon="6.65583">
        <ele>1382</ele>
        <time>1990-12-08T12:29:50Z</time>
      </trkpt>
      <trkpt lat="43.89252" lon="6.65618">
        <ele>1384</ele>
        <time>1990-12-08T12:30:18Z</time>
      </trkpt>
      <trkpt lat="43.89265" lon="6.65632">
        <ele>1386</ele>
        <time>1990-12-08T12:30:33Z</time>
      </trkpt>
      <trkpt lat="43.89273" lon="6.6564">
        <ele>1388</ele>
        <time>1990-12-08T12:30:40Z</time>
      </trkpt>
      <trkpt lat="43.89287" lon="6.65657">
        <ele>1391</ele>
        <time>1990-12-08T12:30:54Z</time>
      </trkpt>
      <trkpt lat="43.89307" lon="6.65692">
        <ele>1391</ele>
        <time>1990-12-08T12:31:12Z</time>
      </trkpt>
      <trkpt lat="43.89327" lon="6.65725">
        <ele>1388</ele>
        <time>1990-12-08T12:31:21Z</time>
      </trkpt>
      <trkpt lat="43.89362" lon="6.65753">
        <ele>1385</ele>
        <time>1990-12-08T12:31:33Z</time>
      </trkpt>
      <trkpt lat="43.89377" lon="6.6576">
        <ele>1385</ele>
        <time>1990-12-08T12:32:17Z</time>
      </trkpt>
      <trkpt lat="43.89408" lon="6.65788">
        <ele>1389</ele>
        <time>1990-12-08T12:33:46Z</time>
      </trkpt>
      <trkpt lat="43.8943" lon="6.65813">
        <ele>1388</ele>
        <time>1990-12-08T12:34:02Z</time>
      </trkpt>
      <trkpt lat="43.89452" lon="6.65832">
        <ele>1388</ele>
        <time>1990-12-08T12:34:16Z</time>
      </trkpt>
      <trkpt lat="43.89502" lon="6.65893">
        <ele>1384</ele>
        <time>1990-12-08T12:34:39Z</time>
      </trkpt>
      <trkpt lat="43.89543" lon="6.65958">
        <ele>1385</ele>
        <time>1990-12-08T12:35:00Z</time>
      </trkpt>
      <trkpt lat="43.8956" lon="6.65982">
        <ele>1385</ele>
        <time>1990-12-08T12:35:13Z</time>
      </trkpt>
      <trkpt lat="43.8957" lon="6.66018">
        <ele>1388</ele>
        <time>1990-12-08T12:35:45Z</time>
      </trkpt>
      <trkpt lat="43.89577" lon="6.66033">
        <ele>1388</ele>
        <time>1990-12-08T12:36:08Z</time>
      </trkpt>
      <trkpt lat="43.89585" lon="6.66053">
        <ele>1389</ele>
        <time>1990-12-08T12:36:20Z</time>
      </trkpt>
      <trkpt lat="43.8959" lon="6.6608">
        <ele>1389</ele>
        <time>1990-12-08T12:36:30Z</time>
      </trkpt>
      <trkpt lat="43.89587" lon="6.66102">
        <ele>1385</ele>
        <time>1990-12-08T12:36:37Z</time>
      </trkpt>
      <trkpt lat="43.89585" lon="6.66117">
        <ele>1383</ele>
        <time>1990-12-08T12:36:53Z</time>
      </trkpt>
      <trkpt lat="43.89593" lon="6.66138">
        <ele>1379</ele>
        <time>1990-12-08T12:37:06Z</time>
      </trkpt>
      <trkpt lat="43.89595" lon="6.66142">
        <ele>1379</ele>
        <time>1990-12-08T12:37:08Z</time>
      </trkpt>
      <trkpt lat="43.89602" lon="6.66158">
        <ele>1376</ele>
        <time>1990-12-08T12:38:16Z</time>
      </trkpt>
      <trkpt lat="43.89613" lon="6.66178">
        <ele>1374</ele>
        <time>1990-12-08T12:38:21Z</time>
      </trkpt>
      <trkpt lat="43.89632" lon="6.66235">
        <ele>1368</ele>
        <time>1990-12-08T12:38:28Z</time>
      </trkpt>
      <trkpt lat="43.89642" lon="6.66275">
        <ele>1363</ele>
        <time>1990-12-08T12:38:33Z</time>
      </trkpt>
      <trkpt lat="43.89663" lon="6.66333">
        <ele>1356</ele>
        <time>1990-12-08T12:38:43Z</time>
      </trkpt>
      <trkpt lat="43.89683" lon="6.66382">
        <ele>1349</ele>
        <time>1990-12-08T12:38:51Z</time>
      </trkpt>
      <trkpt lat="43.897" lon="6.6642">
        <ele>1345</ele>
        <time>1990-12-08T12:38:57Z</time>
      </trkpt>
      <trkpt lat="43.89715" lon="6.66463">
        <ele>1339</ele>
        <time>1990-12-08T12:39:03Z</time>
      </trkpt>
      <trkpt lat="43.89735" lon="6.66522">
        <ele>1332</ele>
        <time>1990-12-08T12:39:10Z</time>
      </trkpt>
      <trkpt lat="43.89753" lon="6.66597">
        <ele>1324</ele>
        <time>1990-12-08T12:39:18Z</time>
      </trkpt>
      <trkpt lat="43.89778" lon="6.66662">
        <ele>1317</ele>
        <time>1990-12-08T12:39:26Z</time>
      </trkpt>
      <trkpt lat="43.89802" lon="6.66725">
        <ele>1313</ele>
        <time>1990-12-08T12:39:33Z</time>
      </trkpt>
      <trkpt lat="43.8983" lon="6.66822">
        <ele>1305</ele>
        <time>1990-12-08T12:39:43Z</time>
      </trkpt>
      <trkpt lat="43.89838" lon="6.66867">
        <ele>1299</ele>
        <time>1990-12-08T12:39:48Z</time>
      </trkpt>
      <trkpt lat="43.89848" lon="6.66932">
        <ele>1291</ele>
        <time>1990-12-08T12:39:54Z</time>
      </trkpt>
      <trkpt lat="43.89862" lon="6.67">
        <ele>1284</ele>
        <time>1990-12-08T12:40:02Z</time>
      </trkpt>
      <trkpt lat="43.8987" lon="6.67043">
        <ele>1277</ele>
        <time>1990-12-08T12:40:11Z</time>
      </trkpt>
      <trkpt lat="43.89882" lon="6.67057">
        <ele>1272</ele>
        <time>1990-12-08T12:40:25Z</time>
      </trkpt>
      <trkpt lat="43.89945" lon="6.67093">
        <ele>1268</ele>
        <time>1990-12-08T12:40:36Z</time>
      </trkpt>
      <trkpt lat="43.89968" lon="6.67105">
        <ele>1265</ele>
        <time>1990-12-08T12:40:43Z</time>
      </trkpt>
      <trkpt lat="43.90008" lon="6.67123">
        <ele>1262</ele>
        <time>1990-12-08T12:41:58Z</time>
      </trkpt>
      <trkpt lat="43.90022" lon="6.6712">
        <ele>1263</ele>
        <time>1990-12-08T12:42:15Z</time>
      </trkpt>
      <trkpt lat="43.90013" lon="6.6712">
        <ele>1261</ele>
        <time>1990-12-08T12:45:30Z</time>
      </trkpt>
      <trkpt lat="43.89962" lon="6.67095">
        <ele>1265</ele>
        <time>1990-12-08T12:45:53Z</time>
      </trkpt>
      <trkpt lat="43.89922" lon="6.67092">
        <ele>1265</ele>
        <time>1990-12-08T12:46:19Z</time>
      </trkpt>
      <trkpt lat="43.8992" lon="6.67092">
        <ele>1265</ele>
        <time>1990-12-08T12:48:02Z</time>
      </trkpt>
      <trkpt lat="43.89877" lon="6.67083">
        <ele>1259</ele>
        <time>1990-12-08T12:48:12Z</time>
      </trkpt>
      <trkpt lat="43.898" lon="6.6702">
        <ele>1257</ele>
        <time>1990-12-08T12:48:25Z</time>
      </trkpt>
      <trkpt lat="43.89763" lon="6.66955">
        <ele>1253</ele>
        <time>1990-12-08T12:48:36Z</time>
      </trkpt>
      <trkpt lat="43.89697" lon="6.66878">
        <ele>1253</ele>
        <time>1990-12-08T12:48:55Z</time>
      </trkpt>
      <trkpt lat="43.89642" lon="6.6678">
        <ele>1247</ele>
        <time>1990-12-08T12:49:15Z</time>
      </trkpt>
      <trkpt lat="43.89647" lon="6.66837">
        <ele>1242</ele>
        <time>1990-12-08T12:49:26Z</time>
      </trkpt>
      <trkpt lat="43.89687" lon="6.66942">
        <ele>1234</ele>
        <time>1990-12-08T12:49:39Z</time>
      </trkpt>
      <trkpt lat="43.8971" lon="6.66995">
        <ele>1228</ele>
        <time>1990-12-08T12:49:47Z</time>
      </trkpt>
      <trkpt lat="43.8972" lon="6.67035">
        <ele>1222</ele>
        <time>1990-12-08T12:49:53Z</time>
      </trkpt>
      <trkpt lat="43.89725" lon="6.67072">
        <ele>1217</ele>
        <time>1990-12-08T12:49:59Z</time>
      </trkpt>
      <trkpt lat="43.89697" lon="6.67063">
        <ele>1210</ele>
        <time>1990-12-08T12:50:12Z</time>
      </trkpt>
      <trkpt lat="43.89693" lon="6.6709">
        <ele>1207</ele>
        <time>1990-12-08T12:50:15Z</time>
      </trkpt>
      <trkpt lat="43.8969" lon="6.6715">
        <ele>1207</ele>
        <time>1990-12-08T12:50:21Z</time>
      </trkpt>
      <trkpt lat="43.89697" lon="6.672">
        <ele>1208</ele>
        <time>1990-12-08T12:50:30Z</time>
      </trkpt>
      <trkpt lat="43.89742" lon="6.67253">
        <ele>1213</ele>
        <time>1990-12-08T12:50:53Z</time>
      </trkpt>
      <trkpt lat="43.89735" lon="6.67268">
        <ele>1215</ele>
        <time>1990-12-08T12:51:03Z</time>
      </trkpt>
      <trkpt lat="43.89712" lon="6.67257">
        <ele>1221</ele>
        <time>1990-12-08T12:51:20Z</time>
      </trkpt>
      <trkpt lat="43.89673" lon="6.67247">
        <ele>1227</ele>
        <time>1990-12-08T12:51:44Z</time>
      </trkpt>
      <trkpt lat="43.89633" lon="6.6726">
        <ele>1232</ele>
        <time>1990-12-08T12:52:09Z</time>
      </trkpt>
      <trkpt lat="43.89598" lon="6.67278">
        <ele>1237</ele>
        <time>1990-12-08T12:52:32Z</time>
      </trkpt>
      <trkpt lat="43.89558" lon="6.67285">
        <ele>1243</ele>
        <time>1990-12-08T12:52:56Z</time>
      </trkpt>
      <trkpt lat="43.89527" lon="6.6729">
        <ele>1248</ele>
        <time>1990-12-08T12:53:11Z</time>
      </trkpt>
      <trkpt lat="43.89513" lon="6.67315">
        <ele>1253</ele>
        <time>1990-12-08T12:53:23Z</time>
      </trkpt>
      <trkpt lat="43.89548" lon="6.6732">
        <ele>1259</ele>
        <time>1990-12-08T12:53:44Z</time>
      </trkpt>
      <trkpt lat="43.89512" lon="6.6736">
        <ele>1262</ele>
        <time>1990-12-08T12:54:06Z</time>
      </trkpt>
      <trkpt lat="43.8946" lon="6.67403">
        <ele>1266</ele>
        <time>1990-12-08T12:54:30Z</time>
      </trkpt>
      <trkpt lat="43.89425" lon="6.6744">
        <ele>1270</ele>
        <time>1990-12-08T12:54:52Z</time>
      </trkpt>
      <trkpt lat="43.89422" lon="6.67465">
        <ele>1269</ele>
        <time>1990-12-08T12:54:59Z</time>
      </trkpt>
      <trkpt lat="43.89432" lon="6.6755">
        <ele>1261</ele>
        <time>1990-12-08T12:55:08Z</time>
      </trkpt>
      <trkpt lat="43.8944" lon="6.67628">
        <ele>1257</ele>
        <time>1990-12-08T12:55:15Z</time>
      </trkpt>
      <trkpt lat="43.89443" lon="6.67673">
        <ele>1253</ele>
        <time>1990-12-08T12:55:24Z</time>
      </trkpt>
      <trkpt lat="43.89437" lon="6.67707">
        <ele>1251</ele>
        <time>1990-12-08T12:58:24Z</time>
      </trkpt>
      <trkpt lat="43.89427" lon="6.67738">
        <ele>1251</ele>
        <time>1990-12-08T12:58:30Z</time>
      </trkpt>
      <trkpt lat="43.89418" lon="6.67793">
        <ele>1250</ele>
        <time>1990-12-08T12:58:39Z</time>
      </trkpt>
      <trkpt lat="43.89417" lon="6.67858">
        <ele>1248</ele>
        <time>1990-12-08T12:58:48Z</time>
      </trkpt>
      <trkpt lat="43.89408" lon="6.67907">
        <ele>1247</ele>
        <time>1990-12-08T12:58:56Z</time>
      </trkpt>
      <trkpt lat="43.89382" lon="6.67965">
        <ele>1247</ele>
        <time>1990-12-08T12:59:22Z</time>
      </trkpt>
      <trkpt lat="43.8937" lon="6.67998">
        <ele>1246</ele>
        <time>1990-12-08T12:59:54Z</time>
      </trkpt>
      <trkpt lat="43.89347" lon="6.68065">
        <ele>1246</ele>
        <time>1990-12-08T13:00:11Z</time>
      </trkpt>
      <trkpt lat="43.89308" lon="6.68077">
        <ele>1246</ele>
        <time>1990-12-08T13:00:29Z</time>
      </trkpt>
      <trkpt lat="43.89282" lon="6.68077">
        <ele>1249</ele>
        <time>1990-12-08T13:00:46Z</time>
      </trkpt>
      <trkpt lat="43.89262" lon="6.68133">
        <ele>1249</ele>
        <time>1990-12-08T13:01:06Z</time>
      </trkpt>
      <trkpt lat="43.89257" lon="6.68178">
        <ele>1252</ele>
        <time>1990-12-08T13:01:24Z</time>
      </trkpt>
      <trkpt lat="43.89258" lon="6.68203">
        <ele>1255</ele>
        <time>1990-12-08T13:01:38Z</time>
      </trkpt>
      <trkpt lat="43.89255" lon="6.68227">
        <ele>1259</ele>
        <time>1990-12-08T13:01:51Z</time>
      </trkpt>
      <trkpt lat="43.89262" lon="6.68258">
        <ele>1262</ele>
        <time>1990-12-08T13:02:00Z</time>
      </trkpt>
      <trkpt lat="43.89262" lon="6.68273">
        <ele>1264</ele>
        <time>1990-12-08T13:02:05Z</time>
      </trkpt>
      <trkpt lat="43.89273" lon="6.68335">
        <ele>1267</ele>
        <time>1990-12-08T13:02:25Z</time>
      </trkpt>
      <trkpt lat="43.8928" lon="6.68395">
        <ele>1269</ele>
        <time>1990-12-08T13:02:44Z</time>
      </trkpt>
      <trkpt lat="43.89277" lon="6.68432">
        <ele>1271</ele>
        <time>1990-12-08T13:02:55Z</time>
      </trkpt>
      <trkpt lat="43.89257" lon="6.68472">
        <ele>1274</ele>
        <time>1990-12-08T13:03:11Z</time>
      </trkpt>
      <trkpt lat="43.89225" lon="6.68508">
        <ele>1277</ele>
        <time>1990-12-08T13:03:34Z</time>
      </trkpt>
      <trkpt lat="43.89188" lon="6.68575">
        <ele>1278</ele>
        <time>1990-12-08T13:03:57Z</time>
      </trkpt>
      <trkpt lat="43.89137" lon="6.68573">
        <ele>1284</ele>
        <time>1990-12-08T13:04:23Z</time>
      </trkpt>
      <trkpt lat="43.8908" lon="6.68568">
        <ele>1288</ele>
        <time>1990-12-08T13:04:48Z</time>
      </trkpt>
      <trkpt lat="43.8903" lon="6.68575">
        <ele>1291</ele>
        <time>1990-12-08T13:05:15Z</time>
      </trkpt>
      <trkpt lat="43.88992" lon="6.68568">
        <ele>1288</ele>
        <time>1990-12-08T13:05:29Z</time>
      </trkpt>
      <trkpt lat="43.88963" lon="6.68555">
        <ele>1288</ele>
        <time>1990-12-08T13:05:39Z</time>
      </trkpt>
      <trkpt lat="43.88942" lon="6.6856">
        <ele>1288</ele>
        <time>1990-12-08T13:06:32Z</time>
      </trkpt>
      <trkpt lat="43.88893" lon="6.68597">
        <ele>1292</ele>
        <time>1990-12-08T13:07:19Z</time>
      </trkpt>
      <trkpt lat="43.88857" lon="6.68615">
        <ele>1293</ele>
        <time>1990-12-08T13:07:41Z</time>
      </trkpt>
      <trkpt lat="43.88843" lon="6.68637">
        <ele>1293</ele>
        <time>1990-12-08T13:08:10Z</time>
      </trkpt>
      <trkpt lat="43.88808" lon="6.68657">
        <ele>1293</ele>
        <time>1990-12-08T13:08:25Z</time>
      </trkpt>
      <trkpt lat="43.8877" lon="6.68693">
        <ele>1291</ele>
        <time>1990-12-08T13:08:41Z</time>
      </trkpt>
      <trkpt lat="43.88703" lon="6.68695">
        <ele>1289</ele>
        <time>1990-12-08T13:08:58Z</time>
      </trkpt>
      <trkpt lat="43.88622" lon="6.68703">
        <ele>1292</ele>
        <time>1990-12-08T13:09:16Z</time>
      </trkpt>
      <trkpt lat="43.88578" lon="6.68708">
        <ele>1298</ele>
        <time>1990-12-08T13:09:30Z</time>
      </trkpt>
      <trkpt lat="43.88563" lon="6.68718">
        <ele>1302</ele>
        <time>1990-12-08T13:09:42Z</time>
      </trkpt>
      <trkpt lat="43.88542" lon="6.68713">
        <ele>1306</ele>
        <time>1990-12-08T13:09:58Z</time>
      </trkpt>
      <trkpt lat="43.8853" lon="6.68702">
        <ele>1301</ele>
        <time>1990-12-08T13:13:49Z</time>
      </trkpt>
      <trkpt lat="43.88502" lon="6.68682">
        <ele>1294</ele>
        <time>1990-12-08T13:13:58Z</time>
      </trkpt>
      <trkpt lat="43.88493" lon="6.68663">
        <ele>1291</ele>
        <time>1990-12-08T13:14:02Z</time>
      </trkpt>
      <trkpt lat="43.88493" lon="6.6863">
        <ele>1285</ele>
        <time>1990-12-08T13:14:09Z</time>
      </trkpt>
      <trkpt lat="43.88485" lon="6.68615">
        <ele>1282</ele>
        <time>1990-12-08T13:14:15Z</time>
      </trkpt>
      <trkpt lat="43.88473" lon="6.68613">
        <ele>1278</ele>
        <time>1990-12-08T13:14:21Z</time>
      </trkpt>
      <trkpt lat="43.8847" lon="6.6861">
        <ele>1276</ele>
        <time>1990-12-08T13:15:03Z</time>
      </trkpt>
      <trkpt lat="43.88458" lon="6.68597">
        <ele>1271</ele>
        <time>1990-12-08T13:15:16Z</time>
      </trkpt>
      <trkpt lat="43.88435" lon="6.68588">
        <ele>1265</ele>
        <time>1990-12-08T13:15:26Z</time>
      </trkpt>
      <trkpt lat="43.88422" lon="6.68587">
        <ele>1261</ele>
        <time>1990-12-08T13:15:59Z</time>
      </trkpt>
      <trkpt lat="43.88423" lon="6.68575">
        <ele>1259</ele>
        <time>1990-12-08T13:16:10Z</time>
      </trkpt>
      <trkpt lat="43.88403" lon="6.68582">
        <ele>1255</ele>
        <time>1990-12-08T13:16:21Z</time>
      </trkpt>
      <trkpt lat="43.8839" lon="6.6858">
        <ele>1251</ele>
        <time>1990-12-08T13:16:27Z</time>
      </trkpt>
      <trkpt lat="43.88372" lon="6.68575">
        <ele>1246</ele>
        <time>1990-12-08T13:16:36Z</time>
      </trkpt>
      <trkpt lat="43.8835" lon="6.68573">
        <ele>1241</ele>
        <time>1990-12-08T13:16:46Z</time>
      </trkpt>
      <trkpt lat="43.88328" lon="6.68577">
        <ele>1237</ele>
        <time>1990-12-08T13:16:54Z</time>
      </trkpt>
      <trkpt lat="43.88305" lon="6.68577">
        <ele>1230</ele>
        <time>1990-12-08T13:17:04Z</time>
      </trkpt>
      <trkpt lat="43.88298" lon="6.6858">
        <ele>1228</ele>
        <time>1990-12-08T13:17:07Z</time>
      </trkpt>
      <trkpt lat="43.88288" lon="6.6858">
        <ele>1226</ele>
        <time>1990-12-08T13:17:12Z</time>
      </trkpt>
      <trkpt lat="43.88287" lon="6.68587">
        <ele>1224</ele>
        <time>1990-12-08T13:17:23Z</time>
      </trkpt>
      <trkpt lat="43.88275" lon="6.6861">
        <ele>1223</ele>
        <time>1990-12-08T13:17:36Z</time>
      </trkpt>
      <trkpt lat="43.88262" lon="6.68638">
        <ele>1222</ele>
        <time>1990-12-08T13:19:57Z</time>
      </trkpt>
      <trkpt lat="43.88245" lon="6.68678">
        <ele>1218</ele>
        <time>1990-12-08T13:20:06Z</time>
      </trkpt>
      <trkpt lat="43.88243" lon="6.68765">
        <ele>1219</ele>
        <time>1990-12-08T13:20:23Z</time>
      </trkpt>
      <trkpt lat="43.88218" lon="6.6879">
        <ele>1214</ele>
        <time>1990-12-08T13:20:32Z</time>
      </trkpt>
      <trkpt lat="43.88188" lon="6.68837">
        <ele>1208</ele>
        <time>1990-12-08T13:20:42Z</time>
      </trkpt>
      <trkpt lat="43.88163" lon="6.6884">
        <ele>1204</ele>
        <time>1990-12-08T13:20:48Z</time>
      </trkpt>
      <trkpt lat="43.88122" lon="6.68845">
        <ele>1197</ele>
        <time>1990-12-08T13:21:01Z</time>
      </trkpt>
      <trkpt lat="43.88093" lon="6.68863">
        <ele>1192</ele>
        <time>1990-12-08T13:21:21Z</time>
      </trkpt>
      <trkpt lat="43.88113" lon="6.6891">
        <ele>1189</ele>
        <time>1990-12-08T13:21:34Z</time>
      </trkpt>
      <trkpt lat="43.88117" lon="6.68978">
        <ele>1188</ele>
        <time>1990-12-08T13:21:47Z</time>
      </trkpt>
      <trkpt lat="43.88092" lon="6.6902">
        <ele>1188</ele>
        <time>1990-12-08T13:22:00Z</time>
      </trkpt>
      <trkpt lat="43.8807" lon="6.69055">
        <ele>1185</ele>
        <time>1990-12-08T13:22:07Z</time>
      </trkpt>
      <trkpt lat="43.88035" lon="6.69078">
        <ele>1182</ele>
        <time>1990-12-08T14:17:46Z</time>
      </trkpt>
      <trkpt lat="43.87998" lon="6.6908">
        <ele>1176</ele>
        <time>1990-12-08T14:18:19Z</time>
      </trkpt>
      <trkpt lat="43.87972" lon="6.6908">
        <ele>1169</ele>
        <time>1990-12-08T14:18:27Z</time>
      </trkpt>
      <trkpt lat="43.87955" lon="6.69102">
        <ele>1165</ele>
        <time>1990-12-08T14:18:34Z</time>
      </trkpt>
      <trkpt lat="43.87952" lon="6.69135">
        <ele>1159</ele>
        <time>1990-12-08T14:18:43Z</time>
      </trkpt>
      <trkpt lat="43.87948" lon="6.69145">
        <ele>1158</ele>
        <time>1990-12-08T14:18:46Z</time>
      </trkpt>
      <trkpt lat="43.8793" lon="6.69168">
        <ele>1154</ele>
        <time>1990-12-08T14:18:54Z</time>
      </trkpt>
      <trkpt lat="43.87927" lon="6.69215">
        <ele>1151</ele>
        <time>1990-12-08T14:19:15Z</time>
      </trkpt>
      <trkpt lat="43.87917" lon="6.69238">
        <ele>1153</ele>
        <time>1990-12-08T14:19:52Z</time>
      </trkpt>
      <trkpt lat="43.8792" lon="6.69272">
        <ele>1147</ele>
        <time>1990-12-08T14:20:13Z</time>
      </trkpt>
      <trkpt lat="43.87915" lon="6.69293">
        <ele>1146</ele>
        <time>1990-12-08T14:20:22Z</time>
      </trkpt>
      <trkpt lat="43.87892" lon="6.69303">
        <ele>1143</ele>
        <time>1990-12-08T14:20:27Z</time>
      </trkpt>
      <trkpt lat="43.87858" lon="6.69322">
        <ele>1140</ele>
        <time>1990-12-08T14:20:37Z</time>
      </trkpt>
      <trkpt lat="43.8785" lon="6.69343">
        <ele>1134</ele>
        <time>1990-12-08T14:20:45Z</time>
      </trkpt>
      <trkpt lat="43.87848" lon="6.6935">
        <ele>1134</ele>
        <time>1990-12-08T14:20:49Z</time>
      </trkpt>
      <trkpt lat="43.87807" lon="6.69375">
        <ele>1130</ele>
        <time>1990-12-08T14:21:11Z</time>
      </trkpt>
      <trkpt lat="43.87792" lon="6.69407">
        <ele>1126</ele>
        <time>1990-12-08T14:21:23Z</time>
      </trkpt>
      <trkpt lat="43.8778" lon="6.69413">
        <ele>1122</ele>
        <time>1990-12-08T14:21:31Z</time>
      </trkpt>
      <trkpt lat="43.87768" lon="6.69435">
        <ele>1121</ele>
        <time>1990-12-08T14:21:48Z</time>
      </trkpt>
      <trkpt lat="43.87757" lon="6.69473">
        <ele>1117</ele>
        <time>1990-12-08T14:22:18Z</time>
      </trkpt>
      <trkpt lat="43.87735" lon="6.695">
        <ele>1111</ele>
        <time>1990-12-08T14:22:32Z</time>
      </trkpt>
      <trkpt lat="43.87715" lon="6.69518">
        <ele>1107</ele>
        <time>1990-12-08T14:22:45Z</time>
      </trkpt>
      <trkpt lat="43.8769" lon="6.69532">
        <ele>1101</ele>
        <time>1990-12-08T14:23:27Z</time>
      </trkpt>
      <trkpt lat="43.87667" lon="6.69542">
        <ele>1098</ele>
        <time>1990-12-08T14:23:37Z</time>
      </trkpt>
      <trkpt lat="43.87655" lon="6.69557">
        <ele>1094</ele>
        <time>1990-12-08T14:24:12Z</time>
      </trkpt>
      <trkpt lat="43.87652" lon="6.69557">
        <ele>1093</ele>
        <time>1990-12-08T14:24:15Z</time>
      </trkpt>
      <trkpt lat="43.8765" lon="6.69543">
        <ele>1090</ele>
        <time>1990-12-08T14:24:24Z</time>
      </trkpt>
      <trkpt lat="43.8764" lon="6.6955">
        <ele>1086</ele>
        <time>1990-12-08T14:24:31Z</time>
      </trkpt>
      <trkpt lat="43.87615" lon="6.6957">
        <ele>1080</ele>
        <time>1990-12-08T14:24:47Z</time>
      </trkpt>
      <trkpt lat="43.87612" lon="6.69553">
        <ele>1078</ele>
        <time>1990-12-08T14:25:04Z</time>
      </trkpt>
      <trkpt lat="43.87597" lon="6.69567">
        <ele>1073</ele>
        <time>1990-12-08T14:25:17Z</time>
      </trkpt>
      <trkpt lat="43.87575" lon="6.69593">
        <ele>1067</ele>
        <time>1990-12-08T14:27:43Z</time>
      </trkpt>
      <trkpt lat="43.87545" lon="6.6958">
        <ele>1069</ele>
        <time>1990-12-08T14:28:30Z</time>
      </trkpt>
      <trkpt lat="43.87525" lon="6.69583">
        <ele>1073</ele>
        <time>1990-12-08T14:29:15Z</time>
      </trkpt>
      <trkpt lat="43.87493" lon="6.69592">
        <ele>1079</ele>
        <time>1990-12-08T14:29:38Z</time>
      </trkpt>
      <trkpt lat="43.87472" lon="6.6962">
        <ele>1085</ele>
        <time>1990-12-08T14:30:14Z</time>
      </trkpt>
      <trkpt lat="43.87455" lon="6.69622">
        <ele>1088</ele>
        <time>1990-12-08T14:30:50Z</time>
      </trkpt>
      <trkpt lat="43.8742" lon="6.69642">
        <ele>1082</ele>
        <time>1990-12-08T14:31:11Z</time>
      </trkpt>
      <trkpt lat="43.874" lon="6.69642">
        <ele>1078</ele>
        <time>1990-12-08T14:31:19Z</time>
      </trkpt>
      <trkpt lat="43.87373" lon="6.69642">
        <ele>1080</ele>
        <time>1990-12-08T14:31:28Z</time>
      </trkpt>
      <trkpt lat="43.87353" lon="6.69635">
        <ele>1085</ele>
        <time>1990-12-08T14:31:45Z</time>
      </trkpt>
      <trkpt lat="43.87292" lon="6.69617">
        <ele>1088</ele>
        <time>1990-12-08T14:32:19Z</time>
      </trkpt>
      <trkpt lat="43.87258" lon="6.69618">
        <ele>1090</ele>
        <time>1990-12-08T14:32:32Z</time>
      </trkpt>
      <trkpt lat="43.87213" lon="6.69612">
        <ele>1089</ele>
        <time>1990-12-08T14:32:56Z</time>
      </trkpt>
      <trkpt lat="43.87168" lon="6.69608">
        <ele>1092</ele>
        <time>1990-12-08T14:33:48Z</time>
      </trkpt>
      <trkpt lat="43.87143" lon="6.69623">
        <ele>1097</ele>
        <time>1990-12-08T14:34:08Z</time>
      </trkpt>
      <trkpt lat="43.87122" lon="6.69613">
        <ele>1102</ele>
        <time>1990-12-08T14:34:39Z</time>
      </trkpt>
      <trkpt lat="43.87122" lon="6.6959">
        <ele>1107</ele>
        <time>1990-12-08T14:35:11Z</time>
      </trkpt>
      <trkpt lat="43.8711" lon="6.69572">
        <ele>1110</ele>
        <time>1990-12-08T14:35:53Z</time>
      </trkpt>
      <trkpt lat="43.87092" lon="6.69562">
        <ele>1109</ele>
        <time>1990-12-08T14:37:50Z</time>
      </trkpt>
      <trkpt lat="43.87052" lon="6.69553">
        <ele>1115</ele>
        <time>1990-12-08T14:38:16Z</time>
      </trkpt>
      <trkpt lat="43.8704" lon="6.69555">
        <ele>1119</ele>
        <time>1990-12-08T14:38:49Z</time>
      </trkpt>
      <trkpt lat="43.8702" lon="6.69543">
        <ele>1122</ele>
        <time>1990-12-08T14:39:25Z</time>
      </trkpt>
      <trkpt lat="43.87015" lon="6.69527">
        <ele>1123</ele>
        <time>1990-12-08T14:39:52Z</time>
      </trkpt>
      <trkpt lat="43.86998" lon="6.6949">
        <ele>1126</ele>
        <time>1990-12-08T14:40:20Z</time>
      </trkpt>
      <trkpt lat="43.8698" lon="6.69477">
        <ele>1129</ele>
        <time>1990-12-08T14:40:58Z</time>
      </trkpt>
      <trkpt lat="43.86965" lon="6.69477">
        <ele>1130</ele>
        <time>1990-12-08T14:41:15Z</time>
      </trkpt>
      <trkpt lat="43.86933" lon="6.69445">
        <ele>1136</ele>
        <time>1990-12-08T14:41:56Z</time>
      </trkpt>
      <trkpt lat="43.86907" lon="6.69428">
        <ele>1141</ele>
        <time>1990-12-08T14:42:40Z</time>
      </trkpt>
      <trkpt lat="43.86887" lon="6.69403">
        <ele>1145</ele>
        <time>1990-12-08T14:43:13Z</time>
      </trkpt>
      <trkpt lat="43.8687" lon="6.69395">
        <ele>1147</ele>
        <time>1990-12-08T14:44:24Z</time>
      </trkpt>
      <trkpt lat="43.86842" lon="6.69378">
        <ele>1146</ele>
        <time>1990-12-08T14:44:44Z</time>
      </trkpt>
      <trkpt lat="43.86813" lon="6.6936">
        <ele>1143</ele>
        <time>1990-12-08T14:44:58Z</time>
      </trkpt>
      <trkpt lat="43.868" lon="6.69347">
        <ele>1141</ele>
        <time>1990-12-08T14:45:04Z</time>
      </trkpt>
      <trkpt lat="43.8679" lon="6.69322">
        <ele>1138</ele>
        <time>1990-12-08T14:45:12Z</time>
      </trkpt>
      <trkpt lat="43.86763" lon="6.69252">
        <ele>1134</ele>
        <time>1990-12-08T14:45:28Z</time>
      </trkpt>
      <trkpt lat="43.86738" lon="6.69225">
        <ele>1137</ele>
        <time>1990-12-08T14:45:43Z</time>
      </trkpt>
      <trkpt lat="43.86708" lon="6.69192">
        <ele>1141</ele>
        <time>1990-12-08T14:46:20Z</time>
      </trkpt>
      <trkpt lat="43.8669" lon="6.6917">
        <ele>1147</ele>
        <time>1990-12-08T14:47:06Z</time>
      </trkpt>
      <trkpt lat="43.86673" lon="6.69165">
        <ele>1149</ele>
        <time>1990-12-08T14:47:34Z</time>
      </trkpt>
      <trkpt lat="43.8668" lon="6.6917">
        <ele>1148</ele>
        <time>1990-12-08T14:49:44Z</time>
      </trkpt>
      <trkpt lat="43.86643" lon="6.69183">
        <ele>1152</ele>
        <time>1990-12-08T14:50:04Z</time>
      </trkpt>
      <trkpt lat="43.86585" lon="6.69232">
        <ele>1152</ele>
        <time>1990-12-08T14:50:27Z</time>
      </trkpt>
      <trkpt lat="43.86538" lon="6.69207">
        <ele>1151</ele>
        <time>1990-12-08T14:50:42Z</time>
      </trkpt>
      <trkpt lat="43.865" lon="6.69165">
        <ele>1144</ele>
        <time>1990-12-08T14:50:54Z</time>
      </trkpt>
      <trkpt lat="43.86477" lon="6.69167">
        <ele>1138</ele>
        <time>1990-12-08T14:51:00Z</time>
      </trkpt>
      <trkpt lat="43.86448" lon="6.6917">
        <ele>1131</ele>
        <time>1990-12-08T14:51:07Z</time>
      </trkpt>
      <trkpt lat="43.86427" lon="6.69152">
        <ele>1123</ele>
        <time>1990-12-08T14:51:15Z</time>
      </trkpt>
      <trkpt lat="43.8641" lon="6.69137">
        <ele>1117</ele>
        <time>1990-12-08T14:51:22Z</time>
      </trkpt>
      <trkpt lat="43.86402" lon="6.69128">
        <ele>1114</ele>
        <time>1990-12-08T14:51:37Z</time>
      </trkpt>
      <trkpt lat="43.86385" lon="6.69103">
        <ele>1113</ele>
        <time>1990-12-08T14:54:24Z</time>
      </trkpt>
      <trkpt lat="43.86352" lon="6.69078">
        <ele>1106</ele>
        <time>1990-12-08T14:54:39Z</time>
      </trkpt>
      <trkpt lat="43.8633" lon="6.69048">
        <ele>1102</ele>
        <time>1990-12-08T14:55:06Z</time>
      </trkpt>
      <trkpt lat="43.86315" lon="6.69025">
        <ele>1099</ele>
        <time>1990-12-08T14:55:24Z</time>
      </trkpt>
      <trkpt lat="43.86303" lon="6.69022">
        <ele>1094</ele>
        <time>1990-12-08T14:55:32Z</time>
      </trkpt>
      <trkpt lat="43.86288" lon="6.69015">
        <ele>1089</ele>
        <time>1990-12-08T14:55:41Z</time>
      </trkpt>
      <trkpt lat="43.86278" lon="6.69015">
        <ele>1085</ele>
        <time>1990-12-08T14:55:47Z</time>
      </trkpt>
      <trkpt lat="43.86262" lon="6.69002">
        <ele>1081</ele>
        <time>1990-12-08T14:56:00Z</time>
      </trkpt>
      <trkpt lat="43.86245" lon="6.68977">
        <ele>1077</ele>
        <time>1990-12-08T14:56:11Z</time>
      </trkpt>
      <trkpt lat="43.86225" lon="6.68953">
        <ele>1076</ele>
        <time>1990-12-08T14:57:33Z</time>
      </trkpt>
      <trkpt lat="43.86208" lon="6.6894">
        <ele>1074</ele>
        <time>1990-12-08T14:57:39Z</time>
      </trkpt>
      <trkpt lat="43.8617" lon="6.68893">
        <ele>1072</ele>
        <time>1990-12-08T14:57:59Z</time>
      </trkpt>
      <trkpt lat="43.86165" lon="6.6893">
        <ele>1068</ele>
        <time>1990-12-08T14:58:13Z</time>
      </trkpt>
      <trkpt lat="43.8616" lon="6.68942">
        <ele>1067</ele>
        <time>1990-12-08T14:58:16Z</time>
      </trkpt>
      <trkpt lat="43.86168" lon="6.6897">
        <ele>1063</ele>
        <time>1990-12-08T14:58:34Z</time>
      </trkpt>
      <trkpt lat="43.8618" lon="6.68985">
        <ele>1061</ele>
        <time>1990-12-08T14:59:19Z</time>
      </trkpt>
      <trkpt lat="43.86172" lon="6.69088">
        <ele>1064</ele>
        <time>1990-12-08T14:59:43Z</time>
      </trkpt>
      <trkpt lat="43.86182" lon="6.6914">
        <ele>1065</ele>
        <time>1990-12-08T14:59:57Z</time>
      </trkpt>
      <trkpt lat="43.86182" lon="6.69182">
        <ele>1064</ele>
        <time>1990-12-08T15:00:12Z</time>
      </trkpt>
      <trkpt lat="43.86165" lon="6.69195">
        <ele>1066</ele>
        <time>1990-12-08T15:01:01Z</time>
      </trkpt>
      <trkpt lat="43.86147" lon="6.6921">
        <ele>1067</ele>
        <time>1990-12-08T15:01:12Z</time>
      </trkpt>
      <trkpt lat="43.86128" lon="6.69255">
        <ele>1068</ele>
        <time>1990-12-08T15:01:30Z</time>
      </trkpt>
      <trkpt lat="43.86145" lon="6.69355">
        <ele>1070</ele>
        <time>1990-12-08T15:01:54Z</time>
      </trkpt>
      <trkpt lat="43.8616" lon="6.69387">
        <ele>1068</ele>
        <time>1990-12-08T15:02:02Z</time>
      </trkpt>
      <trkpt lat="43.86162" lon="6.69442">
        <ele>1064</ele>
        <time>1990-12-08T15:02:12Z</time>
      </trkpt>
      <trkpt lat="43.86158" lon="6.69482">
        <ele>1060</ele>
        <time>1990-12-08T15:02:25Z</time>
      </trkpt>
      <trkpt lat="43.86177" lon="6.69503">
        <ele>1056</ele>
        <time>1990-12-08T15:02:38Z</time>
      </trkpt>
      <trkpt lat="43.862" lon="6.69543">
        <ele>1053</ele>
        <time>1990-12-08T15:02:48Z</time>
      </trkpt>
      <trkpt lat="43.86203" lon="6.69593">
        <ele>1047</ele>
        <time>1990-12-08T15:03:01Z</time>
      </trkpt>
      <trkpt lat="43.86192" lon="6.69617">
        <ele>1045</ele>
        <time>1990-12-08T15:03:10Z</time>
      </trkpt>
      <trkpt lat="43.86202" lon="6.69633">
        <ele>1040</ele>
        <time>1990-12-08T15:03:28Z</time>
      </trkpt>
      <trkpt lat="43.86212" lon="6.69632">
        <ele>1034</ele>
        <time>1990-12-08T15:05:07Z</time>
      </trkpt>
      <trkpt lat="43.86225" lon="6.69637">
        <ele>1031</ele>
        <time>1990-12-08T15:05:12Z</time>
      </trkpt>
      <trkpt lat="43.8624" lon="6.69657">
        <ele>1028</ele>
        <time>1990-12-08T15:05:18Z</time>
      </trkpt>
      <trkpt lat="43.86248" lon="6.69672">
        <ele>1025</ele>
        <time>1990-12-08T15:05:24Z</time>
      </trkpt>
      <trkpt lat="43.86263" lon="6.69702">
        <ele>1021</ele>
        <time>1990-12-08T15:05:32Z</time>
      </trkpt>
      <trkpt lat="43.8626" lon="6.69723">
        <ele>1017</ele>
        <time>1990-12-08T15:05:39Z</time>
      </trkpt>
      <trkpt lat="43.86242" lon="6.6973">
        <ele>1011</ele>
        <time>1990-12-08T15:05:56Z</time>
      </trkpt>
      <trkpt lat="43.86235" lon="6.69742">
        <ele>1006</ele>
        <time>1990-12-08T15:06:07Z</time>
      </trkpt>
      <trkpt lat="43.8624" lon="6.69767">
        <ele>1001</ele>
        <time>1990-12-08T15:06:18Z</time>
      </trkpt>
      <trkpt lat="43.86253" lon="6.6977">
        <ele>999</ele>
        <time>1990-12-08T15:06:23Z</time>
      </trkpt>
      <trkpt lat="43.86265" lon="6.69773">
        <ele>996</ele>
        <time>1990-12-08T15:06:35Z</time>
      </trkpt>
      <trkpt lat="43.86255" lon="6.69785">
        <ele>993</ele>
        <time>1990-12-08T15:06:49Z</time>
      </trkpt>
      <trkpt lat="43.86275" lon="6.69795">
        <ele>988</ele>
        <time>1990-12-08T15:07:01Z</time>
      </trkpt>
      <trkpt lat="43.86268" lon="6.69807">
        <ele>982</ele>
        <time>1990-12-08T15:07:14Z</time>
      </trkpt>
      <trkpt lat="43.86272" lon="6.69825">
        <ele>982</ele>
        <time>1990-12-08T15:07:43Z</time>
      </trkpt>
      <trkpt lat="43.86277" lon="6.69823">
        <ele>984</ele>
        <time>1990-12-08T15:10:16Z</time>
      </trkpt>
      <trkpt lat="43.86308" lon="6.69798">
        <ele>987</ele>
        <time>1990-12-08T15:10:44Z</time>
      </trkpt>
      <trkpt lat="43.86312" lon="6.69823">
        <ele>992</ele>
        <time>1990-12-08T15:11:19Z</time>
      </trkpt>
      <trkpt lat="43.86297" lon="6.69835">
        <ele>995</ele>
        <time>1990-12-08T15:11:36Z</time>
      </trkpt>
      <trkpt lat="43.8628" lon="6.6987">
        <ele>994</ele>
        <time>1990-12-08T15:12:06Z</time>
      </trkpt>
      <trkpt lat="43.86265" lon="6.69892">
        <ele>996</ele>
        <time>1990-12-08T15:12:13Z</time>
      </trkpt>
      <trkpt lat="43.86257" lon="6.6993">
        <ele>1001</ele>
        <time>1990-12-08T15:12:30Z</time>
      </trkpt>
      <trkpt lat="43.86243" lon="6.69945">
        <ele>1004</ele>
        <time>1990-12-08T15:12:43Z</time>
      </trkpt>
      <trkpt lat="43.86218" lon="6.69988">
        <ele>1007</ele>
        <time>1990-12-08T15:13:12Z</time>
      </trkpt>
      <trkpt lat="43.86193" lon="6.7001">
        <ele>1008</ele>
        <time>1990-12-08T15:13:23Z</time>
      </trkpt>
      <trkpt lat="43.86162" lon="6.70017">
        <ele>1010</ele>
        <time>1990-12-08T15:13:44Z</time>
      </trkpt>
      <trkpt lat="43.86145" lon="6.70025">
        <ele>1010</ele>
        <time>1990-12-08T15:14:00Z</time>
      </trkpt>
      <trkpt lat="43.86103" lon="6.7005">
        <ele>1014</ele>
        <time>1990-12-08T15:14:26Z</time>
      </trkpt>
      <trkpt lat="43.86095" lon="6.70083">
        <ele>1017</ele>
        <time>1990-12-08T15:14:55Z</time>
      </trkpt>
      <trkpt lat="43.86085" lon="6.70113">
        <ele>1016</ele>
        <time>1990-12-08T15:15:20Z</time>
      </trkpt>
      <trkpt lat="43.86078" lon="6.70142">
        <ele>1019</ele>
        <time>1990-12-08T15:15:38Z</time>
      </trkpt>
      <trkpt lat="43.8607" lon="6.70197">
        <ele>1022</ele>
        <time>1990-12-08T15:16:06Z</time>
      </trkpt>
      <trkpt lat="43.8607" lon="6.70202">
        <ele>1022</ele>
        <time>1990-12-08T15:16:22Z</time>
      </trkpt>
      <trkpt lat="43.86068" lon="6.7019">
        <ele>1021</ele>
        <time>1990-12-08T15:19:06Z</time>
      </trkpt>
      <trkpt lat="43.86062" lon="6.70163">
        <ele>1016</ele>
        <time>1990-12-08T15:19:14Z</time>
      </trkpt>
      <trkpt lat="43.86058" lon="6.70142">
        <ele>1014</ele>
        <time>1990-12-08T15:19:21Z</time>
      </trkpt>
      <trkpt lat="43.8605" lon="6.7008">
        <ele>1009</ele>
        <time>1990-12-08T15:19:35Z</time>
      </trkpt>
      <trkpt lat="43.86048" lon="6.70042">
        <ele>1005</ele>
        <time>1990-12-08T15:19:42Z</time>
      </trkpt>
      <trkpt lat="43.86053" lon="6.70018">
        <ele>1001</ele>
        <time>1990-12-08T15:19:49Z</time>
      </trkpt>
      <trkpt lat="43.86052" lon="6.70003">
        <ele>999</ele>
        <time>1990-12-08T15:19:55Z</time>
      </trkpt>
      <trkpt lat="43.86052" lon="6.69983">
        <ele>996</ele>
        <time>1990-12-08T15:20:01Z</time>
      </trkpt>
      <trkpt lat="43.86045" lon="6.69972">
        <ele>994</ele>
        <time>1990-12-08T15:20:05Z</time>
      </trkpt>
      <trkpt lat="43.86025" lon="6.69928">
        <ele>990</ele>
        <time>1990-12-08T15:20:16Z</time>
      </trkpt>
      <trkpt lat="43.86005" lon="6.69908">
        <ele>986</ele>
        <time>1990-12-08T15:20:30Z</time>
      </trkpt>
      <trkpt lat="43.8599" lon="6.69888">
        <ele>983</ele>
        <time>1990-12-08T15:20:40Z</time>
      </trkpt>
      <trkpt lat="43.85967" lon="6.69863">
        <ele>977</ele>
        <time>1990-12-08T15:20:54Z</time>
      </trkpt>
      <trkpt lat="43.85952" lon="6.69842">
        <ele>972</ele>
        <time>1990-12-08T15:21:03Z</time>
      </trkpt>
      <trkpt lat="43.85912" lon="6.69823">
        <ele>966</ele>
        <time>1990-12-08T15:21:16Z</time>
      </trkpt>
      <trkpt lat="43.85893" lon="6.69817">
        <ele>963</ele>
        <time>1990-12-08T15:21:25Z</time>
      </trkpt>
      <trkpt lat="43.85882" lon="6.69818">
        <ele>961</ele>
        <time>1990-12-08T15:21:36Z</time>
      </trkpt>
      <trkpt lat="43.85853" lon="6.69808">
        <ele>960</ele>
        <time>1990-12-08T15:21:57Z</time>
      </trkpt>
      <trkpt lat="43.85843" lon="6.6981">
        <ele>960</ele>
        <time>1990-12-08T15:22:11Z</time>
      </trkpt>
      <trkpt lat="43.85835" lon="6.69807">
        <ele>960</ele>
        <time>1990-12-08T15:22:33Z</time>
      </trkpt>
      <trkpt lat="43.85812" lon="6.69812">
        <ele>960</ele>
        <time>1990-12-08T15:23:04Z</time>
      </trkpt>
      <trkpt lat="43.85773" lon="6.69912">
        <ele>958</ele>
        <time>1990-12-08T15:23:25Z</time>
      </trkpt>
      <trkpt lat="43.85763" lon="6.69967">
        <ele>955</ele>
        <time>1990-12-08T15:23:46Z</time>
      </trkpt>
      <trkpt lat="43.85755" lon="6.7001">
        <ele>954</ele>
        <time>1990-12-08T15:24:22Z</time>
      </trkpt>
      <trkpt lat="43.85747" lon="6.70048">
        <ele>953</ele>
        <time>1990-12-08T15:24:37Z</time>
      </trkpt>
      <trkpt lat="43.85705" lon="6.70102">
        <ele>950</ele>
        <time>1990-12-08T15:24:59Z</time>
      </trkpt>
      <trkpt lat="43.85697" lon="6.70123">
        <ele>949</ele>
        <time>1990-12-08T15:25:03Z</time>
      </trkpt>
      <trkpt lat="43.85692" lon="6.70158">
        <ele>946</ele>
        <time>1990-12-08T15:25:30Z</time>
      </trkpt>
      <trkpt lat="43.85682" lon="6.70222">
        <ele>946</ele>
        <time>1990-12-08T15:25:47Z</time>
      </trkpt>
      <trkpt lat="43.85648" lon="6.70288">
        <ele>945</ele>
        <time>1990-12-08T15:26:05Z</time>
      </trkpt>
      <trkpt lat="43.85648" lon="6.7033">
        <ele>944</ele>
        <time>1990-12-08T15:26:12Z</time>
      </trkpt>
      <trkpt lat="43.85673" lon="6.70413">
        <ele>939</ele>
        <time>1990-12-08T15:26:27Z</time>
      </trkpt>
      <trkpt lat="43.85703" lon="6.70448">
        <ele>938</ele>
        <time>1990-12-08T15:26:35Z</time>
      </trkpt>
      <trkpt lat="43.85712" lon="6.70522">
        <ele>934</ele>
        <time>1990-12-08T15:26:53Z</time>
      </trkpt>
      <trkpt lat="43.85703" lon="6.70525">
        <ele>933</ele>
        <time>1990-12-08T15:26:59Z</time>
      </trkpt>
      <trkpt lat="43.85698" lon="6.70523">
        <ele>933</ele>
        <time>1990-12-08T15:27:23Z</time>
      </trkpt>
      <trkpt lat="43.85688" lon="6.70555">
        <ele>937</ele>
        <time>1990-12-08T15:27:41Z</time>
      </trkpt>
      <trkpt lat="43.85682" lon="6.70577">
        <ele>937</ele>
        <time>1990-12-08T15:27:54Z</time>
      </trkpt>
      <trkpt lat="43.85688" lon="6.70612">
        <ele>938</ele>
        <time>1990-12-08T15:28:41Z</time>
      </trkpt>
      <trkpt lat="43.85703" lon="6.70683">
        <ele>937</ele>
        <time>1990-12-08T15:29:01Z</time>
      </trkpt>
      <trkpt lat="43.85723" lon="6.70812">
        <ele>933</ele>
        <time>1990-12-08T15:29:21Z</time>
      </trkpt>
      <trkpt lat="43.85723" lon="6.70838">
        <ele>932</ele>
        <time>1990-12-08T15:29:24Z</time>
      </trkpt>
      <trkpt lat="43.85717" lon="6.7096">
        <ele>928</ele>
        <time>1990-12-08T15:29:43Z</time>
      </trkpt>
      <trkpt lat="43.85725" lon="6.70985">
        <ele>927</ele>
        <time>1990-12-08T15:30:04Z</time>
      </trkpt>
      <trkpt lat="43.8574" lon="6.71007">
        <ele>928</ele>
        <time>1990-12-08T15:30:15Z</time>
      </trkpt>
      <trkpt lat="43.8573" lon="6.71055">
        <ele>927</ele>
        <time>1990-12-08T15:30:30Z</time>
      </trkpt>
      <trkpt lat="43.8573" lon="6.71157">
        <ele>925</ele>
        <time>1990-12-08T15:30:48Z</time>
      </trkpt>
      <trkpt lat="43.85735" lon="6.71188">
        <ele>925</ele>
        <time>1990-12-08T15:30:53Z</time>
      </trkpt>
      <trkpt lat="43.85748" lon="6.71268">
        <ele>927</ele>
        <time>1990-12-08T15:31:08Z</time>
      </trkpt>
      <trkpt lat="43.85757" lon="6.7134">
        <ele>927</ele>
        <time>1990-12-08T15:31:25Z</time>
      </trkpt>
      <trkpt lat="43.85755" lon="6.71413">
        <ele>924</ele>
        <time>1990-12-08T15:31:37Z</time>
      </trkpt>
      <trkpt lat="43.8575" lon="6.71465">
        <ele>922</ele>
        <time>1990-12-08T15:31:46Z</time>
      </trkpt>
      <trkpt lat="43.85762" lon="6.7157">
        <ele>918</ele>
        <time>1990-12-08T15:31:59Z</time>
      </trkpt>
      <trkpt lat="43.85773" lon="6.71637">
        <ele>917</ele>
        <time>1990-12-08T15:32:07Z</time>
      </trkpt>
      <trkpt lat="43.85785" lon="6.7173">
        <ele>916</ele>
        <time>1990-12-08T15:32:26Z</time>
      </trkpt>
      <trkpt lat="43.8576" lon="6.71777">
        <ele>915</ele>
        <time>1990-12-08T15:32:39Z</time>
      </trkpt>
      <trkpt lat="43.85745" lon="6.7183">
        <ele>915</ele>
        <time>1990-12-08T15:32:51Z</time>
      </trkpt>
      <trkpt lat="43.85773" lon="6.71875">
        <ele>916</ele>
        <time>1990-12-08T15:33:08Z</time>
      </trkpt>
      <trkpt lat="43.85732" lon="6.71922">
        <ele>914</ele>
        <time>1990-12-08T15:33:32Z</time>
      </trkpt>
      <trkpt lat="43.85728" lon="6.71933">
        <ele>914</ele>
        <time>1990-12-08T15:34:39Z</time>
      </trkpt>
      <trkpt lat="43.85725" lon="6.71942">
        <ele>913</ele>
        <time>1990-12-08T15:37:26Z</time>
      </trkpt>
      <trkpt lat="43.85727" lon="6.71945">
        <ele>913</ele>
        <time>1990-12-08T15:40:16Z</time>
      </trkpt>
      <trkpt lat="43.8573" lon="6.71973">
        <ele>913</ele>
        <time>1990-12-08T15:40:28Z</time>
      </trkpt>
      <trkpt lat="43.85728" lon="6.72038">
        <ele>916</ele>
        <time>1990-12-08T15:40:49Z</time>
      </trkpt>
      <trkpt lat="43.85727" lon="6.72062">
        <ele>918</ele>
        <time>1990-12-08T15:41:07Z</time>
      </trkpt>
      <trkpt lat="43.85718" lon="6.71988">
        <ele>921</ele>
        <time>1990-12-08T15:41:30Z</time>
      </trkpt>
      <trkpt lat="43.8571" lon="6.71992">
        <ele>923</ele>
        <time>1990-12-08T15:41:39Z</time>
      </trkpt>
      <trkpt lat="43.85712" lon="6.72087">
        <ele>925</ele>
        <time>1990-12-08T15:42:06Z</time>
      </trkpt>
      <trkpt lat="43.85697" lon="6.72187">
        <ele>928</ele>
        <time>1990-12-08T15:42:35Z</time>
      </trkpt>
      <trkpt lat="43.8568" lon="6.72217">
        <ele>931</ele>
        <time>1990-12-08T15:42:55Z</time>
      </trkpt>
      <trkpt lat="43.85687" lon="6.72165">
        <ele>933</ele>
        <time>1990-12-08T15:43:10Z</time>
      </trkpt>
      <trkpt lat="43.8569" lon="6.72122">
        <ele>935</ele>
        <time>1990-12-08T15:43:23Z</time>
      </trkpt>
      <trkpt lat="43.85697" lon="6.72047">
        <ele>938</ele>
        <time>1990-12-08T15:43:43Z</time>
      </trkpt>
      <trkpt lat="43.8569" lon="6.72033">
        <ele>940</ele>
        <time>1990-12-08T15:43:49Z</time>
      </trkpt>
      <trkpt lat="43.85678" lon="6.72088">
        <ele>942</ele>
        <time>1990-12-08T15:44:06Z</time>
      </trkpt>
      <trkpt lat="43.8566" lon="6.7218">
        <ele>945</ele>
        <time>1990-12-08T15:44:34Z</time>
      </trkpt>
      <trkpt lat="43.85643" lon="6.72248">
        <ele>948</ele>
        <time>1990-12-08T15:44:54Z</time>
      </trkpt>
      <trkpt lat="43.8565" lon="6.72175">
        <ele>952</ele>
        <time>1990-12-08T15:45:21Z</time>
      </trkpt>
      <trkpt lat="43.85657" lon="6.72072">
        <ele>957</ele>
        <time>1990-12-08T15:45:52Z</time>
      </trkpt>
      <trkpt lat="43.85657" lon="6.71965">
        <ele>961</ele>
        <time>1990-12-08T15:46:21Z</time>
      </trkpt>
      <trkpt lat="43.85647" lon="6.71965">
        <ele>963</ele>
        <time>1990-12-08T15:46:31Z</time>
      </trkpt>
      <trkpt lat="43.85647" lon="6.72017">
        <ele>965</ele>
        <time>1990-12-08T15:46:45Z</time>
      </trkpt>
      <trkpt lat="43.85645" lon="6.72035">
        <ele>965</ele>
        <time>1990-12-08T15:46:51Z</time>
      </trkpt>
      <trkpt lat="43.85642" lon="6.72057">
        <ele>966</ele>
        <time>1990-12-08T15:46:59Z</time>
      </trkpt>
      <trkpt lat="43.85623" lon="6.72152">
        <ele>970</ele>
        <time>1990-12-08T15:47:27Z</time>
      </trkpt>
      <trkpt lat="43.85592" lon="6.72248">
        <ele>973</ele>
        <time>1990-12-08T15:47:46Z</time>
      </trkpt>
      <trkpt lat="43.85523" lon="6.7233">
        <ele>977</ele>
        <time>1990-12-08T15:48:17Z</time>
      </trkpt>
      <trkpt lat="43.85488" lon="6.72407">
        <ele>979</ele>
        <time>1990-12-08T15:48:35Z</time>
      </trkpt>
      <trkpt lat="43.85422" lon="6.72493">
        <ele>983</ele>
        <time>1990-12-08T15:49:04Z</time>
      </trkpt>
      <trkpt lat="43.85402" lon="6.72545">
        <ele>985</ele>
        <time>1990-12-08T15:49:20Z</time>
      </trkpt>
      <trkpt lat="43.8537" lon="6.72577">
        <ele>987</ele>
        <time>1990-12-08T15:49:39Z</time>
      </trkpt>
      <trkpt lat="43.85368" lon="6.7259">
        <ele>987</ele>
        <time>1990-12-08T15:50:05Z</time>
      </trkpt>
      <trkpt lat="43.85405" lon="6.72625">
        <ele>987</ele>
        <time>1990-12-08T15:50:43Z</time>
      </trkpt>
      <trkpt lat="43.8533" lon="6.72735">
        <ele>989</ele>
        <time>1990-12-08T15:51:32Z</time>
      </trkpt>
      <trkpt lat="43.85315" lon="6.7273">
        <ele>991</ele>
        <time>1990-12-08T15:51:57Z</time>
      </trkpt>
      <trkpt lat="43.85285" lon="6.72718">
        <ele>993</ele>
        <time>1990-12-08T15:53:26Z</time>
      </trkpt>
      <trkpt lat="43.85273" lon="6.7275">
        <ele>994</ele>
        <time>1990-12-08T15:53:41Z</time>
      </trkpt>
      <trkpt lat="43.85198" lon="6.72777">
        <ele>996</ele>
        <time>1990-12-08T15:54:03Z</time>
      </trkpt>
      <trkpt lat="43.85208" lon="6.72827">
        <ele>999</ele>
        <time>1990-12-08T15:54:58Z</time>
      </trkpt>
      <trkpt lat="43.85198" lon="6.72905">
        <ele>1001</ele>
        <time>1990-12-08T15:55:15Z</time>
      </trkpt>
      <trkpt lat="43.8518" lon="6.72958">
        <ele>1003</ele>
        <time>1990-12-08T15:55:34Z</time>
      </trkpt>
      <trkpt lat="43.85163" lon="6.73008">
        <ele>1005</ele>
        <time>1990-12-08T15:55:47Z</time>
      </trkpt>
      <trkpt lat="43.8512" lon="6.73115">
        <ele>1006</ele>
        <time>1990-12-08T15:56:02Z</time>
      </trkpt>
      <trkpt lat="43.85112" lon="6.73135">
        <ele>1009</ele>
        <time>1990-12-08T15:56:15Z</time>
      </trkpt>
      <trkpt lat="43.8508" lon="6.73152">
        <ele>1010</ele>
        <time>1990-12-08T15:56:31Z</time>
      </trkpt>
      <trkpt lat="43.84963" lon="6.7316">
        <ele>1012</ele>
        <time>1990-12-08T15:56:47Z</time>
      </trkpt>
      <trkpt lat="43.84913" lon="6.73127">
        <ele>1012</ele>
        <time>1990-12-08T15:57:12Z</time>
      </trkpt>
      <trkpt lat="43.84907" lon="6.73122">
        <ele>1010</ele>
        <time>1990-12-08T15:57:58Z</time>
      </trkpt>
      <trkpt lat="43.84905" lon="6.73138">
        <ele>1009</ele>
        <time>1990-12-08T15:58:59Z</time>
      </trkpt>
      <trkpt lat="43.8483" lon="6.73165">
        <ele>1009</ele>
        <time>1990-12-08T15:59:17Z</time>
      </trkpt>
      <trkpt lat="43.84785" lon="6.73168">
        <ele>1009</ele>
        <time>1990-12-08T15:59:27Z</time>
      </trkpt>
      <trkpt lat="43.84763" lon="6.73212">
        <ele>1009</ele>
        <time>1990-12-08T15:59:36Z</time>
      </trkpt>
      <trkpt lat="43.8472" lon="6.73318">
        <ele>1010</ele>
        <time>1990-12-08T15:59:56Z</time>
      </trkpt>
      <trkpt lat="43.84687" lon="6.7347">
        <ele>1010</ele>
        <time>1990-12-08T16:00:20Z</time>
      </trkpt>
      <trkpt lat="43.8464" lon="6.73597">
        <ele>1010</ele>
        <time>1990-12-08T16:00:44Z</time>
      </trkpt>
      <trkpt lat="43.84543" lon="6.73722">
        <ele>1011</ele>
        <time>1990-12-08T16:01:17Z</time>
      </trkpt>
      <trkpt lat="43.84482" lon="6.73832">
        <ele>1012</ele>
        <time>1990-12-08T16:01:42Z</time>
      </trkpt>
      <trkpt lat="43.84437" lon="6.73963">
        <ele>1015</ele>
        <time>1990-12-08T16:02:11Z</time>
      </trkpt>
      <trkpt lat="43.84412" lon="6.74068">
        <ele>1017</ele>
        <time>1990-12-08T16:02:28Z</time>
      </trkpt>
      <trkpt lat="43.84387" lon="6.74202">
        <ele>1017</ele>
        <time>1990-12-08T16:02:49Z</time>
      </trkpt>
      <trkpt lat="43.8429" lon="6.74328">
        <ele>1021</ele>
        <time>1990-12-08T16:03:18Z</time>
      </trkpt>
      <trkpt lat="43.8426" lon="6.74378">
        <ele>1022</ele>
        <time>1990-12-08T16:03:30Z</time>
      </trkpt>
      <trkpt lat="43.8415" lon="6.74425">
        <ele>1023</ele>
        <time>1990-12-08T16:03:55Z</time>
      </trkpt>
      <trkpt lat="43.84085" lon="6.74463">
        <ele>1025</ele>
        <time>1990-12-08T16:04:12Z</time>
      </trkpt>
      <trkpt lat="43.83952" lon="6.7452">
        <ele>1029</ele>
        <time>1990-12-08T16:04:46Z</time>
      </trkpt>
      <trkpt lat="43.83877" lon="6.74503">
        <ele>1033</ele>
        <time>1990-12-08T16:05:13Z</time>
      </trkpt>
      <trkpt lat="43.83852" lon="6.74497">
        <ele>1032</ele>
        <time>1990-12-08T16:05:29Z</time>
      </trkpt>
      <trkpt lat="43.83797" lon="6.7449">
        <ele>1032</ele>
        <time>1990-12-08T16:05:46Z</time>
      </trkpt>
      <trkpt lat="43.83803" lon="6.74507">
        <ele>1032</ele>
        <time>1990-12-08T16:05:58Z</time>
      </trkpt>
      <trkpt lat="43.83863" lon="6.7452">
        <ele>1038</ele>
        <time>1990-12-08T16:06:28Z</time>
      </trkpt>
      <trkpt lat="43.83902" lon="6.74565">
        <ele>1042</ele>
        <time>1990-12-08T16:06:51Z</time>
      </trkpt>
      <trkpt lat="43.83927" lon="6.74603">
        <ele>1045</ele>
        <time>1990-12-08T16:07:15Z</time>
      </trkpt>
      <trkpt lat="43.8393" lon="6.74607">
        <ele>1046</ele>
        <time>1990-12-08T16:08:09Z</time>
      </trkpt>
      <trkpt lat="43.8393" lon="6.7463">
        <ele>1047</ele>
        <time>1990-12-08T16:08:56Z</time>
      </trkpt>
      <trkpt lat="43.83938" lon="6.74635">
        <ele>1050</ele>
        <time>1990-12-08T16:12:25Z</time>
      </trkpt>
      <trkpt lat="43.83942" lon="6.74685">
        <ele>1053</ele>
        <time>1990-12-08T16:12:45Z</time>
      </trkpt>
      <trkpt lat="43.83953" lon="6.74718">
        <ele>1055</ele>
        <time>1990-12-08T16:12:57Z</time>
      </trkpt>
      <trkpt lat="43.83968" lon="6.74772">
        <ele>1058</ele>
        <time>1990-12-08T16:13:18Z</time>
      </trkpt>
      <trkpt lat="43.83983" lon="6.74822">
        <ele>1062</ele>
        <time>1990-12-08T16:13:42Z</time>
      </trkpt>
      <trkpt lat="43.83997" lon="6.7487">
        <ele>1065</ele>
        <time>1990-12-08T16:14:05Z</time>
      </trkpt>
      <trkpt lat="43.84003" lon="6.74908">
        <ele>1067</ele>
        <time>1990-12-08T16:14:20Z</time>
      </trkpt>
      <trkpt lat="43.84022" lon="6.74952">
        <ele>1070</ele>
        <time>1990-12-08T16:14:40Z</time>
      </trkpt>
      <trkpt lat="43.8403" lon="6.74967">
        <ele>1072</ele>
        <time>1990-12-08T16:14:49Z</time>
      </trkpt>
      <trkpt lat="43.84043" lon="6.75017">
        <ele>1073</ele>
        <time>1990-12-08T16:15:07Z</time>
      </trkpt>
      <trkpt lat="43.84045" lon="6.75032">
        <ele>1074</ele>
        <time>1990-12-08T16:15:13Z</time>
      </trkpt>
      <trkpt lat="43.84047" lon="6.75063">
        <ele>1077</ele>
        <time>1990-12-08T16:15:24Z</time>
      </trkpt>
      <trkpt lat="43.84033" lon="6.75103">
        <ele>1080</ele>
        <time>1990-12-08T16:15:42Z</time>
      </trkpt>
      <trkpt lat="43.84028" lon="6.75138">
        <ele>1082</ele>
        <time>1990-12-08T16:15:55Z</time>
      </trkpt>
      <trkpt lat="43.84043" lon="6.75187">
        <ele>1085</ele>
        <time>1990-12-08T16:16:12Z</time>
      </trkpt>
      <trkpt lat="43.84043" lon="6.7524">
        <ele>1088</ele>
        <time>1990-12-08T16:16:30Z</time>
      </trkpt>
      <trkpt lat="43.84047" lon="6.75262">
        <ele>1090</ele>
        <time>1990-12-08T16:16:38Z</time>
      </trkpt>
      <trkpt lat="43.84047" lon="6.75307">
        <ele>1093</ele>
        <time>1990-12-08T16:16:59Z</time>
      </trkpt>
      <trkpt lat="43.84045" lon="6.75345">
        <ele>1097</ele>
        <time>1990-12-08T16:17:25Z</time>
      </trkpt>
      <trkpt lat="43.84047" lon="6.7541">
        <ele>1100</ele>
        <time>1990-12-08T16:17:49Z</time>
      </trkpt>
      <trkpt lat="43.84025" lon="6.75477">
        <ele>1104</ele>
        <time>1990-12-08T16:18:19Z</time>
      </trkpt>
      <trkpt lat="43.84012" lon="6.75537">
        <ele>1110</ele>
        <time>1990-12-08T16:18:57Z</time>
      </trkpt>
      <trkpt lat="43.83992" lon="6.75575">
        <ele>1114</ele>
        <time>1990-12-08T16:19:24Z</time>
      </trkpt>
      <trkpt lat="43.83978" lon="6.75623">
        <ele>1117</ele>
        <time>1990-12-08T16:19:48Z</time>
      </trkpt>
      <trkpt lat="43.83973" lon="6.75648">
        <ele>1119</ele>
        <time>1990-12-08T16:20:05Z</time>
      </trkpt>
      <trkpt lat="43.83962" lon="6.75718">
        <ele>1122</ele>
        <time>1990-12-08T16:20:29Z</time>
      </trkpt>
      <trkpt lat="43.83953" lon="6.75758">
        <ele>1126</ele>
        <time>1990-12-08T16:20:51Z</time>
      </trkpt>
      <trkpt lat="43.83952" lon="6.75802">
        <ele>1128</ele>
        <time>1990-12-08T16:21:12Z</time>
      </trkpt>
      <trkpt lat="43.83948" lon="6.75833">
        <ele>1131</ele>
        <time>1990-12-08T16:21:27Z</time>
      </trkpt>
      <trkpt lat="43.83948" lon="6.75848">
        <ele>1132</ele>
        <time>1990-12-08T16:21:36Z</time>
      </trkpt>
      <trkpt lat="43.83945" lon="6.7589">
        <ele>1135</ele>
        <time>1990-12-08T16:22:01Z</time>
      </trkpt>
      <trkpt lat="43.83953" lon="6.75945">
        <ele>1139</ele>
        <time>1990-12-08T16:22:25Z</time>
      </trkpt>
      <trkpt lat="43.83957" lon="6.75988">
        <ele>1141</ele>
        <time>1990-12-08T16:22:44Z</time>
      </trkpt>
      <trkpt lat="43.83957" lon="6.76005">
        <ele>1142</ele>
        <time>1990-12-08T16:22:51Z</time>
      </trkpt>
      <trkpt lat="43.83955" lon="6.76032">
        <ele>1143</ele>
        <time>1990-12-08T16:23:00Z</time>
      </trkpt>
      <trkpt lat="43.8395" lon="6.76088">
        <ele>1144</ele>
        <time>1990-12-08T16:23:15Z</time>
      </trkpt>
      <trkpt lat="43.83943" lon="6.76145">
        <ele>1144</ele>
        <time>1990-12-08T16:23:29Z</time>
      </trkpt>
      <trkpt lat="43.83942" lon="6.76188">
        <ele>1147</ele>
        <time>1990-12-08T16:23:46Z</time>
      </trkpt>
      <trkpt lat="43.8394" lon="6.76258">
        <ele>1153</ele>
        <time>1990-12-08T16:24:18Z</time>
      </trkpt>
      <trkpt lat="43.83942" lon="6.7628">
        <ele>1154</ele>
        <time>1990-12-08T16:24:30Z</time>
      </trkpt>
      <trkpt lat="43.83945" lon="6.76327">
        <ele>1157</ele>
        <time>1990-12-08T16:24:52Z</time>
      </trkpt>
      <trkpt lat="43.83952" lon="6.76368">
        <ele>1160</ele>
        <time>1990-12-08T16:25:13Z</time>
      </trkpt>
      <trkpt lat="43.8395" lon="6.76385">
        <ele>1161</ele>
        <time>1990-12-08T16:25:21Z</time>
      </trkpt>
      <trkpt lat="43.83952" lon="6.76437">
        <ele>1164</ele>
        <time>1990-12-08T16:25:50Z</time>
      </trkpt>
      <trkpt lat="43.83953" lon="6.76477">
        <ele>1168</ele>
        <time>1990-12-08T16:26:13Z</time>
      </trkpt>
      <trkpt lat="43.83957" lon="6.76522">
        <ele>1172</ele>
        <time>1990-12-08T16:26:37Z</time>
      </trkpt>
      <trkpt lat="43.83958" lon="6.76538">
        <ele>1173</ele>
        <time>1990-12-08T16:26:47Z</time>
      </trkpt>
      <trkpt lat="43.8396" lon="6.76558">
        <ele>1175</ele>
        <time>1990-12-08T16:27:00Z</time>
      </trkpt>
      <trkpt lat="43.83972" lon="6.76618">
        <ele>1179</ele>
        <time>1990-12-08T16:27:33Z</time>
      </trkpt>
      <trkpt lat="43.83975" lon="6.76687">
        <ele>1183</ele>
        <time>1990-12-08T16:28:05Z</time>
      </trkpt>
      <trkpt lat="43.83972" lon="6.76713">
        <ele>1184</ele>
        <time>1990-12-08T16:28:14Z</time>
      </trkpt>
      <trkpt lat="43.83978" lon="6.76743">
        <ele>1186</ele>
        <time>1990-12-08T16:28:30Z</time>
      </trkpt>
      <trkpt lat="43.83988" lon="6.76772">
        <ele>1188</ele>
        <time>1990-12-08T16:28:46Z</time>
      </trkpt>
      <trkpt lat="43.84007" lon="6.76802">
        <ele>1191</ele>
        <time>1990-12-08T16:29:03Z</time>
      </trkpt>
      <trkpt lat="43.84022" lon="6.7683">
        <ele>1195</ele>
        <time>1990-12-08T16:29:23Z</time>
      </trkpt>
      <trkpt lat="43.84035" lon="6.76863">
        <ele>1197</ele>
        <time>1990-12-08T16:29:42Z</time>
      </trkpt>
      <trkpt lat="43.84047" lon="6.76885">
        <ele>1198</ele>
        <time>1990-12-08T16:29:52Z</time>
      </trkpt>
      <trkpt lat="43.84055" lon="6.76895">
        <ele>1199</ele>
        <time>1990-12-08T16:29:59Z</time>
      </trkpt>
      <trkpt lat="43.84057" lon="6.76917">
        <ele>1201</ele>
        <time>1990-12-08T16:30:10Z</time>
      </trkpt>
      <trkpt lat="43.84055" lon="6.76933">
        <ele>1202</ele>
        <time>1990-12-08T16:30:19Z</time>
      </trkpt>
      <trkpt lat="43.8406" lon="6.76963">
        <ele>1204</ele>
        <time>1990-12-08T16:30:34Z</time>
      </trkpt>
      <trkpt lat="43.84068" lon="6.76993">
        <ele>1205</ele>
        <time>1990-12-08T16:30:49Z</time>
      </trkpt>
      <trkpt lat="43.84078" lon="6.77015">
        <ele>1206</ele>
        <time>1990-12-08T16:30:56Z</time>
      </trkpt>
      <trkpt lat="43.84087" lon="6.77033">
        <ele>1207</ele>
        <time>1990-12-08T16:31:05Z</time>
      </trkpt>
      <trkpt lat="43.84092" lon="6.77055">
        <ele>1209</ele>
        <time>1990-12-08T16:31:15Z</time>
      </trkpt>
      <trkpt lat="43.84107" lon="6.77085">
        <ele>1210</ele>
        <time>1990-12-08T16:31:31Z</time>
      </trkpt>
      <trkpt lat="43.84112" lon="6.77123">
        <ele>1213</ele>
        <time>1990-12-08T16:31:50Z</time>
      </trkpt>
      <trkpt lat="43.8413" lon="6.77173">
        <ele>1218</ele>
        <time>1990-12-08T16:32:18Z</time>
      </trkpt>
      <trkpt lat="43.84107" lon="6.77127">
        <ele>1220</ele>
        <time>1990-12-08T16:32:46Z</time>
      </trkpt>
      <trkpt lat="43.8409" lon="6.77097">
        <ele>1222</ele>
        <time>1990-12-08T16:33:06Z</time>
      </trkpt>
      <trkpt lat="43.84072" lon="6.77067">
        <ele>1225</ele>
        <time>1990-12-08T16:33:25Z</time>
      </trkpt>
      <trkpt lat="43.84047" lon="6.77035">
        <ele>1227</ele>
        <time>1990-12-08T16:33:44Z</time>
      </trkpt>
      <trkpt lat="43.8403" lon="6.77012">
        <ele>1229</ele>
        <time>1990-12-08T16:33:58Z</time>
      </trkpt>
      <trkpt lat="43.84" lon="6.76965">
        <ele>1233</ele>
        <time>1990-12-08T16:34:27Z</time>
      </trkpt>
      <trkpt lat="43.83975" lon="6.76942">
        <ele>1235</ele>
        <time>1990-12-08T16:34:45Z</time>
      </trkpt>
      <trkpt lat="43.83955" lon="6.76912">
        <ele>1238</ele>
        <time>1990-12-08T16:35:03Z</time>
      </trkpt>
      <trkpt lat="43.83947" lon="6.76893">
        <ele>1240</ele>
        <time>1990-12-08T16:35:15Z</time>
      </trkpt>
      <trkpt lat="43.83935" lon="6.7691">
        <ele>1242</ele>
        <time>1990-12-08T16:35:31Z</time>
      </trkpt>
      <trkpt lat="43.83943" lon="6.76927">
        <ele>1243</ele>
        <time>1990-12-08T16:35:40Z</time>
      </trkpt>
      <trkpt lat="43.83958" lon="6.76987">
        <ele>1247</ele>
        <time>1990-12-08T16:36:11Z</time>
      </trkpt>
      <trkpt lat="43.83975" lon="6.77042">
        <ele>1250</ele>
        <time>1990-12-08T16:36:38Z</time>
      </trkpt>
      <trkpt lat="43.83988" lon="6.77067">
        <ele>1251</ele>
        <time>1990-12-08T16:36:49Z</time>
      </trkpt>
      <trkpt lat="43.84023" lon="6.77135">
        <ele>1254</ele>
        <time>1990-12-08T16:37:17Z</time>
      </trkpt>
      <trkpt lat="43.84043" lon="6.77183">
        <ele>1255</ele>
        <time>1990-12-08T16:37:34Z</time>
      </trkpt>
      <trkpt lat="43.84055" lon="6.77237">
        <ele>1255</ele>
        <time>1990-12-08T16:37:53Z</time>
      </trkpt>
      <trkpt lat="43.84112" lon="6.7735">
        <ele>1255</ele>
        <time>1990-12-08T16:38:14Z</time>
      </trkpt>
      <trkpt lat="43.84112" lon="6.77405">
        <ele>1259</ele>
        <time>1990-12-08T16:38:35Z</time>
      </trkpt>
      <trkpt lat="43.84097" lon="6.7743">
        <ele>1262</ele>
        <time>1990-12-08T16:38:51Z</time>
      </trkpt>
      <trkpt lat="43.84087" lon="6.7745">
        <ele>1264</ele>
        <time>1990-12-08T16:39:02Z</time>
      </trkpt>
      <trkpt lat="43.84113" lon="6.77453">
        <ele>1268</ele>
        <time>1990-12-08T16:39:27Z</time>
      </trkpt>
      <trkpt lat="43.84132" lon="6.77452">
        <ele>1272</ele>
        <time>1990-12-08T16:42:11Z</time>
      </trkpt>
      <trkpt lat="43.84163" lon="6.7746">
        <ele>1276</ele>
        <time>1990-12-08T16:42:34Z</time>
      </trkpt>
      <trkpt lat="43.84182" lon="6.77467">
        <ele>1277</ele>
        <time>1990-12-08T16:42:48Z</time>
      </trkpt>
      <trkpt lat="43.84215" lon="6.77455">
        <ele>1281</ele>
        <time>1990-12-08T16:43:10Z</time>
      </trkpt>
      <trkpt lat="43.84258" lon="6.77435">
        <ele>1283</ele>
        <time>1990-12-08T16:43:39Z</time>
      </trkpt>
      <trkpt lat="43.84312" lon="6.77462">
        <ele>1287</ele>
        <time>1990-12-08T16:44:09Z</time>
      </trkpt>
      <trkpt lat="43.84363" lon="6.77503">
        <ele>1289</ele>
        <time>1990-12-08T16:44:35Z</time>
      </trkpt>
      <trkpt lat="43.84372" lon="6.7752">
        <ele>1287</ele>
        <time>1990-12-08T16:45:04Z</time>
      </trkpt>
      <trkpt lat="43.84385" lon="6.77547">
        <ele>1286</ele>
        <time>1990-12-08T16:51:28Z</time>
      </trkpt>
      <trkpt lat="43.844" lon="6.77582">
        <ele>1281</ele>
        <time>1990-12-08T16:51:52Z</time>
      </trkpt>
      <trkpt lat="43.84417" lon="6.77608">
        <ele>1277</ele>
        <time>1990-12-08T16:52:05Z</time>
      </trkpt>
      <trkpt lat="43.84423" lon="6.77627">
        <ele>1275</ele>
        <time>1990-12-08T16:52:25Z</time>
      </trkpt>
      <trkpt lat="43.84438" lon="6.77642">
        <ele>1273</ele>
        <time>1990-12-08T16:53:23Z</time>
      </trkpt>
      <trkpt lat="43.84448" lon="6.77665">
        <ele>1270</ele>
        <time>1990-12-08T16:53:40Z</time>
      </trkpt>
      <trkpt lat="43.84457" lon="6.77685">
        <ele>1267</ele>
        <time>1990-12-08T16:53:58Z</time>
      </trkpt>
      <trkpt lat="43.84483" lon="6.77722">
        <ele>1261</ele>
        <time>1990-12-08T16:54:22Z</time>
      </trkpt>
      <trkpt lat="43.84517" lon="6.77737">
        <ele>1256</ele>
        <time>1990-12-08T16:54:45Z</time>
      </trkpt>
      <trkpt lat="43.84533" lon="6.77762">
        <ele>1253</ele>
        <time>1990-12-08T16:54:58Z</time>
      </trkpt>
      <trkpt lat="43.84517" lon="6.77775">
        <ele>1248</ele>
        <time>1990-12-08T16:55:12Z</time>
      </trkpt>
      <trkpt lat="43.845" lon="6.77827">
        <ele>1246</ele>
        <time>1990-12-08T16:55:33Z</time>
      </trkpt>
      <trkpt lat="43.8453" lon="6.7793">
        <ele>1245</ele>
        <time>1990-12-08T16:55:54Z</time>
      </trkpt>
      <trkpt lat="43.84565" lon="6.77993">
        <ele>1243</ele>
        <time>1990-12-08T16:56:05Z</time>
      </trkpt>
      <trkpt lat="43.8464" lon="6.78068">
        <ele>1242</ele>
        <time>1990-12-08T16:56:20Z</time>
      </trkpt>
      <trkpt lat="43.84688" lon="6.78083">
        <ele>1245</ele>
        <time>1990-12-08T16:56:33Z</time>
      </trkpt>
      <trkpt lat="43.84753" lon="6.78165">
        <ele>1244</ele>
        <time>1990-12-08T16:57:02Z</time>
      </trkpt>
      <trkpt lat="43.8478" lon="6.78163">
        <ele>1240</ele>
        <time>1990-12-08T16:57:08Z</time>
      </trkpt>
      <trkpt lat="43.84798" lon="6.7817">
        <ele>1237</ele>
        <time>1990-12-08T16:57:13Z</time>
      </trkpt>
      <trkpt lat="43.8482" lon="6.7821">
        <ele>1232</ele>
        <time>1990-12-08T16:57:21Z</time>
      </trkpt>
      <trkpt lat="43.84848" lon="6.7825">
        <ele>1225</ele>
        <time>1990-12-08T16:57:29Z</time>
      </trkpt>
      <trkpt lat="43.84862" lon="6.78295">
        <ele>1221</ele>
        <time>1990-12-08T16:57:35Z</time>
      </trkpt>
      <trkpt lat="43.84885" lon="6.7839">
        <ele>1213</ele>
        <time>1990-12-08T16:57:46Z</time>
      </trkpt>
      <trkpt lat="43.84905" lon="6.7846">
        <ele>1210</ele>
        <time>1990-12-08T16:57:53Z</time>
      </trkpt>
      <trkpt lat="43.84937" lon="6.78507">
        <ele>1208</ele>
        <time>1990-12-08T16:58:00Z</time>
      </trkpt>
      <trkpt lat="43.84987" lon="6.7858">
        <ele>1202</ele>
        <time>1990-12-08T16:58:13Z</time>
      </trkpt>
      <trkpt lat="43.84992" lon="6.78578">
        <ele>1202</ele>
        <time>1990-12-08T16:58:32Z</time>
      </trkpt>
      <trkpt lat="43.85048" lon="6.78555">
        <ele>1203</ele>
        <time>1990-12-08T16:59:04Z</time>
      </trkpt>
      <trkpt lat="43.85085" lon="6.78518">
        <ele>1205</ele>
        <time>1990-12-08T16:59:27Z</time>
      </trkpt>
      <trkpt lat="43.85095" lon="6.78542">
        <ele>1202</ele>
        <time>1990-12-08T16:59:41Z</time>
      </trkpt>
      <trkpt lat="43.85105" lon="6.7856">
        <ele>1197</ele>
        <time>1990-12-08T16:59:51Z</time>
      </trkpt>
      <trkpt lat="43.85105" lon="6.78567">
        <ele>1197</ele>
        <time>1990-12-08T16:59:54Z</time>
      </trkpt>
      <trkpt lat="43.85112" lon="6.7858">
        <ele>1195</ele>
        <time>1990-12-08T17:00:00Z</time>
      </trkpt>
      <trkpt lat="43.8511" lon="6.7863">
        <ele>1189</ele>
        <time>1990-12-08T17:00:29Z</time>
      </trkpt>
      <trkpt lat="43.85125" lon="6.78645">
        <ele>1188</ele>
        <time>1990-12-08T17:01:11Z</time>
      </trkpt>
      <trkpt lat="43.85127" lon="6.78653">
        <ele>1185</ele>
        <time>1990-12-08T17:02:44Z</time>
      </trkpt>
      <trkpt lat="43.85135" lon="6.78653">
        <ele>1182</ele>
        <time>1990-12-08T17:03:01Z</time>
      </trkpt>
      <trkpt lat="43.85133" lon="6.78652">
        <ele>1181</ele>
        <time>1990-12-08T17:04:07Z</time>
      </trkpt>
      <trkpt lat="43.8515" lon="6.78673">
        <ele>1174</ele>
        <time>1990-12-08T17:04:20Z</time>
      </trkpt>
      <trkpt lat="43.85158" lon="6.78705">
        <ele>1170</ele>
        <time>1990-12-08T17:04:29Z</time>
      </trkpt>
      <trkpt lat="43.85177" lon="6.78748">
        <ele>1164</ele>
        <time>1990-12-08T17:04:47Z</time>
      </trkpt>
      <trkpt lat="43.85178" lon="6.78702">
        <ele>1157</ele>
        <time>1990-12-08T17:05:02Z</time>
      </trkpt>
      <trkpt lat="43.85182" lon="6.78658">
        <ele>1151</ele>
        <time>1990-12-08T17:05:15Z</time>
      </trkpt>
      <trkpt lat="43.85172" lon="6.7862">
        <ele>1146</ele>
        <time>1990-12-08T17:05:28Z</time>
      </trkpt>
      <trkpt lat="43.85178" lon="6.78587">
        <ele>1141</ele>
        <time>1990-12-08T17:05:46Z</time>
      </trkpt>
      <trkpt lat="43.85182" lon="6.78602">
        <ele>1136</ele>
        <time>1990-12-08T17:06:02Z</time>
      </trkpt>
      <trkpt lat="43.85185" lon="6.78607">
        <ele>1135</ele>
        <time>1990-12-08T17:06:38Z</time>
      </trkpt>
      <trkpt lat="43.85205" lon="6.78637">
        <ele>1131</ele>
        <time>1990-12-08T17:06:52Z</time>
      </trkpt>
      <trkpt lat="43.85217" lon="6.78662">
        <ele>1126</ele>
        <time>1990-12-08T17:07:01Z</time>
      </trkpt>
      <trkpt lat="43.85225" lon="6.78702">
        <ele>1122</ele>
        <time>1990-12-08T17:07:15Z</time>
      </trkpt>
      <trkpt lat="43.85237" lon="6.78745">
        <ele>1115</ele>
        <time>1990-12-08T17:07:32Z</time>
      </trkpt>
      <trkpt lat="43.85252" lon="6.78772">
        <ele>1111</ele>
        <time>1990-12-08T17:07:59Z</time>
      </trkpt>
      <trkpt lat="43.85257" lon="6.78777">
        <ele>1108</ele>
        <time>1990-12-08T17:10:42Z</time>
      </trkpt>
      <trkpt lat="43.85267" lon="6.78782">
        <ele>1106</ele>
        <time>1990-12-08T17:10:56Z</time>
      </trkpt>
      <trkpt lat="43.85282" lon="6.78803">
        <ele>1102</ele>
        <time>1990-12-08T17:11:24Z</time>
      </trkpt>
      <trkpt lat="43.85297" lon="6.78837">
        <ele>1097</ele>
        <time>1990-12-08T17:11:38Z</time>
      </trkpt>
      <trkpt lat="43.8529" lon="6.7886">
        <ele>1091</ele>
        <time>1990-12-08T17:11:59Z</time>
      </trkpt>
      <trkpt lat="43.85297" lon="6.78863">
        <ele>1089</ele>
        <time>1990-12-08T17:12:04Z</time>
      </trkpt>
      <trkpt lat="43.85312" lon="6.78855">
        <ele>1085</ele>
        <time>1990-12-08T17:12:21Z</time>
      </trkpt>
      <trkpt lat="43.85313" lon="6.7887">
        <ele>1082</ele>
        <time>1990-12-08T17:12:28Z</time>
      </trkpt>
      <trkpt lat="43.85315" lon="6.78875">
        <ele>1080</ele>
        <time>1990-12-08T17:12:32Z</time>
      </trkpt>
      <trkpt lat="43.85315" lon="6.78868">
        <ele>1079</ele>
        <time>1990-12-08T17:13:26Z</time>
      </trkpt>
      <trkpt lat="43.85325" lon="6.78873">
        <ele>1075</ele>
        <time>1990-12-08T17:14:12Z</time>
      </trkpt>
      <trkpt lat="43.85332" lon="6.78887">
        <ele>1072</ele>
        <time>1990-12-08T17:14:19Z</time>
      </trkpt>
      <trkpt lat="43.85335" lon="6.78868">
        <ele>1069</ele>
        <time>1990-12-08T17:14:30Z</time>
      </trkpt>
      <trkpt lat="43.85337" lon="6.78855">
        <ele>1066</ele>
        <time>1990-12-08T17:14:38Z</time>
      </trkpt>
      <trkpt lat="43.85342" lon="6.78862">
        <ele>1064</ele>
        <time>1990-12-08T17:15:11Z</time>
      </trkpt>
      <trkpt lat="43.85357" lon="6.78885">
        <ele>1061</ele>
        <time>1990-12-08T17:15:52Z</time>
      </trkpt>
      <trkpt lat="43.85367" lon="6.78883">
        <ele>1058</ele>
        <time>1990-12-08T17:16:05Z</time>
      </trkpt>
      <trkpt lat="43.85372" lon="6.78892">
        <ele>1056</ele>
        <time>1990-12-08T17:16:13Z</time>
      </trkpt>
      <trkpt lat="43.85377" lon="6.78885">
        <ele>1050</ele>
        <time>1990-12-08T17:16:30Z</time>
      </trkpt>
      <trkpt lat="43.8538" lon="6.78882">
        <ele>1049</ele>
        <time>1990-12-08T17:16:33Z</time>
      </trkpt>
      <trkpt lat="43.85388" lon="6.78902">
        <ele>1045</ele>
        <time>1990-12-08T17:16:42Z</time>
      </trkpt>
      <trkpt lat="43.854" lon="6.78912">
        <ele>1042</ele>
        <time>1990-12-08T17:16:52Z</time>
      </trkpt>
      <trkpt lat="43.85405" lon="6.78878">
        <ele>1037</ele>
        <time>1990-12-08T17:17:06Z</time>
      </trkpt>
      <trkpt lat="43.85415" lon="6.78895">
        <ele>1034</ele>
        <time>1990-12-08T17:17:19Z</time>
      </trkpt>
      <trkpt lat="43.85422" lon="6.7892">
        <ele>1030</ele>
        <time>1990-12-08T17:17:31Z</time>
      </trkpt>
      <trkpt lat="43.8543" lon="6.78868">
        <ele>1023</ele>
        <time>1990-12-08T17:17:51Z</time>
      </trkpt>
      <trkpt lat="43.85435" lon="6.7887">
        <ele>1020</ele>
        <time>1990-12-08T17:18:02Z</time>
      </trkpt>
      <trkpt lat="43.85452" lon="6.78908">
        <ele>1015</ele>
        <time>1990-12-08T17:18:17Z</time>
      </trkpt>
      <trkpt lat="43.85455" lon="6.78925">
        <ele>1011</ele>
        <time>1990-12-08T17:18:23Z</time>
      </trkpt>
      <trkpt lat="43.85465" lon="6.789">
        <ele>1008</ele>
        <time>1990-12-08T17:18:33Z</time>
      </trkpt>
      <trkpt lat="43.85468" lon="6.7889">
        <ele>1005</ele>
        <time>1990-12-08T17:18:40Z</time>
      </trkpt>
      <trkpt lat="43.85483" lon="6.7893">
        <ele>998</ele>
        <time>1990-12-08T17:18:55Z</time>
      </trkpt>
      <trkpt lat="43.85497" lon="6.7893">
        <ele>993</ele>
        <time>1990-12-08T17:19:08Z</time>
      </trkpt>
      <trkpt lat="43.85503" lon="6.78893">
        <ele>988</ele>
        <time>1990-12-08T17:19:16Z</time>
      </trkpt>
      <trkpt lat="43.85503" lon="6.78877">
        <ele>985</ele>
        <time>1990-12-08T17:19:24Z</time>
      </trkpt>
      <trkpt lat="43.85507" lon="6.7888">
        <ele>982</ele>
        <time>1990-12-08T17:20:15Z</time>
      </trkpt>
      <trkpt lat="43.85525" lon="6.78908">
        <ele>977</ele>
        <time>1990-12-08T17:20:26Z</time>
      </trkpt>
      <trkpt lat="43.85545" lon="6.78948">
        <ele>971</ele>
        <time>1990-12-08T17:20:37Z</time>
      </trkpt>
      <trkpt lat="43.85553" lon="6.7897">
        <ele>968</ele>
        <time>1990-12-08T17:20:43Z</time>
      </trkpt>
      <trkpt lat="43.8554" lon="6.78983">
        <ele>965</ele>
        <time>1990-12-08T17:20:52Z</time>
      </trkpt>
      <trkpt lat="43.85475" lon="6.79022">
        <ele>959</ele>
        <time>1990-12-08T17:21:14Z</time>
      </trkpt>
      <trkpt lat="43.85425" lon="6.79067">
        <ele>954</ele>
        <time>1990-12-08T17:21:34Z</time>
      </trkpt>
      <trkpt lat="43.854" lon="6.79087">
        <ele>952</ele>
        <time>1990-12-08T17:21:45Z</time>
      </trkpt>
      <trkpt lat="43.85383" lon="6.79112">
        <ele>952</ele>
        <time>1990-12-08T17:25:31Z</time>
      </trkpt>
      <trkpt lat="43.85382" lon="6.79158">
        <ele>955</ele>
        <time>1990-12-08T17:25:55Z</time>
      </trkpt>
      <trkpt lat="43.85445" lon="6.79188">
        <ele>957</ele>
        <time>1990-12-08T17:26:17Z</time>
      </trkpt>
      <trkpt lat="43.85482" lon="6.79225">
        <ele>958</ele>
        <time>1990-12-08T17:26:41Z</time>
      </trkpt>
      <trkpt lat="43.85492" lon="6.79248">
        <ele>959</ele>
        <time>1990-12-08T17:26:53Z</time>
      </trkpt>
      <trkpt lat="43.85512" lon="6.79273">
        <ele>959</ele>
        <time>1990-12-08T17:27:04Z</time>
      </trkpt>
      <trkpt lat="43.85557" lon="6.79315">
        <ele>961</ele>
        <time>1990-12-08T17:27:22Z</time>
      </trkpt>
      <trkpt lat="43.85592" lon="6.79355">
        <ele>962</ele>
        <time>1990-12-08T17:27:43Z</time>
      </trkpt>
      <trkpt lat="43.85612" lon="6.79363">
        <ele>961</ele>
        <time>1990-12-08T17:28:29Z</time>
      </trkpt>
      <trkpt lat="43.85618" lon="6.7937">
        <ele>958</ele>
        <time>1990-12-08T17:28:46Z</time>
      </trkpt>
      <trkpt lat="43.85652" lon="6.79393">
        <ele>951</ele>
        <time>1990-12-08T17:28:59Z</time>
      </trkpt>
      <trkpt lat="43.85673" lon="6.79402">
        <ele>946</ele>
        <time>1990-12-08T17:29:07Z</time>
      </trkpt>
      <trkpt lat="43.85698" lon="6.79415">
        <ele>944</ele>
        <time>1990-12-08T17:30:02Z</time>
      </trkpt>
      <trkpt lat="43.8573" lon="6.7942">
        <ele>939</ele>
        <time>1990-12-08T17:30:13Z</time>
      </trkpt>
      <trkpt lat="43.85745" lon="6.79412">
        <ele>935</ele>
        <time>1990-12-08T17:30:21Z</time>
      </trkpt>
      <trkpt lat="43.85788" lon="6.79377">
        <ele>928</ele>
        <time>1990-12-08T17:30:39Z</time>
      </trkpt>
      <trkpt lat="43.85807" lon="6.79395">
        <ele>924</ele>
        <time>1990-12-08T17:30:51Z</time>
      </trkpt>
      <trkpt lat="43.85825" lon="6.79373">
        <ele>920</ele>
        <time>1990-12-08T17:31:01Z</time>
      </trkpt>
      <trkpt lat="43.85835" lon="6.79393">
        <ele>916</ele>
        <time>1990-12-08T17:31:10Z</time>
      </trkpt>
      <trkpt lat="43.85848" lon="6.79383">
        <ele>912</ele>
        <time>1990-12-08T17:31:18Z</time>
      </trkpt>
      <trkpt lat="43.85863" lon="6.79365">
        <ele>909</ele>
        <time>1990-12-08T17:31:27Z</time>
      </trkpt>
      <trkpt lat="43.85867" lon="6.79365">
        <ele>907</ele>
        <time>1990-12-08T17:33:19Z</time>
      </trkpt>
      <trkpt lat="43.85878" lon="6.79405">
        <ele>903</ele>
        <time>1990-12-08T17:33:32Z</time>
      </trkpt>
      <trkpt lat="43.85912" lon="6.79387">
        <ele>898</ele>
        <time>1990-12-08T17:33:48Z</time>
      </trkpt>
      <trkpt lat="43.85917" lon="6.79407">
        <ele>894</ele>
        <time>1990-12-08T17:33:58Z</time>
      </trkpt>
      <trkpt lat="43.8593" lon="6.79443">
        <ele>888</ele>
        <time>1990-12-08T17:34:14Z</time>
      </trkpt>
      <trkpt lat="43.85943" lon="6.79442">
        <ele>884</ele>
        <time>1990-12-08T17:36:17Z</time>
      </trkpt>
      <trkpt lat="43.85965" lon="6.79447">
        <ele>878</ele>
        <time>1990-12-08T17:36:32Z</time>
      </trkpt>
      <trkpt lat="43.85993" lon="6.7945">
        <ele>873</ele>
        <time>1990-12-08T17:36:45Z</time>
      </trkpt>
      <trkpt lat="43.86028" lon="6.79465">
        <ele>866</ele>
        <time>1990-12-08T17:37:01Z</time>
      </trkpt>
      <trkpt lat="43.8605" lon="6.7948">
        <ele>861</ele>
        <time>1990-12-08T17:37:16Z</time>
      </trkpt>
      <trkpt lat="43.86057" lon="6.7949">
        <ele>858</ele>
        <time>1990-12-08T17:37:39Z</time>
      </trkpt>
      <trkpt lat="43.86077" lon="6.7952">
        <ele>850</ele>
        <time>1990-12-08T17:38:05Z</time>
      </trkpt>
      <trkpt lat="43.86092" lon="6.79543">
        <ele>847</ele>
        <time>1990-12-08T17:38:15Z</time>
      </trkpt>
      <trkpt lat="43.861" lon="6.79562">
        <ele>844</ele>
        <time>1990-12-08T17:38:23Z</time>
      </trkpt>
      <trkpt lat="43.86092" lon="6.7957">
        <ele>842</ele>
        <time>1990-12-08T17:38:29Z</time>
      </trkpt>
      <trkpt lat="43.86083" lon="6.79565">
        <ele>840</ele>
        <time>1990-12-08T17:38:36Z</time>
      </trkpt>
      <trkpt lat="43.86087" lon="6.79585">
        <ele>836</ele>
        <time>1990-12-08T17:38:46Z</time>
      </trkpt>
      <trkpt lat="43.86088" lon="6.796">
        <ele>833</ele>
        <time>1990-12-08T17:38:59Z</time>
      </trkpt>
      <trkpt lat="43.86072" lon="6.79593">
        <ele>830</ele>
        <time>1990-12-08T17:39:12Z</time>
      </trkpt>
      <trkpt lat="43.86073" lon="6.79602">
        <ele>828</ele>
        <time>1990-12-08T17:39:17Z</time>
      </trkpt>
      <trkpt lat="43.8609" lon="6.79628">
        <ele>822</ele>
        <time>1990-12-08T17:39:39Z</time>
      </trkpt>
      <trkpt lat="43.86102" lon="6.79643">
        <ele>818</ele>
        <time>1990-12-08T17:40:12Z</time>
      </trkpt>
      <trkpt lat="43.86107" lon="6.79655">
        <ele>814</ele>
        <time>1990-12-08T17:40:33Z</time>
      </trkpt>
      <trkpt lat="43.86087" lon="6.7966">
        <ele>810</ele>
        <time>1990-12-08T17:41:06Z</time>
      </trkpt>
      <trkpt lat="43.86075" lon="6.79667">
        <ele>806</ele>
        <time>1990-12-08T17:41:33Z</time>
      </trkpt>
      <trkpt lat="43.86075" lon="6.79677">
        <ele>804</ele>
        <time>1990-12-08T17:41:41Z</time>
      </trkpt>
      <trkpt lat="43.86088" lon="6.79692">
        <ele>801</ele>
        <time>1990-12-08T17:41:50Z</time>
      </trkpt>
      <trkpt lat="43.86103" lon="6.79722">
        <ele>796</ele>
        <time>1990-12-08T17:42:12Z</time>
      </trkpt>
      <trkpt lat="43.86113" lon="6.79747">
        <ele>793</ele>
        <time>1990-12-08T17:42:22Z</time>
      </trkpt>
      <trkpt lat="43.86117" lon="6.79758">
        <ele>791</ele>
        <time>1990-12-08T17:42:26Z</time>
      </trkpt>
      <trkpt lat="43.86128" lon="6.79773">
        <ele>788</ele>
        <time>1990-12-08T17:42:34Z</time>
      </trkpt>
      <trkpt lat="43.86122" lon="6.7978">
        <ele>786</ele>
        <time>1990-12-08T17:42:43Z</time>
      </trkpt>
      <trkpt lat="43.86103" lon="6.79773">
        <ele>780</ele>
        <time>1990-12-08T17:43:11Z</time>
      </trkpt>
      <trkpt lat="43.86093" lon="6.79785">
        <ele>779</ele>
        <time>1990-12-08T17:43:27Z</time>
      </trkpt>
      <trkpt lat="43.8612" lon="6.79818">
        <ele>781</ele>
        <time>1990-12-08T17:43:54Z</time>
      </trkpt>
      <trkpt lat="43.86137" lon="6.79843">
        <ele>781</ele>
        <time>1990-12-08T17:44:24Z</time>
      </trkpt>
      <trkpt lat="43.8615" lon="6.79865">
        <ele>777</ele>
        <time>1990-12-08T17:49:25Z</time>
      </trkpt>
      <trkpt lat="43.86167" lon="6.79898">
        <ele>774</ele>
        <time>1990-12-08T17:49:42Z</time>
      </trkpt>
      <trkpt lat="43.86177" lon="6.79927">
        <ele>773</ele>
        <time>1990-12-08T17:49:56Z</time>
      </trkpt>
      <trkpt lat="43.86185" lon="6.79935">
        <ele>771</ele>
        <time>1990-12-08T17:51:18Z</time>
      </trkpt>
      <trkpt lat="43.86205" lon="6.79985">
        <ele>764</ele>
        <time>1990-12-08T17:51:38Z</time>
      </trkpt>
      <trkpt lat="43.86225" lon="6.80035">
        <ele>762</ele>
        <time>1990-12-08T17:51:55Z</time>
      </trkpt>
      <trkpt lat="43.86242" lon="6.80148">
        <ele>759</ele>
        <time>1990-12-08T17:52:21Z</time>
      </trkpt>
      <trkpt lat="43.86247" lon="6.80182">
        <ele>756</ele>
        <time>1990-12-08T17:52:28Z</time>
      </trkpt>
      <trkpt lat="43.86263" lon="6.80222">
        <ele>752</ele>
        <time>1990-12-08T17:52:41Z</time>
      </trkpt>
      <trkpt lat="43.86272" lon="6.8022">
        <ele>750</ele>
        <time>1990-12-08T17:52:44Z</time>
      </trkpt>
      <trkpt lat="43.8628" lon="6.80257">
        <ele>745</ele>
        <time>1990-12-08T17:52:57Z</time>
      </trkpt>
      <trkpt lat="43.86278" lon="6.80275">
        <ele>743</ele>
        <time>1990-12-08T17:53:05Z</time>
      </trkpt>
      <trkpt lat="43.86267" lon="6.80372">
        <ele>742</ele>
        <time>1990-12-08T17:53:29Z</time>
      </trkpt>
      <trkpt lat="43.86255" lon="6.80422">
        <ele>741</ele>
        <time>1990-12-08T17:53:43Z</time>
      </trkpt>
      <trkpt lat="43.86247" lon="6.80522">
        <ele>741</ele>
        <time>1990-12-08T17:54:09Z</time>
      </trkpt>
      <trkpt lat="43.86248" lon="6.80623">
        <ele>739</ele>
        <time>1990-12-08T17:54:34Z</time>
      </trkpt>
      <trkpt lat="43.86248" lon="6.80697">
        <ele>737</ele>
        <time>1990-12-08T17:54:55Z</time>
      </trkpt>
      <trkpt lat="43.86247" lon="6.80705">
        <ele>736</ele>
        <time>1990-12-08T17:55:20Z</time>
      </trkpt>
      <trkpt lat="43.8622" lon="6.80713">
        <ele>737</ele>
        <time>1990-12-08T17:57:14Z</time>
      </trkpt>
      <trkpt lat="43.8618" lon="6.80708">
        <ele>739</ele>
        <time>1990-12-08T17:57:35Z</time>
      </trkpt>
      <trkpt lat="43.86175" lon="6.80762">
        <ele>744</ele>
        <time>1990-12-08T17:57:59Z</time>
      </trkpt>
      <trkpt lat="43.86122" lon="6.80807">
        <ele>743</ele>
        <time>1990-12-08T17:58:26Z</time>
      </trkpt>
      <trkpt lat="43.86085" lon="6.80845">
        <ele>748</ele>
        <time>1990-12-08T17:58:53Z</time>
      </trkpt>
      <trkpt lat="43.86045" lon="6.8088">
        <ele>750</ele>
        <time>1990-12-08T17:59:18Z</time>
      </trkpt>
      <trkpt lat="43.86032" lon="6.80908">
        <ele>753</ele>
        <time>1990-12-08T17:59:34Z</time>
      </trkpt>
      <trkpt lat="43.86015" lon="6.80938">
        <ele>757</ele>
        <time>1990-12-08T17:59:53Z</time>
      </trkpt>
      <trkpt lat="43.86" lon="6.81005">
        <ele>760</ele>
        <time>1990-12-08T18:00:21Z</time>
      </trkpt>
      <trkpt lat="43.85983" lon="6.8105">
        <ele>765</ele>
        <time>1990-12-08T18:00:43Z</time>
      </trkpt>
      <trkpt lat="43.8597" lon="6.81083">
        <ele>768</ele>
        <time>1990-12-08T18:00:58Z</time>
      </trkpt>
      <trkpt lat="43.85968" lon="6.81133">
        <ele>770</ele>
        <time>1990-12-08T18:01:22Z</time>
      </trkpt>
      <trkpt lat="43.85955" lon="6.8119">
        <ele>767</ele>
        <time>1990-12-08T18:01:42Z</time>
      </trkpt>
      <trkpt lat="43.85918" lon="6.81233">
        <ele>767</ele>
        <time>1990-12-08T18:01:56Z</time>
      </trkpt>
      <trkpt lat="43.859" lon="6.81282">
        <ele>764</ele>
        <time>1990-12-08T18:02:08Z</time>
      </trkpt>
      <trkpt lat="43.85872" lon="6.81288">
        <ele>761</ele>
        <time>1990-12-08T18:02:13Z</time>
      </trkpt>
      <trkpt lat="43.85807" lon="6.81272">
        <ele>759</ele>
        <time>1990-12-08T18:02:26Z</time>
      </trkpt>
      <trkpt lat="43.85822" lon="6.81293">
        <ele>761</ele>
        <time>1990-12-08T18:02:37Z</time>
      </trkpt>
      <trkpt lat="43.85833" lon="6.81325">
        <ele>763</ele>
        <time>1990-12-08T18:02:58Z</time>
      </trkpt>
      <trkpt lat="43.85835" lon="6.81393">
        <ele>762</ele>
        <time>1990-12-08T18:03:15Z</time>
      </trkpt>
      <trkpt lat="43.85857" lon="6.81505">
        <ele>759</ele>
        <time>1990-12-08T18:03:34Z</time>
      </trkpt>
      <trkpt lat="43.85843" lon="6.81613">
        <ele>753</ele>
        <time>1990-12-08T18:03:47Z</time>
      </trkpt>
      <trkpt lat="43.85822" lon="6.81675">
        <ele>753</ele>
        <time>1990-12-08T18:03:57Z</time>
      </trkpt>
      <trkpt lat="43.8579" lon="6.81738">
        <ele>749</ele>
        <time>1990-12-08T18:04:05Z</time>
      </trkpt>
      <trkpt lat="43.8578" lon="6.81797">
        <ele>748</ele>
        <time>1990-12-08T18:04:11Z</time>
      </trkpt>
      <trkpt lat="43.85752" lon="6.81858">
        <ele>749</ele>
        <time>1990-12-08T18:04:25Z</time>
      </trkpt>
      <trkpt lat="43.85752" lon="6.81905">
        <ele>753</ele>
        <time>1990-12-08T18:04:42Z</time>
      </trkpt>
      <trkpt lat="43.85752" lon="6.81967">
        <ele>753</ele>
        <time>1990-12-08T18:05:05Z</time>
      </trkpt>
      <trkpt lat="43.85762" lon="6.82012">
        <ele>748</ele>
        <time>1990-12-08T18:05:15Z</time>
      </trkpt>
      <trkpt lat="43.8577" lon="6.82047">
        <ele>746</ele>
        <time>1990-12-08T18:05:19Z</time>
      </trkpt>
      <trkpt lat="43.85777" lon="6.82137">
        <ele>745</ele>
        <time>1990-12-08T18:05:34Z</time>
      </trkpt>
      <trkpt lat="43.8579" lon="6.82227">
        <ele>743</ele>
        <time>1990-12-08T18:05:48Z</time>
      </trkpt>
      <trkpt lat="43.85775" lon="6.82297">
        <ele>739</ele>
        <time>1990-12-08T18:05:57Z</time>
      </trkpt>
      <trkpt lat="43.85772" lon="6.82358">
        <ele>739</ele>
        <time>1990-12-08T18:06:06Z</time>
      </trkpt>
      <trkpt lat="43.85793" lon="6.82415">
        <ele>739</ele>
        <time>1990-12-08T18:06:22Z</time>
      </trkpt>
      <trkpt lat="43.85772" lon="6.82512">
        <ele>737</ele>
        <time>1990-12-08T18:06:37Z</time>
      </trkpt>
      <trkpt lat="43.85762" lon="6.82562">
        <ele>737</ele>
        <time>1990-12-08T18:06:48Z</time>
      </trkpt>
      <trkpt lat="43.85797" lon="6.82622">
        <ele>732</ele>
        <time>1990-12-08T18:07:00Z</time>
      </trkpt>
      <trkpt lat="43.85827" lon="6.82667">
        <ele>728</ele>
        <time>1990-12-08T18:07:07Z</time>
      </trkpt>
      <trkpt lat="43.85857" lon="6.8275">
        <ele>723</ele>
        <time>1990-12-08T18:07:20Z</time>
      </trkpt>
      <trkpt lat="43.85873" lon="6.828">
        <ele>718</ele>
        <time>1990-12-08T18:07:33Z</time>
      </trkpt>
      <trkpt lat="43.85888" lon="6.82822">
        <ele>714</ele>
        <time>1990-12-08T18:07:40Z</time>
      </trkpt>
      <trkpt lat="43.85895" lon="6.8284">
        <ele>712</ele>
        <time>1990-12-08T18:07:45Z</time>
      </trkpt>
      <trkpt lat="43.85922" lon="6.82877">
        <ele>707</ele>
        <time>1990-12-08T18:07:54Z</time>
      </trkpt>
      <trkpt lat="43.85978" lon="6.82952">
        <ele>700</ele>
        <time>1990-12-08T18:08:06Z</time>
      </trkpt>
      <trkpt lat="43.86028" lon="6.83027">
        <ele>700</ele>
        <time>1990-12-08T18:08:20Z</time>
      </trkpt>
      <trkpt lat="43.86057" lon="6.83072">
        <ele>697</ele>
        <time>1990-12-08T18:08:28Z</time>
      </trkpt>
      <trkpt lat="43.86085" lon="6.831">
        <ele>696</ele>
        <time>1990-12-08T18:08:34Z</time>
      </trkpt>
      <trkpt lat="43.86112" lon="6.83235">
        <ele>693</ele>
        <time>1990-12-08T18:08:52Z</time>
      </trkpt>
      <trkpt lat="43.86113" lon="6.83315">
        <ele>691</ele>
        <time>1990-12-08T18:09:06Z</time>
      </trkpt>
      <trkpt lat="43.86127" lon="6.8342">
        <ele>690</ele>
        <time>1990-12-08T18:09:30Z</time>
      </trkpt>
      <trkpt lat="43.86123" lon="6.83455">
        <ele>696</ele>
        <time>1990-12-08T18:10:18Z</time>
      </trkpt>
      <trkpt lat="43.8613" lon="6.83505">
        <ele>700</ele>
        <time>1990-12-08T18:10:59Z</time>
      </trkpt>
      <trkpt lat="43.86135" lon="6.83528">
        <ele>699</ele>
        <time>1990-12-08T18:11:12Z</time>
      </trkpt>
      <trkpt lat="43.86145" lon="6.83555">
        <ele>698</ele>
        <time>1990-12-08T18:11:21Z</time>
      </trkpt>
      <trkpt lat="43.86153" lon="6.83587">
        <ele>700</ele>
        <time>1990-12-08T18:11:35Z</time>
      </trkpt>
      <trkpt lat="43.86157" lon="6.83615">
        <ele>702</ele>
        <time>1990-12-08T18:12:10Z</time>
      </trkpt>
      <trkpt lat="43.86153" lon="6.83638">
        <ele>701</ele>
        <time>1990-12-08T18:12:25Z</time>
      </trkpt>
      <trkpt lat="43.86147" lon="6.83655">
        <ele>703</ele>
        <time>1990-12-08T18:12:36Z</time>
      </trkpt>
      <trkpt lat="43.86148" lon="6.83668">
        <ele>701</ele>
        <time>1990-12-08T18:12:43Z</time>
      </trkpt>
      <trkpt lat="43.86155" lon="6.8368">
        <ele>699</ele>
        <time>1990-12-08T18:12:49Z</time>
      </trkpt>
      <trkpt lat="43.86167" lon="6.83715">
        <ele>700</ele>
        <time>1990-12-08T18:13:23Z</time>
      </trkpt>
      <trkpt lat="43.86177" lon="6.83728">
        <ele>699</ele>
        <time>1990-12-08T18:15:02Z</time>
      </trkpt>
      <trkpt lat="43.86178" lon="6.83735">
        <ele>697</ele>
        <time>1990-12-08T18:15:13Z</time>
      </trkpt>
      <trkpt lat="43.86183" lon="6.8375">
        <ele>695</ele>
        <time>1990-12-08T18:15:18Z</time>
      </trkpt>
      <trkpt lat="43.86197" lon="6.8375">
        <ele>690</ele>
        <time>1990-12-08T18:15:30Z</time>
      </trkpt>
      <trkpt lat="43.86207" lon="6.8376">
        <ele>684</ele>
        <time>1990-12-08T18:15:48Z</time>
      </trkpt>
      <trkpt lat="43.86223" lon="6.83768">
        <ele>683</ele>
        <time>1990-12-08T18:15:59Z</time>
      </trkpt>
      <trkpt lat="43.86262" lon="6.83825">
        <ele>682</ele>
        <time>1990-12-08T18:16:22Z</time>
      </trkpt>
      <trkpt lat="43.86278" lon="6.83865">
        <ele>681</ele>
        <time>1990-12-08T18:16:36Z</time>
      </trkpt>
      <trkpt lat="43.86285" lon="6.83918">
        <ele>682</ele>
        <time>1990-12-08T18:16:56Z</time>
      </trkpt>
      <trkpt lat="43.86278" lon="6.83935">
        <ele>684</ele>
        <time>1990-12-08T18:17:13Z</time>
      </trkpt>
      <trkpt lat="43.86285" lon="6.83983">
        <ele>683</ele>
        <time>1990-12-08T18:17:28Z</time>
      </trkpt>
      <trkpt lat="43.86313" lon="6.8405">
        <ele>682</ele>
        <time>1990-12-08T18:17:51Z</time>
      </trkpt>
      <trkpt lat="43.86325" lon="6.8408">
        <ele>684</ele>
        <time>1990-12-08T18:18:16Z</time>
      </trkpt>
      <trkpt lat="43.86338" lon="6.84103">
        <ele>684</ele>
        <time>1990-12-08T18:18:29Z</time>
      </trkpt>
      <trkpt lat="43.86343" lon="6.84108">
        <ele>686</ele>
        <time>1990-12-08T18:18:34Z</time>
      </trkpt>
      <trkpt lat="43.86372" lon="6.84172">
        <ele>685</ele>
        <time>1990-12-08T18:19:00Z</time>
      </trkpt>
      <trkpt lat="43.86407" lon="6.8423">
        <ele>680</ele>
        <time>1990-12-08T18:19:18Z</time>
      </trkpt>
      <trkpt lat="43.86435" lon="6.84277">
        <ele>680</ele>
        <time>1990-12-08T18:19:42Z</time>
      </trkpt>
      <trkpt lat="43.86448" lon="6.84298">
        <ele>680</ele>
        <time>1990-12-08T18:19:59Z</time>
      </trkpt>
      <trkpt lat="43.86462" lon="6.84332">
        <ele>680</ele>
        <time>1990-12-08T18:20:14Z</time>
      </trkpt>
      <trkpt lat="43.86482" lon="6.8435">
        <ele>680</ele>
        <time>1990-12-08T18:20:23Z</time>
      </trkpt>
      <trkpt lat="43.86503" lon="6.84368">
        <ele>680</ele>
        <time>1990-12-08T18:20:34Z</time>
      </trkpt>
      <trkpt lat="43.86507" lon="6.84382">
        <ele>682</ele>
        <time>1990-12-08T18:20:40Z</time>
      </trkpt>
      <trkpt lat="43.86512" lon="6.84433">
        <ele>685</ele>
        <time>1990-12-08T18:21:04Z</time>
      </trkpt>
      <trkpt lat="43.86513" lon="6.84468">
        <ele>685</ele>
        <time>1990-12-08T18:21:19Z</time>
      </trkpt>
      <trkpt lat="43.86518" lon="6.84492">
        <ele>687</ele>
        <time>1990-12-08T18:21:31Z</time>
      </trkpt>
      <trkpt lat="43.8652" lon="6.8452">
        <ele>692</ele>
        <time>1990-12-08T18:21:44Z</time>
      </trkpt>
      <trkpt lat="43.8652" lon="6.84538">
        <ele>696</ele>
        <time>1990-12-08T18:21:54Z</time>
      </trkpt>
      <trkpt lat="43.8652" lon="6.84563">
        <ele>700</ele>
        <time>1990-12-08T18:22:14Z</time>
      </trkpt>
      <trkpt lat="43.8652" lon="6.8457">
        <ele>700</ele>
        <time>1990-12-08T18:22:44Z</time>
      </trkpt>
      <trkpt lat="43.8652" lon="6.8457">
        <ele>700</ele>
        <time>1990-12-08T18:22:54Z</time>
      </trkpt>
      <trkpt lat="43.8652" lon="6.84568">
        <ele>700</ele>
        <time>1990-12-08T18:24:33Z</time>
      </trkpt>
      <trkpt lat="43.86518" lon="6.84612">
        <ele>704</ele>
        <time>1990-12-08T18:24:54Z</time>
      </trkpt>
      <trkpt lat="43.86507" lon="6.84638">
        <ele>709</ele>
        <time>1990-12-08T18:25:10Z</time>
      </trkpt>
      <trkpt lat="43.86502" lon="6.84652">
        <ele>712</ele>
        <time>1990-12-08T18:25:18Z</time>
      </trkpt>
      <trkpt lat="43.865" lon="6.84672">
        <ele>716</ele>
        <time>1990-12-08T18:25:36Z</time>
      </trkpt>
      <trkpt lat="43.86497" lon="6.84695">
        <ele>719</ele>
        <time>1990-12-08T18:25:55Z</time>
      </trkpt>
      <trkpt lat="43.8649" lon="6.84728">
        <ele>722</ele>
        <time>1990-12-08T18:26:19Z</time>
      </trkpt>
      <trkpt lat="43.86487" lon="6.84747">
        <ele>724</ele>
        <time>1990-12-08T18:26:58Z</time>
      </trkpt>
      <trkpt lat="43.86487" lon="6.8479">
        <ele>724</ele>
        <time>1990-12-08T18:28:33Z</time>
      </trkpt>
      <trkpt lat="43.86482" lon="6.84825">
        <ele>726</ele>
        <time>1990-12-08T18:28:51Z</time>
      </trkpt>
      <trkpt lat="43.86472" lon="6.8487">
        <ele>731</ele>
        <time>1990-12-08T18:29:25Z</time>
      </trkpt>
      <trkpt lat="43.86468" lon="6.84883">
        <ele>731</ele>
        <time>1990-12-08T18:30:04Z</time>
      </trkpt>
      <trkpt lat="43.86462" lon="6.84917">
        <ele>733</ele>
        <time>1990-12-08T18:30:22Z</time>
      </trkpt>
      <trkpt lat="43.86448" lon="6.84953">
        <ele>735</ele>
        <time>1990-12-08T18:30:44Z</time>
      </trkpt>
      <trkpt lat="43.86453" lon="6.84967">
        <ele>734</ele>
        <time>1990-12-08T18:30:52Z</time>
      </trkpt>
      <trkpt lat="43.86467" lon="6.85035">
        <ele>735</ele>
        <time>1990-12-08T18:31:19Z</time>
      </trkpt>
      <trkpt lat="43.86467" lon="6.85053">
        <ele>736</ele>
        <time>1990-12-08T18:31:27Z</time>
      </trkpt>
      <trkpt lat="43.86475" lon="6.85107">
        <ele>739</ele>
        <time>1990-12-08T18:31:55Z</time>
      </trkpt>
      <trkpt lat="43.86485" lon="6.85138">
        <ele>741</ele>
        <time>1990-12-08T18:32:15Z</time>
      </trkpt>
      <trkpt lat="43.8651" lon="6.85143">
        <ele>743</ele>
        <time>1990-12-08T18:32:35Z</time>
      </trkpt>
      <trkpt lat="43.86537" lon="6.85158">
        <ele>743</ele>
        <time>1990-12-08T18:32:48Z</time>
      </trkpt>
      <trkpt lat="43.86547" lon="6.8518">
        <ele>742</ele>
        <time>1990-12-08T18:32:58Z</time>
      </trkpt>
      <trkpt lat="43.8656" lon="6.85212">
        <ele>747</ele>
        <time>1990-12-08T18:33:31Z</time>
      </trkpt>
      <trkpt lat="43.86562" lon="6.8524">
        <ele>751</ele>
        <time>1990-12-08T18:33:53Z</time>
      </trkpt>
      <trkpt lat="43.8655" lon="6.85258">
        <ele>752</ele>
        <time>1990-12-08T18:34:13Z</time>
      </trkpt>
      <trkpt lat="43.86543" lon="6.85278">
        <ele>754</ele>
        <time>1990-12-08T18:34:27Z</time>
      </trkpt>
      <trkpt lat="43.86537" lon="6.85298">
        <ele>756</ele>
        <time>1990-12-08T18:34:41Z</time>
      </trkpt>
      <trkpt lat="43.86527" lon="6.85328">
        <ele>759</ele>
        <time>1990-12-08T18:35:00Z</time>
      </trkpt>
      <trkpt lat="43.86522" lon="6.85377">
        <ele>763</ele>
        <time>1990-12-08T18:35:29Z</time>
      </trkpt>
      <trkpt lat="43.86518" lon="6.8539">
        <ele>764</ele>
        <time>1990-12-08T18:35:58Z</time>
      </trkpt>
      <trkpt lat="43.86502" lon="6.8543">
        <ele>766</ele>
        <time>1990-12-08T18:36:19Z</time>
      </trkpt>
      <trkpt lat="43.86495" lon="6.85467">
        <ele>768</ele>
        <time>1990-12-08T18:36:38Z</time>
      </trkpt>
      <trkpt lat="43.86488" lon="6.85492">
        <ele>769</ele>
        <time>1990-12-08T18:36:51Z</time>
      </trkpt>
      <trkpt lat="43.86483" lon="6.85507">
        <ele>769</ele>
        <time>1990-12-08T18:36:59Z</time>
      </trkpt>
      <trkpt lat="43.8648" lon="6.8555">
        <ele>771</ele>
        <time>1990-12-08T18:37:21Z</time>
      </trkpt>
      <trkpt lat="43.86498" lon="6.85593">
        <ele>774</ele>
        <time>1990-12-08T18:37:50Z</time>
      </trkpt>
      <trkpt lat="43.8652" lon="6.8562">
        <ele>776</ele>
        <time>1990-12-08T18:38:12Z</time>
      </trkpt>
      <trkpt lat="43.86533" lon="6.85637">
        <ele>776</ele>
        <time>1990-12-08T18:40:54Z</time>
      </trkpt>
      <trkpt lat="43.8655" lon="6.85665">
        <ele>773</ele>
        <time>1990-12-08T18:41:15Z</time>
      </trkpt>
      <trkpt lat="43.86557" lon="6.85677">
        <ele>771</ele>
        <time>1990-12-08T18:41:47Z</time>
      </trkpt>
      <trkpt lat="43.86548" lon="6.85692">
        <ele>768</ele>
        <time>1990-12-08T18:42:03Z</time>
      </trkpt>
      <trkpt lat="43.86545" lon="6.85708">
        <ele>766</ele>
        <time>1990-12-08T18:42:14Z</time>
      </trkpt>
      <trkpt lat="43.86552" lon="6.85765">
        <ele>761</ele>
        <time>1990-12-08T18:42:32Z</time>
      </trkpt>
      <trkpt lat="43.86557" lon="6.85795">
        <ele>759</ele>
        <time>1990-12-08T18:42:43Z</time>
      </trkpt>
      <trkpt lat="43.86567" lon="6.85852">
        <ele>755</ele>
        <time>1990-12-08T18:43:01Z</time>
      </trkpt>
      <trkpt lat="43.86573" lon="6.85878">
        <ele>750</ele>
        <time>1990-12-08T18:43:30Z</time>
      </trkpt>
      <trkpt lat="43.86575" lon="6.85893">
        <ele>748</ele>
        <time>1990-12-08T18:44:28Z</time>
      </trkpt>
      <trkpt lat="43.86572" lon="6.85912">
        <ele>741</ele>
        <time>1990-12-08T18:45:22Z</time>
      </trkpt>
      <trkpt lat="43.86563" lon="6.8593">
        <ele>737</ele>
        <time>1990-12-08T18:45:36Z</time>
      </trkpt>
      <trkpt lat="43.86567" lon="6.85967">
        <ele>731</ele>
        <time>1990-12-08T18:45:51Z</time>
      </trkpt>
      <trkpt lat="43.86578" lon="6.85998">
        <ele>728</ele>
        <time>1990-12-08T18:45:58Z</time>
      </trkpt>
      <trkpt lat="43.86608" lon="6.86043">
        <ele>729</ele>
        <time>1990-12-08T18:46:17Z</time>
      </trkpt>
      <trkpt lat="43.86628" lon="6.86072">
        <ele>728</ele>
        <time>1990-12-08T18:46:34Z</time>
      </trkpt>
      <trkpt lat="43.86632" lon="6.86095">
        <ele>725</ele>
        <time>1990-12-08T18:46:45Z</time>
      </trkpt>
      <trkpt lat="43.86633" lon="6.86108">
        <ele>723</ele>
        <time>1990-12-08T18:47:00Z</time>
      </trkpt>
      <trkpt lat="43.86617" lon="6.86117">
        <ele>718</ele>
        <time>1990-12-08T18:47:09Z</time>
      </trkpt>
      <trkpt lat="43.8661" lon="6.86117">
        <ele>715</ele>
        <time>1990-12-08T18:47:21Z</time>
      </trkpt>
      <trkpt lat="43.86613" lon="6.8614">
        <ele>711</ele>
        <time>1990-12-08T18:47:33Z</time>
      </trkpt>
      <trkpt lat="43.86607" lon="6.86148">
        <ele>708</ele>
        <time>1990-12-08T18:47:39Z</time>
      </trkpt>
      <trkpt lat="43.86608" lon="6.86175">
        <ele>704</ele>
        <time>1990-12-08T18:47:48Z</time>
      </trkpt>
      <trkpt lat="43.86617" lon="6.86198">
        <ele>701</ele>
        <time>1990-12-08T18:48:24Z</time>
      </trkpt>
      <trkpt lat="43.8662" lon="6.86205">
        <ele>698</ele>
        <time>1990-12-08T18:49:09Z</time>
      </trkpt>
      <trkpt lat="43.86642" lon="6.86217">
        <ele>694</ele>
        <time>1990-12-08T18:49:20Z</time>
      </trkpt>
      <trkpt lat="43.8666" lon="6.86228">
        <ele>690</ele>
        <time>1990-12-08T18:49:30Z</time>
      </trkpt>
      <trkpt lat="43.8668" lon="6.86243">
        <ele>688</ele>
        <time>1990-12-08T18:49:40Z</time>
      </trkpt>
      <trkpt lat="43.86687" lon="6.86252">
        <ele>687</ele>
        <time>1990-12-08T18:50:46Z</time>
      </trkpt>
      <trkpt lat="43.86705" lon="6.86265">
        <ele>684</ele>
        <time>1990-12-08T18:51:05Z</time>
      </trkpt>
      <trkpt lat="43.86717" lon="6.86268">
        <ele>681</ele>
        <time>1990-12-08T18:51:12Z</time>
      </trkpt>
      <trkpt lat="43.86738" lon="6.86222">
        <ele>679</ele>
        <time>1990-12-08T18:51:33Z</time>
      </trkpt>
      <trkpt lat="43.86742" lon="6.8623">
        <ele>680</ele>
        <time>1990-12-08T18:51:40Z</time>
      </trkpt>
      <trkpt lat="43.86762" lon="6.86287">
        <ele>674</ele>
        <time>1990-12-08T18:52:05Z</time>
      </trkpt>
      <trkpt lat="43.8678" lon="6.8631">
        <ele>670</ele>
        <time>1990-12-08T18:52:19Z</time>
      </trkpt>
      <trkpt lat="43.86788" lon="6.86322">
        <ele>670</ele>
        <time>1990-12-08T18:52:26Z</time>
      </trkpt>
      <trkpt lat="43.86828" lon="6.86355">
        <ele>663</ele>
        <time>1990-12-08T18:52:45Z</time>
      </trkpt>
      <trkpt lat="43.86837" lon="6.86355">
        <ele>662</ele>
        <time>1990-12-08T18:52:51Z</time>
      </trkpt>
      <trkpt lat="43.86847" lon="6.86377">
        <ele>662</ele>
        <time>1990-12-08T18:54:20Z</time>
      </trkpt>
      <trkpt lat="43.86885" lon="6.8643">
        <ele>663</ele>
        <time>1990-12-08T18:54:48Z</time>
      </trkpt>
      <trkpt lat="43.86923" lon="6.8647">
        <ele>665</ele>
        <time>1990-12-08T18:55:11Z</time>
      </trkpt>
      <trkpt lat="43.8697" lon="6.8651">
        <ele>663</ele>
        <time>1990-12-08T18:55:34Z</time>
      </trkpt>
      <trkpt lat="43.86988" lon="6.86523">
        <ele>663</ele>
        <time>1990-12-08T18:55:44Z</time>
      </trkpt>
      <trkpt lat="43.87013" lon="6.86563">
        <ele>656</ele>
        <time>1990-12-08T18:56:05Z</time>
      </trkpt>
      <trkpt lat="43.87028" lon="6.86593">
        <ele>650</ele>
        <time>1990-12-08T18:56:23Z</time>
      </trkpt>
      <trkpt lat="43.87045" lon="6.86587">
        <ele>647</ele>
        <time>1990-12-08T18:57:27Z</time>
      </trkpt>
      <trkpt lat="43.87058" lon="6.86582">
        <ele>645</ele>
        <time>1990-12-08T18:57:35Z</time>
      </trkpt>
      <trkpt lat="43.87073" lon="6.866">
        <ele>640</ele>
        <time>1990-12-08T18:58:03Z</time>
      </trkpt>
      <trkpt lat="43.87073" lon="6.86622">
        <ele>636</ele>
        <time>1990-12-08T18:58:56Z</time>
      </trkpt>
      <trkpt lat="43.87078" lon="6.86635">
        <ele>632</ele>
        <time>1990-12-08T18:59:10Z</time>
      </trkpt>
      <trkpt lat="43.8709" lon="6.8664">
        <ele>629</ele>
        <time>1990-12-08T18:59:41Z</time>
      </trkpt>
      <trkpt lat="43.87102" lon="6.86663">
        <ele>626</ele>
        <time>1990-12-08T18:59:57Z</time>
      </trkpt>
      <trkpt lat="43.87123" lon="6.86678">
        <ele>625</ele>
        <time>1990-12-08T19:00:13Z</time>
      </trkpt>
      <trkpt lat="43.87132" lon="6.86685">
        <ele>623</ele>
        <time>1990-12-08T19:00:29Z</time>
      </trkpt>
      <trkpt lat="43.87135" lon="6.8671">
        <ele>621</ele>
        <time>1990-12-08T19:00:49Z</time>
      </trkpt>
      <trkpt lat="43.87135" lon="6.86742">
        <ele>617</ele>
        <time>1990-12-08T19:01:00Z</time>
      </trkpt>
      <trkpt lat="43.87138" lon="6.86762">
        <ele>613</ele>
        <time>1990-12-08T19:01:06Z</time>
      </trkpt>
      <trkpt lat="43.87152" lon="6.86802">
        <ele>605</ele>
        <time>1990-12-08T19:01:20Z</time>
      </trkpt>
      <trkpt lat="43.87173" lon="6.86875">
        <ele>600</ele>
        <time>1990-12-08T19:01:41Z</time>
      </trkpt>
      <trkpt lat="43.87185" lon="6.86895">
        <ele>600</ele>
        <time>1990-12-08T19:01:55Z</time>
      </trkpt>
      <trkpt lat="43.87178" lon="6.8693">
        <ele>601</ele>
        <time>1990-12-08T19:02:57Z</time>
      </trkpt>
      <trkpt lat="43.87233" lon="6.86888">
        <ele>596</ele>
        <time>1990-12-08T19:06:10Z</time>
      </trkpt>
      <trkpt lat="43.87283" lon="6.86865">
        <ele>593</ele>
        <time>1990-12-08T19:06:36Z</time>
      </trkpt>
      <trkpt lat="43.873" lon="6.86855">
        <ele>594</ele>
        <time>1990-12-08T19:06:46Z</time>
      </trkpt>
      <trkpt lat="43.87333" lon="6.86832">
        <ele>598</ele>
        <time>1990-12-08T19:07:10Z</time>
      </trkpt>
      <trkpt lat="43.87362" lon="6.86835">
        <ele>600</ele>
        <time>1990-12-08T19:07:29Z</time>
      </trkpt>
      <trkpt lat="43.87407" lon="6.86832">
        <ele>601</ele>
        <time>1990-12-08T19:07:55Z</time>
      </trkpt>
      <trkpt lat="43.87485" lon="6.86777">
        <ele>604</ele>
        <time>1990-12-08T19:08:24Z</time>
      </trkpt>
      <trkpt lat="43.87545" lon="6.86747">
        <ele>608</ele>
        <time>1990-12-08T19:08:53Z</time>
      </trkpt>
      <trkpt lat="43.87587" lon="6.86677">
        <ele>613</ele>
        <time>1990-12-08T19:09:28Z</time>
      </trkpt>
      <trkpt lat="43.87625" lon="6.8665">
        <ele>614</ele>
        <time>1990-12-08T19:09:54Z</time>
      </trkpt>
      <trkpt lat="43.87673" lon="6.86635">
        <ele>618</ele>
        <time>1990-12-08T19:10:22Z</time>
      </trkpt>
      <trkpt lat="43.877" lon="6.86623">
        <ele>618</ele>
        <time>1990-12-08T19:10:38Z</time>
      </trkpt>
      <trkpt lat="43.8772" lon="6.86617">
        <ele>619</ele>
        <time>1990-12-08T19:10:51Z</time>
      </trkpt>
      <trkpt lat="43.87743" lon="6.86612">
        <ele>619</ele>
        <time>1990-12-08T19:11:08Z</time>
      </trkpt>
      <trkpt lat="43.87783" lon="6.86577">
        <ele>619</ele>
        <time>1990-12-08T19:11:35Z</time>
      </trkpt>
      <trkpt lat="43.87788" lon="6.86557">
        <ele>621</ele>
        <time>1990-12-08T19:11:50Z</time>
      </trkpt>
      <trkpt lat="43.87808" lon="6.86517">
        <ele>624</ele>
        <time>1990-12-08T19:12:16Z</time>
      </trkpt>
      <trkpt lat="43.87823" lon="6.8646">
        <ele>628</ele>
        <time>1990-12-08T19:12:49Z</time>
      </trkpt>
      <trkpt lat="43.87853" lon="6.8645">
        <ele>630</ele>
        <time>1990-12-08T19:13:13Z</time>
      </trkpt>
      <trkpt lat="43.87898" lon="6.8642">
        <ele>633</ele>
        <time>1990-12-08T19:13:44Z</time>
      </trkpt>
      <trkpt lat="43.87927" lon="6.86347">
        <ele>637</ele>
        <time>1990-12-08T19:14:20Z</time>
      </trkpt>
      <trkpt lat="43.8794" lon="6.86302">
        <ele>639</ele>
        <time>1990-12-08T19:14:42Z</time>
      </trkpt>
      <trkpt lat="43.8796" lon="6.86233">
        <ele>642</ele>
        <time>1990-12-08T19:15:14Z</time>
      </trkpt>
      <trkpt lat="43.8799" lon="6.86173">
        <ele>646</ele>
        <time>1990-12-08T19:15:44Z</time>
      </trkpt>
      <trkpt lat="43.88003" lon="6.86158">
        <ele>647</ele>
        <time>1990-12-08T19:15:55Z</time>
      </trkpt>
      <trkpt lat="43.88008" lon="6.86078">
        <ele>653</ele>
        <time>1990-12-08T19:16:32Z</time>
      </trkpt>
      <trkpt lat="43.88022" lon="6.8603">
        <ele>656</ele>
        <time>1990-12-08T19:17:01Z</time>
      </trkpt>
      <trkpt lat="43.88057" lon="6.86055">
        <ele>660</ele>
        <time>1990-12-08T19:17:26Z</time>
      </trkpt>
      <trkpt lat="43.88082" lon="6.86073">
        <ele>662</ele>
        <time>1990-12-08T19:17:48Z</time>
      </trkpt>
      <trkpt lat="43.88127" lon="6.86095">
        <ele>666</ele>
        <time>1990-12-08T19:18:20Z</time>
      </trkpt>
      <trkpt lat="43.88153" lon="6.86135">
        <ele>671</ele>
        <time>1990-12-08T19:18:49Z</time>
      </trkpt>
      <trkpt lat="43.88193" lon="6.86172">
        <ele>674</ele>
        <time>1990-12-08T19:19:22Z</time>
      </trkpt>
      <trkpt lat="43.8817" lon="6.86128">
        <ele>677</ele>
        <time>1990-12-08T19:19:46Z</time>
      </trkpt>
      <trkpt lat="43.8816" lon="6.8606">
        <ele>682</ele>
        <time>1990-12-08T19:20:18Z</time>
      </trkpt>
      <trkpt lat="43.88168" lon="6.85995">
        <ele>687</ele>
        <time>1990-12-08T19:20:49Z</time>
      </trkpt>
      <trkpt lat="43.88175" lon="6.85938">
        <ele>691</ele>
        <time>1990-12-08T19:21:17Z</time>
      </trkpt>
      <trkpt lat="43.88173" lon="6.85922">
        <ele>692</ele>
        <time>1990-12-08T19:21:26Z</time>
      </trkpt>
      <trkpt lat="43.88177" lon="6.8589">
        <ele>695</ele>
        <time>1990-12-08T19:21:44Z</time>
      </trkpt>
      <trkpt lat="43.88178" lon="6.8586">
        <ele>698</ele>
        <time>1990-12-08T19:22:02Z</time>
      </trkpt>
      <trkpt lat="43.88167" lon="6.85815">
        <ele>701</ele>
        <time>1990-12-08T19:22:31Z</time>
      </trkpt>
      <trkpt lat="43.8815" lon="6.85765">
        <ele>706</ele>
        <time>1990-12-08T19:23:03Z</time>
      </trkpt>
      <trkpt lat="43.88147" lon="6.8573">
        <ele>708</ele>
        <time>1990-12-08T19:23:23Z</time>
      </trkpt>
      <trkpt lat="43.88148" lon="6.8567">
        <ele>712</ele>
        <time>1990-12-08T19:23:55Z</time>
      </trkpt>
      <trkpt lat="43.88165" lon="6.85612">
        <ele>716</ele>
        <time>1990-12-08T19:24:27Z</time>
      </trkpt>
      <trkpt lat="43.88178" lon="6.85575">
        <ele>719</ele>
        <time>1990-12-08T19:24:49Z</time>
      </trkpt>
      <trkpt lat="43.88187" lon="6.8557">
        <ele>720</ele>
        <time>1990-12-08T19:24:59Z</time>
      </trkpt>
      <trkpt lat="43.8818" lon="6.85607">
        <ele>723</ele>
        <time>1990-12-08T19:25:20Z</time>
      </trkpt>
      <trkpt lat="43.8818" lon="6.85632">
        <ele>725</ele>
        <time>1990-12-08T19:25:37Z</time>
      </trkpt>
      <trkpt lat="43.88182" lon="6.8566">
        <ele>727</ele>
        <time>1990-12-08T19:25:55Z</time>
      </trkpt>
      <trkpt lat="43.88183" lon="6.85678">
        <ele>728</ele>
        <time>1990-12-08T19:26:08Z</time>
      </trkpt>
      <trkpt lat="43.8819" lon="6.857">
        <ele>729</ele>
        <time>1990-12-08T19:26:22Z</time>
      </trkpt>
      <trkpt lat="43.88195" lon="6.85725">
        <ele>731</ele>
        <time>1990-12-08T19:26:37Z</time>
      </trkpt>
      <trkpt lat="43.88198" lon="6.85745">
        <ele>732</ele>
        <time>1990-12-08T19:26:49Z</time>
      </trkpt>
      <trkpt lat="43.88232" lon="6.85785">
        <ele>735</ele>
        <time>1990-12-08T19:27:21Z</time>
      </trkpt>
      <trkpt lat="43.88255" lon="6.85827">
        <ele>739</ele>
        <time>1990-12-08T19:27:48Z</time>
      </trkpt>
      <trkpt lat="43.88272" lon="6.85837">
        <ele>741</ele>
        <time>1990-12-08T19:28:04Z</time>
      </trkpt>
      <trkpt lat="43.88298" lon="6.85887">
        <ele>746</ele>
        <time>1990-12-08T19:28:37Z</time>
      </trkpt>
      <trkpt lat="43.88313" lon="6.85917">
        <ele>749</ele>
        <time>1990-12-08T19:28:58Z</time>
      </trkpt>
      <trkpt lat="43.88302" lon="6.85998">
        <ele>752</ele>
        <time>1990-12-08T19:29:29Z</time>
      </trkpt>
      <trkpt lat="43.88357" lon="6.86063">
        <ele>753</ele>
        <time>1990-12-08T19:30:00Z</time>
      </trkpt>
      <trkpt lat="43.88398" lon="6.86117">
        <ele>753</ele>
        <time>1990-12-08T19:30:22Z</time>
      </trkpt>
      <trkpt lat="43.88365" lon="6.86173">
        <ele>756</ele>
        <time>1990-12-08T19:30:43Z</time>
      </trkpt>
      <trkpt lat="43.88355" lon="6.8624">
        <ele>761</ele>
        <time>1990-12-08T19:31:10Z</time>
      </trkpt>
      <trkpt lat="43.88355" lon="6.86252">
        <ele>762</ele>
        <time>1990-12-08T19:31:17Z</time>
      </trkpt>
      <trkpt lat="43.88367" lon="6.86228">
        <ele>767</ele>
        <time>1990-12-08T19:32:16Z</time>
      </trkpt>
      <trkpt lat="43.88382" lon="6.8622">
        <ele>771</ele>
        <time>1990-12-08T19:33:10Z</time>
      </trkpt>
      <trkpt lat="43.88403" lon="6.86198">
        <ele>773</ele>
        <time>1990-12-08T19:33:59Z</time>
      </trkpt>
      <trkpt lat="43.88388" lon="6.86202">
        <ele>769</ele>
        <time>1990-12-08T19:34:26Z</time>
      </trkpt>
      <trkpt lat="43.88398" lon="6.86178">
        <ele>767</ele>
        <time>1990-12-08T19:34:53Z</time>
      </trkpt>
      <trkpt lat="43.884" lon="6.8618">
        <ele>767</ele>
        <time>1990-12-08T19:35:25Z</time>
      </trkpt>
      <trkpt lat="43.88423" lon="6.86175">
        <ele>774</ele>
        <time>1990-12-09T08:14:04Z</time>
      </trkpt>
      <trkpt lat="43.88447" lon="6.86172">
        <ele>775</ele>
        <time>1990-12-09T08:14:18Z</time>
      </trkpt>
      <trkpt lat="43.88492" lon="6.8621">
        <ele>770</ele>
        <time>1990-12-09T08:14:38Z</time>
      </trkpt>
      <trkpt lat="43.88478" lon="6.86157">
        <ele>764</ele>
        <time>1990-12-09T08:14:51Z</time>
      </trkpt>
      <trkpt lat="43.88443" lon="6.86117">
        <ele>760</ele>
        <time>1990-12-09T08:15:00Z</time>
      </trkpt>
      <trkpt lat="43.88442" lon="6.8611">
        <ele>758</ele>
        <time>1990-12-09T08:15:06Z</time>
      </trkpt>
      <trkpt lat="43.88462" lon="6.86098">
        <ele>754</ele>
        <time>1990-12-09T08:15:12Z</time>
      </trkpt>
      <trkpt lat="43.88502" lon="6.86065">
        <ele>750</ele>
        <time>1990-12-09T08:15:41Z</time>
      </trkpt>
      <trkpt lat="43.88513" lon="6.86025">
        <ele>748</ele>
        <time>1990-12-09T08:15:48Z</time>
      </trkpt>
      <trkpt lat="43.88523" lon="6.85937">
        <ele>744</ele>
        <time>1990-12-09T08:15:58Z</time>
      </trkpt>
      <trkpt lat="43.88537" lon="6.85873">
        <ele>740</ele>
        <time>1990-12-09T08:16:05Z</time>
      </trkpt>
      <trkpt lat="43.88533" lon="6.85823">
        <ele>737</ele>
        <time>1990-12-09T08:16:13Z</time>
      </trkpt>
      <trkpt lat="43.8853" lon="6.85747">
        <ele>733</ele>
        <time>1990-12-09T08:16:33Z</time>
      </trkpt>
      <trkpt lat="43.8853" lon="6.8574">
        <ele>731</ele>
        <time>1990-12-09T08:17:54Z</time>
      </trkpt>
      <trkpt lat="43.88527" lon="6.85622">
        <ele>726</ele>
        <time>1990-12-09T08:18:13Z</time>
      </trkpt>
      <trkpt lat="43.88528" lon="6.8549">
        <ele>719</ele>
        <time>1990-12-09T08:18:24Z</time>
      </trkpt>
      <trkpt lat="43.8854" lon="6.85425">
        <ele>716</ele>
        <time>1990-12-09T08:18:29Z</time>
      </trkpt>
      <trkpt lat="43.88552" lon="6.85355">
        <ele>712</ele>
        <time>1990-12-09T08:18:34Z</time>
      </trkpt>
      <trkpt lat="43.88555" lon="6.85243">
        <ele>705</ele>
        <time>1990-12-09T08:18:42Z</time>
      </trkpt>
      <trkpt lat="43.88565" lon="6.85145">
        <ele>700</ele>
        <time>1990-12-09T08:18:50Z</time>
      </trkpt>
      <trkpt lat="43.88568" lon="6.85152">
        <ele>698</ele>
        <time>1990-12-09T08:18:56Z</time>
      </trkpt>
      <trkpt lat="43.88572" lon="6.85235">
        <ele>694</ele>
        <time>1990-12-09T08:19:05Z</time>
      </trkpt>
      <trkpt lat="43.88593" lon="6.85298">
        <ele>690</ele>
        <time>1990-12-09T08:19:11Z</time>
      </trkpt>
      <trkpt lat="43.88612" lon="6.85413">
        <ele>685</ele>
        <time>1990-12-09T08:19:20Z</time>
      </trkpt>
      <trkpt lat="43.88635" lon="6.85552">
        <ele>677</ele>
        <time>1990-12-09T08:19:30Z</time>
      </trkpt>
      <trkpt lat="43.88655" lon="6.85635">
        <ele>673</ele>
        <time>1990-12-09T08:19:36Z</time>
      </trkpt>
      <trkpt lat="43.88678" lon="6.85753">
        <ele>666</ele>
        <time>1990-12-09T08:19:44Z</time>
      </trkpt>
      <trkpt lat="43.8868" lon="6.85848">
        <ele>662</ele>
        <time>1990-12-09T08:19:50Z</time>
      </trkpt>
      <trkpt lat="43.88677" lon="6.85987">
        <ele>654</ele>
        <time>1990-12-09T08:19:59Z</time>
      </trkpt>
      <trkpt lat="43.88667" lon="6.86053">
        <ele>650</ele>
        <time>1990-12-09T08:20:04Z</time>
      </trkpt>
      <trkpt lat="43.88667" lon="6.86167">
        <ele>645</ele>
        <time>1990-12-09T08:20:13Z</time>
      </trkpt>
      <trkpt lat="43.88693" lon="6.86267">
        <ele>640</ele>
        <time>1990-12-09T08:20:21Z</time>
      </trkpt>
      <trkpt lat="43.88718" lon="6.8634">
        <ele>637</ele>
        <time>1990-12-09T08:20:28Z</time>
      </trkpt>
      <trkpt lat="43.88792" lon="6.86318">
        <ele>633</ele>
        <time>1990-12-09T08:20:47Z</time>
      </trkpt>
      <trkpt lat="43.88823" lon="6.86337">
        <ele>633</ele>
        <time>1990-12-09T08:21:09Z</time>
      </trkpt>
      <trkpt lat="43.88837" lon="6.86358">
        <ele>633</ele>
        <time>1990-12-09T08:26:13Z</time>
      </trkpt>
      <trkpt lat="43.88853" lon="6.86423">
        <ele>630</ele>
        <time>1990-12-09T08:30:00Z</time>
      </trkpt>
      <trkpt lat="43.88907" lon="6.86478">
        <ele>630</ele>
        <time>1990-12-09T08:30:28Z</time>
      </trkpt>
      <trkpt lat="43.88923" lon="6.8648">
        <ele>627</ele>
        <time>1990-12-09T08:30:46Z</time>
      </trkpt>
      <trkpt lat="43.8895" lon="6.865">
        <ele>630</ele>
        <time>1990-12-09T08:31:04Z</time>
      </trkpt>
      <trkpt lat="43.88957" lon="6.86522">
        <ele>634</ele>
        <time>1990-12-09T08:31:15Z</time>
      </trkpt>
      <trkpt lat="43.88962" lon="6.86532">
        <ele>637</ele>
        <time>1990-12-09T08:31:23Z</time>
      </trkpt>
      <trkpt lat="43.88972" lon="6.86562">
        <ele>642</ele>
        <time>1990-12-09T08:31:41Z</time>
      </trkpt>
      <trkpt lat="43.8898" lon="6.86577">
        <ele>645</ele>
        <time>1990-12-09T08:31:53Z</time>
      </trkpt>
      <trkpt lat="43.88992" lon="6.86593">
        <ele>650</ele>
        <time>1990-12-09T08:32:08Z</time>
      </trkpt>
      <trkpt lat="43.89005" lon="6.8662">
        <ele>656</ele>
        <time>1990-12-09T08:32:43Z</time>
      </trkpt>
      <trkpt lat="43.89003" lon="6.86648">
        <ele>661</ele>
        <time>1990-12-09T08:33:27Z</time>
      </trkpt>
      <trkpt lat="43.89018" lon="6.8671">
        <ele>667</ele>
        <time>1990-12-09T08:33:59Z</time>
      </trkpt>
      <trkpt lat="43.8902" lon="6.86742">
        <ele>671</ele>
        <time>1990-12-09T08:34:16Z</time>
      </trkpt>
      <trkpt lat="43.89025" lon="6.86772">
        <ele>676</ele>
        <time>1990-12-09T08:34:45Z</time>
      </trkpt>
      <trkpt lat="43.89027" lon="6.86803">
        <ele>681</ele>
        <time>1990-12-09T08:35:15Z</time>
      </trkpt>
      <trkpt lat="43.89023" lon="6.86845">
        <ele>687</ele>
        <time>1990-12-09T08:35:51Z</time>
      </trkpt>
      <trkpt lat="43.89025" lon="6.86867">
        <ele>688</ele>
        <time>1990-12-09T08:37:15Z</time>
      </trkpt>
      <trkpt lat="43.89023" lon="6.86912">
        <ele>694</ele>
        <time>1990-12-09T08:38:51Z</time>
      </trkpt>
      <trkpt lat="43.89028" lon="6.8694">
        <ele>698</ele>
        <time>1990-12-09T08:39:09Z</time>
      </trkpt>
      <trkpt lat="43.8903" lon="6.86967">
        <ele>701</ele>
        <time>1990-12-09T08:39:27Z</time>
      </trkpt>
      <trkpt lat="43.8902" lon="6.87008">
        <ele>706</ele>
        <time>1990-12-09T08:39:55Z</time>
      </trkpt>
      <trkpt lat="43.89012" lon="6.87057">
        <ele>712</ele>
        <time>1990-12-09T08:40:30Z</time>
      </trkpt>
      <trkpt lat="43.89002" lon="6.871">
        <ele>717</ele>
        <time>1990-12-09T08:40:55Z</time>
      </trkpt>
      <trkpt lat="43.89008" lon="6.8713">
        <ele>720</ele>
        <time>1990-12-09T08:41:16Z</time>
      </trkpt>
      <trkpt lat="43.89017" lon="6.87202">
        <ele>725</ele>
        <time>1990-12-09T08:41:58Z</time>
      </trkpt>
      <trkpt lat="43.89038" lon="6.87245">
        <ele>727</ele>
        <time>1990-12-09T08:42:26Z</time>
      </trkpt>
      <trkpt lat="43.89057" lon="6.87278">
        <ele>731</ele>
        <time>1990-12-09T08:42:47Z</time>
      </trkpt>
      <trkpt lat="43.8906" lon="6.87305">
        <ele>733</ele>
        <time>1990-12-09T08:43:00Z</time>
      </trkpt>
      <trkpt lat="43.89083" lon="6.87312">
        <ele>735</ele>
        <time>1990-12-09T08:43:21Z</time>
      </trkpt>
      <trkpt lat="43.89115" lon="6.87348">
        <ele>734</ele>
        <time>1990-12-09T08:43:36Z</time>
      </trkpt>
      <trkpt lat="43.89113" lon="6.8738">
        <ele>738</ele>
        <time>1990-12-09T08:43:54Z</time>
      </trkpt>
      <trkpt lat="43.89097" lon="6.87417">
        <ele>743</ele>
        <time>1990-12-09T08:44:16Z</time>
      </trkpt>
      <trkpt lat="43.8909" lon="6.87443">
        <ele>748</ele>
        <time>1990-12-09T08:44:41Z</time>
      </trkpt>
      <trkpt lat="43.8908" lon="6.87518">
        <ele>753</ele>
        <time>1990-12-09T08:45:22Z</time>
      </trkpt>
      <trkpt lat="43.89058" lon="6.87572">
        <ele>752</ele>
        <time>1990-12-09T08:45:47Z</time>
      </trkpt>
      <trkpt lat="43.89067" lon="6.87637">
        <ele>750</ele>
        <time>1990-12-09T08:46:08Z</time>
      </trkpt>
      <trkpt lat="43.89077" lon="6.87688">
        <ele>752</ele>
        <time>1990-12-09T08:46:38Z</time>
      </trkpt>
      <trkpt lat="43.89088" lon="6.8771">
        <ele>754</ele>
        <time>1990-12-09T08:46:55Z</time>
      </trkpt>
      <trkpt lat="43.89098" lon="6.8774">
        <ele>757</ele>
        <time>1990-12-09T08:47:16Z</time>
      </trkpt>
      <trkpt lat="43.89097" lon="6.87765">
        <ele>760</ele>
        <time>1990-12-09T08:47:29Z</time>
      </trkpt>
      <trkpt lat="43.8909" lon="6.87805">
        <ele>762</ele>
        <time>1990-12-09T08:47:56Z</time>
      </trkpt>
      <trkpt lat="43.89107" lon="6.87872">
        <ele>760</ele>
        <time>1990-12-09T08:48:21Z</time>
      </trkpt>
      <trkpt lat="43.89115" lon="6.87905">
        <ele>756</ele>
        <time>1990-12-09T08:48:29Z</time>
      </trkpt>
      <trkpt lat="43.89117" lon="6.87923">
        <ele>754</ele>
        <time>1990-12-09T08:48:32Z</time>
      </trkpt>
      <trkpt lat="43.89117" lon="6.88018">
        <ele>753</ele>
        <time>1990-12-09T08:48:46Z</time>
      </trkpt>
      <trkpt lat="43.89125" lon="6.8809">
        <ele>753</ele>
        <time>1990-12-09T08:49:08Z</time>
      </trkpt>
      <trkpt lat="43.8913" lon="6.88128">
        <ele>757</ele>
        <time>1990-12-09T08:49:30Z</time>
      </trkpt>
      <trkpt lat="43.89133" lon="6.88157">
        <ele>759</ele>
        <time>1990-12-09T08:49:47Z</time>
      </trkpt>
      <trkpt lat="43.89108" lon="6.88202">
        <ele>762</ele>
        <time>1990-12-09T08:50:19Z</time>
      </trkpt>
      <trkpt lat="43.89105" lon="6.8822">
        <ele>763</ele>
        <time>1990-12-09T08:50:30Z</time>
      </trkpt>
      <trkpt lat="43.89107" lon="6.88247">
        <ele>766</ele>
        <time>1990-12-09T08:50:45Z</time>
      </trkpt>
      <trkpt lat="43.89105" lon="6.88265">
        <ele>766</ele>
        <time>1990-12-09T08:50:56Z</time>
      </trkpt>
      <trkpt lat="43.891" lon="6.88285">
        <ele>767</ele>
        <time>1990-12-09T08:51:10Z</time>
      </trkpt>
      <trkpt lat="43.89105" lon="6.88322">
        <ele>769</ele>
        <time>1990-12-09T08:51:31Z</time>
      </trkpt>
      <trkpt lat="43.89105" lon="6.88342">
        <ele>770</ele>
        <time>1990-12-09T08:51:53Z</time>
      </trkpt>
      <trkpt lat="43.89132" lon="6.88395">
        <ele>771</ele>
        <time>1990-12-09T08:53:25Z</time>
      </trkpt>
      <trkpt lat="43.89155" lon="6.8852">
        <ele>771</ele>
        <time>1990-12-09T08:53:55Z</time>
      </trkpt>
      <trkpt lat="43.89175" lon="6.88617">
        <ele>771</ele>
        <time>1990-12-09T08:54:16Z</time>
      </trkpt>
      <trkpt lat="43.89222" lon="6.88672">
        <ele>772</ele>
        <time>1990-12-09T08:54:36Z</time>
      </trkpt>
      <trkpt lat="43.89213" lon="6.88775">
        <ele>771</ele>
        <time>1990-12-09T08:55:00Z</time>
      </trkpt>
      <trkpt lat="43.89263" lon="6.88848">
        <ele>772</ele>
        <time>1990-12-09T08:55:25Z</time>
      </trkpt>
      <trkpt lat="43.89298" lon="6.88943">
        <ele>772</ele>
        <time>1990-12-09T08:55:50Z</time>
      </trkpt>
      <trkpt lat="43.89333" lon="6.89022">
        <ele>773</ele>
        <time>1990-12-09T08:56:12Z</time>
      </trkpt>
      <trkpt lat="43.89353" lon="6.89125">
        <ele>773</ele>
        <time>1990-12-09T08:56:35Z</time>
      </trkpt>
      <trkpt lat="43.89378" lon="6.89195">
        <ele>772</ele>
        <time>1990-12-09T08:56:52Z</time>
      </trkpt>
      <trkpt lat="43.89437" lon="6.89317">
        <ele>765</ele>
        <time>1990-12-09T08:57:14Z</time>
      </trkpt>
      <trkpt lat="43.89472" lon="6.89398">
        <ele>759</ele>
        <time>1990-12-09T08:57:24Z</time>
      </trkpt>
      <trkpt lat="43.8949" lon="6.89448">
        <ele>755</ele>
        <time>1990-12-09T08:57:30Z</time>
      </trkpt>
      <trkpt lat="43.89513" lon="6.895">
        <ele>750</ele>
        <time>1990-12-09T08:57:36Z</time>
      </trkpt>
      <trkpt lat="43.89542" lon="6.89597">
        <ele>743</ele>
        <time>1990-12-09T08:57:48Z</time>
      </trkpt>
      <trkpt lat="43.89547" lon="6.89627">
        <ele>741</ele>
        <time>1990-12-09T08:57:51Z</time>
      </trkpt>
      <trkpt lat="43.89565" lon="6.89697">
        <ele>736</ele>
        <time>1990-12-09T08:57:59Z</time>
      </trkpt>
      <trkpt lat="43.89572" lon="6.89747">
        <ele>731</ele>
        <time>1990-12-09T08:58:23Z</time>
      </trkpt>
      <trkpt lat="43.89562" lon="6.89753">
        <ele>736</ele>
        <time>1990-12-09T08:59:11Z</time>
      </trkpt>
      <trkpt lat="43.89543" lon="6.89763">
        <ele>742</ele>
        <time>1990-12-09T08:59:40Z</time>
      </trkpt>
      <trkpt lat="43.89532" lon="6.89772">
        <ele>748</ele>
        <time>1990-12-09T09:00:17Z</time>
      </trkpt>
      <trkpt lat="43.8952" lon="6.8978">
        <ele>753</ele>
        <time>1990-12-09T09:00:54Z</time>
      </trkpt>
      <trkpt lat="43.89508" lon="6.89803">
        <ele>759</ele>
        <time>1990-12-09T09:01:30Z</time>
      </trkpt>
      <trkpt lat="43.89497" lon="6.89795">
        <ele>764</ele>
        <time>1990-12-09T09:02:21Z</time>
      </trkpt>
      <trkpt lat="43.89482" lon="6.89812">
        <ele>771</ele>
        <time>1990-12-09T09:02:54Z</time>
      </trkpt>
      <trkpt lat="43.89473" lon="6.8984">
        <ele>777</ele>
        <time>1990-12-09T09:03:31Z</time>
      </trkpt>
      <trkpt lat="43.89465" lon="6.89832">
        <ele>784</ele>
        <time>1990-12-09T09:04:07Z</time>
      </trkpt>
      <trkpt lat="43.89455" lon="6.89838">
        <ele>788</ele>
        <time>1990-12-09T09:04:38Z</time>
      </trkpt>
      <trkpt lat="43.8945" lon="6.89865">
        <ele>794</ele>
        <time>1990-12-09T09:05:10Z</time>
      </trkpt>
      <trkpt lat="43.89438" lon="6.8988">
        <ele>799</ele>
        <time>1990-12-09T09:09:44Z</time>
      </trkpt>
      <trkpt lat="43.89432" lon="6.89862">
        <ele>803</ele>
        <time>1990-12-09T09:10:22Z</time>
      </trkpt>
      <trkpt lat="43.89423" lon="6.89887">
        <ele>809</ele>
        <time>1990-12-09T09:11:03Z</time>
      </trkpt>
      <trkpt lat="43.89418" lon="6.89902">
        <ele>815</ele>
        <time>1990-12-09T09:11:58Z</time>
      </trkpt>
      <trkpt lat="43.89417" lon="6.89903">
        <ele>820</ele>
        <time>1990-12-09T09:12:46Z</time>
      </trkpt>
      <trkpt lat="43.894" lon="6.89908">
        <ele>826</ele>
        <time>1990-12-09T09:13:27Z</time>
      </trkpt>
      <trkpt lat="43.89393" lon="6.89937">
        <ele>832</ele>
        <time>1990-12-09T09:14:13Z</time>
      </trkpt>
      <trkpt lat="43.89388" lon="6.89963">
        <ele>836</ele>
        <time>1990-12-09T09:15:06Z</time>
      </trkpt>
      <trkpt lat="43.89387" lon="6.89995">
        <ele>836</ele>
        <time>1990-12-09T09:15:27Z</time>
      </trkpt>
      <trkpt lat="43.89383" lon="6.90027">
        <ele>838</ele>
        <time>1990-12-09T09:16:02Z</time>
      </trkpt>
      <trkpt lat="43.89382" lon="6.90057">
        <ele>843</ele>
        <time>1990-12-09T09:16:43Z</time>
      </trkpt>
      <trkpt lat="43.89378" lon="6.90093">
        <ele>849</ele>
        <time>1990-12-09T09:17:31Z</time>
      </trkpt>
      <trkpt lat="43.89373" lon="6.90122">
        <ele>855</ele>
        <time>1990-12-09T09:18:16Z</time>
      </trkpt>
      <trkpt lat="43.89368" lon="6.90162">
        <ele>861</ele>
        <time>1990-12-09T09:18:57Z</time>
      </trkpt>
      <trkpt lat="43.89367" lon="6.90193">
        <ele>864</ele>
        <time>1990-12-09T09:19:34Z</time>
      </trkpt>
      <trkpt lat="43.89363" lon="6.9023">
        <ele>869</ele>
        <time>1990-12-09T09:20:11Z</time>
      </trkpt>
      <trkpt lat="43.89358" lon="6.90258">
        <ele>872</ele>
        <time>1990-12-09T09:20:49Z</time>
      </trkpt>
      <trkpt lat="43.89353" lon="6.90275">
        <ele>877</ele>
        <time>1990-12-09T09:21:24Z</time>
      </trkpt>
      <trkpt lat="43.89333" lon="6.90288">
        <ele>883</ele>
        <time>1990-12-09T09:22:15Z</time>
      </trkpt>
      <trkpt lat="43.89317" lon="6.90303">
        <ele>889</ele>
        <time>1990-12-09T09:23:01Z</time>
      </trkpt>
      <trkpt lat="43.89313" lon="6.90303">
        <ele>894</ele>
        <time>1990-12-09T09:23:37Z</time>
      </trkpt>
      <trkpt lat="43.89298" lon="6.90317">
        <ele>895</ele>
        <time>1990-12-09T09:26:44Z</time>
      </trkpt>
      <trkpt lat="43.89293" lon="6.90303">
        <ele>895</ele>
        <time>1990-12-09T09:27:20Z</time>
      </trkpt>
      <trkpt lat="43.89285" lon="6.90305">
        <ele>892</ele>
        <time>1990-12-09T09:28:01Z</time>
      </trkpt>
      <trkpt lat="43.89277" lon="6.90312">
        <ele>890</ele>
        <time>1990-12-09T09:28:25Z</time>
      </trkpt>
      <trkpt lat="43.89288" lon="6.90297">
        <ele>895</ele>
        <time>1990-12-09T09:28:51Z</time>
      </trkpt>
      <trkpt lat="43.89275" lon="6.90245">
        <ele>895</ele>
        <time>1990-12-09T09:29:11Z</time>
      </trkpt>
      <trkpt lat="43.8924" lon="6.9019">
        <ele>891</ele>
        <time>1990-12-09T09:29:30Z</time>
      </trkpt>
      <trkpt lat="43.89183" lon="6.90133">
        <ele>886</ele>
        <time>1990-12-09T09:29:42Z</time>
      </trkpt>
      <trkpt lat="43.89177" lon="6.90122">
        <ele>884</ele>
        <time>1990-12-09T09:29:45Z</time>
      </trkpt>
      <trkpt lat="43.89183" lon="6.90088">
        <ele>881</ele>
        <time>1990-12-09T09:29:52Z</time>
      </trkpt>
      <trkpt lat="43.89163" lon="6.90027">
        <ele>875</ele>
        <time>1990-12-09T09:30:01Z</time>
      </trkpt>
      <trkpt lat="43.89147" lon="6.8999">
        <ele>871</ele>
        <time>1990-12-09T09:30:09Z</time>
      </trkpt>
      <trkpt lat="43.8912" lon="6.8996">
        <ele>866</ele>
        <time>1990-12-09T09:30:17Z</time>
      </trkpt>
      <trkpt lat="43.89087" lon="6.89945">
        <ele>863</ele>
        <time>1990-12-09T09:30:25Z</time>
      </trkpt>
      <trkpt lat="43.89072" lon="6.8993">
        <ele>861</ele>
        <time>1990-12-09T09:30:29Z</time>
      </trkpt>
      <trkpt lat="43.89033" lon="6.89937">
        <ele>860</ele>
        <time>1990-12-09T09:30:37Z</time>
      </trkpt>
      <trkpt lat="43.88993" lon="6.89943">
        <ele>855</ele>
        <time>1990-12-09T09:30:50Z</time>
      </trkpt>
      <trkpt lat="43.88968" lon="6.89922">
        <ele>850</ele>
        <time>1990-12-09T09:31:01Z</time>
      </trkpt>
      <trkpt lat="43.88943" lon="6.89877">
        <ele>845</ele>
        <time>1990-12-09T09:31:13Z</time>
      </trkpt>
      <trkpt lat="43.88937" lon="6.89833">
        <ele>839</ele>
        <time>1990-12-09T09:31:22Z</time>
      </trkpt>
      <trkpt lat="43.88927" lon="6.89802">
        <ele>837</ele>
        <time>1990-12-09T09:31:30Z</time>
      </trkpt>
      <trkpt lat="43.88895" lon="6.89775">
        <ele>832</ele>
        <time>1990-12-09T09:31:41Z</time>
      </trkpt>
      <trkpt lat="43.88885" lon="6.89773">
        <ele>830</ele>
        <time>1990-12-09T09:31:51Z</time>
      </trkpt>
      <trkpt lat="43.8885" lon="6.89775">
        <ele>823</ele>
        <time>1990-12-09T09:32:00Z</time>
      </trkpt>
      <trkpt lat="43.8882" lon="6.89767">
        <ele>818</ele>
        <time>1990-12-09T09:32:08Z</time>
      </trkpt>
      <trkpt lat="43.88787" lon="6.8975">
        <ele>813</ele>
        <time>1990-12-09T09:32:15Z</time>
      </trkpt>
      <trkpt lat="43.88767" lon="6.89732">
        <ele>809</ele>
        <time>1990-12-09T09:32:25Z</time>
      </trkpt>
      <trkpt lat="43.8877" lon="6.89785">
        <ele>801</ele>
        <time>1990-12-09T09:32:34Z</time>
      </trkpt>
      <trkpt lat="43.8875" lon="6.89813">
        <ele>796</ele>
        <time>1990-12-09T09:32:47Z</time>
      </trkpt>
      <trkpt lat="43.88728" lon="6.89818">
        <ele>793</ele>
        <time>1990-12-09T09:32:52Z</time>
      </trkpt>
      <trkpt lat="43.8869" lon="6.89828">
        <ele>787</ele>
        <time>1990-12-09T09:33:01Z</time>
      </trkpt>
      <trkpt lat="43.88657" lon="6.89845">
        <ele>781</ele>
        <time>1990-12-09T09:33:08Z</time>
      </trkpt>
      <trkpt lat="43.88635" lon="6.89858">
        <ele>778</ele>
        <time>1990-12-09T09:33:16Z</time>
      </trkpt>
      <trkpt lat="43.88628" lon="6.89858">
        <ele>777</ele>
        <time>1990-12-09T09:33:44Z</time>
      </trkpt>
      <trkpt lat="43.88615" lon="6.899">
        <ele>774</ele>
        <time>1990-12-09T09:33:53Z</time>
      </trkpt>
      <trkpt lat="43.88622" lon="6.89933">
        <ele>770</ele>
        <time>1990-12-09T09:33:58Z</time>
      </trkpt>
      <trkpt lat="43.8861" lon="6.89973">
        <ele>764</ele>
        <time>1990-12-09T09:34:05Z</time>
      </trkpt>
      <trkpt lat="43.88602" lon="6.90003">
        <ele>758</ele>
        <time>1990-12-09T09:34:11Z</time>
      </trkpt>
      <trkpt lat="43.88575" lon="6.90035">
        <ele>751</ele>
        <time>1990-12-09T09:34:19Z</time>
      </trkpt>
      <trkpt lat="43.8856" lon="6.90058">
        <ele>748</ele>
        <time>1990-12-09T09:34:24Z</time>
      </trkpt>
      <trkpt lat="43.88517" lon="6.90102">
        <ele>740</ele>
        <time>1990-12-09T09:34:32Z</time>
      </trkpt>
      <trkpt lat="43.8849" lon="6.90115">
        <ele>737</ele>
        <time>1990-12-09T09:34:36Z</time>
      </trkpt>
      <trkpt lat="43.88463" lon="6.90135">
        <ele>733</ele>
        <time>1990-12-09T09:34:43Z</time>
      </trkpt>
      <trkpt lat="43.88455" lon="6.9014">
        <ele>732</ele>
        <time>1990-12-09T09:35:02Z</time>
      </trkpt>
      <trkpt lat="43.88465" lon="6.90197">
        <ele>729</ele>
        <time>1990-12-09T09:36:57Z</time>
      </trkpt>
      <trkpt lat="43.88452" lon="6.90325">
        <ele>727</ele>
        <time>1990-12-09T09:37:16Z</time>
      </trkpt>
      <trkpt lat="43.88447" lon="6.90445">
        <ele>727</ele>
        <time>1990-12-09T09:37:34Z</time>
      </trkpt>
      <trkpt lat="43.88447" lon="6.90597">
        <ele>728</ele>
        <time>1990-12-09T09:37:58Z</time>
      </trkpt>
      <trkpt lat="43.88423" lon="6.90702">
        <ele>732</ele>
        <time>1990-12-09T09:38:22Z</time>
      </trkpt>
      <trkpt lat="43.88382" lon="6.9077">
        <ele>737</ele>
        <time>1990-12-09T09:38:44Z</time>
      </trkpt>
      <trkpt lat="43.88372" lon="6.90825">
        <ele>737</ele>
        <time>1990-12-09T09:39:06Z</time>
      </trkpt>
      <trkpt lat="43.88378" lon="6.90828">
        <ele>737</ele>
        <time>1990-12-09T09:39:24Z</time>
      </trkpt>
      <trkpt lat="43.88375" lon="6.90797">
        <ele>737</ele>
        <time>1990-12-09T09:40:14Z</time>
      </trkpt>
      <trkpt lat="43.88372" lon="6.9086">
        <ele>737</ele>
        <time>1990-12-09T09:46:33Z</time>
      </trkpt>
      <trkpt lat="43.88377" lon="6.9094">
        <ele>733</ele>
        <time>1990-12-09T09:46:43Z</time>
      </trkpt>
      <trkpt lat="43.88358" lon="6.90997">
        <ele>729</ele>
        <time>1990-12-09T09:46:52Z</time>
      </trkpt>
      <trkpt lat="43.88357" lon="6.91048">
        <ele>722</ele>
        <time>1990-12-09T09:46:58Z</time>
      </trkpt>
      <trkpt lat="43.8836" lon="6.91115">
        <ele>715</ele>
        <time>1990-12-09T09:47:04Z</time>
      </trkpt>
      <trkpt lat="43.8838" lon="6.91282">
        <ele>710</ele>
        <time>1990-12-09T09:47:18Z</time>
      </trkpt>
      <trkpt lat="43.88402" lon="6.91387">
        <ele>703</ele>
        <time>1990-12-09T09:47:27Z</time>
      </trkpt>
      <trkpt lat="43.88412" lon="6.91437">
        <ele>700</ele>
        <time>1990-12-09T09:47:34Z</time>
      </trkpt>
      <trkpt lat="43.8842" lon="6.91467">
        <ele>698</ele>
        <time>1990-12-09T09:47:40Z</time>
      </trkpt>
      <trkpt lat="43.88438" lon="6.91528">
        <ele>693</ele>
        <time>1990-12-09T09:47:51Z</time>
      </trkpt>
      <trkpt lat="43.88445" lon="6.91602">
        <ele>688</ele>
        <time>1990-12-09T09:48:02Z</time>
      </trkpt>
      <trkpt lat="43.8845" lon="6.91632">
        <ele>687</ele>
        <time>1990-12-09T09:48:07Z</time>
      </trkpt>
      <trkpt lat="43.88455" lon="6.91713">
        <ele>681</ele>
        <time>1990-12-09T09:48:29Z</time>
      </trkpt>
      <trkpt lat="43.88428" lon="6.91775">
        <ele>676</ele>
        <time>1990-12-09T09:48:55Z</time>
      </trkpt>
      <trkpt lat="43.88427" lon="6.91793">
        <ele>675</ele>
        <time>1990-12-09T09:49:19Z</time>
      </trkpt>
      <trkpt lat="43.88428" lon="6.91837">
        <ele>672</ele>
        <time>1990-12-09T09:49:34Z</time>
      </trkpt>
      <trkpt lat="43.88422" lon="6.919">
        <ele>668</ele>
        <time>1990-12-09T09:49:42Z</time>
      </trkpt>
      <trkpt lat="43.88423" lon="6.91942">
        <ele>665</ele>
        <time>1990-12-09T09:49:48Z</time>
      </trkpt>
      <trkpt lat="43.88377" lon="6.91985">
        <ele>662</ele>
        <time>1990-12-09T09:49:58Z</time>
      </trkpt>
      <trkpt lat="43.88355" lon="6.92057">
        <ele>658</ele>
        <time>1990-12-09T09:50:17Z</time>
      </trkpt>
      <trkpt lat="43.8832" lon="6.92068">
        <ele>657</ele>
        <time>1990-12-09T09:52:05Z</time>
      </trkpt>
      <trkpt lat="43.88238" lon="6.92092">
        <ele>656</ele>
        <time>1990-12-09T09:52:30Z</time>
      </trkpt>
      <trkpt lat="43.882" lon="6.92143">
        <ele>656</ele>
        <time>1990-12-09T09:52:46Z</time>
      </trkpt>
      <trkpt lat="43.88162" lon="6.92233">
        <ele>659</ele>
        <time>1990-12-09T09:53:10Z</time>
      </trkpt>
      <trkpt lat="43.88143" lon="6.92305">
        <ele>654</ele>
        <time>1990-12-09T09:53:23Z</time>
      </trkpt>
      <trkpt lat="43.88142" lon="6.9236">
        <ele>651</ele>
        <time>1990-12-09T09:53:30Z</time>
      </trkpt>
      <trkpt lat="43.88152" lon="6.92397">
        <ele>650</ele>
        <time>1990-12-09T09:53:36Z</time>
      </trkpt>
      <trkpt lat="43.88125" lon="6.92457">
        <ele>646</ele>
        <time>1990-12-09T09:53:49Z</time>
      </trkpt>
      <trkpt lat="43.88098" lon="6.92562">
        <ele>645</ele>
        <time>1990-12-09T09:54:07Z</time>
      </trkpt>
      <trkpt lat="43.88093" lon="6.92605">
        <ele>643</ele>
        <time>1990-12-09T09:54:14Z</time>
      </trkpt>
      <trkpt lat="43.88095" lon="6.92677">
        <ele>644</ele>
        <time>1990-12-09T09:54:27Z</time>
      </trkpt>
      <trkpt lat="43.8812" lon="6.92768">
        <ele>638</ele>
        <time>1990-12-09T09:54:41Z</time>
      </trkpt>
      <trkpt lat="43.88123" lon="6.92815">
        <ele>638</ele>
        <time>1990-12-09T09:54:48Z</time>
      </trkpt>
      <trkpt lat="43.88082" lon="6.92895">
        <ele>641</ele>
        <time>1990-12-09T09:55:08Z</time>
      </trkpt>
      <trkpt lat="43.88067" lon="6.92975">
        <ele>638</ele>
        <time>1990-12-09T09:55:20Z</time>
      </trkpt>
      <trkpt lat="43.8805" lon="6.93072">
        <ele>639</ele>
        <time>1990-12-09T09:55:37Z</time>
      </trkpt>
      <trkpt lat="43.88048" lon="6.9318">
        <ele>639</ele>
        <time>1990-12-09T09:56:00Z</time>
      </trkpt>
      <trkpt lat="43.88067" lon="6.93213">
        <ele>636</ele>
        <time>1990-12-09T09:56:10Z</time>
      </trkpt>
      <trkpt lat="43.88103" lon="6.93235">
        <ele>630</ele>
        <time>1990-12-09T09:56:17Z</time>
      </trkpt>
      <trkpt lat="43.88125" lon="6.9328">
        <ele>624</ele>
        <time>1990-12-09T09:56:24Z</time>
      </trkpt>
      <trkpt lat="43.88137" lon="6.9333">
        <ele>616</ele>
        <time>1990-12-09T09:56:31Z</time>
      </trkpt>
      <trkpt lat="43.8814" lon="6.93405">
        <ele>611</ele>
        <time>1990-12-09T09:56:44Z</time>
      </trkpt>
      <trkpt lat="43.88158" lon="6.9343">
        <ele>607</ele>
        <time>1990-12-09T09:56:56Z</time>
      </trkpt>
      <trkpt lat="43.88167" lon="6.9344">
        <ele>603</ele>
        <time>1990-12-09T09:57:05Z</time>
      </trkpt>
      <trkpt lat="43.88217" lon="6.93455">
        <ele>597</ele>
        <time>1990-12-09T09:57:21Z</time>
      </trkpt>
      <trkpt lat="43.8822" lon="6.9348">
        <ele>595</ele>
        <time>1990-12-09T09:57:27Z</time>
      </trkpt>
      <trkpt lat="43.8822" lon="6.93508">
        <ele>593</ele>
        <time>1990-12-09T09:57:33Z</time>
      </trkpt>
      <trkpt lat="43.88188" lon="6.9357">
        <ele>595</ele>
        <time>1990-12-09T09:58:13Z</time>
      </trkpt>
      <trkpt lat="43.88203" lon="6.93573">
        <ele>591</ele>
        <time>1990-12-09T09:58:49Z</time>
      </trkpt>
      <trkpt lat="43.88228" lon="6.93595">
        <ele>589</ele>
        <time>1990-12-09T09:59:05Z</time>
      </trkpt>
      <trkpt lat="43.88208" lon="6.93662">
        <ele>590</ele>
        <time>1990-12-09T09:59:52Z</time>
      </trkpt>
      <trkpt lat="43.88198" lon="6.93673">
        <ele>592</ele>
        <time>1990-12-09T10:03:11Z</time>
      </trkpt>
      <trkpt lat="43.88193" lon="6.93688">
        <ele>592</ele>
        <time>1990-12-09T10:04:14Z</time>
      </trkpt>
      <trkpt lat="43.8819" lon="6.93707">
        <ele>594</ele>
        <time>1990-12-09T10:05:01Z</time>
      </trkpt>
      <trkpt lat="43.88182" lon="6.93732">
        <ele>598</ele>
        <time>1990-12-09T10:05:40Z</time>
      </trkpt>
      <trkpt lat="43.8816" lon="6.93743">
        <ele>600</ele>
        <time>1990-12-09T10:06:14Z</time>
      </trkpt>
      <trkpt lat="43.88127" lon="6.93747">
        <ele>605</ele>
        <time>1990-12-09T10:07:00Z</time>
      </trkpt>
      <trkpt lat="43.88108" lon="6.93763">
        <ele>608</ele>
        <time>1990-12-09T10:07:22Z</time>
      </trkpt>
      <trkpt lat="43.88097" lon="6.93782">
        <ele>613</ele>
        <time>1990-12-09T10:07:49Z</time>
      </trkpt>
      <trkpt lat="43.88085" lon="6.93802">
        <ele>619</ele>
        <time>1990-12-09T10:08:21Z</time>
      </trkpt>
      <trkpt lat="43.88062" lon="6.9384">
        <ele>625</ele>
        <time>1990-12-09T10:08:58Z</time>
      </trkpt>
      <trkpt lat="43.8807" lon="6.9385">
        <ele>631</ele>
        <time>1990-12-09T10:09:31Z</time>
      </trkpt>
      <trkpt lat="43.88065" lon="6.93868">
        <ele>637</ele>
        <time>1990-12-09T10:10:03Z</time>
      </trkpt>
      <trkpt lat="43.8805" lon="6.9391">
        <ele>642</ele>
        <time>1990-12-09T10:10:39Z</time>
      </trkpt>
      <trkpt lat="43.88047" lon="6.93933">
        <ele>645</ele>
        <time>1990-12-09T10:10:54Z</time>
      </trkpt>
      <trkpt lat="43.8804" lon="6.93957">
        <ele>650</ele>
        <time>1990-12-09T10:11:03Z</time>
      </trkpt>
      <trkpt lat="43.88037" lon="6.93973">
        <ele>652</ele>
        <time>1990-12-09T10:11:18Z</time>
      </trkpt>
      <trkpt lat="43.88037" lon="6.94005">
        <ele>658</ele>
        <time>1990-12-09T10:11:56Z</time>
      </trkpt>
      <trkpt lat="43.8804" lon="6.93995">
        <ele>658</ele>
        <time>1990-12-09T10:12:40Z</time>
      </trkpt>
      <trkpt lat="43.88068" lon="6.93952">
        <ele>655</ele>
        <time>1990-12-09T10:16:49Z</time>
      </trkpt>
      <trkpt lat="43.88083" lon="6.93928">
        <ele>654</ele>
        <time>1990-12-09T10:16:54Z</time>
      </trkpt>
      <trkpt lat="43.88108" lon="6.93893">
        <ele>653</ele>
        <time>1990-12-09T10:17:01Z</time>
      </trkpt>
      <trkpt lat="43.88162" lon="6.93848">
        <ele>650</ele>
        <time>1990-12-09T10:17:11Z</time>
      </trkpt>
      <trkpt lat="43.88197" lon="6.93747">
        <ele>647</ele>
        <time>1990-12-09T10:17:26Z</time>
      </trkpt>
      <trkpt lat="43.88242" lon="6.93748">
        <ele>644</ele>
        <time>1990-12-09T10:17:46Z</time>
      </trkpt>
      <trkpt lat="43.88258" lon="6.93732">
        <ele>643</ele>
        <time>1990-12-09T10:18:03Z</time>
      </trkpt>
      <trkpt lat="43.88285" lon="6.93755">
        <ele>641</ele>
        <time>1990-12-09T10:18:20Z</time>
      </trkpt>
      <trkpt lat="43.88333" lon="6.93778">
        <ele>638</ele>
        <time>1990-12-09T10:18:31Z</time>
      </trkpt>
      <trkpt lat="43.88412" lon="6.93753">
        <ele>634</ele>
        <time>1990-12-09T10:18:43Z</time>
      </trkpt>
      <trkpt lat="43.88458" lon="6.9371">
        <ele>632</ele>
        <time>1990-12-09T10:18:56Z</time>
      </trkpt>
      <trkpt lat="43.88497" lon="6.93755">
        <ele>630</ele>
        <time>1990-12-09T10:19:06Z</time>
      </trkpt>
      <trkpt lat="43.88543" lon="6.9381">
        <ele>628</ele>
        <time>1990-12-09T10:19:18Z</time>
      </trkpt>
      <trkpt lat="43.88573" lon="6.93842">
        <ele>626</ele>
        <time>1990-12-09T10:19:24Z</time>
      </trkpt>
      <trkpt lat="43.88633" lon="6.93888">
        <ele>624</ele>
        <time>1990-12-09T10:19:36Z</time>
      </trkpt>
      <trkpt lat="43.8865" lon="6.94078">
        <ele>619</ele>
        <time>1990-12-09T10:19:58Z</time>
      </trkpt>
      <trkpt lat="43.88668" lon="6.94138">
        <ele>623</ele>
        <time>1990-12-09T10:20:21Z</time>
      </trkpt>
      <trkpt lat="43.88677" lon="6.94195">
        <ele>628</ele>
        <time>1990-12-09T10:21:06Z</time>
      </trkpt>
      <trkpt lat="43.88675" lon="6.9426">
        <ele>633</ele>
        <time>1990-12-09T10:21:34Z</time>
      </trkpt>
      <trkpt lat="43.88677" lon="6.94288">
        <ele>636</ele>
        <time>1990-12-09T10:21:49Z</time>
      </trkpt>
      <trkpt lat="43.8867" lon="6.94335">
        <ele>638</ele>
        <time>1990-12-09T10:22:10Z</time>
      </trkpt>
      <trkpt lat="43.88667" lon="6.94435">
        <ele>640</ele>
        <time>1990-12-09T10:22:38Z</time>
      </trkpt>
      <trkpt lat="43.88682" lon="6.94578">
        <ele>641</ele>
        <time>1990-12-09T10:23:06Z</time>
      </trkpt>
      <trkpt lat="43.88685" lon="6.94683">
        <ele>645</ele>
        <time>1990-12-09T10:23:31Z</time>
      </trkpt>
      <trkpt lat="43.88688" lon="6.94797">
        <ele>647</ele>
        <time>1990-12-09T10:23:56Z</time>
      </trkpt>
      <trkpt lat="43.88693" lon="6.94905">
        <ele>650</ele>
        <time>1990-12-09T10:24:19Z</time>
      </trkpt>
      <trkpt lat="43.88693" lon="6.94957">
        <ele>654</ele>
        <time>1990-12-09T10:24:36Z</time>
      </trkpt>
      <trkpt lat="43.8869" lon="6.94975">
        <ele>655</ele>
        <time>1990-12-09T10:24:42Z</time>
      </trkpt>
      <trkpt lat="43.88678" lon="6.95063">
        <ele>660</ele>
        <time>1990-12-09T10:25:04Z</time>
      </trkpt>
      <trkpt lat="43.8867" lon="6.95093">
        <ele>664</ele>
        <time>1990-12-09T10:25:19Z</time>
      </trkpt>
      <trkpt lat="43.8864" lon="6.95143">
        <ele>669</ele>
        <time>1990-12-09T10:25:43Z</time>
      </trkpt>
      <trkpt lat="43.88612" lon="6.95213">
        <ele>673</ele>
        <time>1990-12-09T10:26:08Z</time>
      </trkpt>
      <trkpt lat="43.88602" lon="6.95258">
        <ele>676</ele>
        <time>1990-12-09T10:26:24Z</time>
      </trkpt>
      <trkpt lat="43.88595" lon="6.95308">
        <ele>680</ele>
        <time>1990-12-09T10:26:43Z</time>
      </trkpt>
      <trkpt lat="43.88585" lon="6.95398">
        <ele>683</ele>
        <time>1990-12-09T10:27:08Z</time>
      </trkpt>
      <trkpt lat="43.88597" lon="6.95465">
        <ele>685</ele>
        <time>1990-12-09T10:27:25Z</time>
      </trkpt>
      <trkpt lat="43.88597" lon="6.95557">
        <ele>688</ele>
        <time>1990-12-09T10:27:49Z</time>
      </trkpt>
      <trkpt lat="43.88605" lon="6.95633">
        <ele>690</ele>
        <time>1990-12-09T10:28:06Z</time>
      </trkpt>
      <trkpt lat="43.88605" lon="6.95747">
        <ele>692</ele>
        <time>1990-12-09T10:28:28Z</time>
      </trkpt>
      <trkpt lat="43.88607" lon="6.95852">
        <ele>697</ele>
        <time>1990-12-09T10:28:49Z</time>
      </trkpt>
      <trkpt lat="43.88593" lon="6.9594">
        <ele>701</ele>
        <time>1990-12-09T10:29:11Z</time>
      </trkpt>
      <trkpt lat="43.88607" lon="6.96032">
        <ele>707</ele>
        <time>1990-12-09T10:29:36Z</time>
      </trkpt>
      <trkpt lat="43.88607" lon="6.96057">
        <ele>709</ele>
        <time>1990-12-09T10:29:45Z</time>
      </trkpt>
      <trkpt lat="43.88597" lon="6.96128">
        <ele>711</ele>
        <time>1990-12-09T10:30:05Z</time>
      </trkpt>
      <trkpt lat="43.88583" lon="6.96202">
        <ele>716</ele>
        <time>1990-12-09T10:30:26Z</time>
      </trkpt>
      <trkpt lat="43.88573" lon="6.96283">
        <ele>721</ele>
        <time>1990-12-09T10:30:50Z</time>
      </trkpt>
      <trkpt lat="43.88577" lon="6.96362">
        <ele>725</ele>
        <time>1990-12-09T10:31:11Z</time>
      </trkpt>
      <trkpt lat="43.88595" lon="6.96448">
        <ele>728</ele>
        <time>1990-12-09T10:31:35Z</time>
      </trkpt>
      <trkpt lat="43.88585" lon="6.96532">
        <ele>733</ele>
        <time>1990-12-09T10:31:57Z</time>
      </trkpt>
      <trkpt lat="43.8858" lon="6.96555">
        <ele>734</ele>
        <time>1990-12-09T10:32:05Z</time>
      </trkpt>
      <trkpt lat="43.88603" lon="6.96642">
        <ele>741</ele>
        <time>1990-12-09T10:32:31Z</time>
      </trkpt>
      <trkpt lat="43.88608" lon="6.96692">
        <ele>746</ele>
        <time>1990-12-09T10:32:50Z</time>
      </trkpt>
      <trkpt lat="43.88602" lon="6.96748">
        <ele>750</ele>
        <time>1990-12-09T10:33:10Z</time>
      </trkpt>
      <trkpt lat="43.886" lon="6.96815">
        <ele>757</ele>
        <time>1990-12-09T10:33:34Z</time>
      </trkpt>
      <trkpt lat="43.8857" lon="6.9684">
        <ele>761</ele>
        <time>1990-12-09T10:33:54Z</time>
      </trkpt>
      <trkpt lat="43.88578" lon="6.96923">
        <ele>765</ele>
        <time>1990-12-09T10:34:19Z</time>
      </trkpt>
      <trkpt lat="43.88585" lon="6.9702">
        <ele>768</ele>
        <time>1990-12-09T10:34:46Z</time>
      </trkpt>
      <trkpt lat="43.88605" lon="6.97088">
        <ele>767</ele>
        <time>1990-12-09T10:34:58Z</time>
      </trkpt>
      <trkpt lat="43.88628" lon="6.9719">
        <ele>769</ele>
        <time>1990-12-09T10:35:16Z</time>
      </trkpt>
      <trkpt lat="43.88643" lon="6.97235">
        <ele>766</ele>
        <time>1990-12-09T10:35:23Z</time>
      </trkpt>
      <trkpt lat="43.88668" lon="6.97372">
        <ele>773</ele>
        <time>1990-12-09T10:35:47Z</time>
      </trkpt>
      <trkpt lat="43.88672" lon="6.9747">
        <ele>779</ele>
        <time>1990-12-09T10:36:11Z</time>
      </trkpt>
      <trkpt lat="43.88668" lon="6.97518">
        <ele>784</ele>
        <time>1990-12-09T10:36:28Z</time>
      </trkpt>
      <trkpt lat="43.88653" lon="6.97563">
        <ele>788</ele>
        <time>1990-12-09T10:36:45Z</time>
      </trkpt>
      <trkpt lat="43.88623" lon="6.97618">
        <ele>794</ele>
        <time>1990-12-09T10:37:10Z</time>
      </trkpt>
      <trkpt lat="43.8862" lon="6.97653">
        <ele>796</ele>
        <time>1990-12-09T10:37:22Z</time>
      </trkpt>
      <trkpt lat="43.8864" lon="6.97725">
        <ele>803</ele>
        <time>1990-12-09T10:37:48Z</time>
      </trkpt>
      <trkpt lat="43.88628" lon="6.97768">
        <ele>806</ele>
        <time>1990-12-09T10:38:05Z</time>
      </trkpt>
      <trkpt lat="43.8862" lon="6.97817">
        <ele>810</ele>
        <time>1990-12-09T10:38:20Z</time>
      </trkpt>
      <trkpt lat="43.88628" lon="6.97863">
        <ele>814</ele>
        <time>1990-12-09T10:38:38Z</time>
      </trkpt>
      <trkpt lat="43.88632" lon="6.97885">
        <ele>816</ele>
        <time>1990-12-09T10:38:47Z</time>
      </trkpt>
      <trkpt lat="43.8863" lon="6.97927">
        <ele>820</ele>
        <time>1990-12-09T10:39:02Z</time>
      </trkpt>
      <trkpt lat="43.88628" lon="6.98002">
        <ele>826</ele>
        <time>1990-12-09T10:39:26Z</time>
      </trkpt>
      <trkpt lat="43.8863" lon="6.9807">
        <ele>832</ele>
        <time>1990-12-09T10:39:49Z</time>
      </trkpt>
      <trkpt lat="43.8865" lon="6.98138">
        <ele>837</ele>
        <time>1990-12-09T10:40:15Z</time>
      </trkpt>
      <trkpt lat="43.88672" lon="6.98207">
        <ele>840</ele>
        <time>1990-12-09T10:40:36Z</time>
      </trkpt>
      <trkpt lat="43.88702" lon="6.98275">
        <ele>844</ele>
        <time>1990-12-09T10:41:00Z</time>
      </trkpt>
      <trkpt lat="43.8872" lon="6.98342">
        <ele>849</ele>
        <time>1990-12-09T10:41:26Z</time>
      </trkpt>
      <trkpt lat="43.88728" lon="6.98397">
        <ele>852</ele>
        <time>1990-12-09T10:41:47Z</time>
      </trkpt>
      <trkpt lat="43.88732" lon="6.98435">
        <ele>852</ele>
        <time>1990-12-09T10:42:16Z</time>
      </trkpt>
      <trkpt lat="43.8874" lon="6.98438">
        <ele>852</ele>
        <time>1990-12-09T10:43:03Z</time>
      </trkpt>
      <trkpt lat="43.88742" lon="6.9844">
        <ele>850</ele>
        <time>1990-12-09T10:49:30Z</time>
      </trkpt>
      <trkpt lat="43.88742" lon="6.98438">
        <ele>852</ele>
        <time>1990-12-09T10:52:18Z</time>
      </trkpt>
      <trkpt lat="43.88742" lon="6.98448">
        <ele>855</ele>
        <time>1990-12-09T10:58:10Z</time>
      </trkpt>
      <trkpt lat="43.88742" lon="6.98443">
        <ele>855</ele>
        <time>1990-12-09T11:00:19Z</time>
      </trkpt>
      <trkpt lat="43.88733" lon="6.98445">
        <ele>856</ele>
        <time>1990-12-09T11:03:11Z</time>
      </trkpt>
      <trkpt lat="43.88735" lon="6.9844">
        <ele>856</ele>
        <time>1990-12-09T11:05:39Z</time>
      </trkpt>
      <trkpt lat="43.88737" lon="6.98447">
        <ele>856</ele>
        <time>1990-12-09T11:07:00Z</time>
      </trkpt>
      <trkpt lat="43.88762" lon="6.98473">
        <ele>853</ele>
        <time>1990-12-09T11:07:54Z</time>
      </trkpt>
      <trkpt lat="43.88785" lon="6.9851">
        <ele>849</ele>
        <time>1990-12-09T11:08:00Z</time>
      </trkpt>
      <trkpt lat="43.88807" lon="6.9856">
        <ele>845</ele>
        <time>1990-12-09T11:08:10Z</time>
      </trkpt>
      <trkpt lat="43.88832" lon="6.98597">
        <ele>841</ele>
        <time>1990-12-09T11:08:16Z</time>
      </trkpt>
      <trkpt lat="43.8884" lon="6.98645">
        <ele>841</ele>
        <time>1990-12-09T11:08:24Z</time>
      </trkpt>
      <trkpt lat="43.8886" lon="6.98717">
        <ele>837</ele>
        <time>1990-12-09T11:08:36Z</time>
      </trkpt>
      <trkpt lat="43.88897" lon="6.98752">
        <ele>835</ele>
        <time>1990-12-09T11:08:45Z</time>
      </trkpt>
      <trkpt lat="43.88917" lon="6.98793">
        <ele>835</ele>
        <time>1990-12-09T11:08:55Z</time>
      </trkpt>
      <trkpt lat="43.88932" lon="6.98815">
        <ele>833</ele>
        <time>1990-12-09T11:09:02Z</time>
      </trkpt>
      <trkpt lat="43.88938" lon="6.98877">
        <ele>830</ele>
        <time>1990-12-09T11:09:12Z</time>
      </trkpt>
      <trkpt lat="43.88962" lon="6.9892">
        <ele>825</ele>
        <time>1990-12-09T11:09:22Z</time>
      </trkpt>
      <trkpt lat="43.88998" lon="6.98972">
        <ele>818</ele>
        <time>1990-12-09T11:09:32Z</time>
      </trkpt>
      <trkpt lat="43.89012" lon="6.98987">
        <ele>813</ele>
        <time>1990-12-09T11:09:43Z</time>
      </trkpt>
      <trkpt lat="43.88982" lon="6.98978">
        <ele>810</ele>
        <time>1990-12-09T11:09:56Z</time>
      </trkpt>
      <trkpt lat="43.88987" lon="6.98988">
        <ele>809</ele>
        <time>1990-12-09T11:10:19Z</time>
      </trkpt>
      <trkpt lat="43.89007" lon="6.99">
        <ele>806</ele>
        <time>1990-12-09T11:10:25Z</time>
      </trkpt>
      <trkpt lat="43.8897" lon="6.98997">
        <ele>800</ele>
        <time>1990-12-09T11:10:37Z</time>
      </trkpt>
      <trkpt lat="43.88958" lon="6.98993">
        <ele>799</ele>
        <time>1990-12-09T11:10:40Z</time>
      </trkpt>
      <trkpt lat="43.88972" lon="6.99018">
        <ele>798</ele>
        <time>1990-12-09T11:10:49Z</time>
      </trkpt>
      <trkpt lat="43.88987" lon="6.99043">
        <ele>794</ele>
        <time>1990-12-09T11:10:59Z</time>
      </trkpt>
      <trkpt lat="43.88955" lon="6.9905">
        <ele>789</ele>
        <time>1990-12-09T11:11:11Z</time>
      </trkpt>
      <trkpt lat="43.8897" lon="6.99067">
        <ele>787</ele>
        <time>1990-12-09T11:11:15Z</time>
      </trkpt>
      <trkpt lat="43.89002" lon="6.99082">
        <ele>782</ele>
        <time>1990-12-09T11:11:22Z</time>
      </trkpt>
      <trkpt lat="43.89028" lon="6.99098">
        <ele>777</ele>
        <time>1990-12-09T11:11:33Z</time>
      </trkpt>
      <trkpt lat="43.89033" lon="6.9917">
        <ele>774</ele>
        <time>1990-12-09T11:11:41Z</time>
      </trkpt>
      <trkpt lat="43.89055" lon="6.99252">
        <ele>769</ele>
        <time>1990-12-09T11:11:53Z</time>
      </trkpt>
      <trkpt lat="43.89027" lon="6.9932">
        <ele>765</ele>
        <time>1990-12-09T11:12:02Z</time>
      </trkpt>
      <trkpt lat="43.89025" lon="6.99393">
        <ele>765</ele>
        <time>1990-12-09T11:12:11Z</time>
      </trkpt>
      <trkpt lat="43.89083" lon="6.9948">
        <ele>765</ele>
        <time>1990-12-09T11:12:26Z</time>
      </trkpt>
      <trkpt lat="43.89133" lon="6.99482">
        <ele>768</ele>
        <time>1990-12-09T11:12:46Z</time>
      </trkpt>
      <trkpt lat="43.8913" lon="6.99553">
        <ele>765</ele>
        <time>1990-12-09T11:13:01Z</time>
      </trkpt>
      <trkpt lat="43.8915" lon="6.99618">
        <ele>760</ele>
        <time>1990-12-09T11:13:10Z</time>
      </trkpt>
      <trkpt lat="43.8916" lon="6.99658">
        <ele>756</ele>
        <time>1990-12-09T11:13:15Z</time>
      </trkpt>
      <trkpt lat="43.89175" lon="6.99702">
        <ele>753</ele>
        <time>1990-12-09T11:13:21Z</time>
      </trkpt>
      <trkpt lat="43.89237" lon="6.9972">
        <ele>749</ele>
        <time>1990-12-09T11:13:36Z</time>
      </trkpt>
      <trkpt lat="43.89233" lon="6.99773">
        <ele>751</ele>
        <time>1990-12-09T11:13:53Z</time>
      </trkpt>
      <trkpt lat="43.89232" lon="6.99832">
        <ele>756</ele>
        <time>1990-12-09T11:14:19Z</time>
      </trkpt>
      <trkpt lat="43.89232" lon="6.9984">
        <ele>755</ele>
        <time>1990-12-09T11:16:02Z</time>
      </trkpt>
      <trkpt lat="43.89242" lon="6.99878">
        <ele>751</ele>
        <time>1990-12-09T11:16:11Z</time>
      </trkpt>
      <trkpt lat="43.89233" lon="6.99902">
        <ele>750</ele>
        <time>1990-12-09T11:16:15Z</time>
      </trkpt>
      <trkpt lat="43.89213" lon="6.99927">
        <ele>748</ele>
        <time>1990-12-09T11:16:21Z</time>
      </trkpt>
      <trkpt lat="43.8921" lon="6.99958">
        <ele>744</ele>
        <time>1990-12-09T11:16:25Z</time>
      </trkpt>
      <trkpt lat="43.89173" lon="7.00002">
        <ele>739</ele>
        <time>1990-12-09T11:16:33Z</time>
      </trkpt>
      <trkpt lat="43.89147" lon="7.00033">
        <ele>735</ele>
        <time>1990-12-09T11:16:39Z</time>
      </trkpt>
      <trkpt lat="43.89137" lon="7.00072">
        <ele>731</ele>
        <time>1990-12-09T11:16:43Z</time>
      </trkpt>
      <trkpt lat="43.8916" lon="7.00123">
        <ele>731</ele>
        <time>1990-12-09T11:16:55Z</time>
      </trkpt>
      <trkpt lat="43.8916" lon="7.00182">
        <ele>730</ele>
        <time>1990-12-09T11:17:04Z</time>
      </trkpt>
      <trkpt lat="43.89163" lon="7.00247">
        <ele>725</ele>
        <time>1990-12-09T11:17:12Z</time>
      </trkpt>
      <trkpt lat="43.89175" lon="7.0033">
        <ele>718</ele>
        <time>1990-12-09T11:17:22Z</time>
      </trkpt>
      <trkpt lat="43.89178" lon="7.00382">
        <ele>713</ele>
        <time>1990-12-09T11:17:29Z</time>
      </trkpt>
      <trkpt lat="43.89188" lon="7.00408">
        <ele>712</ele>
        <time>1990-12-09T11:17:34Z</time>
      </trkpt>
      <trkpt lat="43.89192" lon="7.00448">
        <ele>708</ele>
        <time>1990-12-09T11:17:44Z</time>
      </trkpt>
      <trkpt lat="43.89175" lon="7.00517">
        <ele>704</ele>
        <time>1990-12-09T11:17:58Z</time>
      </trkpt>
      <trkpt lat="43.8917" lon="7.00577">
        <ele>701</ele>
        <time>1990-12-09T11:18:07Z</time>
      </trkpt>
      <trkpt lat="43.89143" lon="7.00648">
        <ele>696</ele>
        <time>1990-12-09T11:18:15Z</time>
      </trkpt>
      <trkpt lat="43.8912" lon="7.00733">
        <ele>687</ele>
        <time>1990-12-09T11:18:24Z</time>
      </trkpt>
      <trkpt lat="43.89122" lon="7.00777">
        <ele>685</ele>
        <time>1990-12-09T11:18:36Z</time>
      </trkpt>
      <trkpt lat="43.89118" lon="7.00778">
        <ele>684</ele>
        <time>1990-12-09T11:19:28Z</time>
      </trkpt>
      <trkpt lat="43.89105" lon="7.00742">
        <ele>682</ele>
        <time>1990-12-09T11:19:39Z</time>
      </trkpt>
      <trkpt lat="43.8908" lon="7.00695">
        <ele>677</ele>
        <time>1990-12-09T11:19:45Z</time>
      </trkpt>
      <trkpt lat="43.89067" lon="7.00625">
        <ele>672</ele>
        <time>1990-12-09T11:19:53Z</time>
      </trkpt>
      <trkpt lat="43.8905" lon="7.0063">
        <ele>668</ele>
        <time>1990-12-09T11:19:58Z</time>
      </trkpt>
      <trkpt lat="43.89025" lon="7.00712">
        <ele>661</ele>
        <time>1990-12-09T11:20:06Z</time>
      </trkpt>
      <trkpt lat="43.89012" lon="7.00775">
        <ele>655</ele>
        <time>1990-12-09T11:20:11Z</time>
      </trkpt>
      <trkpt lat="43.89047" lon="7.00858">
        <ele>647</ele>
        <time>1990-12-09T11:20:22Z</time>
      </trkpt>
      <trkpt lat="43.89033" lon="7.009">
        <ele>644</ele>
        <time>1990-12-09T11:20:27Z</time>
      </trkpt>
      <trkpt lat="43.89027" lon="7.0096">
        <ele>641</ele>
        <time>1990-12-09T11:20:32Z</time>
      </trkpt>
      <trkpt lat="43.89023" lon="7.0101">
        <ele>637</ele>
        <time>1990-12-09T11:20:36Z</time>
      </trkpt>
      <trkpt lat="43.89042" lon="7.01133">
        <ele>630</ele>
        <time>1990-12-09T11:20:46Z</time>
      </trkpt>
      <trkpt lat="43.8906" lon="7.01205">
        <ele>625</ele>
        <time>1990-12-09T11:20:53Z</time>
      </trkpt>
      <trkpt lat="43.89038" lon="7.01278">
        <ele>621</ele>
        <time>1990-12-09T11:21:01Z</time>
      </trkpt>
      <trkpt lat="43.88988" lon="7.0135">
        <ele>617</ele>
        <time>1990-12-09T11:21:10Z</time>
      </trkpt>
      <trkpt lat="43.88967" lon="7.01398">
        <ele>613</ele>
        <time>1990-12-09T11:21:15Z</time>
      </trkpt>
      <trkpt lat="43.8898" lon="7.01503">
        <ele>603</ele>
        <time>1990-12-09T11:21:24Z</time>
      </trkpt>
      <trkpt lat="43.8898" lon="7.01572">
        <ele>597</ele>
        <time>1990-12-09T11:21:30Z</time>
      </trkpt>
      <trkpt lat="43.88955" lon="7.01647">
        <ele>590</ele>
        <time>1990-12-09T11:21:38Z</time>
      </trkpt>
      <trkpt lat="43.8894" lon="7.01718">
        <ele>583</ele>
        <time>1990-12-09T11:21:44Z</time>
      </trkpt>
      <trkpt lat="43.88927" lon="7.01787">
        <ele>575</ele>
        <time>1990-12-09T11:21:52Z</time>
      </trkpt>
      <trkpt lat="43.88887" lon="7.01823">
        <ele>567</ele>
        <time>1990-12-09T11:21:58Z</time>
      </trkpt>
      <trkpt lat="43.88855" lon="7.01847">
        <ele>562</ele>
        <time>1990-12-09T11:22:03Z</time>
      </trkpt>
      <trkpt lat="43.88827" lon="7.01822">
        <ele>558</ele>
        <time>1990-12-09T11:22:10Z</time>
      </trkpt>
      <trkpt lat="43.88787" lon="7.01753">
        <ele>555</ele>
        <time>1990-12-09T11:22:21Z</time>
      </trkpt>
      <trkpt lat="43.88738" lon="7.01757">
        <ele>552</ele>
        <time>1990-12-09T11:22:35Z</time>
      </trkpt>
      <trkpt lat="43.88737" lon="7.0183">
        <ele>546</ele>
        <time>1990-12-09T11:22:57Z</time>
      </trkpt>
      <trkpt lat="43.8873" lon="7.01865">
        <ele>544</ele>
        <time>1990-12-09T11:23:02Z</time>
      </trkpt>
      <trkpt lat="43.88727" lon="7.01895">
        <ele>543</ele>
        <time>1990-12-09T11:23:06Z</time>
      </trkpt>
      <trkpt lat="43.88702" lon="7.01943">
        <ele>540</ele>
        <time>1990-12-09T11:23:16Z</time>
      </trkpt>
      <trkpt lat="43.88673" lon="7.0198">
        <ele>536</ele>
        <time>1990-12-09T11:23:30Z</time>
      </trkpt>
      <trkpt lat="43.8867" lon="7.02012">
        <ele>537</ele>
        <time>1990-12-09T11:23:47Z</time>
      </trkpt>
      <trkpt lat="43.88657" lon="7.02018">
        <ele>538</ele>
        <time>1990-12-09T11:24:04Z</time>
      </trkpt>
      <trkpt lat="43.88605" lon="7.0199">
        <ele>535</ele>
        <time>1990-12-09T11:24:25Z</time>
      </trkpt>
      <trkpt lat="43.88595" lon="7.02">
        <ele>533</ele>
        <time>1990-12-09T11:24:35Z</time>
      </trkpt>
      <trkpt lat="43.88602" lon="7.02012">
        <ele>531</ele>
        <time>1990-12-09T11:25:12Z</time>
      </trkpt>
      <trkpt lat="43.88598" lon="7.0202">
        <ele>530</ele>
        <time>1990-12-09T11:25:24Z</time>
      </trkpt>
      <trkpt lat="43.88545" lon="7.0196">
        <ele>524</ele>
        <time>1990-12-09T11:25:44Z</time>
      </trkpt>
      <trkpt lat="43.88508" lon="7.01967">
        <ele>523</ele>
        <time>1990-12-09T11:26:02Z</time>
      </trkpt>
      <trkpt lat="43.88472" lon="7.01937">
        <ele>520</ele>
        <time>1990-12-09T11:26:27Z</time>
      </trkpt>
      <trkpt lat="43.88458" lon="7.01907">
        <ele>532</ele>
        <time>1990-12-09T11:29:06Z</time>
      </trkpt>
      <trkpt lat="43.88438" lon="7.01898">
        <ele>532</ele>
        <time>1990-12-09T11:29:19Z</time>
      </trkpt>
      <trkpt lat="43.88418" lon="7.01882">
        <ele>533</ele>
        <time>1990-12-09T11:29:29Z</time>
      </trkpt>
      <trkpt lat="43.88397" lon="7.01865">
        <ele>534</ele>
        <time>1990-12-09T11:29:42Z</time>
      </trkpt>
      <trkpt lat="43.88375" lon="7.01897">
        <ele>535</ele>
        <time>1990-12-09T11:29:57Z</time>
      </trkpt>
      <trkpt lat="43.88363" lon="7.01937">
        <ele>537</ele>
        <time>1990-12-09T11:30:12Z</time>
      </trkpt>
      <trkpt lat="43.8833" lon="7.0196">
        <ele>541</ele>
        <time>1990-12-09T11:30:33Z</time>
      </trkpt>
      <trkpt lat="43.88295" lon="7.01973">
        <ele>544</ele>
        <time>1990-12-09T11:30:55Z</time>
      </trkpt>
      <trkpt lat="43.88268" lon="7.01985">
        <ele>549</ele>
        <time>1990-12-09T11:31:21Z</time>
      </trkpt>
      <trkpt lat="43.88258" lon="7.01962">
        <ele>552</ele>
        <time>1990-12-09T11:31:56Z</time>
      </trkpt>
      <trkpt lat="43.88242" lon="7.01947">
        <ele>559</ele>
        <time>1990-12-09T11:32:28Z</time>
      </trkpt>
      <trkpt lat="43.88225" lon="7.01947">
        <ele>563</ele>
        <time>1990-12-09T11:33:04Z</time>
      </trkpt>
      <trkpt lat="43.88218" lon="7.01937">
        <ele>568</ele>
        <time>1990-12-09T11:33:35Z</time>
      </trkpt>
      <trkpt lat="43.88212" lon="7.01913">
        <ele>572</ele>
        <time>1990-12-09T11:34:11Z</time>
      </trkpt>
      <trkpt lat="43.88205" lon="7.01905">
        <ele>571</ele>
        <time>1990-12-09T11:38:07Z</time>
      </trkpt>
      <trkpt lat="43.8819" lon="7.01855">
        <ele>571</ele>
        <time>1990-12-09T11:38:26Z</time>
      </trkpt>
      <trkpt lat="43.8817" lon="7.01808">
        <ele>568</ele>
        <time>1990-12-09T11:38:47Z</time>
      </trkpt>
      <trkpt lat="43.8816" lon="7.01808">
        <ele>563</ele>
        <time>1990-12-09T11:39:20Z</time>
      </trkpt>
      <trkpt lat="43.88137" lon="7.01792">
        <ele>559</ele>
        <time>1990-12-09T11:39:47Z</time>
      </trkpt>
      <trkpt lat="43.8812" lon="7.01782">
        <ele>554</ele>
        <time>1990-12-09T11:40:22Z</time>
      </trkpt>
      <trkpt lat="43.8811" lon="7.01775">
        <ele>552</ele>
        <time>1990-12-09T11:40:34Z</time>
      </trkpt>
      <trkpt lat="43.88093" lon="7.0175">
        <ele>549</ele>
        <time>1990-12-09T11:40:47Z</time>
      </trkpt>
      <trkpt lat="43.88088" lon="7.01665">
        <ele>544</ele>
        <time>1990-12-09T11:41:07Z</time>
      </trkpt>
      <trkpt lat="43.88078" lon="7.01632">
        <ele>539</ele>
        <time>1990-12-09T11:41:21Z</time>
      </trkpt>
      <trkpt lat="43.88068" lon="7.0162">
        <ele>538</ele>
        <time>1990-12-09T11:41:27Z</time>
      </trkpt>
      <trkpt lat="43.88048" lon="7.01565">
        <ele>535</ele>
        <time>1990-12-09T11:41:48Z</time>
      </trkpt>
      <trkpt lat="43.88042" lon="7.01543">
        <ele>531</ele>
        <time>1990-12-09T11:43:37Z</time>
      </trkpt>
      <trkpt lat="43.88023" lon="7.01538">
        <ele>525</ele>
        <time>1990-12-09T11:44:03Z</time>
      </trkpt>
      <trkpt lat="43.88003" lon="7.01527">
        <ele>521</ele>
        <time>1990-12-09T11:44:22Z</time>
      </trkpt>
      <trkpt lat="43.87983" lon="7.0152">
        <ele>516</ele>
        <time>1990-12-09T11:44:35Z</time>
      </trkpt>
      <trkpt lat="43.87973" lon="7.01503">
        <ele>513</ele>
        <time>1990-12-09T11:44:49Z</time>
      </trkpt>
      <trkpt lat="43.87962" lon="7.01483">
        <ele>510</ele>
        <time>1990-12-09T11:45:04Z</time>
      </trkpt>
      <trkpt lat="43.8795" lon="7.01452">
        <ele>505</ele>
        <time>1990-12-09T11:45:22Z</time>
      </trkpt>
      <trkpt lat="43.8794" lon="7.0142">
        <ele>502</ele>
        <time>1990-12-09T11:45:35Z</time>
      </trkpt>
      <trkpt lat="43.8792" lon="7.0138">
        <ele>496</ele>
        <time>1990-12-09T11:45:51Z</time>
      </trkpt>
      <trkpt lat="43.87912" lon="7.01363">
        <ele>494</ele>
        <time>1990-12-09T11:45:58Z</time>
      </trkpt>
      <trkpt lat="43.87898" lon="7.01327">
        <ele>489</ele>
        <time>1990-12-09T11:46:10Z</time>
      </trkpt>
      <trkpt lat="43.87892" lon="7.01295">
        <ele>486</ele>
        <time>1990-12-09T11:46:20Z</time>
      </trkpt>
      <trkpt lat="43.87887" lon="7.01287">
        <ele>482</ele>
        <time>1990-12-09T11:46:26Z</time>
      </trkpt>
      <trkpt lat="43.8787" lon="7.01238">
        <ele>476</ele>
        <time>1990-12-09T11:46:42Z</time>
      </trkpt>
      <trkpt lat="43.87873" lon="7.01223">
        <ele>474</ele>
        <time>1990-12-09T11:46:50Z</time>
      </trkpt>
      <trkpt lat="43.8787" lon="7.01192">
        <ele>469</ele>
        <time>1990-12-09T11:47:01Z</time>
      </trkpt>
      <trkpt lat="43.8787" lon="7.01125">
        <ele>464</ele>
        <time>1990-12-09T11:47:17Z</time>
      </trkpt>
      <trkpt lat="43.87863" lon="7.01098">
        <ele>461</ele>
        <time>1990-12-09T11:47:46Z</time>
      </trkpt>
      <trkpt lat="43.87857" lon="7.01072">
        <ele>456</ele>
        <time>1990-12-09T11:48:11Z</time>
      </trkpt>
      <trkpt lat="43.8787" lon="7.01047">
        <ele>451</ele>
        <time>1990-12-09T11:48:23Z</time>
      </trkpt>
      <trkpt lat="43.87887" lon="7.01025">
        <ele>448</ele>
        <time>1990-12-09T11:48:31Z</time>
      </trkpt>
      <trkpt lat="43.87885" lon="7.01015">
        <ele>446</ele>
        <time>1990-12-09T11:48:35Z</time>
      </trkpt>
      <trkpt lat="43.87878" lon="7.00998">
        <ele>443</ele>
        <time>1990-12-09T11:50:10Z</time>
      </trkpt>
      <trkpt lat="43.87888" lon="7.0097">
        <ele>441</ele>
        <time>1990-12-09T11:50:21Z</time>
      </trkpt>
      <trkpt lat="43.87812" lon="7.00922">
        <ele>436</ele>
        <time>1990-12-09T11:50:36Z</time>
      </trkpt>
      <trkpt lat="43.87795" lon="7.0091">
        <ele>434</ele>
        <time>1990-12-09T11:50:40Z</time>
      </trkpt>
      <trkpt lat="43.87737" lon="7.00857">
        <ele>429</ele>
        <time>1990-12-09T11:50:54Z</time>
      </trkpt>
      <trkpt lat="43.87708" lon="7.00767">
        <ele>424</ele>
        <time>1990-12-09T11:51:06Z</time>
      </trkpt>
      <trkpt lat="43.87687" lon="7.00685">
        <ele>419</ele>
        <time>1990-12-09T11:51:19Z</time>
      </trkpt>
      <trkpt lat="43.87638" lon="7.00607">
        <ele>414</ele>
        <time>1990-12-09T11:51:33Z</time>
      </trkpt>
      <trkpt lat="43.87625" lon="7.00562">
        <ele>412</ele>
        <time>1990-12-09T11:51:47Z</time>
      </trkpt>
      <trkpt lat="43.87622" lon="7.0055">
        <ele>411</ele>
        <time>1990-12-09T11:52:08Z</time>
      </trkpt>
      <trkpt lat="43.8762" lon="7.00458">
        <ele>407</ele>
        <time>1990-12-09T11:52:25Z</time>
      </trkpt>
      <trkpt lat="43.87592" lon="7.0037">
        <ele>401</ele>
        <time>1990-12-09T11:52:35Z</time>
      </trkpt>
      <trkpt lat="43.87583" lon="7.00335">
        <ele>400</ele>
        <time>1990-12-09T11:52:40Z</time>
      </trkpt>
      <trkpt lat="43.87585" lon="7.00393">
        <ele>396</ele>
        <time>1990-12-09T11:52:53Z</time>
      </trkpt>
      <trkpt lat="43.87593" lon="7.00423">
        <ele>395</ele>
        <time>1990-12-09T11:52:57Z</time>
      </trkpt>
      <trkpt lat="43.8758" lon="7.00462">
        <ele>392</ele>
        <time>1990-12-09T11:53:06Z</time>
      </trkpt>
      <trkpt lat="43.87567" lon="7.00418">
        <ele>389</ele>
        <time>1990-12-09T11:53:15Z</time>
      </trkpt>
      <trkpt lat="43.87537" lon="7.00347">
        <ele>386</ele>
        <time>1990-12-09T11:53:24Z</time>
      </trkpt>
      <trkpt lat="43.87512" lon="7.00292">
        <ele>383</ele>
        <time>1990-12-09T11:53:29Z</time>
      </trkpt>
      <trkpt lat="43.87458" lon="7.00182">
        <ele>377</ele>
        <time>1990-12-09T11:53:40Z</time>
      </trkpt>
      <trkpt lat="43.87462" lon="7.00092">
        <ele>372</ele>
        <time>1990-12-09T11:53:47Z</time>
      </trkpt>
      <trkpt lat="43.87465" lon="7.00043">
        <ele>370</ele>
        <time>1990-12-09T11:53:52Z</time>
      </trkpt>
      <trkpt lat="43.87437" lon="7.00073">
        <ele>366</ele>
        <time>1990-12-09T11:53:59Z</time>
      </trkpt>
      <trkpt lat="43.87427" lon="7.00105">
        <ele>365</ele>
        <time>1990-12-09T11:54:02Z</time>
      </trkpt>
      <trkpt lat="43.87392" lon="7.00158">
        <ele>363</ele>
        <time>1990-12-09T11:54:09Z</time>
      </trkpt>
      <trkpt lat="43.87397" lon="7.0025">
        <ele>358</ele>
        <time>1990-12-09T11:54:17Z</time>
      </trkpt>
      <trkpt lat="43.87418" lon="7.00367">
        <ele>352</ele>
        <time>1990-12-09T11:54:29Z</time>
      </trkpt>
      <trkpt lat="43.87422" lon="7.00438">
        <ele>351</ele>
        <time>1990-12-09T11:54:43Z</time>
      </trkpt>
      <trkpt lat="43.87418" lon="7.00532">
        <ele>348</ele>
        <time>1990-12-09T11:55:05Z</time>
      </trkpt>
      <trkpt lat="43.87417" lon="7.00608">
        <ele>346</ele>
        <time>1990-12-09T11:55:25Z</time>
      </trkpt>
      <trkpt lat="43.8742" lon="7.00682">
        <ele>344</ele>
        <time>1990-12-09T11:55:39Z</time>
      </trkpt>
      <trkpt lat="43.87432" lon="7.00718">
        <ele>343</ele>
        <time>1990-12-09T11:56:27Z</time>
      </trkpt>
      <trkpt lat="43.87452" lon="7.00768">
        <ele>340</ele>
        <time>1990-12-09T11:56:57Z</time>
      </trkpt>
      <trkpt lat="43.8747" lon="7.00818">
        <ele>339</ele>
        <time>1990-12-09T11:58:23Z</time>
      </trkpt>
      <trkpt lat="43.87482" lon="7.00858">
        <ele>338</ele>
        <time>1990-12-09T11:58:30Z</time>
      </trkpt>
      <trkpt lat="43.87478" lon="7.00922">
        <ele>336</ele>
        <time>1990-12-09T11:58:42Z</time>
      </trkpt>
      <trkpt lat="43.8742" lon="7.0095">
        <ele>335</ele>
        <time>1990-12-09T11:58:59Z</time>
      </trkpt>
      <trkpt lat="43.87355" lon="7.00872">
        <ele>336</ele>
        <time>1990-12-09T11:59:23Z</time>
      </trkpt>
      <trkpt lat="43.87277" lon="7.00815">
        <ele>336</ele>
        <time>1990-12-09T11:59:47Z</time>
      </trkpt>
      <trkpt lat="43.87218" lon="7.00717">
        <ele>336</ele>
        <time>1990-12-09T12:00:10Z</time>
      </trkpt>
      <trkpt lat="43.87178" lon="7.00663">
        <ele>337</ele>
        <time>1990-12-09T12:00:31Z</time>
      </trkpt>
      <trkpt lat="43.87177" lon="7.00642">
        <ele>332</ele>
        <time>1990-12-09T12:00:55Z</time>
      </trkpt>
      <trkpt lat="43.87175" lon="7.00635">
        <ele>329</ele>
        <time>1990-12-09T12:01:20Z</time>
      </trkpt>
      <trkpt lat="43.87185" lon="7.00613">
        <ele>329</ele>
        <time>1990-12-09T12:01:33Z</time>
      </trkpt>
      <trkpt lat="43.8719" lon="7.00588">
        <ele>328</ele>
        <time>1990-12-09T12:01:56Z</time>
      </trkpt>
      <trkpt lat="43.87143" lon="7.00548">
        <ele>335</ele>
        <time>1990-12-09T14:17:03Z</time>
      </trkpt>
      <trkpt lat="43.8709" lon="7.00488">
        <ele>339</ele>
        <time>1990-12-09T14:17:28Z</time>
      </trkpt>
      <trkpt lat="43.87085" lon="7.00478">
        <ele>339</ele>
        <time>1990-12-09T14:17:32Z</time>
      </trkpt>
      <trkpt lat="43.87027" lon="7.00448">
        <ele>342</ele>
        <time>1990-12-09T14:17:50Z</time>
      </trkpt>
      <trkpt lat="43.86962" lon="7.00427">
        <ele>346</ele>
        <time>1990-12-09T14:18:14Z</time>
      </trkpt>
      <trkpt lat="43.8694" lon="7.00438">
        <ele>347</ele>
        <time>1990-12-09T14:18:42Z</time>
      </trkpt>
      <trkpt lat="43.86878" lon="7.00452">
        <ele>350</ele>
        <time>1990-12-09T14:19:03Z</time>
      </trkpt>
      <trkpt lat="43.86852" lon="7.00448">
        <ele>351</ele>
        <time>1990-12-09T14:19:15Z</time>
      </trkpt>
      <trkpt lat="43.86847" lon="7.00457">
        <ele>351</ele>
        <time>1990-12-09T14:19:30Z</time>
      </trkpt>
      <trkpt lat="43.86822" lon="7.0046">
        <ele>353</ele>
        <time>1990-12-09T14:19:47Z</time>
      </trkpt>
      <trkpt lat="43.86827" lon="7.00465">
        <ele>353</ele>
        <time>1990-12-09T14:20:28Z</time>
      </trkpt>
      <trkpt lat="43.86793" lon="7.00475">
        <ele>357</ele>
        <time>1990-12-09T14:20:57Z</time>
      </trkpt>
      <trkpt lat="43.86762" lon="7.00487">
        <ele>361</ele>
        <time>1990-12-09T14:21:14Z</time>
      </trkpt>
      <trkpt lat="43.86725" lon="7.00497">
        <ele>366</ele>
        <time>1990-12-09T14:21:38Z</time>
      </trkpt>
      <trkpt lat="43.86715" lon="7.005">
        <ele>368</ele>
        <time>1990-12-09T14:21:46Z</time>
      </trkpt>
      <trkpt lat="43.86705" lon="7.00513">
        <ele>370</ele>
        <time>1990-12-09T14:21:55Z</time>
      </trkpt>
      <trkpt lat="43.86687" lon="7.00528">
        <ele>374</ele>
        <time>1990-12-09T14:22:14Z</time>
      </trkpt>
      <trkpt lat="43.86665" lon="7.00533">
        <ele>376</ele>
        <time>1990-12-09T14:22:30Z</time>
      </trkpt>
      <trkpt lat="43.86627" lon="7.00533">
        <ele>380</ele>
        <time>1990-12-09T14:22:55Z</time>
      </trkpt>
      <trkpt lat="43.86593" lon="7.00528">
        <ele>386</ele>
        <time>1990-12-09T14:23:20Z</time>
      </trkpt>
      <trkpt lat="43.86567" lon="7.00505">
        <ele>390</ele>
        <time>1990-12-09T14:23:40Z</time>
      </trkpt>
      <trkpt lat="43.86555" lon="7.00508">
        <ele>391</ele>
        <time>1990-12-09T14:23:52Z</time>
      </trkpt>
      <trkpt lat="43.86573" lon="7.00557">
        <ele>394</ele>
        <time>1990-12-09T14:24:12Z</time>
      </trkpt>
      <trkpt lat="43.86587" lon="7.00615">
        <ele>400</ele>
        <time>1990-12-09T14:24:40Z</time>
      </trkpt>
      <trkpt lat="43.86583" lon="7.00635">
        <ele>402</ele>
        <time>1990-12-09T14:24:49Z</time>
      </trkpt>
      <trkpt lat="43.86555" lon="7.00672">
        <ele>408</ele>
        <time>1990-12-09T14:25:17Z</time>
      </trkpt>
      <trkpt lat="43.86543" lon="7.00678">
        <ele>412</ele>
        <time>1990-12-09T14:25:37Z</time>
      </trkpt>
      <trkpt lat="43.86548" lon="7.00707">
        <ele>413</ele>
        <time>1990-12-09T14:25:45Z</time>
      </trkpt>
      <trkpt lat="43.86542" lon="7.00762">
        <ele>417</ele>
        <time>1990-12-09T14:26:08Z</time>
      </trkpt>
      <trkpt lat="43.86527" lon="7.00787">
        <ele>420</ele>
        <time>1990-12-09T14:26:24Z</time>
      </trkpt>
      <trkpt lat="43.86498" lon="7.0081">
        <ele>424</ele>
        <time>1990-12-09T14:26:46Z</time>
      </trkpt>
      <trkpt lat="43.86478" lon="7.00817">
        <ele>428</ele>
        <time>1990-12-09T14:27:07Z</time>
      </trkpt>
      <trkpt lat="43.86467" lon="7.00868">
        <ele>430</ele>
        <time>1990-12-09T14:27:22Z</time>
      </trkpt>
      <trkpt lat="43.86497" lon="7.00917">
        <ele>436</ele>
        <time>1990-12-09T14:27:50Z</time>
      </trkpt>
      <trkpt lat="43.86493" lon="7.00938">
        <ele>438</ele>
        <time>1990-12-09T14:28:01Z</time>
      </trkpt>
      <trkpt lat="43.8649" lon="7.00958">
        <ele>440</ele>
        <time>1990-12-09T14:28:12Z</time>
      </trkpt>
      <trkpt lat="43.86478" lon="7.01005">
        <ele>445</ele>
        <time>1990-12-09T14:28:35Z</time>
      </trkpt>
      <trkpt lat="43.86452" lon="7.01045">
        <ele>450</ele>
        <time>1990-12-09T14:29:02Z</time>
      </trkpt>
      <trkpt lat="43.8643" lon="7.01077">
        <ele>453</ele>
        <time>1990-12-09T14:29:22Z</time>
      </trkpt>
      <trkpt lat="43.86425" lon="7.0112">
        <ele>456</ele>
        <time>1990-12-09T14:29:40Z</time>
      </trkpt>
      <trkpt lat="43.864" lon="7.0115">
        <ele>460</ele>
        <time>1990-12-09T14:30:01Z</time>
      </trkpt>
      <trkpt lat="43.86387" lon="7.01193">
        <ele>465</ele>
        <time>1990-12-09T14:30:23Z</time>
      </trkpt>
      <trkpt lat="43.8638" lon="7.01235">
        <ele>469</ele>
        <time>1990-12-09T14:30:43Z</time>
      </trkpt>
      <trkpt lat="43.86368" lon="7.01257">
        <ele>472</ele>
        <time>1990-12-09T14:30:59Z</time>
      </trkpt>
      <trkpt lat="43.86337" lon="7.01272">
        <ele>477</ele>
        <time>1990-12-09T14:31:19Z</time>
      </trkpt>
      <trkpt lat="43.86328" lon="7.0129">
        <ele>479</ele>
        <time>1990-12-09T14:31:28Z</time>
      </trkpt>
      <trkpt lat="43.86303" lon="7.01317">
        <ele>483</ele>
        <time>1990-12-09T14:31:49Z</time>
      </trkpt>
      <trkpt lat="43.863" lon="7.01352">
        <ele>486</ele>
        <time>1990-12-09T14:32:06Z</time>
      </trkpt>
      <trkpt lat="43.86312" lon="7.01408">
        <ele>492</ele>
        <time>1990-12-09T14:32:31Z</time>
      </trkpt>
      <trkpt lat="43.8629" lon="7.01418">
        <ele>495</ele>
        <time>1990-12-09T14:32:45Z</time>
      </trkpt>
      <trkpt lat="43.86252" lon="7.0138">
        <ele>500</ele>
        <time>1990-12-09T14:33:14Z</time>
      </trkpt>
      <trkpt lat="43.86223" lon="7.01328">
        <ele>504</ele>
        <time>1990-12-09T14:33:41Z</time>
      </trkpt>
      <trkpt lat="43.86212" lon="7.01323">
        <ele>505</ele>
        <time>1990-12-09T14:33:50Z</time>
      </trkpt>
      <trkpt lat="43.86173" lon="7.0131">
        <ele>512</ele>
        <time>1990-12-09T14:34:16Z</time>
      </trkpt>
      <trkpt lat="43.86137" lon="7.01292">
        <ele>517</ele>
        <time>1990-12-09T14:34:42Z</time>
      </trkpt>
      <trkpt lat="43.8611" lon="7.01245">
        <ele>522</ele>
        <time>1990-12-09T14:35:08Z</time>
      </trkpt>
      <trkpt lat="43.8612" lon="7.01207">
        <ele>525</ele>
        <time>1990-12-09T14:35:24Z</time>
      </trkpt>
      <trkpt lat="43.86118" lon="7.0118">
        <ele>527</ele>
        <time>1990-12-09T14:35:36Z</time>
      </trkpt>
      <trkpt lat="43.86118" lon="7.01135">
        <ele>530</ele>
        <time>1990-12-09T14:35:56Z</time>
      </trkpt>
      <trkpt lat="43.86117" lon="7.01118">
        <ele>531</ele>
        <time>1990-12-09T14:36:07Z</time>
      </trkpt>
      <trkpt lat="43.86108" lon="7.01065">
        <ele>536</ele>
        <time>1990-12-09T14:36:33Z</time>
      </trkpt>
      <trkpt lat="43.861" lon="7.01027">
        <ele>537</ele>
        <time>1990-12-09T14:36:44Z</time>
      </trkpt>
      <trkpt lat="43.86097" lon="7.01012">
        <ele>538</ele>
        <time>1990-12-09T14:36:50Z</time>
      </trkpt>
      <trkpt lat="43.86028" lon="7.0094">
        <ele>542</ele>
        <time>1990-12-09T14:37:15Z</time>
      </trkpt>
      <trkpt lat="43.86013" lon="7.00917">
        <ele>545</ele>
        <time>1990-12-09T14:37:30Z</time>
      </trkpt>
      <trkpt lat="43.86003" lon="7.00898">
        <ele>548</ele>
        <time>1990-12-09T14:37:45Z</time>
      </trkpt>
      <trkpt lat="43.85995" lon="7.00872">
        <ele>551</ele>
        <time>1990-12-09T14:38:08Z</time>
      </trkpt>
      <trkpt lat="43.85982" lon="7.00838">
        <ele>558</ele>
        <time>1990-12-09T14:38:44Z</time>
      </trkpt>
      <trkpt lat="43.85957" lon="7.00793">
        <ele>563</ele>
        <time>1990-12-09T14:39:23Z</time>
      </trkpt>
      <trkpt lat="43.85942" lon="7.00765">
        <ele>566</ele>
        <time>1990-12-09T14:39:39Z</time>
      </trkpt>
      <trkpt lat="43.85935" lon="7.00727">
        <ele>568</ele>
        <time>1990-12-09T14:39:51Z</time>
      </trkpt>
      <trkpt lat="43.85933" lon="7.0069">
        <ele>569</ele>
        <time>1990-12-09T14:40:01Z</time>
      </trkpt>
      <trkpt lat="43.85943" lon="7.00648">
        <ele>572</ele>
        <time>1990-12-09T14:40:21Z</time>
      </trkpt>
      <trkpt lat="43.8595" lon="7.0063">
        <ele>574</ele>
        <time>1990-12-09T14:40:31Z</time>
      </trkpt>
      <trkpt lat="43.85942" lon="7.00587">
        <ele>574</ele>
        <time>1990-12-09T14:40:47Z</time>
      </trkpt>
      <trkpt lat="43.85913" lon="7.00533">
        <ele>575</ele>
        <time>1990-12-09T14:41:04Z</time>
      </trkpt>
      <trkpt lat="43.8583" lon="7.00403">
        <ele>576</ele>
        <time>1990-12-09T14:41:29Z</time>
      </trkpt>
      <trkpt lat="43.85858" lon="7.00397">
        <ele>577</ele>
        <time>1990-12-09T14:41:45Z</time>
      </trkpt>
      <trkpt lat="43.85777" lon="7.0029">
        <ele>579</ele>
        <time>1990-12-09T14:42:01Z</time>
      </trkpt>
      <trkpt lat="43.85737" lon="7.00262">
        <ele>582</ele>
        <time>1990-12-09T14:42:14Z</time>
      </trkpt>
      <trkpt lat="43.85732" lon="7.00253">
        <ele>584</ele>
        <time>1990-12-09T14:42:21Z</time>
      </trkpt>
      <trkpt lat="43.85723" lon="7.00232">
        <ele>588</ele>
        <time>1990-12-09T14:42:38Z</time>
      </trkpt>
      <trkpt lat="43.85727" lon="7.00235">
        <ele>589</ele>
        <time>1990-12-09T14:42:45Z</time>
      </trkpt>
      <trkpt lat="43.85728" lon="7.00207">
        <ele>593</ele>
        <time>1990-12-09T14:43:02Z</time>
      </trkpt>
      <trkpt lat="43.85713" lon="7.0018">
        <ele>597</ele>
        <time>1990-12-09T14:43:20Z</time>
      </trkpt>
      <trkpt lat="43.85712" lon="7.00208">
        <ele>600</ele>
        <time>1990-12-09T14:43:34Z</time>
      </trkpt>
      <trkpt lat="43.85708" lon="7.00225">
        <ele>602</ele>
        <time>1990-12-09T14:43:42Z</time>
      </trkpt>
      <trkpt lat="43.85682" lon="7.00237">
        <ele>606</ele>
        <time>1990-12-09T14:44:03Z</time>
      </trkpt>
      <trkpt lat="43.85685" lon="7.00225">
        <ele>608</ele>
        <time>1990-12-09T14:44:13Z</time>
      </trkpt>
      <trkpt lat="43.8571" lon="7.00177">
        <ele>613</ele>
        <time>1990-12-09T14:44:41Z</time>
      </trkpt>
      <trkpt lat="43.85723" lon="7.00138">
        <ele>618</ele>
        <time>1990-12-09T14:45:03Z</time>
      </trkpt>
      <trkpt lat="43.85755" lon="7.00143">
        <ele>623</ele>
        <time>1990-12-09T14:45:23Z</time>
      </trkpt>
      <trkpt lat="43.85765" lon="7.0016">
        <ele>625</ele>
        <time>1990-12-09T14:45:31Z</time>
      </trkpt>
      <trkpt lat="43.85778" lon="7.00173">
        <ele>626</ele>
        <time>1990-12-09T14:45:40Z</time>
      </trkpt>
      <trkpt lat="43.85823" lon="7.00218">
        <ele>632</ele>
        <time>1990-12-09T14:46:12Z</time>
      </trkpt>
      <trkpt lat="43.85863" lon="7.00202">
        <ele>637</ele>
        <time>1990-12-09T14:46:39Z</time>
      </trkpt>
      <trkpt lat="43.85915" lon="7.00208">
        <ele>642</ele>
        <time>1990-12-09T14:47:07Z</time>
      </trkpt>
      <trkpt lat="43.85967" lon="7.00255">
        <ele>648</ele>
        <time>1990-12-09T14:47:37Z</time>
      </trkpt>
      <trkpt lat="43.86012" lon="7.00298">
        <ele>653</ele>
        <time>1990-12-09T14:48:03Z</time>
      </trkpt>
      <trkpt lat="43.86047" lon="7.00287">
        <ele>657</ele>
        <time>1990-12-09T14:48:26Z</time>
      </trkpt>
      <trkpt lat="43.8601" lon="7.00277">
        <ele>661</ele>
        <time>1990-12-09T14:48:44Z</time>
      </trkpt>
      <trkpt lat="43.85972" lon="7.00207">
        <ele>662</ele>
        <time>1990-12-09T14:49:11Z</time>
      </trkpt>
      <trkpt lat="43.8592" lon="7.00138">
        <ele>664</ele>
        <time>1990-12-09T14:49:39Z</time>
      </trkpt>
      <trkpt lat="43.85885" lon="7.0011">
        <ele>666</ele>
        <time>1990-12-09T14:49:59Z</time>
      </trkpt>
      <trkpt lat="43.85855" lon="7.00037">
        <ele>670</ele>
        <time>1990-12-09T14:50:26Z</time>
      </trkpt>
      <trkpt lat="43.85838" lon="7.0001">
        <ele>671</ele>
        <time>1990-12-09T14:50:40Z</time>
      </trkpt>
      <trkpt lat="43.85825" lon="6.99987">
        <ele>672</ele>
        <time>1990-12-09T14:50:58Z</time>
      </trkpt>
      <trkpt lat="43.85812" lon="6.99955">
        <ele>673</ele>
        <time>1990-12-09T14:51:18Z</time>
      </trkpt>
      <trkpt lat="43.85805" lon="6.9994">
        <ele>674</ele>
        <time>1990-12-09T14:51:27Z</time>
      </trkpt>
      <trkpt lat="43.85787" lon="6.99895">
        <ele>675</ele>
        <time>1990-12-09T14:51:56Z</time>
      </trkpt>
      <trkpt lat="43.8577" lon="6.99883">
        <ele>675</ele>
        <time>1990-12-09T14:52:56Z</time>
      </trkpt>
      <trkpt lat="43.85743" lon="6.99877">
        <ele>676</ele>
        <time>1990-12-09T14:54:27Z</time>
      </trkpt>
      <trkpt lat="43.85717" lon="6.99807">
        <ele>678</ele>
        <time>1990-12-09T14:54:50Z</time>
      </trkpt>
      <trkpt lat="43.85753" lon="6.99707">
        <ele>681</ele>
        <time>1990-12-09T14:55:19Z</time>
      </trkpt>
      <trkpt lat="43.85695" lon="6.99623">
        <ele>684</ele>
        <time>1990-12-09T14:55:48Z</time>
      </trkpt>
      <trkpt lat="43.85642" lon="6.99605">
        <ele>687</ele>
        <time>1990-12-09T14:56:12Z</time>
      </trkpt>
      <trkpt lat="43.85578" lon="6.9962">
        <ele>692</ele>
        <time>1990-12-09T14:56:38Z</time>
      </trkpt>
      <trkpt lat="43.85533" lon="6.99668">
        <ele>693</ele>
        <time>1990-12-09T14:56:59Z</time>
      </trkpt>
      <trkpt lat="43.85477" lon="6.99717">
        <ele>694</ele>
        <time>1990-12-09T14:57:22Z</time>
      </trkpt>
      <trkpt lat="43.85395" lon="6.99773">
        <ele>696</ele>
        <time>1990-12-09T14:57:49Z</time>
      </trkpt>
      <trkpt lat="43.85323" lon="6.99772">
        <ele>700</ele>
        <time>1990-12-09T14:58:16Z</time>
      </trkpt>
      <trkpt lat="43.85302" lon="6.99758">
        <ele>701</ele>
        <time>1990-12-09T14:59:38Z</time>
      </trkpt>
      <trkpt lat="43.85263" lon="6.99742">
        <ele>705</ele>
        <time>1990-12-09T15:01:51Z</time>
      </trkpt>
      <trkpt lat="43.85248" lon="6.99737">
        <ele>706</ele>
        <time>1990-12-09T15:02:02Z</time>
      </trkpt>
      <trkpt lat="43.8521" lon="6.99685">
        <ele>710</ele>
        <time>1990-12-09T15:02:28Z</time>
      </trkpt>
      <trkpt lat="43.85182" lon="6.99652">
        <ele>713</ele>
        <time>1990-12-09T15:02:51Z</time>
      </trkpt>
      <trkpt lat="43.85202" lon="6.99582">
        <ele>718</ele>
        <time>1990-12-09T15:03:19Z</time>
      </trkpt>
      <trkpt lat="43.85198" lon="6.99502">
        <ele>724</ele>
        <time>1990-12-09T15:03:52Z</time>
      </trkpt>
      <trkpt lat="43.85177" lon="6.99458">
        <ele>729</ele>
        <time>1990-12-09T15:04:17Z</time>
      </trkpt>
      <trkpt lat="43.85148" lon="6.99413">
        <ele>733</ele>
        <time>1990-12-09T15:04:42Z</time>
      </trkpt>
      <trkpt lat="43.85147" lon="6.9935">
        <ele>737</ele>
        <time>1990-12-09T15:05:08Z</time>
      </trkpt>
      <trkpt lat="43.85167" lon="6.99277">
        <ele>742</ele>
        <time>1990-12-09T15:05:38Z</time>
      </trkpt>
      <trkpt lat="43.85178" lon="6.99207">
        <ele>748</ele>
        <time>1990-12-09T15:06:04Z</time>
      </trkpt>
      <trkpt lat="43.85165" lon="6.99152">
        <ele>752</ele>
        <time>1990-12-09T15:06:28Z</time>
      </trkpt>
      <trkpt lat="43.85137" lon="6.99112">
        <ele>756</ele>
        <time>1990-12-09T15:06:50Z</time>
      </trkpt>
      <trkpt lat="43.85117" lon="6.99053">
        <ele>760</ele>
        <time>1990-12-09T15:07:16Z</time>
      </trkpt>
      <trkpt lat="43.85122" lon="6.98988">
        <ele>764</ele>
        <time>1990-12-09T15:07:41Z</time>
      </trkpt>
      <trkpt lat="43.85125" lon="6.98975">
        <ele>765</ele>
        <time>1990-12-09T15:07:47Z</time>
      </trkpt>
      <trkpt lat="43.85162" lon="6.98933">
        <ele>769</ele>
        <time>1990-12-09T15:08:10Z</time>
      </trkpt>
      <trkpt lat="43.85123" lon="6.98938">
        <ele>774</ele>
        <time>1990-12-09T15:08:35Z</time>
      </trkpt>
      <trkpt lat="43.85113" lon="6.98953">
        <ele>775</ele>
        <time>1990-12-09T15:08:43Z</time>
      </trkpt>
      <trkpt lat="43.8509" lon="6.9902">
        <ele>779</ele>
        <time>1990-12-09T15:09:11Z</time>
      </trkpt>
      <trkpt lat="43.85078" lon="6.99092">
        <ele>784</ele>
        <time>1990-12-09T15:09:39Z</time>
      </trkpt>
      <trkpt lat="43.85088" lon="6.99163">
        <ele>789</ele>
        <time>1990-12-09T15:10:10Z</time>
      </trkpt>
      <trkpt lat="43.85093" lon="6.99232">
        <ele>793</ele>
        <time>1990-12-09T15:10:36Z</time>
      </trkpt>
      <trkpt lat="43.85052" lon="6.99265">
        <ele>798</ele>
        <time>1990-12-09T15:11:02Z</time>
      </trkpt>
      <trkpt lat="43.85035" lon="6.99307">
        <ele>801</ele>
        <time>1990-12-09T15:11:20Z</time>
      </trkpt>
      <trkpt lat="43.85025" lon="6.99362">
        <ele>806</ele>
        <time>1990-12-09T15:11:42Z</time>
      </trkpt>
      <trkpt lat="43.85022" lon="6.994">
        <ele>809</ele>
        <time>1990-12-09T15:11:59Z</time>
      </trkpt>
      <trkpt lat="43.8502" lon="6.9947">
        <ele>815</ele>
        <time>1990-12-09T15:12:30Z</time>
      </trkpt>
      <trkpt lat="43.85033" lon="6.9953">
        <ele>820</ele>
        <time>1990-12-09T15:12:59Z</time>
      </trkpt>
      <trkpt lat="43.85015" lon="6.99468">
        <ele>824</ele>
        <time>1990-12-09T15:13:27Z</time>
      </trkpt>
      <trkpt lat="43.85" lon="6.9938">
        <ele>828</ele>
        <time>1990-12-09T15:13:57Z</time>
      </trkpt>
      <trkpt lat="43.84998" lon="6.99322">
        <ele>832</ele>
        <time>1990-12-09T15:14:17Z</time>
      </trkpt>
      <trkpt lat="43.85008" lon="6.99242">
        <ele>837</ele>
        <time>1990-12-09T15:14:45Z</time>
      </trkpt>
      <trkpt lat="43.85017" lon="6.99185">
        <ele>840</ele>
        <time>1990-12-09T15:15:05Z</time>
      </trkpt>
      <trkpt lat="43.85007" lon="6.99097">
        <ele>847</ele>
        <time>1990-12-09T15:15:37Z</time>
      </trkpt>
      <trkpt lat="43.85007" lon="6.99023">
        <ele>852</ele>
        <time>1990-12-09T15:16:05Z</time>
      </trkpt>
      <trkpt lat="43.85015" lon="6.98942">
        <ele>856</ele>
        <time>1990-12-09T15:16:32Z</time>
      </trkpt>
      <trkpt lat="43.85033" lon="6.98872">
        <ele>861</ele>
        <time>1990-12-09T15:16:57Z</time>
      </trkpt>
      <trkpt lat="43.85043" lon="6.98792">
        <ele>866</ele>
        <time>1990-12-09T15:17:25Z</time>
      </trkpt>
      <trkpt lat="43.85035" lon="6.9872">
        <ele>871</ele>
        <time>1990-12-09T15:17:50Z</time>
      </trkpt>
      <trkpt lat="43.85032" lon="6.98693">
        <ele>873</ele>
        <time>1990-12-09T15:18:00Z</time>
      </trkpt>
      <trkpt lat="43.8502" lon="6.98683">
        <ele>874</ele>
        <time>1990-12-09T15:18:08Z</time>
      </trkpt>
      <trkpt lat="43.84997" lon="6.98677">
        <ele>875</ele>
        <time>1990-12-09T15:24:47Z</time>
      </trkpt>
      <trkpt lat="43.84997" lon="6.98678">
        <ele>874</ele>
        <time>1990-12-09T15:26:05Z</time>
      </trkpt>
      <trkpt lat="43.84997" lon="6.98678">
        <ele>874</ele>
        <time>1990-12-09T15:26:12Z</time>
      </trkpt>
      <trkpt lat="43.84992" lon="6.98713">
        <ele>873</ele>
        <time>1990-12-09T15:26:33Z</time>
      </trkpt>
      <trkpt lat="43.8493" lon="6.98768">
        <ele>869</ele>
        <time>1990-12-09T15:26:47Z</time>
      </trkpt>
      <trkpt lat="43.84957" lon="6.98747">
        <ele>870</ele>
        <time>1990-12-09T15:27:15Z</time>
      </trkpt>
      <trkpt lat="43.8498" lon="6.98718">
        <ele>871</ele>
        <time>1990-12-09T15:27:37Z</time>
      </trkpt>
      <trkpt lat="43.8492" lon="6.98787">
        <ele>869</ele>
        <time>1990-12-09T15:28:00Z</time>
      </trkpt>
      <trkpt lat="43.8486" lon="6.98868">
        <ele>870</ele>
        <time>1990-12-09T15:28:21Z</time>
      </trkpt>
      <trkpt lat="43.84792" lon="6.98925">
        <ele>870</ele>
        <time>1990-12-09T15:28:43Z</time>
      </trkpt>
      <trkpt lat="43.84777" lon="6.98988">
        <ele>870</ele>
        <time>1990-12-09T15:28:53Z</time>
      </trkpt>
      <trkpt lat="43.8473" lon="6.99045">
        <ele>874</ele>
        <time>1990-12-09T15:29:13Z</time>
      </trkpt>
      <trkpt lat="43.84717" lon="6.99105">
        <ele>872</ele>
        <time>1990-12-09T15:29:25Z</time>
      </trkpt>
      <trkpt lat="43.84678" lon="6.99185">
        <ele>871</ele>
        <time>1990-12-09T15:29:39Z</time>
      </trkpt>
      <trkpt lat="43.84657" lon="6.99203">
        <ele>871</ele>
        <time>1990-12-09T15:29:44Z</time>
      </trkpt>
      <trkpt lat="43.8463" lon="6.99237">
        <ele>868</ele>
        <time>1990-12-09T15:29:51Z</time>
      </trkpt>
      <trkpt lat="43.84623" lon="6.99258">
        <ele>866</ele>
        <time>1990-12-09T15:29:54Z</time>
      </trkpt>
      <trkpt lat="43.84582" lon="6.9935">
        <ele>861</ele>
        <time>1990-12-09T15:30:06Z</time>
      </trkpt>
      <trkpt lat="43.84548" lon="6.99387">
        <ele>857</ele>
        <time>1990-12-09T15:30:14Z</time>
      </trkpt>
      <trkpt lat="43.84502" lon="6.99353">
        <ele>854</ele>
        <time>1990-12-09T15:30:25Z</time>
      </trkpt>
      <trkpt lat="43.84462" lon="6.99333">
        <ele>849</ele>
        <time>1990-12-09T15:30:44Z</time>
      </trkpt>
      <trkpt lat="43.84452" lon="6.99298">
        <ele>849</ele>
        <time>1990-12-09T15:31:07Z</time>
      </trkpt>
      <trkpt lat="43.84405" lon="6.99262">
        <ele>860</ele>
        <time>1990-12-09T16:19:57Z</time>
      </trkpt>
      <trkpt lat="43.84402" lon="6.99315">
        <ele>855</ele>
        <time>1990-12-09T16:20:06Z</time>
      </trkpt>
      <trkpt lat="43.84373" lon="6.9934">
        <ele>852</ele>
        <time>1990-12-09T16:20:30Z</time>
      </trkpt>
      <trkpt lat="43.84337" lon="6.99357">
        <ele>848</ele>
        <time>1990-12-09T16:23:47Z</time>
      </trkpt>
      <trkpt lat="43.84328" lon="6.9938">
        <ele>846</ele>
        <time>1990-12-09T16:23:51Z</time>
      </trkpt>
      <trkpt lat="43.84298" lon="6.99422">
        <ele>844</ele>
        <time>1990-12-09T16:23:59Z</time>
      </trkpt>
      <trkpt lat="43.84283" lon="6.99453">
        <ele>843</ele>
        <time>1990-12-09T16:24:05Z</time>
      </trkpt>
      <trkpt lat="43.84272" lon="6.99515">
        <ele>841</ele>
        <time>1990-12-09T16:24:13Z</time>
      </trkpt>
      <trkpt lat="43.84243" lon="6.99607">
        <ele>839</ele>
        <time>1990-12-09T16:24:28Z</time>
      </trkpt>
      <trkpt lat="43.84217" lon="6.99695">
        <ele>839</ele>
        <time>1990-12-09T16:24:42Z</time>
      </trkpt>
      <trkpt lat="43.84172" lon="6.99797">
        <ele>839</ele>
        <time>1990-12-09T16:25:02Z</time>
      </trkpt>
      <trkpt lat="43.84142" lon="6.99898">
        <ele>839</ele>
        <time>1990-12-09T16:25:22Z</time>
      </trkpt>
      <trkpt lat="43.84103" lon="6.9998">
        <ele>838</ele>
        <time>1990-12-09T16:25:40Z</time>
      </trkpt>
      <trkpt lat="43.84073" lon="7.0006">
        <ele>839</ele>
        <time>1990-12-09T16:25:54Z</time>
      </trkpt>
      <trkpt lat="43.84057" lon="7.00113">
        <ele>838</ele>
        <time>1990-12-09T16:26:03Z</time>
      </trkpt>
      <trkpt lat="43.84038" lon="7.00198">
        <ele>839</ele>
        <time>1990-12-09T16:26:19Z</time>
      </trkpt>
      <trkpt lat="43.84027" lon="7.00293">
        <ele>838</ele>
        <time>1990-12-09T16:26:35Z</time>
      </trkpt>
      <trkpt lat="43.84032" lon="7.00343">
        <ele>837</ele>
        <time>1990-12-09T16:26:43Z</time>
      </trkpt>
      <trkpt lat="43.84045" lon="7.00403">
        <ele>838</ele>
        <time>1990-12-09T16:26:53Z</time>
      </trkpt>
      <trkpt lat="43.84038" lon="7.00457">
        <ele>838</ele>
        <time>1990-12-09T16:27:01Z</time>
      </trkpt>
      <trkpt lat="43.84018" lon="7.00525">
        <ele>838</ele>
        <time>1990-12-09T16:27:13Z</time>
      </trkpt>
      <trkpt lat="43.84012" lon="7.00612">
        <ele>838</ele>
        <time>1990-12-09T16:27:29Z</time>
      </trkpt>
      <trkpt lat="43.8402" lon="7.0067">
        <ele>838</ele>
        <time>1990-12-09T16:27:38Z</time>
      </trkpt>
      <trkpt lat="43.8403" lon="7.00842">
        <ele>838</ele>
        <time>1990-12-09T16:28:07Z</time>
      </trkpt>
      <trkpt lat="43.84025" lon="7.00887">
        <ele>838</ele>
        <time>1990-12-09T16:28:14Z</time>
      </trkpt>
      <trkpt lat="43.84033" lon="7.00953">
        <ele>838</ele>
        <time>1990-12-09T16:28:25Z</time>
      </trkpt>
      <trkpt lat="43.84035" lon="7.01035">
        <ele>838</ele>
        <time>1990-12-09T16:28:38Z</time>
      </trkpt>
      <trkpt lat="43.84037" lon="7.01128">
        <ele>837</ele>
        <time>1990-12-09T16:28:53Z</time>
      </trkpt>
      <trkpt lat="43.84037" lon="7.0121">
        <ele>837</ele>
        <time>1990-12-09T16:29:07Z</time>
      </trkpt>
      <trkpt lat="43.84025" lon="7.0132">
        <ele>836</ele>
        <time>1990-12-09T16:29:27Z</time>
      </trkpt>
      <trkpt lat="43.8401" lon="7.01408">
        <ele>837</ele>
        <time>1990-12-09T16:29:42Z</time>
      </trkpt>
      <trkpt lat="43.83985" lon="7.01523">
        <ele>837</ele>
        <time>1990-12-09T16:30:02Z</time>
      </trkpt>
      <trkpt lat="43.83953" lon="7.01688">
        <ele>837</ele>
        <time>1990-12-09T16:30:27Z</time>
      </trkpt>
      <trkpt lat="43.83945" lon="7.01735">
        <ele>836</ele>
        <time>1990-12-09T16:30:34Z</time>
      </trkpt>
      <trkpt lat="43.83948" lon="7.01778">
        <ele>837</ele>
        <time>1990-12-09T16:30:41Z</time>
      </trkpt>
      <trkpt lat="43.8393" lon="7.01873">
        <ele>837</ele>
        <time>1990-12-09T16:30:56Z</time>
      </trkpt>
      <trkpt lat="43.83913" lon="7.01912">
        <ele>837</ele>
        <time>1990-12-09T16:31:03Z</time>
      </trkpt>
      <trkpt lat="43.83897" lon="7.01973">
        <ele>837</ele>
        <time>1990-12-09T16:31:14Z</time>
      </trkpt>
      <trkpt lat="43.83897" lon="7.02047">
        <ele>836</ele>
        <time>1990-12-09T16:31:26Z</time>
      </trkpt>
      <trkpt lat="43.83903" lon="7.02083">
        <ele>836</ele>
        <time>1990-12-09T16:31:32Z</time>
      </trkpt>
      <trkpt lat="43.83893" lon="7.02122">
        <ele>836</ele>
        <time>1990-12-09T16:31:38Z</time>
      </trkpt>
      <trkpt lat="43.83878" lon="7.0216">
        <ele>836</ele>
        <time>1990-12-09T16:31:46Z</time>
      </trkpt>
      <trkpt lat="43.83878" lon="7.02163">
        <ele>836</ele>
        <time>1990-12-09T16:32:10Z</time>
      </trkpt>
      <trkpt lat="43.83868" lon="7.02268">
        <ele>836</ele>
        <time>1990-12-09T16:32:26Z</time>
      </trkpt>
      <trkpt lat="43.83863" lon="7.02305">
        <ele>836</ele>
        <time>1990-12-09T16:32:31Z</time>
      </trkpt>
      <trkpt lat="43.83845" lon="7.02378">
        <ele>836</ele>
        <time>1990-12-09T16:32:41Z</time>
      </trkpt>
      <trkpt lat="43.83842" lon="7.02445">
        <ele>836</ele>
        <time>1990-12-09T16:33:22Z</time>
      </trkpt>
      <trkpt lat="43.8386" lon="7.02515">
        <ele>836</ele>
        <time>1990-12-09T16:33:38Z</time>
      </trkpt>
      <trkpt lat="43.83847" lon="7.02585">
        <ele>836</ele>
        <time>1990-12-09T16:33:51Z</time>
      </trkpt>
      <trkpt lat="43.83788" lon="7.02662">
        <ele>836</ele>
        <time>1990-12-09T16:34:11Z</time>
      </trkpt>
      <trkpt lat="43.83752" lon="7.02753">
        <ele>836</ele>
        <time>1990-12-09T16:34:29Z</time>
      </trkpt>
      <trkpt lat="43.83782" lon="7.02848">
        <ele>836</ele>
        <time>1990-12-09T16:34:45Z</time>
      </trkpt>
      <trkpt lat="43.8378" lon="7.02912">
        <ele>836</ele>
        <time>1990-12-09T16:34:55Z</time>
      </trkpt>
      <trkpt lat="43.83748" lon="7.02973">
        <ele>836</ele>
        <time>1990-12-09T16:35:08Z</time>
      </trkpt>
      <trkpt lat="43.8375" lon="7.03035">
        <ele>836</ele>
        <time>1990-12-09T16:35:18Z</time>
      </trkpt>
      <trkpt lat="43.8375" lon="7.0313">
        <ele>836</ele>
        <time>1990-12-09T16:35:33Z</time>
      </trkpt>
      <trkpt lat="43.83735" lon="7.03162">
        <ele>835</ele>
        <time>1990-12-09T16:35:40Z</time>
      </trkpt>
      <trkpt lat="43.837" lon="7.03212">
        <ele>835</ele>
        <time>1990-12-09T16:35:51Z</time>
      </trkpt>
      <trkpt lat="43.83693" lon="7.03243">
        <ele>835</ele>
        <time>1990-12-09T16:35:57Z</time>
      </trkpt>
      <trkpt lat="43.8372" lon="7.03378">
        <ele>835</ele>
        <time>1990-12-09T16:36:21Z</time>
      </trkpt>
      <trkpt lat="43.8372" lon="7.03452">
        <ele>835</ele>
        <time>1990-12-09T16:36:33Z</time>
      </trkpt>
      <trkpt lat="43.83717" lon="7.03542">
        <ele>835</ele>
        <time>1990-12-09T16:36:47Z</time>
      </trkpt>
      <trkpt lat="43.83705" lon="7.03592">
        <ele>835</ele>
        <time>1990-12-09T16:36:57Z</time>
      </trkpt>
      <trkpt lat="43.83725" lon="7.03672">
        <ele>834</ele>
        <time>1990-12-09T16:37:10Z</time>
      </trkpt>
      <trkpt lat="43.83717" lon="7.03782">
        <ele>835</ele>
        <time>1990-12-09T16:37:29Z</time>
      </trkpt>
      <trkpt lat="43.83715" lon="7.0385">
        <ele>835</ele>
        <time>1990-12-09T16:37:40Z</time>
      </trkpt>
      <trkpt lat="43.83712" lon="7.0392">
        <ele>835</ele>
        <time>1990-12-09T16:37:51Z</time>
      </trkpt>
      <trkpt lat="43.8371" lon="7.04022">
        <ele>835</ele>
        <time>1990-12-09T16:38:07Z</time>
      </trkpt>
      <trkpt lat="43.83702" lon="7.04135">
        <ele>834</ele>
        <time>1990-12-09T16:38:25Z</time>
      </trkpt>
      <trkpt lat="43.83693" lon="7.04275">
        <ele>835</ele>
        <time>1990-12-09T16:38:52Z</time>
      </trkpt>
      <trkpt lat="43.83682" lon="7.04395">
        <ele>834</ele>
        <time>1990-12-09T16:39:14Z</time>
      </trkpt>
      <trkpt lat="43.83672" lon="7.0446">
        <ele>834</ele>
        <time>1990-12-09T16:39:24Z</time>
      </trkpt>
      <trkpt lat="43.83677" lon="7.04585">
        <ele>834</ele>
        <time>1990-12-09T16:39:43Z</time>
      </trkpt>
      <trkpt lat="43.8367" lon="7.04627">
        <ele>834</ele>
        <time>1990-12-09T16:39:50Z</time>
      </trkpt>
      <trkpt lat="43.83653" lon="7.04713">
        <ele>834</ele>
        <time>1990-12-09T16:40:05Z</time>
      </trkpt>
      <trkpt lat="43.83658" lon="7.048">
        <ele>833</ele>
        <time>1990-12-09T16:40:25Z</time>
      </trkpt>
      <trkpt lat="43.83657" lon="7.04805">
        <ele>834</ele>
        <time>1990-12-09T16:42:46Z</time>
      </trkpt>
      <trkpt lat="43.83625" lon="7.04882">
        <ele>834</ele>
        <time>1990-12-09T16:43:05Z</time>
      </trkpt>
      <trkpt lat="43.83618" lon="7.05012">
        <ele>834</ele>
        <time>1990-12-09T16:43:28Z</time>
      </trkpt>
      <trkpt lat="43.83612" lon="7.05137">
        <ele>834</ele>
        <time>1990-12-09T16:43:50Z</time>
      </trkpt>
      <trkpt lat="43.8361" lon="7.05158">
        <ele>834</ele>
        <time>1990-12-09T16:45:40Z</time>
      </trkpt>
      <trkpt lat="43.83595" lon="7.05263">
        <ele>834</ele>
        <time>1990-12-09T16:46:04Z</time>
      </trkpt>
      <trkpt lat="43.8359" lon="7.05333">
        <ele>834</ele>
        <time>1990-12-09T16:46:17Z</time>
      </trkpt>
      <trkpt lat="43.83598" lon="7.05395">
        <ele>834</ele>
        <time>1990-12-09T16:46:27Z</time>
      </trkpt>
      <trkpt lat="43.83587" lon="7.05512">
        <ele>834</ele>
        <time>1990-12-09T16:46:47Z</time>
      </trkpt>
      <trkpt lat="43.83575" lon="7.05632">
        <ele>834</ele>
        <time>1990-12-09T16:47:08Z</time>
      </trkpt>
      <trkpt lat="43.83567" lon="7.05742">
        <ele>833</ele>
        <time>1990-12-09T16:47:25Z</time>
      </trkpt>
      <trkpt lat="43.83578" lon="7.05853">
        <ele>833</ele>
        <time>1990-12-09T16:47:43Z</time>
      </trkpt>
      <trkpt lat="43.83578" lon="7.05892">
        <ele>833</ele>
        <time>1990-12-09T16:47:49Z</time>
      </trkpt>
      <trkpt lat="43.83585" lon="7.0593">
        <ele>832</ele>
        <time>1990-12-09T16:47:55Z</time>
      </trkpt>
      <trkpt lat="43.83603" lon="7.06013">
        <ele>832</ele>
        <time>1990-12-09T16:48:09Z</time>
      </trkpt>
      <trkpt lat="43.83598" lon="7.0607">
        <ele>832</ele>
        <time>1990-12-09T16:48:19Z</time>
      </trkpt>
      <trkpt lat="43.83587" lon="7.06102">
        <ele>832</ele>
        <time>1990-12-09T16:48:25Z</time>
      </trkpt>
      <trkpt lat="43.83583" lon="7.06177">
        <ele>832</ele>
        <time>1990-12-09T16:48:37Z</time>
      </trkpt>
      <trkpt lat="43.83588" lon="7.0627">
        <ele>832</ele>
        <time>1990-12-09T16:48:53Z</time>
      </trkpt>
      <trkpt lat="43.83583" lon="7.0633">
        <ele>831</ele>
        <time>1990-12-09T16:49:04Z</time>
      </trkpt>
      <trkpt lat="43.83582" lon="7.06413">
        <ele>831</ele>
        <time>1990-12-09T16:49:18Z</time>
      </trkpt>
      <trkpt lat="43.83608" lon="7.06537">
        <ele>831</ele>
        <time>1990-12-09T16:49:36Z</time>
      </trkpt>
      <trkpt lat="43.8362" lon="7.06592">
        <ele>831</ele>
        <time>1990-12-09T16:49:45Z</time>
      </trkpt>
      <trkpt lat="43.83628" lon="7.06675">
        <ele>830</ele>
        <time>1990-12-09T16:49:57Z</time>
      </trkpt>
      <trkpt lat="43.8362" lon="7.06723">
        <ele>830</ele>
        <time>1990-12-09T16:50:05Z</time>
      </trkpt>
      <trkpt lat="43.83593" lon="7.06785">
        <ele>830</ele>
        <time>1990-12-09T16:50:16Z</time>
      </trkpt>
      <trkpt lat="43.83582" lon="7.06827">
        <ele>830</ele>
        <time>1990-12-09T16:50:22Z</time>
      </trkpt>
      <trkpt lat="43.83565" lon="7.0689">
        <ele>830</ele>
        <time>1990-12-09T16:50:33Z</time>
      </trkpt>
      <trkpt lat="43.8355" lon="7.06995">
        <ele>831</ele>
        <time>1990-12-09T16:50:52Z</time>
      </trkpt>
      <trkpt lat="43.83547" lon="7.07033">
        <ele>830</ele>
        <time>1990-12-09T16:51:11Z</time>
      </trkpt>
      <trkpt lat="43.83542" lon="7.07143">
        <ele>830</ele>
        <time>1990-12-09T16:52:35Z</time>
      </trkpt>
      <trkpt lat="43.8355" lon="7.07268">
        <ele>831</ele>
        <time>1990-12-09T16:52:59Z</time>
      </trkpt>
      <trkpt lat="43.83575" lon="7.07405">
        <ele>830</ele>
        <time>1990-12-09T16:53:23Z</time>
      </trkpt>
      <trkpt lat="43.83608" lon="7.07525">
        <ele>830</ele>
        <time>1990-12-09T16:53:46Z</time>
      </trkpt>
      <trkpt lat="43.83613" lon="7.07662">
        <ele>830</ele>
        <time>1990-12-09T16:54:10Z</time>
      </trkpt>
      <trkpt lat="43.8359" lon="7.07792">
        <ele>830</ele>
        <time>1990-12-09T16:54:34Z</time>
      </trkpt>
      <trkpt lat="43.83567" lon="7.07932">
        <ele>830</ele>
        <time>1990-12-09T16:54:59Z</time>
      </trkpt>
      <trkpt lat="43.83555" lon="7.08055">
        <ele>829</ele>
        <time>1990-12-09T16:55:19Z</time>
      </trkpt>
      <trkpt lat="43.83558" lon="7.08142">
        <ele>829</ele>
        <time>1990-12-09T16:55:32Z</time>
      </trkpt>
      <trkpt lat="43.83567" lon="7.0822">
        <ele>829</ele>
        <time>1990-12-09T16:55:44Z</time>
      </trkpt>
      <trkpt lat="43.83577" lon="7.0832">
        <ele>829</ele>
        <time>1990-12-09T16:55:59Z</time>
      </trkpt>
      <trkpt lat="43.83592" lon="7.08373">
        <ele>829</ele>
        <time>1990-12-09T16:56:08Z</time>
      </trkpt>
      <trkpt lat="43.83597" lon="7.08412">
        <ele>828</ele>
        <time>1990-12-09T16:56:15Z</time>
      </trkpt>
      <trkpt lat="43.83602" lon="7.08462">
        <ele>828</ele>
        <time>1990-12-09T16:56:24Z</time>
      </trkpt>
      <trkpt lat="43.8361" lon="7.08558">
        <ele>828</ele>
        <time>1990-12-09T16:56:39Z</time>
      </trkpt>
      <trkpt lat="43.83622" lon="7.08608">
        <ele>829</ele>
        <time>1990-12-09T16:56:47Z</time>
      </trkpt>
      <trkpt lat="43.83632" lon="7.0869">
        <ele>828</ele>
        <time>1990-12-09T16:57:01Z</time>
      </trkpt>
      <trkpt lat="43.83618" lon="7.08782">
        <ele>828</ele>
        <time>1990-12-09T16:57:18Z</time>
      </trkpt>
      <trkpt lat="43.83593" lon="7.08838">
        <ele>828</ele>
        <time>1990-12-09T16:57:29Z</time>
      </trkpt>
      <trkpt lat="43.83605" lon="7.08892">
        <ele>827</ele>
        <time>1990-12-09T16:57:41Z</time>
      </trkpt>
      <trkpt lat="43.83653" lon="7.08982">
        <ele>828</ele>
        <time>1990-12-09T16:58:00Z</time>
      </trkpt>
      <trkpt lat="43.83667" lon="7.09013">
        <ele>827</ele>
        <time>1990-12-09T16:58:06Z</time>
      </trkpt>
      <trkpt lat="43.83663" lon="7.09085">
        <ele>827</ele>
        <time>1990-12-09T16:58:18Z</time>
      </trkpt>
      <trkpt lat="43.83665" lon="7.09198">
        <ele>827</ele>
        <time>1990-12-09T16:58:38Z</time>
      </trkpt>
      <trkpt lat="43.83662" lon="7.09312">
        <ele>827</ele>
        <time>1990-12-09T16:58:59Z</time>
      </trkpt>
      <trkpt lat="43.83678" lon="7.09332">
        <ele>826</ele>
        <time>1990-12-09T16:59:06Z</time>
      </trkpt>
      <trkpt lat="43.83707" lon="7.0933">
        <ele>826</ele>
        <time>1990-12-09T16:59:13Z</time>
      </trkpt>
      <trkpt lat="43.83758" lon="7.09363">
        <ele>826</ele>
        <time>1990-12-09T16:59:38Z</time>
      </trkpt>
      <trkpt lat="43.8377" lon="7.0941">
        <ele>827</ele>
        <time>1990-12-09T17:01:56Z</time>
      </trkpt>
      <trkpt lat="43.838" lon="7.09533">
        <ele>827</ele>
        <time>1990-12-09T17:02:21Z</time>
      </trkpt>
      <trkpt lat="43.83828" lon="7.09665">
        <ele>827</ele>
        <time>1990-12-09T17:02:47Z</time>
      </trkpt>
      <trkpt lat="43.83847" lon="7.09812">
        <ele>826</ele>
        <time>1990-12-09T17:03:13Z</time>
      </trkpt>
      <trkpt lat="43.83908" lon="7.0994">
        <ele>826</ele>
        <time>1990-12-09T17:03:37Z</time>
      </trkpt>
      <trkpt lat="43.83922" lon="7.09982">
        <ele>826</ele>
        <time>1990-12-09T17:03:44Z</time>
      </trkpt>
      <trkpt lat="43.83935" lon="7.10125">
        <ele>827</ele>
        <time>1990-12-09T17:04:07Z</time>
      </trkpt>
      <trkpt lat="43.83942" lon="7.10197">
        <ele>826</ele>
        <time>1990-12-09T17:04:18Z</time>
      </trkpt>
      <trkpt lat="43.8399" lon="7.1032">
        <ele>827</ele>
        <time>1990-12-09T17:04:40Z</time>
      </trkpt>
      <trkpt lat="43.84007" lon="7.10353">
        <ele>827</ele>
        <time>1990-12-09T17:04:46Z</time>
      </trkpt>
      <trkpt lat="43.84012" lon="7.10405">
        <ele>826</ele>
        <time>1990-12-09T17:04:55Z</time>
      </trkpt>
      <trkpt lat="43.84015" lon="7.1046">
        <ele>827</ele>
        <time>1990-12-09T17:05:04Z</time>
      </trkpt>
      <trkpt lat="43.84022" lon="7.10497">
        <ele>827</ele>
        <time>1990-12-09T17:05:10Z</time>
      </trkpt>
      <trkpt lat="43.84025" lon="7.1062">
        <ele>827</ele>
        <time>1990-12-09T17:05:32Z</time>
      </trkpt>
      <trkpt lat="43.8401" lon="7.1061">
        <ele>832</ele>
        <time>1990-12-09T17:10:33Z</time>
      </trkpt>
      <trkpt lat="43.84007" lon="7.10602">
        <ele>833</ele>
        <time>1990-12-09T17:10:58Z</time>
      </trkpt>
      <trkpt lat="43.83993" lon="7.10623">
        <ele>834</ele>
        <time>1990-12-09T17:11:22Z</time>
      </trkpt>
      <trkpt lat="43.83987" lon="7.10652">
        <ele>833</ele>
        <time>1990-12-09T17:11:48Z</time>
      </trkpt>
      <trkpt lat="43.83983" lon="7.10662">
        <ele>836</ele>
        <time>1990-12-09T17:12:05Z</time>
      </trkpt>
      <trkpt lat="43.83977" lon="7.10693">
        <ele>839</ele>
        <time>1990-12-09T17:12:36Z</time>
      </trkpt>
      <trkpt lat="43.83972" lon="7.10713">
        <ele>843</ele>
        <time>1990-12-09T17:13:16Z</time>
      </trkpt>
      <trkpt lat="43.83963" lon="7.10738">
        <ele>848</ele>
        <time>1990-12-09T17:13:48Z</time>
      </trkpt>
      <trkpt lat="43.83962" lon="7.10762">
        <ele>851</ele>
        <time>1990-12-09T17:14:18Z</time>
      </trkpt>
      <trkpt lat="43.83962" lon="7.10782">
        <ele>855</ele>
        <time>1990-12-09T17:14:47Z</time>
      </trkpt>
      <trkpt lat="43.83958" lon="7.10795">
        <ele>858</ele>
        <time>1990-12-09T17:15:03Z</time>
      </trkpt>
      <trkpt lat="43.83958" lon="7.10808">
        <ele>861</ele>
        <time>1990-12-09T17:16:15Z</time>
      </trkpt>
      <trkpt lat="43.8396" lon="7.10832">
        <ele>863</ele>
        <time>1990-12-09T17:16:36Z</time>
      </trkpt>
      <trkpt lat="43.8396" lon="7.1085">
        <ele>866</ele>
        <time>1990-12-09T17:17:00Z</time>
      </trkpt>
      <trkpt lat="43.83962" lon="7.10872">
        <ele>869</ele>
        <time>1990-12-09T17:17:21Z</time>
      </trkpt>
      <trkpt lat="43.83955" lon="7.109">
        <ele>872</ele>
        <time>1990-12-09T17:17:51Z</time>
      </trkpt>
      <trkpt lat="43.83943" lon="7.10918">
        <ele>877</ele>
        <time>1990-12-09T17:18:20Z</time>
      </trkpt>
      <trkpt lat="43.83942" lon="7.10938">
        <ele>882</ele>
        <time>1990-12-09T17:18:49Z</time>
      </trkpt>
      <trkpt lat="43.83945" lon="7.1095">
        <ele>882</ele>
        <time>1990-12-09T17:19:03Z</time>
      </trkpt>
      <trkpt lat="43.83947" lon="7.10972">
        <ele>882</ele>
        <time>1990-12-09T17:19:18Z</time>
      </trkpt>
      <trkpt lat="43.83948" lon="7.11008">
        <ele>882</ele>
        <time>1990-12-09T17:19:40Z</time>
      </trkpt>
      <trkpt lat="43.83943" lon="7.11045">
        <ele>885</ele>
        <time>1990-12-09T17:20:07Z</time>
      </trkpt>
      <trkpt lat="43.83943" lon="7.11073">
        <ele>888</ele>
        <time>1990-12-09T17:20:37Z</time>
      </trkpt>
      <trkpt lat="43.83945" lon="7.11088">
        <ele>889</ele>
        <time>1990-12-09T17:20:51Z</time>
      </trkpt>
      <trkpt lat="43.83945" lon="7.11098">
        <ele>889</ele>
        <time>1990-12-09T17:21:00Z</time>
      </trkpt>
      <trkpt lat="43.83947" lon="7.1112">
        <ele>890</ele>
        <time>1990-12-09T17:21:21Z</time>
      </trkpt>
      <trkpt lat="43.83943" lon="7.11143">
        <ele>893</ele>
        <time>1990-12-09T17:21:43Z</time>
      </trkpt>
      <trkpt lat="43.83937" lon="7.11187">
        <ele>897</ele>
        <time>1990-12-09T17:22:24Z</time>
      </trkpt>
      <trkpt lat="43.83945" lon="7.1121">
        <ele>896</ele>
        <time>1990-12-09T17:22:57Z</time>
      </trkpt>
      <trkpt lat="43.83942" lon="7.11245">
        <ele>901</ele>
        <time>1990-12-09T17:23:35Z</time>
      </trkpt>
      <trkpt lat="43.83945" lon="7.11282">
        <ele>902</ele>
        <time>1990-12-09T17:24:14Z</time>
      </trkpt>
      <trkpt lat="43.83945" lon="7.11318">
        <ele>905</ele>
        <time>1990-12-09T17:24:48Z</time>
      </trkpt>
      <trkpt lat="43.83945" lon="7.1135">
        <ele>905</ele>
        <time>1990-12-09T17:25:25Z</time>
      </trkpt>
      <trkpt lat="43.83948" lon="7.11375">
        <ele>906</ele>
        <time>1990-12-09T17:25:55Z</time>
      </trkpt>
      <trkpt lat="43.83933" lon="7.11408">
        <ele>911</ele>
        <time>1990-12-09T17:26:39Z</time>
      </trkpt>
      <trkpt lat="43.83927" lon="7.11415">
        <ele>915</ele>
        <time>1990-12-09T17:27:12Z</time>
      </trkpt>
      <trkpt lat="43.83925" lon="7.1144">
        <ele>916</ele>
        <time>1990-12-09T17:27:46Z</time>
      </trkpt>
      <trkpt lat="43.83938" lon="7.11473">
        <ele>914</ele>
        <time>1990-12-09T17:28:17Z</time>
      </trkpt>
      <trkpt lat="43.83942" lon="7.11507">
        <ele>912</ele>
        <time>1990-12-09T17:28:30Z</time>
      </trkpt>
      <trkpt lat="43.83947" lon="7.11533">
        <ele>911</ele>
        <time>1990-12-09T17:28:38Z</time>
      </trkpt>
      <trkpt lat="43.83947" lon="7.11592">
        <ele>913</ele>
        <time>1990-12-09T17:28:55Z</time>
      </trkpt>
      <trkpt lat="43.8394" lon="7.11602">
        <ele>916</ele>
        <time>1990-12-09T17:29:02Z</time>
      </trkpt>
      <trkpt lat="43.83932" lon="7.11618">
        <ele>918</ele>
        <time>1990-12-09T17:29:11Z</time>
      </trkpt>
      <trkpt lat="43.8392" lon="7.11613">
        <ele>922</ele>
        <time>1990-12-09T17:29:31Z</time>
      </trkpt>
      <trkpt lat="43.83908" lon="7.11627">
        <ele>928</ele>
        <time>1990-12-09T17:30:07Z</time>
      </trkpt>
      <trkpt lat="43.839" lon="7.11628">
        <ele>933</ele>
        <time>1990-12-09T17:30:40Z</time>
      </trkpt>
      <trkpt lat="43.83882" lon="7.1163">
        <ele>939</ele>
        <time>1990-12-09T17:31:17Z</time>
      </trkpt>
      <trkpt lat="43.83873" lon="7.1163">
        <ele>943</ele>
        <time>1990-12-09T17:32:43Z</time>
      </trkpt>
      <trkpt lat="43.8386" lon="7.1162">
        <ele>949</ele>
        <time>1990-12-09T17:33:14Z</time>
      </trkpt>
      <trkpt lat="43.83843" lon="7.11625">
        <ele>954</ele>
        <time>1990-12-09T17:33:46Z</time>
      </trkpt>
      <trkpt lat="43.83823" lon="7.11618">
        <ele>960</ele>
        <time>1990-12-09T17:37:14Z</time>
      </trkpt>
      <trkpt lat="43.8381" lon="7.11602">
        <ele>965</ele>
        <time>1990-12-09T17:37:43Z</time>
      </trkpt>
      <trkpt lat="43.83797" lon="7.11615">
        <ele>970</ele>
        <time>1990-12-09T17:38:13Z</time>
      </trkpt>
      <trkpt lat="43.83787" lon="7.1162">
        <ele>975</ele>
        <time>1990-12-09T17:38:41Z</time>
      </trkpt>
      <trkpt lat="43.83775" lon="7.11607">
        <ele>981</ele>
        <time>1990-12-09T17:39:12Z</time>
      </trkpt>
      <trkpt lat="43.8376" lon="7.11595">
        <ele>986</ele>
        <time>1990-12-09T17:39:44Z</time>
      </trkpt>
      <trkpt lat="43.83755" lon="7.11583">
        <ele>989</ele>
        <time>1990-12-09T17:40:01Z</time>
      </trkpt>
      <trkpt lat="43.8374" lon="7.1157">
        <ele>995</ele>
        <time>1990-12-09T17:40:33Z</time>
      </trkpt>
      <trkpt lat="43.83725" lon="7.11557">
        <ele>1000</ele>
        <time>1990-12-09T17:41:00Z</time>
      </trkpt>
      <trkpt lat="43.83712" lon="7.11545">
        <ele>1003</ele>
        <time>1990-12-09T17:41:19Z</time>
      </trkpt>
      <trkpt lat="43.837" lon="7.11533">
        <ele>1004</ele>
        <time>1990-12-09T17:41:48Z</time>
      </trkpt>
      <trkpt lat="43.83697" lon="7.11528">
        <ele>1007</ele>
        <time>1990-12-09T17:47:00Z</time>
      </trkpt>
      <trkpt lat="43.83688" lon="7.115">
        <ele>1007</ele>
        <time>1990-12-09T17:53:22Z</time>
      </trkpt>
      <trkpt lat="43.83672" lon="7.11483">
        <ele>1002</ele>
        <time>1990-12-09T17:53:48Z</time>
      </trkpt>
      <trkpt lat="43.83665" lon="7.1148">
        <ele>1000</ele>
        <time>1990-12-09T17:54:25Z</time>
      </trkpt>
      <trkpt lat="43.83665" lon="7.11488">
        <ele>999</ele>
        <time>1990-12-09T18:02:54Z</time>
      </trkpt>
      <trkpt lat="43.83657" lon="7.11493">
        <ele>996</ele>
        <time>1990-12-09T18:03:19Z</time>
      </trkpt>
      <trkpt lat="43.83648" lon="7.11497">
        <ele>992</ele>
        <time>1990-12-09T18:03:48Z</time>
      </trkpt>
      <trkpt lat="43.8364" lon="7.1149">
        <ele>990</ele>
        <time>1990-12-09T18:03:58Z</time>
      </trkpt>
      <trkpt lat="43.83642" lon="7.11508">
        <ele>986</ele>
        <time>1990-12-09T18:04:21Z</time>
      </trkpt>
      <trkpt lat="43.83627" lon="7.115">
        <ele>984</ele>
        <time>1990-12-09T18:04:44Z</time>
      </trkpt>
      <trkpt lat="43.83613" lon="7.11498">
        <ele>979</ele>
        <time>1990-12-09T18:05:08Z</time>
      </trkpt>
      <trkpt lat="43.83593" lon="7.11495">
        <ele>975</ele>
        <time>1990-12-09T18:05:26Z</time>
      </trkpt>
      <trkpt lat="43.83588" lon="7.11498">
        <ele>973</ele>
        <time>1990-12-09T18:05:32Z</time>
      </trkpt>
      <trkpt lat="43.8357" lon="7.11487">
        <ele>968</ele>
        <time>1990-12-09T18:05:48Z</time>
      </trkpt>
      <trkpt lat="43.83552" lon="7.1148">
        <ele>964</ele>
        <time>1990-12-09T18:05:57Z</time>
      </trkpt>
      <trkpt lat="43.83528" lon="7.1147">
        <ele>960</ele>
        <time>1990-12-09T18:06:10Z</time>
      </trkpt>
      <trkpt lat="43.83508" lon="7.11462">
        <ele>956</ele>
        <time>1990-12-09T18:06:25Z</time>
      </trkpt>
      <trkpt lat="43.83465" lon="7.11433">
        <ele>951</ele>
        <time>1990-12-09T18:06:54Z</time>
      </trkpt>
      <trkpt lat="43.83437" lon="7.11417">
        <ele>950</ele>
        <time>1990-12-09T18:07:01Z</time>
      </trkpt>
      <trkpt lat="43.83378" lon="7.11387">
        <ele>944</ele>
        <time>1990-12-09T18:07:18Z</time>
      </trkpt>
      <trkpt lat="43.83345" lon="7.11372">
        <ele>940</ele>
        <time>1990-12-09T18:07:30Z</time>
      </trkpt>
      <trkpt lat="43.83322" lon="7.11362">
        <ele>936</ele>
        <time>1990-12-09T18:07:41Z</time>
      </trkpt>
      <trkpt lat="43.83322" lon="7.11392">
        <ele>936</ele>
        <time>1990-12-09T18:07:53Z</time>
      </trkpt>
      <trkpt lat="43.83322" lon="7.11405">
        <ele>937</ele>
        <time>1990-12-09T18:09:02Z</time>
      </trkpt>
      <trkpt lat="43.8331" lon="7.11465">
        <ele>942</ele>
        <time>1990-12-09T18:09:29Z</time>
      </trkpt>
      <trkpt lat="43.83313" lon="7.1154">
        <ele>940</ele>
        <time>1990-12-09T18:09:48Z</time>
      </trkpt>
      <trkpt lat="43.833" lon="7.1155">
        <ele>937</ele>
        <time>1990-12-09T18:09:56Z</time>
      </trkpt>
      <trkpt lat="43.8329" lon="7.11587">
        <ele>936</ele>
        <time>1990-12-09T18:10:23Z</time>
      </trkpt>
      <trkpt lat="43.83265" lon="7.11583">
        <ele>932</ele>
        <time>1990-12-09T18:10:44Z</time>
      </trkpt>
      <trkpt lat="43.83232" lon="7.1158">
        <ele>926</ele>
        <time>1990-12-09T18:11:03Z</time>
      </trkpt>
      <trkpt lat="43.83228" lon="7.11585">
        <ele>924</ele>
        <time>1990-12-09T18:11:26Z</time>
      </trkpt>
      <trkpt lat="43.83242" lon="7.11602">
        <ele>921</ele>
        <time>1990-12-09T18:11:38Z</time>
      </trkpt>
      <trkpt lat="43.83228" lon="7.11595">
        <ele>919</ele>
        <time>1990-12-09T18:11:55Z</time>
      </trkpt>
      <trkpt lat="43.83208" lon="7.11582">
        <ele>915</ele>
        <time>1990-12-09T18:12:18Z</time>
      </trkpt>
      <trkpt lat="43.83208" lon="7.11595">
        <ele>912</ele>
        <time>1990-12-09T18:12:27Z</time>
      </trkpt>
      <trkpt lat="43.83218" lon="7.11615">
        <ele>908</ele>
        <time>1990-12-09T18:12:39Z</time>
      </trkpt>
      <trkpt lat="43.8319" lon="7.1162">
        <ele>903</ele>
        <time>1990-12-09T18:12:56Z</time>
      </trkpt>
      <trkpt lat="43.83172" lon="7.11623">
        <ele>898</ele>
        <time>1990-12-09T18:13:06Z</time>
      </trkpt>
      <trkpt lat="43.83152" lon="7.11637">
        <ele>892</ele>
        <time>1990-12-09T18:13:18Z</time>
      </trkpt>
      <trkpt lat="43.8314" lon="7.11647">
        <ele>888</ele>
        <time>1990-12-09T18:13:25Z</time>
      </trkpt>
      <trkpt lat="43.83122" lon="7.11658">
        <ele>883</ele>
        <time>1990-12-09T18:13:35Z</time>
      </trkpt>
      <trkpt lat="43.83103" lon="7.11673">
        <ele>878</ele>
        <time>1990-12-09T18:13:46Z</time>
      </trkpt>
      <trkpt lat="43.83085" lon="7.11682">
        <ele>874</ele>
        <time>1990-12-09T18:14:05Z</time>
      </trkpt>
      <trkpt lat="43.83082" lon="7.1169">
        <ele>874</ele>
        <time>1990-12-09T18:15:13Z</time>
      </trkpt>
      <trkpt lat="43.8306" lon="7.11692">
        <ele>870</ele>
        <time>1990-12-09T18:15:38Z</time>
      </trkpt>
      <trkpt lat="43.83035" lon="7.11697">
        <ele>865</ele>
        <time>1990-12-09T18:15:46Z</time>
      </trkpt>
      <trkpt lat="43.83022" lon="7.117">
        <ele>861</ele>
        <time>1990-12-09T18:15:52Z</time>
      </trkpt>
      <trkpt lat="43.82998" lon="7.117">
        <ele>857</ele>
        <time>1990-12-09T18:16:03Z</time>
      </trkpt>
      <trkpt lat="43.82968" lon="7.11688">
        <ele>851</ele>
        <time>1990-12-09T18:16:15Z</time>
      </trkpt>
      <trkpt lat="43.82932" lon="7.11672">
        <ele>845</ele>
        <time>1990-12-09T18:16:27Z</time>
      </trkpt>
      <trkpt lat="43.82917" lon="7.11672">
        <ele>842</ele>
        <time>1990-12-09T18:16:32Z</time>
      </trkpt>
      <trkpt lat="43.82895" lon="7.1168">
        <ele>836</ele>
        <time>1990-12-09T18:16:42Z</time>
      </trkpt>
      <trkpt lat="43.8286" lon="7.1168">
        <ele>830</ele>
        <time>1990-12-09T18:16:54Z</time>
      </trkpt>
      <trkpt lat="43.82848" lon="7.11682">
        <ele>826</ele>
        <time>1990-12-09T18:17:45Z</time>
      </trkpt>
      <trkpt lat="43.82832" lon="7.1168">
        <ele>823</ele>
        <time>1990-12-09T18:18:16Z</time>
      </trkpt>
      <trkpt lat="43.82843" lon="7.1171">
        <ele>817</ele>
        <time>1990-12-09T18:18:42Z</time>
      </trkpt>
      <trkpt lat="43.82837" lon="7.11715">
        <ele>813</ele>
        <time>1990-12-09T18:19:01Z</time>
      </trkpt>
      <trkpt lat="43.82832" lon="7.11727">
        <ele>808</ele>
        <time>1990-12-09T18:19:31Z</time>
      </trkpt>
      <trkpt lat="43.82842" lon="7.11747">
        <ele>805</ele>
        <time>1990-12-09T18:19:59Z</time>
      </trkpt>
      <trkpt lat="43.82848" lon="7.11767">
        <ele>801</ele>
        <time>1990-12-09T18:20:24Z</time>
      </trkpt>
      <trkpt lat="43.82843" lon="7.1177">
        <ele>798</ele>
        <time>1990-12-09T18:20:41Z</time>
      </trkpt>
      <trkpt lat="43.82842" lon="7.11778">
        <ele>796</ele>
        <time>1990-12-09T18:20:58Z</time>
      </trkpt>
      <trkpt lat="43.82827" lon="7.11778">
        <ele>791</ele>
        <time>1990-12-09T18:21:17Z</time>
      </trkpt>
      <trkpt lat="43.8281" lon="7.1178">
        <ele>787</ele>
        <time>1990-12-09T18:21:28Z</time>
      </trkpt>
      <trkpt lat="43.82793" lon="7.11782">
        <ele>782</ele>
        <time>1990-12-09T18:21:42Z</time>
      </trkpt>
      <trkpt lat="43.82798" lon="7.11803">
        <ele>778</ele>
        <time>1990-12-09T18:21:56Z</time>
      </trkpt>
      <trkpt lat="43.82795" lon="7.11822">
        <ele>774</ele>
        <time>1990-12-09T18:22:10Z</time>
      </trkpt>
      <trkpt lat="43.82802" lon="7.1184">
        <ele>771</ele>
        <time>1990-12-09T18:22:35Z</time>
      </trkpt>
      <trkpt lat="43.8279" lon="7.11847">
        <ele>767</ele>
        <time>1990-12-09T18:22:52Z</time>
      </trkpt>
      <trkpt lat="43.82787" lon="7.11852">
        <ele>765</ele>
        <time>1990-12-09T18:23:29Z</time>
      </trkpt>
      <trkpt lat="43.8279" lon="7.11863">
        <ele>763</ele>
        <time>1990-12-09T18:24:53Z</time>
      </trkpt>
      <trkpt lat="43.82763" lon="7.11855">
        <ele>756</ele>
        <time>1990-12-09T18:25:05Z</time>
      </trkpt>
      <trkpt lat="43.82752" lon="7.11862">
        <ele>752</ele>
        <time>1990-12-09T18:25:11Z</time>
      </trkpt>
      <trkpt lat="43.82743" lon="7.11872">
        <ele>748</ele>
        <time>1990-12-09T18:25:17Z</time>
      </trkpt>
      <trkpt lat="43.82738" lon="7.11893">
        <ele>744</ele>
        <time>1990-12-09T18:25:26Z</time>
      </trkpt>
      <trkpt lat="43.82728" lon="7.11903">
        <ele>740</ele>
        <time>1990-12-09T18:25:33Z</time>
      </trkpt>
      <trkpt lat="43.82717" lon="7.11915">
        <ele>737</ele>
        <time>1990-12-09T18:25:42Z</time>
      </trkpt>
      <trkpt lat="43.82745" lon="7.11967">
        <ele>732</ele>
        <time>1990-12-09T18:25:54Z</time>
      </trkpt>
      <trkpt lat="43.82755" lon="7.11977">
        <ele>730</ele>
        <time>1990-12-09T18:26:15Z</time>
      </trkpt>
      <trkpt lat="43.8278" lon="7.11992">
        <ele>727</ele>
        <time>1990-12-09T18:26:46Z</time>
      </trkpt>
      <trkpt lat="43.82798" lon="7.1202">
        <ele>725</ele>
        <time>1990-12-09T18:26:51Z</time>
      </trkpt>
      <trkpt lat="43.82837" lon="7.12102">
        <ele>718</ele>
        <time>1990-12-09T18:27:01Z</time>
      </trkpt>
      <trkpt lat="43.82853" lon="7.12128">
        <ele>713</ele>
        <time>1990-12-09T18:27:12Z</time>
      </trkpt>
      <trkpt lat="43.82793" lon="7.12097">
        <ele>708</ele>
        <time>1990-12-09T18:27:23Z</time>
      </trkpt>
      <trkpt lat="43.82773" lon="7.12078">
        <ele>706</ele>
        <time>1990-12-09T18:27:27Z</time>
      </trkpt>
      <trkpt lat="43.82737" lon="7.12055">
        <ele>702</ele>
        <time>1990-12-09T18:27:34Z</time>
      </trkpt>
      <trkpt lat="43.82668" lon="7.12038">
        <ele>695</ele>
        <time>1990-12-09T18:27:44Z</time>
      </trkpt>
      <trkpt lat="43.8263" lon="7.12038">
        <ele>690</ele>
        <time>1990-12-09T18:27:49Z</time>
      </trkpt>
      <trkpt lat="43.82603" lon="7.12048">
        <ele>687</ele>
        <time>1990-12-09T18:27:56Z</time>
      </trkpt>
      <trkpt lat="43.82565" lon="7.12067">
        <ele>683</ele>
        <time>1990-12-09T18:28:05Z</time>
      </trkpt>
      <trkpt lat="43.82527" lon="7.12128">
        <ele>677</ele>
        <time>1990-12-09T18:28:15Z</time>
      </trkpt>
      <trkpt lat="43.8246" lon="7.1216">
        <ele>671</ele>
        <time>1990-12-09T18:28:24Z</time>
      </trkpt>
      <trkpt lat="43.82417" lon="7.12167">
        <ele>667</ele>
        <time>1990-12-09T18:28:31Z</time>
      </trkpt>
      <trkpt lat="43.82398" lon="7.12143">
        <ele>665</ele>
        <time>1990-12-09T18:28:35Z</time>
      </trkpt>
      <trkpt lat="43.82343" lon="7.12098">
        <ele>667</ele>
        <time>1990-12-09T18:28:56Z</time>
      </trkpt>
      <trkpt lat="43.82333" lon="7.12078">
        <ele>667</ele>
        <time>1990-12-09T18:29:11Z</time>
      </trkpt>
      <trkpt lat="43.82317" lon="7.1205">
        <ele>668</ele>
        <time>1990-12-09T18:29:19Z</time>
      </trkpt>
      <trkpt lat="43.8229" lon="7.12023">
        <ele>669</ele>
        <time>1990-12-09T18:29:26Z</time>
      </trkpt>
      <trkpt lat="43.8227" lon="7.11995">
        <ele>671</ele>
        <time>1990-12-09T18:29:33Z</time>
      </trkpt>
      <trkpt lat="43.82163" lon="7.11917">
        <ele>675</ele>
        <time>1990-12-09T18:30:06Z</time>
      </trkpt>
      <trkpt lat="43.82125" lon="7.11803">
        <ele>679</ele>
        <time>1990-12-09T18:30:33Z</time>
      </trkpt>
      <trkpt lat="43.82027" lon="7.11745">
        <ele>682</ele>
        <time>1990-12-09T18:31:03Z</time>
      </trkpt>
      <trkpt lat="43.8195" lon="7.1174">
        <ele>686</ele>
        <time>1990-12-09T18:31:28Z</time>
      </trkpt>
      <trkpt lat="43.81878" lon="7.11728">
        <ele>691</ele>
        <time>1990-12-09T18:31:51Z</time>
      </trkpt>
      <trkpt lat="43.8182" lon="7.11615">
        <ele>696</ele>
        <time>1990-12-09T18:32:21Z</time>
      </trkpt>
      <trkpt lat="43.81773" lon="7.11488">
        <ele>700</ele>
        <time>1990-12-09T18:32:50Z</time>
      </trkpt>
      <trkpt lat="43.81735" lon="7.11343">
        <ele>706</ele>
        <time>1990-12-09T18:33:22Z</time>
      </trkpt>
      <trkpt lat="43.81717" lon="7.1119">
        <ele>711</ele>
        <time>1990-12-09T18:33:55Z</time>
      </trkpt>
      <trkpt lat="43.81695" lon="7.11048">
        <ele>716</ele>
        <time>1990-12-09T18:34:26Z</time>
      </trkpt>
      <trkpt lat="43.81647" lon="7.1097">
        <ele>720</ele>
        <time>1990-12-09T18:34:53Z</time>
      </trkpt>
      <trkpt lat="43.81627" lon="7.1087">
        <ele>723</ele>
        <time>1990-12-09T18:35:23Z</time>
      </trkpt>
      <trkpt lat="43.8154" lon="7.10813">
        <ele>727</ele>
        <time>1990-12-09T18:35:51Z</time>
      </trkpt>
      <trkpt lat="43.81512" lon="7.10685">
        <ele>732</ele>
        <time>1990-12-09T18:36:18Z</time>
      </trkpt>
      <trkpt lat="43.81482" lon="7.10587">
        <ele>737</ele>
        <time>1990-12-09T18:36:42Z</time>
      </trkpt>
      <trkpt lat="43.81458" lon="7.10453">
        <ele>741</ele>
        <time>1990-12-09T18:37:11Z</time>
      </trkpt>
      <trkpt lat="43.8136" lon="7.10377">
        <ele>746</ele>
        <time>1990-12-09T18:37:42Z</time>
      </trkpt>
      <trkpt lat="43.8126" lon="7.10313">
        <ele>751</ele>
        <time>1990-12-09T18:38:12Z</time>
      </trkpt>
      <trkpt lat="43.81213" lon="7.1019">
        <ele>755</ele>
        <time>1990-12-09T18:38:41Z</time>
      </trkpt>
      <trkpt lat="43.8119" lon="7.10075">
        <ele>760</ele>
        <time>1990-12-09T18:39:05Z</time>
      </trkpt>
      <trkpt lat="43.81212" lon="7.09982">
        <ele>763</ele>
        <time>1990-12-09T18:39:24Z</time>
      </trkpt>
      <trkpt lat="43.8121" lon="7.099">
        <ele>765</ele>
        <time>1990-12-09T18:39:39Z</time>
      </trkpt>
      <trkpt lat="43.81213" lon="7.09865">
        <ele>765</ele>
        <time>1990-12-09T18:39:45Z</time>
      </trkpt>
      <trkpt lat="43.81208" lon="7.09822">
        <ele>766</ele>
        <time>1990-12-09T18:39:53Z</time>
      </trkpt>
      <trkpt lat="43.81228" lon="7.09717">
        <ele>766</ele>
        <time>1990-12-09T18:40:11Z</time>
      </trkpt>
      <trkpt lat="43.81215" lon="7.09662">
        <ele>766</ele>
        <time>1990-12-09T18:40:20Z</time>
      </trkpt>
      <trkpt lat="43.81172" lon="7.09567">
        <ele>766</ele>
        <time>1990-12-09T18:40:37Z</time>
      </trkpt>
      <trkpt lat="43.81162" lon="7.0945">
        <ele>766</ele>
        <time>1990-12-09T18:40:54Z</time>
      </trkpt>
      <trkpt lat="43.81182" lon="7.09395">
        <ele>766</ele>
        <time>1990-12-09T18:41:02Z</time>
      </trkpt>
      <trkpt lat="43.81207" lon="7.09332">
        <ele>765</ele>
        <time>1990-12-09T18:41:12Z</time>
      </trkpt>
      <trkpt lat="43.81185" lon="7.09282">
        <ele>766</ele>
        <time>1990-12-09T18:41:22Z</time>
      </trkpt>
      <trkpt lat="43.81145" lon="7.0934">
        <ele>768</ele>
        <time>1990-12-09T18:41:38Z</time>
      </trkpt>
      <trkpt lat="43.81102" lon="7.09355">
        <ele>771</ele>
        <time>1990-12-09T18:41:52Z</time>
      </trkpt>
      <trkpt lat="43.8106" lon="7.09453">
        <ele>776</ele>
        <time>1990-12-09T18:42:16Z</time>
      </trkpt>
      <trkpt lat="43.81047" lon="7.09588">
        <ele>781</ele>
        <time>1990-12-09T18:42:46Z</time>
      </trkpt>
      <trkpt lat="43.81075" lon="7.0971">
        <ele>786</ele>
        <time>1990-12-09T18:43:16Z</time>
      </trkpt>
      <trkpt lat="43.81068" lon="7.09805">
        <ele>790</ele>
        <time>1990-12-09T18:43:38Z</time>
      </trkpt>
      <trkpt lat="43.80993" lon="7.09855">
        <ele>796</ele>
        <time>1990-12-09T18:44:08Z</time>
      </trkpt>
      <trkpt lat="43.80892" lon="7.09872">
        <ele>801</ele>
        <time>1990-12-09T18:44:39Z</time>
      </trkpt>
      <trkpt lat="43.808" lon="7.09872">
        <ele>806</ele>
        <time>1990-12-09T18:45:10Z</time>
      </trkpt>
      <trkpt lat="43.8071" lon="7.09838">
        <ele>812</ele>
        <time>1990-12-09T18:45:40Z</time>
      </trkpt>
      <trkpt lat="43.80623" lon="7.09785">
        <ele>817</ele>
        <time>1990-12-09T18:46:10Z</time>
      </trkpt>
      <trkpt lat="43.80548" lon="7.09797">
        <ele>822</ele>
        <time>1990-12-09T18:46:36Z</time>
      </trkpt>
      <trkpt lat="43.80523" lon="7.0989">
        <ele>825</ele>
        <time>1990-12-09T18:46:57Z</time>
      </trkpt>
      <trkpt lat="43.80487" lon="7.0999">
        <ele>830</ele>
        <time>1990-12-09T18:47:23Z</time>
      </trkpt>
      <trkpt lat="43.8039" lon="7.10067">
        <ele>836</ele>
        <time>1990-12-09T18:47:57Z</time>
      </trkpt>
      <trkpt lat="43.80287" lon="7.1014">
        <ele>841</ele>
        <time>1990-12-09T18:48:31Z</time>
      </trkpt>
      <trkpt lat="43.80287" lon="7.10132">
        <ele>842</ele>
        <time>1990-12-09T18:48:39Z</time>
      </trkpt>
      <trkpt lat="43.8033" lon="7.10095">
        <ele>845</ele>
        <time>1990-12-09T18:48:53Z</time>
      </trkpt>
      <trkpt lat="43.80403" lon="7.10017">
        <ele>850</ele>
        <time>1990-12-09T18:49:22Z</time>
      </trkpt>
      <trkpt lat="43.80478" lon="7.0992">
        <ele>855</ele>
        <time>1990-12-09T18:49:51Z</time>
      </trkpt>
      <trkpt lat="43.80483" lon="7.09807">
        <ele>860</ele>
        <time>1990-12-09T18:50:15Z</time>
      </trkpt>
      <trkpt lat="43.805" lon="7.09682">
        <ele>865</ele>
        <time>1990-12-09T18:50:45Z</time>
      </trkpt>
      <trkpt lat="43.80588" lon="7.09628">
        <ele>870</ele>
        <time>1990-12-09T18:51:11Z</time>
      </trkpt>
      <trkpt lat="43.80695" lon="7.09627">
        <ele>875</ele>
        <time>1990-12-09T18:51:41Z</time>
      </trkpt>
      <trkpt lat="43.80783" lon="7.09637">
        <ele>880</ele>
        <time>1990-12-09T18:52:06Z</time>
      </trkpt>
      <trkpt lat="43.80812" lon="7.0967">
        <ele>880</ele>
        <time>1990-12-09T18:52:34Z</time>
      </trkpt>
      <trkpt lat="43.80675" lon="7.0962">
        <ele>885</ele>
        <time>1990-12-10T08:15:49Z</time>
      </trkpt>
      <trkpt lat="43.80608" lon="7.09612">
        <ele>882</ele>
        <time>1990-12-10T08:16:01Z</time>
      </trkpt>
      <trkpt lat="43.8057" lon="7.0963">
        <ele>880</ele>
        <time>1990-12-10T08:16:07Z</time>
      </trkpt>
      <trkpt lat="43.8055" lon="7.09638">
        <ele>878</ele>
        <time>1990-12-10T08:16:11Z</time>
      </trkpt>
      <trkpt lat="43.80505" lon="7.09675">
        <ele>875</ele>
        <time>1990-12-10T08:16:20Z</time>
      </trkpt>
      <trkpt lat="43.8048" lon="7.09742">
        <ele>873</ele>
        <time>1990-12-10T08:16:30Z</time>
      </trkpt>
      <trkpt lat="43.80483" lon="7.09815">
        <ele>870</ele>
        <time>1990-12-10T08:16:38Z</time>
      </trkpt>
      <trkpt lat="43.8048" lon="7.09917">
        <ele>866</ele>
        <time>1990-12-10T08:16:51Z</time>
      </trkpt>
      <trkpt lat="43.80447" lon="7.09962">
        <ele>863</ele>
        <time>1990-12-10T08:16:58Z</time>
      </trkpt>
      <trkpt lat="43.80382" lon="7.10043">
        <ele>859</ele>
        <time>1990-12-10T08:17:09Z</time>
      </trkpt>
      <trkpt lat="43.80322" lon="7.10103">
        <ele>854</ele>
        <time>1990-12-10T08:17:18Z</time>
      </trkpt>
      <trkpt lat="43.80265" lon="7.10137">
        <ele>851</ele>
        <time>1990-12-10T08:17:26Z</time>
      </trkpt>
      <trkpt lat="43.80187" lon="7.10157">
        <ele>855</ele>
        <time>1990-12-10T08:17:48Z</time>
      </trkpt>
      <trkpt lat="43.80113" lon="7.10137">
        <ele>859</ele>
        <time>1990-12-10T08:18:15Z</time>
      </trkpt>
      <trkpt lat="43.80077" lon="7.10057">
        <ele>862</ele>
        <time>1990-12-10T08:18:41Z</time>
      </trkpt>
      <trkpt lat="43.80053" lon="7.09963">
        <ele>865</ele>
        <time>1990-12-10T08:19:06Z</time>
      </trkpt>
      <trkpt lat="43.80037" lon="7.09855">
        <ele>869</ele>
        <time>1990-12-10T08:19:34Z</time>
      </trkpt>
      <trkpt lat="43.80012" lon="7.09752">
        <ele>873</ele>
        <time>1990-12-10T08:20:05Z</time>
      </trkpt>
      <trkpt lat="43.80035" lon="7.09637">
        <ele>876</ele>
        <time>1990-12-10T08:20:37Z</time>
      </trkpt>
      <trkpt lat="43.80077" lon="7.09557">
        <ele>880</ele>
        <time>1990-12-10T08:21:04Z</time>
      </trkpt>
      <trkpt lat="43.80127" lon="7.09445">
        <ele>883</ele>
        <time>1990-12-10T08:21:38Z</time>
      </trkpt>
      <trkpt lat="43.80108" lon="7.09362">
        <ele>885</ele>
        <time>1990-12-10T08:22:02Z</time>
      </trkpt>
      <trkpt lat="43.80072" lon="7.0946">
        <ele>888</ele>
        <time>1990-12-10T08:22:29Z</time>
      </trkpt>
      <trkpt lat="43.80065" lon="7.0947">
        <ele>889</ele>
        <time>1990-12-10T08:22:34Z</time>
      </trkpt>
      <trkpt lat="43.80018" lon="7.09528">
        <ele>895</ele>
        <time>1990-12-10T08:23:05Z</time>
      </trkpt>
      <trkpt lat="43.7999" lon="7.09572">
        <ele>895</ele>
        <time>1990-12-10T08:23:23Z</time>
      </trkpt>
      <trkpt lat="43.79973" lon="7.09695">
        <ele>896</ele>
        <time>1990-12-10T08:23:58Z</time>
      </trkpt>
      <trkpt lat="43.79952" lon="7.09798">
        <ele>896</ele>
        <time>1990-12-10T08:24:25Z</time>
      </trkpt>
      <trkpt lat="43.79955" lon="7.09945">
        <ele>897</ele>
        <time>1990-12-10T08:24:55Z</time>
      </trkpt>
      <trkpt lat="43.7999" lon="7.10148">
        <ele>898</ele>
        <time>1990-12-10T08:25:32Z</time>
      </trkpt>
      <trkpt lat="43.8001" lon="7.10313">
        <ele>898</ele>
        <time>1990-12-10T08:26:01Z</time>
      </trkpt>
      <trkpt lat="43.79987" lon="7.1036">
        <ele>898</ele>
        <time>1990-12-10T08:26:11Z</time>
      </trkpt>
      <trkpt lat="43.7991" lon="7.10382">
        <ele>899</ele>
        <time>1990-12-10T08:26:34Z</time>
      </trkpt>
      <trkpt lat="43.79943" lon="7.10428">
        <ele>899</ele>
        <time>1990-12-10T08:26:52Z</time>
      </trkpt>
      <trkpt lat="43.79992" lon="7.10498">
        <ele>899</ele>
        <time>1990-12-10T08:27:10Z</time>
      </trkpt>
      <trkpt lat="43.79995" lon="7.1061">
        <ele>899</ele>
        <time>1990-12-10T08:27:30Z</time>
      </trkpt>
      <trkpt lat="43.80002" lon="7.10768">
        <ele>900</ele>
        <time>1990-12-10T08:27:57Z</time>
      </trkpt>
      <trkpt lat="43.80015" lon="7.10925">
        <ele>901</ele>
        <time>1990-12-10T08:28:25Z</time>
      </trkpt>
      <trkpt lat="43.80027" lon="7.11087">
        <ele>903</ele>
        <time>1990-12-10T08:28:55Z</time>
      </trkpt>
      <trkpt lat="43.80057" lon="7.1125">
        <ele>903</ele>
        <time>1990-12-10T08:29:27Z</time>
      </trkpt>
      <trkpt lat="43.80073" lon="7.11307">
        <ele>904</ele>
        <time>1990-12-10T08:29:45Z</time>
      </trkpt>
      <trkpt lat="43.8004" lon="7.11362">
        <ele>909</ele>
        <time>1990-12-10T08:30:12Z</time>
      </trkpt>
      <trkpt lat="43.80022" lon="7.11387">
        <ele>913</ele>
        <time>1990-12-10T08:30:31Z</time>
      </trkpt>
      <trkpt lat="43.79988" lon="7.11417">
        <ele>919</ele>
        <time>1990-12-10T08:30:58Z</time>
      </trkpt>
      <trkpt lat="43.79975" lon="7.11428">
        <ele>921</ele>
        <time>1990-12-10T08:31:12Z</time>
      </trkpt>
      <trkpt lat="43.79938" lon="7.11447">
        <ele>924</ele>
        <time>1990-12-10T08:31:38Z</time>
      </trkpt>
      <trkpt lat="43.79898" lon="7.11467">
        <ele>928</ele>
        <time>1990-12-10T08:32:07Z</time>
      </trkpt>
      <trkpt lat="43.79872" lon="7.11477">
        <ele>931</ele>
        <time>1990-12-10T08:32:26Z</time>
      </trkpt>
      <trkpt lat="43.79837" lon="7.11483">
        <ele>932</ele>
        <time>1990-12-10T08:32:48Z</time>
      </trkpt>
      <trkpt lat="43.79793" lon="7.11497">
        <ele>936</ele>
        <time>1990-12-10T08:33:16Z</time>
      </trkpt>
      <trkpt lat="43.79775" lon="7.11505">
        <ele>939</ele>
        <time>1990-12-10T08:33:29Z</time>
      </trkpt>
      <trkpt lat="43.79792" lon="7.11523">
        <ele>941</ele>
        <time>1990-12-10T08:33:43Z</time>
      </trkpt>
      <trkpt lat="43.79765" lon="7.11518">
        <ele>943</ele>
        <time>1990-12-10T08:34:03Z</time>
      </trkpt>
      <trkpt lat="43.7972" lon="7.11507">
        <ele>947</ele>
        <time>1990-12-10T08:34:33Z</time>
      </trkpt>
      <trkpt lat="43.79698" lon="7.11502">
        <ele>949</ele>
        <time>1990-12-10T08:34:48Z</time>
      </trkpt>
      <trkpt lat="43.7966" lon="7.11487">
        <ele>954</ele>
        <time>1990-12-10T08:35:16Z</time>
      </trkpt>
      <trkpt lat="43.79633" lon="7.11477">
        <ele>957</ele>
        <time>1990-12-10T08:35:36Z</time>
      </trkpt>
      <trkpt lat="43.79623" lon="7.11472">
        <ele>958</ele>
        <time>1990-12-10T08:35:44Z</time>
      </trkpt>
      <trkpt lat="43.79627" lon="7.11485">
        <ele>959</ele>
        <time>1990-12-10T08:35:56Z</time>
      </trkpt>
      <trkpt lat="43.79642" lon="7.11525">
        <ele>963</ele>
        <time>1990-12-10T08:36:19Z</time>
      </trkpt>
      <trkpt lat="43.79647" lon="7.11557">
        <ele>966</ele>
        <time>1990-12-10T08:36:35Z</time>
      </trkpt>
      <trkpt lat="43.79668" lon="7.11598">
        <ele>973</ele>
        <time>1990-12-10T08:37:02Z</time>
      </trkpt>
      <trkpt lat="43.7969" lon="7.11637">
        <ele>977</ele>
        <time>1990-12-10T08:37:28Z</time>
      </trkpt>
      <trkpt lat="43.79717" lon="7.1169">
        <ele>982</ele>
        <time>1990-12-10T08:37:59Z</time>
      </trkpt>
      <trkpt lat="43.79713" lon="7.11762">
        <ele>983</ele>
        <time>1990-12-10T08:38:24Z</time>
      </trkpt>
      <trkpt lat="43.79698" lon="7.11802">
        <ele>985</ele>
        <time>1990-12-10T08:38:42Z</time>
      </trkpt>
      <trkpt lat="43.7969" lon="7.11843">
        <ele>988</ele>
        <time>1990-12-10T08:39:01Z</time>
      </trkpt>
      <trkpt lat="43.79682" lon="7.1189">
        <ele>991</ele>
        <time>1990-12-10T08:39:20Z</time>
      </trkpt>
      <trkpt lat="43.7968" lon="7.11922">
        <ele>992</ele>
        <time>1990-12-10T08:39:32Z</time>
      </trkpt>
      <trkpt lat="43.7966" lon="7.11997">
        <ele>994</ele>
        <time>1990-12-10T08:39:59Z</time>
      </trkpt>
      <trkpt lat="43.79618" lon="7.12045">
        <ele>996</ele>
        <time>1990-12-10T08:40:25Z</time>
      </trkpt>
      <trkpt lat="43.79608" lon="7.12087">
        <ele>999</ele>
        <time>1990-12-10T08:40:47Z</time>
      </trkpt>
      <trkpt lat="43.79605" lon="7.12117">
        <ele>1000</ele>
        <time>1990-12-10T08:41:03Z</time>
      </trkpt>
      <trkpt lat="43.79592" lon="7.1214">
        <ele>1001</ele>
        <time>1990-12-10T08:41:15Z</time>
      </trkpt>
      <trkpt lat="43.79573" lon="7.12178">
        <ele>1003</ele>
        <time>1990-12-10T08:41:35Z</time>
      </trkpt>
      <trkpt lat="43.7957" lon="7.1223">
        <ele>1006</ele>
        <time>1990-12-10T08:41:54Z</time>
      </trkpt>
      <trkpt lat="43.79582" lon="7.12252">
        <ele>1008</ele>
        <time>1990-12-10T08:42:02Z</time>
      </trkpt>
      <trkpt lat="43.79585" lon="7.12315">
        <ele>1009</ele>
        <time>1990-12-10T08:42:25Z</time>
      </trkpt>
      <trkpt lat="43.79578" lon="7.12345">
        <ele>1010</ele>
        <time>1990-12-10T08:42:36Z</time>
      </trkpt>
      <trkpt lat="43.79572" lon="7.12363">
        <ele>1011</ele>
        <time>1990-12-10T08:42:43Z</time>
      </trkpt>
      <trkpt lat="43.79575" lon="7.12402">
        <ele>1010</ele>
        <time>1990-12-10T08:49:36Z</time>
      </trkpt>
      <trkpt lat="43.79543" lon="7.12443">
        <ele>1005</ele>
        <time>1990-12-10T08:49:50Z</time>
      </trkpt>
      <trkpt lat="43.79535" lon="7.12462">
        <ele>1004</ele>
        <time>1990-12-10T08:49:53Z</time>
      </trkpt>
      <trkpt lat="43.79507" lon="7.12533">
        <ele>1005</ele>
        <time>1990-12-10T08:50:10Z</time>
      </trkpt>
      <trkpt lat="43.79497" lon="7.12587">
        <ele>1011</ele>
        <time>1990-12-10T08:50:35Z</time>
      </trkpt>
      <trkpt lat="43.79462" lon="7.12605">
        <ele>1014</ele>
        <time>1990-12-10T08:50:58Z</time>
      </trkpt>
      <trkpt lat="43.794" lon="7.1264">
        <ele>1016</ele>
        <time>1990-12-10T08:51:24Z</time>
      </trkpt>
      <trkpt lat="43.79353" lon="7.12715">
        <ele>1020</ele>
        <time>1990-12-10T08:51:47Z</time>
      </trkpt>
      <trkpt lat="43.79338" lon="7.12718">
        <ele>1020</ele>
        <time>1990-12-10T08:51:58Z</time>
      </trkpt>
      <trkpt lat="43.79305" lon="7.1274">
        <ele>1018</ele>
        <time>1990-12-10T08:52:18Z</time>
      </trkpt>
      <trkpt lat="43.79297" lon="7.12777">
        <ele>1016</ele>
        <time>1990-12-10T08:53:00Z</time>
      </trkpt>
      <trkpt lat="43.79292" lon="7.12833">
        <ele>1010</ele>
        <time>1990-12-10T08:53:43Z</time>
      </trkpt>
      <trkpt lat="43.79285" lon="7.12887">
        <ele>1005</ele>
        <time>1990-12-10T08:54:00Z</time>
      </trkpt>
      <trkpt lat="43.79285" lon="7.12895">
        <ele>1004</ele>
        <time>1990-12-10T08:54:41Z</time>
      </trkpt>
      <trkpt lat="43.79258" lon="7.12883">
        <ele>999</ele>
        <time>1990-12-10T08:54:58Z</time>
      </trkpt>
      <trkpt lat="43.79245" lon="7.12887">
        <ele>997</ele>
        <time>1990-12-10T08:55:04Z</time>
      </trkpt>
      <trkpt lat="43.7923" lon="7.12897">
        <ele>994</ele>
        <time>1990-12-10T08:55:13Z</time>
      </trkpt>
      <trkpt lat="43.7925" lon="7.12913">
        <ele>992</ele>
        <time>1990-12-10T08:55:28Z</time>
      </trkpt>
      <trkpt lat="43.79238" lon="7.12935">
        <ele>986</ele>
        <time>1990-12-10T08:55:50Z</time>
      </trkpt>
      <trkpt lat="43.79233" lon="7.12952">
        <ele>984</ele>
        <time>1990-12-10T08:56:06Z</time>
      </trkpt>
      <trkpt lat="43.79233" lon="7.12963">
        <ele>983</ele>
        <time>1990-12-10T08:56:13Z</time>
      </trkpt>
      <trkpt lat="43.79243" lon="7.13022">
        <ele>977</ele>
        <time>1990-12-10T08:56:37Z</time>
      </trkpt>
      <trkpt lat="43.79213" lon="7.13055">
        <ele>971</ele>
        <time>1990-12-10T08:56:58Z</time>
      </trkpt>
      <trkpt lat="43.79185" lon="7.13065">
        <ele>964</ele>
        <time>1990-12-10T08:57:17Z</time>
      </trkpt>
      <trkpt lat="43.7918" lon="7.1307">
        <ele>963</ele>
        <time>1990-12-10T08:57:35Z</time>
      </trkpt>
      <trkpt lat="43.79145" lon="7.13083">
        <ele>956</ele>
        <time>1990-12-10T08:57:56Z</time>
      </trkpt>
      <trkpt lat="43.79138" lon="7.1308">
        <ele>954</ele>
        <time>1990-12-10T09:00:32Z</time>
      </trkpt>
      <trkpt lat="43.79113" lon="7.13175">
        <ele>949</ele>
        <time>1990-12-10T09:00:55Z</time>
      </trkpt>
      <trkpt lat="43.79093" lon="7.13238">
        <ele>947</ele>
        <time>1990-12-10T09:01:07Z</time>
      </trkpt>
      <trkpt lat="43.79073" lon="7.13302">
        <ele>946</ele>
        <time>1990-12-10T09:01:18Z</time>
      </trkpt>
      <trkpt lat="43.79057" lon="7.13347">
        <ele>949</ele>
        <time>1990-12-10T09:01:44Z</time>
      </trkpt>
      <trkpt lat="43.79053" lon="7.1338">
        <ele>954</ele>
        <time>1990-12-10T09:02:12Z</time>
      </trkpt>
      <trkpt lat="43.79037" lon="7.13428">
        <ele>957</ele>
        <time>1990-12-10T09:02:38Z</time>
      </trkpt>
      <trkpt lat="43.79017" lon="7.13488">
        <ele>960</ele>
        <time>1990-12-10T09:03:04Z</time>
      </trkpt>
      <trkpt lat="43.78993" lon="7.13562">
        <ele>962</ele>
        <time>1990-12-10T09:03:35Z</time>
      </trkpt>
      <trkpt lat="43.78978" lon="7.13613">
        <ele>960</ele>
        <time>1990-12-10T09:04:24Z</time>
      </trkpt>
      <trkpt lat="43.7897" lon="7.13647">
        <ele>956</ele>
        <time>1990-12-10T09:04:30Z</time>
      </trkpt>
      <trkpt lat="43.78962" lon="7.1367">
        <ele>955</ele>
        <time>1990-12-10T09:04:34Z</time>
      </trkpt>
      <trkpt lat="43.78952" lon="7.13708">
        <ele>954</ele>
        <time>1990-12-10T09:04:40Z</time>
      </trkpt>
      <trkpt lat="43.78932" lon="7.1378">
        <ele>954</ele>
        <time>1990-12-10T09:04:54Z</time>
      </trkpt>
      <trkpt lat="43.78905" lon="7.1387">
        <ele>950</ele>
        <time>1990-12-10T09:05:15Z</time>
      </trkpt>
      <trkpt lat="43.78883" lon="7.13935">
        <ele>944</ele>
        <time>1990-12-10T09:05:28Z</time>
      </trkpt>
      <trkpt lat="43.78873" lon="7.13975">
        <ele>937</ele>
        <time>1990-12-10T09:05:37Z</time>
      </trkpt>
      <trkpt lat="43.78872" lon="7.13985">
        <ele>936</ele>
        <time>1990-12-10T09:05:50Z</time>
      </trkpt>
      <trkpt lat="43.78857" lon="7.13995">
        <ele>932</ele>
        <time>1990-12-10T09:07:47Z</time>
      </trkpt>
      <trkpt lat="43.78823" lon="7.14022">
        <ele>925</ele>
        <time>1990-12-10T09:08:05Z</time>
      </trkpt>
      <trkpt lat="43.78827" lon="7.14037">
        <ele>923</ele>
        <time>1990-12-10T09:08:16Z</time>
      </trkpt>
      <trkpt lat="43.78838" lon="7.14112">
        <ele>917</ele>
        <time>1990-12-10T09:08:41Z</time>
      </trkpt>
      <trkpt lat="43.78812" lon="7.14205">
        <ele>912</ele>
        <time>1990-12-10T09:09:06Z</time>
      </trkpt>
      <trkpt lat="43.7879" lon="7.14277">
        <ele>906</ele>
        <time>1990-12-10T09:09:28Z</time>
      </trkpt>
      <trkpt lat="43.78777" lon="7.1432">
        <ele>901</ele>
        <time>1990-12-10T09:09:40Z</time>
      </trkpt>
      <trkpt lat="43.78772" lon="7.14335">
        <ele>901</ele>
        <time>1990-12-10T09:09:56Z</time>
      </trkpt>
      <trkpt lat="43.78713" lon="7.14313">
        <ele>897</ele>
        <time>1990-12-10T09:11:37Z</time>
      </trkpt>
      <trkpt lat="43.78665" lon="7.1432">
        <ele>891</ele>
        <time>1990-12-10T09:11:58Z</time>
      </trkpt>
      <trkpt lat="43.7865" lon="7.14343">
        <ele>887</ele>
        <time>1990-12-10T09:12:07Z</time>
      </trkpt>
      <trkpt lat="43.78628" lon="7.14348">
        <ele>883</ele>
        <time>1990-12-10T09:12:16Z</time>
      </trkpt>
      <trkpt lat="43.78575" lon="7.14308">
        <ele>878</ele>
        <time>1990-12-10T09:12:36Z</time>
      </trkpt>
      <trkpt lat="43.78523" lon="7.14287">
        <ele>872</ele>
        <time>1990-12-10T09:12:58Z</time>
      </trkpt>
      <trkpt lat="43.78513" lon="7.14283">
        <ele>870</ele>
        <time>1990-12-10T09:13:04Z</time>
      </trkpt>
      <trkpt lat="43.78498" lon="7.14277">
        <ele>867</ele>
        <time>1990-12-10T09:13:21Z</time>
      </trkpt>
      <trkpt lat="43.78473" lon="7.14267">
        <ele>860</ele>
        <time>1990-12-10T09:13:36Z</time>
      </trkpt>
      <trkpt lat="43.7844" lon="7.14253">
        <ele>855</ele>
        <time>1990-12-10T09:13:54Z</time>
      </trkpt>
      <trkpt lat="43.78402" lon="7.1424">
        <ele>849</ele>
        <time>1990-12-10T09:14:16Z</time>
      </trkpt>
      <trkpt lat="43.78375" lon="7.14232">
        <ele>845</ele>
        <time>1990-12-10T09:14:40Z</time>
      </trkpt>
      <trkpt lat="43.78383" lon="7.14253">
        <ele>842</ele>
        <time>1990-12-10T09:16:14Z</time>
      </trkpt>
      <trkpt lat="43.78417" lon="7.14295">
        <ele>838</ele>
        <time>1990-12-10T09:16:28Z</time>
      </trkpt>
      <trkpt lat="43.7845" lon="7.14337">
        <ele>833</ele>
        <time>1990-12-10T09:16:39Z</time>
      </trkpt>
      <trkpt lat="43.78457" lon="7.1435">
        <ele>831</ele>
        <time>1990-12-10T09:16:43Z</time>
      </trkpt>
      <trkpt lat="43.78477" lon="7.14382">
        <ele>826</ele>
        <time>1990-12-10T09:16:51Z</time>
      </trkpt>
      <trkpt lat="43.78493" lon="7.144">
        <ele>825</ele>
        <time>1990-12-10T09:16:55Z</time>
      </trkpt>
      <trkpt lat="43.7851" lon="7.14423">
        <ele>823</ele>
        <time>1990-12-10T09:17:00Z</time>
      </trkpt>
      <trkpt lat="43.78535" lon="7.14472">
        <ele>819</ele>
        <time>1990-12-10T09:17:10Z</time>
      </trkpt>
      <trkpt lat="43.78572" lon="7.14503">
        <ele>817</ele>
        <time>1990-12-10T09:17:19Z</time>
      </trkpt>
      <trkpt lat="43.78627" lon="7.14582">
        <ele>814</ele>
        <time>1990-12-10T09:17:38Z</time>
      </trkpt>
      <trkpt lat="43.78648" lon="7.1465">
        <ele>815</ele>
        <time>1990-12-10T09:18:25Z</time>
      </trkpt>
      <trkpt lat="43.7864" lon="7.14638">
        <ele>814</ele>
        <time>1990-12-10T09:18:39Z</time>
      </trkpt>
      <trkpt lat="43.78615" lon="7.14628">
        <ele>811</ele>
        <time>1990-12-10T09:18:54Z</time>
      </trkpt>
      <trkpt lat="43.78578" lon="7.1463">
        <ele>812</ele>
        <time>1990-12-10T09:19:18Z</time>
      </trkpt>
      <trkpt lat="43.7854" lon="7.14603">
        <ele>813</ele>
        <time>1990-12-10T09:19:46Z</time>
      </trkpt>
      <trkpt lat="43.78518" lon="7.14588">
        <ele>814</ele>
        <time>1990-12-10T09:19:56Z</time>
      </trkpt>
      <trkpt lat="43.78453" lon="7.14515">
        <ele>815</ele>
        <time>1990-12-10T09:20:21Z</time>
      </trkpt>
      <trkpt lat="43.78425" lon="7.14463">
        <ele>815</ele>
        <time>1990-12-10T09:20:41Z</time>
      </trkpt>
      <trkpt lat="43.78398" lon="7.14438">
        <ele>816</ele>
        <time>1990-12-10T09:21:13Z</time>
      </trkpt>
      <trkpt lat="43.78387" lon="7.14412">
        <ele>817</ele>
        <time>1990-12-10T09:22:57Z</time>
      </trkpt>
      <trkpt lat="43.78382" lon="7.144">
        <ele>820</ele>
        <time>1990-12-10T09:23:08Z</time>
      </trkpt>
      <trkpt lat="43.78367" lon="7.14385">
        <ele>821</ele>
        <time>1990-12-10T09:23:24Z</time>
      </trkpt>
      <trkpt lat="43.78348" lon="7.14373">
        <ele>824</ele>
        <time>1990-12-10T09:23:46Z</time>
      </trkpt>
      <trkpt lat="43.78335" lon="7.14357">
        <ele>825</ele>
        <time>1990-12-10T09:24:05Z</time>
      </trkpt>
      <trkpt lat="43.78293" lon="7.14358">
        <ele>826</ele>
        <time>1990-12-10T09:24:22Z</time>
      </trkpt>
      <trkpt lat="43.78275" lon="7.14367">
        <ele>827</ele>
        <time>1990-12-10T09:24:33Z</time>
      </trkpt>
      <trkpt lat="43.78262" lon="7.14367">
        <ele>828</ele>
        <time>1990-12-10T09:24:41Z</time>
      </trkpt>
      <trkpt lat="43.78228" lon="7.14322">
        <ele>830</ele>
        <time>1990-12-10T09:25:04Z</time>
      </trkpt>
      <trkpt lat="43.78215" lon="7.14323">
        <ele>833</ele>
        <time>1990-12-10T09:25:24Z</time>
      </trkpt>
      <trkpt lat="43.7819" lon="7.143">
        <ele>836</ele>
        <time>1990-12-10T09:25:53Z</time>
      </trkpt>
      <trkpt lat="43.78173" lon="7.14283">
        <ele>837</ele>
        <time>1990-12-10T09:26:14Z</time>
      </trkpt>
      <trkpt lat="43.7815" lon="7.14265">
        <ele>838</ele>
        <time>1990-12-10T09:26:42Z</time>
      </trkpt>
      <trkpt lat="43.78135" lon="7.14257">
        <ele>840</ele>
        <time>1990-12-10T09:26:59Z</time>
      </trkpt>
      <trkpt lat="43.7812" lon="7.14245">
        <ele>841</ele>
        <time>1990-12-10T09:27:17Z</time>
      </trkpt>
      <trkpt lat="43.78073" lon="7.14235">
        <ele>842</ele>
        <time>1990-12-10T09:27:45Z</time>
      </trkpt>
      <trkpt lat="43.78047" lon="7.1425">
        <ele>845</ele>
        <time>1990-12-10T09:28:15Z</time>
      </trkpt>
      <trkpt lat="43.78045" lon="7.14253">
        <ele>844</ele>
        <time>1990-12-10T09:29:54Z</time>
      </trkpt>
      <trkpt lat="43.78018" lon="7.1425">
        <ele>843</ele>
        <time>1990-12-10T09:30:11Z</time>
      </trkpt>
      <trkpt lat="43.78" lon="7.14255">
        <ele>845</ele>
        <time>1990-12-10T09:30:29Z</time>
      </trkpt>
      <trkpt lat="43.7796" lon="7.14248">
        <ele>848</ele>
        <time>1990-12-10T09:30:59Z</time>
      </trkpt>
      <trkpt lat="43.77948" lon="7.14257">
        <ele>849</ele>
        <time>1990-12-10T09:31:15Z</time>
      </trkpt>
      <trkpt lat="43.77942" lon="7.14257">
        <ele>849</ele>
        <time>1990-12-10T09:31:39Z</time>
      </trkpt>
      <trkpt lat="43.77875" lon="7.14247">
        <ele>848</ele>
        <time>1990-12-10T09:32:14Z</time>
      </trkpt>
      <trkpt lat="43.77825" lon="7.14203">
        <ele>848</ele>
        <time>1990-12-10T09:32:35Z</time>
      </trkpt>
      <trkpt lat="43.77802" lon="7.14203">
        <ele>850</ele>
        <time>1990-12-10T09:32:50Z</time>
      </trkpt>
      <trkpt lat="43.77787" lon="7.14193">
        <ele>851</ele>
        <time>1990-12-10T09:33:17Z</time>
      </trkpt>
      <trkpt lat="43.77752" lon="7.14182">
        <ele>849</ele>
        <time>1990-12-10T09:33:35Z</time>
      </trkpt>
      <trkpt lat="43.77737" lon="7.14175">
        <ele>848</ele>
        <time>1990-12-10T09:33:45Z</time>
      </trkpt>
      <trkpt lat="43.77715" lon="7.14163">
        <ele>844</ele>
        <time>1990-12-10T09:34:00Z</time>
      </trkpt>
      <trkpt lat="43.777" lon="7.14152">
        <ele>841</ele>
        <time>1990-12-10T09:34:12Z</time>
      </trkpt>
      <trkpt lat="43.7768" lon="7.14127">
        <ele>837</ele>
        <time>1990-12-10T09:34:32Z</time>
      </trkpt>
      <trkpt lat="43.77652" lon="7.14093">
        <ele>835</ele>
        <time>1990-12-10T09:34:49Z</time>
      </trkpt>
      <trkpt lat="43.77642" lon="7.1408">
        <ele>834</ele>
        <time>1990-12-10T09:35:12Z</time>
      </trkpt>
      <trkpt lat="43.77635" lon="7.14068">
        <ele>834</ele>
        <time>1990-12-10T09:36:42Z</time>
      </trkpt>
      <trkpt lat="43.77617" lon="7.14057">
        <ele>831</ele>
        <time>1990-12-10T09:37:05Z</time>
      </trkpt>
      <trkpt lat="43.77595" lon="7.14055">
        <ele>827</ele>
        <time>1990-12-10T09:37:31Z</time>
      </trkpt>
      <trkpt lat="43.77588" lon="7.14065">
        <ele>826</ele>
        <time>1990-12-10T09:37:41Z</time>
      </trkpt>
      <trkpt lat="43.7758" lon="7.14052">
        <ele>824</ele>
        <time>1990-12-10T09:37:50Z</time>
      </trkpt>
      <trkpt lat="43.77565" lon="7.14032">
        <ele>823</ele>
        <time>1990-12-10T09:38:03Z</time>
      </trkpt>
      <trkpt lat="43.77542" lon="7.14035">
        <ele>817</ele>
        <time>1990-12-10T09:38:35Z</time>
      </trkpt>
      <trkpt lat="43.77537" lon="7.14008">
        <ele>814</ele>
        <time>1990-12-10T09:39:04Z</time>
      </trkpt>
      <trkpt lat="43.7752" lon="7.13995">
        <ele>808</ele>
        <time>1990-12-10T09:39:35Z</time>
      </trkpt>
      <trkpt lat="43.775" lon="7.13978">
        <ele>802</ele>
        <time>1990-12-10T09:40:05Z</time>
      </trkpt>
      <trkpt lat="43.77492" lon="7.13975">
        <ele>801</ele>
        <time>1990-12-10T09:40:10Z</time>
      </trkpt>
      <trkpt lat="43.7748" lon="7.1398">
        <ele>799</ele>
        <time>1990-12-10T09:40:33Z</time>
      </trkpt>
      <trkpt lat="43.77442" lon="7.14">
        <ele>795</ele>
        <time>1990-12-10T09:41:11Z</time>
      </trkpt>
      <trkpt lat="43.77387" lon="7.14038">
        <ele>793</ele>
        <time>1990-12-10T09:41:27Z</time>
      </trkpt>
      <trkpt lat="43.77345" lon="7.14087">
        <ele>790</ele>
        <time>1990-12-10T09:41:50Z</time>
      </trkpt>
      <trkpt lat="43.77312" lon="7.1414">
        <ele>784</ele>
        <time>1990-12-10T09:42:10Z</time>
      </trkpt>
      <trkpt lat="43.77303" lon="7.14165">
        <ele>781</ele>
        <time>1990-12-10T09:42:18Z</time>
      </trkpt>
      <trkpt lat="43.77288" lon="7.14187">
        <ele>777</ele>
        <time>1990-12-10T09:42:30Z</time>
      </trkpt>
      <trkpt lat="43.77268" lon="7.14217">
        <ele>772</ele>
        <time>1990-12-10T09:42:44Z</time>
      </trkpt>
      <trkpt lat="43.77253" lon="7.1426">
        <ele>768</ele>
        <time>1990-12-10T09:42:59Z</time>
      </trkpt>
      <trkpt lat="43.77225" lon="7.14253">
        <ele>765</ele>
        <time>1990-12-10T09:43:11Z</time>
      </trkpt>
      <trkpt lat="43.7717" lon="7.143">
        <ele>763</ele>
        <time>1990-12-10T09:43:31Z</time>
      </trkpt>
      <trkpt lat="43.77103" lon="7.14387">
        <ele>760</ele>
        <time>1990-12-10T09:43:56Z</time>
      </trkpt>
      <trkpt lat="43.77022" lon="7.14447">
        <ele>755</ele>
        <time>1990-12-10T09:44:21Z</time>
      </trkpt>
      <trkpt lat="43.76993" lon="7.14467">
        <ele>752</ele>
        <time>1990-12-10T09:44:32Z</time>
      </trkpt>
      <trkpt lat="43.76953" lon="7.14475">
        <ele>750</ele>
        <time>1990-12-10T09:44:47Z</time>
      </trkpt>
      <trkpt lat="43.76887" lon="7.14485">
        <ele>744</ele>
        <time>1990-12-10T09:45:05Z</time>
      </trkpt>
      <trkpt lat="43.76828" lon="7.14477">
        <ele>738</ele>
        <time>1990-12-10T09:45:26Z</time>
      </trkpt>
      <trkpt lat="43.76783" lon="7.14468">
        <ele>732</ele>
        <time>1990-12-10T09:45:43Z</time>
      </trkpt>
      <trkpt lat="43.7675" lon="7.14463">
        <ele>726</ele>
        <time>1990-12-10T09:45:57Z</time>
      </trkpt>
      <trkpt lat="43.76708" lon="7.14442">
        <ele>722</ele>
        <time>1990-12-10T09:46:15Z</time>
      </trkpt>
      <trkpt lat="43.7668" lon="7.14433">
        <ele>717</ele>
        <time>1990-12-10T09:46:26Z</time>
      </trkpt>
      <trkpt lat="43.76637" lon="7.14423">
        <ele>712</ele>
        <time>1990-12-10T09:46:44Z</time>
      </trkpt>
      <trkpt lat="43.7657" lon="7.14433">
        <ele>705</ele>
        <time>1990-12-10T09:47:07Z</time>
      </trkpt>
      <trkpt lat="43.7651" lon="7.14445">
        <ele>700</ele>
        <time>1990-12-10T09:47:28Z</time>
      </trkpt>
      <trkpt lat="43.76478" lon="7.14458">
        <ele>695</ele>
        <time>1990-12-10T09:47:37Z</time>
      </trkpt>
      <trkpt lat="43.76458" lon="7.14458">
        <ele>693</ele>
        <time>1990-12-10T09:47:42Z</time>
      </trkpt>
      <trkpt lat="43.764" lon="7.14447">
        <ele>687</ele>
        <time>1990-12-10T09:48:02Z</time>
      </trkpt>
      <trkpt lat="43.76367" lon="7.14442">
        <ele>684</ele>
        <time>1990-12-10T09:48:11Z</time>
      </trkpt>
      <trkpt lat="43.76313" lon="7.1445">
        <ele>682</ele>
        <time>1990-12-10T09:48:25Z</time>
      </trkpt>
      <trkpt lat="43.76305" lon="7.1445">
        <ele>682</ele>
        <time>1990-12-10T09:48:56Z</time>
      </trkpt>
      <trkpt lat="43.76275" lon="7.14437">
        <ele>679</ele>
        <time>1990-12-10T09:49:50Z</time>
      </trkpt>
      <trkpt lat="43.76183" lon="7.14408">
        <ele>675</ele>
        <time>1990-12-10T09:50:14Z</time>
      </trkpt>
      <trkpt lat="43.76135" lon="7.14385">
        <ele>671</ele>
        <time>1990-12-10T09:50:29Z</time>
      </trkpt>
      <trkpt lat="43.76108" lon="7.14372">
        <ele>670</ele>
        <time>1990-12-10T09:50:36Z</time>
      </trkpt>
      <trkpt lat="43.76052" lon="7.14328">
        <ele>665</ele>
        <time>1990-12-10T09:50:51Z</time>
      </trkpt>
      <trkpt lat="43.75982" lon="7.14303">
        <ele>661</ele>
        <time>1990-12-10T09:51:08Z</time>
      </trkpt>
      <trkpt lat="43.75925" lon="7.143">
        <ele>655</ele>
        <time>1990-12-10T09:51:29Z</time>
      </trkpt>
      <trkpt lat="43.75898" lon="7.14298">
        <ele>651</ele>
        <time>1990-12-10T09:51:42Z</time>
      </trkpt>
      <trkpt lat="43.7588" lon="7.1429">
        <ele>652</ele>
        <time>1990-12-10T09:52:00Z</time>
      </trkpt>
      <trkpt lat="43.75852" lon="7.14295">
        <ele>650</ele>
        <time>1990-12-10T09:52:10Z</time>
      </trkpt>
      <trkpt lat="43.75812" lon="7.1431">
        <ele>648</ele>
        <time>1990-12-10T09:52:17Z</time>
      </trkpt>
      <trkpt lat="43.75783" lon="7.14325">
        <ele>646</ele>
        <time>1990-12-10T09:52:22Z</time>
      </trkpt>
      <trkpt lat="43.75718" lon="7.14313">
        <ele>641</ele>
        <time>1990-12-10T09:52:39Z</time>
      </trkpt>
      <trkpt lat="43.75695" lon="7.14307">
        <ele>638</ele>
        <time>1990-12-10T09:52:49Z</time>
      </trkpt>
      <trkpt lat="43.75657" lon="7.14312">
        <ele>632</ele>
        <time>1990-12-10T09:53:09Z</time>
      </trkpt>
      <trkpt lat="43.75627" lon="7.14318">
        <ele>626</ele>
        <time>1990-12-10T09:53:26Z</time>
      </trkpt>
      <trkpt lat="43.75607" lon="7.14323">
        <ele>622</ele>
        <time>1990-12-10T09:53:36Z</time>
      </trkpt>
      <trkpt lat="43.75592" lon="7.14327">
        <ele>619</ele>
        <time>1990-12-10T09:53:43Z</time>
      </trkpt>
      <trkpt lat="43.75565" lon="7.14327">
        <ele>615</ele>
        <time>1990-12-10T09:53:56Z</time>
      </trkpt>
      <trkpt lat="43.75532" lon="7.14327">
        <ele>610</ele>
        <time>1990-12-10T09:54:13Z</time>
      </trkpt>
      <trkpt lat="43.7553" lon="7.14328">
        <ele>609</ele>
        <time>1990-12-10T09:55:24Z</time>
      </trkpt>
      <trkpt lat="43.75505" lon="7.14325">
        <ele>604</ele>
        <time>1990-12-10T09:55:55Z</time>
      </trkpt>
      <trkpt lat="43.7547" lon="7.1431">
        <ele>600</ele>
        <time>1990-12-10T09:56:10Z</time>
      </trkpt>
      <trkpt lat="43.75422" lon="7.14275">
        <ele>593</ele>
        <time>1990-12-10T09:56:31Z</time>
      </trkpt>
      <trkpt lat="43.75387" lon="7.1426">
        <ele>588</ele>
        <time>1990-12-10T09:56:48Z</time>
      </trkpt>
      <trkpt lat="43.75372" lon="7.14255">
        <ele>585</ele>
        <time>1990-12-10T09:56:55Z</time>
      </trkpt>
      <trkpt lat="43.75357" lon="7.14258">
        <ele>581</ele>
        <time>1990-12-10T09:57:12Z</time>
      </trkpt>
      <trkpt lat="43.75363" lon="7.1427">
        <ele>579</ele>
        <time>1990-12-10T09:59:23Z</time>
      </trkpt>
      <trkpt lat="43.7539" lon="7.14292">
        <ele>574</ele>
        <time>1990-12-10T09:59:36Z</time>
      </trkpt>
      <trkpt lat="43.75373" lon="7.1429">
        <ele>570</ele>
        <time>1990-12-10T09:59:49Z</time>
      </trkpt>
      <trkpt lat="43.75343" lon="7.14275">
        <ele>564</ele>
        <time>1990-12-10T10:00:04Z</time>
      </trkpt>
      <trkpt lat="43.75288" lon="7.14242">
        <ele>558</ele>
        <time>1990-12-10T10:00:28Z</time>
      </trkpt>
      <trkpt lat="43.75263" lon="7.14242">
        <ele>553</ele>
        <time>1990-12-10T10:00:39Z</time>
      </trkpt>
      <trkpt lat="43.75225" lon="7.14233">
        <ele>546</ele>
        <time>1990-12-10T10:00:53Z</time>
      </trkpt>
      <trkpt lat="43.75218" lon="7.14232">
        <ele>545</ele>
        <time>1990-12-10T10:00:56Z</time>
      </trkpt>
      <trkpt lat="43.75177" lon="7.14207">
        <ele>540</ele>
        <time>1990-12-10T10:01:10Z</time>
      </trkpt>
      <trkpt lat="43.75127" lon="7.14178">
        <ele>535</ele>
        <time>1990-12-10T10:01:25Z</time>
      </trkpt>
      <trkpt lat="43.75098" lon="7.14172">
        <ele>530</ele>
        <time>1990-12-10T10:01:35Z</time>
      </trkpt>
      <trkpt lat="43.75065" lon="7.14165">
        <ele>525</ele>
        <time>1990-12-10T10:01:45Z</time>
      </trkpt>
      <trkpt lat="43.75047" lon="7.1416">
        <ele>522</ele>
        <time>1990-12-10T10:01:59Z</time>
      </trkpt>
      <trkpt lat="43.75043" lon="7.14158">
        <ele>519</ele>
        <time>1990-12-10T10:09:21Z</time>
      </trkpt>
      <trkpt lat="43.75017" lon="7.14152">
        <ele>515</ele>
        <time>1990-12-10T10:09:30Z</time>
      </trkpt>
      <trkpt lat="43.74997" lon="7.1415">
        <ele>511</ele>
        <time>1990-12-10T10:09:35Z</time>
      </trkpt>
      <trkpt lat="43.7497" lon="7.14155">
        <ele>506</ele>
        <time>1990-12-10T10:09:41Z</time>
      </trkpt>
      <trkpt lat="43.74945" lon="7.14162">
        <ele>501</ele>
        <time>1990-12-10T10:09:51Z</time>
      </trkpt>
      <trkpt lat="43.74938" lon="7.14178">
        <ele>496</ele>
        <time>1990-12-10T10:10:01Z</time>
      </trkpt>
      <trkpt lat="43.74928" lon="7.1419">
        <ele>492</ele>
        <time>1990-12-10T10:10:09Z</time>
      </trkpt>
      <trkpt lat="43.74932" lon="7.142">
        <ele>488</ele>
        <time>1990-12-10T10:10:26Z</time>
      </trkpt>
      <trkpt lat="43.74908" lon="7.14198">
        <ele>484</ele>
        <time>1990-12-10T10:10:36Z</time>
      </trkpt>
      <trkpt lat="43.74902" lon="7.1421">
        <ele>480</ele>
        <time>1990-12-10T10:10:44Z</time>
      </trkpt>
      <trkpt lat="43.74893" lon="7.14218">
        <ele>475</ele>
        <time>1990-12-10T10:10:52Z</time>
      </trkpt>
      <trkpt lat="43.74865" lon="7.14222">
        <ele>469</ele>
        <time>1990-12-10T10:10:57Z</time>
      </trkpt>
      <trkpt lat="43.74838" lon="7.14223">
        <ele>464</ele>
        <time>1990-12-10T10:11:03Z</time>
      </trkpt>
      <trkpt lat="43.74802" lon="7.1423">
        <ele>458</ele>
        <time>1990-12-10T10:11:13Z</time>
      </trkpt>
      <trkpt lat="43.74778" lon="7.14252">
        <ele>454</ele>
        <time>1990-12-10T10:11:23Z</time>
      </trkpt>
      <trkpt lat="43.74767" lon="7.14268">
        <ele>451</ele>
        <time>1990-12-10T10:12:36Z</time>
      </trkpt>
      <trkpt lat="43.74797" lon="7.14317">
        <ele>446</ele>
        <time>1990-12-10T10:13:01Z</time>
      </trkpt>
      <trkpt lat="43.74787" lon="7.14328">
        <ele>446</ele>
        <time>1990-12-10T10:13:22Z</time>
      </trkpt>
      <trkpt lat="43.74822" lon="7.14332">
        <ele>444</ele>
        <time>1990-12-10T10:14:25Z</time>
      </trkpt>
      <trkpt lat="43.74848" lon="7.14365">
        <ele>444</ele>
        <time>1990-12-10T10:14:44Z</time>
      </trkpt>
      <trkpt lat="43.74857" lon="7.14375">
        <ele>443</ele>
        <time>1990-12-10T10:16:31Z</time>
      </trkpt>
      <trkpt lat="43.74888" lon="7.14368">
        <ele>442</ele>
        <time>1990-12-10T10:16:46Z</time>
      </trkpt>
      <trkpt lat="43.74935" lon="7.14387">
        <ele>440</ele>
        <time>1990-12-10T10:16:56Z</time>
      </trkpt>
      <trkpt lat="43.7498" lon="7.1441">
        <ele>439</ele>
        <time>1990-12-10T10:17:04Z</time>
      </trkpt>
      <trkpt lat="43.75025" lon="7.14447">
        <ele>434</ele>
        <time>1990-12-10T10:17:18Z</time>
      </trkpt>
      <trkpt lat="43.75002" lon="7.14433">
        <ele>431</ele>
        <time>1990-12-10T10:17:36Z</time>
      </trkpt>
      <trkpt lat="43.7499" lon="7.14448">
        <ele>427</ele>
        <time>1990-12-10T10:17:43Z</time>
      </trkpt>
      <trkpt lat="43.74975" lon="7.14507">
        <ele>426</ele>
        <time>1990-12-10T10:17:55Z</time>
      </trkpt>
      <trkpt lat="43.74963" lon="7.14537">
        <ele>426</ele>
        <time>1990-12-10T10:18:07Z</time>
      </trkpt>
      <trkpt lat="43.74948" lon="7.14628">
        <ele>420</ele>
        <time>1990-12-10T10:18:18Z</time>
      </trkpt>
      <trkpt lat="43.74912" lon="7.1474">
        <ele>414</ele>
        <time>1990-12-10T10:18:28Z</time>
      </trkpt>
      <trkpt lat="43.7489" lon="7.1482">
        <ele>409</ele>
        <time>1990-12-10T10:18:35Z</time>
      </trkpt>
      <trkpt lat="43.74825" lon="7.14887">
        <ele>403</ele>
        <time>1990-12-10T10:18:43Z</time>
      </trkpt>
      <trkpt lat="43.74793" lon="7.14957">
        <ele>398</ele>
        <time>1990-12-10T10:18:49Z</time>
      </trkpt>
      <trkpt lat="43.74818" lon="7.15055">
        <ele>392</ele>
        <time>1990-12-10T10:18:57Z</time>
      </trkpt>
      <trkpt lat="43.74853" lon="7.15142">
        <ele>386</ele>
        <time>1990-12-10T10:19:04Z</time>
      </trkpt>
      <trkpt lat="43.7488" lon="7.15308">
        <ele>384</ele>
        <time>1990-12-10T10:20:31Z</time>
      </trkpt>
      <trkpt lat="43.74897" lon="7.15345">
        <ele>387</ele>
        <time>1990-12-10T10:20:50Z</time>
      </trkpt>
      <trkpt lat="43.74905" lon="7.15372">
        <ele>388</ele>
        <time>1990-12-10T10:21:06Z</time>
      </trkpt>
      <trkpt lat="43.74927" lon="7.15452">
        <ele>390</ele>
        <time>1990-12-10T10:21:37Z</time>
      </trkpt>
      <trkpt lat="43.74962" lon="7.15523">
        <ele>391</ele>
        <time>1990-12-10T10:22:04Z</time>
      </trkpt>
      <trkpt lat="43.74998" lon="7.15597">
        <ele>396</ele>
        <time>1990-12-10T10:22:32Z</time>
      </trkpt>
      <trkpt lat="43.7502" lon="7.15672">
        <ele>395</ele>
        <time>1990-12-10T10:22:58Z</time>
      </trkpt>
      <trkpt lat="43.75023" lon="7.15707">
        <ele>391</ele>
        <time>1990-12-10T10:23:05Z</time>
      </trkpt>
      <trkpt lat="43.75048" lon="7.1576">
        <ele>386</ele>
        <time>1990-12-10T10:23:13Z</time>
      </trkpt>
      <trkpt lat="43.7509" lon="7.15805">
        <ele>383</ele>
        <time>1990-12-10T10:23:31Z</time>
      </trkpt>
      <trkpt lat="43.75123" lon="7.15825">
        <ele>382</ele>
        <time>1990-12-10T10:23:39Z</time>
      </trkpt>
      <trkpt lat="43.75195" lon="7.15907">
        <ele>380</ele>
        <time>1990-12-10T10:23:59Z</time>
      </trkpt>
      <trkpt lat="43.75258" lon="7.16018">
        <ele>380</ele>
        <time>1990-12-10T10:24:19Z</time>
      </trkpt>
      <trkpt lat="43.75325" lon="7.16118">
        <ele>383</ele>
        <time>1990-12-10T10:24:44Z</time>
      </trkpt>
      <trkpt lat="43.7539" lon="7.16172">
        <ele>385</ele>
        <time>1990-12-10T10:25:07Z</time>
      </trkpt>
      <trkpt lat="43.7545" lon="7.16247">
        <ele>386</ele>
        <time>1990-12-10T10:25:36Z</time>
      </trkpt>
      <trkpt lat="43.75517" lon="7.16343">
        <ele>389</ele>
        <time>1990-12-10T10:26:08Z</time>
      </trkpt>
      <trkpt lat="43.75585" lon="7.16395">
        <ele>392</ele>
        <time>1990-12-10T10:26:35Z</time>
      </trkpt>
      <trkpt lat="43.75645" lon="7.1647">
        <ele>395</ele>
        <time>1990-12-10T10:27:04Z</time>
      </trkpt>
      <trkpt lat="43.75688" lon="7.16502">
        <ele>399</ele>
        <time>1990-12-10T10:27:22Z</time>
      </trkpt>
      <trkpt lat="43.75752" lon="7.16562">
        <ele>405</ele>
        <time>1990-12-10T10:27:52Z</time>
      </trkpt>
      <trkpt lat="43.75792" lon="7.16592">
        <ele>408</ele>
        <time>1990-12-10T10:28:10Z</time>
      </trkpt>
      <trkpt lat="43.7583" lon="7.16618">
        <ele>411</ele>
        <time>1990-12-10T10:28:28Z</time>
      </trkpt>
      <trkpt lat="43.75897" lon="7.16623">
        <ele>414</ele>
        <time>1990-12-10T10:28:52Z</time>
      </trkpt>
      <trkpt lat="43.75975" lon="7.16698">
        <ele>415</ele>
        <time>1990-12-10T10:29:24Z</time>
      </trkpt>
      <trkpt lat="43.75987" lon="7.1674">
        <ele>410</ele>
        <time>1990-12-10T10:32:04Z</time>
      </trkpt>
      <trkpt lat="43.75968" lon="7.1672">
        <ele>404</ele>
        <time>1990-12-10T10:32:20Z</time>
      </trkpt>
      <trkpt lat="43.75962" lon="7.16717">
        <ele>401</ele>
        <time>1990-12-10T10:32:37Z</time>
      </trkpt>
      <trkpt lat="43.75943" lon="7.16748">
        <ele>394</ele>
        <time>1990-12-10T10:33:01Z</time>
      </trkpt>
      <trkpt lat="43.75953" lon="7.16787">
        <ele>394</ele>
        <time>1990-12-10T10:33:16Z</time>
      </trkpt>
      <trkpt lat="43.75965" lon="7.16822">
        <ele>392</ele>
        <time>1990-12-10T10:33:37Z</time>
      </trkpt>
      <trkpt lat="43.75973" lon="7.16842">
        <ele>388</ele>
        <time>1990-12-10T10:34:02Z</time>
      </trkpt>
      <trkpt lat="43.75975" lon="7.1687">
        <ele>385</ele>
        <time>1990-12-10T10:34:36Z</time>
      </trkpt>
      <trkpt lat="43.75972" lon="7.16883">
        <ele>381</ele>
        <time>1990-12-10T10:34:49Z</time>
      </trkpt>
      <trkpt lat="43.75975" lon="7.16933">
        <ele>375</ele>
        <time>1990-12-10T10:35:10Z</time>
      </trkpt>
      <trkpt lat="43.75992" lon="7.1698">
        <ele>369</ele>
        <time>1990-12-10T10:35:25Z</time>
      </trkpt>
      <trkpt lat="43.75992" lon="7.17038">
        <ele>365</ele>
        <time>1990-12-10T10:35:46Z</time>
      </trkpt>
      <trkpt lat="43.75993" lon="7.17055">
        <ele>364</ele>
        <time>1990-12-10T10:38:50Z</time>
      </trkpt>
      <trkpt lat="43.75988" lon="7.17115">
        <ele>358</ele>
        <time>1990-12-10T10:39:00Z</time>
      </trkpt>
      <trkpt lat="43.75982" lon="7.17147">
        <ele>353</ele>
        <time>1990-12-10T10:39:05Z</time>
      </trkpt>
      <trkpt lat="43.75955" lon="7.17212">
        <ele>345</ele>
        <time>1990-12-10T10:39:14Z</time>
      </trkpt>
      <trkpt lat="43.75952" lon="7.17248">
        <ele>342</ele>
        <time>1990-12-10T10:39:19Z</time>
      </trkpt>
      <trkpt lat="43.75945" lon="7.17315">
        <ele>333</ele>
        <time>1990-12-10T10:39:28Z</time>
      </trkpt>
      <trkpt lat="43.75938" lon="7.17345">
        <ele>327</ele>
        <time>1990-12-10T10:39:32Z</time>
      </trkpt>
      <trkpt lat="43.75922" lon="7.17388">
        <ele>319</ele>
        <time>1990-12-10T10:39:42Z</time>
      </trkpt>
      <trkpt lat="43.7594" lon="7.17388">
        <ele>316</ele>
        <time>1990-12-10T10:39:58Z</time>
      </trkpt>
      <trkpt lat="43.7597" lon="7.1737">
        <ele>310</ele>
        <time>1990-12-10T10:40:10Z</time>
      </trkpt>
      <trkpt lat="43.76022" lon="7.17317">
        <ele>307</ele>
        <time>1990-12-10T10:40:32Z</time>
      </trkpt>
      <trkpt lat="43.7605" lon="7.1732">
        <ele>303</ele>
        <time>1990-12-10T10:40:39Z</time>
      </trkpt>
      <trkpt lat="43.76008" lon="7.17408">
        <ele>301</ele>
        <time>1990-12-10T10:40:54Z</time>
      </trkpt>
      <trkpt lat="43.75965" lon="7.17478">
        <ele>296</ele>
        <time>1990-12-10T10:41:12Z</time>
      </trkpt>
      <trkpt lat="43.76" lon="7.17498">
        <ele>291</ele>
        <time>1990-12-10T10:41:21Z</time>
      </trkpt>
      <trkpt lat="43.76043" lon="7.17453">
        <ele>284</ele>
        <time>1990-12-10T10:41:30Z</time>
      </trkpt>
      <trkpt lat="43.76063" lon="7.1744">
        <ele>279</ele>
        <time>1990-12-10T10:41:37Z</time>
      </trkpt>
      <trkpt lat="43.76032" lon="7.17542">
        <ele>277</ele>
        <time>1990-12-10T10:41:59Z</time>
      </trkpt>
      <trkpt lat="43.76002" lon="7.17612">
        <ele>275</ele>
        <time>1990-12-10T10:42:23Z</time>
      </trkpt>
      <trkpt lat="43.76007" lon="7.1761">
        <ele>273</ele>
        <time>1990-12-10T10:50:29Z</time>
      </trkpt>
      <trkpt lat="43.76008" lon="7.17613">
        <ele>273</ele>
        <time>1990-12-10T10:52:46Z</time>
      </trkpt>
      <trkpt lat="43.7601" lon="7.17617">
        <ele>273</ele>
        <time>1990-12-10T10:56:00Z</time>
      </trkpt>
      <trkpt lat="43.76025" lon="7.17608">
        <ele>272</ele>
        <time>1990-12-10T10:58:31Z</time>
      </trkpt>
      <trkpt lat="43.76065" lon="7.1755">
        <ele>269</ele>
        <time>1990-12-10T10:58:55Z</time>
      </trkpt>
      <trkpt lat="43.76088" lon="7.17508">
        <ele>266</ele>
        <time>1990-12-10T10:59:40Z</time>
      </trkpt>
      <trkpt lat="43.76122" lon="7.17507">
        <ele>264</ele>
        <time>1990-12-10T11:00:28Z</time>
      </trkpt>
      <trkpt lat="43.76175" lon="7.17542">
        <ele>261</ele>
        <time>1990-12-10T11:00:42Z</time>
      </trkpt>
      <trkpt lat="43.76235" lon="7.17558">
        <ele>257</ele>
        <time>1990-12-10T11:00:52Z</time>
      </trkpt>
      <trkpt lat="43.76302" lon="7.17615">
        <ele>253</ele>
        <time>1990-12-10T11:01:02Z</time>
      </trkpt>
      <trkpt lat="43.76353" lon="7.17657">
        <ele>251</ele>
        <time>1990-12-10T11:01:09Z</time>
      </trkpt>
      <trkpt lat="43.76383" lon="7.1768">
        <ele>249</ele>
        <time>1990-12-10T11:01:13Z</time>
      </trkpt>
      <trkpt lat="43.7642" lon="7.17733">
        <ele>246</ele>
        <time>1990-12-10T11:01:19Z</time>
      </trkpt>
      <trkpt lat="43.76482" lon="7.1778">
        <ele>242</ele>
        <time>1990-12-10T11:01:27Z</time>
      </trkpt>
      <trkpt lat="43.7656" lon="7.1782">
        <ele>238</ele>
        <time>1990-12-10T11:01:36Z</time>
      </trkpt>
      <trkpt lat="43.76602" lon="7.1788">
        <ele>235</ele>
        <time>1990-12-10T11:01:43Z</time>
      </trkpt>
      <trkpt lat="43.76698" lon="7.1793">
        <ele>228</ele>
        <time>1990-12-10T11:01:56Z</time>
      </trkpt>
      <trkpt lat="43.7677" lon="7.17883">
        <ele>224</ele>
        <time>1990-12-10T11:02:04Z</time>
      </trkpt>
      <trkpt lat="43.76835" lon="7.17802">
        <ele>219</ele>
        <time>1990-12-10T11:02:14Z</time>
      </trkpt>
      <trkpt lat="43.76855" lon="7.17717">
        <ele>215</ele>
        <time>1990-12-10T11:02:23Z</time>
      </trkpt>
      <trkpt lat="43.76883" lon="7.17848">
        <ele>209</ele>
        <time>1990-12-10T11:02:36Z</time>
      </trkpt>
      <trkpt lat="43.76887" lon="7.17972">
        <ele>204</ele>
        <time>1990-12-10T11:02:47Z</time>
      </trkpt>
      <trkpt lat="43.76923" lon="7.18027">
        <ele>201</ele>
        <time>1990-12-10T11:02:54Z</time>
      </trkpt>
      <trkpt lat="43.76978" lon="7.18067">
        <ele>197</ele>
        <time>1990-12-10T11:03:03Z</time>
      </trkpt>
      <trkpt lat="43.76972" lon="7.18128">
        <ele>194</ele>
        <time>1990-12-10T11:03:09Z</time>
      </trkpt>
      <trkpt lat="43.77018" lon="7.1818">
        <ele>190</ele>
        <time>1990-12-10T11:03:16Z</time>
      </trkpt>
      <trkpt lat="43.77057" lon="7.18193">
        <ele>188</ele>
        <time>1990-12-10T11:03:20Z</time>
      </trkpt>
      <trkpt lat="43.77088" lon="7.1828">
        <ele>183</ele>
        <time>1990-12-10T11:03:30Z</time>
      </trkpt>
      <trkpt lat="43.77072" lon="7.1836">
        <ele>179</ele>
        <time>1990-12-10T11:03:38Z</time>
      </trkpt>
      <trkpt lat="43.7711" lon="7.1841">
        <ele>176</ele>
        <time>1990-12-10T11:03:44Z</time>
      </trkpt>
      <trkpt lat="43.77122" lon="7.18448">
        <ele>174</ele>
        <time>1990-12-10T11:03:47Z</time>
      </trkpt>
      <trkpt lat="43.77147" lon="7.18487">
        <ele>172</ele>
        <time>1990-12-10T11:03:51Z</time>
      </trkpt>
      <trkpt lat="43.77155" lon="7.18527">
        <ele>170</ele>
        <time>1990-12-10T11:03:55Z</time>
      </trkpt>
      <trkpt lat="43.77217" lon="7.18583">
        <ele>165</ele>
        <time>1990-12-10T11:04:06Z</time>
      </trkpt>
      <trkpt lat="43.77222" lon="7.18605">
        <ele>164</ele>
        <time>1990-12-10T11:04:08Z</time>
      </trkpt>
      <trkpt lat="43.77267" lon="7.18642">
        <ele>160</ele>
        <time>1990-12-10T11:04:15Z</time>
      </trkpt>
      <trkpt lat="43.77333" lon="7.18668">
        <ele>155</ele>
        <time>1990-12-10T11:04:25Z</time>
      </trkpt>
      <trkpt lat="43.7725" lon="7.1871">
        <ele>150</ele>
        <time>1990-12-10T11:04:35Z</time>
      </trkpt>
      <trkpt lat="43.77162" lon="7.18753">
        <ele>145</ele>
        <time>1990-12-10T11:04:45Z</time>
      </trkpt>
      <trkpt lat="43.77095" lon="7.18812">
        <ele>140</ele>
        <time>1990-12-10T11:04:53Z</time>
      </trkpt>
      <trkpt lat="43.77035" lon="7.1884">
        <ele>137</ele>
        <time>1990-12-10T11:05:01Z</time>
      </trkpt>
      <trkpt lat="43.76993" lon="7.18845">
        <ele>135</ele>
        <time>1990-12-10T11:05:06Z</time>
      </trkpt>
      <trkpt lat="43.76958" lon="7.18853">
        <ele>133</ele>
        <time>1990-12-10T11:05:10Z</time>
      </trkpt>
      <trkpt lat="43.7696" lon="7.1891">
        <ele>128</ele>
        <time>1990-12-10T11:05:19Z</time>
      </trkpt>
      <trkpt lat="43.77058" lon="7.1891">
        <ele>124</ele>
        <time>1990-12-10T11:05:30Z</time>
      </trkpt>
      <trkpt lat="43.7712" lon="7.18913">
        <ele>119</ele>
        <time>1990-12-10T11:05:41Z</time>
      </trkpt>
      <trkpt lat="43.77107" lon="7.18932">
        <ele>118</ele>
        <time>1990-12-10T11:05:44Z</time>
      </trkpt>
      <trkpt lat="43.7704" lon="7.18983">
        <ele>115</ele>
        <time>1990-12-10T11:05:56Z</time>
      </trkpt>
      <trkpt lat="43.76982" lon="7.18997">
        <ele>113</ele>
        <time>1990-12-10T11:06:05Z</time>
      </trkpt>
      <trkpt lat="43.7691" lon="7.18997">
        <ele>110</ele>
        <time>1990-12-10T11:06:15Z</time>
      </trkpt>
      <trkpt lat="43.76865" lon="7.18983">
        <ele>109</ele>
        <time>1990-12-10T11:06:21Z</time>
      </trkpt>
      <trkpt lat="43.76808" lon="7.18973">
        <ele>106</ele>
        <time>1990-12-10T11:06:28Z</time>
      </trkpt>
      <trkpt lat="43.767" lon="7.19012">
        <ele>102</ele>
        <time>1990-12-10T11:06:43Z</time>
      </trkpt>
      <trkpt lat="43.76653" lon="7.1904">
        <ele>102</ele>
        <time>1990-12-10T11:06:51Z</time>
      </trkpt>
      <trkpt lat="43.76595" lon="7.19215">
        <ele>100</ele>
        <time>1990-12-10T11:07:13Z</time>
      </trkpt>
      <trkpt lat="43.76637" lon="7.19343">
        <ele>96</ele>
        <time>1990-12-10T11:07:29Z</time>
      </trkpt>
      <trkpt lat="43.76685" lon="7.19565">
        <ele>92</ele>
        <time>1990-12-10T11:07:55Z</time>
      </trkpt>
      <trkpt lat="43.76678" lon="7.19662">
        <ele>90</ele>
        <time>1990-12-10T11:08:05Z</time>
      </trkpt>
      <trkpt lat="43.76693" lon="7.19757">
        <ele>86</ele>
        <time>1990-12-10T11:08:15Z</time>
      </trkpt>
      <trkpt lat="43.76715" lon="7.19802">
        <ele>83</ele>
        <time>1990-12-10T11:08:27Z</time>
      </trkpt>
      <trkpt lat="43.76737" lon="7.19855">
        <ele>79</ele>
        <time>1990-12-10T11:09:31Z</time>
      </trkpt>
      <trkpt lat="43.7671" lon="7.19878">
        <ele>78</ele>
        <time>1990-12-10T11:09:43Z</time>
      </trkpt>
      <trkpt lat="43.7669" lon="7.19813">
        <ele>74</ele>
        <time>1990-12-10T11:09:58Z</time>
      </trkpt>
      <trkpt lat="43.76692" lon="7.19885">
        <ele>72</ele>
        <time>1990-12-10T11:10:15Z</time>
      </trkpt>
      <trkpt lat="43.76673" lon="7.20005">
        <ele>75</ele>
        <time>1990-12-10T11:10:40Z</time>
      </trkpt>
      <trkpt lat="43.7662" lon="7.20072">
        <ele>76</ele>
        <time>1990-12-10T11:11:06Z</time>
      </trkpt>
      <trkpt lat="43.76587" lon="7.20165">
        <ele>75</ele>
        <time>1990-12-10T11:11:28Z</time>
      </trkpt>
      <trkpt lat="43.76563" lon="7.20212">
        <ele>74</ele>
        <time>1990-12-10T11:13:37Z</time>
      </trkpt>
      <trkpt lat="43.76483" lon="7.20363">
        <ele>75</ele>
        <time>1990-12-10T11:14:09Z</time>
      </trkpt>
      <trkpt lat="43.76413" lon="7.2049">
        <ele>74</ele>
        <time>1990-12-10T11:14:37Z</time>
      </trkpt>
      <trkpt lat="43.76398" lon="7.20508">
        <ele>74</ele>
        <time>1990-12-10T11:14:47Z</time>
      </trkpt>
      <trkpt lat="43.764" lon="7.20545">
        <ele>74</ele>
        <time>1990-12-10T11:15:01Z</time>
      </trkpt>
      <trkpt lat="43.76413" lon="7.20562">
        <ele>74</ele>
        <time>1990-12-10T11:15:23Z</time>
      </trkpt>
      <trkpt lat="43.76402" lon="7.2056">
        <ele>74</ele>
        <time>1990-12-10T11:16:36Z</time>
      </trkpt>
      <trkpt lat="43.7639" lon="7.20572">
        <ele>75</ele>
        <time>1990-12-10T11:17:52Z</time>
      </trkpt>
      <trkpt lat="43.76342" lon="7.20632">
        <ele>78</ele>
        <time>1990-12-10T11:18:21Z</time>
      </trkpt>
      <trkpt lat="43.76282" lon="7.20652">
        <ele>76</ele>
        <time>1990-12-10T11:18:38Z</time>
      </trkpt>
      <trkpt lat="43.7632" lon="7.20695">
        <ele>77</ele>
        <time>1990-12-10T11:18:56Z</time>
      </trkpt>
      <trkpt lat="43.76378" lon="7.20772">
        <ele>78</ele>
        <time>1990-12-10T11:19:21Z</time>
      </trkpt>
      <trkpt lat="43.76437" lon="7.20827">
        <ele>79</ele>
        <time>1990-12-10T11:19:43Z</time>
      </trkpt>
      <trkpt lat="43.7646" lon="7.20842">
        <ele>79</ele>
        <time>1990-12-10T11:19:50Z</time>
      </trkpt>
      <trkpt lat="43.76497" lon="7.20865">
        <ele>79</ele>
        <time>1990-12-10T11:20:04Z</time>
      </trkpt>
      <trkpt lat="43.76592" lon="7.20873">
        <ele>79</ele>
        <time>1990-12-10T11:20:32Z</time>
      </trkpt>
      <trkpt lat="43.76723" lon="7.20903">
        <ele>75</ele>
        <time>1990-12-10T11:20:58Z</time>
      </trkpt>
      <trkpt lat="43.76755" lon="7.20918">
        <ele>75</ele>
        <time>1990-12-10T11:21:06Z</time>
      </trkpt>
      <trkpt lat="43.7689" lon="7.21063">
        <ele>75</ele>
        <time>1990-12-10T11:21:43Z</time>
      </trkpt>
      <trkpt lat="43.77013" lon="7.21192">
        <ele>76</ele>
        <time>1990-12-10T11:22:16Z</time>
      </trkpt>
      <trkpt lat="43.77148" lon="7.21332">
        <ele>78</ele>
        <time>1990-12-10T11:22:53Z</time>
      </trkpt>
      <trkpt lat="43.77172" lon="7.2136">
        <ele>78</ele>
        <time>1990-12-10T11:23:00Z</time>
      </trkpt>
      <trkpt lat="43.77167" lon="7.21382">
        <ele>78</ele>
        <time>1990-12-10T11:23:04Z</time>
      </trkpt>
      <trkpt lat="43.77123" lon="7.21523">
        <ele>80</ele>
        <time>1990-12-10T11:23:33Z</time>
      </trkpt>
      <trkpt lat="43.77165" lon="7.21667">
        <ele>82</ele>
        <time>1990-12-10T11:24:03Z</time>
      </trkpt>
      <trkpt lat="43.7718" lon="7.21802">
        <ele>87</ele>
        <time>1990-12-10T11:24:35Z</time>
      </trkpt>
      <trkpt lat="43.77177" lon="7.21927">
        <ele>92</ele>
        <time>1990-12-10T11:25:07Z</time>
      </trkpt>
      <trkpt lat="43.77193" lon="7.2205">
        <ele>97</ele>
        <time>1990-12-10T11:25:39Z</time>
      </trkpt>
      <trkpt lat="43.77222" lon="7.2219">
        <ele>101</ele>
        <time>1990-12-10T11:26:15Z</time>
      </trkpt>
      <trkpt lat="43.77198" lon="7.22292">
        <ele>105</ele>
        <time>1990-12-10T11:26:42Z</time>
      </trkpt>
      <trkpt lat="43.77218" lon="7.22365">
        <ele>110</ele>
        <time>1990-12-10T11:27:09Z</time>
      </trkpt>
      <trkpt lat="43.77253" lon="7.22377">
        <ele>115</ele>
        <time>1990-12-10T11:27:32Z</time>
      </trkpt>
      <trkpt lat="43.77263" lon="7.22382">
        <ele>117</ele>
        <time>1990-12-10T11:27:38Z</time>
      </trkpt>
      <trkpt lat="43.77287" lon="7.224">
        <ele>122</ele>
        <time>1990-12-10T11:27:56Z</time>
      </trkpt>
      <trkpt lat="43.77293" lon="7.22405">
        <ele>123</ele>
        <time>1990-12-10T11:28:01Z</time>
      </trkpt>
      <trkpt lat="43.77328" lon="7.22423">
        <ele>128</ele>
        <time>1990-12-10T11:28:26Z</time>
      </trkpt>
      <trkpt lat="43.77358" lon="7.22437">
        <ele>133</ele>
        <time>1990-12-10T11:28:47Z</time>
      </trkpt>
      <trkpt lat="43.7732" lon="7.22437">
        <ele>137</ele>
        <time>1990-12-10T11:29:07Z</time>
      </trkpt>
      <trkpt lat="43.77293" lon="7.22438">
        <ele>141</ele>
        <time>1990-12-10T11:29:25Z</time>
      </trkpt>
      <trkpt lat="43.77282" lon="7.22475">
        <ele>146</ele>
        <time>1990-12-10T11:29:49Z</time>
      </trkpt>
      <trkpt lat="43.77305" lon="7.22463">
        <ele>149</ele>
        <time>1990-12-10T11:30:06Z</time>
      </trkpt>
      <trkpt lat="43.77313" lon="7.22463">
        <ele>151</ele>
        <time>1990-12-10T11:30:11Z</time>
      </trkpt>
      <trkpt lat="43.77305" lon="7.22487">
        <ele>155</ele>
        <time>1990-12-10T11:30:29Z</time>
      </trkpt>
      <trkpt lat="43.77305" lon="7.2251">
        <ele>159</ele>
        <time>1990-12-10T11:30:48Z</time>
      </trkpt>
      <trkpt lat="43.77317" lon="7.22507">
        <ele>161</ele>
        <time>1990-12-10T11:30:55Z</time>
      </trkpt>
      <trkpt lat="43.77307" lon="7.2253">
        <ele>165</ele>
        <time>1990-12-10T11:31:18Z</time>
      </trkpt>
      <trkpt lat="43.77298" lon="7.22542">
        <ele>167</ele>
        <time>1990-12-10T11:31:26Z</time>
      </trkpt>
      <trkpt lat="43.7733" lon="7.22555">
        <ele>172</ele>
        <time>1990-12-10T11:31:54Z</time>
      </trkpt>
      <trkpt lat="43.77315" lon="7.2257">
        <ele>175</ele>
        <time>1990-12-10T11:32:08Z</time>
      </trkpt>
      <trkpt lat="43.77308" lon="7.22595">
        <ele>178</ele>
        <time>1990-12-10T11:33:31Z</time>
      </trkpt>
      <trkpt lat="43.77293" lon="7.22587">
        <ele>177</ele>
        <time>1990-12-10T11:37:26Z</time>
      </trkpt>
      <trkpt lat="43.77268" lon="7.2261">
        <ele>179</ele>
        <time>1990-12-10T11:38:48Z</time>
      </trkpt>
      <trkpt lat="43.77245" lon="7.22638">
        <ele>184</ele>
        <time>1990-12-10T11:39:12Z</time>
      </trkpt>
      <trkpt lat="43.7724" lon="7.22657">
        <ele>187</ele>
        <time>1990-12-10T11:39:23Z</time>
      </trkpt>
      <trkpt lat="43.77227" lon="7.22668">
        <ele>189</ele>
        <time>1990-12-10T11:39:39Z</time>
      </trkpt>
      <trkpt lat="43.77185" lon="7.22662">
        <ele>193</ele>
        <time>1990-12-10T11:40:06Z</time>
      </trkpt>
      <trkpt lat="43.77185" lon="7.2264">
        <ele>195</ele>
        <time>1990-12-10T11:40:16Z</time>
      </trkpt>
      <trkpt lat="43.77192" lon="7.22593">
        <ele>198</ele>
        <time>1990-12-10T11:40:37Z</time>
      </trkpt>
      <trkpt lat="43.77177" lon="7.22622">
        <ele>202</ele>
        <time>1990-12-10T11:40:58Z</time>
      </trkpt>
      <trkpt lat="43.77157" lon="7.22665">
        <ele>204</ele>
        <time>1990-12-10T11:41:21Z</time>
      </trkpt>
      <trkpt lat="43.77175" lon="7.22707">
        <ele>210</ele>
        <time>1990-12-10T11:41:43Z</time>
      </trkpt>
      <trkpt lat="43.77215" lon="7.22728">
        <ele>216</ele>
        <time>1990-12-10T11:42:09Z</time>
      </trkpt>
      <trkpt lat="43.77258" lon="7.22735">
        <ele>221</ele>
        <time>1990-12-10T11:42:38Z</time>
      </trkpt>
      <trkpt lat="43.77272" lon="7.2277">
        <ele>226</ele>
        <time>1990-12-10T11:43:04Z</time>
      </trkpt>
      <trkpt lat="43.77245" lon="7.22823">
        <ele>232</ele>
        <time>1990-12-10T11:43:34Z</time>
      </trkpt>
      <trkpt lat="43.77242" lon="7.22785">
        <ele>237</ele>
        <time>1990-12-10T11:43:56Z</time>
      </trkpt>
      <trkpt lat="43.77223" lon="7.22782">
        <ele>239</ele>
        <time>1990-12-10T11:44:07Z</time>
      </trkpt>
      <trkpt lat="43.7718" lon="7.22785">
        <ele>241</ele>
        <time>1990-12-10T11:44:28Z</time>
      </trkpt>
      <trkpt lat="43.77132" lon="7.22852">
        <ele>243</ele>
        <time>1990-12-10T11:44:53Z</time>
      </trkpt>
      <trkpt lat="43.7711" lon="7.22922">
        <ele>246</ele>
        <time>1990-12-10T11:45:19Z</time>
      </trkpt>
      <trkpt lat="43.77092" lon="7.22997">
        <ele>248</ele>
        <time>1990-12-10T11:45:43Z</time>
      </trkpt>
      <trkpt lat="43.77075" lon="7.23042">
        <ele>254</ele>
        <time>1990-12-10T11:46:08Z</time>
      </trkpt>
      <trkpt lat="43.77082" lon="7.2307">
        <ele>259</ele>
        <time>1990-12-10T11:46:37Z</time>
      </trkpt>
      <trkpt lat="43.77092" lon="7.231">
        <ele>263</ele>
        <time>1990-12-10T11:47:04Z</time>
      </trkpt>
      <trkpt lat="43.7707" lon="7.23142">
        <ele>269</ele>
        <time>1990-12-10T11:47:29Z</time>
      </trkpt>
      <trkpt lat="43.77053" lon="7.23155">
        <ele>273</ele>
        <time>1990-12-10T11:47:43Z</time>
      </trkpt>
      <trkpt lat="43.77048" lon="7.23162">
        <ele>275</ele>
        <time>1990-12-10T11:47:50Z</time>
      </trkpt>
      <trkpt lat="43.7705" lon="7.23222">
        <ele>278</ele>
        <time>1990-12-10T11:48:14Z</time>
      </trkpt>
      <trkpt lat="43.77053" lon="7.23248">
        <ele>282</ele>
        <time>1990-12-10T11:48:31Z</time>
      </trkpt>
      <trkpt lat="43.77045" lon="7.23285">
        <ele>287</ele>
        <time>1990-12-10T11:48:52Z</time>
      </trkpt>
      <trkpt lat="43.77035" lon="7.23315">
        <ele>291</ele>
        <time>1990-12-10T11:49:13Z</time>
      </trkpt>
      <trkpt lat="43.77035" lon="7.23323">
        <ele>292</ele>
        <time>1990-12-10T11:49:17Z</time>
      </trkpt>
      <trkpt lat="43.77025" lon="7.23325">
        <ele>294</ele>
        <time>1990-12-10T11:49:25Z</time>
      </trkpt>
      <trkpt lat="43.77015" lon="7.23308">
        <ele>296</ele>
        <time>1990-12-10T11:49:38Z</time>
      </trkpt>
      <trkpt lat="43.77" lon="7.23327">
        <ele>300</ele>
        <time>1990-12-10T11:49:56Z</time>
      </trkpt>
      <trkpt lat="43.77002" lon="7.23368">
        <ele>304</ele>
        <time>1990-12-10T11:50:16Z</time>
      </trkpt>
      <trkpt lat="43.77" lon="7.23393">
        <ele>307</ele>
        <time>1990-12-10T11:50:30Z</time>
      </trkpt>
      <trkpt lat="43.76997" lon="7.23407">
        <ele>309</ele>
        <time>1990-12-10T11:50:39Z</time>
      </trkpt>
      <trkpt lat="43.76998" lon="7.23447">
        <ele>313</ele>
        <time>1990-12-10T11:50:59Z</time>
      </trkpt>
      <trkpt lat="43.77002" lon="7.23493">
        <ele>319</ele>
        <time>1990-12-10T11:51:27Z</time>
      </trkpt>
      <trkpt lat="43.76998" lon="7.2351">
        <ele>322</ele>
        <time>1990-12-10T11:51:41Z</time>
      </trkpt>
      <trkpt lat="43.76973" lon="7.23483">
        <ele>326</ele>
        <time>1990-12-10T11:52:01Z</time>
      </trkpt>
      <trkpt lat="43.76963" lon="7.23477">
        <ele>328</ele>
        <time>1990-12-10T11:52:15Z</time>
      </trkpt>
      <trkpt lat="43.7697" lon="7.23513">
        <ele>334</ele>
        <time>1990-12-10T11:52:35Z</time>
      </trkpt>
      <trkpt lat="43.76998" lon="7.2356">
        <ele>340</ele>
        <time>1990-12-10T11:53:02Z</time>
      </trkpt>
      <trkpt lat="43.77035" lon="7.23595">
        <ele>345</ele>
        <time>1990-12-10T11:53:26Z</time>
      </trkpt>
      <trkpt lat="43.7708" lon="7.23597">
        <ele>352</ele>
        <time>1990-12-10T11:53:50Z</time>
      </trkpt>
      <trkpt lat="43.77087" lon="7.23608">
        <ele>354</ele>
        <time>1990-12-10T11:54:00Z</time>
      </trkpt>
      <trkpt lat="43.77052" lon="7.23617">
        <ele>357</ele>
        <time>1990-12-10T11:54:22Z</time>
      </trkpt>
      <trkpt lat="43.77008" lon="7.2363">
        <ele>361</ele>
        <time>1990-12-10T11:54:50Z</time>
      </trkpt>
      <trkpt lat="43.77007" lon="7.23638">
        <ele>363</ele>
        <time>1990-12-10T11:55:22Z</time>
      </trkpt>
      <trkpt lat="43.77037" lon="7.23633">
        <ele>366</ele>
        <time>1990-12-10T12:15:19Z</time>
      </trkpt>
      <trkpt lat="43.7707" lon="7.2363">
        <ele>370</ele>
        <time>1990-12-10T12:15:39Z</time>
      </trkpt>
      <trkpt lat="43.77103" lon="7.23647">
        <ele>375</ele>
        <time>1990-12-10T12:16:07Z</time>
      </trkpt>
      <trkpt lat="43.7714" lon="7.23652">
        <ele>379</ele>
        <time>1990-12-10T12:16:34Z</time>
      </trkpt>
      <trkpt lat="43.77187" lon="7.2369">
        <ele>378</ele>
        <time>1990-12-10T12:17:00Z</time>
      </trkpt>
      <trkpt lat="43.77243" lon="7.23697">
        <ele>382</ele>
        <time>1990-12-10T12:17:27Z</time>
      </trkpt>
      <trkpt lat="43.77288" lon="7.23717">
        <ele>386</ele>
        <time>1990-12-10T12:17:56Z</time>
      </trkpt>
      <trkpt lat="43.77322" lon="7.23697">
        <ele>391</ele>
        <time>1990-12-10T12:18:23Z</time>
      </trkpt>
      <trkpt lat="43.7736" lon="7.237">
        <ele>397</ele>
        <time>1990-12-10T12:18:52Z</time>
      </trkpt>
      <trkpt lat="43.77397" lon="7.23723">
        <ele>400</ele>
        <time>1990-12-10T12:19:18Z</time>
      </trkpt>
      <trkpt lat="43.77403" lon="7.23738">
        <ele>400</ele>
        <time>1990-12-10T12:19:37Z</time>
      </trkpt>
      <trkpt lat="43.77435" lon="7.23742">
        <ele>405</ele>
        <time>1990-12-10T12:19:57Z</time>
      </trkpt>
      <trkpt lat="43.77458" lon="7.23735">
        <ele>408</ele>
        <time>1990-12-10T12:20:10Z</time>
      </trkpt>
      <trkpt lat="43.775" lon="7.23753">
        <ele>414</ele>
        <time>1990-12-10T12:20:40Z</time>
      </trkpt>
      <trkpt lat="43.77527" lon="7.23783">
        <ele>419</ele>
        <time>1990-12-10T12:21:02Z</time>
      </trkpt>
      <trkpt lat="43.77563" lon="7.23808">
        <ele>421</ele>
        <time>1990-12-10T12:21:23Z</time>
      </trkpt>
      <trkpt lat="43.7763" lon="7.23812">
        <ele>423</ele>
        <time>1990-12-10T12:21:46Z</time>
      </trkpt>
      <trkpt lat="43.77667" lon="7.2381">
        <ele>429</ele>
        <time>1990-12-10T12:22:08Z</time>
      </trkpt>
      <trkpt lat="43.777" lon="7.23805">
        <ele>433</ele>
        <time>1990-12-10T12:22:31Z</time>
      </trkpt>
      <trkpt lat="43.7773" lon="7.2382">
        <ele>432</ele>
        <time>1990-12-10T12:22:47Z</time>
      </trkpt>
      <trkpt lat="43.77788" lon="7.2391">
        <ele>426</ele>
        <time>1990-12-10T12:23:00Z</time>
      </trkpt>
      <trkpt lat="43.77845" lon="7.23942">
        <ele>428</ele>
        <time>1990-12-10T12:23:17Z</time>
      </trkpt>
      <trkpt lat="43.77913" lon="7.23965">
        <ele>432</ele>
        <time>1990-12-10T12:23:47Z</time>
      </trkpt>
      <trkpt lat="43.77985" lon="7.2399">
        <ele>438</ele>
        <time>1990-12-10T12:24:20Z</time>
      </trkpt>
      <trkpt lat="43.78042" lon="7.24002">
        <ele>443</ele>
        <time>1990-12-10T12:24:47Z</time>
      </trkpt>
      <trkpt lat="43.78083" lon="7.24038">
        <ele>448</ele>
        <time>1990-12-10T12:25:13Z</time>
      </trkpt>
      <trkpt lat="43.7814" lon="7.24048">
        <ele>452</ele>
        <time>1990-12-10T12:25:38Z</time>
      </trkpt>
      <trkpt lat="43.78208" lon="7.24047">
        <ele>458</ele>
        <time>1990-12-10T12:26:06Z</time>
      </trkpt>
      <trkpt lat="43.7827" lon="7.2407">
        <ele>462</ele>
        <time>1990-12-10T12:26:32Z</time>
      </trkpt>
      <trkpt lat="43.7829" lon="7.2411">
        <ele>467</ele>
        <time>1990-12-10T12:26:50Z</time>
      </trkpt>
      <trkpt lat="43.78295" lon="7.24117">
        <ele>468</ele>
        <time>1990-12-10T12:26:53Z</time>
      </trkpt>
      <trkpt lat="43.78313" lon="7.24148">
        <ele>475</ele>
        <time>1990-12-10T12:27:10Z</time>
      </trkpt>
      <trkpt lat="43.78333" lon="7.24192">
        <ele>479</ele>
        <time>1990-12-10T12:27:27Z</time>
      </trkpt>
      <trkpt lat="43.78368" lon="7.24252">
        <ele>485</ele>
        <time>1990-12-10T12:27:53Z</time>
      </trkpt>
      <trkpt lat="43.78385" lon="7.24303">
        <ele>492</ele>
        <time>1990-12-10T12:28:14Z</time>
      </trkpt>
      <trkpt lat="43.78398" lon="7.24323">
        <ele>496</ele>
        <time>1990-12-10T12:28:21Z</time>
      </trkpt>
      <trkpt lat="43.7842" lon="7.24342">
        <ele>496</ele>
        <time>1990-12-10T12:28:33Z</time>
      </trkpt>
      <trkpt lat="43.78427" lon="7.24365">
        <ele>495</ele>
        <time>1990-12-10T12:28:57Z</time>
      </trkpt>
      <trkpt lat="43.78435" lon="7.24338">
        <ele>495</ele>
        <time>1990-12-10T12:29:15Z</time>
      </trkpt>
      <trkpt lat="43.78427" lon="7.24355">
        <ele>496</ele>
        <time>1990-12-10T12:29:26Z</time>
      </trkpt>
      <trkpt lat="43.78432" lon="7.24348">
        <ele>496</ele>
        <time>1990-12-10T12:29:32Z</time>
      </trkpt>
      <trkpt lat="43.78452" lon="7.24348">
        <ele>496</ele>
        <time>1990-12-10T12:29:59Z</time>
      </trkpt>
      <trkpt lat="43.78447" lon="7.24343">
        <ele>499</ele>
        <time>1990-12-10T12:38:37Z</time>
      </trkpt>
      <trkpt lat="43.78433" lon="7.2437">
        <ele>499</ele>
        <time>1990-12-10T12:38:54Z</time>
      </trkpt>
      <trkpt lat="43.78472" lon="7.24422">
        <ele>496</ele>
        <time>1990-12-10T12:39:11Z</time>
      </trkpt>
      <trkpt lat="43.78487" lon="7.24482">
        <ele>495</ele>
        <time>1990-12-10T12:39:24Z</time>
      </trkpt>
      <trkpt lat="43.7845" lon="7.24555">
        <ele>499</ele>
        <time>1990-12-10T12:39:52Z</time>
      </trkpt>
      <trkpt lat="43.78442" lon="7.24625">
        <ele>502</ele>
        <time>1990-12-10T12:40:16Z</time>
      </trkpt>
      <trkpt lat="43.78417" lon="7.24662">
        <ele>505</ele>
        <time>1990-12-10T12:40:33Z</time>
      </trkpt>
      <trkpt lat="43.78405" lon="7.24678">
        <ele>506</ele>
        <time>1990-12-10T12:40:43Z</time>
      </trkpt>
      <trkpt lat="43.7839" lon="7.24728">
        <ele>509</ele>
        <time>1990-12-10T12:41:04Z</time>
      </trkpt>
      <trkpt lat="43.78387" lon="7.2475">
        <ele>510</ele>
        <time>1990-12-10T12:41:14Z</time>
      </trkpt>
      <trkpt lat="43.78375" lon="7.24803">
        <ele>512</ele>
        <time>1990-12-10T12:41:34Z</time>
      </trkpt>
      <trkpt lat="43.78362" lon="7.24873">
        <ele>514</ele>
        <time>1990-12-10T12:41:56Z</time>
      </trkpt>
      <trkpt lat="43.7835" lon="7.2497">
        <ele>516</ele>
        <time>1990-12-10T12:42:27Z</time>
      </trkpt>
      <trkpt lat="43.78327" lon="7.25055">
        <ele>520</ele>
        <time>1990-12-10T12:42:52Z</time>
      </trkpt>
      <trkpt lat="43.7828" lon="7.25138">
        <ele>524</ele>
        <time>1990-12-10T12:43:24Z</time>
      </trkpt>
      <trkpt lat="43.78252" lon="7.25188">
        <ele>526</ele>
        <time>1990-12-10T12:43:43Z</time>
      </trkpt>
      <trkpt lat="43.78225" lon="7.25232">
        <ele>528</ele>
        <time>1990-12-10T12:43:59Z</time>
      </trkpt>
      <trkpt lat="43.78197" lon="7.25285">
        <ele>529</ele>
        <time>1990-12-10T12:44:19Z</time>
      </trkpt>
      <trkpt lat="43.78163" lon="7.25253">
        <ele>532</ele>
        <time>1990-12-10T12:44:38Z</time>
      </trkpt>
      <trkpt lat="43.78152" lon="7.25237">
        <ele>536</ele>
        <time>1990-12-10T12:44:52Z</time>
      </trkpt>
      <trkpt lat="43.78123" lon="7.25265">
        <ele>542</ele>
        <time>1990-12-10T12:45:18Z</time>
      </trkpt>
      <trkpt lat="43.78095" lon="7.25288">
        <ele>546</ele>
        <time>1990-12-10T12:45:41Z</time>
      </trkpt>
      <trkpt lat="43.7806" lon="7.2531">
        <ele>550</ele>
        <time>1990-12-10T12:46:04Z</time>
      </trkpt>
      <trkpt lat="43.78035" lon="7.25332">
        <ele>557</ele>
        <time>1990-12-10T12:46:25Z</time>
      </trkpt>
      <trkpt lat="43.78023" lon="7.25342">
        <ele>560</ele>
        <time>1990-12-10T12:46:36Z</time>
      </trkpt>
      <trkpt lat="43.78002" lon="7.25372">
        <ele>563</ele>
        <time>1990-12-10T12:46:55Z</time>
      </trkpt>
      <trkpt lat="43.77967" lon="7.25412">
        <ele>564</ele>
        <time>1990-12-10T12:47:19Z</time>
      </trkpt>
      <trkpt lat="43.7794" lon="7.25432">
        <ele>568</ele>
        <time>1990-12-10T12:47:42Z</time>
      </trkpt>
      <trkpt lat="43.77932" lon="7.25478">
        <ele>571</ele>
        <time>1990-12-10T12:47:58Z</time>
      </trkpt>
      <trkpt lat="43.7792" lon="7.25497">
        <ele>575</ele>
        <time>1990-12-10T12:48:11Z</time>
      </trkpt>
      <trkpt lat="43.779" lon="7.25522">
        <ele>581</ele>
        <time>1990-12-10T12:48:33Z</time>
      </trkpt>
      <trkpt lat="43.77885" lon="7.25553">
        <ele>587</ele>
        <time>1990-12-10T12:49:00Z</time>
      </trkpt>
      <trkpt lat="43.7788" lon="7.25577">
        <ele>592</ele>
        <time>1990-12-10T12:49:34Z</time>
      </trkpt>
      <trkpt lat="43.77875" lon="7.25587">
        <ele>596</ele>
        <time>1990-12-10T12:50:03Z</time>
      </trkpt>
      <trkpt lat="43.77877" lon="7.25597">
        <ele>600</ele>
        <time>1990-12-10T12:53:56Z</time>
      </trkpt>
      <trkpt lat="43.77865" lon="7.25593">
        <ele>605</ele>
        <time>1990-12-10T12:54:26Z</time>
      </trkpt>
      <trkpt lat="43.77865" lon="7.25623">
        <ele>610</ele>
        <time>1990-12-10T12:55:02Z</time>
      </trkpt>
      <trkpt lat="43.77858" lon="7.25628">
        <ele>616</ele>
        <time>1990-12-10T12:55:38Z</time>
      </trkpt>
      <trkpt lat="43.77838" lon="7.25627">
        <ele>620</ele>
        <time>1990-12-10T12:56:08Z</time>
      </trkpt>
      <trkpt lat="43.77823" lon="7.2562">
        <ele>626</ele>
        <time>1990-12-10T12:56:42Z</time>
      </trkpt>
      <trkpt lat="43.77803" lon="7.25622">
        <ele>633</ele>
        <time>1990-12-10T12:57:18Z</time>
      </trkpt>
      <trkpt lat="43.7779" lon="7.2562">
        <ele>638</ele>
        <time>1990-12-10T12:57:53Z</time>
      </trkpt>
      <trkpt lat="43.77785" lon="7.25627">
        <ele>643</ele>
        <time>1990-12-10T12:58:28Z</time>
      </trkpt>
      <trkpt lat="43.77772" lon="7.25637">
        <ele>649</ele>
        <time>1990-12-10T12:59:03Z</time>
      </trkpt>
      <trkpt lat="43.77757" lon="7.25653">
        <ele>655</ele>
        <time>1990-12-10T12:59:39Z</time>
      </trkpt>
      <trkpt lat="43.77747" lon="7.25665">
        <ele>660</ele>
        <time>1990-12-10T13:00:01Z</time>
      </trkpt>
      <trkpt lat="43.77747" lon="7.25668">
        <ele>663</ele>
        <time>1990-12-10T13:03:53Z</time>
      </trkpt>
      <trkpt lat="43.77738" lon="7.2569">
        <ele>668</ele>
        <time>1990-12-10T13:04:44Z</time>
      </trkpt>
      <trkpt lat="43.77728" lon="7.25725">
        <ele>674</ele>
        <time>1990-12-10T13:05:27Z</time>
      </trkpt>
      <trkpt lat="43.77727" lon="7.2576">
        <ele>677</ele>
        <time>1990-12-10T13:06:01Z</time>
      </trkpt>
      <trkpt lat="43.77723" lon="7.25782">
        <ele>680</ele>
        <time>1990-12-10T13:06:36Z</time>
      </trkpt>
      <trkpt lat="43.77715" lon="7.25798">
        <ele>683</ele>
        <time>1990-12-10T13:06:48Z</time>
      </trkpt>
      <trkpt lat="43.77702" lon="7.25825">
        <ele>685</ele>
        <time>1990-12-10T13:07:06Z</time>
      </trkpt>
      <trkpt lat="43.77675" lon="7.2586">
        <ele>690</ele>
        <time>1990-12-10T13:07:37Z</time>
      </trkpt>
      <trkpt lat="43.77662" lon="7.25875">
        <ele>693</ele>
        <time>1990-12-10T13:07:53Z</time>
      </trkpt>
      <trkpt lat="43.77643" lon="7.25908">
        <ele>699</ele>
        <time>1990-12-10T13:08:23Z</time>
      </trkpt>
      <trkpt lat="43.77628" lon="7.25928">
        <ele>703</ele>
        <time>1990-12-10T13:08:42Z</time>
      </trkpt>
      <trkpt lat="43.7761" lon="7.25948">
        <ele>707</ele>
        <time>1990-12-10T13:09:06Z</time>
      </trkpt>
      <trkpt lat="43.77595" lon="7.25967">
        <ele>712</ele>
        <time>1990-12-10T13:09:25Z</time>
      </trkpt>
      <trkpt lat="43.77587" lon="7.25975">
        <ele>714</ele>
        <time>1990-12-10T13:09:35Z</time>
      </trkpt>
      <trkpt lat="43.77577" lon="7.25987">
        <ele>716</ele>
        <time>1990-12-10T13:09:46Z</time>
      </trkpt>
      <trkpt lat="43.77552" lon="7.26005">
        <ele>718</ele>
        <time>1990-12-10T13:10:07Z</time>
      </trkpt>
      <trkpt lat="43.77532" lon="7.26027">
        <ele>721</ele>
        <time>1990-12-10T13:10:27Z</time>
      </trkpt>
      <trkpt lat="43.77517" lon="7.26043">
        <ele>723</ele>
        <time>1990-12-10T13:11:48Z</time>
      </trkpt>
      <trkpt lat="43.77525" lon="7.26017">
        <ele>723</ele>
        <time>1990-12-10T13:17:45Z</time>
      </trkpt>
      <trkpt lat="43.7753" lon="7.26003">
        <ele>724</ele>
        <time>1990-12-10T13:17:51Z</time>
      </trkpt>
      <trkpt lat="43.77563" lon="7.25928">
        <ele>725</ele>
        <time>1990-12-10T13:18:19Z</time>
      </trkpt>
      <trkpt lat="43.77572" lon="7.25905">
        <ele>725</ele>
        <time>1990-12-10T13:18:29Z</time>
      </trkpt>
      <trkpt lat="43.77578" lon="7.25847">
        <ele>726</ele>
        <time>1990-12-10T13:18:50Z</time>
      </trkpt>
      <trkpt lat="43.77575" lon="7.25808">
        <ele>728</ele>
        <time>1990-12-10T13:19:05Z</time>
      </trkpt>
      <trkpt lat="43.77553" lon="7.25792">
        <ele>730</ele>
        <time>1990-12-10T13:19:23Z</time>
      </trkpt>
      <trkpt lat="43.77525" lon="7.25807">
        <ele>733</ele>
        <time>1990-12-10T13:19:41Z</time>
      </trkpt>
      <trkpt lat="43.7747" lon="7.25827">
        <ele>733</ele>
        <time>1990-12-10T13:20:06Z</time>
      </trkpt>
      <trkpt lat="43.77417" lon="7.25867">
        <ele>734</ele>
        <time>1990-12-10T13:20:39Z</time>
      </trkpt>
      <trkpt lat="43.7739" lon="7.2586">
        <ele>731</ele>
        <time>1990-12-10T13:21:46Z</time>
      </trkpt>
      <trkpt lat="43.77358" lon="7.25873">
        <ele>725</ele>
        <time>1990-12-10T13:22:05Z</time>
      </trkpt>
      <trkpt lat="43.77338" lon="7.25882">
        <ele>720</ele>
        <time>1990-12-10T13:22:29Z</time>
      </trkpt>
      <trkpt lat="43.77308" lon="7.25905">
        <ele>716</ele>
        <time>1990-12-10T13:22:39Z</time>
      </trkpt>
      <trkpt lat="43.77275" lon="7.25923">
        <ele>712</ele>
        <time>1990-12-10T13:22:49Z</time>
      </trkpt>
      <trkpt lat="43.77208" lon="7.25942">
        <ele>708</ele>
        <time>1990-12-10T13:23:10Z</time>
      </trkpt>
      <trkpt lat="43.77198" lon="7.25942">
        <ele>708</ele>
        <time>1990-12-10T13:23:26Z</time>
      </trkpt>
      <trkpt lat="43.77167" lon="7.25918">
        <ele>710</ele>
        <time>1990-12-10T13:23:51Z</time>
      </trkpt>
      <trkpt lat="43.77133" lon="7.25912">
        <ele>712</ele>
        <time>1990-12-10T13:24:16Z</time>
      </trkpt>
      <trkpt lat="43.77115" lon="7.25917">
        <ele>713</ele>
        <time>1990-12-10T13:24:30Z</time>
      </trkpt>
      <trkpt lat="43.77102" lon="7.2592">
        <ele>714</ele>
        <time>1990-12-10T13:24:51Z</time>
      </trkpt>
      <trkpt lat="43.77113" lon="7.25917">
        <ele>713</ele>
        <time>1990-12-10T13:26:22Z</time>
      </trkpt>
      <trkpt lat="43.7713" lon="7.25913">
        <ele>712</ele>
        <time>1990-12-10T13:26:26Z</time>
      </trkpt>
      <trkpt lat="43.77197" lon="7.2594">
        <ele>708</ele>
        <time>1990-12-10T13:26:41Z</time>
      </trkpt>
      <trkpt lat="43.7723" lon="7.25943">
        <ele>710</ele>
        <time>1990-12-10T13:27:02Z</time>
      </trkpt>
      <trkpt lat="43.77245" lon="7.25943">
        <ele>711</ele>
        <time>1990-12-10T13:28:10Z</time>
      </trkpt>
      <trkpt lat="43.77192" lon="7.25933">
        <ele>709</ele>
        <time>1990-12-10T13:28:31Z</time>
      </trkpt>
      <trkpt lat="43.77148" lon="7.25912">
        <ele>712</ele>
        <time>1990-12-10T13:29:04Z</time>
      </trkpt>
      <trkpt lat="43.77087" lon="7.25918">
        <ele>716</ele>
        <time>1990-12-10T13:29:36Z</time>
      </trkpt>
      <trkpt lat="43.77025" lon="7.25928">
        <ele>721</ele>
        <time>1990-12-10T13:30:08Z</time>
      </trkpt>
      <trkpt lat="43.76972" lon="7.25887">
        <ele>725</ele>
        <time>1990-12-10T13:30:38Z</time>
      </trkpt>
      <trkpt lat="43.76967" lon="7.25863">
        <ele>726</ele>
        <time>1990-12-10T13:30:47Z</time>
      </trkpt>
      <trkpt lat="43.76932" lon="7.25827">
        <ele>731</ele>
        <time>1990-12-10T13:31:15Z</time>
      </trkpt>
      <trkpt lat="43.76922" lon="7.25798">
        <ele>733</ele>
        <time>1990-12-10T13:31:29Z</time>
      </trkpt>
      <trkpt lat="43.76897" lon="7.2576">
        <ele>736</ele>
        <time>1990-12-10T13:31:52Z</time>
      </trkpt>
      <trkpt lat="43.7688" lon="7.25727">
        <ele>738</ele>
        <time>1990-12-10T13:32:12Z</time>
      </trkpt>
      <trkpt lat="43.76875" lon="7.25713">
        <ele>740</ele>
        <time>1990-12-10T13:32:20Z</time>
      </trkpt>
      <trkpt lat="43.7686" lon="7.25678">
        <ele>743</ele>
        <time>1990-12-10T13:32:38Z</time>
      </trkpt>
      <trkpt lat="43.76848" lon="7.25645">
        <ele>746</ele>
        <time>1990-12-10T13:33:00Z</time>
      </trkpt>
      <trkpt lat="43.76838" lon="7.25625">
        <ele>745</ele>
        <time>1990-12-10T13:34:04Z</time>
      </trkpt>
      <trkpt lat="43.7683" lon="7.25575">
        <ele>741</ele>
        <time>1990-12-10T13:34:51Z</time>
      </trkpt>
      <trkpt lat="43.76833" lon="7.2553">
        <ele>737</ele>
        <time>1990-12-10T13:34:58Z</time>
      </trkpt>
      <trkpt lat="43.76845" lon="7.25472">
        <ele>732</ele>
        <time>1990-12-10T13:35:08Z</time>
      </trkpt>
      <trkpt lat="43.76863" lon="7.25422">
        <ele>728</ele>
        <time>1990-12-10T13:35:17Z</time>
      </trkpt>
      <trkpt lat="43.76875" lon="7.25358">
        <ele>723</ele>
        <time>1990-12-10T13:35:29Z</time>
      </trkpt>
      <trkpt lat="43.76888" lon="7.25323">
        <ele>719</ele>
        <time>1990-12-10T13:35:38Z</time>
      </trkpt>
      <trkpt lat="43.76907" lon="7.25297">
        <ele>716</ele>
        <time>1990-12-10T13:35:45Z</time>
      </trkpt>
      <trkpt lat="43.76917" lon="7.25253">
        <ele>712</ele>
        <time>1990-12-10T13:35:52Z</time>
      </trkpt>
      <trkpt lat="43.76938" lon="7.25155">
        <ele>705</ele>
        <time>1990-12-10T13:36:07Z</time>
      </trkpt>
      <trkpt lat="43.7698" lon="7.2509">
        <ele>702</ele>
        <time>1990-12-10T13:36:27Z</time>
      </trkpt>
      <trkpt lat="43.76947" lon="7.25112">
        <ele>699</ele>
        <time>1990-12-10T13:36:41Z</time>
      </trkpt>
      <trkpt lat="43.76938" lon="7.25122">
        <ele>697</ele>
        <time>1990-12-10T13:36:55Z</time>
      </trkpt>
      <trkpt lat="43.76927" lon="7.2513">
        <ele>694</ele>
        <time>1990-12-10T13:37:51Z</time>
      </trkpt>
      <trkpt lat="43.76922" lon="7.2513">
        <ele>692</ele>
        <time>1990-12-10T13:38:01Z</time>
      </trkpt>
      <trkpt lat="43.76912" lon="7.25108">
        <ele>685</ele>
        <time>1990-12-10T13:38:12Z</time>
      </trkpt>
      <trkpt lat="43.76898" lon="7.25077">
        <ele>679</ele>
        <time>1990-12-10T13:38:28Z</time>
      </trkpt>
      <trkpt lat="43.769" lon="7.25075">
        <ele>679</ele>
        <time>1990-12-10T13:40:06Z</time>
      </trkpt>
      <trkpt lat="43.76868" lon="7.25048">
        <ele>677</ele>
        <time>1990-12-10T13:40:23Z</time>
      </trkpt>
      <trkpt lat="43.76838" lon="7.2505">
        <ele>673</ele>
        <time>1990-12-10T13:40:30Z</time>
      </trkpt>
      <trkpt lat="43.76815" lon="7.25045">
        <ele>671</ele>
        <time>1990-12-10T13:40:35Z</time>
      </trkpt>
      <trkpt lat="43.76758" lon="7.25045">
        <ele>667</ele>
        <time>1990-12-10T13:40:55Z</time>
      </trkpt>
      <trkpt lat="43.76733" lon="7.25057">
        <ele>663</ele>
        <time>1990-12-10T13:41:07Z</time>
      </trkpt>
      <trkpt lat="43.76692" lon="7.25047">
        <ele>658</ele>
        <time>1990-12-10T13:41:27Z</time>
      </trkpt>
      <trkpt lat="43.76667" lon="7.25088">
        <ele>653</ele>
        <time>1990-12-10T13:41:43Z</time>
      </trkpt>
      <trkpt lat="43.76602" lon="7.25102">
        <ele>647</ele>
        <time>1990-12-10T13:42:05Z</time>
      </trkpt>
      <trkpt lat="43.76547" lon="7.25125">
        <ele>640</ele>
        <time>1990-12-10T13:42:25Z</time>
      </trkpt>
      <trkpt lat="43.76495" lon="7.25112">
        <ele>634</ele>
        <time>1990-12-10T13:42:48Z</time>
      </trkpt>
      <trkpt lat="43.76468" lon="7.25115">
        <ele>632</ele>
        <time>1990-12-10T13:43:00Z</time>
      </trkpt>
      <trkpt lat="43.76448" lon="7.25118">
        <ele>629</ele>
        <time>1990-12-10T13:43:32Z</time>
      </trkpt>
      <trkpt lat="43.76425" lon="7.25132">
        <ele>627</ele>
        <time>1990-12-10T13:46:01Z</time>
      </trkpt>
      <trkpt lat="43.76403" lon="7.25138">
        <ele>624</ele>
        <time>1990-12-10T13:46:28Z</time>
      </trkpt>
      <trkpt lat="43.76387" lon="7.25148">
        <ele>621</ele>
        <time>1990-12-10T13:46:46Z</time>
      </trkpt>
      <trkpt lat="43.76362" lon="7.25177">
        <ele>619</ele>
        <time>1990-12-10T13:47:05Z</time>
      </trkpt>
      <trkpt lat="43.76338" lon="7.25202">
        <ele>617</ele>
        <time>1990-12-10T13:47:19Z</time>
      </trkpt>
      <trkpt lat="43.76318" lon="7.25198">
        <ele>613</ele>
        <time>1990-12-10T13:47:42Z</time>
      </trkpt>
      <trkpt lat="43.76275" lon="7.25203">
        <ele>608</ele>
        <time>1990-12-10T13:48:06Z</time>
      </trkpt>
      <trkpt lat="43.76243" lon="7.25212">
        <ele>605</ele>
        <time>1990-12-10T13:48:37Z</time>
      </trkpt>
      <trkpt lat="43.76213" lon="7.25213">
        <ele>603</ele>
        <time>1990-12-10T13:48:53Z</time>
      </trkpt>
      <trkpt lat="43.76185" lon="7.25227">
        <ele>600</ele>
        <time>1990-12-10T13:49:12Z</time>
      </trkpt>
      <trkpt lat="43.7617" lon="7.25233">
        <ele>600</ele>
        <time>1990-12-10T13:49:36Z</time>
      </trkpt>
      <trkpt lat="43.7616" lon="7.2524">
        <ele>599</ele>
        <time>1990-12-10T13:49:43Z</time>
      </trkpt>
      <trkpt lat="43.76138" lon="7.2525">
        <ele>595</ele>
        <time>1990-12-10T13:50:13Z</time>
      </trkpt>
      <trkpt lat="43.76118" lon="7.25263">
        <ele>592</ele>
        <time>1990-12-10T13:51:17Z</time>
      </trkpt>
      <trkpt lat="43.76095" lon="7.25282">
        <ele>588</ele>
        <time>1990-12-10T13:51:32Z</time>
      </trkpt>
      <trkpt lat="43.76052" lon="7.25298">
        <ele>583</ele>
        <time>1990-12-10T13:51:57Z</time>
      </trkpt>
      <trkpt lat="43.76038" lon="7.25307">
        <ele>580</ele>
        <time>1990-12-10T13:52:16Z</time>
      </trkpt>
      <trkpt lat="43.76017" lon="7.25312">
        <ele>577</ele>
        <time>1990-12-10T13:52:47Z</time>
      </trkpt>
      <trkpt lat="43.75997" lon="7.25325">
        <ele>575</ele>
        <time>1990-12-10T13:53:10Z</time>
      </trkpt>
      <trkpt lat="43.75977" lon="7.2534">
        <ele>574</ele>
        <time>1990-12-10T13:53:34Z</time>
      </trkpt>
      <trkpt lat="43.75932" lon="7.25368">
        <ele>569</ele>
        <time>1990-12-10T13:53:56Z</time>
      </trkpt>
      <trkpt lat="43.7589" lon="7.25403">
        <ele>566</ele>
        <time>1990-12-10T13:54:17Z</time>
      </trkpt>
      <trkpt lat="43.75862" lon="7.25428">
        <ele>565</ele>
        <time>1990-12-10T13:54:35Z</time>
      </trkpt>
      <trkpt lat="43.75842" lon="7.25433">
        <ele>561</ele>
        <time>1990-12-10T13:55:04Z</time>
      </trkpt>
      <trkpt lat="43.7581" lon="7.2545">
        <ele>556</ele>
        <time>1990-12-10T13:55:26Z</time>
      </trkpt>
      <trkpt lat="43.75788" lon="7.25467">
        <ele>552</ele>
        <time>1990-12-10T13:55:36Z</time>
      </trkpt>
      <trkpt lat="43.75767" lon="7.25483">
        <ele>550</ele>
        <time>1990-12-10T13:55:47Z</time>
      </trkpt>
      <trkpt lat="43.75738" lon="7.25497">
        <ele>547</ele>
        <time>1990-12-10T13:56:24Z</time>
      </trkpt>
      <trkpt lat="43.75712" lon="7.25512">
        <ele>545</ele>
        <time>1990-12-10T13:56:41Z</time>
      </trkpt>
      <trkpt lat="43.75678" lon="7.25527">
        <ele>542</ele>
        <time>1990-12-10T13:57:00Z</time>
      </trkpt>
      <trkpt lat="43.75653" lon="7.25537">
        <ele>538</ele>
        <time>1990-12-10T13:57:21Z</time>
      </trkpt>
      <trkpt lat="43.7564" lon="7.25545">
        <ele>537</ele>
        <time>1990-12-10T13:57:35Z</time>
      </trkpt>
      <trkpt lat="43.75632" lon="7.25553">
        <ele>536</ele>
        <time>1990-12-10T13:57:48Z</time>
      </trkpt>
      <trkpt lat="43.756" lon="7.2557">
        <ele>532</ele>
        <time>1990-12-10T13:58:07Z</time>
      </trkpt>
      <trkpt lat="43.75588" lon="7.25575">
        <ele>530</ele>
        <time>1990-12-10T13:58:19Z</time>
      </trkpt>
      <trkpt lat="43.75557" lon="7.2559">
        <ele>526</ele>
        <time>1990-12-10T13:58:45Z</time>
      </trkpt>
      <trkpt lat="43.75532" lon="7.25632">
        <ele>523</ele>
        <time>1990-12-10T13:59:07Z</time>
      </trkpt>
      <trkpt lat="43.75528" lon="7.25652">
        <ele>521</ele>
        <time>1990-12-10T13:59:24Z</time>
      </trkpt>
      <trkpt lat="43.75523" lon="7.25702">
        <ele>517</ele>
        <time>1990-12-10T13:59:41Z</time>
      </trkpt>
      <trkpt lat="43.75523" lon="7.25708">
        <ele>516</ele>
        <time>1990-12-10T13:59:53Z</time>
      </trkpt>
      <trkpt lat="43.75518" lon="7.25713">
        <ele>515</ele>
        <time>1990-12-10T14:00:14Z</time>
      </trkpt>
      <trkpt lat="43.75505" lon="7.2572">
        <ele>511</ele>
        <time>1990-12-10T14:00:22Z</time>
      </trkpt>
      <trkpt lat="43.7549" lon="7.25742">
        <ele>507</ele>
        <time>1990-12-10T14:00:32Z</time>
      </trkpt>
      <trkpt lat="43.75475" lon="7.25782">
        <ele>506</ele>
        <time>1990-12-10T14:02:38Z</time>
      </trkpt>
      <trkpt lat="43.7543" lon="7.25798">
        <ele>506</ele>
        <time>1990-12-10T14:03:01Z</time>
      </trkpt>
      <trkpt lat="43.7541" lon="7.25807">
        <ele>507</ele>
        <time>1990-12-10T14:03:13Z</time>
      </trkpt>
      <trkpt lat="43.75397" lon="7.25803">
        <ele>507</ele>
        <time>1990-12-10T14:03:48Z</time>
      </trkpt>
      <trkpt lat="43.75377" lon="7.25793">
        <ele>507</ele>
        <time>1990-12-10T14:04:14Z</time>
      </trkpt>
      <trkpt lat="43.75368" lon="7.25782">
        <ele>506</ele>
        <time>1990-12-10T14:04:32Z</time>
      </trkpt>
      <trkpt lat="43.75352" lon="7.25783">
        <ele>503</ele>
        <time>1990-12-10T14:04:42Z</time>
      </trkpt>
      <trkpt lat="43.75317" lon="7.25815">
        <ele>500</ele>
        <time>1990-12-10T14:04:58Z</time>
      </trkpt>
      <trkpt lat="43.75285" lon="7.25833">
        <ele>500</ele>
        <time>1990-12-10T14:05:16Z</time>
      </trkpt>
      <trkpt lat="43.75262" lon="7.25848">
        <ele>500</ele>
        <time>1990-12-10T14:05:32Z</time>
      </trkpt>
      <trkpt lat="43.75227" lon="7.25857">
        <ele>497</ele>
        <time>1990-12-10T14:05:49Z</time>
      </trkpt>
      <trkpt lat="43.75195" lon="7.25867">
        <ele>495</ele>
        <time>1990-12-10T14:05:58Z</time>
      </trkpt>
      <trkpt lat="43.75163" lon="7.25873">
        <ele>493</ele>
        <time>1990-12-10T14:06:11Z</time>
      </trkpt>
      <trkpt lat="43.75133" lon="7.25872">
        <ele>489</ele>
        <time>1990-12-10T14:06:25Z</time>
      </trkpt>
      <trkpt lat="43.75092" lon="7.25877">
        <ele>488</ele>
        <time>1990-12-10T14:06:36Z</time>
      </trkpt>
      <trkpt lat="43.75047" lon="7.2586">
        <ele>484</ele>
        <time>1990-12-10T14:06:53Z</time>
      </trkpt>
      <trkpt lat="43.75023" lon="7.25858">
        <ele>483</ele>
        <time>1990-12-10T14:07:08Z</time>
      </trkpt>
      <trkpt lat="43.74998" lon="7.25852">
        <ele>480</ele>
        <time>1990-12-10T14:07:21Z</time>
      </trkpt>
      <trkpt lat="43.74965" lon="7.25843">
        <ele>478</ele>
        <time>1990-12-10T14:07:38Z</time>
      </trkpt>
      <trkpt lat="43.74903" lon="7.25842">
        <ele>479</ele>
        <time>1990-12-10T14:08:04Z</time>
      </trkpt>
      <trkpt lat="43.7485" lon="7.25843">
        <ele>478</ele>
        <time>1990-12-10T14:08:29Z</time>
      </trkpt>
      <trkpt lat="43.74802" lon="7.2584">
        <ele>477</ele>
        <time>1990-12-10T14:08:55Z</time>
      </trkpt>
      <trkpt lat="43.7477" lon="7.2585">
        <ele>475</ele>
        <time>1990-12-10T14:09:12Z</time>
      </trkpt>
      <trkpt lat="43.74745" lon="7.25863">
        <ele>474</ele>
        <time>1990-12-10T14:09:26Z</time>
      </trkpt>
      <trkpt lat="43.74722" lon="7.25873">
        <ele>470</ele>
        <time>1990-12-10T14:09:41Z</time>
      </trkpt>
      <trkpt lat="43.74708" lon="7.25882">
        <ele>468</ele>
        <time>1990-12-10T14:10:00Z</time>
      </trkpt>
      <trkpt lat="43.74703" lon="7.25892">
        <ele>465</ele>
        <time>1990-12-10T14:10:36Z</time>
      </trkpt>
      <trkpt lat="43.74683" lon="7.25893">
        <ele>460</ele>
        <time>1990-12-10T14:11:09Z</time>
      </trkpt>
      <trkpt lat="43.74682" lon="7.25883">
        <ele>457</ele>
        <time>1990-12-10T14:11:27Z</time>
      </trkpt>
      <trkpt lat="43.74655" lon="7.25848">
        <ele>454</ele>
        <time>1990-12-10T14:11:46Z</time>
      </trkpt>
      <trkpt lat="43.74653" lon="7.25845">
        <ele>453</ele>
        <time>1990-12-10T14:14:40Z</time>
      </trkpt>
      <trkpt lat="43.7462" lon="7.25867">
        <ele>452</ele>
        <time>1990-12-10T14:14:58Z</time>
      </trkpt>
      <trkpt lat="43.74603" lon="7.25875">
        <ele>451</ele>
        <time>1990-12-10T14:15:32Z</time>
      </trkpt>
      <trkpt lat="43.7458" lon="7.25872">
        <ele>445</ele>
        <time>1990-12-10T14:17:00Z</time>
      </trkpt>
      <trkpt lat="43.74578" lon="7.25867">
        <ele>444</ele>
        <time>1990-12-10T14:17:21Z</time>
      </trkpt>
      <trkpt lat="43.74577" lon="7.2585">
        <ele>442</ele>
        <time>1990-12-10T14:17:37Z</time>
      </trkpt>
      <trkpt lat="43.74568" lon="7.25837">
        <ele>437</ele>
        <time>1990-12-10T14:17:53Z</time>
      </trkpt>
      <trkpt lat="43.74567" lon="7.25827">
        <ele>435</ele>
        <time>1990-12-10T14:18:01Z</time>
      </trkpt>
      <trkpt lat="43.74563" lon="7.25807">
        <ele>430</ele>
        <time>1990-12-10T14:18:21Z</time>
      </trkpt>
      <trkpt lat="43.74562" lon="7.25787">
        <ele>426</ele>
        <time>1990-12-10T14:18:46Z</time>
      </trkpt>
      <trkpt lat="43.74557" lon="7.25772">
        <ele>422</ele>
        <time>1990-12-10T14:19:04Z</time>
      </trkpt>
      <trkpt lat="43.74545" lon="7.25742">
        <ele>415</ele>
        <time>1990-12-10T14:19:26Z</time>
      </trkpt>
      <trkpt lat="43.74537" lon="7.25725">
        <ele>412</ele>
        <time>1990-12-10T14:19:34Z</time>
      </trkpt>
      <trkpt lat="43.74528" lon="7.25717">
        <ele>409</ele>
        <time>1990-12-10T14:19:51Z</time>
      </trkpt>
      <trkpt lat="43.74522" lon="7.25715">
        <ele>408</ele>
        <time>1990-12-10T14:20:41Z</time>
      </trkpt>
      <trkpt lat="43.7452" lon="7.25712">
        <ele>406</ele>
        <time>1990-12-10T14:21:06Z</time>
      </trkpt>
      <trkpt lat="43.745" lon="7.25697">
        <ele>403</ele>
        <time>1990-12-10T14:21:19Z</time>
      </trkpt>
      <trkpt lat="43.74477" lon="7.2569">
        <ele>401</ele>
        <time>1990-12-10T14:21:34Z</time>
      </trkpt>
      <trkpt lat="43.74453" lon="7.25682">
        <ele>398</ele>
        <time>1990-12-10T14:21:50Z</time>
      </trkpt>
      <trkpt lat="43.74417" lon="7.25665">
        <ele>394</ele>
        <time>1990-12-10T14:22:06Z</time>
      </trkpt>
      <trkpt lat="43.744" lon="7.2564">
        <ele>393</ele>
        <time>1990-12-10T14:22:16Z</time>
      </trkpt>
      <trkpt lat="43.74348" lon="7.25643">
        <ele>389</ele>
        <time>1990-12-10T14:22:37Z</time>
      </trkpt>
      <trkpt lat="43.74328" lon="7.25627">
        <ele>388</ele>
        <time>1990-12-10T14:22:50Z</time>
      </trkpt>
      <trkpt lat="43.74293" lon="7.25612">
        <ele>386</ele>
        <time>1990-12-10T14:23:07Z</time>
      </trkpt>
      <trkpt lat="43.74268" lon="7.25633">
        <ele>384</ele>
        <time>1990-12-10T14:23:37Z</time>
      </trkpt>
      <trkpt lat="43.74238" lon="7.25658">
        <ele>382</ele>
        <time>1990-12-10T14:24:20Z</time>
      </trkpt>
      <trkpt lat="43.74207" lon="7.25708">
        <ele>376</ele>
        <time>1990-12-10T14:24:36Z</time>
      </trkpt>
      <trkpt lat="43.74193" lon="7.2574">
        <ele>372</ele>
        <time>1990-12-10T14:24:56Z</time>
      </trkpt>
      <trkpt lat="43.74197" lon="7.25777">
        <ele>368</ele>
        <time>1990-12-10T14:29:50Z</time>
      </trkpt>
      <trkpt lat="43.74215" lon="7.25805">
        <ele>366</ele>
        <time>1990-12-10T14:29:57Z</time>
      </trkpt>
      <trkpt lat="43.7425" lon="7.2585">
        <ele>362</ele>
        <time>1990-12-10T14:30:08Z</time>
      </trkpt>
      <trkpt lat="43.74275" lon="7.25865">
        <ele>357</ele>
        <time>1990-12-10T14:30:16Z</time>
      </trkpt>
      <trkpt lat="43.74287" lon="7.25913">
        <ele>352</ele>
        <time>1990-12-10T14:30:30Z</time>
      </trkpt>
      <trkpt lat="43.74295" lon="7.25972">
        <ele>348</ele>
        <time>1990-12-10T14:30:40Z</time>
      </trkpt>
      <trkpt lat="43.7434" lon="7.26128">
        <ele>344</ele>
        <time>1990-12-10T14:31:06Z</time>
      </trkpt>
      <trkpt lat="43.74363" lon="7.26193">
        <ele>338</ele>
        <time>1990-12-10T14:31:18Z</time>
      </trkpt>
      <trkpt lat="43.7438" lon="7.26255">
        <ele>332</ele>
        <time>1990-12-10T14:31:29Z</time>
      </trkpt>
      <trkpt lat="43.74372" lon="7.26292">
        <ele>329</ele>
        <time>1990-12-10T14:31:35Z</time>
      </trkpt>
      <trkpt lat="43.74353" lon="7.26332">
        <ele>324</ele>
        <time>1990-12-10T14:31:49Z</time>
      </trkpt>
      <trkpt lat="43.74343" lon="7.26335">
        <ele>323</ele>
        <time>1990-12-10T14:32:13Z</time>
      </trkpt>
      <trkpt lat="43.74327" lon="7.26347">
        <ele>321</ele>
        <time>1990-12-10T14:32:39Z</time>
      </trkpt>
      <trkpt lat="43.74268" lon="7.26363">
        <ele>314</ele>
        <time>1990-12-10T14:32:52Z</time>
      </trkpt>
      <trkpt lat="43.74223" lon="7.26365">
        <ele>308</ele>
        <time>1990-12-10T14:32:59Z</time>
      </trkpt>
      <trkpt lat="43.74165" lon="7.26367">
        <ele>302</ele>
        <time>1990-12-10T14:33:07Z</time>
      </trkpt>
      <trkpt lat="43.74117" lon="7.26305">
        <ele>297</ele>
        <time>1990-12-10T14:33:14Z</time>
      </trkpt>
      <trkpt lat="43.74053" lon="7.26267">
        <ele>288</ele>
        <time>1990-12-10T14:33:23Z</time>
      </trkpt>
      <trkpt lat="43.74005" lon="7.2625">
        <ele>283</ele>
        <time>1990-12-10T14:33:29Z</time>
      </trkpt>
      <trkpt lat="43.73943" lon="7.2627">
        <ele>275</ele>
        <time>1990-12-10T14:33:38Z</time>
      </trkpt>
      <trkpt lat="43.73893" lon="7.26265">
        <ele>266</ele>
        <time>1990-12-10T14:33:45Z</time>
      </trkpt>
      <trkpt lat="43.73842" lon="7.2627">
        <ele>258</ele>
        <time>1990-12-10T14:33:52Z</time>
      </trkpt>
      <trkpt lat="43.73807" lon="7.26287">
        <ele>252</ele>
        <time>1990-12-10T14:33:58Z</time>
      </trkpt>
      <trkpt lat="43.7374" lon="7.26283">
        <ele>240</ele>
        <time>1990-12-10T14:34:06Z</time>
      </trkpt>
      <trkpt lat="43.73695" lon="7.26278">
        <ele>233</ele>
        <time>1990-12-10T14:34:12Z</time>
      </trkpt>
      <trkpt lat="43.73683" lon="7.26277">
        <ele>230</ele>
        <time>1990-12-10T14:34:41Z</time>
      </trkpt>
      <trkpt lat="43.73672" lon="7.26303">
        <ele>229</ele>
        <time>1990-12-10T14:34:46Z</time>
      </trkpt>
      <trkpt lat="43.73638" lon="7.26338">
        <ele>226</ele>
        <time>1990-12-10T14:34:53Z</time>
      </trkpt>
      <trkpt lat="43.73565" lon="7.26347">
        <ele>221</ele>
        <time>1990-12-10T14:35:02Z</time>
      </trkpt>
      <trkpt lat="43.73472" lon="7.26277">
        <ele>215</ele>
        <time>1990-12-10T14:35:14Z</time>
      </trkpt>
      <trkpt lat="43.73397" lon="7.26232">
        <ele>211</ele>
        <time>1990-12-10T14:35:23Z</time>
      </trkpt>
      <trkpt lat="43.73335" lon="7.26228">
        <ele>205</ele>
        <time>1990-12-10T14:35:30Z</time>
      </trkpt>
      <trkpt lat="43.7334" lon="7.26202">
        <ele>203</ele>
        <time>1990-12-10T14:35:36Z</time>
      </trkpt>
      <trkpt lat="43.73392" lon="7.26182">
        <ele>201</ele>
        <time>1990-12-10T14:35:49Z</time>
      </trkpt>
      <trkpt lat="43.7337" lon="7.26163">
        <ele>198</ele>
        <time>1990-12-10T14:36:04Z</time>
      </trkpt>
      <trkpt lat="43.73355" lon="7.26157">
        <ele>197</ele>
        <time>1990-12-10T14:36:12Z</time>
      </trkpt>
      <trkpt lat="43.73352" lon="7.26145">
        <ele>194</ele>
        <time>1990-12-10T14:39:34Z</time>
      </trkpt>
      <trkpt lat="43.73315" lon="7.2614">
        <ele>191</ele>
        <time>1990-12-10T14:39:43Z</time>
      </trkpt>
      <trkpt lat="43.73262" lon="7.26158">
        <ele>187</ele>
        <time>1990-12-10T14:39:52Z</time>
      </trkpt>
      <trkpt lat="43.7319" lon="7.261">
        <ele>179</ele>
        <time>1990-12-10T14:40:03Z</time>
      </trkpt>
      <trkpt lat="43.73147" lon="7.26122">
        <ele>175</ele>
        <time>1990-12-10T14:40:08Z</time>
      </trkpt>
      <trkpt lat="43.73088" lon="7.2612">
        <ele>172</ele>
        <time>1990-12-10T14:40:14Z</time>
      </trkpt>
      <trkpt lat="43.7302" lon="7.2612">
        <ele>166</ele>
        <time>1990-12-10T14:40:21Z</time>
      </trkpt>
      <trkpt lat="43.7293" lon="7.26073">
        <ele>158</ele>
        <time>1990-12-10T14:40:31Z</time>
      </trkpt>
      <trkpt lat="43.72847" lon="7.26078">
        <ele>151</ele>
        <time>1990-12-10T14:40:40Z</time>
      </trkpt>
      <trkpt lat="43.72825" lon="7.26075">
        <ele>148</ele>
        <time>1990-12-10T14:40:51Z</time>
      </trkpt>
      <trkpt lat="43.72807" lon="7.26093">
        <ele>145</ele>
        <time>1990-12-10T14:41:22Z</time>
      </trkpt>
      <trkpt lat="43.72785" lon="7.26132">
        <ele>139</ele>
        <time>1990-12-10T14:41:28Z</time>
      </trkpt>
      <trkpt lat="43.72733" lon="7.26122">
        <ele>131</ele>
        <time>1990-12-10T14:41:41Z</time>
      </trkpt>
      <trkpt lat="43.7274" lon="7.2606">
        <ele>128</ele>
        <time>1990-12-10T14:41:50Z</time>
      </trkpt>
      <trkpt lat="43.7275" lon="7.25983">
        <ele>124</ele>
        <time>1990-12-10T14:42:00Z</time>
      </trkpt>
      <trkpt lat="43.72707" lon="7.26017">
        <ele>120</ele>
        <time>1990-12-10T14:42:09Z</time>
      </trkpt>
      <trkpt lat="43.7265" lon="7.26078">
        <ele>116</ele>
        <time>1990-12-10T14:42:18Z</time>
      </trkpt>
      <trkpt lat="43.7263" lon="7.26088">
        <ele>113</ele>
        <time>1990-12-10T14:42:21Z</time>
      </trkpt>
      <trkpt lat="43.72598" lon="7.26078">
        <ele>111</ele>
        <time>1990-12-10T14:42:25Z</time>
      </trkpt>
      <trkpt lat="43.72572" lon="7.26068">
        <ele>108</ele>
        <time>1990-12-10T14:42:29Z</time>
      </trkpt>
      <trkpt lat="43.72563" lon="7.26095">
        <ele>106</ele>
        <time>1990-12-10T14:42:33Z</time>
      </trkpt>
      <trkpt lat="43.72543" lon="7.26157">
        <ele>101</ele>
        <time>1990-12-10T14:42:42Z</time>
      </trkpt>
      <trkpt lat="43.72467" lon="7.26183">
        <ele>96</ele>
        <time>1990-12-10T14:42:52Z</time>
      </trkpt>
      <trkpt lat="43.72483" lon="7.26245">
        <ele>91</ele>
        <time>1990-12-10T14:42:59Z</time>
      </trkpt>
      <trkpt lat="43.72478" lon="7.26253">
        <ele>89</ele>
        <time>1990-12-10T14:43:08Z</time>
      </trkpt>
      <trkpt lat="43.72458" lon="7.26203">
        <ele>86</ele>
        <time>1990-12-10T14:43:15Z</time>
      </trkpt>
      <trkpt lat="43.7245" lon="7.26133">
        <ele>83</ele>
        <time>1990-12-10T14:43:23Z</time>
      </trkpt>
      <trkpt lat="43.72453" lon="7.2603">
        <ele>79</ele>
        <time>1990-12-10T14:43:33Z</time>
      </trkpt>
      <trkpt lat="43.7242" lon="7.25933">
        <ele>77</ele>
        <time>1990-12-10T14:43:47Z</time>
      </trkpt>
      <trkpt lat="43.72387" lon="7.25955">
        <ele>75</ele>
        <time>1990-12-10T14:43:56Z</time>
      </trkpt>
      <trkpt lat="43.72242" lon="7.26043">
        <ele>68</ele>
        <time>1990-12-10T14:44:23Z</time>
      </trkpt>
      <trkpt lat="43.72218" lon="7.2605">
        <ele>67</ele>
        <time>1990-12-10T14:44:28Z</time>
      </trkpt>
      <trkpt lat="43.72187" lon="7.26067">
        <ele>66</ele>
        <time>1990-12-10T14:44:35Z</time>
      </trkpt>
      <trkpt lat="43.72158" lon="7.26072">
        <ele>65</ele>
        <time>1990-12-10T14:44:42Z</time>
      </trkpt>
      <trkpt lat="43.72118" lon="7.26082">
        <ele>63</ele>
        <time>1990-12-10T14:44:49Z</time>
      </trkpt>
      <trkpt lat="43.72087" lon="7.26113">
        <ele>63</ele>
        <time>1990-12-10T14:44:57Z</time>
      </trkpt>
      <trkpt lat="43.72047" lon="7.26195">
        <ele>61</ele>
        <time>1990-12-10T14:45:11Z</time>
      </trkpt>
      <trkpt lat="43.71993" lon="7.26233">
        <ele>59</ele>
        <time>1990-12-10T14:45:24Z</time>
      </trkpt>
      <trkpt lat="43.71963" lon="7.26237">
        <ele>58</ele>
        <time>1990-12-10T14:45:29Z</time>
      </trkpt>
      <trkpt lat="43.71853" lon="7.26157">
        <ele>54</ele>
        <time>1990-12-10T14:45:53Z</time>
      </trkpt>
      <trkpt lat="43.71847" lon="7.26155">
        <ele>53</ele>
        <time>1990-12-10T14:46:24Z</time>
      </trkpt>
      <trkpt lat="43.71793" lon="7.26147">
        <ele>52</ele>
        <time>1990-12-10T14:46:40Z</time>
      </trkpt>
      <trkpt lat="43.7169" lon="7.2614">
        <ele>49</ele>
        <time>1990-12-10T14:46:59Z</time>
      </trkpt>
      <trkpt lat="43.71663" lon="7.26135">
        <ele>48</ele>
        <time>1990-12-10T14:47:39Z</time>
      </trkpt>
      <trkpt lat="43.71597" lon="7.26143">
        <ele>47</ele>
        <time>1990-12-10T14:47:57Z</time>
      </trkpt>
      <trkpt lat="43.71565" lon="7.26132">
        <ele>46</ele>
        <time>1990-12-10T14:48:57Z</time>
      </trkpt>
      <trkpt lat="43.71515" lon="7.2614">
        <ele>45</ele>
        <time>1990-12-10T14:49:11Z</time>
      </trkpt>
      <trkpt lat="43.71488" lon="7.26157">
        <ele>45</ele>
        <time>1990-12-10T14:49:24Z</time>
      </trkpt>
      <trkpt lat="43.71423" lon="7.26165">
        <ele>42</ele>
        <time>1990-12-10T14:49:47Z</time>
      </trkpt>
      <trkpt lat="43.7135" lon="7.26185">
        <ele>41</ele>
        <time>1990-12-10T14:50:12Z</time>
      </trkpt>
      <trkpt lat="43.7131" lon="7.26168">
        <ele>41</ele>
        <time>1990-12-10T14:50:33Z</time>
      </trkpt>
      <trkpt lat="43.7127" lon="7.26188">
        <ele>39</ele>
        <time>1990-12-10T14:50:48Z</time>
      </trkpt>
      <trkpt lat="43.71243" lon="7.26185">
        <ele>39</ele>
        <time>1990-12-10T14:50:59Z</time>
      </trkpt>
      <trkpt lat="43.71232" lon="7.26183">
        <ele>38</ele>
        <time>1990-12-10T14:51:07Z</time>
      </trkpt>
      <trkpt lat="43.71188" lon="7.26158">
        <ele>37</ele>
        <time>1990-12-10T14:51:27Z</time>
      </trkpt>
      <trkpt lat="43.7116" lon="7.26142">
        <ele>36</ele>
        <time>1990-12-10T14:51:53Z</time>
      </trkpt>
      <trkpt lat="43.71115" lon="7.2616">
        <ele>35</ele>
        <time>1990-12-10T14:52:11Z</time>
      </trkpt>
      <trkpt lat="43.71095" lon="7.26175">
        <ele>35</ele>
        <time>1990-12-10T14:52:26Z</time>
      </trkpt>
      <trkpt lat="43.7102" lon="7.26188">
        <ele>33</ele>
        <time>1990-12-10T14:52:37Z</time>
      </trkpt>
      <trkpt lat="43.7094" lon="7.26238">
        <ele>31</ele>
        <time>1990-12-10T14:52:55Z</time>
      </trkpt>
      <trkpt lat="43.70898" lon="7.26265">
        <ele>30</ele>
        <time>1990-12-10T14:53:10Z</time>
      </trkpt>
      <trkpt lat="43.70872" lon="7.2628">
        <ele>29</ele>
        <time>1990-12-10T14:54:08Z</time>
      </trkpt>
      <trkpt lat="43.70847" lon="7.26292">
        <ele>29</ele>
        <time>1990-12-10T14:54:29Z</time>
      </trkpt>
      <trkpt lat="43.70805" lon="7.26312">
        <ele>28</ele>
        <time>1990-12-10T14:54:45Z</time>
      </trkpt>
      <trkpt lat="43.7077" lon="7.26353">
        <ele>27</ele>
        <time>1990-12-10T14:54:59Z</time>
      </trkpt>
      <trkpt lat="43.7073" lon="7.26385">
        <ele>26</ele>
        <time>1990-12-10T14:55:15Z</time>
      </trkpt>
      <trkpt lat="43.70663" lon="7.26412">
        <ele>25</ele>
        <time>1990-12-10T14:55:30Z</time>
      </trkpt>
      <trkpt lat="43.70592" lon="7.26463">
        <ele>23</ele>
        <time>1990-12-10T14:55:49Z</time>
      </trkpt>
      <trkpt lat="43.7053" lon="7.26505">
        <ele>22</ele>
        <time>1990-12-10T14:56:09Z</time>
      </trkpt>
      <trkpt lat="43.70495" lon="7.26533">
        <ele>22</ele>
        <time>1990-12-10T14:56:25Z</time>
      </trkpt>
      <trkpt lat="43.70457" lon="7.2656">
        <ele>21</ele>
        <time>1990-12-10T14:56:42Z</time>
      </trkpt>
      <trkpt lat="43.7044" lon="7.26568">
        <ele>21</ele>
        <time>1990-12-10T14:56:52Z</time>
      </trkpt>
    </trkseg>
  </trk>
</gpx>